<?xml version="1.0" encoding="UTF-8" standalone="no" ?>
<gpx xmlns="http://www.topografix.com/GPX/1/1" xmlns:xsi="http://www.w3.org/2001/XMLSchema-instance" xsi:schemaLocation="http://www.topografix.com/GPX/1/1 http://www.topografix.com/GPX/1/1/gpx.xsd" version="1.1" creator="VisuGPX - https://www.visugpx.com">
  <metadata>
    <name>ski Mont du Chat</name>
  </metadata>
  <trk>
    <name><![CDATA[ski Mont du Chat]]></name>
    <extensions>
      <line xmlns="http://www.topografix.com/GPX/gpx_style/0/2">
        <color>0000FF</color>
        <width>4</width>
      </line>
    </extensions>
    <trkseg>
      <trkpt lat="45.25015" lon="6.47365">
        <ele>1363.5999755859</ele>
        <time>2021-01-24T07:45:05.000Z</time>
      </trkpt>
      <trkpt lat="45.25015" lon="6.47365">
        <ele>1362</ele>
        <time>2021-01-24T07:45:14.000Z</time>
      </trkpt>
      <trkpt lat="45.25015" lon="6.47365">
        <ele>1362.4000244141</ele>
        <time>2021-01-24T07:45:31.000Z</time>
      </trkpt>
      <trkpt lat="45.25015" lon="6.47365">
        <ele>1361</ele>
        <time>2021-01-24T07:45:37.000Z</time>
      </trkpt>
      <trkpt lat="45.25015" lon="6.47365">
        <ele>1362</ele>
        <time>2021-01-24T07:45:39.000Z</time>
      </trkpt>
      <trkpt lat="45.25015" lon="6.47365">
        <ele>1362.8000488281</ele>
        <time>2021-01-24T07:45:40.000Z</time>
      </trkpt>
      <trkpt lat="45.25017" lon="6.47363">
        <ele>1363.4000244141</ele>
        <time>2021-01-24T07:45:42.000Z</time>
      </trkpt>
      <trkpt lat="45.25019" lon="6.47362">
        <ele>1363</ele>
        <time>2021-01-24T07:45:44.000Z</time>
      </trkpt>
      <trkpt lat="45.25026" lon="6.47361">
        <ele>1361.8000488281</ele>
        <time>2021-01-24T07:45:50.000Z</time>
      </trkpt>
      <trkpt lat="45.25033" lon="6.47362">
        <ele>1362</ele>
        <time>2021-01-24T07:45:59.000Z</time>
      </trkpt>
      <trkpt lat="45.25033" lon="6.47362">
        <ele>1362.1999511719</ele>
        <time>2021-01-24T07:46:14.000Z</time>
      </trkpt>
      <trkpt lat="45.25033" lon="6.47362">
        <ele>1362.8000488281</ele>
        <time>2021-01-24T07:46:27.000Z</time>
      </trkpt>
      <trkpt lat="45.25033" lon="6.47362">
        <ele>1362.8000488281</ele>
        <time>2021-01-24T07:46:42.000Z</time>
      </trkpt>
      <trkpt lat="45.25033" lon="6.47362">
        <ele>1362.1999511719</ele>
        <time>2021-01-24T07:46:57.000Z</time>
      </trkpt>
      <trkpt lat="45.25034" lon="6.47363">
        <ele>1362.8000488281</ele>
        <time>2021-01-24T07:47:06.000Z</time>
      </trkpt>
      <trkpt lat="45.25034" lon="6.47363">
        <ele>1362.5999755859</ele>
        <time>2021-01-24T07:47:20.000Z</time>
      </trkpt>
      <trkpt lat="45.25034" lon="6.47363">
        <ele>1362.4000244141</ele>
        <time>2021-01-24T07:47:33.000Z</time>
      </trkpt>
      <trkpt lat="45.25034" lon="6.47363">
        <ele>1362.5999755859</ele>
        <time>2021-01-24T07:47:46.000Z</time>
      </trkpt>
      <trkpt lat="45.25034" lon="6.47362">
        <ele>1363.5999755859</ele>
        <time>2021-01-24T07:47:53.000Z</time>
      </trkpt>
      <trkpt lat="45.25034" lon="6.47361">
        <ele>1363.1999511719</ele>
        <time>2021-01-24T07:47:59.000Z</time>
      </trkpt>
      <trkpt lat="45.25033" lon="6.47361">
        <ele>1363.1999511719</ele>
        <time>2021-01-24T07:48:13.000Z</time>
      </trkpt>
      <trkpt lat="45.25033" lon="6.47363">
        <ele>1363.1999511719</ele>
        <time>2021-01-24T07:48:19.000Z</time>
      </trkpt>
      <trkpt lat="45.25033" lon="6.47363">
        <ele>1363.4000244141</ele>
        <time>2021-01-24T07:48:30.000Z</time>
      </trkpt>
      <trkpt lat="45.25034" lon="6.47362">
        <ele>1363.4000244141</ele>
        <time>2021-01-24T07:48:37.000Z</time>
      </trkpt>
      <trkpt lat="45.25036" lon="6.47361">
        <ele>1363.1999511719</ele>
        <time>2021-01-24T07:48:41.000Z</time>
      </trkpt>
      <trkpt lat="45.25037" lon="6.47361">
        <ele>1363.1999511719</ele>
        <time>2021-01-24T07:48:42.000Z</time>
      </trkpt>
      <trkpt lat="45.25038" lon="6.47361">
        <ele>1363.1999511719</ele>
        <time>2021-01-24T07:48:43.000Z</time>
      </trkpt>
      <trkpt lat="45.25043" lon="6.47361">
        <ele>1363.4000244141</ele>
        <time>2021-01-24T07:48:47.000Z</time>
      </trkpt>
      <trkpt lat="45.25048" lon="6.47362">
        <ele>1363.5999755859</ele>
        <time>2021-01-24T07:48:53.000Z</time>
      </trkpt>
      <trkpt lat="45.25051" lon="6.47362">
        <ele>1364</ele>
        <time>2021-01-24T07:48:57.000Z</time>
      </trkpt>
      <trkpt lat="45.25053" lon="6.47362">
        <ele>1364.1999511719</ele>
        <time>2021-01-24T07:48:59.000Z</time>
      </trkpt>
      <trkpt lat="45.2506" lon="6.47363">
        <ele>1364.1999511719</ele>
        <time>2021-01-24T07:49:05.000Z</time>
      </trkpt>
      <trkpt lat="45.25064" lon="6.47363">
        <ele>1364.1999511719</ele>
        <time>2021-01-24T07:49:10.000Z</time>
      </trkpt>
      <trkpt lat="45.25068" lon="6.47363">
        <ele>1364.4000244141</ele>
        <time>2021-01-24T07:49:15.000Z</time>
      </trkpt>
      <trkpt lat="45.25069" lon="6.47363">
        <ele>1364.5999755859</ele>
        <time>2021-01-24T07:49:16.000Z</time>
      </trkpt>
      <trkpt lat="45.25071" lon="6.47364">
        <ele>1364.5999755859</ele>
        <time>2021-01-24T07:49:18.000Z</time>
      </trkpt>
      <trkpt lat="45.25073" lon="6.47365">
        <ele>1364.8000488281</ele>
        <time>2021-01-24T07:49:20.000Z</time>
      </trkpt>
      <trkpt lat="45.25074" lon="6.47365">
        <ele>1364.8000488281</ele>
        <time>2021-01-24T07:49:21.000Z</time>
      </trkpt>
      <trkpt lat="45.25075" lon="6.47367">
        <ele>1364.8000488281</ele>
        <time>2021-01-24T07:49:24.000Z</time>
      </trkpt>
      <trkpt lat="45.25075" lon="6.47367">
        <ele>1365</ele>
        <time>2021-01-24T07:49:25.000Z</time>
      </trkpt>
      <trkpt lat="45.25076" lon="6.47367">
        <ele>1365</ele>
        <time>2021-01-24T07:49:27.000Z</time>
      </trkpt>
      <trkpt lat="45.2508" lon="6.47371">
        <ele>1364</ele>
        <time>2021-01-24T07:49:34.000Z</time>
      </trkpt>
      <trkpt lat="45.25084" lon="6.47375">
        <ele>1365</ele>
        <time>2021-01-24T07:49:44.000Z</time>
      </trkpt>
      <trkpt lat="45.25083" lon="6.47381">
        <ele>1366</ele>
        <time>2021-01-24T07:49:52.000Z</time>
      </trkpt>
      <trkpt lat="45.2508" lon="6.47388">
        <ele>1365.5999755859</ele>
        <time>2021-01-24T07:49:59.000Z</time>
      </trkpt>
      <trkpt lat="45.25078" lon="6.47392">
        <ele>1366</ele>
        <time>2021-01-24T07:50:03.000Z</time>
      </trkpt>
      <trkpt lat="45.25072" lon="6.47399">
        <ele>1367</ele>
        <time>2021-01-24T07:50:08.000Z</time>
      </trkpt>
      <trkpt lat="45.25063" lon="6.47403">
        <ele>1367</ele>
        <time>2021-01-24T07:50:16.000Z</time>
      </trkpt>
      <trkpt lat="45.25055" lon="6.47401">
        <ele>1367.8000488281</ele>
        <time>2021-01-24T07:50:23.000Z</time>
      </trkpt>
      <trkpt lat="45.25049" lon="6.474">
        <ele>1368.1999511719</ele>
        <time>2021-01-24T07:50:28.000Z</time>
      </trkpt>
      <trkpt lat="45.25047" lon="6.474">
        <ele>1368.1999511719</ele>
        <time>2021-01-24T07:50:30.000Z</time>
      </trkpt>
      <trkpt lat="45.25042" lon="6.474">
        <ele>1369</ele>
        <time>2021-01-24T07:50:35.000Z</time>
      </trkpt>
      <trkpt lat="45.25041" lon="6.47401">
        <ele>1369.4000244141</ele>
        <time>2021-01-24T07:50:36.000Z</time>
      </trkpt>
      <trkpt lat="45.25032" lon="6.47399">
        <ele>1370</ele>
        <time>2021-01-24T07:50:44.000Z</time>
      </trkpt>
      <trkpt lat="45.25028" lon="6.47398">
        <ele>1370.4000244141</ele>
        <time>2021-01-24T07:50:47.000Z</time>
      </trkpt>
      <trkpt lat="45.25024" lon="6.47399">
        <ele>1371.5999755859</ele>
        <time>2021-01-24T07:50:52.000Z</time>
      </trkpt>
      <trkpt lat="45.25024" lon="6.47399">
        <ele>1371.5999755859</ele>
        <time>2021-01-24T07:50:53.000Z</time>
      </trkpt>
      <trkpt lat="45.25024" lon="6.47399">
        <ele>1372</ele>
        <time>2021-01-24T07:51:06.000Z</time>
      </trkpt>
      <trkpt lat="45.25024" lon="6.47399">
        <ele>1371.8000488281</ele>
        <time>2021-01-24T07:51:19.000Z</time>
      </trkpt>
      <trkpt lat="45.25018" lon="6.47399">
        <ele>1372</ele>
        <time>2021-01-24T07:51:28.000Z</time>
      </trkpt>
      <trkpt lat="45.25014" lon="6.47401">
        <ele>1372.5999755859</ele>
        <time>2021-01-24T07:51:32.000Z</time>
      </trkpt>
      <trkpt lat="45.2501" lon="6.47402">
        <ele>1373.1999511719</ele>
        <time>2021-01-24T07:51:36.000Z</time>
      </trkpt>
      <trkpt lat="45.25003" lon="6.47403">
        <ele>1373.8000488281</ele>
        <time>2021-01-24T07:51:44.000Z</time>
      </trkpt>
      <trkpt lat="45.24998" lon="6.47405">
        <ele>1374.8000488281</ele>
        <time>2021-01-24T07:51:49.000Z</time>
      </trkpt>
      <trkpt lat="45.24997" lon="6.47407">
        <ele>1375</ele>
        <time>2021-01-24T07:51:51.000Z</time>
      </trkpt>
      <trkpt lat="45.25001" lon="6.47415">
        <ele>1375.5999755859</ele>
        <time>2021-01-24T07:51:59.000Z</time>
      </trkpt>
      <trkpt lat="45.25002" lon="6.47417">
        <ele>1376</ele>
        <time>2021-01-24T07:52:01.000Z</time>
      </trkpt>
      <trkpt lat="45.25006" lon="6.47424">
        <ele>1377.1999511719</ele>
        <time>2021-01-24T07:52:06.000Z</time>
      </trkpt>
      <trkpt lat="45.25009" lon="6.47428">
        <ele>1378.1999511719</ele>
        <time>2021-01-24T07:52:12.000Z</time>
      </trkpt>
      <trkpt lat="45.2501" lon="6.47429">
        <ele>1378.8000488281</ele>
        <time>2021-01-24T07:52:14.000Z</time>
      </trkpt>
      <trkpt lat="45.25011" lon="6.47431">
        <ele>1379.4000244141</ele>
        <time>2021-01-24T07:52:16.000Z</time>
      </trkpt>
      <trkpt lat="45.25014" lon="6.47435">
        <ele>1380.4000244141</ele>
        <time>2021-01-24T07:52:20.000Z</time>
      </trkpt>
      <trkpt lat="45.25015" lon="6.47438">
        <ele>1381.5999755859</ele>
        <time>2021-01-24T07:52:25.000Z</time>
      </trkpt>
      <trkpt lat="45.25017" lon="6.47443">
        <ele>1382.8000488281</ele>
        <time>2021-01-24T07:52:30.000Z</time>
      </trkpt>
      <trkpt lat="45.25018" lon="6.47445">
        <ele>1384</ele>
        <time>2021-01-24T07:52:35.000Z</time>
      </trkpt>
      <trkpt lat="45.25021" lon="6.47447">
        <ele>1385.4000244141</ele>
        <time>2021-01-24T07:52:40.000Z</time>
      </trkpt>
      <trkpt lat="45.2502" lon="6.47448">
        <ele>1386.4000244141</ele>
        <time>2021-01-24T07:52:42.000Z</time>
      </trkpt>
      <trkpt lat="45.2502" lon="6.47448">
        <ele>1386.1999511719</ele>
        <time>2021-01-24T07:52:52.000Z</time>
      </trkpt>
      <trkpt lat="45.2502" lon="6.47448">
        <ele>1385.1999511719</ele>
        <time>2021-01-24T07:52:55.000Z</time>
      </trkpt>
      <trkpt lat="45.2502" lon="6.47448">
        <ele>1386.1999511719</ele>
        <time>2021-01-24T07:53:03.000Z</time>
      </trkpt>
      <trkpt lat="45.2502" lon="6.47448">
        <ele>1387.1999511719</ele>
        <time>2021-01-24T07:53:09.000Z</time>
      </trkpt>
      <trkpt lat="45.2502" lon="6.47448">
        <ele>1387.1999511719</ele>
        <time>2021-01-24T07:53:12.000Z</time>
      </trkpt>
      <trkpt lat="45.25021" lon="6.47448">
        <ele>1387.1999511719</ele>
        <time>2021-01-24T07:53:24.000Z</time>
      </trkpt>
      <trkpt lat="45.25021" lon="6.47448">
        <ele>1387.1999511719</ele>
        <time>2021-01-24T07:53:37.000Z</time>
      </trkpt>
      <trkpt lat="45.25021" lon="6.47448">
        <ele>1387.1999511719</ele>
        <time>2021-01-24T07:53:56.000Z</time>
      </trkpt>
      <trkpt lat="45.25025" lon="6.4745">
        <ele>1387.4000244141</ele>
        <time>2021-01-24T07:54:02.000Z</time>
      </trkpt>
      <trkpt lat="45.2503" lon="6.47454">
        <ele>1388.1999511719</ele>
        <time>2021-01-24T07:54:06.000Z</time>
      </trkpt>
      <trkpt lat="45.25032" lon="6.47456">
        <ele>1389.4000244141</ele>
        <time>2021-01-24T07:54:10.000Z</time>
      </trkpt>
      <trkpt lat="45.25035" lon="6.47459">
        <ele>1390.4000244141</ele>
        <time>2021-01-24T07:54:14.000Z</time>
      </trkpt>
      <trkpt lat="45.25038" lon="6.47461">
        <ele>1391.5999755859</ele>
        <time>2021-01-24T07:54:18.000Z</time>
      </trkpt>
      <trkpt lat="45.25037" lon="6.47462">
        <ele>1392.8000488281</ele>
        <time>2021-01-24T07:54:23.000Z</time>
      </trkpt>
      <trkpt lat="45.25041" lon="6.47462">
        <ele>1393.1999511719</ele>
        <time>2021-01-24T07:54:28.000Z</time>
      </trkpt>
      <trkpt lat="45.25042" lon="6.47464">
        <ele>1393.8000488281</ele>
        <time>2021-01-24T07:54:30.000Z</time>
      </trkpt>
      <trkpt lat="45.25043" lon="6.47468">
        <ele>1394.8000488281</ele>
        <time>2021-01-24T07:54:34.000Z</time>
      </trkpt>
      <trkpt lat="45.25043" lon="6.47472">
        <ele>1395.8000488281</ele>
        <time>2021-01-24T07:54:38.000Z</time>
      </trkpt>
      <trkpt lat="45.25043" lon="6.47475">
        <ele>1396.8000488281</ele>
        <time>2021-01-24T07:54:42.000Z</time>
      </trkpt>
      <trkpt lat="45.25043" lon="6.47475">
        <ele>1397</ele>
        <time>2021-01-24T07:54:43.000Z</time>
      </trkpt>
      <trkpt lat="45.25043" lon="6.47483">
        <ele>1398.1999511719</ele>
        <time>2021-01-24T07:54:48.000Z</time>
      </trkpt>
      <trkpt lat="45.25043" lon="6.47489">
        <ele>1399.1999511719</ele>
        <time>2021-01-24T07:54:54.000Z</time>
      </trkpt>
      <trkpt lat="45.25044" lon="6.47491">
        <ele>1399.4000244141</ele>
        <time>2021-01-24T07:54:55.000Z</time>
      </trkpt>
      <trkpt lat="45.25046" lon="6.47493">
        <ele>1400.1999511719</ele>
        <time>2021-01-24T07:54:58.000Z</time>
      </trkpt>
      <trkpt lat="45.25048" lon="6.47496">
        <ele>1401.5999755859</ele>
        <time>2021-01-24T07:55:01.000Z</time>
      </trkpt>
      <trkpt lat="45.25048" lon="6.47497">
        <ele>1402</ele>
        <time>2021-01-24T07:55:02.000Z</time>
      </trkpt>
      <trkpt lat="45.25052" lon="6.47502">
        <ele>1402.4000244141</ele>
        <time>2021-01-24T07:55:09.000Z</time>
      </trkpt>
      <trkpt lat="45.25053" lon="6.47504">
        <ele>1402.5999755859</ele>
        <time>2021-01-24T07:55:11.000Z</time>
      </trkpt>
      <trkpt lat="45.25055" lon="6.47505">
        <ele>1403.8000488281</ele>
        <time>2021-01-24T07:55:14.000Z</time>
      </trkpt>
      <trkpt lat="45.25057" lon="6.47506">
        <ele>1404.4000244141</ele>
        <time>2021-01-24T07:55:16.000Z</time>
      </trkpt>
      <trkpt lat="45.25057" lon="6.47507">
        <ele>1404.8000488281</ele>
        <time>2021-01-24T07:55:17.000Z</time>
      </trkpt>
      <trkpt lat="45.2506" lon="6.47511">
        <ele>1405.4000244141</ele>
        <time>2021-01-24T07:55:22.000Z</time>
      </trkpt>
      <trkpt lat="45.25063" lon="6.47518">
        <ele>1406.1999511719</ele>
        <time>2021-01-24T07:55:29.000Z</time>
      </trkpt>
      <trkpt lat="45.25063" lon="6.47521">
        <ele>1406.4000244141</ele>
        <time>2021-01-24T07:55:31.000Z</time>
      </trkpt>
      <trkpt lat="45.25063" lon="6.47525">
        <ele>1407.1999511719</ele>
        <time>2021-01-24T07:55:35.000Z</time>
      </trkpt>
      <trkpt lat="45.25062" lon="6.47527">
        <ele>1408.1999511719</ele>
        <time>2021-01-24T07:55:37.000Z</time>
      </trkpt>
      <trkpt lat="45.2506" lon="6.47532">
        <ele>1409.1999511719</ele>
        <time>2021-01-24T07:55:40.000Z</time>
      </trkpt>
      <trkpt lat="45.25052" lon="6.47536">
        <ele>1410</ele>
        <time>2021-01-24T07:55:51.000Z</time>
      </trkpt>
      <trkpt lat="45.25049" lon="6.47538">
        <ele>1410.4000244141</ele>
        <time>2021-01-24T07:55:54.000Z</time>
      </trkpt>
      <trkpt lat="45.25038" lon="6.47543">
        <ele>1411.4000244141</ele>
        <time>2021-01-24T07:56:01.000Z</time>
      </trkpt>
      <trkpt lat="45.25035" lon="6.47545">
        <ele>1411.4000244141</ele>
        <time>2021-01-24T07:56:03.000Z</time>
      </trkpt>
      <trkpt lat="45.25032" lon="6.47546">
        <ele>1411.8000488281</ele>
        <time>2021-01-24T07:56:05.000Z</time>
      </trkpt>
      <trkpt lat="45.25028" lon="6.47547">
        <ele>1412.5999755859</ele>
        <time>2021-01-24T07:56:11.000Z</time>
      </trkpt>
      <trkpt lat="45.25019" lon="6.47552">
        <ele>1413.8000488281</ele>
        <time>2021-01-24T07:56:20.000Z</time>
      </trkpt>
      <trkpt lat="45.25017" lon="6.47553">
        <ele>1414</ele>
        <time>2021-01-24T07:56:22.000Z</time>
      </trkpt>
      <trkpt lat="45.25013" lon="6.47555">
        <ele>1414.8000488281</ele>
        <time>2021-01-24T07:56:27.000Z</time>
      </trkpt>
      <trkpt lat="45.25012" lon="6.47555">
        <ele>1415.8000488281</ele>
        <time>2021-01-24T07:56:31.000Z</time>
      </trkpt>
      <trkpt lat="45.25011" lon="6.47556">
        <ele>1416.1999511719</ele>
        <time>2021-01-24T07:56:33.000Z</time>
      </trkpt>
      <trkpt lat="45.25007" lon="6.4756">
        <ele>1417</ele>
        <time>2021-01-24T07:56:37.000Z</time>
      </trkpt>
      <trkpt lat="45.25004" lon="6.47563">
        <ele>1418</ele>
        <time>2021-01-24T07:56:42.000Z</time>
      </trkpt>
      <trkpt lat="45.25003" lon="6.47563">
        <ele>1418.8000488281</ele>
        <time>2021-01-24T07:56:45.000Z</time>
      </trkpt>
      <trkpt lat="45.25003" lon="6.47563">
        <ele>1419</ele>
        <time>2021-01-24T07:56:46.000Z</time>
      </trkpt>
      <trkpt lat="45.25003" lon="6.47563">
        <ele>1420.1999511719</ele>
        <time>2021-01-24T07:56:51.000Z</time>
      </trkpt>
      <trkpt lat="45.24999" lon="6.47565">
        <ele>1421.4000244141</ele>
        <time>2021-01-24T07:56:55.000Z</time>
      </trkpt>
      <trkpt lat="45.24997" lon="6.47566">
        <ele>1422.4000244141</ele>
        <time>2021-01-24T07:56:58.000Z</time>
      </trkpt>
      <trkpt lat="45.24997" lon="6.47566">
        <ele>1423.4000244141</ele>
        <time>2021-01-24T07:57:02.000Z</time>
      </trkpt>
      <trkpt lat="45.24995" lon="6.47566">
        <ele>1424.4000244141</ele>
        <time>2021-01-24T07:57:09.000Z</time>
      </trkpt>
      <trkpt lat="45.24993" lon="6.47567">
        <ele>1424.8000488281</ele>
        <time>2021-01-24T07:57:10.000Z</time>
      </trkpt>
      <trkpt lat="45.24989" lon="6.47568">
        <ele>1425.4000244141</ele>
        <time>2021-01-24T07:57:12.000Z</time>
      </trkpt>
      <trkpt lat="45.24982" lon="6.47571">
        <ele>1426.5999755859</ele>
        <time>2021-01-24T07:57:16.000Z</time>
      </trkpt>
      <trkpt lat="45.24978" lon="6.47573">
        <ele>1427.1999511719</ele>
        <time>2021-01-24T07:57:19.000Z</time>
      </trkpt>
      <trkpt lat="45.24966" lon="6.47578">
        <ele>1427.4000244141</ele>
        <time>2021-01-24T07:57:26.000Z</time>
      </trkpt>
      <trkpt lat="45.24964" lon="6.47579">
        <ele>1427.5999755859</ele>
        <time>2021-01-24T07:57:27.000Z</time>
      </trkpt>
      <trkpt lat="45.24954" lon="6.47586">
        <ele>1428.5999755859</ele>
        <time>2021-01-24T07:57:37.000Z</time>
      </trkpt>
      <trkpt lat="45.24952" lon="6.47588">
        <ele>1428.8000488281</ele>
        <time>2021-01-24T07:57:41.000Z</time>
      </trkpt>
      <trkpt lat="45.2495" lon="6.47593">
        <ele>1429</ele>
        <time>2021-01-24T07:57:46.000Z</time>
      </trkpt>
      <trkpt lat="45.24949" lon="6.476">
        <ele>1430</ele>
        <time>2021-01-24T07:57:53.000Z</time>
      </trkpt>
      <trkpt lat="45.24949" lon="6.476">
        <ele>1430.4000244141</ele>
        <time>2021-01-24T07:57:57.000Z</time>
      </trkpt>
      <trkpt lat="45.24946" lon="6.4761">
        <ele>1431</ele>
        <time>2021-01-24T07:58:01.000Z</time>
      </trkpt>
      <trkpt lat="45.24942" lon="6.47619">
        <ele>1431.8000488281</ele>
        <time>2021-01-24T07:58:05.000Z</time>
      </trkpt>
      <trkpt lat="45.24941" lon="6.4762">
        <ele>1432</ele>
        <time>2021-01-24T07:58:09.000Z</time>
      </trkpt>
      <trkpt lat="45.24939" lon="6.47625">
        <ele>1432.8000488281</ele>
        <time>2021-01-24T07:58:14.000Z</time>
      </trkpt>
      <trkpt lat="45.24935" lon="6.47631">
        <ele>1433.1999511719</ele>
        <time>2021-01-24T07:58:16.000Z</time>
      </trkpt>
      <trkpt lat="45.24926" lon="6.47643">
        <ele>1434.1999511719</ele>
        <time>2021-01-24T07:58:22.000Z</time>
      </trkpt>
      <trkpt lat="45.24925" lon="6.47644">
        <ele>1434.4000244141</ele>
        <time>2021-01-24T07:58:23.000Z</time>
      </trkpt>
      <trkpt lat="45.24919" lon="6.4765">
        <ele>1435.1999511719</ele>
        <time>2021-01-24T07:58:29.000Z</time>
      </trkpt>
      <trkpt lat="45.24914" lon="6.47652">
        <ele>1436</ele>
        <time>2021-01-24T07:58:33.000Z</time>
      </trkpt>
      <trkpt lat="45.24913" lon="6.47653">
        <ele>1436.4000244141</ele>
        <time>2021-01-24T07:58:34.000Z</time>
      </trkpt>
      <trkpt lat="45.24909" lon="6.47655">
        <ele>1437.5999755859</ele>
        <time>2021-01-24T07:58:39.000Z</time>
      </trkpt>
      <trkpt lat="45.24905" lon="6.47653">
        <ele>1438.4000244141</ele>
        <time>2021-01-24T07:58:43.000Z</time>
      </trkpt>
      <trkpt lat="45.24905" lon="6.47653">
        <ele>1438.8000488281</ele>
        <time>2021-01-24T07:58:44.000Z</time>
      </trkpt>
      <trkpt lat="45.24905" lon="6.47653">
        <ele>1440</ele>
        <time>2021-01-24T07:58:49.000Z</time>
      </trkpt>
      <trkpt lat="45.24903" lon="6.47653">
        <ele>1441</ele>
        <time>2021-01-24T07:58:53.000Z</time>
      </trkpt>
      <trkpt lat="45.24902" lon="6.47654">
        <ele>1441.1999511719</ele>
        <time>2021-01-24T07:58:54.000Z</time>
      </trkpt>
      <trkpt lat="45.24899" lon="6.47657">
        <ele>1442</ele>
        <time>2021-01-24T07:58:58.000Z</time>
      </trkpt>
      <trkpt lat="45.24895" lon="6.4766">
        <ele>1443.1999511719</ele>
        <time>2021-01-24T07:59:02.000Z</time>
      </trkpt>
      <trkpt lat="45.24892" lon="6.4766">
        <ele>1444</ele>
        <time>2021-01-24T07:59:05.000Z</time>
      </trkpt>
      <trkpt lat="45.24891" lon="6.4766">
        <ele>1444.4000244141</ele>
        <time>2021-01-24T07:59:06.000Z</time>
      </trkpt>
      <trkpt lat="45.24887" lon="6.4766">
        <ele>1445.4000244141</ele>
        <time>2021-01-24T07:59:10.000Z</time>
      </trkpt>
      <trkpt lat="45.24885" lon="6.47663">
        <ele>1446.5999755859</ele>
        <time>2021-01-24T07:59:15.000Z</time>
      </trkpt>
      <trkpt lat="45.24883" lon="6.47668">
        <ele>1448</ele>
        <time>2021-01-24T07:59:20.000Z</time>
      </trkpt>
      <trkpt lat="45.24885" lon="6.47672">
        <ele>1449</ele>
        <time>2021-01-24T07:59:25.000Z</time>
      </trkpt>
      <trkpt lat="45.24887" lon="6.47676">
        <ele>1449.5999755859</ele>
        <time>2021-01-24T07:59:28.000Z</time>
      </trkpt>
      <trkpt lat="45.24889" lon="6.47679">
        <ele>1450.1999511719</ele>
        <time>2021-01-24T07:59:31.000Z</time>
      </trkpt>
      <trkpt lat="45.24893" lon="6.4768">
        <ele>1451.1999511719</ele>
        <time>2021-01-24T07:59:37.000Z</time>
      </trkpt>
      <trkpt lat="45.24893" lon="6.47682">
        <ele>1451.4000244141</ele>
        <time>2021-01-24T07:59:39.000Z</time>
      </trkpt>
      <trkpt lat="45.24897" lon="6.47688">
        <ele>1452.1999511719</ele>
        <time>2021-01-24T07:59:43.000Z</time>
      </trkpt>
      <trkpt lat="45.24899" lon="6.47694">
        <ele>1453.4000244141</ele>
        <time>2021-01-24T07:59:48.000Z</time>
      </trkpt>
      <trkpt lat="45.249" lon="6.47694">
        <ele>1453.5999755859</ele>
        <time>2021-01-24T07:59:49.000Z</time>
      </trkpt>
      <trkpt lat="45.24902" lon="6.47694">
        <ele>1454.4000244141</ele>
        <time>2021-01-24T07:59:52.000Z</time>
      </trkpt>
      <trkpt lat="45.24905" lon="6.47698">
        <ele>1455.4000244141</ele>
        <time>2021-01-24T07:59:57.000Z</time>
      </trkpt>
      <trkpt lat="45.24906" lon="6.47699">
        <ele>1455.8000488281</ele>
        <time>2021-01-24T07:59:58.000Z</time>
      </trkpt>
      <trkpt lat="45.2491" lon="6.47705">
        <ele>1456.5999755859</ele>
        <time>2021-01-24T08:00:02.000Z</time>
      </trkpt>
      <trkpt lat="45.24912" lon="6.47707">
        <ele>1457.5999755859</ele>
        <time>2021-01-24T08:00:06.000Z</time>
      </trkpt>
      <trkpt lat="45.24912" lon="6.47707">
        <ele>1458.1999511719</ele>
        <time>2021-01-24T08:00:08.000Z</time>
      </trkpt>
      <trkpt lat="45.24912" lon="6.47707">
        <ele>1458.5999755859</ele>
        <time>2021-01-24T08:00:10.000Z</time>
      </trkpt>
      <trkpt lat="45.24912" lon="6.47707">
        <ele>1459.5999755859</ele>
        <time>2021-01-24T08:00:14.000Z</time>
      </trkpt>
      <trkpt lat="45.24916" lon="6.47711">
        <ele>1460.8000488281</ele>
        <time>2021-01-24T08:00:19.000Z</time>
      </trkpt>
      <trkpt lat="45.24917" lon="6.47715">
        <ele>1462</ele>
        <time>2021-01-24T08:00:23.000Z</time>
      </trkpt>
      <trkpt lat="45.24914" lon="6.47717">
        <ele>1463.1999511719</ele>
        <time>2021-01-24T08:00:28.000Z</time>
      </trkpt>
      <trkpt lat="45.24911" lon="6.47717">
        <ele>1463.8000488281</ele>
        <time>2021-01-24T08:00:30.000Z</time>
      </trkpt>
      <trkpt lat="45.24909" lon="6.47718">
        <ele>1464.4000244141</ele>
        <time>2021-01-24T08:00:33.000Z</time>
      </trkpt>
      <trkpt lat="45.24904" lon="6.47717">
        <ele>1465.4000244141</ele>
        <time>2021-01-24T08:00:39.000Z</time>
      </trkpt>
      <trkpt lat="45.24903" lon="6.47716">
        <ele>1465.5999755859</ele>
        <time>2021-01-24T08:00:40.000Z</time>
      </trkpt>
      <trkpt lat="45.24903" lon="6.47715">
        <ele>1466.5999755859</ele>
        <time>2021-01-24T08:00:45.000Z</time>
      </trkpt>
      <trkpt lat="45.24902" lon="6.47716">
        <ele>1467.4000244141</ele>
        <time>2021-01-24T08:00:49.000Z</time>
      </trkpt>
      <trkpt lat="45.24899" lon="6.47717">
        <ele>1468</ele>
        <time>2021-01-24T08:00:51.000Z</time>
      </trkpt>
      <trkpt lat="45.24893" lon="6.47716">
        <ele>1469.1999511719</ele>
        <time>2021-01-24T08:00:56.000Z</time>
      </trkpt>
      <trkpt lat="45.24891" lon="6.4772">
        <ele>1470</ele>
        <time>2021-01-24T08:01:00.000Z</time>
      </trkpt>
      <trkpt lat="45.2489" lon="6.47721">
        <ele>1470.4000244141</ele>
        <time>2021-01-24T08:01:01.000Z</time>
      </trkpt>
      <trkpt lat="45.2489" lon="6.47726">
        <ele>1471.4000244141</ele>
        <time>2021-01-24T08:01:05.000Z</time>
      </trkpt>
      <trkpt lat="45.24892" lon="6.47732">
        <ele>1472.4000244141</ele>
        <time>2021-01-24T08:01:10.000Z</time>
      </trkpt>
      <trkpt lat="45.24893" lon="6.47737">
        <ele>1473.5999755859</ele>
        <time>2021-01-24T08:01:14.000Z</time>
      </trkpt>
      <trkpt lat="45.24892" lon="6.47738">
        <ele>1474.5999755859</ele>
        <time>2021-01-24T08:01:17.000Z</time>
      </trkpt>
      <trkpt lat="45.2489" lon="6.47737">
        <ele>1475.4000244141</ele>
        <time>2021-01-24T08:01:21.000Z</time>
      </trkpt>
      <trkpt lat="45.24889" lon="6.47737">
        <ele>1475.5999755859</ele>
        <time>2021-01-24T08:01:22.000Z</time>
      </trkpt>
      <trkpt lat="45.24881" lon="6.47739">
        <ele>1476.5999755859</ele>
        <time>2021-01-24T08:01:30.000Z</time>
      </trkpt>
      <trkpt lat="45.24881" lon="6.47739">
        <ele>1476.8000488281</ele>
        <time>2021-01-24T08:01:31.000Z</time>
      </trkpt>
      <trkpt lat="45.24879" lon="6.47742">
        <ele>1477.8000488281</ele>
        <time>2021-01-24T08:01:38.000Z</time>
      </trkpt>
      <trkpt lat="45.24877" lon="6.47745">
        <ele>1478.4000244141</ele>
        <time>2021-01-24T08:01:41.000Z</time>
      </trkpt>
      <trkpt lat="45.24876" lon="6.47748">
        <ele>1478.8000488281</ele>
        <time>2021-01-24T08:01:43.000Z</time>
      </trkpt>
      <trkpt lat="45.24875" lon="6.47753">
        <ele>1480</ele>
        <time>2021-01-24T08:01:50.000Z</time>
      </trkpt>
      <trkpt lat="45.24875" lon="6.47754">
        <ele>1480.1999511719</ele>
        <time>2021-01-24T08:01:51.000Z</time>
      </trkpt>
      <trkpt lat="45.24876" lon="6.47761">
        <ele>1481.1999511719</ele>
        <time>2021-01-24T08:01:55.000Z</time>
      </trkpt>
      <trkpt lat="45.24877" lon="6.47765">
        <ele>1482.1999511719</ele>
        <time>2021-01-24T08:01:59.000Z</time>
      </trkpt>
      <trkpt lat="45.24877" lon="6.47767">
        <ele>1482.8000488281</ele>
        <time>2021-01-24T08:02:01.000Z</time>
      </trkpt>
      <trkpt lat="45.24877" lon="6.47768">
        <ele>1483.4000244141</ele>
        <time>2021-01-24T08:02:04.000Z</time>
      </trkpt>
      <trkpt lat="45.24873" lon="6.47769">
        <ele>1484.4000244141</ele>
        <time>2021-01-24T08:02:08.000Z</time>
      </trkpt>
      <trkpt lat="45.24872" lon="6.4777">
        <ele>1484.5999755859</ele>
        <time>2021-01-24T08:02:09.000Z</time>
      </trkpt>
      <trkpt lat="45.24865" lon="6.47774">
        <ele>1485.5999755859</ele>
        <time>2021-01-24T08:02:16.000Z</time>
      </trkpt>
      <trkpt lat="45.24864" lon="6.47774">
        <ele>1485.8000488281</ele>
        <time>2021-01-24T08:02:17.000Z</time>
      </trkpt>
      <trkpt lat="45.24861" lon="6.47774">
        <ele>1486.5999755859</ele>
        <time>2021-01-24T08:02:21.000Z</time>
      </trkpt>
      <trkpt lat="45.24858" lon="6.47775">
        <ele>1488</ele>
        <time>2021-01-24T08:02:24.000Z</time>
      </trkpt>
      <trkpt lat="45.24856" lon="6.47779">
        <ele>1488.8000488281</ele>
        <time>2021-01-24T08:02:29.000Z</time>
      </trkpt>
      <trkpt lat="45.24856" lon="6.47779">
        <ele>1489</ele>
        <time>2021-01-24T08:02:31.000Z</time>
      </trkpt>
      <trkpt lat="45.24855" lon="6.47782">
        <ele>1489.4000244141</ele>
        <time>2021-01-24T08:02:39.000Z</time>
      </trkpt>
      <trkpt lat="45.24855" lon="6.47782">
        <ele>1487.4000244141</ele>
        <time>2021-01-24T08:02:46.000Z</time>
      </trkpt>
      <trkpt lat="45.24855" lon="6.47782">
        <ele>1488.8000488281</ele>
        <time>2021-01-24T08:02:52.000Z</time>
      </trkpt>
      <trkpt lat="45.24855" lon="6.47782">
        <ele>1489.4000244141</ele>
        <time>2021-01-24T08:03:10.000Z</time>
      </trkpt>
      <trkpt lat="45.24857" lon="6.47781">
        <ele>1489.4000244141</ele>
        <time>2021-01-24T08:03:26.000Z</time>
      </trkpt>
      <trkpt lat="45.24857" lon="6.47781">
        <ele>1489.5999755859</ele>
        <time>2021-01-24T08:03:36.000Z</time>
      </trkpt>
      <trkpt lat="45.24857" lon="6.47781">
        <ele>1489.5999755859</ele>
        <time>2021-01-24T08:03:48.000Z</time>
      </trkpt>
      <trkpt lat="45.24858" lon="6.4778">
        <ele>1489.5999755859</ele>
        <time>2021-01-24T08:04:01.000Z</time>
      </trkpt>
      <trkpt lat="45.24858" lon="6.4778">
        <ele>1489.8000488281</ele>
        <time>2021-01-24T08:04:16.000Z</time>
      </trkpt>
      <trkpt lat="45.24858" lon="6.4778">
        <ele>1489.8000488281</ele>
        <time>2021-01-24T08:04:19.000Z</time>
      </trkpt>
      <trkpt lat="45.24858" lon="6.4778">
        <ele>1488.1999511719</ele>
        <time>2021-01-24T08:04:37.000Z</time>
      </trkpt>
      <trkpt lat="45.24858" lon="6.47779">
        <ele>1487.4000244141</ele>
        <time>2021-01-24T08:04:38.000Z</time>
      </trkpt>
      <trkpt lat="45.24858" lon="6.47779">
        <ele>1487</ele>
        <time>2021-01-24T08:04:39.000Z</time>
      </trkpt>
      <trkpt lat="45.24859" lon="6.47779">
        <ele>1487</ele>
        <time>2021-01-24T08:04:45.000Z</time>
      </trkpt>
      <trkpt lat="45.24858" lon="6.47778">
        <ele>1488</ele>
        <time>2021-01-24T08:04:49.000Z</time>
      </trkpt>
      <trkpt lat="45.24857" lon="6.47778">
        <ele>1488.5999755859</ele>
        <time>2021-01-24T08:04:54.000Z</time>
      </trkpt>
      <trkpt lat="45.24856" lon="6.47779">
        <ele>1488.4000244141</ele>
        <time>2021-01-24T08:05:03.000Z</time>
      </trkpt>
      <trkpt lat="45.24856" lon="6.47779">
        <ele>1488.1999511719</ele>
        <time>2021-01-24T08:05:16.000Z</time>
      </trkpt>
      <trkpt lat="45.24856" lon="6.47779">
        <ele>1488.1999511719</ele>
        <time>2021-01-24T08:05:25.000Z</time>
      </trkpt>
      <trkpt lat="45.24855" lon="6.47779">
        <ele>1488.4000244141</ele>
        <time>2021-01-24T08:05:37.000Z</time>
      </trkpt>
      <trkpt lat="45.24856" lon="6.47784">
        <ele>1488.4000244141</ele>
        <time>2021-01-24T08:05:49.000Z</time>
      </trkpt>
      <trkpt lat="45.24857" lon="6.47787">
        <ele>1488.4000244141</ele>
        <time>2021-01-24T08:06:01.000Z</time>
      </trkpt>
      <trkpt lat="45.2486" lon="6.47789">
        <ele>1488.8000488281</ele>
        <time>2021-01-24T08:06:10.000Z</time>
      </trkpt>
      <trkpt lat="45.24863" lon="6.47795">
        <ele>1489</ele>
        <time>2021-01-24T08:06:17.000Z</time>
      </trkpt>
      <trkpt lat="45.24863" lon="6.47797">
        <ele>1489.1999511719</ele>
        <time>2021-01-24T08:06:19.000Z</time>
      </trkpt>
      <trkpt lat="45.24863" lon="6.47797">
        <ele>1489.4000244141</ele>
        <time>2021-01-24T08:06:26.000Z</time>
      </trkpt>
      <trkpt lat="45.24865" lon="6.47801">
        <ele>1489.5999755859</ele>
        <time>2021-01-24T08:06:33.000Z</time>
      </trkpt>
      <trkpt lat="45.24863" lon="6.47801">
        <ele>1490.1999511719</ele>
        <time>2021-01-24T08:06:37.000Z</time>
      </trkpt>
      <trkpt lat="45.24859" lon="6.47803">
        <ele>1490.8000488281</ele>
        <time>2021-01-24T08:06:40.000Z</time>
      </trkpt>
      <trkpt lat="45.24854" lon="6.47806">
        <ele>1491.1999511719</ele>
        <time>2021-01-24T08:06:44.000Z</time>
      </trkpt>
      <trkpt lat="45.24851" lon="6.47807">
        <ele>1492</ele>
        <time>2021-01-24T08:06:47.000Z</time>
      </trkpt>
      <trkpt lat="45.24851" lon="6.47808">
        <ele>1492.4000244141</ele>
        <time>2021-01-24T08:06:49.000Z</time>
      </trkpt>
      <trkpt lat="45.2485" lon="6.47811">
        <ele>1493.1999511719</ele>
        <time>2021-01-24T08:06:52.000Z</time>
      </trkpt>
      <trkpt lat="45.2485" lon="6.47813">
        <ele>1493.4000244141</ele>
        <time>2021-01-24T08:06:53.000Z</time>
      </trkpt>
      <trkpt lat="45.2485" lon="6.47816">
        <ele>1494.5999755859</ele>
        <time>2021-01-24T08:06:56.000Z</time>
      </trkpt>
      <trkpt lat="45.2485" lon="6.47816">
        <ele>1495.4000244141</ele>
        <time>2021-01-24T08:06:59.000Z</time>
      </trkpt>
      <trkpt lat="45.24854" lon="6.47828">
        <ele>1495.1999511719</ele>
        <time>2021-01-24T08:07:06.000Z</time>
      </trkpt>
      <trkpt lat="45.24855" lon="6.47832">
        <ele>1495.5999755859</ele>
        <time>2021-01-24T08:07:10.000Z</time>
      </trkpt>
      <trkpt lat="45.24856" lon="6.47831">
        <ele>1496.4000244141</ele>
        <time>2021-01-24T08:07:14.000Z</time>
      </trkpt>
      <trkpt lat="45.24859" lon="6.47836">
        <ele>1496.5999755859</ele>
        <time>2021-01-24T08:07:20.000Z</time>
      </trkpt>
      <trkpt lat="45.2486" lon="6.47838">
        <ele>1496.8000488281</ele>
        <time>2021-01-24T08:07:22.000Z</time>
      </trkpt>
      <trkpt lat="45.24862" lon="6.47846">
        <ele>1497.5999755859</ele>
        <time>2021-01-24T08:07:27.000Z</time>
      </trkpt>
      <trkpt lat="45.24863" lon="6.4785">
        <ele>1498</ele>
        <time>2021-01-24T08:07:30.000Z</time>
      </trkpt>
      <trkpt lat="45.24866" lon="6.47857">
        <ele>1498.5999755859</ele>
        <time>2021-01-24T08:07:35.000Z</time>
      </trkpt>
      <trkpt lat="45.24866" lon="6.47859">
        <ele>1498.8000488281</ele>
        <time>2021-01-24T08:07:37.000Z</time>
      </trkpt>
      <trkpt lat="45.24869" lon="6.47865">
        <ele>1499.8000488281</ele>
        <time>2021-01-24T08:07:42.000Z</time>
      </trkpt>
      <trkpt lat="45.24874" lon="6.47873">
        <ele>1500.8000488281</ele>
        <time>2021-01-24T08:07:50.000Z</time>
      </trkpt>
      <trkpt lat="45.24876" lon="6.47881">
        <ele>1501.5999755859</ele>
        <time>2021-01-24T08:07:57.000Z</time>
      </trkpt>
      <trkpt lat="45.24877" lon="6.47882">
        <ele>1501.8000488281</ele>
        <time>2021-01-24T08:07:58.000Z</time>
      </trkpt>
      <trkpt lat="45.24884" lon="6.4789">
        <ele>1503</ele>
        <time>2021-01-24T08:08:05.000Z</time>
      </trkpt>
      <trkpt lat="45.24885" lon="6.4789">
        <ele>1503</ele>
        <time>2021-01-24T08:08:06.000Z</time>
      </trkpt>
      <trkpt lat="45.2489" lon="6.47898">
        <ele>1504</ele>
        <time>2021-01-24T08:08:13.000Z</time>
      </trkpt>
      <trkpt lat="45.24892" lon="6.47901">
        <ele>1504.4000244141</ele>
        <time>2021-01-24T08:08:15.000Z</time>
      </trkpt>
      <trkpt lat="45.24894" lon="6.47909">
        <ele>1505.1999511719</ele>
        <time>2021-01-24T08:08:20.000Z</time>
      </trkpt>
      <trkpt lat="45.24897" lon="6.47913">
        <ele>1505.5999755859</ele>
        <time>2021-01-24T08:08:25.000Z</time>
      </trkpt>
      <trkpt lat="45.249" lon="6.47915">
        <ele>1506.4000244141</ele>
        <time>2021-01-24T08:08:29.000Z</time>
      </trkpt>
      <trkpt lat="45.24903" lon="6.47917">
        <ele>1507.1999511719</ele>
        <time>2021-01-24T08:08:35.000Z</time>
      </trkpt>
      <trkpt lat="45.24903" lon="6.47917">
        <ele>1507.4000244141</ele>
        <time>2021-01-24T08:08:36.000Z</time>
      </trkpt>
      <trkpt lat="45.24914" lon="6.47926">
        <ele>1508.4000244141</ele>
        <time>2021-01-24T08:08:45.000Z</time>
      </trkpt>
      <trkpt lat="45.24915" lon="6.47926">
        <ele>1508.5999755859</ele>
        <time>2021-01-24T08:08:46.000Z</time>
      </trkpt>
      <trkpt lat="45.24921" lon="6.4793">
        <ele>1509.5999755859</ele>
        <time>2021-01-24T08:08:51.000Z</time>
      </trkpt>
      <trkpt lat="45.24924" lon="6.47932">
        <ele>1509.8000488281</ele>
        <time>2021-01-24T08:08:55.000Z</time>
      </trkpt>
      <trkpt lat="45.24929" lon="6.47941">
        <ele>1510.1999511719</ele>
        <time>2021-01-24T08:09:03.000Z</time>
      </trkpt>
      <trkpt lat="45.24929" lon="6.47945">
        <ele>1510.5999755859</ele>
        <time>2021-01-24T08:09:06.000Z</time>
      </trkpt>
      <trkpt lat="45.24929" lon="6.47946">
        <ele>1510.8000488281</ele>
        <time>2021-01-24T08:09:09.000Z</time>
      </trkpt>
      <trkpt lat="45.24931" lon="6.47951">
        <ele>1511</ele>
        <time>2021-01-24T08:09:18.000Z</time>
      </trkpt>
      <trkpt lat="45.24932" lon="6.47952">
        <ele>1511.5999755859</ele>
        <time>2021-01-24T08:09:23.000Z</time>
      </trkpt>
      <trkpt lat="45.24934" lon="6.47952">
        <ele>1512.1999511719</ele>
        <time>2021-01-24T08:09:27.000Z</time>
      </trkpt>
      <trkpt lat="45.2494" lon="6.47952">
        <ele>1512.5999755859</ele>
        <time>2021-01-24T08:09:33.000Z</time>
      </trkpt>
      <trkpt lat="45.24942" lon="6.47953">
        <ele>1513.4000244141</ele>
        <time>2021-01-24T08:09:37.000Z</time>
      </trkpt>
      <trkpt lat="45.24942" lon="6.47953">
        <ele>1513.5999755859</ele>
        <time>2021-01-24T08:09:38.000Z</time>
      </trkpt>
      <trkpt lat="45.24952" lon="6.47951">
        <ele>1514.8000488281</ele>
        <time>2021-01-24T08:09:44.000Z</time>
      </trkpt>
      <trkpt lat="45.24955" lon="6.4795">
        <ele>1515</ele>
        <time>2021-01-24T08:09:45.000Z</time>
      </trkpt>
      <trkpt lat="45.24965" lon="6.47944">
        <ele>1516</ele>
        <time>2021-01-24T08:09:52.000Z</time>
      </trkpt>
      <trkpt lat="45.24966" lon="6.47943">
        <ele>1516</ele>
        <time>2021-01-24T08:09:53.000Z</time>
      </trkpt>
      <trkpt lat="45.24972" lon="6.47938">
        <ele>1516.8000488281</ele>
        <time>2021-01-24T08:09:59.000Z</time>
      </trkpt>
      <trkpt lat="45.24976" lon="6.47936">
        <ele>1517.1999511719</ele>
        <time>2021-01-24T08:10:01.000Z</time>
      </trkpt>
      <trkpt lat="45.24978" lon="6.47936">
        <ele>1517.4000244141</ele>
        <time>2021-01-24T08:10:02.000Z</time>
      </trkpt>
      <trkpt lat="45.24982" lon="6.47935">
        <ele>1518</ele>
        <time>2021-01-24T08:10:06.000Z</time>
      </trkpt>
      <trkpt lat="45.24982" lon="6.47935">
        <ele>1518.1999511719</ele>
        <time>2021-01-24T08:10:07.000Z</time>
      </trkpt>
      <trkpt lat="45.24987" lon="6.47934">
        <ele>1518.1999511719</ele>
        <time>2021-01-24T08:10:13.000Z</time>
      </trkpt>
      <trkpt lat="45.24994" lon="6.47933">
        <ele>1519.1999511719</ele>
        <time>2021-01-24T08:10:20.000Z</time>
      </trkpt>
      <trkpt lat="45.24998" lon="6.47931">
        <ele>1520.1999511719</ele>
        <time>2021-01-24T08:10:27.000Z</time>
      </trkpt>
      <trkpt lat="45.25" lon="6.47931">
        <ele>1520.4000244141</ele>
        <time>2021-01-24T08:10:31.000Z</time>
      </trkpt>
      <trkpt lat="45.25002" lon="6.47931">
        <ele>1521</ele>
        <time>2021-01-24T08:10:36.000Z</time>
      </trkpt>
      <trkpt lat="45.25002" lon="6.47932">
        <ele>1521</ele>
        <time>2021-01-24T08:10:45.000Z</time>
      </trkpt>
      <trkpt lat="45.25008" lon="6.47938">
        <ele>1521.4000244141</ele>
        <time>2021-01-24T08:10:53.000Z</time>
      </trkpt>
      <trkpt lat="45.25009" lon="6.47939">
        <ele>1521.4000244141</ele>
        <time>2021-01-24T08:10:54.000Z</time>
      </trkpt>
      <trkpt lat="45.25012" lon="6.47942">
        <ele>1522</ele>
        <time>2021-01-24T08:11:03.000Z</time>
      </trkpt>
      <trkpt lat="45.25019" lon="6.47948">
        <ele>1522.5999755859</ele>
        <time>2021-01-24T08:11:09.000Z</time>
      </trkpt>
      <trkpt lat="45.25021" lon="6.4795">
        <ele>1523</ele>
        <time>2021-01-24T08:11:11.000Z</time>
      </trkpt>
      <trkpt lat="45.25025" lon="6.47952">
        <ele>1523.5999755859</ele>
        <time>2021-01-24T08:11:16.000Z</time>
      </trkpt>
      <trkpt lat="45.25031" lon="6.47954">
        <ele>1524.1999511719</ele>
        <time>2021-01-24T08:11:21.000Z</time>
      </trkpt>
      <trkpt lat="45.25034" lon="6.47955">
        <ele>1524.5999755859</ele>
        <time>2021-01-24T08:11:23.000Z</time>
      </trkpt>
      <trkpt lat="45.25042" lon="6.47959">
        <ele>1525.5999755859</ele>
        <time>2021-01-24T08:11:31.000Z</time>
      </trkpt>
      <trkpt lat="45.25043" lon="6.47959">
        <ele>1525.8000488281</ele>
        <time>2021-01-24T08:11:32.000Z</time>
      </trkpt>
      <trkpt lat="45.25048" lon="6.47962">
        <ele>1526.5999755859</ele>
        <time>2021-01-24T08:11:38.000Z</time>
      </trkpt>
      <trkpt lat="45.25052" lon="6.47962">
        <ele>1527.1999511719</ele>
        <time>2021-01-24T08:11:42.000Z</time>
      </trkpt>
      <trkpt lat="45.25058" lon="6.47961">
        <ele>1527.8000488281</ele>
        <time>2021-01-24T08:11:46.000Z</time>
      </trkpt>
      <trkpt lat="45.25062" lon="6.47961">
        <ele>1528.1999511719</ele>
        <time>2021-01-24T08:11:49.000Z</time>
      </trkpt>
      <trkpt lat="45.25064" lon="6.47961">
        <ele>1528.1999511719</ele>
        <time>2021-01-24T08:11:50.000Z</time>
      </trkpt>
      <trkpt lat="45.25067" lon="6.4796">
        <ele>1529</ele>
        <time>2021-01-24T08:11:54.000Z</time>
      </trkpt>
      <trkpt lat="45.25078" lon="6.47962">
        <ele>1530</ele>
        <time>2021-01-24T08:12:03.000Z</time>
      </trkpt>
      <trkpt lat="45.25081" lon="6.47962">
        <ele>1530.1999511719</ele>
        <time>2021-01-24T08:12:05.000Z</time>
      </trkpt>
      <trkpt lat="45.2509" lon="6.47962">
        <ele>1530.8000488281</ele>
        <time>2021-01-24T08:12:14.000Z</time>
      </trkpt>
      <trkpt lat="45.25098" lon="6.47965">
        <ele>1531</ele>
        <time>2021-01-24T08:12:20.000Z</time>
      </trkpt>
      <trkpt lat="45.25099" lon="6.47966">
        <ele>1531.1999511719</ele>
        <time>2021-01-24T08:12:22.000Z</time>
      </trkpt>
      <trkpt lat="45.25102" lon="6.47973">
        <ele>1531.4000244141</ele>
        <time>2021-01-24T08:12:30.000Z</time>
      </trkpt>
      <trkpt lat="45.25102" lon="6.47975">
        <ele>1532.1999511719</ele>
        <time>2021-01-24T08:12:37.000Z</time>
      </trkpt>
      <trkpt lat="45.25102" lon="6.47975">
        <ele>1532.5999755859</ele>
        <time>2021-01-24T08:12:39.000Z</time>
      </trkpt>
      <trkpt lat="45.25096" lon="6.47983">
        <ele>1533</ele>
        <time>2021-01-24T08:12:48.000Z</time>
      </trkpt>
      <trkpt lat="45.25095" lon="6.47985">
        <ele>1533.1999511719</ele>
        <time>2021-01-24T08:12:50.000Z</time>
      </trkpt>
      <trkpt lat="45.25094" lon="6.47989">
        <ele>1533.5999755859</ele>
        <time>2021-01-24T08:12:56.000Z</time>
      </trkpt>
      <trkpt lat="45.25094" lon="6.47992">
        <ele>1532.8000488281</ele>
        <time>2021-01-24T08:13:04.000Z</time>
      </trkpt>
      <trkpt lat="45.25096" lon="6.47998">
        <ele>1533.4000244141</ele>
        <time>2021-01-24T08:13:14.000Z</time>
      </trkpt>
      <trkpt lat="45.25096" lon="6.47998">
        <ele>1534.4000244141</ele>
        <time>2021-01-24T08:13:16.000Z</time>
      </trkpt>
      <trkpt lat="45.25094" lon="6.48">
        <ele>1535.5999755859</ele>
        <time>2021-01-24T08:13:19.000Z</time>
      </trkpt>
      <trkpt lat="45.2509" lon="6.48001">
        <ele>1536</ele>
        <time>2021-01-24T08:13:24.000Z</time>
      </trkpt>
      <trkpt lat="45.25087" lon="6.48002">
        <ele>1536.5999755859</ele>
        <time>2021-01-24T08:13:29.000Z</time>
      </trkpt>
      <trkpt lat="45.25083" lon="6.48007">
        <ele>1537.5999755859</ele>
        <time>2021-01-24T08:13:35.000Z</time>
      </trkpt>
      <trkpt lat="45.25082" lon="6.48008">
        <ele>1537.8000488281</ele>
        <time>2021-01-24T08:13:36.000Z</time>
      </trkpt>
      <trkpt lat="45.25077" lon="6.48012">
        <ele>1539</ele>
        <time>2021-01-24T08:13:42.000Z</time>
      </trkpt>
      <trkpt lat="45.25075" lon="6.48014">
        <ele>1539.1999511719</ele>
        <time>2021-01-24T08:13:44.000Z</time>
      </trkpt>
      <trkpt lat="45.25072" lon="6.48018">
        <ele>1540</ele>
        <time>2021-01-24T08:13:49.000Z</time>
      </trkpt>
      <trkpt lat="45.25069" lon="6.48019">
        <ele>1541.1999511719</ele>
        <time>2021-01-24T08:13:54.000Z</time>
      </trkpt>
      <trkpt lat="45.25069" lon="6.48023">
        <ele>1542.4000244141</ele>
        <time>2021-01-24T08:14:01.000Z</time>
      </trkpt>
      <trkpt lat="45.2507" lon="6.48023">
        <ele>1542.8000488281</ele>
        <time>2021-01-24T08:14:03.000Z</time>
      </trkpt>
      <trkpt lat="45.25073" lon="6.48024">
        <ele>1543.5999755859</ele>
        <time>2021-01-24T08:14:06.000Z</time>
      </trkpt>
      <trkpt lat="45.25075" lon="6.48026">
        <ele>1544.5999755859</ele>
        <time>2021-01-24T08:14:11.000Z</time>
      </trkpt>
      <trkpt lat="45.25076" lon="6.48027">
        <ele>1545.1999511719</ele>
        <time>2021-01-24T08:14:14.000Z</time>
      </trkpt>
      <trkpt lat="45.25077" lon="6.48029">
        <ele>1546</ele>
        <time>2021-01-24T08:14:16.000Z</time>
      </trkpt>
      <trkpt lat="45.25079" lon="6.48036">
        <ele>1547.1999511719</ele>
        <time>2021-01-24T08:14:20.000Z</time>
      </trkpt>
      <trkpt lat="45.25079" lon="6.48041">
        <ele>1547.4000244141</ele>
        <time>2021-01-24T08:14:22.000Z</time>
      </trkpt>
      <trkpt lat="45.25075" lon="6.4805">
        <ele>1547.8000488281</ele>
        <time>2021-01-24T08:14:29.000Z</time>
      </trkpt>
      <trkpt lat="45.25075" lon="6.48051">
        <ele>1548.1999511719</ele>
        <time>2021-01-24T08:14:30.000Z</time>
      </trkpt>
      <trkpt lat="45.25073" lon="6.48056">
        <ele>1549.1999511719</ele>
        <time>2021-01-24T08:14:37.000Z</time>
      </trkpt>
      <trkpt lat="45.25072" lon="6.48057">
        <ele>1549.5999755859</ele>
        <time>2021-01-24T08:14:38.000Z</time>
      </trkpt>
      <trkpt lat="45.25072" lon="6.48059">
        <ele>1550.8000488281</ele>
        <time>2021-01-24T08:14:41.000Z</time>
      </trkpt>
      <trkpt lat="45.25073" lon="6.48062">
        <ele>1551.8000488281</ele>
        <time>2021-01-24T08:14:46.000Z</time>
      </trkpt>
      <trkpt lat="45.25074" lon="6.48062">
        <ele>1552</ele>
        <time>2021-01-24T08:14:47.000Z</time>
      </trkpt>
      <trkpt lat="45.25075" lon="6.48062">
        <ele>1553.1999511719</ele>
        <time>2021-01-24T08:14:51.000Z</time>
      </trkpt>
      <trkpt lat="45.25077" lon="6.48063">
        <ele>1554.1999511719</ele>
        <time>2021-01-24T08:14:54.000Z</time>
      </trkpt>
      <trkpt lat="45.2508" lon="6.48066">
        <ele>1554.5999755859</ele>
        <time>2021-01-24T08:14:56.000Z</time>
      </trkpt>
      <trkpt lat="45.25079" lon="6.48077">
        <ele>1555.1999511719</ele>
        <time>2021-01-24T08:15:05.000Z</time>
      </trkpt>
      <trkpt lat="45.25073" lon="6.48084">
        <ele>1556.1999511719</ele>
        <time>2021-01-24T08:15:15.000Z</time>
      </trkpt>
      <trkpt lat="45.25072" lon="6.48085">
        <ele>1556.5999755859</ele>
        <time>2021-01-24T08:15:16.000Z</time>
      </trkpt>
      <trkpt lat="45.2507" lon="6.48088">
        <ele>1557.5999755859</ele>
        <time>2021-01-24T08:15:20.000Z</time>
      </trkpt>
      <trkpt lat="45.25068" lon="6.48092">
        <ele>1558.8000488281</ele>
        <time>2021-01-24T08:15:24.000Z</time>
      </trkpt>
      <trkpt lat="45.25067" lon="6.48092">
        <ele>1559.1999511719</ele>
        <time>2021-01-24T08:15:25.000Z</time>
      </trkpt>
      <trkpt lat="45.25065" lon="6.48103">
        <ele>1559.8000488281</ele>
        <time>2021-01-24T08:15:33.000Z</time>
      </trkpt>
      <trkpt lat="45.25065" lon="6.48112">
        <ele>1560.1999511719</ele>
        <time>2021-01-24T08:15:42.000Z</time>
      </trkpt>
      <trkpt lat="45.25063" lon="6.48116">
        <ele>1561.1999511719</ele>
        <time>2021-01-24T08:15:46.000Z</time>
      </trkpt>
      <trkpt lat="45.25063" lon="6.48116">
        <ele>1562.4000244141</ele>
        <time>2021-01-24T08:15:49.000Z</time>
      </trkpt>
      <trkpt lat="45.2506" lon="6.48116">
        <ele>1563.1999511719</ele>
        <time>2021-01-24T08:15:53.000Z</time>
      </trkpt>
      <trkpt lat="45.2506" lon="6.48117">
        <ele>1563.5999755859</ele>
        <time>2021-01-24T08:15:54.000Z</time>
      </trkpt>
      <trkpt lat="45.25057" lon="6.48122">
        <ele>1564.8000488281</ele>
        <time>2021-01-24T08:15:59.000Z</time>
      </trkpt>
      <trkpt lat="45.25055" lon="6.48125">
        <ele>1565.8000488281</ele>
        <time>2021-01-24T08:16:02.000Z</time>
      </trkpt>
      <trkpt lat="45.25053" lon="6.48127">
        <ele>1566.5999755859</ele>
        <time>2021-01-24T08:16:05.000Z</time>
      </trkpt>
      <trkpt lat="45.25053" lon="6.48128">
        <ele>1567.1999511719</ele>
        <time>2021-01-24T08:16:06.000Z</time>
      </trkpt>
      <trkpt lat="45.25052" lon="6.48132">
        <ele>1568.4000244141</ele>
        <time>2021-01-24T08:16:11.000Z</time>
      </trkpt>
      <trkpt lat="45.25048" lon="6.48134">
        <ele>1569.4000244141</ele>
        <time>2021-01-24T08:16:15.000Z</time>
      </trkpt>
      <trkpt lat="45.25047" lon="6.48134">
        <ele>1569.8000488281</ele>
        <time>2021-01-24T08:16:16.000Z</time>
      </trkpt>
      <trkpt lat="45.25046" lon="6.48135">
        <ele>1570.5999755859</ele>
        <time>2021-01-24T08:16:19.000Z</time>
      </trkpt>
      <trkpt lat="45.25042" lon="6.48136">
        <ele>1571.5999755859</ele>
        <time>2021-01-24T08:16:24.000Z</time>
      </trkpt>
      <trkpt lat="45.25039" lon="6.48136">
        <ele>1572.4000244141</ele>
        <time>2021-01-24T08:16:27.000Z</time>
      </trkpt>
      <trkpt lat="45.25037" lon="6.48137">
        <ele>1572.8000488281</ele>
        <time>2021-01-24T08:16:29.000Z</time>
      </trkpt>
      <trkpt lat="45.25033" lon="6.48139">
        <ele>1573.8000488281</ele>
        <time>2021-01-24T08:16:34.000Z</time>
      </trkpt>
      <trkpt lat="45.25031" lon="6.48141">
        <ele>1574.5999755859</ele>
        <time>2021-01-24T08:16:37.000Z</time>
      </trkpt>
      <trkpt lat="45.2503" lon="6.48142">
        <ele>1574.8000488281</ele>
        <time>2021-01-24T08:16:38.000Z</time>
      </trkpt>
      <trkpt lat="45.25029" lon="6.48143">
        <ele>1575.8000488281</ele>
        <time>2021-01-24T08:16:41.000Z</time>
      </trkpt>
      <trkpt lat="45.25026" lon="6.48144">
        <ele>1577</ele>
        <time>2021-01-24T08:16:45.000Z</time>
      </trkpt>
      <trkpt lat="45.25022" lon="6.48144">
        <ele>1577.4000244141</ele>
        <time>2021-01-24T08:16:49.000Z</time>
      </trkpt>
      <trkpt lat="45.2502" lon="6.48142">
        <ele>1578.1999511719</ele>
        <time>2021-01-24T08:16:52.000Z</time>
      </trkpt>
      <trkpt lat="45.25017" lon="6.48143">
        <ele>1579.1999511719</ele>
        <time>2021-01-24T08:16:55.000Z</time>
      </trkpt>
      <trkpt lat="45.25012" lon="6.48144">
        <ele>1580.1999511719</ele>
        <time>2021-01-24T08:17:01.000Z</time>
      </trkpt>
      <trkpt lat="45.25007" lon="6.48141">
        <ele>1581.4000244141</ele>
        <time>2021-01-24T08:17:07.000Z</time>
      </trkpt>
      <trkpt lat="45.25004" lon="6.48141">
        <ele>1582.4000244141</ele>
        <time>2021-01-24T08:17:12.000Z</time>
      </trkpt>
      <trkpt lat="45.25001" lon="6.4814">
        <ele>1583.5999755859</ele>
        <time>2021-01-24T08:17:18.000Z</time>
      </trkpt>
      <trkpt lat="45.24999" lon="6.48141">
        <ele>1584.4000244141</ele>
        <time>2021-01-24T08:17:22.000Z</time>
      </trkpt>
      <trkpt lat="45.24998" lon="6.48142">
        <ele>1584.8000488281</ele>
        <time>2021-01-24T08:17:25.000Z</time>
      </trkpt>
      <trkpt lat="45.24997" lon="6.48144">
        <ele>1586</ele>
        <time>2021-01-24T08:17:29.000Z</time>
      </trkpt>
      <trkpt lat="45.24997" lon="6.48143">
        <ele>1586.8000488281</ele>
        <time>2021-01-24T08:17:33.000Z</time>
      </trkpt>
      <trkpt lat="45.24995" lon="6.48141">
        <ele>1587.1999511719</ele>
        <time>2021-01-24T08:17:35.000Z</time>
      </trkpt>
      <trkpt lat="45.24992" lon="6.48135">
        <ele>1588.1999511719</ele>
        <time>2021-01-24T08:17:40.000Z</time>
      </trkpt>
      <trkpt lat="45.2499" lon="6.48133">
        <ele>1588.8000488281</ele>
        <time>2021-01-24T08:17:42.000Z</time>
      </trkpt>
      <trkpt lat="45.24987" lon="6.4813">
        <ele>1589.4000244141</ele>
        <time>2021-01-24T08:17:45.000Z</time>
      </trkpt>
      <trkpt lat="45.24984" lon="6.48128">
        <ele>1590.5999755859</ele>
        <time>2021-01-24T08:17:50.000Z</time>
      </trkpt>
      <trkpt lat="45.24983" lon="6.48127">
        <ele>1590.8000488281</ele>
        <time>2021-01-24T08:17:51.000Z</time>
      </trkpt>
      <trkpt lat="45.2498" lon="6.48124">
        <ele>1591.8000488281</ele>
        <time>2021-01-24T08:17:57.000Z</time>
      </trkpt>
      <trkpt lat="45.24978" lon="6.48122">
        <ele>1592.5999755859</ele>
        <time>2021-01-24T08:18:01.000Z</time>
      </trkpt>
      <trkpt lat="45.24977" lon="6.48122">
        <ele>1592.8000488281</ele>
        <time>2021-01-24T08:18:02.000Z</time>
      </trkpt>
      <trkpt lat="45.24974" lon="6.48126">
        <ele>1593.8000488281</ele>
        <time>2021-01-24T08:18:08.000Z</time>
      </trkpt>
      <trkpt lat="45.24972" lon="6.48132">
        <ele>1594.4000244141</ele>
        <time>2021-01-24T08:18:12.000Z</time>
      </trkpt>
      <trkpt lat="45.24971" lon="6.48135">
        <ele>1595</ele>
        <time>2021-01-24T08:18:14.000Z</time>
      </trkpt>
      <trkpt lat="45.24971" lon="6.48137">
        <ele>1595.5999755859</ele>
        <time>2021-01-24T08:18:21.000Z</time>
      </trkpt>
      <trkpt lat="45.24971" lon="6.48137">
        <ele>1595.8000488281</ele>
        <time>2021-01-24T08:18:34.000Z</time>
      </trkpt>
      <trkpt lat="45.24971" lon="6.48137">
        <ele>1595.4000244141</ele>
        <time>2021-01-24T08:18:49.000Z</time>
      </trkpt>
      <trkpt lat="45.24971" lon="6.48137">
        <ele>1595.1999511719</ele>
        <time>2021-01-24T08:19:05.000Z</time>
      </trkpt>
      <trkpt lat="45.24971" lon="6.48137">
        <ele>1596</ele>
        <time>2021-01-24T08:19:17.000Z</time>
      </trkpt>
      <trkpt lat="45.24971" lon="6.48137">
        <ele>1596</ele>
        <time>2021-01-24T08:19:18.000Z</time>
      </trkpt>
      <trkpt lat="45.24971" lon="6.48137">
        <ele>1595.5999755859</ele>
        <time>2021-01-24T08:19:31.000Z</time>
      </trkpt>
      <trkpt lat="45.24975" lon="6.48139">
        <ele>1594.4000244141</ele>
        <time>2021-01-24T08:19:40.000Z</time>
      </trkpt>
      <trkpt lat="45.24977" lon="6.48144">
        <ele>1595.8000488281</ele>
        <time>2021-01-24T08:19:45.000Z</time>
      </trkpt>
      <trkpt lat="45.24977" lon="6.48146">
        <ele>1596.4000244141</ele>
        <time>2021-01-24T08:19:48.000Z</time>
      </trkpt>
      <trkpt lat="45.24978" lon="6.48147">
        <ele>1597</ele>
        <time>2021-01-24T08:19:50.000Z</time>
      </trkpt>
      <trkpt lat="45.24979" lon="6.48149">
        <ele>1598.1999511719</ele>
        <time>2021-01-24T08:19:54.000Z</time>
      </trkpt>
      <trkpt lat="45.2498" lon="6.48148">
        <ele>1598</ele>
        <time>2021-01-24T08:19:57.000Z</time>
      </trkpt>
      <trkpt lat="45.2498" lon="6.48148">
        <ele>1597</ele>
        <time>2021-01-24T08:20:02.000Z</time>
      </trkpt>
      <trkpt lat="45.2498" lon="6.48148">
        <ele>1597.8000488281</ele>
        <time>2021-01-24T08:20:09.000Z</time>
      </trkpt>
      <trkpt lat="45.24979" lon="6.48149">
        <ele>1598</ele>
        <time>2021-01-24T08:20:18.000Z</time>
      </trkpt>
      <trkpt lat="45.24979" lon="6.4815">
        <ele>1598</ele>
        <time>2021-01-24T08:20:20.000Z</time>
      </trkpt>
      <trkpt lat="45.24977" lon="6.48156">
        <ele>1598</ele>
        <time>2021-01-24T08:20:28.000Z</time>
      </trkpt>
      <trkpt lat="45.24973" lon="6.4816">
        <ele>1599.1999511719</ele>
        <time>2021-01-24T08:20:34.000Z</time>
      </trkpt>
      <trkpt lat="45.24971" lon="6.4816">
        <ele>1600.1999511719</ele>
        <time>2021-01-24T08:20:37.000Z</time>
      </trkpt>
      <trkpt lat="45.24967" lon="6.48159">
        <ele>1601.1999511719</ele>
        <time>2021-01-24T08:20:41.000Z</time>
      </trkpt>
      <trkpt lat="45.24964" lon="6.4816">
        <ele>1602.1999511719</ele>
        <time>2021-01-24T08:20:45.000Z</time>
      </trkpt>
      <trkpt lat="45.24964" lon="6.4816">
        <ele>1602.4000244141</ele>
        <time>2021-01-24T08:20:46.000Z</time>
      </trkpt>
      <trkpt lat="45.24961" lon="6.48159">
        <ele>1603.4000244141</ele>
        <time>2021-01-24T08:20:50.000Z</time>
      </trkpt>
      <trkpt lat="45.24959" lon="6.48159">
        <ele>1604.5999755859</ele>
        <time>2021-01-24T08:20:54.000Z</time>
      </trkpt>
      <trkpt lat="45.24956" lon="6.48159">
        <ele>1605.8000488281</ele>
        <time>2021-01-24T08:20:58.000Z</time>
      </trkpt>
      <trkpt lat="45.24954" lon="6.48158">
        <ele>1606.8000488281</ele>
        <time>2021-01-24T08:21:02.000Z</time>
      </trkpt>
      <trkpt lat="45.24951" lon="6.48154">
        <ele>1607.8000488281</ele>
        <time>2021-01-24T08:21:07.000Z</time>
      </trkpt>
      <trkpt lat="45.24948" lon="6.48155">
        <ele>1608.1999511719</ele>
        <time>2021-01-24T08:21:11.000Z</time>
      </trkpt>
      <trkpt lat="45.24945" lon="6.48157">
        <ele>1609</ele>
        <time>2021-01-24T08:21:16.000Z</time>
      </trkpt>
      <trkpt lat="45.24945" lon="6.48158">
        <ele>1610.1999511719</ele>
        <time>2021-01-24T08:21:18.000Z</time>
      </trkpt>
      <trkpt lat="45.24943" lon="6.4816">
        <ele>1611.1999511719</ele>
        <time>2021-01-24T08:21:21.000Z</time>
      </trkpt>
      <trkpt lat="45.24935" lon="6.48166">
        <ele>1612.1999511719</ele>
        <time>2021-01-24T08:21:30.000Z</time>
      </trkpt>
      <trkpt lat="45.24934" lon="6.48166">
        <ele>1612.1999511719</ele>
        <time>2021-01-24T08:21:31.000Z</time>
      </trkpt>
      <trkpt lat="45.24929" lon="6.48167">
        <ele>1612.5999755859</ele>
        <time>2021-01-24T08:21:35.000Z</time>
      </trkpt>
      <trkpt lat="45.24925" lon="6.48169">
        <ele>1612.8000488281</ele>
        <time>2021-01-24T08:21:38.000Z</time>
      </trkpt>
      <trkpt lat="45.24922" lon="6.4817">
        <ele>1613.4000244141</ele>
        <time>2021-01-24T08:21:41.000Z</time>
      </trkpt>
      <trkpt lat="45.24915" lon="6.48174">
        <ele>1613.8000488281</ele>
        <time>2021-01-24T08:21:47.000Z</time>
      </trkpt>
      <trkpt lat="45.24907" lon="6.4818">
        <ele>1614.1999511719</ele>
        <time>2021-01-24T08:21:55.000Z</time>
      </trkpt>
      <trkpt lat="45.24905" lon="6.48181">
        <ele>1614.4000244141</ele>
        <time>2021-01-24T08:21:57.000Z</time>
      </trkpt>
      <trkpt lat="45.24898" lon="6.48187">
        <ele>1614.5999755859</ele>
        <time>2021-01-24T08:22:04.000Z</time>
      </trkpt>
      <trkpt lat="45.24891" lon="6.48193">
        <ele>1615</ele>
        <time>2021-01-24T08:22:11.000Z</time>
      </trkpt>
      <trkpt lat="45.24883" lon="6.48199">
        <ele>1615.1999511719</ele>
        <time>2021-01-24T08:22:18.000Z</time>
      </trkpt>
      <trkpt lat="45.24876" lon="6.48205">
        <ele>1615.4000244141</ele>
        <time>2021-01-24T08:22:24.000Z</time>
      </trkpt>
      <trkpt lat="45.24875" lon="6.48205">
        <ele>1615.4000244141</ele>
        <time>2021-01-24T08:22:25.000Z</time>
      </trkpt>
      <trkpt lat="45.24869" lon="6.48209">
        <ele>1615.4000244141</ele>
        <time>2021-01-24T08:22:31.000Z</time>
      </trkpt>
      <trkpt lat="45.24863" lon="6.48214">
        <ele>1615.5999755859</ele>
        <time>2021-01-24T08:22:37.000Z</time>
      </trkpt>
      <trkpt lat="45.24855" lon="6.48218">
        <ele>1616.1999511719</ele>
        <time>2021-01-24T08:22:45.000Z</time>
      </trkpt>
      <trkpt lat="45.24848" lon="6.48222">
        <ele>1616.4000244141</ele>
        <time>2021-01-24T08:22:52.000Z</time>
      </trkpt>
      <trkpt lat="45.24847" lon="6.48223">
        <ele>1616.4000244141</ele>
        <time>2021-01-24T08:22:53.000Z</time>
      </trkpt>
      <trkpt lat="45.2484" lon="6.48228">
        <ele>1617.1999511719</ele>
        <time>2021-01-24T08:23:00.000Z</time>
      </trkpt>
      <trkpt lat="45.24834" lon="6.48232">
        <ele>1617.4000244141</ele>
        <time>2021-01-24T08:23:06.000Z</time>
      </trkpt>
      <trkpt lat="45.24831" lon="6.48235">
        <ele>1617.5999755859</ele>
        <time>2021-01-24T08:23:09.000Z</time>
      </trkpt>
      <trkpt lat="45.24826" lon="6.48243">
        <ele>1618.4000244141</ele>
        <time>2021-01-24T08:23:16.000Z</time>
      </trkpt>
      <trkpt lat="45.24826" lon="6.48251">
        <ele>1619.1999511719</ele>
        <time>2021-01-24T08:23:22.000Z</time>
      </trkpt>
      <trkpt lat="45.24826" lon="6.48253">
        <ele>1619.4000244141</ele>
        <time>2021-01-24T08:23:24.000Z</time>
      </trkpt>
      <trkpt lat="45.24827" lon="6.48256">
        <ele>1619.5999755859</ele>
        <time>2021-01-24T08:23:26.000Z</time>
      </trkpt>
      <trkpt lat="45.24829" lon="6.4826">
        <ele>1619.8000488281</ele>
        <time>2021-01-24T08:23:29.000Z</time>
      </trkpt>
      <trkpt lat="45.24833" lon="6.48268">
        <ele>1620.5999755859</ele>
        <time>2021-01-24T08:23:35.000Z</time>
      </trkpt>
      <trkpt lat="45.24834" lon="6.4827">
        <ele>1620.8000488281</ele>
        <time>2021-01-24T08:23:37.000Z</time>
      </trkpt>
      <trkpt lat="45.24843" lon="6.48273">
        <ele>1621.5999755859</ele>
        <time>2021-01-24T08:23:46.000Z</time>
      </trkpt>
      <trkpt lat="45.24844" lon="6.48273">
        <ele>1621.5999755859</ele>
        <time>2021-01-24T08:23:47.000Z</time>
      </trkpt>
      <trkpt lat="45.2485" lon="6.4827">
        <ele>1622</ele>
        <time>2021-01-24T08:23:55.000Z</time>
      </trkpt>
      <trkpt lat="45.24851" lon="6.48271">
        <ele>1622.4000244141</ele>
        <time>2021-01-24T08:24:02.000Z</time>
      </trkpt>
      <trkpt lat="45.24852" lon="6.4827">
        <ele>1622.5999755859</ele>
        <time>2021-01-24T08:24:05.000Z</time>
      </trkpt>
      <trkpt lat="45.24857" lon="6.4827">
        <ele>1622.8000488281</ele>
        <time>2021-01-24T08:24:09.000Z</time>
      </trkpt>
      <trkpt lat="45.24866" lon="6.48271">
        <ele>1623.1999511719</ele>
        <time>2021-01-24T08:24:17.000Z</time>
      </trkpt>
      <trkpt lat="45.24869" lon="6.48274">
        <ele>1623.5999755859</ele>
        <time>2021-01-24T08:24:21.000Z</time>
      </trkpt>
      <trkpt lat="45.2487" lon="6.48276">
        <ele>1623.8000488281</ele>
        <time>2021-01-24T08:24:23.000Z</time>
      </trkpt>
      <trkpt lat="45.24872" lon="6.48282">
        <ele>1624.5999755859</ele>
        <time>2021-01-24T08:24:30.000Z</time>
      </trkpt>
      <trkpt lat="45.24873" lon="6.48284">
        <ele>1624.8000488281</ele>
        <time>2021-01-24T08:24:31.000Z</time>
      </trkpt>
      <trkpt lat="45.24873" lon="6.4829">
        <ele>1625.4000244141</ele>
        <time>2021-01-24T08:24:36.000Z</time>
      </trkpt>
      <trkpt lat="45.24874" lon="6.48294">
        <ele>1626</ele>
        <time>2021-01-24T08:24:39.000Z</time>
      </trkpt>
      <trkpt lat="45.24875" lon="6.48299">
        <ele>1626.4000244141</ele>
        <time>2021-01-24T08:24:42.000Z</time>
      </trkpt>
      <trkpt lat="45.24878" lon="6.48306">
        <ele>1627</ele>
        <time>2021-01-24T08:24:48.000Z</time>
      </trkpt>
      <trkpt lat="45.24879" lon="6.48307">
        <ele>1627.1999511719</ele>
        <time>2021-01-24T08:24:49.000Z</time>
      </trkpt>
      <trkpt lat="45.24881" lon="6.48313">
        <ele>1628.1999511719</ele>
        <time>2021-01-24T08:24:55.000Z</time>
      </trkpt>
      <trkpt lat="45.24882" lon="6.48314">
        <ele>1628.4000244141</ele>
        <time>2021-01-24T08:24:56.000Z</time>
      </trkpt>
      <trkpt lat="45.24886" lon="6.48318">
        <ele>1629.1999511719</ele>
        <time>2021-01-24T08:25:01.000Z</time>
      </trkpt>
      <trkpt lat="45.24888" lon="6.48319">
        <ele>1629.5999755859</ele>
        <time>2021-01-24T08:25:03.000Z</time>
      </trkpt>
      <trkpt lat="45.24893" lon="6.48322">
        <ele>1630.4000244141</ele>
        <time>2021-01-24T08:25:08.000Z</time>
      </trkpt>
      <trkpt lat="45.24897" lon="6.48323">
        <ele>1631</ele>
        <time>2021-01-24T08:25:12.000Z</time>
      </trkpt>
      <trkpt lat="45.24899" lon="6.48324">
        <ele>1631.4000244141</ele>
        <time>2021-01-24T08:25:14.000Z</time>
      </trkpt>
      <trkpt lat="45.24908" lon="6.48325">
        <ele>1632.4000244141</ele>
        <time>2021-01-24T08:25:21.000Z</time>
      </trkpt>
      <trkpt lat="45.2491" lon="6.48325">
        <ele>1632.5999755859</ele>
        <time>2021-01-24T08:25:22.000Z</time>
      </trkpt>
      <trkpt lat="45.24919" lon="6.48328">
        <ele>1633.5999755859</ele>
        <time>2021-01-24T08:25:30.000Z</time>
      </trkpt>
      <trkpt lat="45.24921" lon="6.48328">
        <ele>1633.8000488281</ele>
        <time>2021-01-24T08:25:32.000Z</time>
      </trkpt>
      <trkpt lat="45.24928" lon="6.48327">
        <ele>1634.8000488281</ele>
        <time>2021-01-24T08:25:40.000Z</time>
      </trkpt>
      <trkpt lat="45.24935" lon="6.48326">
        <ele>1635.8000488281</ele>
        <time>2021-01-24T08:25:47.000Z</time>
      </trkpt>
      <trkpt lat="45.24936" lon="6.48325">
        <ele>1635.8000488281</ele>
        <time>2021-01-24T08:25:48.000Z</time>
      </trkpt>
      <trkpt lat="45.24943" lon="6.48322">
        <ele>1636.8000488281</ele>
        <time>2021-01-24T08:25:58.000Z</time>
      </trkpt>
      <trkpt lat="45.24951" lon="6.4832">
        <ele>1637.8000488281</ele>
        <time>2021-01-24T08:26:06.000Z</time>
      </trkpt>
      <trkpt lat="45.24953" lon="6.4832">
        <ele>1638.4000244141</ele>
        <time>2021-01-24T08:26:09.000Z</time>
      </trkpt>
      <trkpt lat="45.24958" lon="6.4832">
        <ele>1638.8000488281</ele>
        <time>2021-01-24T08:26:14.000Z</time>
      </trkpt>
      <trkpt lat="45.24961" lon="6.48321">
        <ele>1639</ele>
        <time>2021-01-24T08:26:17.000Z</time>
      </trkpt>
      <trkpt lat="45.24968" lon="6.48326">
        <ele>1640</ele>
        <time>2021-01-24T08:26:26.000Z</time>
      </trkpt>
      <trkpt lat="45.24969" lon="6.48326">
        <ele>1640.1999511719</ele>
        <time>2021-01-24T08:26:27.000Z</time>
      </trkpt>
      <trkpt lat="45.24972" lon="6.4833">
        <ele>1641</ele>
        <time>2021-01-24T08:26:31.000Z</time>
      </trkpt>
      <trkpt lat="45.24973" lon="6.48333">
        <ele>1641.4000244141</ele>
        <time>2021-01-24T08:26:35.000Z</time>
      </trkpt>
      <trkpt lat="45.24969" lon="6.48337">
        <ele>1642</ele>
        <time>2021-01-24T08:26:40.000Z</time>
      </trkpt>
      <trkpt lat="45.24965" lon="6.48337">
        <ele>1642.4000244141</ele>
        <time>2021-01-24T08:26:43.000Z</time>
      </trkpt>
      <trkpt lat="45.24961" lon="6.48336">
        <ele>1643.1999511719</ele>
        <time>2021-01-24T08:26:48.000Z</time>
      </trkpt>
      <trkpt lat="45.24959" lon="6.48337">
        <ele>1643.1999511719</ele>
        <time>2021-01-24T08:26:50.000Z</time>
      </trkpt>
      <trkpt lat="45.24954" lon="6.48345">
        <ele>1644.1999511719</ele>
        <time>2021-01-24T08:26:57.000Z</time>
      </trkpt>
      <trkpt lat="45.24952" lon="6.48347">
        <ele>1644.8000488281</ele>
        <time>2021-01-24T08:27:00.000Z</time>
      </trkpt>
      <trkpt lat="45.24948" lon="6.4835">
        <ele>1645.4000244141</ele>
        <time>2021-01-24T08:27:04.000Z</time>
      </trkpt>
      <trkpt lat="45.24943" lon="6.48354">
        <ele>1646.4000244141</ele>
        <time>2021-01-24T08:27:10.000Z</time>
      </trkpt>
      <trkpt lat="45.24938" lon="6.48358">
        <ele>1647.5999755859</ele>
        <time>2021-01-24T08:27:17.000Z</time>
      </trkpt>
      <trkpt lat="45.24937" lon="6.48359">
        <ele>1648.1999511719</ele>
        <time>2021-01-24T08:27:19.000Z</time>
      </trkpt>
      <trkpt lat="45.24936" lon="6.48361">
        <ele>1648.5999755859</ele>
        <time>2021-01-24T08:27:22.000Z</time>
      </trkpt>
      <trkpt lat="45.24931" lon="6.48366">
        <ele>1649.5999755859</ele>
        <time>2021-01-24T08:27:29.000Z</time>
      </trkpt>
      <trkpt lat="45.2493" lon="6.48367">
        <ele>1649.8000488281</ele>
        <time>2021-01-24T08:27:30.000Z</time>
      </trkpt>
      <trkpt lat="45.24926" lon="6.48372">
        <ele>1650.8000488281</ele>
        <time>2021-01-24T08:27:37.000Z</time>
      </trkpt>
      <trkpt lat="45.24925" lon="6.48374">
        <ele>1651.1999511719</ele>
        <time>2021-01-24T08:27:39.000Z</time>
      </trkpt>
      <trkpt lat="45.24923" lon="6.48376">
        <ele>1651.8000488281</ele>
        <time>2021-01-24T08:27:42.000Z</time>
      </trkpt>
      <trkpt lat="45.24921" lon="6.4838">
        <ele>1653</ele>
        <time>2021-01-24T08:27:47.000Z</time>
      </trkpt>
      <trkpt lat="45.24919" lon="6.48384">
        <ele>1653.5999755859</ele>
        <time>2021-01-24T08:27:51.000Z</time>
      </trkpt>
      <trkpt lat="45.24918" lon="6.48387">
        <ele>1654</ele>
        <time>2021-01-24T08:27:53.000Z</time>
      </trkpt>
      <trkpt lat="45.24915" lon="6.48393">
        <ele>1655</ele>
        <time>2021-01-24T08:27:59.000Z</time>
      </trkpt>
      <trkpt lat="45.24914" lon="6.48395">
        <ele>1655.1999511719</ele>
        <time>2021-01-24T08:28:01.000Z</time>
      </trkpt>
      <trkpt lat="45.24913" lon="6.48401">
        <ele>1656.1999511719</ele>
        <time>2021-01-24T08:28:06.000Z</time>
      </trkpt>
      <trkpt lat="45.24913" lon="6.48405">
        <ele>1657</ele>
        <time>2021-01-24T08:28:10.000Z</time>
      </trkpt>
      <trkpt lat="45.24913" lon="6.48407">
        <ele>1657.4000244141</ele>
        <time>2021-01-24T08:28:12.000Z</time>
      </trkpt>
      <trkpt lat="45.24912" lon="6.48412">
        <ele>1658.5999755859</ele>
        <time>2021-01-24T08:28:16.000Z</time>
      </trkpt>
      <trkpt lat="45.24911" lon="6.48414">
        <ele>1659</ele>
        <time>2021-01-24T08:28:18.000Z</time>
      </trkpt>
      <trkpt lat="45.24911" lon="6.48419">
        <ele>1659.5999755859</ele>
        <time>2021-01-24T08:28:23.000Z</time>
      </trkpt>
      <trkpt lat="45.2491" lon="6.48423">
        <ele>1660.5999755859</ele>
        <time>2021-01-24T08:28:27.000Z</time>
      </trkpt>
      <trkpt lat="45.2491" lon="6.48424">
        <ele>1661</ele>
        <time>2021-01-24T08:28:28.000Z</time>
      </trkpt>
      <trkpt lat="45.24909" lon="6.48426">
        <ele>1662</ele>
        <time>2021-01-24T08:28:32.000Z</time>
      </trkpt>
      <trkpt lat="45.24907" lon="6.48429">
        <ele>1663</ele>
        <time>2021-01-24T08:28:37.000Z</time>
      </trkpt>
      <trkpt lat="45.24906" lon="6.4843">
        <ele>1663.1999511719</ele>
        <time>2021-01-24T08:28:38.000Z</time>
      </trkpt>
      <trkpt lat="45.24904" lon="6.48432">
        <ele>1664.1999511719</ele>
        <time>2021-01-24T08:28:42.000Z</time>
      </trkpt>
      <trkpt lat="45.24903" lon="6.48436">
        <ele>1665.4000244141</ele>
        <time>2021-01-24T08:28:47.000Z</time>
      </trkpt>
      <trkpt lat="45.24903" lon="6.48438">
        <ele>1666</ele>
        <time>2021-01-24T08:28:50.000Z</time>
      </trkpt>
      <trkpt lat="45.24903" lon="6.4844">
        <ele>1666.4000244141</ele>
        <time>2021-01-24T08:28:52.000Z</time>
      </trkpt>
      <trkpt lat="45.24902" lon="6.48443">
        <ele>1667.5999755859</ele>
        <time>2021-01-24T08:28:55.000Z</time>
      </trkpt>
      <trkpt lat="45.24901" lon="6.48446">
        <ele>1668.5999755859</ele>
        <time>2021-01-24T08:28:59.000Z</time>
      </trkpt>
      <trkpt lat="45.24901" lon="6.48449">
        <ele>1669.1999511719</ele>
        <time>2021-01-24T08:29:02.000Z</time>
      </trkpt>
      <trkpt lat="45.249" lon="6.48451">
        <ele>1669.8000488281</ele>
        <time>2021-01-24T08:29:05.000Z</time>
      </trkpt>
      <trkpt lat="45.249" lon="6.48454">
        <ele>1670.8000488281</ele>
        <time>2021-01-24T08:29:09.000Z</time>
      </trkpt>
      <trkpt lat="45.249" lon="6.48455">
        <ele>1671.1999511719</ele>
        <time>2021-01-24T08:29:10.000Z</time>
      </trkpt>
      <trkpt lat="45.249" lon="6.48458">
        <ele>1671.8000488281</ele>
        <time>2021-01-24T08:29:13.000Z</time>
      </trkpt>
      <trkpt lat="45.24899" lon="6.48461">
        <ele>1672.1999511719</ele>
        <time>2021-01-24T08:29:17.000Z</time>
      </trkpt>
      <trkpt lat="45.249" lon="6.48463">
        <ele>1672.8000488281</ele>
        <time>2021-01-24T08:29:20.000Z</time>
      </trkpt>
      <trkpt lat="45.249" lon="6.48469">
        <ele>1674.1999511719</ele>
        <time>2021-01-24T08:29:25.000Z</time>
      </trkpt>
      <trkpt lat="45.24902" lon="6.48478">
        <ele>1675.1999511719</ele>
        <time>2021-01-24T08:29:31.000Z</time>
      </trkpt>
      <trkpt lat="45.24903" lon="6.48479">
        <ele>1675.1999511719</ele>
        <time>2021-01-24T08:29:33.000Z</time>
      </trkpt>
      <trkpt lat="45.24904" lon="6.48486">
        <ele>1676.1999511719</ele>
        <time>2021-01-24T08:29:39.000Z</time>
      </trkpt>
      <trkpt lat="45.24903" lon="6.48495">
        <ele>1677.1999511719</ele>
        <time>2021-01-24T08:29:46.000Z</time>
      </trkpt>
      <trkpt lat="45.24903" lon="6.48498">
        <ele>1677.4000244141</ele>
        <time>2021-01-24T08:29:48.000Z</time>
      </trkpt>
      <trkpt lat="45.24902" lon="6.48502">
        <ele>1677.8000488281</ele>
        <time>2021-01-24T08:29:53.000Z</time>
      </trkpt>
      <trkpt lat="45.24902" lon="6.48502">
        <ele>1678.4000244141</ele>
        <time>2021-01-24T08:30:01.000Z</time>
      </trkpt>
      <trkpt lat="45.24902" lon="6.48502">
        <ele>1678.5999755859</ele>
        <time>2021-01-24T08:30:04.000Z</time>
      </trkpt>
      <trkpt lat="45.24902" lon="6.48502">
        <ele>1677.1999511719</ele>
        <time>2021-01-24T08:30:08.000Z</time>
      </trkpt>
      <trkpt lat="45.24902" lon="6.48502">
        <ele>1676</ele>
        <time>2021-01-24T08:30:11.000Z</time>
      </trkpt>
      <trkpt lat="45.24902" lon="6.48502">
        <ele>1677</ele>
        <time>2021-01-24T08:30:14.000Z</time>
      </trkpt>
      <trkpt lat="45.24902" lon="6.48502">
        <ele>1677.5999755859</ele>
        <time>2021-01-24T08:30:15.000Z</time>
      </trkpt>
      <trkpt lat="45.24902" lon="6.48502">
        <ele>1678.4000244141</ele>
        <time>2021-01-24T08:30:26.000Z</time>
      </trkpt>
      <trkpt lat="45.24902" lon="6.48502">
        <ele>1678.5999755859</ele>
        <time>2021-01-24T08:30:30.000Z</time>
      </trkpt>
      <trkpt lat="45.24903" lon="6.48502">
        <ele>1677.4000244141</ele>
        <time>2021-01-24T08:30:35.000Z</time>
      </trkpt>
      <trkpt lat="45.24902" lon="6.48503">
        <ele>1677</ele>
        <time>2021-01-24T08:30:43.000Z</time>
      </trkpt>
      <trkpt lat="45.24899" lon="6.48516">
        <ele>1678.4000244141</ele>
        <time>2021-01-24T08:30:52.000Z</time>
      </trkpt>
      <trkpt lat="45.24898" lon="6.48519">
        <ele>1678.5999755859</ele>
        <time>2021-01-24T08:30:54.000Z</time>
      </trkpt>
      <trkpt lat="45.24896" lon="6.48529">
        <ele>1679.5999755859</ele>
        <time>2021-01-24T08:31:02.000Z</time>
      </trkpt>
      <trkpt lat="45.24893" lon="6.48533">
        <ele>1680.4000244141</ele>
        <time>2021-01-24T08:31:06.000Z</time>
      </trkpt>
      <trkpt lat="45.24892" lon="6.48536">
        <ele>1680.8000488281</ele>
        <time>2021-01-24T08:31:08.000Z</time>
      </trkpt>
      <trkpt lat="45.24888" lon="6.4854">
        <ele>1681.8000488281</ele>
        <time>2021-01-24T08:31:14.000Z</time>
      </trkpt>
      <trkpt lat="45.24887" lon="6.48543">
        <ele>1682.1999511719</ele>
        <time>2021-01-24T08:31:16.000Z</time>
      </trkpt>
      <trkpt lat="45.24885" lon="6.48546">
        <ele>1683.1999511719</ele>
        <time>2021-01-24T08:31:20.000Z</time>
      </trkpt>
      <trkpt lat="45.24884" lon="6.48553">
        <ele>1684.4000244141</ele>
        <time>2021-01-24T08:31:26.000Z</time>
      </trkpt>
      <trkpt lat="45.24884" lon="6.48558">
        <ele>1685.4000244141</ele>
        <time>2021-01-24T08:31:33.000Z</time>
      </trkpt>
      <trkpt lat="45.24884" lon="6.48558">
        <ele>1686.1999511719</ele>
        <time>2021-01-24T08:31:36.000Z</time>
      </trkpt>
      <trkpt lat="45.24884" lon="6.48559">
        <ele>1686.5999755859</ele>
        <time>2021-01-24T08:31:37.000Z</time>
      </trkpt>
      <trkpt lat="45.24883" lon="6.48563">
        <ele>1687.5999755859</ele>
        <time>2021-01-24T08:31:41.000Z</time>
      </trkpt>
      <trkpt lat="45.24882" lon="6.48567">
        <ele>1688.8000488281</ele>
        <time>2021-01-24T08:31:45.000Z</time>
      </trkpt>
      <trkpt lat="45.2488" lon="6.48569">
        <ele>1689.1999511719</ele>
        <time>2021-01-24T08:31:48.000Z</time>
      </trkpt>
      <trkpt lat="45.2488" lon="6.48569">
        <ele>1690</ele>
        <time>2021-01-24T08:31:52.000Z</time>
      </trkpt>
      <trkpt lat="45.24876" lon="6.48575">
        <ele>1691</ele>
        <time>2021-01-24T08:31:57.000Z</time>
      </trkpt>
      <trkpt lat="45.24875" lon="6.48577">
        <ele>1691.4000244141</ele>
        <time>2021-01-24T08:31:59.000Z</time>
      </trkpt>
      <trkpt lat="45.24874" lon="6.48581">
        <ele>1692</ele>
        <time>2021-01-24T08:32:02.000Z</time>
      </trkpt>
      <trkpt lat="45.24871" lon="6.48587">
        <ele>1693.4000244141</ele>
        <time>2021-01-24T08:32:08.000Z</time>
      </trkpt>
      <trkpt lat="45.24869" lon="6.4859">
        <ele>1694.4000244141</ele>
        <time>2021-01-24T08:32:12.000Z</time>
      </trkpt>
      <trkpt lat="45.24869" lon="6.48591">
        <ele>1694.5999755859</ele>
        <time>2021-01-24T08:32:13.000Z</time>
      </trkpt>
      <trkpt lat="45.24867" lon="6.48596">
        <ele>1695.8000488281</ele>
        <time>2021-01-24T08:32:20.000Z</time>
      </trkpt>
      <trkpt lat="45.24867" lon="6.48598">
        <ele>1696.1999511719</ele>
        <time>2021-01-24T08:32:22.000Z</time>
      </trkpt>
      <trkpt lat="45.24867" lon="6.486">
        <ele>1697</ele>
        <time>2021-01-24T08:32:25.000Z</time>
      </trkpt>
      <trkpt lat="45.24868" lon="6.48604">
        <ele>1698.1999511719</ele>
        <time>2021-01-24T08:32:31.000Z</time>
      </trkpt>
      <trkpt lat="45.24868" lon="6.48606">
        <ele>1698.8000488281</ele>
        <time>2021-01-24T08:32:32.000Z</time>
      </trkpt>
      <trkpt lat="45.24868" lon="6.48607">
        <ele>1699.4000244141</ele>
        <time>2021-01-24T08:32:34.000Z</time>
      </trkpt>
      <trkpt lat="45.24867" lon="6.48613">
        <ele>1700.5999755859</ele>
        <time>2021-01-24T08:32:39.000Z</time>
      </trkpt>
      <trkpt lat="45.24866" lon="6.48614">
        <ele>1700.8000488281</ele>
        <time>2021-01-24T08:32:40.000Z</time>
      </trkpt>
      <trkpt lat="45.24861" lon="6.48621">
        <ele>1701.8000488281</ele>
        <time>2021-01-24T08:32:46.000Z</time>
      </trkpt>
      <trkpt lat="45.24858" lon="6.48625">
        <ele>1702.5999755859</ele>
        <time>2021-01-24T08:32:50.000Z</time>
      </trkpt>
      <trkpt lat="45.24857" lon="6.48628">
        <ele>1703</ele>
        <time>2021-01-24T08:32:52.000Z</time>
      </trkpt>
      <trkpt lat="45.24854" lon="6.48635">
        <ele>1704</ele>
        <time>2021-01-24T08:32:57.000Z</time>
      </trkpt>
      <trkpt lat="45.24853" lon="6.48638">
        <ele>1705</ele>
        <time>2021-01-24T08:33:01.000Z</time>
      </trkpt>
      <trkpt lat="45.24852" lon="6.48639">
        <ele>1705</ele>
        <time>2021-01-24T08:33:02.000Z</time>
      </trkpt>
      <trkpt lat="45.24848" lon="6.48644">
        <ele>1706</ele>
        <time>2021-01-24T08:33:07.000Z</time>
      </trkpt>
      <trkpt lat="45.24845" lon="6.48652">
        <ele>1707.1999511719</ele>
        <time>2021-01-24T08:33:14.000Z</time>
      </trkpt>
      <trkpt lat="45.24845" lon="6.48659">
        <ele>1708.1999511719</ele>
        <time>2021-01-24T08:33:20.000Z</time>
      </trkpt>
      <trkpt lat="45.24845" lon="6.48661">
        <ele>1708.5999755859</ele>
        <time>2021-01-24T08:33:23.000Z</time>
      </trkpt>
      <trkpt lat="45.24848" lon="6.48666">
        <ele>1709.4000244141</ele>
        <time>2021-01-24T08:33:28.000Z</time>
      </trkpt>
      <trkpt lat="45.24852" lon="6.48665">
        <ele>1710.1999511719</ele>
        <time>2021-01-24T08:33:32.000Z</time>
      </trkpt>
      <trkpt lat="45.24854" lon="6.48664">
        <ele>1710.4000244141</ele>
        <time>2021-01-24T08:33:34.000Z</time>
      </trkpt>
      <trkpt lat="45.24858" lon="6.48663">
        <ele>1711.4000244141</ele>
        <time>2021-01-24T08:33:39.000Z</time>
      </trkpt>
      <trkpt lat="45.24858" lon="6.48663">
        <ele>1711.5999755859</ele>
        <time>2021-01-24T08:33:40.000Z</time>
      </trkpt>
      <trkpt lat="45.24861" lon="6.48661">
        <ele>1711.8000488281</ele>
        <time>2021-01-24T08:33:46.000Z</time>
      </trkpt>
      <trkpt lat="45.24866" lon="6.48659">
        <ele>1712.8000488281</ele>
        <time>2021-01-24T08:33:52.000Z</time>
      </trkpt>
      <trkpt lat="45.24866" lon="6.48658">
        <ele>1713</ele>
        <time>2021-01-24T08:33:53.000Z</time>
      </trkpt>
      <trkpt lat="45.2487" lon="6.48655">
        <ele>1713.5999755859</ele>
        <time>2021-01-24T08:33:59.000Z</time>
      </trkpt>
      <trkpt lat="45.24871" lon="6.48654">
        <ele>1713.8000488281</ele>
        <time>2021-01-24T08:34:00.000Z</time>
      </trkpt>
      <trkpt lat="45.24876" lon="6.4865">
        <ele>1714.1999511719</ele>
        <time>2021-01-24T08:34:05.000Z</time>
      </trkpt>
      <trkpt lat="45.24879" lon="6.48646">
        <ele>1715</ele>
        <time>2021-01-24T08:34:08.000Z</time>
      </trkpt>
      <trkpt lat="45.24883" lon="6.48644">
        <ele>1715.4000244141</ele>
        <time>2021-01-24T08:34:11.000Z</time>
      </trkpt>
      <trkpt lat="45.24884" lon="6.48644">
        <ele>1715.5999755859</ele>
        <time>2021-01-24T08:34:12.000Z</time>
      </trkpt>
      <trkpt lat="45.24885" lon="6.48643">
        <ele>1716</ele>
        <time>2021-01-24T08:34:14.000Z</time>
      </trkpt>
      <trkpt lat="45.24889" lon="6.48641">
        <ele>1716.8000488281</ele>
        <time>2021-01-24T08:34:18.000Z</time>
      </trkpt>
      <trkpt lat="45.24892" lon="6.48643">
        <ele>1717</ele>
        <time>2021-01-24T08:34:21.000Z</time>
      </trkpt>
      <trkpt lat="45.24892" lon="6.48647">
        <ele>1717.5999755859</ele>
        <time>2021-01-24T08:34:25.000Z</time>
      </trkpt>
      <trkpt lat="45.2489" lon="6.4865">
        <ele>1718</ele>
        <time>2021-01-24T08:34:27.000Z</time>
      </trkpt>
      <trkpt lat="45.24887" lon="6.48657">
        <ele>1719.1999511719</ele>
        <time>2021-01-24T08:34:32.000Z</time>
      </trkpt>
      <trkpt lat="45.24886" lon="6.48659">
        <ele>1719.8000488281</ele>
        <time>2021-01-24T08:34:35.000Z</time>
      </trkpt>
      <trkpt lat="45.24885" lon="6.4866">
        <ele>1720.4000244141</ele>
        <time>2021-01-24T08:34:39.000Z</time>
      </trkpt>
      <trkpt lat="45.24884" lon="6.4866">
        <ele>1720.5999755859</ele>
        <time>2021-01-24T08:34:42.000Z</time>
      </trkpt>
      <trkpt lat="45.24884" lon="6.4866">
        <ele>1721.1999511719</ele>
        <time>2021-01-24T08:34:49.000Z</time>
      </trkpt>
      <trkpt lat="45.24884" lon="6.4866">
        <ele>1720.8000488281</ele>
        <time>2021-01-24T08:35:08.000Z</time>
      </trkpt>
      <trkpt lat="45.24884" lon="6.48659">
        <ele>1720.8000488281</ele>
        <time>2021-01-24T08:35:24.000Z</time>
      </trkpt>
      <trkpt lat="45.24884" lon="6.48659">
        <ele>1719.4000244141</ele>
        <time>2021-01-24T08:35:36.000Z</time>
      </trkpt>
      <trkpt lat="45.24882" lon="6.48661">
        <ele>1720.4000244141</ele>
        <time>2021-01-24T08:35:48.000Z</time>
      </trkpt>
      <trkpt lat="45.24882" lon="6.48661">
        <ele>1720.4000244141</ele>
        <time>2021-01-24T08:36:00.000Z</time>
      </trkpt>
      <trkpt lat="45.2488" lon="6.48661">
        <ele>1720.1999511719</ele>
        <time>2021-01-24T08:36:07.000Z</time>
      </trkpt>
      <trkpt lat="45.24879" lon="6.48673">
        <ele>1721</ele>
        <time>2021-01-24T08:36:18.000Z</time>
      </trkpt>
      <trkpt lat="45.24877" lon="6.48682">
        <ele>1721.4000244141</ele>
        <time>2021-01-24T08:36:25.000Z</time>
      </trkpt>
      <trkpt lat="45.24874" lon="6.48689">
        <ele>1721.8000488281</ele>
        <time>2021-01-24T08:36:29.000Z</time>
      </trkpt>
      <trkpt lat="45.24872" lon="6.48698">
        <ele>1722</ele>
        <time>2021-01-24T08:36:38.000Z</time>
      </trkpt>
      <trkpt lat="45.2487" lon="6.48703">
        <ele>1722.5999755859</ele>
        <time>2021-01-24T08:36:43.000Z</time>
      </trkpt>
      <trkpt lat="45.2487" lon="6.48706">
        <ele>1723</ele>
        <time>2021-01-24T08:36:47.000Z</time>
      </trkpt>
      <trkpt lat="45.24867" lon="6.48708">
        <ele>1723.5999755859</ele>
        <time>2021-01-24T08:36:52.000Z</time>
      </trkpt>
      <trkpt lat="45.24865" lon="6.48708">
        <ele>1724.8000488281</ele>
        <time>2021-01-24T08:36:56.000Z</time>
      </trkpt>
      <trkpt lat="45.24863" lon="6.48708">
        <ele>1725.4000244141</ele>
        <time>2021-01-24T08:36:59.000Z</time>
      </trkpt>
      <trkpt lat="45.24861" lon="6.48709">
        <ele>1725.8000488281</ele>
        <time>2021-01-24T08:37:02.000Z</time>
      </trkpt>
      <trkpt lat="45.24857" lon="6.48712">
        <ele>1727</ele>
        <time>2021-01-24T08:37:07.000Z</time>
      </trkpt>
      <trkpt lat="45.24854" lon="6.48715">
        <ele>1727.4000244141</ele>
        <time>2021-01-24T08:37:09.000Z</time>
      </trkpt>
      <trkpt lat="45.24851" lon="6.48717">
        <ele>1728</ele>
        <time>2021-01-24T08:37:11.000Z</time>
      </trkpt>
      <trkpt lat="45.24847" lon="6.4872">
        <ele>1729</ele>
        <time>2021-01-24T08:37:17.000Z</time>
      </trkpt>
      <trkpt lat="45.24844" lon="6.48722">
        <ele>1730</ele>
        <time>2021-01-24T08:37:21.000Z</time>
      </trkpt>
      <trkpt lat="45.24844" lon="6.48722">
        <ele>1730.1999511719</ele>
        <time>2021-01-24T08:37:22.000Z</time>
      </trkpt>
      <trkpt lat="45.2484" lon="6.48727">
        <ele>1731.1999511719</ele>
        <time>2021-01-24T08:37:28.000Z</time>
      </trkpt>
      <trkpt lat="45.24837" lon="6.48727">
        <ele>1731.5999755859</ele>
        <time>2021-01-24T08:37:31.000Z</time>
      </trkpt>
      <trkpt lat="45.24835" lon="6.48727">
        <ele>1732.4000244141</ele>
        <time>2021-01-24T08:37:34.000Z</time>
      </trkpt>
      <trkpt lat="45.24833" lon="6.48731">
        <ele>1733.4000244141</ele>
        <time>2021-01-24T08:37:39.000Z</time>
      </trkpt>
      <trkpt lat="45.24833" lon="6.48731">
        <ele>1733.5999755859</ele>
        <time>2021-01-24T08:37:40.000Z</time>
      </trkpt>
      <trkpt lat="45.24831" lon="6.48734">
        <ele>1734.8000488281</ele>
        <time>2021-01-24T08:37:44.000Z</time>
      </trkpt>
      <trkpt lat="45.24828" lon="6.48739">
        <ele>1735.8000488281</ele>
        <time>2021-01-24T08:37:50.000Z</time>
      </trkpt>
      <trkpt lat="45.24827" lon="6.48739">
        <ele>1736</ele>
        <time>2021-01-24T08:37:51.000Z</time>
      </trkpt>
      <trkpt lat="45.24824" lon="6.48743">
        <ele>1737</ele>
        <time>2021-01-24T08:37:56.000Z</time>
      </trkpt>
      <trkpt lat="45.24821" lon="6.48747">
        <ele>1738</ele>
        <time>2021-01-24T08:38:02.000Z</time>
      </trkpt>
      <trkpt lat="45.24821" lon="6.48748">
        <ele>1738</ele>
        <time>2021-01-24T08:38:03.000Z</time>
      </trkpt>
      <trkpt lat="45.2482" lon="6.48756">
        <ele>1739.1999511719</ele>
        <time>2021-01-24T08:38:08.000Z</time>
      </trkpt>
      <trkpt lat="45.24819" lon="6.48758">
        <ele>1739.5999755859</ele>
        <time>2021-01-24T08:38:10.000Z</time>
      </trkpt>
      <trkpt lat="45.24816" lon="6.48765">
        <ele>1740.1999511719</ele>
        <time>2021-01-24T08:38:17.000Z</time>
      </trkpt>
      <trkpt lat="45.24815" lon="6.48771">
        <ele>1741.1999511719</ele>
        <time>2021-01-24T08:38:23.000Z</time>
      </trkpt>
      <trkpt lat="45.24816" lon="6.48775">
        <ele>1741.8000488281</ele>
        <time>2021-01-24T08:38:27.000Z</time>
      </trkpt>
      <trkpt lat="45.24816" lon="6.48778">
        <ele>1742.4000244141</ele>
        <time>2021-01-24T08:38:30.000Z</time>
      </trkpt>
      <trkpt lat="45.24814" lon="6.48785">
        <ele>1743.5999755859</ele>
        <time>2021-01-24T08:38:35.000Z</time>
      </trkpt>
      <trkpt lat="45.2481" lon="6.48792">
        <ele>1744.5999755859</ele>
        <time>2021-01-24T08:38:41.000Z</time>
      </trkpt>
      <trkpt lat="45.24807" lon="6.48795">
        <ele>1745.5999755859</ele>
        <time>2021-01-24T08:38:45.000Z</time>
      </trkpt>
      <trkpt lat="45.24804" lon="6.48803">
        <ele>1746.8000488281</ele>
        <time>2021-01-24T08:38:53.000Z</time>
      </trkpt>
      <trkpt lat="45.24803" lon="6.48805">
        <ele>1747</ele>
        <time>2021-01-24T08:38:55.000Z</time>
      </trkpt>
      <trkpt lat="45.24804" lon="6.48813">
        <ele>1747.8000488281</ele>
        <time>2021-01-24T08:39:02.000Z</time>
      </trkpt>
      <trkpt lat="45.24805" lon="6.48816">
        <ele>1748.4000244141</ele>
        <time>2021-01-24T08:39:05.000Z</time>
      </trkpt>
      <trkpt lat="45.24806" lon="6.48817">
        <ele>1748.8000488281</ele>
        <time>2021-01-24T08:39:07.000Z</time>
      </trkpt>
      <trkpt lat="45.24809" lon="6.48819">
        <ele>1749.8000488281</ele>
        <time>2021-01-24T08:39:11.000Z</time>
      </trkpt>
      <trkpt lat="45.24811" lon="6.4882">
        <ele>1750.5999755859</ele>
        <time>2021-01-24T08:39:14.000Z</time>
      </trkpt>
      <trkpt lat="45.24813" lon="6.4882">
        <ele>1751</ele>
        <time>2021-01-24T08:39:16.000Z</time>
      </trkpt>
      <trkpt lat="45.24816" lon="6.4882">
        <ele>1752.1999511719</ele>
        <time>2021-01-24T08:39:21.000Z</time>
      </trkpt>
      <trkpt lat="45.2482" lon="6.48821">
        <ele>1753.1999511719</ele>
        <time>2021-01-24T08:39:25.000Z</time>
      </trkpt>
      <trkpt lat="45.24821" lon="6.48821">
        <ele>1753.4000244141</ele>
        <time>2021-01-24T08:39:26.000Z</time>
      </trkpt>
      <trkpt lat="45.24824" lon="6.48822">
        <ele>1754.4000244141</ele>
        <time>2021-01-24T08:39:30.000Z</time>
      </trkpt>
      <trkpt lat="45.24829" lon="6.48822">
        <ele>1755.5999755859</ele>
        <time>2021-01-24T08:39:35.000Z</time>
      </trkpt>
      <trkpt lat="45.24832" lon="6.4882">
        <ele>1756.8000488281</ele>
        <time>2021-01-24T08:39:41.000Z</time>
      </trkpt>
      <trkpt lat="45.24833" lon="6.48818">
        <ele>1757.4000244141</ele>
        <time>2021-01-24T08:39:44.000Z</time>
      </trkpt>
      <trkpt lat="45.24834" lon="6.48817">
        <ele>1758</ele>
        <time>2021-01-24T08:39:46.000Z</time>
      </trkpt>
      <trkpt lat="45.24837" lon="6.48813">
        <ele>1758.8000488281</ele>
        <time>2021-01-24T08:39:51.000Z</time>
      </trkpt>
      <trkpt lat="45.24838" lon="6.48813">
        <ele>1759</ele>
        <time>2021-01-24T08:39:52.000Z</time>
      </trkpt>
      <trkpt lat="45.24841" lon="6.48811">
        <ele>1760.1999511719</ele>
        <time>2021-01-24T08:39:57.000Z</time>
      </trkpt>
      <trkpt lat="45.24841" lon="6.48811">
        <ele>1760.4000244141</ele>
        <time>2021-01-24T08:39:58.000Z</time>
      </trkpt>
      <trkpt lat="45.24844" lon="6.48809">
        <ele>1761.1999511719</ele>
        <time>2021-01-24T08:40:03.000Z</time>
      </trkpt>
      <trkpt lat="45.24845" lon="6.48808">
        <ele>1761.4000244141</ele>
        <time>2021-01-24T08:40:05.000Z</time>
      </trkpt>
      <trkpt lat="45.24848" lon="6.48807">
        <ele>1762.1999511719</ele>
        <time>2021-01-24T08:40:09.000Z</time>
      </trkpt>
      <trkpt lat="45.24849" lon="6.48808">
        <ele>1763.4000244141</ele>
        <time>2021-01-24T08:40:14.000Z</time>
      </trkpt>
      <trkpt lat="45.2485" lon="6.48808">
        <ele>1763.5999755859</ele>
        <time>2021-01-24T08:40:15.000Z</time>
      </trkpt>
      <trkpt lat="45.24851" lon="6.48809">
        <ele>1764.4000244141</ele>
        <time>2021-01-24T08:40:18.000Z</time>
      </trkpt>
      <trkpt lat="45.24852" lon="6.48813">
        <ele>1765.4000244141</ele>
        <time>2021-01-24T08:40:24.000Z</time>
      </trkpt>
      <trkpt lat="45.24852" lon="6.48814">
        <ele>1765.5999755859</ele>
        <time>2021-01-24T08:40:25.000Z</time>
      </trkpt>
      <trkpt lat="45.24849" lon="6.48818">
        <ele>1766.8000488281</ele>
        <time>2021-01-24T08:40:30.000Z</time>
      </trkpt>
      <trkpt lat="45.24848" lon="6.48821">
        <ele>1767.8000488281</ele>
        <time>2021-01-24T08:40:35.000Z</time>
      </trkpt>
      <trkpt lat="45.2485" lon="6.48827">
        <ele>1769.1999511719</ele>
        <time>2021-01-24T08:40:41.000Z</time>
      </trkpt>
      <trkpt lat="45.2485" lon="6.48828">
        <ele>1769.5999755859</ele>
        <time>2021-01-24T08:40:43.000Z</time>
      </trkpt>
      <trkpt lat="45.2485" lon="6.48831">
        <ele>1770.1999511719</ele>
        <time>2021-01-24T08:40:46.000Z</time>
      </trkpt>
      <trkpt lat="45.2485" lon="6.48837">
        <ele>1771.1999511719</ele>
        <time>2021-01-24T08:40:51.000Z</time>
      </trkpt>
      <trkpt lat="45.2485" lon="6.48838">
        <ele>1771.4000244141</ele>
        <time>2021-01-24T08:40:52.000Z</time>
      </trkpt>
      <trkpt lat="45.2485" lon="6.48842">
        <ele>1772.4000244141</ele>
        <time>2021-01-24T08:40:57.000Z</time>
      </trkpt>
      <trkpt lat="45.2485" lon="6.48844">
        <ele>1773</ele>
        <time>2021-01-24T08:40:59.000Z</time>
      </trkpt>
      <trkpt lat="45.2485" lon="6.48849">
        <ele>1773.5999755859</ele>
        <time>2021-01-24T08:41:03.000Z</time>
      </trkpt>
      <trkpt lat="45.24849" lon="6.48853">
        <ele>1774.5999755859</ele>
        <time>2021-01-24T08:41:07.000Z</time>
      </trkpt>
      <trkpt lat="45.24849" lon="6.48854">
        <ele>1774.5999755859</ele>
        <time>2021-01-24T08:41:08.000Z</time>
      </trkpt>
      <trkpt lat="45.24848" lon="6.4886">
        <ele>1775.8000488281</ele>
        <time>2021-01-24T08:41:14.000Z</time>
      </trkpt>
      <trkpt lat="45.24848" lon="6.4886">
        <ele>1776</ele>
        <time>2021-01-24T08:41:15.000Z</time>
      </trkpt>
      <trkpt lat="45.24848" lon="6.48862">
        <ele>1777</ele>
        <time>2021-01-24T08:41:21.000Z</time>
      </trkpt>
      <trkpt lat="45.24848" lon="6.48864">
        <ele>1778</ele>
        <time>2021-01-24T08:41:24.000Z</time>
      </trkpt>
      <trkpt lat="45.24848" lon="6.48864">
        <ele>1778.1999511719</ele>
        <time>2021-01-24T08:41:25.000Z</time>
      </trkpt>
      <trkpt lat="45.24847" lon="6.48868">
        <ele>1779.1999511719</ele>
        <time>2021-01-24T08:41:29.000Z</time>
      </trkpt>
      <trkpt lat="45.24845" lon="6.48872">
        <ele>1780.1999511719</ele>
        <time>2021-01-24T08:41:34.000Z</time>
      </trkpt>
      <trkpt lat="45.24844" lon="6.48873">
        <ele>1780.4000244141</ele>
        <time>2021-01-24T08:41:35.000Z</time>
      </trkpt>
      <trkpt lat="45.24843" lon="6.48877">
        <ele>1781.1999511719</ele>
        <time>2021-01-24T08:41:40.000Z</time>
      </trkpt>
      <trkpt lat="45.24844" lon="6.48881">
        <ele>1781.8000488281</ele>
        <time>2021-01-24T08:41:44.000Z</time>
      </trkpt>
      <trkpt lat="45.24844" lon="6.48882">
        <ele>1782.4000244141</ele>
        <time>2021-01-24T08:41:46.000Z</time>
      </trkpt>
      <trkpt lat="45.24846" lon="6.48889">
        <ele>1783.4000244141</ele>
        <time>2021-01-24T08:41:53.000Z</time>
      </trkpt>
      <trkpt lat="45.24847" lon="6.48895">
        <ele>1784.5999755859</ele>
        <time>2021-01-24T08:41:58.000Z</time>
      </trkpt>
      <trkpt lat="45.24846" lon="6.48897">
        <ele>1785</ele>
        <time>2021-01-24T08:42:00.000Z</time>
      </trkpt>
      <trkpt lat="45.24848" lon="6.489">
        <ele>1785.8000488281</ele>
        <time>2021-01-24T08:42:03.000Z</time>
      </trkpt>
      <trkpt lat="45.24848" lon="6.48904">
        <ele>1786.4000244141</ele>
        <time>2021-01-24T08:42:07.000Z</time>
      </trkpt>
      <trkpt lat="45.24848" lon="6.48907">
        <ele>1786.8000488281</ele>
        <time>2021-01-24T08:42:11.000Z</time>
      </trkpt>
      <trkpt lat="45.24848" lon="6.48911">
        <ele>1787.5999755859</ele>
        <time>2021-01-24T08:42:14.000Z</time>
      </trkpt>
      <trkpt lat="45.24847" lon="6.48913">
        <ele>1788</ele>
        <time>2021-01-24T08:42:16.000Z</time>
      </trkpt>
      <trkpt lat="45.24845" lon="6.48918">
        <ele>1788.8000488281</ele>
        <time>2021-01-24T08:42:21.000Z</time>
      </trkpt>
      <trkpt lat="45.24844" lon="6.48919">
        <ele>1789</ele>
        <time>2021-01-24T08:42:22.000Z</time>
      </trkpt>
      <trkpt lat="45.24844" lon="6.48925">
        <ele>1790.1999511719</ele>
        <time>2021-01-24T08:42:28.000Z</time>
      </trkpt>
      <trkpt lat="45.24843" lon="6.4893">
        <ele>1791.4000244141</ele>
        <time>2021-01-24T08:42:34.000Z</time>
      </trkpt>
      <trkpt lat="45.24843" lon="6.48932">
        <ele>1791.8000488281</ele>
        <time>2021-01-24T08:42:36.000Z</time>
      </trkpt>
      <trkpt lat="45.24844" lon="6.48936">
        <ele>1792.4000244141</ele>
        <time>2021-01-24T08:42:39.000Z</time>
      </trkpt>
      <trkpt lat="45.24842" lon="6.48938">
        <ele>1793.4000244141</ele>
        <time>2021-01-24T08:42:44.000Z</time>
      </trkpt>
      <trkpt lat="45.24842" lon="6.48939">
        <ele>1793.8000488281</ele>
        <time>2021-01-24T08:42:45.000Z</time>
      </trkpt>
      <trkpt lat="45.2484" lon="6.48941">
        <ele>1794.5999755859</ele>
        <time>2021-01-24T08:42:49.000Z</time>
      </trkpt>
      <trkpt lat="45.2484" lon="6.48945">
        <ele>1795.5999755859</ele>
        <time>2021-01-24T08:42:55.000Z</time>
      </trkpt>
      <trkpt lat="45.2484" lon="6.48945">
        <ele>1795.8000488281</ele>
        <time>2021-01-24T08:42:56.000Z</time>
      </trkpt>
      <trkpt lat="45.2484" lon="6.48945">
        <ele>1794.8000488281</ele>
        <time>2021-01-24T08:43:10.000Z</time>
      </trkpt>
      <trkpt lat="45.2484" lon="6.48945">
        <ele>1796.4000244141</ele>
        <time>2021-01-24T08:43:25.000Z</time>
      </trkpt>
      <trkpt lat="45.2484" lon="6.48945">
        <ele>1794.5999755859</ele>
        <time>2021-01-24T08:43:38.000Z</time>
      </trkpt>
      <trkpt lat="45.2484" lon="6.48945">
        <ele>1794.5999755859</ele>
        <time>2021-01-24T08:43:41.000Z</time>
      </trkpt>
      <trkpt lat="45.2484" lon="6.48948">
        <ele>1795.1999511719</ele>
        <time>2021-01-24T08:43:47.000Z</time>
      </trkpt>
      <trkpt lat="45.2484" lon="6.48948">
        <ele>1795.8000488281</ele>
        <time>2021-01-24T08:43:48.000Z</time>
      </trkpt>
      <trkpt lat="45.2484" lon="6.48948">
        <ele>1795.8000488281</ele>
        <time>2021-01-24T08:44:02.000Z</time>
      </trkpt>
      <trkpt lat="45.2484" lon="6.48948">
        <ele>1796</ele>
        <time>2021-01-24T08:44:19.000Z</time>
      </trkpt>
      <trkpt lat="45.2484" lon="6.48948">
        <ele>1796</ele>
        <time>2021-01-24T08:44:40.000Z</time>
      </trkpt>
      <trkpt lat="45.2484" lon="6.48948">
        <ele>1795.8000488281</ele>
        <time>2021-01-24T08:44:56.000Z</time>
      </trkpt>
      <trkpt lat="45.2484" lon="6.48949">
        <ele>1796.1999511719</ele>
        <time>2021-01-24T08:45:11.000Z</time>
      </trkpt>
      <trkpt lat="45.2484" lon="6.48949">
        <ele>1795.8000488281</ele>
        <time>2021-01-24T08:45:26.000Z</time>
      </trkpt>
      <trkpt lat="45.2484" lon="6.48949">
        <ele>1796</ele>
        <time>2021-01-24T08:45:40.000Z</time>
      </trkpt>
      <trkpt lat="45.2484" lon="6.48948">
        <ele>1795.8000488281</ele>
        <time>2021-01-24T08:45:55.000Z</time>
      </trkpt>
      <trkpt lat="45.2484" lon="6.48948">
        <ele>1796</ele>
        <time>2021-01-24T08:46:10.000Z</time>
      </trkpt>
      <trkpt lat="45.2484" lon="6.48949">
        <ele>1795.4000244141</ele>
        <time>2021-01-24T08:46:29.000Z</time>
      </trkpt>
      <trkpt lat="45.2484" lon="6.48949">
        <ele>1795.8000488281</ele>
        <time>2021-01-24T08:46:42.000Z</time>
      </trkpt>
      <trkpt lat="45.2484" lon="6.48949">
        <ele>1795.8000488281</ele>
        <time>2021-01-24T08:46:59.000Z</time>
      </trkpt>
      <trkpt lat="45.2484" lon="6.48949">
        <ele>1795.5999755859</ele>
        <time>2021-01-24T08:47:18.000Z</time>
      </trkpt>
      <trkpt lat="45.2484" lon="6.48949">
        <ele>1795.8000488281</ele>
        <time>2021-01-24T08:47:32.000Z</time>
      </trkpt>
      <trkpt lat="45.2484" lon="6.48949">
        <ele>1795.5999755859</ele>
        <time>2021-01-24T08:47:53.000Z</time>
      </trkpt>
      <trkpt lat="45.2484" lon="6.48949">
        <ele>1795.4000244141</ele>
        <time>2021-01-24T08:48:08.000Z</time>
      </trkpt>
      <trkpt lat="45.2484" lon="6.48949">
        <ele>1795.4000244141</ele>
        <time>2021-01-24T08:48:26.000Z</time>
      </trkpt>
      <trkpt lat="45.24841" lon="6.48955">
        <ele>1795.4000244141</ele>
        <time>2021-01-24T08:48:36.000Z</time>
      </trkpt>
      <trkpt lat="45.24842" lon="6.4896">
        <ele>1796.1999511719</ele>
        <time>2021-01-24T08:48:42.000Z</time>
      </trkpt>
      <trkpt lat="45.24843" lon="6.48963">
        <ele>1797</ele>
        <time>2021-01-24T08:48:45.000Z</time>
      </trkpt>
      <trkpt lat="45.24846" lon="6.48965">
        <ele>1797.5999755859</ele>
        <time>2021-01-24T08:48:48.000Z</time>
      </trkpt>
      <trkpt lat="45.24848" lon="6.48965">
        <ele>1798.1999511719</ele>
        <time>2021-01-24T08:48:51.000Z</time>
      </trkpt>
      <trkpt lat="45.24852" lon="6.48963">
        <ele>1798.5999755859</ele>
        <time>2021-01-24T08:48:56.000Z</time>
      </trkpt>
      <trkpt lat="45.24855" lon="6.4896">
        <ele>1799.4000244141</ele>
        <time>2021-01-24T08:48:59.000Z</time>
      </trkpt>
      <trkpt lat="45.24857" lon="6.48958">
        <ele>1800.4000244141</ele>
        <time>2021-01-24T08:49:03.000Z</time>
      </trkpt>
      <trkpt lat="45.24858" lon="6.48957">
        <ele>1800.5999755859</ele>
        <time>2021-01-24T08:49:04.000Z</time>
      </trkpt>
      <trkpt lat="45.24863" lon="6.48953">
        <ele>1801.5999755859</ele>
        <time>2021-01-24T08:49:11.000Z</time>
      </trkpt>
      <trkpt lat="45.24863" lon="6.48952">
        <ele>1801.8000488281</ele>
        <time>2021-01-24T08:49:12.000Z</time>
      </trkpt>
      <trkpt lat="45.24865" lon="6.48949">
        <ele>1802.8000488281</ele>
        <time>2021-01-24T08:49:18.000Z</time>
      </trkpt>
      <trkpt lat="45.24866" lon="6.48947">
        <ele>1802.8000488281</ele>
        <time>2021-01-24T08:49:19.000Z</time>
      </trkpt>
      <trkpt lat="45.24868" lon="6.48942">
        <ele>1804.4000244141</ele>
        <time>2021-01-24T08:49:24.000Z</time>
      </trkpt>
      <trkpt lat="45.24868" lon="6.48941">
        <ele>1804.8000488281</ele>
        <time>2021-01-24T08:49:26.000Z</time>
      </trkpt>
      <trkpt lat="45.24871" lon="6.48939">
        <ele>1805.5999755859</ele>
        <time>2021-01-24T08:49:30.000Z</time>
      </trkpt>
      <trkpt lat="45.24873" lon="6.48937">
        <ele>1806</ele>
        <time>2021-01-24T08:49:33.000Z</time>
      </trkpt>
      <trkpt lat="45.24876" lon="6.48939">
        <ele>1806.5999755859</ele>
        <time>2021-01-24T08:49:38.000Z</time>
      </trkpt>
      <trkpt lat="45.24875" lon="6.48939">
        <ele>1806.8000488281</ele>
        <time>2021-01-24T08:49:39.000Z</time>
      </trkpt>
      <trkpt lat="45.24875" lon="6.48946">
        <ele>1807.8000488281</ele>
        <time>2021-01-24T08:49:45.000Z</time>
      </trkpt>
      <trkpt lat="45.24874" lon="6.48951">
        <ele>1808.8000488281</ele>
        <time>2021-01-24T08:49:50.000Z</time>
      </trkpt>
      <trkpt lat="45.24874" lon="6.48953">
        <ele>1809</ele>
        <time>2021-01-24T08:49:52.000Z</time>
      </trkpt>
      <trkpt lat="45.24874" lon="6.48956">
        <ele>1810</ele>
        <time>2021-01-24T08:49:56.000Z</time>
      </trkpt>
      <trkpt lat="45.24873" lon="6.4896">
        <ele>1811</ele>
        <time>2021-01-24T08:50:00.000Z</time>
      </trkpt>
      <trkpt lat="45.24873" lon="6.48961">
        <ele>1811.1999511719</ele>
        <time>2021-01-24T08:50:01.000Z</time>
      </trkpt>
      <trkpt lat="45.24873" lon="6.48966">
        <ele>1812.1999511719</ele>
        <time>2021-01-24T08:50:06.000Z</time>
      </trkpt>
      <trkpt lat="45.24872" lon="6.48969">
        <ele>1812.8000488281</ele>
        <time>2021-01-24T08:50:10.000Z</time>
      </trkpt>
      <trkpt lat="45.24872" lon="6.48971">
        <ele>1813.5999755859</ele>
        <time>2021-01-24T08:50:12.000Z</time>
      </trkpt>
      <trkpt lat="45.24873" lon="6.48977">
        <ele>1814.1999511719</ele>
        <time>2021-01-24T08:50:16.000Z</time>
      </trkpt>
      <trkpt lat="45.24873" lon="6.4898">
        <ele>1814.8000488281</ele>
        <time>2021-01-24T08:50:19.000Z</time>
      </trkpt>
      <trkpt lat="45.24875" lon="6.48985">
        <ele>1815.5999755859</ele>
        <time>2021-01-24T08:50:24.000Z</time>
      </trkpt>
      <trkpt lat="45.24875" lon="6.48986">
        <ele>1815.8000488281</ele>
        <time>2021-01-24T08:50:25.000Z</time>
      </trkpt>
      <trkpt lat="45.24876" lon="6.48991">
        <ele>1816.8000488281</ele>
        <time>2021-01-24T08:50:31.000Z</time>
      </trkpt>
      <trkpt lat="45.24876" lon="6.48992">
        <ele>1817</ele>
        <time>2021-01-24T08:50:32.000Z</time>
      </trkpt>
      <trkpt lat="45.24878" lon="6.48995">
        <ele>1818.1999511719</ele>
        <time>2021-01-24T08:50:37.000Z</time>
      </trkpt>
      <trkpt lat="45.24878" lon="6.48997">
        <ele>1819.1999511719</ele>
        <time>2021-01-24T08:50:42.000Z</time>
      </trkpt>
      <trkpt lat="45.24878" lon="6.48997">
        <ele>1819.5999755859</ele>
        <time>2021-01-24T08:50:44.000Z</time>
      </trkpt>
      <trkpt lat="45.24878" lon="6.49">
        <ele>1820.4000244141</ele>
        <time>2021-01-24T08:50:47.000Z</time>
      </trkpt>
      <trkpt lat="45.24878" lon="6.49007">
        <ele>1821.4000244141</ele>
        <time>2021-01-24T08:50:52.000Z</time>
      </trkpt>
      <trkpt lat="45.24878" lon="6.49009">
        <ele>1821.8000488281</ele>
        <time>2021-01-24T08:50:54.000Z</time>
      </trkpt>
      <trkpt lat="45.24878" lon="6.49014">
        <ele>1822.5999755859</ele>
        <time>2021-01-24T08:50:58.000Z</time>
      </trkpt>
      <trkpt lat="45.24877" lon="6.49017">
        <ele>1823.8000488281</ele>
        <time>2021-01-24T08:51:02.000Z</time>
      </trkpt>
      <trkpt lat="45.24877" lon="6.49018">
        <ele>1824</ele>
        <time>2021-01-24T08:51:03.000Z</time>
      </trkpt>
      <trkpt lat="45.24877" lon="6.49021">
        <ele>1824.8000488281</ele>
        <time>2021-01-24T08:51:08.000Z</time>
      </trkpt>
      <trkpt lat="45.24875" lon="6.49023">
        <ele>1825.4000244141</ele>
        <time>2021-01-24T08:51:11.000Z</time>
      </trkpt>
      <trkpt lat="45.24874" lon="6.49025">
        <ele>1826</ele>
        <time>2021-01-24T08:51:14.000Z</time>
      </trkpt>
      <trkpt lat="45.24874" lon="6.49029">
        <ele>1827.1999511719</ele>
        <time>2021-01-24T08:51:19.000Z</time>
      </trkpt>
      <trkpt lat="45.24874" lon="6.49035">
        <ele>1828.1999511719</ele>
        <time>2021-01-24T08:51:24.000Z</time>
      </trkpt>
      <trkpt lat="45.24874" lon="6.49038">
        <ele>1829</ele>
        <time>2021-01-24T08:51:27.000Z</time>
      </trkpt>
      <trkpt lat="45.24874" lon="6.49041">
        <ele>1829.1999511719</ele>
        <time>2021-01-24T08:51:29.000Z</time>
      </trkpt>
      <trkpt lat="45.24874" lon="6.49046">
        <ele>1830.4000244141</ele>
        <time>2021-01-24T08:51:35.000Z</time>
      </trkpt>
      <trkpt lat="45.24875" lon="6.4905">
        <ele>1831.4000244141</ele>
        <time>2021-01-24T08:51:39.000Z</time>
      </trkpt>
      <trkpt lat="45.24875" lon="6.49054">
        <ele>1832</ele>
        <time>2021-01-24T08:51:43.000Z</time>
      </trkpt>
      <trkpt lat="45.24875" lon="6.49059">
        <ele>1832.5999755859</ele>
        <time>2021-01-24T08:51:47.000Z</time>
      </trkpt>
      <trkpt lat="45.24876" lon="6.49062">
        <ele>1833.8000488281</ele>
        <time>2021-01-24T08:51:51.000Z</time>
      </trkpt>
      <trkpt lat="45.24878" lon="6.49069">
        <ele>1834.4000244141</ele>
        <time>2021-01-24T08:51:55.000Z</time>
      </trkpt>
      <trkpt lat="45.2488" lon="6.49071">
        <ele>1834.8000488281</ele>
        <time>2021-01-24T08:51:57.000Z</time>
      </trkpt>
      <trkpt lat="45.2488" lon="6.49071">
        <ele>1835</ele>
        <time>2021-01-24T08:51:58.000Z</time>
      </trkpt>
      <trkpt lat="45.24883" lon="6.49077">
        <ele>1835.8000488281</ele>
        <time>2021-01-24T08:52:04.000Z</time>
      </trkpt>
      <trkpt lat="45.24883" lon="6.49078">
        <ele>1836</ele>
        <time>2021-01-24T08:52:05.000Z</time>
      </trkpt>
      <trkpt lat="45.24884" lon="6.49082">
        <ele>1836.4000244141</ele>
        <time>2021-01-24T08:52:10.000Z</time>
      </trkpt>
      <trkpt lat="45.24883" lon="6.49083">
        <ele>1837</ele>
        <time>2021-01-24T08:52:12.000Z</time>
      </trkpt>
      <trkpt lat="45.2488" lon="6.49088">
        <ele>1837.5999755859</ele>
        <time>2021-01-24T08:52:18.000Z</time>
      </trkpt>
      <trkpt lat="45.24879" lon="6.49089">
        <ele>1838</ele>
        <time>2021-01-24T08:52:20.000Z</time>
      </trkpt>
      <trkpt lat="45.24874" lon="6.49094">
        <ele>1839</ele>
        <time>2021-01-24T08:52:27.000Z</time>
      </trkpt>
      <trkpt lat="45.24872" lon="6.49099">
        <ele>1840.1999511719</ele>
        <time>2021-01-24T08:52:32.000Z</time>
      </trkpt>
      <trkpt lat="45.24871" lon="6.49102">
        <ele>1841</ele>
        <time>2021-01-24T08:52:36.000Z</time>
      </trkpt>
      <trkpt lat="45.2487" lon="6.49103">
        <ele>1841.1999511719</ele>
        <time>2021-01-24T08:52:37.000Z</time>
      </trkpt>
      <trkpt lat="45.2487" lon="6.49104">
        <ele>1841.4000244141</ele>
        <time>2021-01-24T08:52:38.000Z</time>
      </trkpt>
      <trkpt lat="45.2487" lon="6.49108">
        <ele>1842.4000244141</ele>
        <time>2021-01-24T08:52:42.000Z</time>
      </trkpt>
      <trkpt lat="45.2487" lon="6.4911">
        <ele>1843.1999511719</ele>
        <time>2021-01-24T08:52:46.000Z</time>
      </trkpt>
      <trkpt lat="45.2487" lon="6.49112">
        <ele>1843.5999755859</ele>
        <time>2021-01-24T08:52:48.000Z</time>
      </trkpt>
      <trkpt lat="45.2487" lon="6.49118">
        <ele>1844.5999755859</ele>
        <time>2021-01-24T08:52:53.000Z</time>
      </trkpt>
      <trkpt lat="45.2487" lon="6.49119">
        <ele>1845</ele>
        <time>2021-01-24T08:52:55.000Z</time>
      </trkpt>
      <trkpt lat="45.2487" lon="6.4912">
        <ele>1845.5999755859</ele>
        <time>2021-01-24T08:52:57.000Z</time>
      </trkpt>
      <trkpt lat="45.24871" lon="6.49124">
        <ele>1846.5999755859</ele>
        <time>2021-01-24T08:53:02.000Z</time>
      </trkpt>
      <trkpt lat="45.24871" lon="6.49125">
        <ele>1846.8000488281</ele>
        <time>2021-01-24T08:53:03.000Z</time>
      </trkpt>
      <trkpt lat="45.24871" lon="6.49128">
        <ele>1847.5999755859</ele>
        <time>2021-01-24T08:53:07.000Z</time>
      </trkpt>
      <trkpt lat="45.2487" lon="6.49134">
        <ele>1848.8000488281</ele>
        <time>2021-01-24T08:53:13.000Z</time>
      </trkpt>
      <trkpt lat="45.24869" lon="6.4914">
        <ele>1850</ele>
        <time>2021-01-24T08:53:19.000Z</time>
      </trkpt>
      <trkpt lat="45.24868" lon="6.49141">
        <ele>1850.1999511719</ele>
        <time>2021-01-24T08:53:20.000Z</time>
      </trkpt>
      <trkpt lat="45.24868" lon="6.49145">
        <ele>1851</ele>
        <time>2021-01-24T08:53:24.000Z</time>
      </trkpt>
      <trkpt lat="45.24867" lon="6.49148">
        <ele>1851.5999755859</ele>
        <time>2021-01-24T08:53:28.000Z</time>
      </trkpt>
      <trkpt lat="45.24866" lon="6.49149">
        <ele>1852.1999511719</ele>
        <time>2021-01-24T08:53:30.000Z</time>
      </trkpt>
      <trkpt lat="45.24864" lon="6.49154">
        <ele>1853.1999511719</ele>
        <time>2021-01-24T08:53:35.000Z</time>
      </trkpt>
      <trkpt lat="45.24864" lon="6.49155">
        <ele>1853.4000244141</ele>
        <time>2021-01-24T08:53:36.000Z</time>
      </trkpt>
      <trkpt lat="45.24864" lon="6.49159">
        <ele>1854.1999511719</ele>
        <time>2021-01-24T08:53:39.000Z</time>
      </trkpt>
      <trkpt lat="45.24861" lon="6.49167">
        <ele>1855.4000244141</ele>
        <time>2021-01-24T08:53:45.000Z</time>
      </trkpt>
      <trkpt lat="45.24859" lon="6.49172">
        <ele>1856.4000244141</ele>
        <time>2021-01-24T08:53:50.000Z</time>
      </trkpt>
      <trkpt lat="45.24857" lon="6.49174">
        <ele>1856.8000488281</ele>
        <time>2021-01-24T08:53:54.000Z</time>
      </trkpt>
      <trkpt lat="45.24854" lon="6.49181">
        <ele>1857.5999755859</ele>
        <time>2021-01-24T08:54:00.000Z</time>
      </trkpt>
      <trkpt lat="45.24853" lon="6.49185">
        <ele>1858.1999511719</ele>
        <time>2021-01-24T08:54:03.000Z</time>
      </trkpt>
      <trkpt lat="45.24852" lon="6.49188">
        <ele>1858.5999755859</ele>
        <time>2021-01-24T08:54:06.000Z</time>
      </trkpt>
      <trkpt lat="45.24849" lon="6.49192">
        <ele>1859.1999511719</ele>
        <time>2021-01-24T08:54:11.000Z</time>
      </trkpt>
      <trkpt lat="45.24848" lon="6.49196">
        <ele>1859.5999755859</ele>
        <time>2021-01-24T08:54:15.000Z</time>
      </trkpt>
      <trkpt lat="45.24847" lon="6.49201">
        <ele>1860.5999755859</ele>
        <time>2021-01-24T08:54:20.000Z</time>
      </trkpt>
      <trkpt lat="45.24847" lon="6.49202">
        <ele>1860.8000488281</ele>
        <time>2021-01-24T08:54:21.000Z</time>
      </trkpt>
      <trkpt lat="45.24847" lon="6.49206">
        <ele>1861.8000488281</ele>
        <time>2021-01-24T08:54:27.000Z</time>
      </trkpt>
      <trkpt lat="45.24847" lon="6.49208">
        <ele>1862.4000244141</ele>
        <time>2021-01-24T08:54:30.000Z</time>
      </trkpt>
      <trkpt lat="45.24846" lon="6.49212">
        <ele>1863</ele>
        <time>2021-01-24T08:54:34.000Z</time>
      </trkpt>
      <trkpt lat="45.24845" lon="6.49215">
        <ele>1864.4000244141</ele>
        <time>2021-01-24T08:54:38.000Z</time>
      </trkpt>
      <trkpt lat="45.24845" lon="6.49215">
        <ele>1864.4000244141</ele>
        <time>2021-01-24T08:54:39.000Z</time>
      </trkpt>
      <trkpt lat="45.24844" lon="6.4922">
        <ele>1865.4000244141</ele>
        <time>2021-01-24T08:54:44.000Z</time>
      </trkpt>
      <trkpt lat="45.24843" lon="6.49222">
        <ele>1865.8000488281</ele>
        <time>2021-01-24T08:54:46.000Z</time>
      </trkpt>
      <trkpt lat="45.24841" lon="6.49225">
        <ele>1866.4000244141</ele>
        <time>2021-01-24T08:54:49.000Z</time>
      </trkpt>
      <trkpt lat="45.24838" lon="6.49229">
        <ele>1867.4000244141</ele>
        <time>2021-01-24T08:54:54.000Z</time>
      </trkpt>
      <trkpt lat="45.24836" lon="6.49232">
        <ele>1868.5999755859</ele>
        <time>2021-01-24T08:54:58.000Z</time>
      </trkpt>
      <trkpt lat="45.24832" lon="6.49238">
        <ele>1869</ele>
        <time>2021-01-24T08:55:03.000Z</time>
      </trkpt>
      <trkpt lat="45.24829" lon="6.49241">
        <ele>1869.4000244141</ele>
        <time>2021-01-24T08:55:08.000Z</time>
      </trkpt>
      <trkpt lat="45.24828" lon="6.49243">
        <ele>1869.5999755859</ele>
        <time>2021-01-24T08:55:10.000Z</time>
      </trkpt>
      <trkpt lat="45.24828" lon="6.49243">
        <ele>1869.5999755859</ele>
        <time>2021-01-24T08:55:11.000Z</time>
      </trkpt>
      <trkpt lat="45.24826" lon="6.49251">
        <ele>1870.8000488281</ele>
        <time>2021-01-24T08:55:18.000Z</time>
      </trkpt>
      <trkpt lat="45.24824" lon="6.49257">
        <ele>1872</ele>
        <time>2021-01-24T08:55:24.000Z</time>
      </trkpt>
      <trkpt lat="45.24823" lon="6.49258">
        <ele>1872.1999511719</ele>
        <time>2021-01-24T08:55:26.000Z</time>
      </trkpt>
      <trkpt lat="45.24821" lon="6.49263">
        <ele>1873.1999511719</ele>
        <time>2021-01-24T08:55:32.000Z</time>
      </trkpt>
      <trkpt lat="45.2482" lon="6.49266">
        <ele>1874.1999511719</ele>
        <time>2021-01-24T08:55:36.000Z</time>
      </trkpt>
      <trkpt lat="45.2482" lon="6.4927">
        <ele>1875.1999511719</ele>
        <time>2021-01-24T08:55:41.000Z</time>
      </trkpt>
      <trkpt lat="45.24819" lon="6.49272">
        <ele>1875.5999755859</ele>
        <time>2021-01-24T08:55:44.000Z</time>
      </trkpt>
      <trkpt lat="45.24818" lon="6.49276">
        <ele>1876.4000244141</ele>
        <time>2021-01-24T08:55:47.000Z</time>
      </trkpt>
      <trkpt lat="45.24814" lon="6.4928">
        <ele>1877.1999511719</ele>
        <time>2021-01-24T08:55:52.000Z</time>
      </trkpt>
      <trkpt lat="45.24814" lon="6.49281">
        <ele>1877.5999755859</ele>
        <time>2021-01-24T08:55:53.000Z</time>
      </trkpt>
      <trkpt lat="45.24808" lon="6.49283">
        <ele>1878.1999511719</ele>
        <time>2021-01-24T08:56:00.000Z</time>
      </trkpt>
      <trkpt lat="45.24808" lon="6.49283">
        <ele>1878</ele>
        <time>2021-01-24T08:56:10.000Z</time>
      </trkpt>
      <trkpt lat="45.24807" lon="6.49284">
        <ele>1877.5999755859</ele>
        <time>2021-01-24T08:56:26.000Z</time>
      </trkpt>
      <trkpt lat="45.24801" lon="6.49287">
        <ele>1877.8000488281</ele>
        <time>2021-01-24T08:56:31.000Z</time>
      </trkpt>
      <trkpt lat="45.24798" lon="6.4929">
        <ele>1878</ele>
        <time>2021-01-24T08:56:34.000Z</time>
      </trkpt>
      <trkpt lat="45.24792" lon="6.49292">
        <ele>1877.1999511719</ele>
        <time>2021-01-24T08:56:41.000Z</time>
      </trkpt>
      <trkpt lat="45.24785" lon="6.49296">
        <ele>1878.5999755859</ele>
        <time>2021-01-24T08:56:50.000Z</time>
      </trkpt>
      <trkpt lat="45.24782" lon="6.49299">
        <ele>1879.5999755859</ele>
        <time>2021-01-24T08:56:55.000Z</time>
      </trkpt>
      <trkpt lat="45.24779" lon="6.49302">
        <ele>1880.4000244141</ele>
        <time>2021-01-24T08:56:59.000Z</time>
      </trkpt>
      <trkpt lat="45.24779" lon="6.49302">
        <ele>1880.5999755859</ele>
        <time>2021-01-24T08:57:00.000Z</time>
      </trkpt>
      <trkpt lat="45.24775" lon="6.49305">
        <ele>1881.8000488281</ele>
        <time>2021-01-24T08:57:05.000Z</time>
      </trkpt>
      <trkpt lat="45.24774" lon="6.49306">
        <ele>1882</ele>
        <time>2021-01-24T08:57:07.000Z</time>
      </trkpt>
      <trkpt lat="45.24771" lon="6.49309">
        <ele>1882.8000488281</ele>
        <time>2021-01-24T08:57:12.000Z</time>
      </trkpt>
      <trkpt lat="45.24769" lon="6.4931">
        <ele>1883.4000244141</ele>
        <time>2021-01-24T08:57:15.000Z</time>
      </trkpt>
      <trkpt lat="45.24766" lon="6.49311">
        <ele>1884</ele>
        <time>2021-01-24T08:57:18.000Z</time>
      </trkpt>
      <trkpt lat="45.24763" lon="6.49315">
        <ele>1884.8000488281</ele>
        <time>2021-01-24T08:57:22.000Z</time>
      </trkpt>
      <trkpt lat="45.24763" lon="6.49317">
        <ele>1885.1999511719</ele>
        <time>2021-01-24T08:57:24.000Z</time>
      </trkpt>
      <trkpt lat="45.24761" lon="6.49319">
        <ele>1885.5999755859</ele>
        <time>2021-01-24T08:57:28.000Z</time>
      </trkpt>
      <trkpt lat="45.2476" lon="6.49321">
        <ele>1886.4000244141</ele>
        <time>2021-01-24T08:57:31.000Z</time>
      </trkpt>
      <trkpt lat="45.24759" lon="6.49325">
        <ele>1887.4000244141</ele>
        <time>2021-01-24T08:57:35.000Z</time>
      </trkpt>
      <trkpt lat="45.24757" lon="6.49331">
        <ele>1888.4000244141</ele>
        <time>2021-01-24T08:57:42.000Z</time>
      </trkpt>
      <trkpt lat="45.24756" lon="6.49332">
        <ele>1888.8000488281</ele>
        <time>2021-01-24T08:57:44.000Z</time>
      </trkpt>
      <trkpt lat="45.24754" lon="6.49335">
        <ele>1889.4000244141</ele>
        <time>2021-01-24T08:57:47.000Z</time>
      </trkpt>
      <trkpt lat="45.24753" lon="6.49336">
        <ele>1890.1999511719</ele>
        <time>2021-01-24T08:57:51.000Z</time>
      </trkpt>
      <trkpt lat="45.24752" lon="6.49337">
        <ele>1890.5999755859</ele>
        <time>2021-01-24T08:57:53.000Z</time>
      </trkpt>
      <trkpt lat="45.24754" lon="6.4934">
        <ele>1891.1999511719</ele>
        <time>2021-01-24T08:57:58.000Z</time>
      </trkpt>
      <trkpt lat="45.24754" lon="6.49344">
        <ele>1891.5999755859</ele>
        <time>2021-01-24T08:58:02.000Z</time>
      </trkpt>
      <trkpt lat="45.24754" lon="6.49347">
        <ele>1891.8000488281</ele>
        <time>2021-01-24T08:58:04.000Z</time>
      </trkpt>
      <trkpt lat="45.24755" lon="6.4935">
        <ele>1892</ele>
        <time>2021-01-24T08:58:06.000Z</time>
      </trkpt>
      <trkpt lat="45.24755" lon="6.49353">
        <ele>1892.8000488281</ele>
        <time>2021-01-24T08:58:09.000Z</time>
      </trkpt>
      <trkpt lat="45.24755" lon="6.49355">
        <ele>1893.4000244141</ele>
        <time>2021-01-24T08:58:11.000Z</time>
      </trkpt>
      <trkpt lat="45.24755" lon="6.49357">
        <ele>1894</ele>
        <time>2021-01-24T08:58:13.000Z</time>
      </trkpt>
      <trkpt lat="45.24756" lon="6.49363">
        <ele>1894.8000488281</ele>
        <time>2021-01-24T08:58:18.000Z</time>
      </trkpt>
      <trkpt lat="45.24755" lon="6.49364">
        <ele>1895</ele>
        <time>2021-01-24T08:58:19.000Z</time>
      </trkpt>
      <trkpt lat="45.24755" lon="6.49365">
        <ele>1895.5999755859</ele>
        <time>2021-01-24T08:58:25.000Z</time>
      </trkpt>
      <trkpt lat="45.24755" lon="6.49365">
        <ele>1896</ele>
        <time>2021-01-24T08:58:34.000Z</time>
      </trkpt>
      <trkpt lat="45.24755" lon="6.49365">
        <ele>1896.1999511719</ele>
        <time>2021-01-24T08:58:37.000Z</time>
      </trkpt>
      <trkpt lat="45.24755" lon="6.49365">
        <ele>1895.5999755859</ele>
        <time>2021-01-24T08:58:48.000Z</time>
      </trkpt>
      <trkpt lat="45.24757" lon="6.4937">
        <ele>1896</ele>
        <time>2021-01-24T08:58:55.000Z</time>
      </trkpt>
      <trkpt lat="45.24758" lon="6.49374">
        <ele>1897.4000244141</ele>
        <time>2021-01-24T08:59:00.000Z</time>
      </trkpt>
      <trkpt lat="45.24758" lon="6.49375">
        <ele>1897.4000244141</ele>
        <time>2021-01-24T08:59:01.000Z</time>
      </trkpt>
      <trkpt lat="45.2476" lon="6.4938">
        <ele>1898.4000244141</ele>
        <time>2021-01-24T08:59:05.000Z</time>
      </trkpt>
      <trkpt lat="45.2476" lon="6.49381">
        <ele>1899</ele>
        <time>2021-01-24T08:59:07.000Z</time>
      </trkpt>
      <trkpt lat="45.24761" lon="6.49383">
        <ele>1899.4000244141</ele>
        <time>2021-01-24T08:59:09.000Z</time>
      </trkpt>
      <trkpt lat="45.24761" lon="6.49389">
        <ele>1900.5999755859</ele>
        <time>2021-01-24T08:59:14.000Z</time>
      </trkpt>
      <trkpt lat="45.24762" lon="6.49396">
        <ele>1902</ele>
        <time>2021-01-24T08:59:19.000Z</time>
      </trkpt>
      <trkpt lat="45.24762" lon="6.49398">
        <ele>1902.1999511719</ele>
        <time>2021-01-24T08:59:20.000Z</time>
      </trkpt>
      <trkpt lat="45.24762" lon="6.494">
        <ele>1903.1999511719</ele>
        <time>2021-01-24T08:59:24.000Z</time>
      </trkpt>
      <trkpt lat="45.24762" lon="6.49404">
        <ele>1903.5999755859</ele>
        <time>2021-01-24T08:59:27.000Z</time>
      </trkpt>
      <trkpt lat="45.24762" lon="6.49409">
        <ele>1904.4000244141</ele>
        <time>2021-01-24T08:59:30.000Z</time>
      </trkpt>
      <trkpt lat="45.24761" lon="6.49411">
        <ele>1905.4000244141</ele>
        <time>2021-01-24T08:59:34.000Z</time>
      </trkpt>
      <trkpt lat="45.2476" lon="6.49412">
        <ele>1905.8000488281</ele>
        <time>2021-01-24T08:59:36.000Z</time>
      </trkpt>
      <trkpt lat="45.24759" lon="6.49415">
        <ele>1906.4000244141</ele>
        <time>2021-01-24T08:59:39.000Z</time>
      </trkpt>
      <trkpt lat="45.24757" lon="6.4942">
        <ele>1907.1999511719</ele>
        <time>2021-01-24T08:59:43.000Z</time>
      </trkpt>
      <trkpt lat="45.24756" lon="6.49421">
        <ele>1907.5999755859</ele>
        <time>2021-01-24T08:59:45.000Z</time>
      </trkpt>
      <trkpt lat="45.24754" lon="6.49424">
        <ele>1908.5999755859</ele>
        <time>2021-01-24T08:59:49.000Z</time>
      </trkpt>
      <trkpt lat="45.24753" lon="6.49426">
        <ele>1908.8000488281</ele>
        <time>2021-01-24T08:59:50.000Z</time>
      </trkpt>
      <trkpt lat="45.2475" lon="6.4943">
        <ele>1909.5999755859</ele>
        <time>2021-01-24T08:59:54.000Z</time>
      </trkpt>
      <trkpt lat="45.24749" lon="6.49431">
        <ele>1910</ele>
        <time>2021-01-24T08:59:56.000Z</time>
      </trkpt>
      <trkpt lat="45.24747" lon="6.49433">
        <ele>1910.8000488281</ele>
        <time>2021-01-24T08:59:59.000Z</time>
      </trkpt>
      <trkpt lat="45.24745" lon="6.49437">
        <ele>1911.1999511719</ele>
        <time>2021-01-24T09:00:02.000Z</time>
      </trkpt>
      <trkpt lat="45.24743" lon="6.49439">
        <ele>1911.8000488281</ele>
        <time>2021-01-24T09:00:07.000Z</time>
      </trkpt>
      <trkpt lat="45.24742" lon="6.49441">
        <ele>1912.1999511719</ele>
        <time>2021-01-24T09:00:09.000Z</time>
      </trkpt>
      <trkpt lat="45.24739" lon="6.49444">
        <ele>1912.8000488281</ele>
        <time>2021-01-24T09:00:12.000Z</time>
      </trkpt>
      <trkpt lat="45.24737" lon="6.49446">
        <ele>1913.4000244141</ele>
        <time>2021-01-24T09:00:15.000Z</time>
      </trkpt>
      <trkpt lat="45.24734" lon="6.49449">
        <ele>1914</ele>
        <time>2021-01-24T09:00:19.000Z</time>
      </trkpt>
      <trkpt lat="45.24733" lon="6.4945">
        <ele>1914.4000244141</ele>
        <time>2021-01-24T09:00:21.000Z</time>
      </trkpt>
      <trkpt lat="45.24731" lon="6.49451">
        <ele>1915</ele>
        <time>2021-01-24T09:00:24.000Z</time>
      </trkpt>
      <trkpt lat="45.24729" lon="6.49453">
        <ele>1915.8000488281</ele>
        <time>2021-01-24T09:00:27.000Z</time>
      </trkpt>
      <trkpt lat="45.24727" lon="6.49454">
        <ele>1916.1999511719</ele>
        <time>2021-01-24T09:00:29.000Z</time>
      </trkpt>
      <trkpt lat="45.24722" lon="6.49458">
        <ele>1917.1999511719</ele>
        <time>2021-01-24T09:00:34.000Z</time>
      </trkpt>
      <trkpt lat="45.2472" lon="6.4946">
        <ele>1918.1999511719</ele>
        <time>2021-01-24T09:00:38.000Z</time>
      </trkpt>
      <trkpt lat="45.24718" lon="6.49462">
        <ele>1918.8000488281</ele>
        <time>2021-01-24T09:00:41.000Z</time>
      </trkpt>
      <trkpt lat="45.24715" lon="6.49465">
        <ele>1919.4000244141</ele>
        <time>2021-01-24T09:00:45.000Z</time>
      </trkpt>
      <trkpt lat="45.24713" lon="6.49467">
        <ele>1919.5999755859</ele>
        <time>2021-01-24T09:00:48.000Z</time>
      </trkpt>
      <trkpt lat="45.2471" lon="6.49471">
        <ele>1920.5999755859</ele>
        <time>2021-01-24T09:00:53.000Z</time>
      </trkpt>
      <trkpt lat="45.24709" lon="6.49472">
        <ele>1920.8000488281</ele>
        <time>2021-01-24T09:00:54.000Z</time>
      </trkpt>
      <trkpt lat="45.24705" lon="6.49476">
        <ele>1921.8000488281</ele>
        <time>2021-01-24T09:01:00.000Z</time>
      </trkpt>
      <trkpt lat="45.24704" lon="6.49478">
        <ele>1922.1999511719</ele>
        <time>2021-01-24T09:01:02.000Z</time>
      </trkpt>
      <trkpt lat="45.24701" lon="6.49483">
        <ele>1922.8000488281</ele>
        <time>2021-01-24T09:01:08.000Z</time>
      </trkpt>
      <trkpt lat="45.247" lon="6.49483">
        <ele>1922.8000488281</ele>
        <time>2021-01-24T09:01:09.000Z</time>
      </trkpt>
      <trkpt lat="45.24696" lon="6.49488">
        <ele>1924.1999511719</ele>
        <time>2021-01-24T09:01:15.000Z</time>
      </trkpt>
      <trkpt lat="45.24693" lon="6.49493">
        <ele>1925.4000244141</ele>
        <time>2021-01-24T09:01:21.000Z</time>
      </trkpt>
      <trkpt lat="45.24692" lon="6.49494">
        <ele>1925.5999755859</ele>
        <time>2021-01-24T09:01:22.000Z</time>
      </trkpt>
      <trkpt lat="45.24689" lon="6.49498">
        <ele>1926.4000244141</ele>
        <time>2021-01-24T09:01:28.000Z</time>
      </trkpt>
      <trkpt lat="45.24687" lon="6.49501">
        <ele>1926.8000488281</ele>
        <time>2021-01-24T09:01:30.000Z</time>
      </trkpt>
      <trkpt lat="45.24686" lon="6.49504">
        <ele>1927.4000244141</ele>
        <time>2021-01-24T09:01:33.000Z</time>
      </trkpt>
      <trkpt lat="45.24685" lon="6.49508">
        <ele>1928.1999511719</ele>
        <time>2021-01-24T09:01:38.000Z</time>
      </trkpt>
      <trkpt lat="45.24685" lon="6.49511">
        <ele>1928.4000244141</ele>
        <time>2021-01-24T09:01:40.000Z</time>
      </trkpt>
      <trkpt lat="45.24685" lon="6.49513">
        <ele>1929.4000244141</ele>
        <time>2021-01-24T09:01:46.000Z</time>
      </trkpt>
      <trkpt lat="45.24685" lon="6.49513">
        <ele>1930.8000488281</ele>
        <time>2021-01-24T09:01:51.000Z</time>
      </trkpt>
      <trkpt lat="45.24685" lon="6.49513">
        <ele>1931</ele>
        <time>2021-01-24T09:01:53.000Z</time>
      </trkpt>
      <trkpt lat="45.24685" lon="6.49513">
        <ele>1929.5999755859</ele>
        <time>2021-01-24T09:02:00.000Z</time>
      </trkpt>
      <trkpt lat="45.24685" lon="6.49513">
        <ele>1930</ele>
        <time>2021-01-24T09:02:07.000Z</time>
      </trkpt>
      <trkpt lat="45.24686" lon="6.49513">
        <ele>1930.4000244141</ele>
        <time>2021-01-24T09:02:16.000Z</time>
      </trkpt>
      <trkpt lat="45.24686" lon="6.49514">
        <ele>1930.4000244141</ele>
        <time>2021-01-24T09:02:26.000Z</time>
      </trkpt>
      <trkpt lat="45.24686" lon="6.49514">
        <ele>1930.4000244141</ele>
        <time>2021-01-24T09:02:37.000Z</time>
      </trkpt>
      <trkpt lat="45.24686" lon="6.49514">
        <ele>1930.4000244141</ele>
        <time>2021-01-24T09:02:38.000Z</time>
      </trkpt>
      <trkpt lat="45.24686" lon="6.49514">
        <ele>1929.1999511719</ele>
        <time>2021-01-24T09:02:48.000Z</time>
      </trkpt>
      <trkpt lat="45.24686" lon="6.49513">
        <ele>1929.5999755859</ele>
        <time>2021-01-24T09:03:03.000Z</time>
      </trkpt>
      <trkpt lat="45.24686" lon="6.49513">
        <ele>1929.4000244141</ele>
        <time>2021-01-24T09:03:17.000Z</time>
      </trkpt>
      <trkpt lat="45.24686" lon="6.49513">
        <ele>1929.4000244141</ele>
        <time>2021-01-24T09:03:30.000Z</time>
      </trkpt>
      <trkpt lat="45.24685" lon="6.49516">
        <ele>1929.5999755859</ele>
        <time>2021-01-24T09:03:39.000Z</time>
      </trkpt>
      <trkpt lat="45.24687" lon="6.49517">
        <ele>1929.4000244141</ele>
        <time>2021-01-24T09:03:47.000Z</time>
      </trkpt>
      <trkpt lat="45.24691" lon="6.49522">
        <ele>1930.8000488281</ele>
        <time>2021-01-24T09:03:53.000Z</time>
      </trkpt>
      <trkpt lat="45.24692" lon="6.49523">
        <ele>1931.1999511719</ele>
        <time>2021-01-24T09:03:54.000Z</time>
      </trkpt>
      <trkpt lat="45.24696" lon="6.49523">
        <ele>1932</ele>
        <time>2021-01-24T09:03:58.000Z</time>
      </trkpt>
      <trkpt lat="45.247" lon="6.49524">
        <ele>1932.5999755859</ele>
        <time>2021-01-24T09:04:02.000Z</time>
      </trkpt>
      <trkpt lat="45.24705" lon="6.49523">
        <ele>1933</ele>
        <time>2021-01-24T09:04:05.000Z</time>
      </trkpt>
      <trkpt lat="45.24711" lon="6.49522">
        <ele>1934.1999511719</ele>
        <time>2021-01-24T09:04:11.000Z</time>
      </trkpt>
      <trkpt lat="45.24712" lon="6.49522">
        <ele>1934.5999755859</ele>
        <time>2021-01-24T09:04:12.000Z</time>
      </trkpt>
      <trkpt lat="45.24722" lon="6.49517">
        <ele>1935.1999511719</ele>
        <time>2021-01-24T09:04:21.000Z</time>
      </trkpt>
      <trkpt lat="45.24724" lon="6.49516">
        <ele>1935.4000244141</ele>
        <time>2021-01-24T09:04:23.000Z</time>
      </trkpt>
      <trkpt lat="45.24727" lon="6.49517">
        <ele>1936.5999755859</ele>
        <time>2021-01-24T09:04:27.000Z</time>
      </trkpt>
      <trkpt lat="45.2473" lon="6.49521">
        <ele>1937.4000244141</ele>
        <time>2021-01-24T09:04:30.000Z</time>
      </trkpt>
      <trkpt lat="45.24731" lon="6.49522">
        <ele>1937.5999755859</ele>
        <time>2021-01-24T09:04:31.000Z</time>
      </trkpt>
      <trkpt lat="45.24735" lon="6.49528">
        <ele>1938.8000488281</ele>
        <time>2021-01-24T09:04:36.000Z</time>
      </trkpt>
      <trkpt lat="45.24734" lon="6.49529">
        <ele>1939.1999511719</ele>
        <time>2021-01-24T09:04:37.000Z</time>
      </trkpt>
      <trkpt lat="45.24735" lon="6.49534">
        <ele>1939.8000488281</ele>
        <time>2021-01-24T09:04:40.000Z</time>
      </trkpt>
      <trkpt lat="45.24736" lon="6.49535">
        <ele>1940.8000488281</ele>
        <time>2021-01-24T09:04:44.000Z</time>
      </trkpt>
      <trkpt lat="45.24737" lon="6.49535">
        <ele>1941.1999511719</ele>
        <time>2021-01-24T09:04:45.000Z</time>
      </trkpt>
      <trkpt lat="45.2474" lon="6.49534">
        <ele>1942</ele>
        <time>2021-01-24T09:04:49.000Z</time>
      </trkpt>
      <trkpt lat="45.24746" lon="6.49532">
        <ele>1943.1999511719</ele>
        <time>2021-01-24T09:04:53.000Z</time>
      </trkpt>
      <trkpt lat="45.24747" lon="6.49531">
        <ele>1943.4000244141</ele>
        <time>2021-01-24T09:04:55.000Z</time>
      </trkpt>
      <trkpt lat="45.24748" lon="6.4953">
        <ele>1944.1999511719</ele>
        <time>2021-01-24T09:04:58.000Z</time>
      </trkpt>
      <trkpt lat="45.24751" lon="6.4953">
        <ele>1945.4000244141</ele>
        <time>2021-01-24T09:05:03.000Z</time>
      </trkpt>
      <trkpt lat="45.24752" lon="6.49535">
        <ele>1946.5999755859</ele>
        <time>2021-01-24T09:05:08.000Z</time>
      </trkpt>
      <trkpt lat="45.24753" lon="6.49537">
        <ele>1946.5999755859</ele>
        <time>2021-01-24T09:05:09.000Z</time>
      </trkpt>
      <trkpt lat="45.24753" lon="6.49544">
        <ele>1947.5999755859</ele>
        <time>2021-01-24T09:05:13.000Z</time>
      </trkpt>
      <trkpt lat="45.24753" lon="6.49545">
        <ele>1948</ele>
        <time>2021-01-24T09:05:15.000Z</time>
      </trkpt>
      <trkpt lat="45.24754" lon="6.4955">
        <ele>1948.8000488281</ele>
        <time>2021-01-24T09:05:19.000Z</time>
      </trkpt>
      <trkpt lat="45.24755" lon="6.49554">
        <ele>1949.1999511719</ele>
        <time>2021-01-24T09:05:23.000Z</time>
      </trkpt>
      <trkpt lat="45.24757" lon="6.49556">
        <ele>1950</ele>
        <time>2021-01-24T09:05:25.000Z</time>
      </trkpt>
      <trkpt lat="45.24757" lon="6.49562">
        <ele>1950.5999755859</ele>
        <time>2021-01-24T09:05:30.000Z</time>
      </trkpt>
      <trkpt lat="45.24757" lon="6.49564">
        <ele>1951</ele>
        <time>2021-01-24T09:05:32.000Z</time>
      </trkpt>
      <trkpt lat="45.24759" lon="6.49569">
        <ele>1951.5999755859</ele>
        <time>2021-01-24T09:05:37.000Z</time>
      </trkpt>
      <trkpt lat="45.24758" lon="6.49571">
        <ele>1952.1999511719</ele>
        <time>2021-01-24T09:05:39.000Z</time>
      </trkpt>
      <trkpt lat="45.2476" lon="6.49576">
        <ele>1953.1999511719</ele>
        <time>2021-01-24T09:05:45.000Z</time>
      </trkpt>
      <trkpt lat="45.24762" lon="6.4958">
        <ele>1953.5999755859</ele>
        <time>2021-01-24T09:05:47.000Z</time>
      </trkpt>
      <trkpt lat="45.24763" lon="6.49583">
        <ele>1954.1999511719</ele>
        <time>2021-01-24T09:05:49.000Z</time>
      </trkpt>
      <trkpt lat="45.24765" lon="6.49584">
        <ele>1955.1999511719</ele>
        <time>2021-01-24T09:05:55.000Z</time>
      </trkpt>
      <trkpt lat="45.24765" lon="6.49585">
        <ele>1955.4000244141</ele>
        <time>2021-01-24T09:05:56.000Z</time>
      </trkpt>
      <trkpt lat="45.24765" lon="6.4959">
        <ele>1956.5999755859</ele>
        <time>2021-01-24T09:06:01.000Z</time>
      </trkpt>
      <trkpt lat="45.24765" lon="6.49593">
        <ele>1957.1999511719</ele>
        <time>2021-01-24T09:06:03.000Z</time>
      </trkpt>
      <trkpt lat="45.24766" lon="6.49595">
        <ele>1957.8000488281</ele>
        <time>2021-01-24T09:06:06.000Z</time>
      </trkpt>
      <trkpt lat="45.24768" lon="6.49599">
        <ele>1958.1999511719</ele>
        <time>2021-01-24T09:06:09.000Z</time>
      </trkpt>
      <trkpt lat="45.24769" lon="6.49601">
        <ele>1959.5999755859</ele>
        <time>2021-01-24T09:06:12.000Z</time>
      </trkpt>
      <trkpt lat="45.24771" lon="6.49602">
        <ele>1960.5999755859</ele>
        <time>2021-01-24T09:06:16.000Z</time>
      </trkpt>
      <trkpt lat="45.24772" lon="6.49599">
        <ele>1961.8000488281</ele>
        <time>2021-01-24T09:06:21.000Z</time>
      </trkpt>
      <trkpt lat="45.24773" lon="6.49597">
        <ele>1961.8000488281</ele>
        <time>2021-01-24T09:06:23.000Z</time>
      </trkpt>
      <trkpt lat="45.24777" lon="6.49591">
        <ele>1962.8000488281</ele>
        <time>2021-01-24T09:06:29.000Z</time>
      </trkpt>
      <trkpt lat="45.24777" lon="6.4959">
        <ele>1962.8000488281</ele>
        <time>2021-01-24T09:06:30.000Z</time>
      </trkpt>
      <trkpt lat="45.24779" lon="6.49585">
        <ele>1963.8000488281</ele>
        <time>2021-01-24T09:06:36.000Z</time>
      </trkpt>
      <trkpt lat="45.2478" lon="6.49584">
        <ele>1964</ele>
        <time>2021-01-24T09:06:37.000Z</time>
      </trkpt>
      <trkpt lat="45.24784" lon="6.49579">
        <ele>1965</ele>
        <time>2021-01-24T09:06:43.000Z</time>
      </trkpt>
      <trkpt lat="45.24784" lon="6.49579">
        <ele>1965.1999511719</ele>
        <time>2021-01-24T09:06:44.000Z</time>
      </trkpt>
      <trkpt lat="45.24787" lon="6.49578">
        <ele>1966</ele>
        <time>2021-01-24T09:06:48.000Z</time>
      </trkpt>
      <trkpt lat="45.24788" lon="6.49577">
        <ele>1966.5999755859</ele>
        <time>2021-01-24T09:06:52.000Z</time>
      </trkpt>
      <trkpt lat="45.2479" lon="6.49577">
        <ele>1967</ele>
        <time>2021-01-24T09:06:56.000Z</time>
      </trkpt>
      <trkpt lat="45.24794" lon="6.49577">
        <ele>1968.5999755859</ele>
        <time>2021-01-24T09:07:00.000Z</time>
      </trkpt>
      <trkpt lat="45.24797" lon="6.49578">
        <ele>1969.1999511719</ele>
        <time>2021-01-24T09:07:03.000Z</time>
      </trkpt>
      <trkpt lat="45.248" lon="6.49578">
        <ele>1969.8000488281</ele>
        <time>2021-01-24T09:07:06.000Z</time>
      </trkpt>
      <trkpt lat="45.24804" lon="6.4958">
        <ele>1971</ele>
        <time>2021-01-24T09:07:12.000Z</time>
      </trkpt>
      <trkpt lat="45.24807" lon="6.49582">
        <ele>1972</ele>
        <time>2021-01-24T09:07:18.000Z</time>
      </trkpt>
      <trkpt lat="45.24807" lon="6.49583">
        <ele>1972.8000488281</ele>
        <time>2021-01-24T09:07:22.000Z</time>
      </trkpt>
      <trkpt lat="45.24808" lon="6.49585">
        <ele>1973.1999511719</ele>
        <time>2021-01-24T09:07:24.000Z</time>
      </trkpt>
      <trkpt lat="45.24807" lon="6.4959">
        <ele>1973.8000488281</ele>
        <time>2021-01-24T09:07:28.000Z</time>
      </trkpt>
      <trkpt lat="45.24808" lon="6.49597">
        <ele>1974.1999511719</ele>
        <time>2021-01-24T09:07:35.000Z</time>
      </trkpt>
      <trkpt lat="45.24808" lon="6.49599">
        <ele>1974.1999511719</ele>
        <time>2021-01-24T09:07:36.000Z</time>
      </trkpt>
      <trkpt lat="45.24809" lon="6.49605">
        <ele>1975</ele>
        <time>2021-01-24T09:07:42.000Z</time>
      </trkpt>
      <trkpt lat="45.24809" lon="6.49607">
        <ele>1975.4000244141</ele>
        <time>2021-01-24T09:07:44.000Z</time>
      </trkpt>
      <trkpt lat="45.24808" lon="6.49611">
        <ele>1976.4000244141</ele>
        <time>2021-01-24T09:07:49.000Z</time>
      </trkpt>
      <trkpt lat="45.24806" lon="6.49618">
        <ele>1977.5999755859</ele>
        <time>2021-01-24T09:07:54.000Z</time>
      </trkpt>
      <trkpt lat="45.24806" lon="6.49619">
        <ele>1977.8000488281</ele>
        <time>2021-01-24T09:07:56.000Z</time>
      </trkpt>
      <trkpt lat="45.24806" lon="6.49625">
        <ele>1978.8000488281</ele>
        <time>2021-01-24T09:08:01.000Z</time>
      </trkpt>
      <trkpt lat="45.24806" lon="6.49625">
        <ele>1979</ele>
        <time>2021-01-24T09:08:02.000Z</time>
      </trkpt>
      <trkpt lat="45.24807" lon="6.49626">
        <ele>1979.8000488281</ele>
        <time>2021-01-24T09:08:08.000Z</time>
      </trkpt>
      <trkpt lat="45.24807" lon="6.49628">
        <ele>1980</ele>
        <time>2021-01-24T09:08:11.000Z</time>
      </trkpt>
      <trkpt lat="45.24807" lon="6.49628">
        <ele>1981</ele>
        <time>2021-01-24T09:08:14.000Z</time>
      </trkpt>
      <trkpt lat="45.24807" lon="6.49628">
        <ele>1981.5999755859</ele>
        <time>2021-01-24T09:08:24.000Z</time>
      </trkpt>
      <trkpt lat="45.24807" lon="6.49628">
        <ele>1981.1999511719</ele>
        <time>2021-01-24T09:08:42.000Z</time>
      </trkpt>
      <trkpt lat="45.24806" lon="6.49633">
        <ele>1981</ele>
        <time>2021-01-24T09:08:50.000Z</time>
      </trkpt>
      <trkpt lat="45.24806" lon="6.49638">
        <ele>1982</ele>
        <time>2021-01-24T09:08:54.000Z</time>
      </trkpt>
      <trkpt lat="45.24806" lon="6.49642">
        <ele>1983</ele>
        <time>2021-01-24T09:08:57.000Z</time>
      </trkpt>
      <trkpt lat="45.24806" lon="6.49642">
        <ele>1983.1999511719</ele>
        <time>2021-01-24T09:08:58.000Z</time>
      </trkpt>
      <trkpt lat="45.2481" lon="6.49643">
        <ele>1984.4000244141</ele>
        <time>2021-01-24T09:09:03.000Z</time>
      </trkpt>
      <trkpt lat="45.24813" lon="6.49645">
        <ele>1985.1999511719</ele>
        <time>2021-01-24T09:09:06.000Z</time>
      </trkpt>
      <trkpt lat="45.24815" lon="6.49645">
        <ele>1985.5999755859</ele>
        <time>2021-01-24T09:09:08.000Z</time>
      </trkpt>
      <trkpt lat="45.24818" lon="6.49648">
        <ele>1987</ele>
        <time>2021-01-24T09:09:12.000Z</time>
      </trkpt>
      <trkpt lat="45.2482" lon="6.49653">
        <ele>1988</ele>
        <time>2021-01-24T09:09:17.000Z</time>
      </trkpt>
      <trkpt lat="45.24821" lon="6.49654">
        <ele>1988.5999755859</ele>
        <time>2021-01-24T09:09:19.000Z</time>
      </trkpt>
      <trkpt lat="45.24823" lon="6.49655">
        <ele>1989.4000244141</ele>
        <time>2021-01-24T09:09:21.000Z</time>
      </trkpt>
      <trkpt lat="45.24825" lon="6.49655">
        <ele>1990.5999755859</ele>
        <time>2021-01-24T09:09:24.000Z</time>
      </trkpt>
      <trkpt lat="45.24826" lon="6.49655">
        <ele>1990.8000488281</ele>
        <time>2021-01-24T09:09:26.000Z</time>
      </trkpt>
      <trkpt lat="45.24827" lon="6.49656">
        <ele>1991.8000488281</ele>
        <time>2021-01-24T09:09:30.000Z</time>
      </trkpt>
      <trkpt lat="45.24829" lon="6.49655">
        <ele>1992.4000244141</ele>
        <time>2021-01-24T09:09:36.000Z</time>
      </trkpt>
      <trkpt lat="45.24829" lon="6.49655">
        <ele>1992.8000488281</ele>
        <time>2021-01-24T09:09:38.000Z</time>
      </trkpt>
      <trkpt lat="45.24829" lon="6.49655">
        <ele>1992.8000488281</ele>
        <time>2021-01-24T09:09:47.000Z</time>
      </trkpt>
      <trkpt lat="45.24829" lon="6.49655">
        <ele>1993</ele>
        <time>2021-01-24T09:09:54.000Z</time>
      </trkpt>
      <trkpt lat="45.24831" lon="6.49654">
        <ele>1992.5999755859</ele>
        <time>2021-01-24T09:10:08.000Z</time>
      </trkpt>
      <trkpt lat="45.24836" lon="6.49653">
        <ele>1993.8000488281</ele>
        <time>2021-01-24T09:10:12.000Z</time>
      </trkpt>
      <trkpt lat="45.24842" lon="6.49651">
        <ele>1995</ele>
        <time>2021-01-24T09:10:18.000Z</time>
      </trkpt>
      <trkpt lat="45.24845" lon="6.49649">
        <ele>1996.1999511719</ele>
        <time>2021-01-24T09:10:23.000Z</time>
      </trkpt>
      <trkpt lat="45.24847" lon="6.49647">
        <ele>1997.1999511719</ele>
        <time>2021-01-24T09:10:27.000Z</time>
      </trkpt>
      <trkpt lat="45.24848" lon="6.49646">
        <ele>1997.1999511719</ele>
        <time>2021-01-24T09:10:28.000Z</time>
      </trkpt>
      <trkpt lat="45.24853" lon="6.49645">
        <ele>1998.1999511719</ele>
        <time>2021-01-24T09:10:33.000Z</time>
      </trkpt>
      <trkpt lat="45.24856" lon="6.49645">
        <ele>1999.1999511719</ele>
        <time>2021-01-24T09:10:38.000Z</time>
      </trkpt>
      <trkpt lat="45.24857" lon="6.49645">
        <ele>1999.5999755859</ele>
        <time>2021-01-24T09:10:39.000Z</time>
      </trkpt>
      <trkpt lat="45.24861" lon="6.49646">
        <ele>2000.8000488281</ele>
        <time>2021-01-24T09:10:44.000Z</time>
      </trkpt>
      <trkpt lat="45.24862" lon="6.49646">
        <ele>2001.1999511719</ele>
        <time>2021-01-24T09:10:46.000Z</time>
      </trkpt>
      <trkpt lat="45.24865" lon="6.49646">
        <ele>2002</ele>
        <time>2021-01-24T09:10:49.000Z</time>
      </trkpt>
      <trkpt lat="45.2487" lon="6.49647">
        <ele>2003</ele>
        <time>2021-01-24T09:10:55.000Z</time>
      </trkpt>
      <trkpt lat="45.24871" lon="6.49648">
        <ele>2003.1999511719</ele>
        <time>2021-01-24T09:10:56.000Z</time>
      </trkpt>
      <trkpt lat="45.24874" lon="6.49648">
        <ele>2004.1999511719</ele>
        <time>2021-01-24T09:11:00.000Z</time>
      </trkpt>
      <trkpt lat="45.24877" lon="6.4965">
        <ele>2005.4000244141</ele>
        <time>2021-01-24T09:11:05.000Z</time>
      </trkpt>
      <trkpt lat="45.24884" lon="6.4965">
        <ele>2006.4000244141</ele>
        <time>2021-01-24T09:11:13.000Z</time>
      </trkpt>
      <trkpt lat="45.24886" lon="6.4965">
        <ele>2006.8000488281</ele>
        <time>2021-01-24T09:11:15.000Z</time>
      </trkpt>
      <trkpt lat="45.24887" lon="6.4965">
        <ele>2007.5999755859</ele>
        <time>2021-01-24T09:11:17.000Z</time>
      </trkpt>
      <trkpt lat="45.24892" lon="6.49652">
        <ele>2008.8000488281</ele>
        <time>2021-01-24T09:11:22.000Z</time>
      </trkpt>
      <trkpt lat="45.24893" lon="6.49653">
        <ele>2009.1999511719</ele>
        <time>2021-01-24T09:11:24.000Z</time>
      </trkpt>
      <trkpt lat="45.24897" lon="6.49658">
        <ele>2009.8000488281</ele>
        <time>2021-01-24T09:11:29.000Z</time>
      </trkpt>
      <trkpt lat="45.24898" lon="6.49661">
        <ele>2010.5999755859</ele>
        <time>2021-01-24T09:11:32.000Z</time>
      </trkpt>
      <trkpt lat="45.249" lon="6.49665">
        <ele>2011</ele>
        <time>2021-01-24T09:11:36.000Z</time>
      </trkpt>
      <trkpt lat="45.24902" lon="6.49668">
        <ele>2012</ele>
        <time>2021-01-24T09:11:39.000Z</time>
      </trkpt>
      <trkpt lat="45.24903" lon="6.49668">
        <ele>2012.1999511719</ele>
        <time>2021-01-24T09:11:40.000Z</time>
      </trkpt>
      <trkpt lat="45.2491" lon="6.49669">
        <ele>2013</ele>
        <time>2021-01-24T09:11:47.000Z</time>
      </trkpt>
      <trkpt lat="45.24914" lon="6.49671">
        <ele>2014.1999511719</ele>
        <time>2021-01-24T09:11:51.000Z</time>
      </trkpt>
      <trkpt lat="45.24915" lon="6.49672">
        <ele>2014.4000244141</ele>
        <time>2021-01-24T09:11:54.000Z</time>
      </trkpt>
      <trkpt lat="45.24918" lon="6.49672">
        <ele>2015.1999511719</ele>
        <time>2021-01-24T09:11:58.000Z</time>
      </trkpt>
      <trkpt lat="45.24921" lon="6.49675">
        <ele>2015.4000244141</ele>
        <time>2021-01-24T09:12:02.000Z</time>
      </trkpt>
      <trkpt lat="45.24928" lon="6.49677">
        <ele>2016.1999511719</ele>
        <time>2021-01-24T09:12:09.000Z</time>
      </trkpt>
      <trkpt lat="45.2493" lon="6.49676">
        <ele>2016.5999755859</ele>
        <time>2021-01-24T09:12:11.000Z</time>
      </trkpt>
      <trkpt lat="45.24932" lon="6.49676">
        <ele>2017.1999511719</ele>
        <time>2021-01-24T09:12:15.000Z</time>
      </trkpt>
      <trkpt lat="45.24936" lon="6.49676">
        <ele>2018.4000244141</ele>
        <time>2021-01-24T09:12:19.000Z</time>
      </trkpt>
      <trkpt lat="45.24937" lon="6.49676">
        <ele>2018.8000488281</ele>
        <time>2021-01-24T09:12:21.000Z</time>
      </trkpt>
      <trkpt lat="45.2494" lon="6.49676">
        <ele>2019.4000244141</ele>
        <time>2021-01-24T09:12:24.000Z</time>
      </trkpt>
      <trkpt lat="45.24942" lon="6.4968">
        <ele>2020.5999755859</ele>
        <time>2021-01-24T09:12:28.000Z</time>
      </trkpt>
      <trkpt lat="45.24943" lon="6.49684">
        <ele>2021.5999755859</ele>
        <time>2021-01-24T09:12:31.000Z</time>
      </trkpt>
      <trkpt lat="45.24945" lon="6.49685">
        <ele>2022.1999511719</ele>
        <time>2021-01-24T09:12:34.000Z</time>
      </trkpt>
      <trkpt lat="45.24947" lon="6.49686">
        <ele>2022.8000488281</ele>
        <time>2021-01-24T09:12:37.000Z</time>
      </trkpt>
      <trkpt lat="45.24949" lon="6.49687">
        <ele>2024</ele>
        <time>2021-01-24T09:12:41.000Z</time>
      </trkpt>
      <trkpt lat="45.2495" lon="6.49686">
        <ele>2024.4000244141</ele>
        <time>2021-01-24T09:12:44.000Z</time>
      </trkpt>
      <trkpt lat="45.24952" lon="6.49685">
        <ele>2025</ele>
        <time>2021-01-24T09:12:47.000Z</time>
      </trkpt>
      <trkpt lat="45.24954" lon="6.49685">
        <ele>2026.1999511719</ele>
        <time>2021-01-24T09:12:51.000Z</time>
      </trkpt>
      <trkpt lat="45.24957" lon="6.49685">
        <ele>2027.1999511719</ele>
        <time>2021-01-24T09:12:55.000Z</time>
      </trkpt>
      <trkpt lat="45.24958" lon="6.49685">
        <ele>2027.1999511719</ele>
        <time>2021-01-24T09:12:56.000Z</time>
      </trkpt>
      <trkpt lat="45.24961" lon="6.49683">
        <ele>2028.5999755859</ele>
        <time>2021-01-24T09:13:01.000Z</time>
      </trkpt>
      <trkpt lat="45.24964" lon="6.49684">
        <ele>2029.8000488281</ele>
        <time>2021-01-24T09:13:06.000Z</time>
      </trkpt>
      <trkpt lat="45.24964" lon="6.49684">
        <ele>2030</ele>
        <time>2021-01-24T09:13:07.000Z</time>
      </trkpt>
      <trkpt lat="45.24966" lon="6.49684">
        <ele>2031</ele>
        <time>2021-01-24T09:13:12.000Z</time>
      </trkpt>
      <trkpt lat="45.24966" lon="6.49683">
        <ele>2031.5999755859</ele>
        <time>2021-01-24T09:13:19.000Z</time>
      </trkpt>
      <trkpt lat="45.24971" lon="6.49683">
        <ele>2032</ele>
        <time>2021-01-24T09:13:27.000Z</time>
      </trkpt>
      <trkpt lat="45.24976" lon="6.49682">
        <ele>2033.1999511719</ele>
        <time>2021-01-24T09:13:32.000Z</time>
      </trkpt>
      <trkpt lat="45.24977" lon="6.49681">
        <ele>2034.4000244141</ele>
        <time>2021-01-24T09:13:36.000Z</time>
      </trkpt>
      <trkpt lat="45.24977" lon="6.49681">
        <ele>2035.4000244141</ele>
        <time>2021-01-24T09:13:39.000Z</time>
      </trkpt>
      <trkpt lat="45.24984" lon="6.49681">
        <ele>2036</ele>
        <time>2021-01-24T09:13:48.000Z</time>
      </trkpt>
      <trkpt lat="45.24984" lon="6.49681">
        <ele>2036.4000244141</ele>
        <time>2021-01-24T09:13:49.000Z</time>
      </trkpt>
      <trkpt lat="45.24988" lon="6.4968">
        <ele>2037.5999755859</ele>
        <time>2021-01-24T09:13:55.000Z</time>
      </trkpt>
      <trkpt lat="45.24989" lon="6.4968">
        <ele>2038</ele>
        <time>2021-01-24T09:13:57.000Z</time>
      </trkpt>
      <trkpt lat="45.2499" lon="6.49678">
        <ele>2038.8000488281</ele>
        <time>2021-01-24T09:14:00.000Z</time>
      </trkpt>
      <trkpt lat="45.24994" lon="6.49679">
        <ele>2039.8000488281</ele>
        <time>2021-01-24T09:14:05.000Z</time>
      </trkpt>
      <trkpt lat="45.24994" lon="6.49678">
        <ele>2040</ele>
        <time>2021-01-24T09:14:06.000Z</time>
      </trkpt>
      <trkpt lat="45.25" lon="6.49676">
        <ele>2041</ele>
        <time>2021-01-24T09:14:13.000Z</time>
      </trkpt>
      <trkpt lat="45.25001" lon="6.49676">
        <ele>2041.1999511719</ele>
        <time>2021-01-24T09:14:16.000Z</time>
      </trkpt>
      <trkpt lat="45.25003" lon="6.49675">
        <ele>2042</ele>
        <time>2021-01-24T09:14:19.000Z</time>
      </trkpt>
      <trkpt lat="45.25005" lon="6.49675">
        <ele>2043</ele>
        <time>2021-01-24T09:14:22.000Z</time>
      </trkpt>
      <trkpt lat="45.25007" lon="6.49675">
        <ele>2044</ele>
        <time>2021-01-24T09:14:26.000Z</time>
      </trkpt>
      <trkpt lat="45.25007" lon="6.49675">
        <ele>2044.1999511719</ele>
        <time>2021-01-24T09:14:27.000Z</time>
      </trkpt>
      <trkpt lat="45.2501" lon="6.49675">
        <ele>2045.4000244141</ele>
        <time>2021-01-24T09:14:32.000Z</time>
      </trkpt>
      <trkpt lat="45.25015" lon="6.49674">
        <ele>2046.5999755859</ele>
        <time>2021-01-24T09:14:37.000Z</time>
      </trkpt>
      <trkpt lat="45.25016" lon="6.49674">
        <ele>2046.8000488281</ele>
        <time>2021-01-24T09:14:38.000Z</time>
      </trkpt>
      <trkpt lat="45.25022" lon="6.49675">
        <ele>2047.8000488281</ele>
        <time>2021-01-24T09:14:44.000Z</time>
      </trkpt>
      <trkpt lat="45.25024" lon="6.49675">
        <ele>2048.3999023438</ele>
        <time>2021-01-24T09:14:46.000Z</time>
      </trkpt>
      <trkpt lat="45.25025" lon="6.49674">
        <ele>2049</ele>
        <time>2021-01-24T09:14:49.000Z</time>
      </trkpt>
      <trkpt lat="45.25028" lon="6.49674">
        <ele>2050</ele>
        <time>2021-01-24T09:14:54.000Z</time>
      </trkpt>
      <trkpt lat="45.25029" lon="6.49673">
        <ele>2050.3999023438</ele>
        <time>2021-01-24T09:14:55.000Z</time>
      </trkpt>
      <trkpt lat="45.2503" lon="6.49672">
        <ele>2051.1999511719</ele>
        <time>2021-01-24T09:14:59.000Z</time>
      </trkpt>
      <trkpt lat="45.25031" lon="6.49671">
        <ele>2052.1999511719</ele>
        <time>2021-01-24T09:15:03.000Z</time>
      </trkpt>
      <trkpt lat="45.25032" lon="6.49671">
        <ele>2052.6000976562</ele>
        <time>2021-01-24T09:15:04.000Z</time>
      </trkpt>
      <trkpt lat="45.25036" lon="6.49671">
        <ele>2053.3999023438</ele>
        <time>2021-01-24T09:15:08.000Z</time>
      </trkpt>
      <trkpt lat="45.25041" lon="6.49673">
        <ele>2054.6000976562</ele>
        <time>2021-01-24T09:15:13.000Z</time>
      </trkpt>
      <trkpt lat="45.25041" lon="6.49673">
        <ele>2054.8000488281</ele>
        <time>2021-01-24T09:15:14.000Z</time>
      </trkpt>
      <trkpt lat="45.25043" lon="6.49673">
        <ele>2055.6000976562</ele>
        <time>2021-01-24T09:15:17.000Z</time>
      </trkpt>
      <trkpt lat="45.25048" lon="6.49673">
        <ele>2056.6000976562</ele>
        <time>2021-01-24T09:15:22.000Z</time>
      </trkpt>
      <trkpt lat="45.25049" lon="6.49673">
        <ele>2056.8000488281</ele>
        <time>2021-01-24T09:15:23.000Z</time>
      </trkpt>
      <trkpt lat="45.25052" lon="6.49672">
        <ele>2058</ele>
        <time>2021-01-24T09:15:31.000Z</time>
      </trkpt>
      <trkpt lat="45.25053" lon="6.49672">
        <ele>2058.1999511719</ele>
        <time>2021-01-24T09:15:32.000Z</time>
      </trkpt>
      <trkpt lat="45.25054" lon="6.4967">
        <ele>2059</ele>
        <time>2021-01-24T09:15:36.000Z</time>
      </trkpt>
      <trkpt lat="45.25057" lon="6.49669">
        <ele>2060.1999511719</ele>
        <time>2021-01-24T09:15:41.000Z</time>
      </trkpt>
      <trkpt lat="45.25059" lon="6.4967">
        <ele>2060.8000488281</ele>
        <time>2021-01-24T09:15:43.000Z</time>
      </trkpt>
      <trkpt lat="45.25059" lon="6.4967">
        <ele>2061.3999023438</ele>
        <time>2021-01-24T09:15:45.000Z</time>
      </trkpt>
      <trkpt lat="45.25064" lon="6.49668">
        <ele>2062.6000976562</ele>
        <time>2021-01-24T09:15:51.000Z</time>
      </trkpt>
      <trkpt lat="45.25065" lon="6.49667">
        <ele>2062.8000488281</ele>
        <time>2021-01-24T09:15:52.000Z</time>
      </trkpt>
      <trkpt lat="45.25066" lon="6.49665">
        <ele>2063.6000976562</ele>
        <time>2021-01-24T09:15:56.000Z</time>
      </trkpt>
      <trkpt lat="45.25067" lon="6.49663">
        <ele>2064.1999511719</ele>
        <time>2021-01-24T09:15:58.000Z</time>
      </trkpt>
      <trkpt lat="45.25067" lon="6.49661">
        <ele>2064.8000488281</ele>
        <time>2021-01-24T09:16:01.000Z</time>
      </trkpt>
      <trkpt lat="45.25067" lon="6.4966">
        <ele>2065.6000976562</ele>
        <time>2021-01-24T09:16:05.000Z</time>
      </trkpt>
      <trkpt lat="45.2507" lon="6.4966">
        <ele>2066</ele>
        <time>2021-01-24T09:16:08.000Z</time>
      </trkpt>
      <trkpt lat="45.25073" lon="6.4966">
        <ele>2067</ele>
        <time>2021-01-24T09:16:12.000Z</time>
      </trkpt>
      <trkpt lat="45.25074" lon="6.4966">
        <ele>2067.8000488281</ele>
        <time>2021-01-24T09:16:14.000Z</time>
      </trkpt>
      <trkpt lat="45.25075" lon="6.4966">
        <ele>2068</ele>
        <time>2021-01-24T09:16:15.000Z</time>
      </trkpt>
      <trkpt lat="45.25075" lon="6.4966">
        <ele>2069</ele>
        <time>2021-01-24T09:16:24.000Z</time>
      </trkpt>
      <trkpt lat="45.25075" lon="6.4966">
        <ele>2069</ele>
        <time>2021-01-24T09:16:27.000Z</time>
      </trkpt>
      <trkpt lat="45.25075" lon="6.4966">
        <ele>2069</ele>
        <time>2021-01-24T09:16:41.000Z</time>
      </trkpt>
      <trkpt lat="45.25075" lon="6.4966">
        <ele>2068.8000488281</ele>
        <time>2021-01-24T09:16:58.000Z</time>
      </trkpt>
      <trkpt lat="45.25075" lon="6.4966">
        <ele>2069.3999023438</ele>
        <time>2021-01-24T09:17:09.000Z</time>
      </trkpt>
      <trkpt lat="45.25075" lon="6.4966">
        <ele>2068.6000976562</ele>
        <time>2021-01-24T09:17:19.000Z</time>
      </trkpt>
      <trkpt lat="45.25075" lon="6.4966">
        <ele>2069.3999023438</ele>
        <time>2021-01-24T09:17:31.000Z</time>
      </trkpt>
      <trkpt lat="45.25079" lon="6.49659">
        <ele>2069</ele>
        <time>2021-01-24T09:17:42.000Z</time>
      </trkpt>
      <trkpt lat="45.2508" lon="6.49658">
        <ele>2069.1999511719</ele>
        <time>2021-01-24T09:17:51.000Z</time>
      </trkpt>
      <trkpt lat="45.2508" lon="6.49658">
        <ele>2069.1999511719</ele>
        <time>2021-01-24T09:17:56.000Z</time>
      </trkpt>
      <trkpt lat="45.2508" lon="6.49658">
        <ele>2069.6000976562</ele>
        <time>2021-01-24T09:18:07.000Z</time>
      </trkpt>
      <trkpt lat="45.2508" lon="6.49658">
        <ele>2069.6000976562</ele>
        <time>2021-01-24T09:18:22.000Z</time>
      </trkpt>
      <trkpt lat="45.2508" lon="6.49658">
        <ele>2069.3999023438</ele>
        <time>2021-01-24T09:18:37.000Z</time>
      </trkpt>
      <trkpt lat="45.2508" lon="6.49658">
        <ele>2069.6000976562</ele>
        <time>2021-01-24T09:18:57.000Z</time>
      </trkpt>
      <trkpt lat="45.2508" lon="6.49658">
        <ele>2070.1999511719</ele>
        <time>2021-01-24T09:19:05.000Z</time>
      </trkpt>
      <trkpt lat="45.25081" lon="6.49658">
        <ele>2070.3999023438</ele>
        <time>2021-01-24T09:19:07.000Z</time>
      </trkpt>
      <trkpt lat="45.25087" lon="6.49656">
        <ele>2070.8000488281</ele>
        <time>2021-01-24T09:19:16.000Z</time>
      </trkpt>
      <trkpt lat="45.25088" lon="6.49655">
        <ele>2071.1999511719</ele>
        <time>2021-01-24T09:19:18.000Z</time>
      </trkpt>
      <trkpt lat="45.25091" lon="6.49654">
        <ele>2072.1999511719</ele>
        <time>2021-01-24T09:19:22.000Z</time>
      </trkpt>
      <trkpt lat="45.25092" lon="6.49653">
        <ele>2072.1999511719</ele>
        <time>2021-01-24T09:19:23.000Z</time>
      </trkpt>
      <trkpt lat="45.25096" lon="6.49653">
        <ele>2073</ele>
        <time>2021-01-24T09:19:26.000Z</time>
      </trkpt>
      <trkpt lat="45.25099" lon="6.49653">
        <ele>2073.3999023438</ele>
        <time>2021-01-24T09:19:29.000Z</time>
      </trkpt>
      <trkpt lat="45.25104" lon="6.49651">
        <ele>2074.3999023438</ele>
        <time>2021-01-24T09:19:35.000Z</time>
      </trkpt>
      <trkpt lat="45.25105" lon="6.4965">
        <ele>2074.8000488281</ele>
        <time>2021-01-24T09:19:37.000Z</time>
      </trkpt>
      <trkpt lat="45.25106" lon="6.49649">
        <ele>2075.3999023438</ele>
        <time>2021-01-24T09:19:39.000Z</time>
      </trkpt>
      <trkpt lat="45.2511" lon="6.49648">
        <ele>2076.6000976562</ele>
        <time>2021-01-24T09:19:44.000Z</time>
      </trkpt>
      <trkpt lat="45.25111" lon="6.49648">
        <ele>2076.8000488281</ele>
        <time>2021-01-24T09:19:45.000Z</time>
      </trkpt>
      <trkpt lat="45.25115" lon="6.49648">
        <ele>2077.6000976562</ele>
        <time>2021-01-24T09:19:48.000Z</time>
      </trkpt>
      <trkpt lat="45.25121" lon="6.49649">
        <ele>2078.8000488281</ele>
        <time>2021-01-24T09:19:55.000Z</time>
      </trkpt>
      <trkpt lat="45.25123" lon="6.49649">
        <ele>2080</ele>
        <time>2021-01-24T09:19:59.000Z</time>
      </trkpt>
      <trkpt lat="45.25128" lon="6.4965">
        <ele>2081.1999511719</ele>
        <time>2021-01-24T09:20:05.000Z</time>
      </trkpt>
      <trkpt lat="45.25128" lon="6.4965">
        <ele>2081.3999023438</ele>
        <time>2021-01-24T09:20:06.000Z</time>
      </trkpt>
      <trkpt lat="45.25129" lon="6.4965">
        <ele>2082.1999511719</ele>
        <time>2021-01-24T09:20:09.000Z</time>
      </trkpt>
      <trkpt lat="45.25131" lon="6.49649">
        <ele>2083.1999511719</ele>
        <time>2021-01-24T09:20:13.000Z</time>
      </trkpt>
      <trkpt lat="45.25133" lon="6.49649">
        <ele>2084</ele>
        <time>2021-01-24T09:20:17.000Z</time>
      </trkpt>
      <trkpt lat="45.25134" lon="6.49648">
        <ele>2084.1999511719</ele>
        <time>2021-01-24T09:20:18.000Z</time>
      </trkpt>
      <trkpt lat="45.25136" lon="6.49646">
        <ele>2085.6000976562</ele>
        <time>2021-01-24T09:20:22.000Z</time>
      </trkpt>
      <trkpt lat="45.25137" lon="6.49645">
        <ele>2086.1999511719</ele>
        <time>2021-01-24T09:20:24.000Z</time>
      </trkpt>
      <trkpt lat="45.25139" lon="6.49644">
        <ele>2086.6000976562</ele>
        <time>2021-01-24T09:20:27.000Z</time>
      </trkpt>
      <trkpt lat="45.25139" lon="6.49641">
        <ele>2087.8000488281</ele>
        <time>2021-01-24T09:20:30.000Z</time>
      </trkpt>
      <trkpt lat="45.25139" lon="6.49639">
        <ele>2088</ele>
        <time>2021-01-24T09:20:31.000Z</time>
      </trkpt>
      <trkpt lat="45.25138" lon="6.49637">
        <ele>2088.8000488281</ele>
        <time>2021-01-24T09:20:34.000Z</time>
      </trkpt>
      <trkpt lat="45.2514" lon="6.49636">
        <ele>2090</ele>
        <time>2021-01-24T09:20:38.000Z</time>
      </trkpt>
      <trkpt lat="45.25145" lon="6.49631">
        <ele>2090.8000488281</ele>
        <time>2021-01-24T09:20:47.000Z</time>
      </trkpt>
      <trkpt lat="45.25146" lon="6.4963">
        <ele>2091</ele>
        <time>2021-01-24T09:20:48.000Z</time>
      </trkpt>
      <trkpt lat="45.25149" lon="6.4963">
        <ele>2092.1999511719</ele>
        <time>2021-01-24T09:20:52.000Z</time>
      </trkpt>
      <trkpt lat="45.2515" lon="6.49629">
        <ele>2092.6000976562</ele>
        <time>2021-01-24T09:20:54.000Z</time>
      </trkpt>
      <trkpt lat="45.25151" lon="6.4963">
        <ele>2093.1999511719</ele>
        <time>2021-01-24T09:20:57.000Z</time>
      </trkpt>
      <trkpt lat="45.2515" lon="6.49629">
        <ele>2094.3999023438</ele>
        <time>2021-01-24T09:21:03.000Z</time>
      </trkpt>
      <trkpt lat="45.25151" lon="6.49628">
        <ele>2094.6000976562</ele>
        <time>2021-01-24T09:21:04.000Z</time>
      </trkpt>
      <trkpt lat="45.25153" lon="6.49628">
        <ele>2095.3999023438</ele>
        <time>2021-01-24T09:21:07.000Z</time>
      </trkpt>
      <trkpt lat="45.25157" lon="6.49629">
        <ele>2096.3999023438</ele>
        <time>2021-01-24T09:21:12.000Z</time>
      </trkpt>
      <trkpt lat="45.25162" lon="6.49629">
        <ele>2097.6000976562</ele>
        <time>2021-01-24T09:21:18.000Z</time>
      </trkpt>
      <trkpt lat="45.25166" lon="6.4963">
        <ele>2098.3999023438</ele>
        <time>2021-01-24T09:21:23.000Z</time>
      </trkpt>
      <trkpt lat="45.25167" lon="6.4963">
        <ele>2099</ele>
        <time>2021-01-24T09:21:25.000Z</time>
      </trkpt>
      <trkpt lat="45.25171" lon="6.49631">
        <ele>2100</ele>
        <time>2021-01-24T09:21:31.000Z</time>
      </trkpt>
      <trkpt lat="45.25172" lon="6.49631">
        <ele>2100</ele>
        <time>2021-01-24T09:21:32.000Z</time>
      </trkpt>
      <trkpt lat="45.25175" lon="6.49634">
        <ele>2101.1999511719</ele>
        <time>2021-01-24T09:21:38.000Z</time>
      </trkpt>
      <trkpt lat="45.25177" lon="6.49637">
        <ele>2101.3999023438</ele>
        <time>2021-01-24T09:21:41.000Z</time>
      </trkpt>
      <trkpt lat="45.2518" lon="6.49638">
        <ele>2102.1999511719</ele>
        <time>2021-01-24T09:21:45.000Z</time>
      </trkpt>
      <trkpt lat="45.25184" lon="6.49638">
        <ele>2103.1999511719</ele>
        <time>2021-01-24T09:21:49.000Z</time>
      </trkpt>
      <trkpt lat="45.25185" lon="6.49637">
        <ele>2103.3999023438</ele>
        <time>2021-01-24T09:21:50.000Z</time>
      </trkpt>
      <trkpt lat="45.25189" lon="6.49634">
        <ele>2104.3999023438</ele>
        <time>2021-01-24T09:21:57.000Z</time>
      </trkpt>
      <trkpt lat="45.2519" lon="6.49634">
        <ele>2104.8000488281</ele>
        <time>2021-01-24T09:21:58.000Z</time>
      </trkpt>
      <trkpt lat="45.2519" lon="6.49632">
        <ele>2105.6000976562</ele>
        <time>2021-01-24T09:22:01.000Z</time>
      </trkpt>
      <trkpt lat="45.25191" lon="6.49631">
        <ele>2106.3999023438</ele>
        <time>2021-01-24T09:22:04.000Z</time>
      </trkpt>
      <trkpt lat="45.25192" lon="6.49631">
        <ele>2106.6000976562</ele>
        <time>2021-01-24T09:22:05.000Z</time>
      </trkpt>
      <trkpt lat="45.25196" lon="6.49628">
        <ele>2107.8000488281</ele>
        <time>2021-01-24T09:22:12.000Z</time>
      </trkpt>
      <trkpt lat="45.25198" lon="6.49625">
        <ele>2108.8000488281</ele>
        <time>2021-01-24T09:22:17.000Z</time>
      </trkpt>
      <trkpt lat="45.25199" lon="6.49623">
        <ele>2109.1999511719</ele>
        <time>2021-01-24T09:22:20.000Z</time>
      </trkpt>
      <trkpt lat="45.25203" lon="6.49623">
        <ele>2109.8000488281</ele>
        <time>2021-01-24T09:22:24.000Z</time>
      </trkpt>
      <trkpt lat="45.25207" lon="6.49621">
        <ele>2111</ele>
        <time>2021-01-24T09:22:29.000Z</time>
      </trkpt>
      <trkpt lat="45.25207" lon="6.4962">
        <ele>2111.1999511719</ele>
        <time>2021-01-24T09:22:30.000Z</time>
      </trkpt>
      <trkpt lat="45.25211" lon="6.4962">
        <ele>2112</ele>
        <time>2021-01-24T09:22:34.000Z</time>
      </trkpt>
      <trkpt lat="45.25212" lon="6.4962">
        <ele>2113</ele>
        <time>2021-01-24T09:22:37.000Z</time>
      </trkpt>
      <trkpt lat="45.25212" lon="6.49619">
        <ele>2113.1999511719</ele>
        <time>2021-01-24T09:22:38.000Z</time>
      </trkpt>
      <trkpt lat="45.25216" lon="6.49615">
        <ele>2114.1999511719</ele>
        <time>2021-01-24T09:22:45.000Z</time>
      </trkpt>
      <trkpt lat="45.25216" lon="6.49615">
        <ele>2114.3999023438</ele>
        <time>2021-01-24T09:22:46.000Z</time>
      </trkpt>
      <trkpt lat="45.25218" lon="6.49613">
        <ele>2115.3999023438</ele>
        <time>2021-01-24T09:22:51.000Z</time>
      </trkpt>
      <trkpt lat="45.25222" lon="6.49611">
        <ele>2116.3999023438</ele>
        <time>2021-01-24T09:22:57.000Z</time>
      </trkpt>
      <trkpt lat="45.25223" lon="6.49611">
        <ele>2116.6000976562</ele>
        <time>2021-01-24T09:22:58.000Z</time>
      </trkpt>
      <trkpt lat="45.25225" lon="6.49609">
        <ele>2117.3999023438</ele>
        <time>2021-01-24T09:23:02.000Z</time>
      </trkpt>
      <trkpt lat="45.25228" lon="6.49607">
        <ele>2118.3999023438</ele>
        <time>2021-01-24T09:23:06.000Z</time>
      </trkpt>
      <trkpt lat="45.25229" lon="6.49607">
        <ele>2118.6000976562</ele>
        <time>2021-01-24T09:23:07.000Z</time>
      </trkpt>
      <trkpt lat="45.25233" lon="6.49608">
        <ele>2119.8000488281</ele>
        <time>2021-01-24T09:23:14.000Z</time>
      </trkpt>
      <trkpt lat="45.25236" lon="6.49608">
        <ele>2120.8000488281</ele>
        <time>2021-01-24T09:23:17.000Z</time>
      </trkpt>
      <trkpt lat="45.25239" lon="6.49608">
        <ele>2121.6000976562</ele>
        <time>2021-01-24T09:23:20.000Z</time>
      </trkpt>
      <trkpt lat="45.25241" lon="6.49608">
        <ele>2121.8000488281</ele>
        <time>2021-01-24T09:23:23.000Z</time>
      </trkpt>
      <trkpt lat="45.25242" lon="6.49608">
        <ele>2122.3999023438</ele>
        <time>2021-01-24T09:23:26.000Z</time>
      </trkpt>
      <trkpt lat="45.25243" lon="6.49608">
        <ele>2123</ele>
        <time>2021-01-24T09:23:28.000Z</time>
      </trkpt>
      <trkpt lat="45.25245" lon="6.49607">
        <ele>2124</ele>
        <time>2021-01-24T09:23:33.000Z</time>
      </trkpt>
      <trkpt lat="45.25247" lon="6.49607">
        <ele>2124.8000488281</ele>
        <time>2021-01-24T09:23:37.000Z</time>
      </trkpt>
      <trkpt lat="45.25247" lon="6.49607">
        <ele>2125</ele>
        <time>2021-01-24T09:23:38.000Z</time>
      </trkpt>
      <trkpt lat="45.25251" lon="6.49607">
        <ele>2126</ele>
        <time>2021-01-24T09:23:43.000Z</time>
      </trkpt>
      <trkpt lat="45.25252" lon="6.49607">
        <ele>2126.6000976562</ele>
        <time>2021-01-24T09:23:46.000Z</time>
      </trkpt>
      <trkpt lat="45.25252" lon="6.49608">
        <ele>2127</ele>
        <time>2021-01-24T09:23:48.000Z</time>
      </trkpt>
      <trkpt lat="45.25254" lon="6.49609">
        <ele>2128.1999511719</ele>
        <time>2021-01-24T09:23:53.000Z</time>
      </trkpt>
      <trkpt lat="45.25255" lon="6.49608">
        <ele>2128.6000976562</ele>
        <time>2021-01-24T09:23:56.000Z</time>
      </trkpt>
      <trkpt lat="45.25259" lon="6.49609">
        <ele>2129.3999023438</ele>
        <time>2021-01-24T09:24:00.000Z</time>
      </trkpt>
      <trkpt lat="45.2526" lon="6.49608">
        <ele>2129.8000488281</ele>
        <time>2021-01-24T09:24:03.000Z</time>
      </trkpt>
      <trkpt lat="45.25263" lon="6.49609">
        <ele>2130.3999023438</ele>
        <time>2021-01-24T09:24:07.000Z</time>
      </trkpt>
      <trkpt lat="45.25265" lon="6.49611">
        <ele>2131.6000976562</ele>
        <time>2021-01-24T09:24:11.000Z</time>
      </trkpt>
      <trkpt lat="45.25265" lon="6.49613">
        <ele>2132.8000488281</ele>
        <time>2021-01-24T09:24:13.000Z</time>
      </trkpt>
      <trkpt lat="45.25267" lon="6.49616">
        <ele>2133.8000488281</ele>
        <time>2021-01-24T09:24:17.000Z</time>
      </trkpt>
      <trkpt lat="45.25267" lon="6.49616">
        <ele>2134</ele>
        <time>2021-01-24T09:24:18.000Z</time>
      </trkpt>
      <trkpt lat="45.25269" lon="6.49622">
        <ele>2135</ele>
        <time>2021-01-24T09:24:24.000Z</time>
      </trkpt>
      <trkpt lat="45.2527" lon="6.49627">
        <ele>2136.3999023438</ele>
        <time>2021-01-24T09:24:29.000Z</time>
      </trkpt>
      <trkpt lat="45.2527" lon="6.49629">
        <ele>2136.6000976562</ele>
        <time>2021-01-24T09:24:31.000Z</time>
      </trkpt>
      <trkpt lat="45.2527" lon="6.49634">
        <ele>2137.3999023438</ele>
        <time>2021-01-24T09:24:37.000Z</time>
      </trkpt>
      <trkpt lat="45.2527" lon="6.49636">
        <ele>2138</ele>
        <time>2021-01-24T09:24:40.000Z</time>
      </trkpt>
      <trkpt lat="45.2527" lon="6.49638">
        <ele>2138.3999023438</ele>
        <time>2021-01-24T09:24:42.000Z</time>
      </trkpt>
      <trkpt lat="45.2527" lon="6.49642">
        <ele>2139.1999511719</ele>
        <time>2021-01-24T09:24:47.000Z</time>
      </trkpt>
      <trkpt lat="45.2527" lon="6.49645">
        <ele>2139.6000976562</ele>
        <time>2021-01-24T09:24:50.000Z</time>
      </trkpt>
      <trkpt lat="45.25271" lon="6.49649">
        <ele>2140.6000976562</ele>
        <time>2021-01-24T09:24:54.000Z</time>
      </trkpt>
      <trkpt lat="45.25271" lon="6.4965">
        <ele>2140.8000488281</ele>
        <time>2021-01-24T09:24:55.000Z</time>
      </trkpt>
      <trkpt lat="45.25271" lon="6.49654">
        <ele>2141.6000976562</ele>
        <time>2021-01-24T09:25:00.000Z</time>
      </trkpt>
      <trkpt lat="45.25272" lon="6.49655">
        <ele>2142</ele>
        <time>2021-01-24T09:25:01.000Z</time>
      </trkpt>
      <trkpt lat="45.25272" lon="6.4966">
        <ele>2143.1999511719</ele>
        <time>2021-01-24T09:25:04.000Z</time>
      </trkpt>
      <trkpt lat="45.25272" lon="6.49665">
        <ele>2144.3999023438</ele>
        <time>2021-01-24T09:25:09.000Z</time>
      </trkpt>
      <trkpt lat="45.25272" lon="6.49668">
        <ele>2145.6000976562</ele>
        <time>2021-01-24T09:25:13.000Z</time>
      </trkpt>
      <trkpt lat="45.25272" lon="6.49672">
        <ele>2146</ele>
        <time>2021-01-24T09:25:16.000Z</time>
      </trkpt>
      <trkpt lat="45.25273" lon="6.49675">
        <ele>2146.6000976562</ele>
        <time>2021-01-24T09:25:19.000Z</time>
      </trkpt>
      <trkpt lat="45.25273" lon="6.49676">
        <ele>2146.8000488281</ele>
        <time>2021-01-24T09:25:22.000Z</time>
      </trkpt>
      <trkpt lat="45.25273" lon="6.49678">
        <ele>2147.8000488281</ele>
        <time>2021-01-24T09:25:26.000Z</time>
      </trkpt>
      <trkpt lat="45.25273" lon="6.49679">
        <ele>2148.1999511719</ele>
        <time>2021-01-24T09:25:29.000Z</time>
      </trkpt>
      <trkpt lat="45.25274" lon="6.49682">
        <ele>2149</ele>
        <time>2021-01-24T09:25:34.000Z</time>
      </trkpt>
      <trkpt lat="45.25275" lon="6.49685">
        <ele>2150</ele>
        <time>2021-01-24T09:25:37.000Z</time>
      </trkpt>
      <trkpt lat="45.25274" lon="6.49686">
        <ele>2150.1999511719</ele>
        <time>2021-01-24T09:25:38.000Z</time>
      </trkpt>
      <trkpt lat="45.25274" lon="6.49693">
        <ele>2151.1999511719</ele>
        <time>2021-01-24T09:25:45.000Z</time>
      </trkpt>
      <trkpt lat="45.25276" lon="6.49696">
        <ele>2152.3999023438</ele>
        <time>2021-01-24T09:25:49.000Z</time>
      </trkpt>
      <trkpt lat="45.25276" lon="6.49699">
        <ele>2153</ele>
        <time>2021-01-24T09:25:53.000Z</time>
      </trkpt>
      <trkpt lat="45.25276" lon="6.49703">
        <ele>2153.6000976562</ele>
        <time>2021-01-24T09:25:56.000Z</time>
      </trkpt>
      <trkpt lat="45.25276" lon="6.49706">
        <ele>2154.6000976562</ele>
        <time>2021-01-24T09:26:00.000Z</time>
      </trkpt>
      <trkpt lat="45.25277" lon="6.49706">
        <ele>2154.8000488281</ele>
        <time>2021-01-24T09:26:02.000Z</time>
      </trkpt>
      <trkpt lat="45.25281" lon="6.49705">
        <ele>2155.1999511719</ele>
        <time>2021-01-24T09:26:09.000Z</time>
      </trkpt>
      <trkpt lat="45.25283" lon="6.49705">
        <ele>2155.8000488281</ele>
        <time>2021-01-24T09:26:13.000Z</time>
      </trkpt>
      <trkpt lat="45.25286" lon="6.49704">
        <ele>2157</ele>
        <time>2021-01-24T09:26:18.000Z</time>
      </trkpt>
      <trkpt lat="45.25288" lon="6.49703">
        <ele>2158.1999511719</ele>
        <time>2021-01-24T09:26:24.000Z</time>
      </trkpt>
      <trkpt lat="45.25292" lon="6.49704">
        <ele>2159</ele>
        <time>2021-01-24T09:26:28.000Z</time>
      </trkpt>
      <trkpt lat="45.25293" lon="6.49704">
        <ele>2159.3999023438</ele>
        <time>2021-01-24T09:26:30.000Z</time>
      </trkpt>
      <trkpt lat="45.25295" lon="6.49704">
        <ele>2160.3999023438</ele>
        <time>2021-01-24T09:26:35.000Z</time>
      </trkpt>
      <trkpt lat="45.25297" lon="6.49703">
        <ele>2161</ele>
        <time>2021-01-24T09:26:39.000Z</time>
      </trkpt>
      <trkpt lat="45.25298" lon="6.49703">
        <ele>2161.6000976562</ele>
        <time>2021-01-24T09:26:41.000Z</time>
      </trkpt>
      <trkpt lat="45.25303" lon="6.49704">
        <ele>2162.6000976562</ele>
        <time>2021-01-24T09:26:49.000Z</time>
      </trkpt>
      <trkpt lat="45.25303" lon="6.49704">
        <ele>2162.6000976562</ele>
        <time>2021-01-24T09:26:50.000Z</time>
      </trkpt>
      <trkpt lat="45.25308" lon="6.49704">
        <ele>2163.8000488281</ele>
        <time>2021-01-24T09:26:57.000Z</time>
      </trkpt>
      <trkpt lat="45.2531" lon="6.49705">
        <ele>2164.1999511719</ele>
        <time>2021-01-24T09:27:00.000Z</time>
      </trkpt>
      <trkpt lat="45.25312" lon="6.49705">
        <ele>2164.8000488281</ele>
        <time>2021-01-24T09:27:02.000Z</time>
      </trkpt>
      <trkpt lat="45.25317" lon="6.49706">
        <ele>2165.8000488281</ele>
        <time>2021-01-24T09:27:10.000Z</time>
      </trkpt>
      <trkpt lat="45.25322" lon="6.49707">
        <ele>2167</ele>
        <time>2021-01-24T09:27:15.000Z</time>
      </trkpt>
      <trkpt lat="45.25324" lon="6.49709">
        <ele>2168</ele>
        <time>2021-01-24T09:27:21.000Z</time>
      </trkpt>
      <trkpt lat="45.25324" lon="6.4971">
        <ele>2168</ele>
        <time>2021-01-24T09:27:22.000Z</time>
      </trkpt>
      <trkpt lat="45.25325" lon="6.49711">
        <ele>2169.1999511719</ele>
        <time>2021-01-24T09:27:29.000Z</time>
      </trkpt>
      <trkpt lat="45.25325" lon="6.49711">
        <ele>2169.3999023438</ele>
        <time>2021-01-24T09:27:31.000Z</time>
      </trkpt>
      <trkpt lat="45.25327" lon="6.49711">
        <ele>2170.1999511719</ele>
        <time>2021-01-24T09:27:34.000Z</time>
      </trkpt>
      <trkpt lat="45.25333" lon="6.49711">
        <ele>2171.3999023438</ele>
        <time>2021-01-24T09:27:42.000Z</time>
      </trkpt>
      <trkpt lat="45.25337" lon="6.49713">
        <ele>2172.3999023438</ele>
        <time>2021-01-24T09:27:47.000Z</time>
      </trkpt>
      <trkpt lat="45.25339" lon="6.49713">
        <ele>2173.6000976562</ele>
        <time>2021-01-24T09:27:51.000Z</time>
      </trkpt>
      <trkpt lat="45.25342" lon="6.49714">
        <ele>2174.6000976562</ele>
        <time>2021-01-24T09:27:57.000Z</time>
      </trkpt>
      <trkpt lat="45.25344" lon="6.49714">
        <ele>2175.1999511719</ele>
        <time>2021-01-24T09:28:01.000Z</time>
      </trkpt>
      <trkpt lat="45.25344" lon="6.49715">
        <ele>2175.6000976562</ele>
        <time>2021-01-24T09:28:03.000Z</time>
      </trkpt>
      <trkpt lat="45.25346" lon="6.49715">
        <ele>2176.8000488281</ele>
        <time>2021-01-24T09:28:09.000Z</time>
      </trkpt>
      <trkpt lat="45.2535" lon="6.49716">
        <ele>2177.8000488281</ele>
        <time>2021-01-24T09:28:14.000Z</time>
      </trkpt>
      <trkpt lat="45.25351" lon="6.49718">
        <ele>2178.8000488281</ele>
        <time>2021-01-24T09:28:16.000Z</time>
      </trkpt>
      <trkpt lat="45.25351" lon="6.49723">
        <ele>2180</ele>
        <time>2021-01-24T09:28:22.000Z</time>
      </trkpt>
      <trkpt lat="45.25351" lon="6.49726">
        <ele>2180.6000976562</ele>
        <time>2021-01-24T09:28:25.000Z</time>
      </trkpt>
      <trkpt lat="45.25352" lon="6.49728">
        <ele>2181.1999511719</ele>
        <time>2021-01-24T09:28:28.000Z</time>
      </trkpt>
      <trkpt lat="45.25353" lon="6.49731">
        <ele>2182.1999511719</ele>
        <time>2021-01-24T09:28:32.000Z</time>
      </trkpt>
      <trkpt lat="45.25353" lon="6.49733">
        <ele>2183.1999511719</ele>
        <time>2021-01-24T09:28:35.000Z</time>
      </trkpt>
      <trkpt lat="45.25353" lon="6.49734">
        <ele>2183.6000976562</ele>
        <time>2021-01-24T09:28:36.000Z</time>
      </trkpt>
      <trkpt lat="45.25354" lon="6.49738">
        <ele>2184.6000976562</ele>
        <time>2021-01-24T09:28:41.000Z</time>
      </trkpt>
      <trkpt lat="45.25355" lon="6.4974">
        <ele>2185.6000976562</ele>
        <time>2021-01-24T09:28:46.000Z</time>
      </trkpt>
      <trkpt lat="45.25356" lon="6.49741">
        <ele>2185.6000976562</ele>
        <time>2021-01-24T09:28:47.000Z</time>
      </trkpt>
      <trkpt lat="45.25359" lon="6.49744">
        <ele>2186.8000488281</ele>
        <time>2021-01-24T09:28:53.000Z</time>
      </trkpt>
      <trkpt lat="45.25359" lon="6.49744">
        <ele>2187</ele>
        <time>2021-01-24T09:28:54.000Z</time>
      </trkpt>
      <trkpt lat="45.2536" lon="6.49747">
        <ele>2187.8000488281</ele>
        <time>2021-01-24T09:28:58.000Z</time>
      </trkpt>
      <trkpt lat="45.25361" lon="6.49747">
        <ele>2188.8000488281</ele>
        <time>2021-01-24T09:29:03.000Z</time>
      </trkpt>
      <trkpt lat="45.25361" lon="6.49747">
        <ele>2189</ele>
        <time>2021-01-24T09:29:04.000Z</time>
      </trkpt>
      <trkpt lat="45.25361" lon="6.49747">
        <ele>2189</ele>
        <time>2021-01-24T09:29:20.000Z</time>
      </trkpt>
      <trkpt lat="45.25362" lon="6.49747">
        <ele>2188.8000488281</ele>
        <time>2021-01-24T09:29:33.000Z</time>
      </trkpt>
      <trkpt lat="45.25362" lon="6.49747">
        <ele>2189.8000488281</ele>
        <time>2021-01-24T09:29:41.000Z</time>
      </trkpt>
      <trkpt lat="45.25362" lon="6.49747">
        <ele>2190</ele>
        <time>2021-01-24T09:29:49.000Z</time>
      </trkpt>
      <trkpt lat="45.25362" lon="6.49747">
        <ele>2190.3999023438</ele>
        <time>2021-01-24T09:29:57.000Z</time>
      </trkpt>
      <trkpt lat="45.25362" lon="6.49747">
        <ele>2189.8000488281</ele>
        <time>2021-01-24T09:30:10.000Z</time>
      </trkpt>
      <trkpt lat="45.25362" lon="6.49746">
        <ele>2189.3999023438</ele>
        <time>2021-01-24T09:30:27.000Z</time>
      </trkpt>
      <trkpt lat="45.25362" lon="6.49746">
        <ele>2189.8000488281</ele>
        <time>2021-01-24T09:30:43.000Z</time>
      </trkpt>
      <trkpt lat="45.25362" lon="6.49746">
        <ele>2190.1999511719</ele>
        <time>2021-01-24T09:31:01.000Z</time>
      </trkpt>
      <trkpt lat="45.25362" lon="6.49746">
        <ele>2189.3999023438</ele>
        <time>2021-01-24T09:31:16.000Z</time>
      </trkpt>
      <trkpt lat="45.25362" lon="6.49746">
        <ele>2189.8000488281</ele>
        <time>2021-01-24T09:31:28.000Z</time>
      </trkpt>
      <trkpt lat="45.25365" lon="6.49749">
        <ele>2190.6000976562</ele>
        <time>2021-01-24T09:31:38.000Z</time>
      </trkpt>
      <trkpt lat="45.25365" lon="6.49749">
        <ele>2191.3999023438</ele>
        <time>2021-01-24T09:31:40.000Z</time>
      </trkpt>
      <trkpt lat="45.25365" lon="6.49749">
        <ele>2191.6000976562</ele>
        <time>2021-01-24T09:31:51.000Z</time>
      </trkpt>
      <trkpt lat="45.25364" lon="6.49749">
        <ele>2191.6000976562</ele>
        <time>2021-01-24T09:32:04.000Z</time>
      </trkpt>
      <trkpt lat="45.25364" lon="6.49749">
        <ele>2191.8000488281</ele>
        <time>2021-01-24T09:32:18.000Z</time>
      </trkpt>
      <trkpt lat="45.25364" lon="6.49749">
        <ele>2192.3999023438</ele>
        <time>2021-01-24T09:32:22.000Z</time>
      </trkpt>
      <trkpt lat="45.25364" lon="6.49749">
        <ele>2192.3999023438</ele>
        <time>2021-01-24T09:32:34.000Z</time>
      </trkpt>
      <trkpt lat="45.25364" lon="6.49749">
        <ele>2192.1999511719</ele>
        <time>2021-01-24T09:32:47.000Z</time>
      </trkpt>
      <trkpt lat="45.25364" lon="6.49749">
        <ele>2192.3999023438</ele>
        <time>2021-01-24T09:33:03.000Z</time>
      </trkpt>
      <trkpt lat="45.25364" lon="6.49749">
        <ele>2192</ele>
        <time>2021-01-24T09:33:17.000Z</time>
      </trkpt>
      <trkpt lat="45.25365" lon="6.49749">
        <ele>2192.3999023438</ele>
        <time>2021-01-24T09:33:26.000Z</time>
      </trkpt>
      <trkpt lat="45.25365" lon="6.49749">
        <ele>2191</ele>
        <time>2021-01-24T09:33:30.000Z</time>
      </trkpt>
      <trkpt lat="45.25365" lon="6.49749">
        <ele>2192.1999511719</ele>
        <time>2021-01-24T09:33:35.000Z</time>
      </trkpt>
      <trkpt lat="45.25365" lon="6.49749">
        <ele>2193.1999511719</ele>
        <time>2021-01-24T09:33:40.000Z</time>
      </trkpt>
      <trkpt lat="45.25365" lon="6.49749">
        <ele>2192.3999023438</ele>
        <time>2021-01-24T09:33:53.000Z</time>
      </trkpt>
      <trkpt lat="45.25364" lon="6.49749">
        <ele>2192</ele>
        <time>2021-01-24T09:33:59.000Z</time>
      </trkpt>
      <trkpt lat="45.25364" lon="6.49749">
        <ele>2191.8000488281</ele>
        <time>2021-01-24T09:34:12.000Z</time>
      </trkpt>
      <trkpt lat="45.25364" lon="6.49749">
        <ele>2191.8000488281</ele>
        <time>2021-01-24T09:34:14.000Z</time>
      </trkpt>
      <trkpt lat="45.25364" lon="6.49749">
        <ele>2192.3999023438</ele>
        <time>2021-01-24T09:34:29.000Z</time>
      </trkpt>
      <trkpt lat="45.25368" lon="6.49749">
        <ele>2191.6000976562</ele>
        <time>2021-01-24T09:34:36.000Z</time>
      </trkpt>
      <trkpt lat="45.25375" lon="6.49751">
        <ele>2192.8000488281</ele>
        <time>2021-01-24T09:34:45.000Z</time>
      </trkpt>
      <trkpt lat="45.25377" lon="6.49752">
        <ele>2193.1999511719</ele>
        <time>2021-01-24T09:34:48.000Z</time>
      </trkpt>
      <trkpt lat="45.25381" lon="6.49752">
        <ele>2194.3999023438</ele>
        <time>2021-01-24T09:34:54.000Z</time>
      </trkpt>
      <trkpt lat="45.25382" lon="6.49752">
        <ele>2195</ele>
        <time>2021-01-24T09:34:56.000Z</time>
      </trkpt>
      <trkpt lat="45.25383" lon="6.49751">
        <ele>2195.6000976562</ele>
        <time>2021-01-24T09:34:58.000Z</time>
      </trkpt>
      <trkpt lat="45.25389" lon="6.49752">
        <ele>2196.8000488281</ele>
        <time>2021-01-24T09:35:04.000Z</time>
      </trkpt>
      <trkpt lat="45.25391" lon="6.49752">
        <ele>2197.3999023438</ele>
        <time>2021-01-24T09:35:06.000Z</time>
      </trkpt>
      <trkpt lat="45.25393" lon="6.49753">
        <ele>2198</ele>
        <time>2021-01-24T09:35:08.000Z</time>
      </trkpt>
      <trkpt lat="45.25396" lon="6.49753">
        <ele>2199.1999511719</ele>
        <time>2021-01-24T09:35:15.000Z</time>
      </trkpt>
      <trkpt lat="45.25397" lon="6.49753">
        <ele>2200.1999511719</ele>
        <time>2021-01-24T09:35:18.000Z</time>
      </trkpt>
      <trkpt lat="45.25398" lon="6.49756">
        <ele>2201.3999023438</ele>
        <time>2021-01-24T09:35:23.000Z</time>
      </trkpt>
      <trkpt lat="45.25398" lon="6.4976">
        <ele>2202.6000976562</ele>
        <time>2021-01-24T09:35:26.000Z</time>
      </trkpt>
      <trkpt lat="45.25399" lon="6.49762">
        <ele>2203.6000976562</ele>
        <time>2021-01-24T09:35:29.000Z</time>
      </trkpt>
      <trkpt lat="45.25399" lon="6.49764">
        <ele>2204.1999511719</ele>
        <time>2021-01-24T09:35:32.000Z</time>
      </trkpt>
      <trkpt lat="45.25399" lon="6.4977">
        <ele>2204.8000488281</ele>
        <time>2021-01-24T09:35:37.000Z</time>
      </trkpt>
      <trkpt lat="45.25399" lon="6.49772">
        <ele>2205</ele>
        <time>2021-01-24T09:35:38.000Z</time>
      </trkpt>
      <trkpt lat="45.25399" lon="6.49774">
        <ele>2205.8000488281</ele>
        <time>2021-01-24T09:35:41.000Z</time>
      </trkpt>
      <trkpt lat="45.25401" lon="6.49777">
        <ele>2206.6000976562</ele>
        <time>2021-01-24T09:35:45.000Z</time>
      </trkpt>
      <trkpt lat="45.25401" lon="6.49778">
        <ele>2206.8000488281</ele>
        <time>2021-01-24T09:35:46.000Z</time>
      </trkpt>
      <trkpt lat="45.25404" lon="6.49781">
        <ele>2207.8000488281</ele>
        <time>2021-01-24T09:35:52.000Z</time>
      </trkpt>
      <trkpt lat="45.25404" lon="6.4978">
        <ele>2208</ele>
        <time>2021-01-24T09:35:54.000Z</time>
      </trkpt>
      <trkpt lat="45.25408" lon="6.49779">
        <ele>2209</ele>
        <time>2021-01-24T09:36:01.000Z</time>
      </trkpt>
      <trkpt lat="45.25411" lon="6.4978">
        <ele>2210</ele>
        <time>2021-01-24T09:36:05.000Z</time>
      </trkpt>
      <trkpt lat="45.25413" lon="6.49782">
        <ele>2211.1999511719</ele>
        <time>2021-01-24T09:36:09.000Z</time>
      </trkpt>
      <trkpt lat="45.25415" lon="6.49784">
        <ele>2212.3999023438</ele>
        <time>2021-01-24T09:36:14.000Z</time>
      </trkpt>
      <trkpt lat="45.25415" lon="6.49785">
        <ele>2213.6000976562</ele>
        <time>2021-01-24T09:36:19.000Z</time>
      </trkpt>
      <trkpt lat="45.25415" lon="6.49785">
        <ele>2214.6000976562</ele>
        <time>2021-01-24T09:36:23.000Z</time>
      </trkpt>
      <trkpt lat="45.25415" lon="6.49785">
        <ele>2215.3999023438</ele>
        <time>2021-01-24T09:36:26.000Z</time>
      </trkpt>
      <trkpt lat="45.25416" lon="6.49786">
        <ele>2215.8000488281</ele>
        <time>2021-01-24T09:36:28.000Z</time>
      </trkpt>
      <trkpt lat="45.25422" lon="6.49791">
        <ele>2216.6000976562</ele>
        <time>2021-01-24T09:36:33.000Z</time>
      </trkpt>
      <trkpt lat="45.25423" lon="6.49792">
        <ele>2216.8000488281</ele>
        <time>2021-01-24T09:36:34.000Z</time>
      </trkpt>
      <trkpt lat="45.25424" lon="6.49793">
        <ele>2217.8000488281</ele>
        <time>2021-01-24T09:36:41.000Z</time>
      </trkpt>
      <trkpt lat="45.25425" lon="6.49795">
        <ele>2218.8000488281</ele>
        <time>2021-01-24T09:36:47.000Z</time>
      </trkpt>
      <trkpt lat="45.25425" lon="6.49797">
        <ele>2219</ele>
        <time>2021-01-24T09:36:48.000Z</time>
      </trkpt>
      <trkpt lat="45.25428" lon="6.498">
        <ele>2220</ele>
        <time>2021-01-24T09:36:53.000Z</time>
      </trkpt>
      <trkpt lat="45.25429" lon="6.49801">
        <ele>2220</ele>
        <time>2021-01-24T09:36:54.000Z</time>
      </trkpt>
      <trkpt lat="45.25432" lon="6.49804">
        <ele>2220.6000976562</ele>
        <time>2021-01-24T09:37:00.000Z</time>
      </trkpt>
      <trkpt lat="45.25434" lon="6.49806">
        <ele>2221.1999511719</ele>
        <time>2021-01-24T09:37:03.000Z</time>
      </trkpt>
      <trkpt lat="45.25437" lon="6.49809">
        <ele>2222.1999511719</ele>
        <time>2021-01-24T09:37:07.000Z</time>
      </trkpt>
      <trkpt lat="45.25443" lon="6.49815">
        <ele>2223.3999023438</ele>
        <time>2021-01-24T09:37:13.000Z</time>
      </trkpt>
      <trkpt lat="45.25447" lon="6.49822">
        <ele>2224.1999511719</ele>
        <time>2021-01-24T09:37:20.000Z</time>
      </trkpt>
      <trkpt lat="45.25448" lon="6.49823">
        <ele>2224.6000976562</ele>
        <time>2021-01-24T09:37:21.000Z</time>
      </trkpt>
      <trkpt lat="45.25451" lon="6.49828">
        <ele>2225.6000976562</ele>
        <time>2021-01-24T09:37:27.000Z</time>
      </trkpt>
      <trkpt lat="45.25451" lon="6.49829">
        <ele>2226</ele>
        <time>2021-01-24T09:37:28.000Z</time>
      </trkpt>
      <trkpt lat="45.25454" lon="6.49832">
        <ele>2227.1999511719</ele>
        <time>2021-01-24T09:37:33.000Z</time>
      </trkpt>
      <trkpt lat="45.25455" lon="6.49834">
        <ele>2227.3999023438</ele>
        <time>2021-01-24T09:37:34.000Z</time>
      </trkpt>
      <trkpt lat="45.25456" lon="6.49837">
        <ele>2228.3999023438</ele>
        <time>2021-01-24T09:37:38.000Z</time>
      </trkpt>
      <trkpt lat="45.25457" lon="6.49838">
        <ele>2228.6000976562</ele>
        <time>2021-01-24T09:37:40.000Z</time>
      </trkpt>
      <trkpt lat="45.25459" lon="6.4984">
        <ele>2229.6000976562</ele>
        <time>2021-01-24T09:37:45.000Z</time>
      </trkpt>
      <trkpt lat="45.25459" lon="6.49841">
        <ele>2229.6000976562</ele>
        <time>2021-01-24T09:37:46.000Z</time>
      </trkpt>
      <trkpt lat="45.25464" lon="6.49844">
        <ele>2230.8000488281</ele>
        <time>2021-01-24T09:37:52.000Z</time>
      </trkpt>
      <trkpt lat="45.25465" lon="6.49845">
        <ele>2231.8000488281</ele>
        <time>2021-01-24T09:37:58.000Z</time>
      </trkpt>
      <trkpt lat="45.25465" lon="6.49845">
        <ele>2232</ele>
        <time>2021-01-24T09:38:00.000Z</time>
      </trkpt>
      <trkpt lat="45.25465" lon="6.49845">
        <ele>2232.6000976562</ele>
        <time>2021-01-24T09:38:13.000Z</time>
      </trkpt>
      <trkpt lat="45.25465" lon="6.49845">
        <ele>2233</ele>
        <time>2021-01-24T09:38:15.000Z</time>
      </trkpt>
      <trkpt lat="45.25465" lon="6.49845">
        <ele>2233.1999511719</ele>
        <time>2021-01-24T09:38:19.000Z</time>
      </trkpt>
      <trkpt lat="45.25465" lon="6.49845">
        <ele>2233.1999511719</ele>
        <time>2021-01-24T09:38:25.000Z</time>
      </trkpt>
      <trkpt lat="45.25467" lon="6.49846">
        <ele>2231.8000488281</ele>
        <time>2021-01-24T09:38:30.000Z</time>
      </trkpt>
      <trkpt lat="45.25469" lon="6.49847">
        <ele>2231.8000488281</ele>
        <time>2021-01-24T09:38:33.000Z</time>
      </trkpt>
      <trkpt lat="45.2547" lon="6.49847">
        <ele>2233.1999511719</ele>
        <time>2021-01-24T09:38:36.000Z</time>
      </trkpt>
      <trkpt lat="45.25473" lon="6.49848">
        <ele>2234.3999023438</ele>
        <time>2021-01-24T09:38:39.000Z</time>
      </trkpt>
      <trkpt lat="45.25475" lon="6.49848">
        <ele>2235.1999511719</ele>
        <time>2021-01-24T09:38:41.000Z</time>
      </trkpt>
      <trkpt lat="45.25477" lon="6.49845">
        <ele>2235.6000976562</ele>
        <time>2021-01-24T09:38:43.000Z</time>
      </trkpt>
      <trkpt lat="45.25477" lon="6.49844">
        <ele>2236.1999511719</ele>
        <time>2021-01-24T09:38:47.000Z</time>
      </trkpt>
      <trkpt lat="45.25477" lon="6.49843">
        <ele>2237</ele>
        <time>2021-01-24T09:38:49.000Z</time>
      </trkpt>
      <trkpt lat="45.25478" lon="6.49842">
        <ele>2238.1999511719</ele>
        <time>2021-01-24T09:38:54.000Z</time>
      </trkpt>
      <trkpt lat="45.2548" lon="6.4984">
        <ele>2239.1999511719</ele>
        <time>2021-01-24T09:38:58.000Z</time>
      </trkpt>
      <trkpt lat="45.25481" lon="6.49839">
        <ele>2240.3999023438</ele>
        <time>2021-01-24T09:39:01.000Z</time>
      </trkpt>
      <trkpt lat="45.25482" lon="6.49839">
        <ele>2240.8000488281</ele>
        <time>2021-01-24T09:39:02.000Z</time>
      </trkpt>
      <trkpt lat="45.25484" lon="6.49838">
        <ele>2241.3999023438</ele>
        <time>2021-01-24T09:39:04.000Z</time>
      </trkpt>
      <trkpt lat="45.25489" lon="6.49836">
        <ele>2242.1999511719</ele>
        <time>2021-01-24T09:39:11.000Z</time>
      </trkpt>
      <trkpt lat="45.25491" lon="6.49836">
        <ele>2242.6000976562</ele>
        <time>2021-01-24T09:39:13.000Z</time>
      </trkpt>
      <trkpt lat="45.25496" lon="6.49836">
        <ele>2243.6000976562</ele>
        <time>2021-01-24T09:39:20.000Z</time>
      </trkpt>
      <trkpt lat="45.25497" lon="6.49836">
        <ele>2243.8000488281</ele>
        <time>2021-01-24T09:39:21.000Z</time>
      </trkpt>
      <trkpt lat="45.255" lon="6.49836">
        <ele>2244.8000488281</ele>
        <time>2021-01-24T09:39:25.000Z</time>
      </trkpt>
      <trkpt lat="45.25504" lon="6.49837">
        <ele>2245.8000488281</ele>
        <time>2021-01-24T09:39:30.000Z</time>
      </trkpt>
      <trkpt lat="45.25507" lon="6.49838">
        <ele>2247</ele>
        <time>2021-01-24T09:39:35.000Z</time>
      </trkpt>
      <trkpt lat="45.2551" lon="6.49838">
        <ele>2248.1999511719</ele>
        <time>2021-01-24T09:39:38.000Z</time>
      </trkpt>
      <trkpt lat="45.2551" lon="6.49839">
        <ele>2248.6000976562</ele>
        <time>2021-01-24T09:39:39.000Z</time>
      </trkpt>
      <trkpt lat="45.25513" lon="6.49839">
        <ele>2249.3999023438</ele>
        <time>2021-01-24T09:39:43.000Z</time>
      </trkpt>
      <trkpt lat="45.25516" lon="6.4984">
        <ele>2250</ele>
        <time>2021-01-24T09:39:47.000Z</time>
      </trkpt>
      <trkpt lat="45.25517" lon="6.49841">
        <ele>2250.6000976562</ele>
        <time>2021-01-24T09:39:49.000Z</time>
      </trkpt>
      <trkpt lat="45.2552" lon="6.49841">
        <ele>2251.6000976562</ele>
        <time>2021-01-24T09:39:52.000Z</time>
      </trkpt>
      <trkpt lat="45.25523" lon="6.49843">
        <ele>2252.3999023438</ele>
        <time>2021-01-24T09:39:56.000Z</time>
      </trkpt>
      <trkpt lat="45.25524" lon="6.49844">
        <ele>2252.6000976562</ele>
        <time>2021-01-24T09:39:57.000Z</time>
      </trkpt>
      <trkpt lat="45.25525" lon="6.49845">
        <ele>2253.6000976562</ele>
        <time>2021-01-24T09:40:00.000Z</time>
      </trkpt>
      <trkpt lat="45.25527" lon="6.49847">
        <ele>2254.8000488281</ele>
        <time>2021-01-24T09:40:03.000Z</time>
      </trkpt>
      <trkpt lat="45.2553" lon="6.49851">
        <ele>2256</ele>
        <time>2021-01-24T09:40:11.000Z</time>
      </trkpt>
      <trkpt lat="45.2553" lon="6.49853">
        <ele>2257</ele>
        <time>2021-01-24T09:40:15.000Z</time>
      </trkpt>
      <trkpt lat="45.25531" lon="6.49856">
        <ele>2257.3999023438</ele>
        <time>2021-01-24T09:40:18.000Z</time>
      </trkpt>
      <trkpt lat="45.25531" lon="6.49857">
        <ele>2258</ele>
        <time>2021-01-24T09:40:22.000Z</time>
      </trkpt>
      <trkpt lat="45.25532" lon="6.49857">
        <ele>2258.1999511719</ele>
        <time>2021-01-24T09:40:24.000Z</time>
      </trkpt>
      <trkpt lat="45.25536" lon="6.4986">
        <ele>2259.1999511719</ele>
        <time>2021-01-24T09:40:31.000Z</time>
      </trkpt>
      <trkpt lat="45.25537" lon="6.49861">
        <ele>2260.1999511719</ele>
        <time>2021-01-24T09:40:34.000Z</time>
      </trkpt>
      <trkpt lat="45.25538" lon="6.49863">
        <ele>2260.6000976562</ele>
        <time>2021-01-24T09:40:37.000Z</time>
      </trkpt>
      <trkpt lat="45.25539" lon="6.49865">
        <ele>2261.3999023438</ele>
        <time>2021-01-24T09:40:40.000Z</time>
      </trkpt>
      <trkpt lat="45.25538" lon="6.49868">
        <ele>2262.8000488281</ele>
        <time>2021-01-24T09:40:44.000Z</time>
      </trkpt>
      <trkpt lat="45.25537" lon="6.49873">
        <ele>2263.8000488281</ele>
        <time>2021-01-24T09:40:48.000Z</time>
      </trkpt>
      <trkpt lat="45.25537" lon="6.49876">
        <ele>2264</ele>
        <time>2021-01-24T09:40:51.000Z</time>
      </trkpt>
      <trkpt lat="45.25536" lon="6.49884">
        <ele>2265</ele>
        <time>2021-01-24T09:40:59.000Z</time>
      </trkpt>
      <trkpt lat="45.25536" lon="6.49888">
        <ele>2266</ele>
        <time>2021-01-24T09:41:04.000Z</time>
      </trkpt>
      <trkpt lat="45.25536" lon="6.49888">
        <ele>2266.1999511719</ele>
        <time>2021-01-24T09:41:05.000Z</time>
      </trkpt>
      <trkpt lat="45.25537" lon="6.49889">
        <ele>2267</ele>
        <time>2021-01-24T09:41:08.000Z</time>
      </trkpt>
      <trkpt lat="45.25537" lon="6.49892">
        <ele>2268.3999023438</ele>
        <time>2021-01-24T09:41:12.000Z</time>
      </trkpt>
      <trkpt lat="45.25537" lon="6.49896">
        <ele>2269.3999023438</ele>
        <time>2021-01-24T09:41:16.000Z</time>
      </trkpt>
      <trkpt lat="45.25536" lon="6.49899">
        <ele>2269.6000976562</ele>
        <time>2021-01-24T09:41:19.000Z</time>
      </trkpt>
      <trkpt lat="45.25537" lon="6.49906">
        <ele>2270.3999023438</ele>
        <time>2021-01-24T09:41:27.000Z</time>
      </trkpt>
      <trkpt lat="45.25537" lon="6.49907">
        <ele>2270.6000976562</ele>
        <time>2021-01-24T09:41:28.000Z</time>
      </trkpt>
      <trkpt lat="45.25536" lon="6.49914">
        <ele>2271.1999511719</ele>
        <time>2021-01-24T09:41:35.000Z</time>
      </trkpt>
      <trkpt lat="45.25536" lon="6.49918">
        <ele>2271.6000976562</ele>
        <time>2021-01-24T09:41:39.000Z</time>
      </trkpt>
      <trkpt lat="45.25536" lon="6.49924">
        <ele>2272.3999023438</ele>
        <time>2021-01-24T09:41:44.000Z</time>
      </trkpt>
      <trkpt lat="45.25536" lon="6.49926">
        <ele>2272.8000488281</ele>
        <time>2021-01-24T09:41:45.000Z</time>
      </trkpt>
      <trkpt lat="45.25538" lon="6.49931">
        <ele>2273.8000488281</ele>
        <time>2021-01-24T09:41:51.000Z</time>
      </trkpt>
      <trkpt lat="45.25538" lon="6.49932">
        <ele>2274.1999511719</ele>
        <time>2021-01-24T09:41:52.000Z</time>
      </trkpt>
      <trkpt lat="45.25539" lon="6.49936">
        <ele>2275</ele>
        <time>2021-01-24T09:41:55.000Z</time>
      </trkpt>
      <trkpt lat="45.25539" lon="6.49939">
        <ele>2275.3999023438</ele>
        <time>2021-01-24T09:41:58.000Z</time>
      </trkpt>
      <trkpt lat="45.25539" lon="6.4994">
        <ele>2276.1999511719</ele>
        <time>2021-01-24T09:42:01.000Z</time>
      </trkpt>
      <trkpt lat="45.25538" lon="6.49942">
        <ele>2277</ele>
        <time>2021-01-24T09:42:04.000Z</time>
      </trkpt>
      <trkpt lat="45.25539" lon="6.49943">
        <ele>2277.1999511719</ele>
        <time>2021-01-24T09:42:05.000Z</time>
      </trkpt>
      <trkpt lat="45.25539" lon="6.49946">
        <ele>2278.1999511719</ele>
        <time>2021-01-24T09:42:08.000Z</time>
      </trkpt>
      <trkpt lat="45.2554" lon="6.49949">
        <ele>2279.6000976562</ele>
        <time>2021-01-24T09:42:11.000Z</time>
      </trkpt>
      <trkpt lat="45.2554" lon="6.49952">
        <ele>2279.8000488281</ele>
        <time>2021-01-24T09:42:13.000Z</time>
      </trkpt>
      <trkpt lat="45.25542" lon="6.49958">
        <ele>2278.6000976562</ele>
        <time>2021-01-24T09:42:19.000Z</time>
      </trkpt>
      <trkpt lat="45.25542" lon="6.49959">
        <ele>2278.3999023438</ele>
        <time>2021-01-24T09:42:20.000Z</time>
      </trkpt>
      <trkpt lat="45.25544" lon="6.49967">
        <ele>2278</ele>
        <time>2021-01-24T09:42:27.000Z</time>
      </trkpt>
      <trkpt lat="45.25544" lon="6.49974">
        <ele>2278.1999511719</ele>
        <time>2021-01-24T09:42:31.000Z</time>
      </trkpt>
      <trkpt lat="45.25544" lon="6.49978">
        <ele>2278</ele>
        <time>2021-01-24T09:42:33.000Z</time>
      </trkpt>
      <trkpt lat="45.25544" lon="6.49986">
        <ele>2278</ele>
        <time>2021-01-24T09:42:39.000Z</time>
      </trkpt>
      <trkpt lat="45.25545" lon="6.49994">
        <ele>2278.1999511719</ele>
        <time>2021-01-24T09:42:46.000Z</time>
      </trkpt>
      <trkpt lat="45.25547" lon="6.49998">
        <ele>2279.6000976562</ele>
        <time>2021-01-24T09:42:52.000Z</time>
      </trkpt>
      <trkpt lat="45.25547" lon="6.49999">
        <ele>2279.8000488281</ele>
        <time>2021-01-24T09:42:53.000Z</time>
      </trkpt>
      <trkpt lat="45.25548" lon="6.50005">
        <ele>2280.3999023438</ele>
        <time>2021-01-24T09:43:00.000Z</time>
      </trkpt>
      <trkpt lat="45.25548" lon="6.50007">
        <ele>2280.8000488281</ele>
        <time>2021-01-24T09:43:02.000Z</time>
      </trkpt>
      <trkpt lat="45.25549" lon="6.50012">
        <ele>2281.6000976562</ele>
        <time>2021-01-24T09:43:06.000Z</time>
      </trkpt>
      <trkpt lat="45.25549" lon="6.50013">
        <ele>2282</ele>
        <time>2021-01-24T09:43:07.000Z</time>
      </trkpt>
      <trkpt lat="45.25551" lon="6.50021">
        <ele>2281</ele>
        <time>2021-01-24T09:43:14.000Z</time>
      </trkpt>
      <trkpt lat="45.25551" lon="6.50021">
        <ele>2280.8000488281</ele>
        <time>2021-01-24T09:43:15.000Z</time>
      </trkpt>
      <trkpt lat="45.25554" lon="6.50028">
        <ele>2282</ele>
        <time>2021-01-24T09:43:20.000Z</time>
      </trkpt>
      <trkpt lat="45.25557" lon="6.50033">
        <ele>2282.6000976562</ele>
        <time>2021-01-24T09:43:26.000Z</time>
      </trkpt>
      <trkpt lat="45.25558" lon="6.50033">
        <ele>2283.3999023438</ele>
        <time>2021-01-24T09:43:28.000Z</time>
      </trkpt>
      <trkpt lat="45.25559" lon="6.5004">
        <ele>2283.8000488281</ele>
        <time>2021-01-24T09:43:32.000Z</time>
      </trkpt>
      <trkpt lat="45.25561" lon="6.50044">
        <ele>2284.3999023438</ele>
        <time>2021-01-24T09:43:36.000Z</time>
      </trkpt>
      <trkpt lat="45.25561" lon="6.50045">
        <ele>2284.6000976562</ele>
        <time>2021-01-24T09:43:37.000Z</time>
      </trkpt>
      <trkpt lat="45.25564" lon="6.50051">
        <ele>2285.6000976562</ele>
        <time>2021-01-24T09:43:43.000Z</time>
      </trkpt>
      <trkpt lat="45.25567" lon="6.50054">
        <ele>2286.8000488281</ele>
        <time>2021-01-24T09:43:48.000Z</time>
      </trkpt>
      <trkpt lat="45.2557" lon="6.50062">
        <ele>2287.8000488281</ele>
        <time>2021-01-24T09:43:55.000Z</time>
      </trkpt>
      <trkpt lat="45.25569" lon="6.50066">
        <ele>2287.8000488281</ele>
        <time>2021-01-24T09:44:00.000Z</time>
      </trkpt>
      <trkpt lat="45.25569" lon="6.50071">
        <ele>2288.8000488281</ele>
        <time>2021-01-24T09:44:06.000Z</time>
      </trkpt>
      <trkpt lat="45.25569" lon="6.50073">
        <ele>2289.8000488281</ele>
        <time>2021-01-24T09:44:10.000Z</time>
      </trkpt>
      <trkpt lat="45.25569" lon="6.50076">
        <ele>2290.3999023438</ele>
        <time>2021-01-24T09:44:13.000Z</time>
      </trkpt>
      <trkpt lat="45.25569" lon="6.5008">
        <ele>2291</ele>
        <time>2021-01-24T09:44:17.000Z</time>
      </trkpt>
      <trkpt lat="45.25569" lon="6.50082">
        <ele>2291.3999023438</ele>
        <time>2021-01-24T09:44:19.000Z</time>
      </trkpt>
      <trkpt lat="45.25572" lon="6.50086">
        <ele>2292</ele>
        <time>2021-01-24T09:44:25.000Z</time>
      </trkpt>
      <trkpt lat="45.25572" lon="6.50086">
        <ele>2292.1999511719</ele>
        <time>2021-01-24T09:44:26.000Z</time>
      </trkpt>
      <trkpt lat="45.25574" lon="6.50089">
        <ele>2293.1999511719</ele>
        <time>2021-01-24T09:44:29.000Z</time>
      </trkpt>
      <trkpt lat="45.25575" lon="6.50092">
        <ele>2294.1999511719</ele>
        <time>2021-01-24T09:44:32.000Z</time>
      </trkpt>
      <trkpt lat="45.25575" lon="6.50093">
        <ele>2294.1999511719</ele>
        <time>2021-01-24T09:44:33.000Z</time>
      </trkpt>
      <trkpt lat="45.25576" lon="6.50102">
        <ele>2294.6000976562</ele>
        <time>2021-01-24T09:44:39.000Z</time>
      </trkpt>
      <trkpt lat="45.25578" lon="6.50104">
        <ele>2295.3999023438</ele>
        <time>2021-01-24T09:44:43.000Z</time>
      </trkpt>
      <trkpt lat="45.25579" lon="6.50106">
        <ele>2296.1999511719</ele>
        <time>2021-01-24T09:44:47.000Z</time>
      </trkpt>
      <trkpt lat="45.25579" lon="6.50107">
        <ele>2296.6000976562</ele>
        <time>2021-01-24T09:44:48.000Z</time>
      </trkpt>
      <trkpt lat="45.25582" lon="6.50112">
        <ele>2297.3999023438</ele>
        <time>2021-01-24T09:44:54.000Z</time>
      </trkpt>
      <trkpt lat="45.25583" lon="6.50112">
        <ele>2297.6000976562</ele>
        <time>2021-01-24T09:44:55.000Z</time>
      </trkpt>
      <trkpt lat="45.25584" lon="6.50117">
        <ele>2298.3999023438</ele>
        <time>2021-01-24T09:45:00.000Z</time>
      </trkpt>
      <trkpt lat="45.25585" lon="6.50118">
        <ele>2298.6000976562</ele>
        <time>2021-01-24T09:45:02.000Z</time>
      </trkpt>
      <trkpt lat="45.25588" lon="6.50122">
        <ele>2299.3999023438</ele>
        <time>2021-01-24T09:45:07.000Z</time>
      </trkpt>
      <trkpt lat="45.25589" lon="6.50123">
        <ele>2299.8000488281</ele>
        <time>2021-01-24T09:45:09.000Z</time>
      </trkpt>
      <trkpt lat="45.2559" lon="6.50125">
        <ele>2300.6000976562</ele>
        <time>2021-01-24T09:45:13.000Z</time>
      </trkpt>
      <trkpt lat="45.2559" lon="6.50125">
        <ele>2300.8000488281</ele>
        <time>2021-01-24T09:45:18.000Z</time>
      </trkpt>
      <trkpt lat="45.25591" lon="6.50126">
        <ele>2301.1999511719</ele>
        <time>2021-01-24T09:45:22.000Z</time>
      </trkpt>
      <trkpt lat="45.25591" lon="6.50126">
        <ele>2301.6000976562</ele>
        <time>2021-01-24T09:45:36.000Z</time>
      </trkpt>
      <trkpt lat="45.25591" lon="6.50126">
        <ele>2301</ele>
        <time>2021-01-24T09:45:49.000Z</time>
      </trkpt>
      <trkpt lat="45.25591" lon="6.50128">
        <ele>2302</ele>
        <time>2021-01-24T09:46:00.000Z</time>
      </trkpt>
      <trkpt lat="45.25591" lon="6.50128">
        <ele>2302</ele>
        <time>2021-01-24T09:46:12.000Z</time>
      </trkpt>
      <trkpt lat="45.25591" lon="6.50128">
        <ele>2302</ele>
        <time>2021-01-24T09:46:19.000Z</time>
      </trkpt>
      <trkpt lat="45.25591" lon="6.50128">
        <ele>2300.8000488281</ele>
        <time>2021-01-24T09:46:23.000Z</time>
      </trkpt>
      <trkpt lat="45.25591" lon="6.50128">
        <ele>2301</ele>
        <time>2021-01-24T09:46:31.000Z</time>
      </trkpt>
      <trkpt lat="45.25591" lon="6.50128">
        <ele>2301</ele>
        <time>2021-01-24T09:46:45.000Z</time>
      </trkpt>
      <trkpt lat="45.25591" lon="6.50128">
        <ele>2301.1999511719</ele>
        <time>2021-01-24T09:47:00.000Z</time>
      </trkpt>
      <trkpt lat="45.25591" lon="6.50128">
        <ele>2300.8000488281</ele>
        <time>2021-01-24T09:47:18.000Z</time>
      </trkpt>
      <trkpt lat="45.25591" lon="6.50128">
        <ele>2301</ele>
        <time>2021-01-24T09:47:33.000Z</time>
      </trkpt>
      <trkpt lat="45.25592" lon="6.50128">
        <ele>2301.1999511719</ele>
        <time>2021-01-24T09:47:47.000Z</time>
      </trkpt>
      <trkpt lat="45.25592" lon="6.50128">
        <ele>2300.8000488281</ele>
        <time>2021-01-24T09:48:01.000Z</time>
      </trkpt>
      <trkpt lat="45.25592" lon="6.50128">
        <ele>2301.1999511719</ele>
        <time>2021-01-24T09:48:18.000Z</time>
      </trkpt>
      <trkpt lat="45.25592" lon="6.50128">
        <ele>2301</ele>
        <time>2021-01-24T09:48:31.000Z</time>
      </trkpt>
      <trkpt lat="45.25592" lon="6.50128">
        <ele>2300.8000488281</ele>
        <time>2021-01-24T09:48:44.000Z</time>
      </trkpt>
      <trkpt lat="45.25591" lon="6.50128">
        <ele>2301</ele>
        <time>2021-01-24T09:49:02.000Z</time>
      </trkpt>
      <trkpt lat="45.25591" lon="6.50128">
        <ele>2301</ele>
        <time>2021-01-24T09:49:17.000Z</time>
      </trkpt>
      <trkpt lat="45.25591" lon="6.50128">
        <ele>2300.8000488281</ele>
        <time>2021-01-24T09:49:33.000Z</time>
      </trkpt>
      <trkpt lat="45.25591" lon="6.50128">
        <ele>2301.8000488281</ele>
        <time>2021-01-24T09:49:41.000Z</time>
      </trkpt>
      <trkpt lat="45.25591" lon="6.50128">
        <ele>2302</ele>
        <time>2021-01-24T09:49:42.000Z</time>
      </trkpt>
      <trkpt lat="45.25591" lon="6.50128">
        <ele>2301.3999023438</ele>
        <time>2021-01-24T09:49:58.000Z</time>
      </trkpt>
      <trkpt lat="45.25591" lon="6.50128">
        <ele>2302.1999511719</ele>
        <time>2021-01-24T09:50:15.000Z</time>
      </trkpt>
      <trkpt lat="45.25591" lon="6.50128">
        <ele>2301.6000976562</ele>
        <time>2021-01-24T09:50:33.000Z</time>
      </trkpt>
      <trkpt lat="45.25591" lon="6.50128">
        <ele>2301</ele>
        <time>2021-01-24T09:50:53.000Z</time>
      </trkpt>
      <trkpt lat="45.25591" lon="6.50128">
        <ele>2300.8000488281</ele>
        <time>2021-01-24T09:50:59.000Z</time>
      </trkpt>
      <trkpt lat="45.25591" lon="6.50128">
        <ele>2301</ele>
        <time>2021-01-24T09:51:07.000Z</time>
      </trkpt>
      <trkpt lat="45.25591" lon="6.50131">
        <ele>2301</ele>
        <time>2021-01-24T09:51:17.000Z</time>
      </trkpt>
      <trkpt lat="45.25592" lon="6.50132">
        <ele>2301.8000488281</ele>
        <time>2021-01-24T09:51:21.000Z</time>
      </trkpt>
      <trkpt lat="45.25592" lon="6.50134">
        <ele>2301.8000488281</ele>
        <time>2021-01-24T09:51:25.000Z</time>
      </trkpt>
      <trkpt lat="45.25594" lon="6.50138">
        <ele>2302.6000976562</ele>
        <time>2021-01-24T09:51:31.000Z</time>
      </trkpt>
      <trkpt lat="45.25594" lon="6.50139">
        <ele>2302.8000488281</ele>
        <time>2021-01-24T09:51:34.000Z</time>
      </trkpt>
      <trkpt lat="45.25595" lon="6.50143">
        <ele>2303.8000488281</ele>
        <time>2021-01-24T09:51:38.000Z</time>
      </trkpt>
      <trkpt lat="45.25595" lon="6.50144">
        <ele>2304</ele>
        <time>2021-01-24T09:51:39.000Z</time>
      </trkpt>
      <trkpt lat="45.25597" lon="6.5015">
        <ele>2305</ele>
        <time>2021-01-24T09:51:45.000Z</time>
      </trkpt>
      <trkpt lat="45.25597" lon="6.5015">
        <ele>2305</ele>
        <time>2021-01-24T09:51:46.000Z</time>
      </trkpt>
      <trkpt lat="45.25598" lon="6.50157">
        <ele>2306</ele>
        <time>2021-01-24T09:51:52.000Z</time>
      </trkpt>
      <trkpt lat="45.25599" lon="6.50159">
        <ele>2306.1999511719</ele>
        <time>2021-01-24T09:51:53.000Z</time>
      </trkpt>
      <trkpt lat="45.25601" lon="6.50164">
        <ele>2307.1999511719</ele>
        <time>2021-01-24T09:51:58.000Z</time>
      </trkpt>
      <trkpt lat="45.25602" lon="6.50165">
        <ele>2307.3999023438</ele>
        <time>2021-01-24T09:51:59.000Z</time>
      </trkpt>
      <trkpt lat="45.25604" lon="6.5017">
        <ele>2308.1999511719</ele>
        <time>2021-01-24T09:52:04.000Z</time>
      </trkpt>
      <trkpt lat="45.25605" lon="6.50172">
        <ele>2308.6000976562</ele>
        <time>2021-01-24T09:52:07.000Z</time>
      </trkpt>
      <trkpt lat="45.25607" lon="6.50176">
        <ele>2309.3999023438</ele>
        <time>2021-01-24T09:52:13.000Z</time>
      </trkpt>
      <trkpt lat="45.25608" lon="6.50179">
        <ele>2310.1999511719</ele>
        <time>2021-01-24T09:52:15.000Z</time>
      </trkpt>
      <trkpt lat="45.25608" lon="6.5018">
        <ele>2311</ele>
        <time>2021-01-24T09:52:16.000Z</time>
      </trkpt>
      <trkpt lat="45.2561" lon="6.50184">
        <ele>2311.8000488281</ele>
        <time>2021-01-24T09:52:22.000Z</time>
      </trkpt>
      <trkpt lat="45.2561" lon="6.50184">
        <ele>2312</ele>
        <time>2021-01-24T09:52:23.000Z</time>
      </trkpt>
      <trkpt lat="45.25612" lon="6.50189">
        <ele>2313</ele>
        <time>2021-01-24T09:52:28.000Z</time>
      </trkpt>
      <trkpt lat="45.25613" lon="6.50195">
        <ele>2314.1999511719</ele>
        <time>2021-01-24T09:52:36.000Z</time>
      </trkpt>
      <trkpt lat="45.25614" lon="6.50198">
        <ele>2315.1999511719</ele>
        <time>2021-01-24T09:52:40.000Z</time>
      </trkpt>
      <trkpt lat="45.25615" lon="6.502">
        <ele>2315.6000976562</ele>
        <time>2021-01-24T09:52:42.000Z</time>
      </trkpt>
      <trkpt lat="45.25616" lon="6.50204">
        <ele>2316.3999023438</ele>
        <time>2021-01-24T09:52:47.000Z</time>
      </trkpt>
      <trkpt lat="45.25618" lon="6.50206">
        <ele>2317.3999023438</ele>
        <time>2021-01-24T09:52:51.000Z</time>
      </trkpt>
      <trkpt lat="45.25618" lon="6.50207">
        <ele>2317.3999023438</ele>
        <time>2021-01-24T09:52:52.000Z</time>
      </trkpt>
      <trkpt lat="45.25619" lon="6.5021">
        <ele>2318.3999023438</ele>
        <time>2021-01-24T09:52:57.000Z</time>
      </trkpt>
      <trkpt lat="45.25619" lon="6.50211">
        <ele>2318.6000976562</ele>
        <time>2021-01-24T09:52:58.000Z</time>
      </trkpt>
      <trkpt lat="45.25621" lon="6.50214">
        <ele>2319.6000976562</ele>
        <time>2021-01-24T09:53:03.000Z</time>
      </trkpt>
      <trkpt lat="45.25622" lon="6.50216">
        <ele>2320.6000976562</ele>
        <time>2021-01-24T09:53:06.000Z</time>
      </trkpt>
      <trkpt lat="45.25623" lon="6.50216">
        <ele>2320.8000488281</ele>
        <time>2021-01-24T09:53:07.000Z</time>
      </trkpt>
      <trkpt lat="45.25624" lon="6.50221">
        <ele>2322</ele>
        <time>2021-01-24T09:53:12.000Z</time>
      </trkpt>
      <trkpt lat="45.25625" lon="6.50222">
        <ele>2322</ele>
        <time>2021-01-24T09:53:13.000Z</time>
      </trkpt>
      <trkpt lat="45.25627" lon="6.50225">
        <ele>2323</ele>
        <time>2021-01-24T09:53:18.000Z</time>
      </trkpt>
      <trkpt lat="45.25627" lon="6.50226">
        <ele>2323.3999023438</ele>
        <time>2021-01-24T09:53:20.000Z</time>
      </trkpt>
      <trkpt lat="45.25629" lon="6.5023">
        <ele>2324.1999511719</ele>
        <time>2021-01-24T09:53:24.000Z</time>
      </trkpt>
      <trkpt lat="45.2563" lon="6.50232">
        <ele>2325</ele>
        <time>2021-01-24T09:53:28.000Z</time>
      </trkpt>
      <trkpt lat="45.2563" lon="6.50233">
        <ele>2325.3999023438</ele>
        <time>2021-01-24T09:53:29.000Z</time>
      </trkpt>
      <trkpt lat="45.25631" lon="6.50235">
        <ele>2326</ele>
        <time>2021-01-24T09:53:34.000Z</time>
      </trkpt>
      <trkpt lat="45.25631" lon="6.50238">
        <ele>2326.6000976562</ele>
        <time>2021-01-24T09:53:36.000Z</time>
      </trkpt>
      <trkpt lat="45.25633" lon="6.50242">
        <ele>2327.8000488281</ele>
        <time>2021-01-24T09:53:41.000Z</time>
      </trkpt>
      <trkpt lat="45.25634" lon="6.50244">
        <ele>2328</ele>
        <time>2021-01-24T09:53:42.000Z</time>
      </trkpt>
      <trkpt lat="45.25635" lon="6.50247">
        <ele>2328.8000488281</ele>
        <time>2021-01-24T09:53:46.000Z</time>
      </trkpt>
      <trkpt lat="45.25636" lon="6.50249">
        <ele>2329.8000488281</ele>
        <time>2021-01-24T09:53:50.000Z</time>
      </trkpt>
      <trkpt lat="45.25636" lon="6.5025">
        <ele>2330</ele>
        <time>2021-01-24T09:53:51.000Z</time>
      </trkpt>
      <trkpt lat="45.25638" lon="6.50255">
        <ele>2331</ele>
        <time>2021-01-24T09:53:56.000Z</time>
      </trkpt>
      <trkpt lat="45.25638" lon="6.50255">
        <ele>2331.1999511719</ele>
        <time>2021-01-24T09:53:57.000Z</time>
      </trkpt>
      <trkpt lat="45.25638" lon="6.50256">
        <ele>2331.3999023438</ele>
        <time>2021-01-24T09:53:58.000Z</time>
      </trkpt>
      <trkpt lat="45.25641" lon="6.50263">
        <ele>2332.1999511719</ele>
        <time>2021-01-24T09:54:04.000Z</time>
      </trkpt>
      <trkpt lat="45.25641" lon="6.50264">
        <ele>2332.6000976562</ele>
        <time>2021-01-24T09:54:06.000Z</time>
      </trkpt>
      <trkpt lat="45.25643" lon="6.50267">
        <ele>2333.3999023438</ele>
        <time>2021-01-24T09:54:10.000Z</time>
      </trkpt>
      <trkpt lat="45.25643" lon="6.50271">
        <ele>2334.6000976562</ele>
        <time>2021-01-24T09:54:15.000Z</time>
      </trkpt>
      <trkpt lat="45.25644" lon="6.50271">
        <ele>2334.8000488281</ele>
        <time>2021-01-24T09:54:16.000Z</time>
      </trkpt>
      <trkpt lat="45.25645" lon="6.50273">
        <ele>2335.6000976562</ele>
        <time>2021-01-24T09:54:18.000Z</time>
      </trkpt>
      <trkpt lat="45.25647" lon="6.50276">
        <ele>2336.3999023438</ele>
        <time>2021-01-24T09:54:22.000Z</time>
      </trkpt>
      <trkpt lat="45.25647" lon="6.50276">
        <ele>2336.6000976562</ele>
        <time>2021-01-24T09:54:23.000Z</time>
      </trkpt>
      <trkpt lat="45.25648" lon="6.50282">
        <ele>2337.3999023438</ele>
        <time>2021-01-24T09:54:29.000Z</time>
      </trkpt>
      <trkpt lat="45.25649" lon="6.50285">
        <ele>2337.6000976562</ele>
        <time>2021-01-24T09:54:31.000Z</time>
      </trkpt>
      <trkpt lat="45.2565" lon="6.50288">
        <ele>2338</ele>
        <time>2021-01-24T09:54:35.000Z</time>
      </trkpt>
      <trkpt lat="45.25653" lon="6.50293">
        <ele>2338.6000976562</ele>
        <time>2021-01-24T09:54:41.000Z</time>
      </trkpt>
      <trkpt lat="45.25653" lon="6.50293">
        <ele>2338.8000488281</ele>
        <time>2021-01-24T09:54:42.000Z</time>
      </trkpt>
      <trkpt lat="45.25654" lon="6.50295">
        <ele>2340</ele>
        <time>2021-01-24T09:54:45.000Z</time>
      </trkpt>
      <trkpt lat="45.25655" lon="6.50296">
        <ele>2341.1999511719</ele>
        <time>2021-01-24T09:54:48.000Z</time>
      </trkpt>
      <trkpt lat="45.25655" lon="6.50296">
        <ele>2341.3999023438</ele>
        <time>2021-01-24T09:54:49.000Z</time>
      </trkpt>
      <trkpt lat="45.25656" lon="6.50302">
        <ele>2342.1999511719</ele>
        <time>2021-01-24T09:54:55.000Z</time>
      </trkpt>
      <trkpt lat="45.25656" lon="6.50302">
        <ele>2342.6000976562</ele>
        <time>2021-01-24T09:54:56.000Z</time>
      </trkpt>
      <trkpt lat="45.25656" lon="6.50303">
        <ele>2343.3999023438</ele>
        <time>2021-01-24T09:54:59.000Z</time>
      </trkpt>
      <trkpt lat="45.25657" lon="6.50306">
        <ele>2343.8000488281</ele>
        <time>2021-01-24T09:55:03.000Z</time>
      </trkpt>
      <trkpt lat="45.25658" lon="6.50308">
        <ele>2344.6000976562</ele>
        <time>2021-01-24T09:55:06.000Z</time>
      </trkpt>
      <trkpt lat="45.25659" lon="6.5031">
        <ele>2345.3999023438</ele>
        <time>2021-01-24T09:55:10.000Z</time>
      </trkpt>
      <trkpt lat="45.25659" lon="6.50311">
        <ele>2345.6000976562</ele>
        <time>2021-01-24T09:55:11.000Z</time>
      </trkpt>
      <trkpt lat="45.2566" lon="6.50315">
        <ele>2346.8000488281</ele>
        <time>2021-01-24T09:55:15.000Z</time>
      </trkpt>
      <trkpt lat="45.25661" lon="6.50318">
        <ele>2347.3999023438</ele>
        <time>2021-01-24T09:55:19.000Z</time>
      </trkpt>
      <trkpt lat="45.25662" lon="6.5032">
        <ele>2347.8000488281</ele>
        <time>2021-01-24T09:55:22.000Z</time>
      </trkpt>
      <trkpt lat="45.25663" lon="6.50324">
        <ele>2348.3999023438</ele>
        <time>2021-01-24T09:55:26.000Z</time>
      </trkpt>
      <trkpt lat="45.25664" lon="6.50325">
        <ele>2348.8000488281</ele>
        <time>2021-01-24T09:55:28.000Z</time>
      </trkpt>
      <trkpt lat="45.25665" lon="6.50328">
        <ele>2349.8000488281</ele>
        <time>2021-01-24T09:55:32.000Z</time>
      </trkpt>
      <trkpt lat="45.25665" lon="6.50328">
        <ele>2350.1999511719</ele>
        <time>2021-01-24T09:55:33.000Z</time>
      </trkpt>
      <trkpt lat="45.25666" lon="6.5033">
        <ele>2351</ele>
        <time>2021-01-24T09:55:36.000Z</time>
      </trkpt>
      <trkpt lat="45.25668" lon="6.50333">
        <ele>2352</ele>
        <time>2021-01-24T09:55:40.000Z</time>
      </trkpt>
      <trkpt lat="45.2567" lon="6.50336">
        <ele>2353.1999511719</ele>
        <time>2021-01-24T09:55:46.000Z</time>
      </trkpt>
      <trkpt lat="45.25671" lon="6.50336">
        <ele>2353.3999023438</ele>
        <time>2021-01-24T09:55:47.000Z</time>
      </trkpt>
      <trkpt lat="45.25672" lon="6.5034">
        <ele>2354.3999023438</ele>
        <time>2021-01-24T09:55:52.000Z</time>
      </trkpt>
      <trkpt lat="45.25673" lon="6.5034">
        <ele>2354.6000976562</ele>
        <time>2021-01-24T09:55:54.000Z</time>
      </trkpt>
      <trkpt lat="45.25673" lon="6.50341">
        <ele>2355.3999023438</ele>
        <time>2021-01-24T09:55:59.000Z</time>
      </trkpt>
      <trkpt lat="45.25675" lon="6.50345">
        <ele>2356.3999023438</ele>
        <time>2021-01-24T09:56:03.000Z</time>
      </trkpt>
      <trkpt lat="45.25675" lon="6.50346">
        <ele>2356.6000976562</ele>
        <time>2021-01-24T09:56:04.000Z</time>
      </trkpt>
      <trkpt lat="45.25676" lon="6.50347">
        <ele>2357.6000976562</ele>
        <time>2021-01-24T09:56:10.000Z</time>
      </trkpt>
      <trkpt lat="45.25678" lon="6.5035">
        <ele>2358.8000488281</ele>
        <time>2021-01-24T09:56:15.000Z</time>
      </trkpt>
      <trkpt lat="45.2568" lon="6.50353">
        <ele>2359.8000488281</ele>
        <time>2021-01-24T09:56:19.000Z</time>
      </trkpt>
      <trkpt lat="45.25684" lon="6.50359">
        <ele>2361</ele>
        <time>2021-01-24T09:56:27.000Z</time>
      </trkpt>
      <trkpt lat="45.25685" lon="6.50362">
        <ele>2362</ele>
        <time>2021-01-24T09:56:31.000Z</time>
      </trkpt>
      <trkpt lat="45.25687" lon="6.50366">
        <ele>2363</ele>
        <time>2021-01-24T09:56:35.000Z</time>
      </trkpt>
      <trkpt lat="45.25687" lon="6.50367">
        <ele>2363.1999511719</ele>
        <time>2021-01-24T09:56:36.000Z</time>
      </trkpt>
      <trkpt lat="45.25688" lon="6.50373">
        <ele>2364.1999511719</ele>
        <time>2021-01-24T09:56:43.000Z</time>
      </trkpt>
      <trkpt lat="45.2569" lon="6.50377">
        <ele>2365.1999511719</ele>
        <time>2021-01-24T09:56:50.000Z</time>
      </trkpt>
      <trkpt lat="45.2569" lon="6.50378">
        <ele>2365.1999511719</ele>
        <time>2021-01-24T09:56:51.000Z</time>
      </trkpt>
      <trkpt lat="45.25691" lon="6.50378">
        <ele>2366.1999511719</ele>
        <time>2021-01-24T09:56:57.000Z</time>
      </trkpt>
      <trkpt lat="45.25693" lon="6.50384">
        <ele>2366.8000488281</ele>
        <time>2021-01-24T09:57:04.000Z</time>
      </trkpt>
      <trkpt lat="45.25694" lon="6.50388">
        <ele>2367.1999511719</ele>
        <time>2021-01-24T09:57:08.000Z</time>
      </trkpt>
      <trkpt lat="45.25695" lon="6.50391">
        <ele>2367.6000976562</ele>
        <time>2021-01-24T09:57:11.000Z</time>
      </trkpt>
      <trkpt lat="45.25697" lon="6.50395">
        <ele>2368.3999023438</ele>
        <time>2021-01-24T09:57:16.000Z</time>
      </trkpt>
      <trkpt lat="45.25697" lon="6.504">
        <ele>2369.1999511719</ele>
        <time>2021-01-24T09:57:23.000Z</time>
      </trkpt>
      <trkpt lat="45.25698" lon="6.50401">
        <ele>2369.3999023438</ele>
        <time>2021-01-24T09:57:24.000Z</time>
      </trkpt>
      <trkpt lat="45.257" lon="6.50406">
        <ele>2370.3999023438</ele>
        <time>2021-01-24T09:57:29.000Z</time>
      </trkpt>
      <trkpt lat="45.257" lon="6.50407">
        <ele>2370.3999023438</ele>
        <time>2021-01-24T09:57:30.000Z</time>
      </trkpt>
      <trkpt lat="45.25701" lon="6.50412">
        <ele>2371.1999511719</ele>
        <time>2021-01-24T09:57:36.000Z</time>
      </trkpt>
      <trkpt lat="45.25704" lon="6.50416">
        <ele>2371.6000976562</ele>
        <time>2021-01-24T09:57:41.000Z</time>
      </trkpt>
      <trkpt lat="45.25705" lon="6.50417">
        <ele>2371.8000488281</ele>
        <time>2021-01-24T09:57:43.000Z</time>
      </trkpt>
      <trkpt lat="45.25708" lon="6.50423">
        <ele>2372.6000976562</ele>
        <time>2021-01-24T09:57:49.000Z</time>
      </trkpt>
      <trkpt lat="45.25708" lon="6.50423">
        <ele>2372.8000488281</ele>
        <time>2021-01-24T09:57:50.000Z</time>
      </trkpt>
      <trkpt lat="45.2571" lon="6.50427">
        <ele>2373.8000488281</ele>
        <time>2021-01-24T09:57:56.000Z</time>
      </trkpt>
      <trkpt lat="45.2571" lon="6.50427">
        <ele>2374.1999511719</ele>
        <time>2021-01-24T09:57:58.000Z</time>
      </trkpt>
      <trkpt lat="45.2571" lon="6.50429">
        <ele>2374.1999511719</ele>
        <time>2021-01-24T09:58:09.000Z</time>
      </trkpt>
      <trkpt lat="45.25713" lon="6.50429">
        <ele>2374.8000488281</ele>
        <time>2021-01-24T09:58:15.000Z</time>
      </trkpt>
      <trkpt lat="45.25714" lon="6.50429">
        <ele>2374.8000488281</ele>
        <time>2021-01-24T09:58:16.000Z</time>
      </trkpt>
      <trkpt lat="45.25715" lon="6.50426">
        <ele>2376</ele>
        <time>2021-01-24T09:58:20.000Z</time>
      </trkpt>
      <trkpt lat="45.25716" lon="6.50424">
        <ele>2376.6000976562</ele>
        <time>2021-01-24T09:58:22.000Z</time>
      </trkpt>
      <trkpt lat="45.25716" lon="6.50422">
        <ele>2377.1999511719</ele>
        <time>2021-01-24T09:58:24.000Z</time>
      </trkpt>
      <trkpt lat="45.25717" lon="6.50418">
        <ele>2378.1999511719</ele>
        <time>2021-01-24T09:58:30.000Z</time>
      </trkpt>
      <trkpt lat="45.25718" lon="6.50417">
        <ele>2378.3999023438</ele>
        <time>2021-01-24T09:58:32.000Z</time>
      </trkpt>
      <trkpt lat="45.25721" lon="6.5042">
        <ele>2379.3999023438</ele>
        <time>2021-01-24T09:58:37.000Z</time>
      </trkpt>
      <trkpt lat="45.25722" lon="6.50422">
        <ele>2380.8000488281</ele>
        <time>2021-01-24T09:58:40.000Z</time>
      </trkpt>
      <trkpt lat="45.25723" lon="6.50425">
        <ele>2381.8000488281</ele>
        <time>2021-01-24T09:58:42.000Z</time>
      </trkpt>
      <trkpt lat="45.25724" lon="6.50427">
        <ele>2382.3999023438</ele>
        <time>2021-01-24T09:58:44.000Z</time>
      </trkpt>
      <trkpt lat="45.25725" lon="6.50431">
        <ele>2383</ele>
        <time>2021-01-24T09:58:50.000Z</time>
      </trkpt>
      <trkpt lat="45.25725" lon="6.50432">
        <ele>2383.1999511719</ele>
        <time>2021-01-24T09:58:51.000Z</time>
      </trkpt>
      <trkpt lat="45.25726" lon="6.50435">
        <ele>2384</ele>
        <time>2021-01-24T09:58:54.000Z</time>
      </trkpt>
      <trkpt lat="45.25726" lon="6.50438">
        <ele>2385</ele>
        <time>2021-01-24T09:58:58.000Z</time>
      </trkpt>
      <trkpt lat="45.25726" lon="6.50438">
        <ele>2385</ele>
        <time>2021-01-24T09:58:59.000Z</time>
      </trkpt>
      <trkpt lat="45.25727" lon="6.50441">
        <ele>2385.6000976562</ele>
        <time>2021-01-24T09:59:04.000Z</time>
      </trkpt>
      <trkpt lat="45.25727" lon="6.50441">
        <ele>2386</ele>
        <time>2021-01-24T09:59:08.000Z</time>
      </trkpt>
      <trkpt lat="45.25727" lon="6.50441">
        <ele>2386</ele>
        <time>2021-01-24T09:59:15.000Z</time>
      </trkpt>
      <trkpt lat="45.25727" lon="6.50441">
        <ele>2385.6000976562</ele>
        <time>2021-01-24T09:59:22.000Z</time>
      </trkpt>
      <trkpt lat="45.25727" lon="6.50442">
        <ele>2386.3999023438</ele>
        <time>2021-01-24T09:59:27.000Z</time>
      </trkpt>
      <trkpt lat="45.25727" lon="6.50444">
        <ele>2386.3999023438</ele>
        <time>2021-01-24T09:59:34.000Z</time>
      </trkpt>
      <trkpt lat="45.25727" lon="6.50444">
        <ele>2386.8000488281</ele>
        <time>2021-01-24T09:59:42.000Z</time>
      </trkpt>
      <trkpt lat="45.25727" lon="6.50444">
        <ele>2385.8000488281</ele>
        <time>2021-01-24T09:59:50.000Z</time>
      </trkpt>
      <trkpt lat="45.25727" lon="6.50444">
        <ele>2386.8000488281</ele>
        <time>2021-01-24T09:59:59.000Z</time>
      </trkpt>
      <trkpt lat="45.25727" lon="6.50444">
        <ele>2387</ele>
        <time>2021-01-24T10:00:02.000Z</time>
      </trkpt>
      <trkpt lat="45.25726" lon="6.50444">
        <ele>2387.3999023438</ele>
        <time>2021-01-24T10:00:07.000Z</time>
      </trkpt>
      <trkpt lat="45.25726" lon="6.50444">
        <ele>2386.1999511719</ele>
        <time>2021-01-24T10:00:20.000Z</time>
      </trkpt>
      <trkpt lat="45.25728" lon="6.50445">
        <ele>2386</ele>
        <time>2021-01-24T10:00:28.000Z</time>
      </trkpt>
      <trkpt lat="45.25728" lon="6.50445">
        <ele>2385.1999511719</ele>
        <time>2021-01-24T10:00:30.000Z</time>
      </trkpt>
      <trkpt lat="45.25728" lon="6.50445">
        <ele>2384.8000488281</ele>
        <time>2021-01-24T10:00:31.000Z</time>
      </trkpt>
      <trkpt lat="45.25728" lon="6.50446">
        <ele>2385.8000488281</ele>
        <time>2021-01-24T10:00:39.000Z</time>
      </trkpt>
      <trkpt lat="45.25724" lon="6.50455">
        <ele>2386.8000488281</ele>
        <time>2021-01-24T10:00:47.000Z</time>
      </trkpt>
      <trkpt lat="45.25724" lon="6.50456">
        <ele>2387</ele>
        <time>2021-01-24T10:00:48.000Z</time>
      </trkpt>
      <trkpt lat="45.25721" lon="6.50462">
        <ele>2388.1999511719</ele>
        <time>2021-01-24T10:00:53.000Z</time>
      </trkpt>
      <trkpt lat="45.25721" lon="6.50464">
        <ele>2389</ele>
        <time>2021-01-24T10:00:55.000Z</time>
      </trkpt>
      <trkpt lat="45.25722" lon="6.50465">
        <ele>2389.3999023438</ele>
        <time>2021-01-24T10:00:57.000Z</time>
      </trkpt>
      <trkpt lat="45.25719" lon="6.50469">
        <ele>2390</ele>
        <time>2021-01-24T10:01:02.000Z</time>
      </trkpt>
      <trkpt lat="45.25719" lon="6.50472">
        <ele>2390.3999023438</ele>
        <time>2021-01-24T10:01:06.000Z</time>
      </trkpt>
      <trkpt lat="45.25719" lon="6.50475">
        <ele>2391.3999023438</ele>
        <time>2021-01-24T10:01:11.000Z</time>
      </trkpt>
      <trkpt lat="45.25719" lon="6.50476">
        <ele>2391.3999023438</ele>
        <time>2021-01-24T10:01:12.000Z</time>
      </trkpt>
      <trkpt lat="45.25719" lon="6.50482">
        <ele>2392.3999023438</ele>
        <time>2021-01-24T10:01:19.000Z</time>
      </trkpt>
      <trkpt lat="45.25719" lon="6.50483">
        <ele>2392.8000488281</ele>
        <time>2021-01-24T10:01:20.000Z</time>
      </trkpt>
      <trkpt lat="45.25719" lon="6.50484">
        <ele>2393.6000976562</ele>
        <time>2021-01-24T10:01:23.000Z</time>
      </trkpt>
      <trkpt lat="45.25719" lon="6.50484">
        <ele>2394.1999511719</ele>
        <time>2021-01-24T10:01:29.000Z</time>
      </trkpt>
      <trkpt lat="45.2572" lon="6.50488">
        <ele>2393.8000488281</ele>
        <time>2021-01-24T10:01:38.000Z</time>
      </trkpt>
      <trkpt lat="45.25721" lon="6.50489">
        <ele>2394.6000976562</ele>
        <time>2021-01-24T10:01:40.000Z</time>
      </trkpt>
      <trkpt lat="45.25723" lon="6.50488">
        <ele>2394.8000488281</ele>
        <time>2021-01-24T10:01:43.000Z</time>
      </trkpt>
      <trkpt lat="45.25724" lon="6.50489">
        <ele>2395.8000488281</ele>
        <time>2021-01-24T10:01:45.000Z</time>
      </trkpt>
      <trkpt lat="45.25727" lon="6.50489">
        <ele>2396.8000488281</ele>
        <time>2021-01-24T10:01:49.000Z</time>
      </trkpt>
      <trkpt lat="45.25727" lon="6.50489">
        <ele>2396.6000976562</ele>
        <time>2021-01-24T10:01:51.000Z</time>
      </trkpt>
      <trkpt lat="45.2573" lon="6.50489">
        <ele>2398</ele>
        <time>2021-01-24T10:01:55.000Z</time>
      </trkpt>
      <trkpt lat="45.25731" lon="6.5049">
        <ele>2399</ele>
        <time>2021-01-24T10:01:59.000Z</time>
      </trkpt>
      <trkpt lat="45.25732" lon="6.5049">
        <ele>2399</ele>
        <time>2021-01-24T10:02:00.000Z</time>
      </trkpt>
      <trkpt lat="45.25734" lon="6.50491">
        <ele>2400.1999511719</ele>
        <time>2021-01-24T10:02:04.000Z</time>
      </trkpt>
      <trkpt lat="45.25735" lon="6.50493">
        <ele>2400.8000488281</ele>
        <time>2021-01-24T10:02:07.000Z</time>
      </trkpt>
      <trkpt lat="45.25735" lon="6.50494">
        <ele>2401.3999023438</ele>
        <time>2021-01-24T10:02:09.000Z</time>
      </trkpt>
      <trkpt lat="45.25733" lon="6.50499">
        <ele>2402</ele>
        <time>2021-01-24T10:02:17.000Z</time>
      </trkpt>
      <trkpt lat="45.25733" lon="6.50502">
        <ele>2402.6000976562</ele>
        <time>2021-01-24T10:02:20.000Z</time>
      </trkpt>
      <trkpt lat="45.25733" lon="6.50505">
        <ele>2403.8000488281</ele>
        <time>2021-01-24T10:02:23.000Z</time>
      </trkpt>
      <trkpt lat="45.25733" lon="6.50505">
        <ele>2404.3999023438</ele>
        <time>2021-01-24T10:02:26.000Z</time>
      </trkpt>
      <trkpt lat="45.25733" lon="6.50505">
        <ele>2405</ele>
        <time>2021-01-24T10:02:32.000Z</time>
      </trkpt>
      <trkpt lat="45.25733" lon="6.50505">
        <ele>2405.8000488281</ele>
        <time>2021-01-24T10:02:36.000Z</time>
      </trkpt>
      <trkpt lat="45.25733" lon="6.50505">
        <ele>2405.8000488281</ele>
        <time>2021-01-24T10:02:47.000Z</time>
      </trkpt>
      <trkpt lat="45.25733" lon="6.50505">
        <ele>2406</ele>
        <time>2021-01-24T10:02:49.000Z</time>
      </trkpt>
      <trkpt lat="45.25733" lon="6.50505">
        <ele>2405.3999023438</ele>
        <time>2021-01-24T10:02:58.000Z</time>
      </trkpt>
      <trkpt lat="45.25733" lon="6.50516">
        <ele>2406.8000488281</ele>
        <time>2021-01-24T10:03:07.000Z</time>
      </trkpt>
      <trkpt lat="45.25733" lon="6.50518">
        <ele>2407</ele>
        <time>2021-01-24T10:03:08.000Z</time>
      </trkpt>
      <trkpt lat="45.25732" lon="6.50524">
        <ele>2408.1999511719</ele>
        <time>2021-01-24T10:03:15.000Z</time>
      </trkpt>
      <trkpt lat="45.25732" lon="6.50533">
        <ele>2409.1999511719</ele>
        <time>2021-01-24T10:03:23.000Z</time>
      </trkpt>
      <trkpt lat="45.25729" lon="6.50534">
        <ele>2410.3999023438</ele>
        <time>2021-01-24T10:03:29.000Z</time>
      </trkpt>
      <trkpt lat="45.25729" lon="6.50535">
        <ele>2410.8000488281</ele>
        <time>2021-01-24T10:03:30.000Z</time>
      </trkpt>
      <trkpt lat="45.25729" lon="6.50536">
        <ele>2411.3999023438</ele>
        <time>2021-01-24T10:03:32.000Z</time>
      </trkpt>
      <trkpt lat="45.25728" lon="6.50539">
        <ele>2411.8000488281</ele>
        <time>2021-01-24T10:03:36.000Z</time>
      </trkpt>
      <trkpt lat="45.25726" lon="6.50541">
        <ele>2412.6000976562</ele>
        <time>2021-01-24T10:03:40.000Z</time>
      </trkpt>
      <trkpt lat="45.25725" lon="6.50543">
        <ele>2413</ele>
        <time>2021-01-24T10:03:42.000Z</time>
      </trkpt>
      <trkpt lat="45.25724" lon="6.50545">
        <ele>2413.6000976562</ele>
        <time>2021-01-24T10:03:45.000Z</time>
      </trkpt>
      <trkpt lat="45.25723" lon="6.50546">
        <ele>2414</ele>
        <time>2021-01-24T10:03:48.000Z</time>
      </trkpt>
      <trkpt lat="45.25722" lon="6.50547">
        <ele>2414.6000976562</ele>
        <time>2021-01-24T10:03:50.000Z</time>
      </trkpt>
      <trkpt lat="45.25719" lon="6.50549">
        <ele>2415.8000488281</ele>
        <time>2021-01-24T10:03:54.000Z</time>
      </trkpt>
      <trkpt lat="45.25718" lon="6.50551">
        <ele>2416.1999511719</ele>
        <time>2021-01-24T10:03:57.000Z</time>
      </trkpt>
      <trkpt lat="45.25716" lon="6.50554">
        <ele>2416.8000488281</ele>
        <time>2021-01-24T10:04:02.000Z</time>
      </trkpt>
      <trkpt lat="45.25716" lon="6.50554">
        <ele>2416.8000488281</ele>
        <time>2021-01-24T10:04:03.000Z</time>
      </trkpt>
      <trkpt lat="45.25716" lon="6.50554">
        <ele>2417.1999511719</ele>
        <time>2021-01-24T10:04:14.000Z</time>
      </trkpt>
      <trkpt lat="45.25718" lon="6.50554">
        <ele>2417.3999023438</ele>
        <time>2021-01-24T10:04:22.000Z</time>
      </trkpt>
      <trkpt lat="45.25718" lon="6.50554">
        <ele>2417.8000488281</ele>
        <time>2021-01-24T10:04:25.000Z</time>
      </trkpt>
      <trkpt lat="45.25721" lon="6.50555">
        <ele>2418.1999511719</ele>
        <time>2021-01-24T10:04:29.000Z</time>
      </trkpt>
      <trkpt lat="45.25722" lon="6.50556">
        <ele>2419</ele>
        <time>2021-01-24T10:04:32.000Z</time>
      </trkpt>
      <trkpt lat="45.25722" lon="6.50556">
        <ele>2420</ele>
        <time>2021-01-24T10:04:37.000Z</time>
      </trkpt>
      <trkpt lat="45.25723" lon="6.50556">
        <ele>2420.1999511719</ele>
        <time>2021-01-24T10:04:38.000Z</time>
      </trkpt>
      <trkpt lat="45.25723" lon="6.50556">
        <ele>2421</ele>
        <time>2021-01-24T10:04:41.000Z</time>
      </trkpt>
      <trkpt lat="45.25725" lon="6.50555">
        <ele>2421.6000976562</ele>
        <time>2021-01-24T10:04:47.000Z</time>
      </trkpt>
      <trkpt lat="45.25725" lon="6.50555">
        <ele>2422.3999023438</ele>
        <time>2021-01-24T10:04:51.000Z</time>
      </trkpt>
      <trkpt lat="45.25725" lon="6.50556">
        <ele>2423</ele>
        <time>2021-01-24T10:04:55.000Z</time>
      </trkpt>
      <trkpt lat="45.25724" lon="6.50562">
        <ele>2423.6000976562</ele>
        <time>2021-01-24T10:05:04.000Z</time>
      </trkpt>
      <trkpt lat="45.25723" lon="6.50564">
        <ele>2424.6000976562</ele>
        <time>2021-01-24T10:05:08.000Z</time>
      </trkpt>
      <trkpt lat="45.25722" lon="6.50567">
        <ele>2425</ele>
        <time>2021-01-24T10:05:12.000Z</time>
      </trkpt>
      <trkpt lat="45.25721" lon="6.50572">
        <ele>2425.6000976562</ele>
        <time>2021-01-24T10:05:16.000Z</time>
      </trkpt>
      <trkpt lat="45.25721" lon="6.50576">
        <ele>2426.3999023438</ele>
        <time>2021-01-24T10:05:20.000Z</time>
      </trkpt>
      <trkpt lat="45.25721" lon="6.50577">
        <ele>2426.6000976562</ele>
        <time>2021-01-24T10:05:21.000Z</time>
      </trkpt>
      <trkpt lat="45.2572" lon="6.50581">
        <ele>2427.3999023438</ele>
        <time>2021-01-24T10:05:27.000Z</time>
      </trkpt>
      <trkpt lat="45.25719" lon="6.50583">
        <ele>2428</ele>
        <time>2021-01-24T10:05:29.000Z</time>
      </trkpt>
      <trkpt lat="45.25719" lon="6.50588">
        <ele>2429</ele>
        <time>2021-01-24T10:05:35.000Z</time>
      </trkpt>
      <trkpt lat="45.25719" lon="6.50588">
        <ele>2429</ele>
        <time>2021-01-24T10:05:36.000Z</time>
      </trkpt>
      <trkpt lat="45.25718" lon="6.50591">
        <ele>2430</ele>
        <time>2021-01-24T10:05:43.000Z</time>
      </trkpt>
      <trkpt lat="45.25717" lon="6.50595">
        <ele>2431.1999511719</ele>
        <time>2021-01-24T10:05:50.000Z</time>
      </trkpt>
      <trkpt lat="45.25717" lon="6.50598">
        <ele>2431.6000976562</ele>
        <time>2021-01-24T10:05:52.000Z</time>
      </trkpt>
      <trkpt lat="45.25717" lon="6.50602">
        <ele>2432.1999511719</ele>
        <time>2021-01-24T10:05:59.000Z</time>
      </trkpt>
      <trkpt lat="45.25716" lon="6.50604">
        <ele>2433.1999511719</ele>
        <time>2021-01-24T10:06:04.000Z</time>
      </trkpt>
      <trkpt lat="45.25716" lon="6.50604">
        <ele>2433.3999023438</ele>
        <time>2021-01-24T10:06:07.000Z</time>
      </trkpt>
      <trkpt lat="45.25716" lon="6.50604">
        <ele>2433.1999511719</ele>
        <time>2021-01-24T10:06:20.000Z</time>
      </trkpt>
      <trkpt lat="45.25716" lon="6.50604">
        <ele>2433.1999511719</ele>
        <time>2021-01-24T10:06:33.000Z</time>
      </trkpt>
      <trkpt lat="45.25716" lon="6.50603">
        <ele>2433.1999511719</ele>
        <time>2021-01-24T10:06:46.000Z</time>
      </trkpt>
      <trkpt lat="45.25716" lon="6.50602">
        <ele>2433.1999511719</ele>
        <time>2021-01-24T10:06:58.000Z</time>
      </trkpt>
      <trkpt lat="45.25715" lon="6.50603">
        <ele>2433.8000488281</ele>
        <time>2021-01-24T10:07:04.000Z</time>
      </trkpt>
      <trkpt lat="45.25715" lon="6.50603">
        <ele>2433</ele>
        <time>2021-01-24T10:07:15.000Z</time>
      </trkpt>
      <trkpt lat="45.25717" lon="6.50611">
        <ele>2434</ele>
        <time>2021-01-24T10:07:24.000Z</time>
      </trkpt>
      <trkpt lat="45.25717" lon="6.50611">
        <ele>2434.3999023438</ele>
        <time>2021-01-24T10:07:25.000Z</time>
      </trkpt>
      <trkpt lat="45.25719" lon="6.50618">
        <ele>2435.3999023438</ele>
        <time>2021-01-24T10:07:30.000Z</time>
      </trkpt>
      <trkpt lat="45.25718" lon="6.50628">
        <ele>2436.3999023438</ele>
        <time>2021-01-24T10:07:38.000Z</time>
      </trkpt>
      <trkpt lat="45.25718" lon="6.50638">
        <ele>2437.1999511719</ele>
        <time>2021-01-24T10:07:46.000Z</time>
      </trkpt>
      <trkpt lat="45.25718" lon="6.5064">
        <ele>2437.3999023438</ele>
        <time>2021-01-24T10:07:48.000Z</time>
      </trkpt>
      <trkpt lat="45.25719" lon="6.50645">
        <ele>2438.1999511719</ele>
        <time>2021-01-24T10:07:55.000Z</time>
      </trkpt>
      <trkpt lat="45.25719" lon="6.50645">
        <ele>2438.1999511719</ele>
        <time>2021-01-24T10:08:03.000Z</time>
      </trkpt>
      <trkpt lat="45.25719" lon="6.50645">
        <ele>2438.6000976562</ele>
        <time>2021-01-24T10:08:05.000Z</time>
      </trkpt>
      <trkpt lat="45.25719" lon="6.50645">
        <ele>2438.8000488281</ele>
        <time>2021-01-24T10:08:17.000Z</time>
      </trkpt>
      <trkpt lat="45.25719" lon="6.50645">
        <ele>2438.6000976562</ele>
        <time>2021-01-24T10:08:31.000Z</time>
      </trkpt>
      <trkpt lat="45.25718" lon="6.5066">
        <ele>2439.6000976562</ele>
        <time>2021-01-24T10:08:39.000Z</time>
      </trkpt>
      <trkpt lat="45.25718" lon="6.50662">
        <ele>2439.8000488281</ele>
        <time>2021-01-24T10:08:40.000Z</time>
      </trkpt>
      <trkpt lat="45.25718" lon="6.50673">
        <ele>2440.8000488281</ele>
        <time>2021-01-24T10:08:46.000Z</time>
      </trkpt>
      <trkpt lat="45.25717" lon="6.50676">
        <ele>2441.3999023438</ele>
        <time>2021-01-24T10:08:50.000Z</time>
      </trkpt>
      <trkpt lat="45.25716" lon="6.50679">
        <ele>2442</ele>
        <time>2021-01-24T10:08:53.000Z</time>
      </trkpt>
      <trkpt lat="45.25715" lon="6.50681">
        <ele>2442.6000976562</ele>
        <time>2021-01-24T10:08:56.000Z</time>
      </trkpt>
      <trkpt lat="45.25716" lon="6.50683">
        <ele>2442.8000488281</ele>
        <time>2021-01-24T10:08:58.000Z</time>
      </trkpt>
      <trkpt lat="45.25716" lon="6.50687">
        <ele>2443</ele>
        <time>2021-01-24T10:09:02.000Z</time>
      </trkpt>
      <trkpt lat="45.25716" lon="6.50687">
        <ele>2443.3999023438</ele>
        <time>2021-01-24T10:09:05.000Z</time>
      </trkpt>
      <trkpt lat="45.25716" lon="6.50687">
        <ele>2444</ele>
        <time>2021-01-24T10:09:07.000Z</time>
      </trkpt>
      <trkpt lat="45.25716" lon="6.50687">
        <ele>2443.8000488281</ele>
        <time>2021-01-24T10:09:18.000Z</time>
      </trkpt>
      <trkpt lat="45.25716" lon="6.50687">
        <ele>2444.1999511719</ele>
        <time>2021-01-24T10:09:31.000Z</time>
      </trkpt>
      <trkpt lat="45.25716" lon="6.50687">
        <ele>2445.1999511719</ele>
        <time>2021-01-24T10:09:37.000Z</time>
      </trkpt>
      <trkpt lat="45.25716" lon="6.50687">
        <ele>2444.3999023438</ele>
        <time>2021-01-24T10:09:45.000Z</time>
      </trkpt>
      <trkpt lat="45.25716" lon="6.50687">
        <ele>2444.8000488281</ele>
        <time>2021-01-24T10:09:58.000Z</time>
      </trkpt>
      <trkpt lat="45.25716" lon="6.50687">
        <ele>2444.6000976562</ele>
        <time>2021-01-24T10:10:17.000Z</time>
      </trkpt>
      <trkpt lat="45.25716" lon="6.50691">
        <ele>2444.8000488281</ele>
        <time>2021-01-24T10:10:25.000Z</time>
      </trkpt>
      <trkpt lat="45.25716" lon="6.50693">
        <ele>2446</ele>
        <time>2021-01-24T10:10:34.000Z</time>
      </trkpt>
      <trkpt lat="45.25716" lon="6.50693">
        <ele>2446.1999511719</ele>
        <time>2021-01-24T10:10:45.000Z</time>
      </trkpt>
      <trkpt lat="45.25716" lon="6.50693">
        <ele>2446.6000976562</ele>
        <time>2021-01-24T10:10:50.000Z</time>
      </trkpt>
      <trkpt lat="45.25716" lon="6.50693">
        <ele>2445.6000976562</ele>
        <time>2021-01-24T10:11:01.000Z</time>
      </trkpt>
      <trkpt lat="45.25716" lon="6.50693">
        <ele>2445.1999511719</ele>
        <time>2021-01-24T10:11:07.000Z</time>
      </trkpt>
      <trkpt lat="45.25716" lon="6.50693">
        <ele>2445.6000976562</ele>
        <time>2021-01-24T10:11:14.000Z</time>
      </trkpt>
      <trkpt lat="45.25717" lon="6.50698">
        <ele>2446.1999511719</ele>
        <time>2021-01-24T10:11:20.000Z</time>
      </trkpt>
      <trkpt lat="45.25717" lon="6.50701">
        <ele>2446.6000976562</ele>
        <time>2021-01-24T10:11:22.000Z</time>
      </trkpt>
      <trkpt lat="45.25716" lon="6.50705">
        <ele>2447.3999023438</ele>
        <time>2021-01-24T10:11:26.000Z</time>
      </trkpt>
      <trkpt lat="45.25716" lon="6.5071">
        <ele>2448</ele>
        <time>2021-01-24T10:11:30.000Z</time>
      </trkpt>
      <trkpt lat="45.25716" lon="6.50713">
        <ele>2448.6000976562</ele>
        <time>2021-01-24T10:11:32.000Z</time>
      </trkpt>
      <trkpt lat="45.25715" lon="6.5072">
        <ele>2449</ele>
        <time>2021-01-24T10:11:39.000Z</time>
      </trkpt>
      <trkpt lat="45.25714" lon="6.50724">
        <ele>2449.6000976562</ele>
        <time>2021-01-24T10:11:43.000Z</time>
      </trkpt>
      <trkpt lat="45.25715" lon="6.50729">
        <ele>2450.6000976562</ele>
        <time>2021-01-24T10:11:47.000Z</time>
      </trkpt>
      <trkpt lat="45.25715" lon="6.50733">
        <ele>2451</ele>
        <time>2021-01-24T10:11:49.000Z</time>
      </trkpt>
      <trkpt lat="45.25713" lon="6.50739">
        <ele>2451.8000488281</ele>
        <time>2021-01-24T10:11:55.000Z</time>
      </trkpt>
      <trkpt lat="45.25713" lon="6.50741">
        <ele>2452</ele>
        <time>2021-01-24T10:11:57.000Z</time>
      </trkpt>
      <trkpt lat="45.25713" lon="6.50746">
        <ele>2453</ele>
        <time>2021-01-24T10:12:03.000Z</time>
      </trkpt>
      <trkpt lat="45.25713" lon="6.50747">
        <ele>2453.3999023438</ele>
        <time>2021-01-24T10:12:05.000Z</time>
      </trkpt>
      <trkpt lat="45.25713" lon="6.50753">
        <ele>2454.1999511719</ele>
        <time>2021-01-24T10:12:11.000Z</time>
      </trkpt>
      <trkpt lat="45.25713" lon="6.50755">
        <ele>2454.3999023438</ele>
        <time>2021-01-24T10:12:14.000Z</time>
      </trkpt>
      <trkpt lat="45.25713" lon="6.50758">
        <ele>2455.3999023438</ele>
        <time>2021-01-24T10:12:19.000Z</time>
      </trkpt>
      <trkpt lat="45.25713" lon="6.50761">
        <ele>2456.8000488281</ele>
        <time>2021-01-24T10:12:23.000Z</time>
      </trkpt>
      <trkpt lat="45.25713" lon="6.50761">
        <ele>2457</ele>
        <time>2021-01-24T10:12:24.000Z</time>
      </trkpt>
      <trkpt lat="45.25711" lon="6.50762">
        <ele>2457</ele>
        <time>2021-01-24T10:12:34.000Z</time>
      </trkpt>
      <trkpt lat="45.25709" lon="6.50763">
        <ele>2457.8000488281</ele>
        <time>2021-01-24T10:12:38.000Z</time>
      </trkpt>
      <trkpt lat="45.25707" lon="6.50766">
        <ele>2459</ele>
        <time>2021-01-24T10:12:43.000Z</time>
      </trkpt>
      <trkpt lat="45.25704" lon="6.50768">
        <ele>2460</ele>
        <time>2021-01-24T10:12:48.000Z</time>
      </trkpt>
      <trkpt lat="45.25702" lon="6.50769">
        <ele>2461</ele>
        <time>2021-01-24T10:12:52.000Z</time>
      </trkpt>
      <trkpt lat="45.25702" lon="6.50769">
        <ele>2461.3999023438</ele>
        <time>2021-01-24T10:12:54.000Z</time>
      </trkpt>
      <trkpt lat="45.25701" lon="6.5077">
        <ele>2462</ele>
        <time>2021-01-24T10:13:00.000Z</time>
      </trkpt>
      <trkpt lat="45.25701" lon="6.5077">
        <ele>2462.1999511719</ele>
        <time>2021-01-24T10:13:01.000Z</time>
      </trkpt>
      <trkpt lat="45.25701" lon="6.50774">
        <ele>2462.6000976562</ele>
        <time>2021-01-24T10:13:10.000Z</time>
      </trkpt>
      <trkpt lat="45.25702" lon="6.50776">
        <ele>2463.3999023438</ele>
        <time>2021-01-24T10:13:12.000Z</time>
      </trkpt>
      <trkpt lat="45.25703" lon="6.50778">
        <ele>2464.3999023438</ele>
        <time>2021-01-24T10:13:16.000Z</time>
      </trkpt>
      <trkpt lat="45.25703" lon="6.50778">
        <ele>2465.1999511719</ele>
        <time>2021-01-24T10:13:22.000Z</time>
      </trkpt>
      <trkpt lat="45.25703" lon="6.50778">
        <ele>2465.1999511719</ele>
        <time>2021-01-24T10:13:44.000Z</time>
      </trkpt>
      <trkpt lat="45.25703" lon="6.50778">
        <ele>2465.6000976562</ele>
        <time>2021-01-24T10:13:55.000Z</time>
      </trkpt>
      <trkpt lat="45.25703" lon="6.50778">
        <ele>2465.8000488281</ele>
        <time>2021-01-24T10:14:00.000Z</time>
      </trkpt>
      <trkpt lat="45.25703" lon="6.50778">
        <ele>2466.8000488281</ele>
        <time>2021-01-24T10:14:09.000Z</time>
      </trkpt>
      <trkpt lat="45.25703" lon="6.50778">
        <ele>2467</ele>
        <time>2021-01-24T10:14:10.000Z</time>
      </trkpt>
      <trkpt lat="45.25703" lon="6.50778">
        <ele>2467.8000488281</ele>
        <time>2021-01-24T10:14:15.000Z</time>
      </trkpt>
      <trkpt lat="45.25704" lon="6.50779">
        <ele>2467.1999511719</ele>
        <time>2021-01-24T10:14:23.000Z</time>
      </trkpt>
      <trkpt lat="45.25706" lon="6.5078">
        <ele>2467</ele>
        <time>2021-01-24T10:14:33.000Z</time>
      </trkpt>
      <trkpt lat="45.25705" lon="6.50781">
        <ele>2467.6000976562</ele>
        <time>2021-01-24T10:14:42.000Z</time>
      </trkpt>
      <trkpt lat="45.25702" lon="6.50782">
        <ele>2468</ele>
        <time>2021-01-24T10:14:50.000Z</time>
      </trkpt>
      <trkpt lat="45.25702" lon="6.50782">
        <ele>2467.1999511719</ele>
        <time>2021-01-24T10:15:00.000Z</time>
      </trkpt>
      <trkpt lat="45.25702" lon="6.50782">
        <ele>2467</ele>
        <time>2021-01-24T10:15:10.000Z</time>
      </trkpt>
      <trkpt lat="45.25702" lon="6.50782">
        <ele>2466.8000488281</ele>
        <time>2021-01-24T10:15:13.000Z</time>
      </trkpt>
      <trkpt lat="45.257" lon="6.50777">
        <ele>2465.8000488281</ele>
        <time>2021-01-24T10:15:21.000Z</time>
      </trkpt>
      <trkpt lat="45.257" lon="6.50777">
        <ele>2465.6000976562</ele>
        <time>2021-01-24T10:15:22.000Z</time>
      </trkpt>
      <trkpt lat="45.25699" lon="6.50776">
        <ele>2464.6000976562</ele>
        <time>2021-01-24T10:15:26.000Z</time>
      </trkpt>
      <trkpt lat="45.25699" lon="6.50776">
        <ele>2464.6000976562</ele>
        <time>2021-01-24T10:15:34.000Z</time>
      </trkpt>
      <trkpt lat="45.25694" lon="6.50773">
        <ele>2464.8000488281</ele>
        <time>2021-01-24T10:15:42.000Z</time>
      </trkpt>
      <trkpt lat="45.25685" lon="6.50769">
        <ele>2464.8000488281</ele>
        <time>2021-01-24T10:15:54.000Z</time>
      </trkpt>
      <trkpt lat="45.25683" lon="6.50769">
        <ele>2465.6000976562</ele>
        <time>2021-01-24T10:15:59.000Z</time>
      </trkpt>
      <trkpt lat="45.2568" lon="6.50767">
        <ele>2465.6000976562</ele>
        <time>2021-01-24T10:16:03.000Z</time>
      </trkpt>
      <trkpt lat="45.2568" lon="6.50767">
        <ele>2466.6000976562</ele>
        <time>2021-01-24T10:16:08.000Z</time>
      </trkpt>
      <trkpt lat="45.2568" lon="6.50767">
        <ele>2466</ele>
        <time>2021-01-24T10:16:15.000Z</time>
      </trkpt>
      <trkpt lat="45.2568" lon="6.50767">
        <ele>2465.6000976562</ele>
        <time>2021-01-24T10:16:19.000Z</time>
      </trkpt>
      <trkpt lat="45.2568" lon="6.50767">
        <ele>2465.8000488281</ele>
        <time>2021-01-24T10:16:30.000Z</time>
      </trkpt>
      <trkpt lat="45.25681" lon="6.50767">
        <ele>2465.1999511719</ele>
        <time>2021-01-24T10:16:43.000Z</time>
      </trkpt>
      <trkpt lat="45.25681" lon="6.50767">
        <ele>2464.3999023438</ele>
        <time>2021-01-24T10:16:47.000Z</time>
      </trkpt>
      <trkpt lat="45.25681" lon="6.50767">
        <ele>2463.6000976562</ele>
        <time>2021-01-24T10:16:55.000Z</time>
      </trkpt>
      <trkpt lat="45.25681" lon="6.50767">
        <ele>2463.3999023438</ele>
        <time>2021-01-24T10:17:04.000Z</time>
      </trkpt>
      <trkpt lat="45.25681" lon="6.50767">
        <ele>2462.8000488281</ele>
        <time>2021-01-24T10:17:09.000Z</time>
      </trkpt>
      <trkpt lat="45.2568" lon="6.50763">
        <ele>2462.3999023438</ele>
        <time>2021-01-24T10:17:17.000Z</time>
      </trkpt>
      <trkpt lat="45.2568" lon="6.50763">
        <ele>2462.1999511719</ele>
        <time>2021-01-24T10:17:19.000Z</time>
      </trkpt>
      <trkpt lat="45.25683" lon="6.5076">
        <ele>2461.8000488281</ele>
        <time>2021-01-24T10:17:21.000Z</time>
      </trkpt>
      <trkpt lat="45.2569" lon="6.50757">
        <ele>2461.1999511719</ele>
        <time>2021-01-24T10:17:24.000Z</time>
      </trkpt>
      <trkpt lat="45.25696" lon="6.50753">
        <ele>2460</ele>
        <time>2021-01-24T10:17:26.000Z</time>
      </trkpt>
      <trkpt lat="45.25702" lon="6.50746">
        <ele>2459</ele>
        <time>2021-01-24T10:17:28.000Z</time>
      </trkpt>
      <trkpt lat="45.25707" lon="6.50736">
        <ele>2457.1999511719</ele>
        <time>2021-01-24T10:17:30.000Z</time>
      </trkpt>
      <trkpt lat="45.25709" lon="6.50733">
        <ele>2456</ele>
        <time>2021-01-24T10:17:31.000Z</time>
      </trkpt>
      <trkpt lat="45.2571" lon="6.5073">
        <ele>2453.3999023438</ele>
        <time>2021-01-24T10:17:32.000Z</time>
      </trkpt>
      <trkpt lat="45.2571" lon="6.50727">
        <ele>2452</ele>
        <time>2021-01-24T10:17:33.000Z</time>
      </trkpt>
      <trkpt lat="45.25711" lon="6.50725">
        <ele>2451</ele>
        <time>2021-01-24T10:17:34.000Z</time>
      </trkpt>
      <trkpt lat="45.25711" lon="6.50719">
        <ele>2449.3999023438</ele>
        <time>2021-01-24T10:17:36.000Z</time>
      </trkpt>
      <trkpt lat="45.25711" lon="6.50712">
        <ele>2448</ele>
        <time>2021-01-24T10:17:39.000Z</time>
      </trkpt>
      <trkpt lat="45.25713" lon="6.50707">
        <ele>2447</ele>
        <time>2021-01-24T10:17:41.000Z</time>
      </trkpt>
      <trkpt lat="45.25716" lon="6.50701">
        <ele>2446.1999511719</ele>
        <time>2021-01-24T10:17:45.000Z</time>
      </trkpt>
      <trkpt lat="45.25717" lon="6.50692">
        <ele>2446</ele>
        <time>2021-01-24T10:17:49.000Z</time>
      </trkpt>
      <trkpt lat="45.25718" lon="6.50683">
        <ele>2444.8000488281</ele>
        <time>2021-01-24T10:17:52.000Z</time>
      </trkpt>
      <trkpt lat="45.25718" lon="6.5068">
        <ele>2444.3999023438</ele>
        <time>2021-01-24T10:17:53.000Z</time>
      </trkpt>
      <trkpt lat="45.2572" lon="6.5067">
        <ele>2443.3999023438</ele>
        <time>2021-01-24T10:17:55.000Z</time>
      </trkpt>
      <trkpt lat="45.25721" lon="6.50656">
        <ele>2442</ele>
        <time>2021-01-24T10:17:58.000Z</time>
      </trkpt>
      <trkpt lat="45.25722" lon="6.50649">
        <ele>2440.8000488281</ele>
        <time>2021-01-24T10:18:00.000Z</time>
      </trkpt>
      <trkpt lat="45.25721" lon="6.50643">
        <ele>2439</ele>
        <time>2021-01-24T10:18:02.000Z</time>
      </trkpt>
      <trkpt lat="45.25721" lon="6.50638">
        <ele>2438</ele>
        <time>2021-01-24T10:18:04.000Z</time>
      </trkpt>
      <trkpt lat="45.2572" lon="6.50628">
        <ele>2437</ele>
        <time>2021-01-24T10:18:07.000Z</time>
      </trkpt>
      <trkpt lat="45.2572" lon="6.50625">
        <ele>2436.6000976562</ele>
        <time>2021-01-24T10:18:08.000Z</time>
      </trkpt>
      <trkpt lat="45.2572" lon="6.50619">
        <ele>2435.6000976562</ele>
        <time>2021-01-24T10:18:10.000Z</time>
      </trkpt>
      <trkpt lat="45.25718" lon="6.50612">
        <ele>2434.3999023438</ele>
        <time>2021-01-24T10:18:14.000Z</time>
      </trkpt>
      <trkpt lat="45.25718" lon="6.50606">
        <ele>2433.3999023438</ele>
        <time>2021-01-24T10:18:16.000Z</time>
      </trkpt>
      <trkpt lat="45.25719" lon="6.50594">
        <ele>2432</ele>
        <time>2021-01-24T10:18:19.000Z</time>
      </trkpt>
      <trkpt lat="45.25719" lon="6.50589">
        <ele>2431.1999511719</ele>
        <time>2021-01-24T10:18:20.000Z</time>
      </trkpt>
      <trkpt lat="45.2572" lon="6.50585">
        <ele>2430.8000488281</ele>
        <time>2021-01-24T10:18:21.000Z</time>
      </trkpt>
      <trkpt lat="45.25722" lon="6.50577">
        <ele>2429.6000976562</ele>
        <time>2021-01-24T10:18:23.000Z</time>
      </trkpt>
      <trkpt lat="45.25722" lon="6.50573">
        <ele>2428.6000976562</ele>
        <time>2021-01-24T10:18:24.000Z</time>
      </trkpt>
      <trkpt lat="45.25725" lon="6.50567">
        <ele>2427</ele>
        <time>2021-01-24T10:18:26.000Z</time>
      </trkpt>
      <trkpt lat="45.25728" lon="6.5056">
        <ele>2425.3999023438</ele>
        <time>2021-01-24T10:18:28.000Z</time>
      </trkpt>
      <trkpt lat="45.25731" lon="6.50553">
        <ele>2423.8000488281</ele>
        <time>2021-01-24T10:18:30.000Z</time>
      </trkpt>
      <trkpt lat="45.25733" lon="6.50548">
        <ele>2422.3999023438</ele>
        <time>2021-01-24T10:18:32.000Z</time>
      </trkpt>
      <trkpt lat="45.25734" lon="6.50547">
        <ele>2421.6000976562</ele>
        <time>2021-01-24T10:18:33.000Z</time>
      </trkpt>
      <trkpt lat="45.25734" lon="6.50547">
        <ele>2420.8000488281</ele>
        <time>2021-01-24T10:18:34.000Z</time>
      </trkpt>
      <trkpt lat="45.25734" lon="6.50547">
        <ele>2419.8000488281</ele>
        <time>2021-01-24T10:18:36.000Z</time>
      </trkpt>
      <trkpt lat="45.25734" lon="6.50547">
        <ele>2419.1999511719</ele>
        <time>2021-01-24T10:18:38.000Z</time>
      </trkpt>
      <trkpt lat="45.25735" lon="6.50547">
        <ele>2418.8000488281</ele>
        <time>2021-01-24T10:18:39.000Z</time>
      </trkpt>
      <trkpt lat="45.25738" lon="6.50537">
        <ele>2418.1999511719</ele>
        <time>2021-01-24T10:18:43.000Z</time>
      </trkpt>
      <trkpt lat="45.25739" lon="6.50534">
        <ele>2417.8000488281</ele>
        <time>2021-01-24T10:18:44.000Z</time>
      </trkpt>
      <trkpt lat="45.2574" lon="6.50525">
        <ele>2416.1999511719</ele>
        <time>2021-01-24T10:18:47.000Z</time>
      </trkpt>
      <trkpt lat="45.2574" lon="6.50521">
        <ele>2414.8000488281</ele>
        <time>2021-01-24T10:18:49.000Z</time>
      </trkpt>
      <trkpt lat="45.25741" lon="6.50519">
        <ele>2414</ele>
        <time>2021-01-24T10:18:50.000Z</time>
      </trkpt>
      <trkpt lat="45.25741" lon="6.50517">
        <ele>2413.3999023438</ele>
        <time>2021-01-24T10:18:51.000Z</time>
      </trkpt>
      <trkpt lat="45.25741" lon="6.50514">
        <ele>2412.1999511719</ele>
        <time>2021-01-24T10:18:53.000Z</time>
      </trkpt>
      <trkpt lat="45.25742" lon="6.50512">
        <ele>2411.1999511719</ele>
        <time>2021-01-24T10:18:56.000Z</time>
      </trkpt>
      <trkpt lat="45.25742" lon="6.50511">
        <ele>2410.8000488281</ele>
        <time>2021-01-24T10:18:57.000Z</time>
      </trkpt>
      <trkpt lat="45.25743" lon="6.5051">
        <ele>2410.6000976562</ele>
        <time>2021-01-24T10:18:58.000Z</time>
      </trkpt>
      <trkpt lat="45.25744" lon="6.50506">
        <ele>2410</ele>
        <time>2021-01-24T10:19:00.000Z</time>
      </trkpt>
      <trkpt lat="45.25746" lon="6.50498">
        <ele>2408.6000976562</ele>
        <time>2021-01-24T10:19:03.000Z</time>
      </trkpt>
      <trkpt lat="45.25747" lon="6.50494">
        <ele>2407.8000488281</ele>
        <time>2021-01-24T10:19:04.000Z</time>
      </trkpt>
      <trkpt lat="45.25749" lon="6.50489">
        <ele>2407</ele>
        <time>2021-01-24T10:19:05.000Z</time>
      </trkpt>
      <trkpt lat="45.25751" lon="6.50476">
        <ele>2406</ele>
        <time>2021-01-24T10:19:07.000Z</time>
      </trkpt>
      <trkpt lat="45.25751" lon="6.50469">
        <ele>2405</ele>
        <time>2021-01-24T10:19:08.000Z</time>
      </trkpt>
      <trkpt lat="45.25751" lon="6.50462">
        <ele>2404</ele>
        <time>2021-01-24T10:19:09.000Z</time>
      </trkpt>
      <trkpt lat="45.25751" lon="6.50457">
        <ele>2402.8000488281</ele>
        <time>2021-01-24T10:19:10.000Z</time>
      </trkpt>
      <trkpt lat="45.25751" lon="6.50452">
        <ele>2401.1999511719</ele>
        <time>2021-01-24T10:19:11.000Z</time>
      </trkpt>
      <trkpt lat="45.25751" lon="6.50448">
        <ele>2399.8000488281</ele>
        <time>2021-01-24T10:19:12.000Z</time>
      </trkpt>
      <trkpt lat="45.25751" lon="6.50444">
        <ele>2398.6000976562</ele>
        <time>2021-01-24T10:19:13.000Z</time>
      </trkpt>
      <trkpt lat="45.2575" lon="6.5044">
        <ele>2397.3999023438</ele>
        <time>2021-01-24T10:19:14.000Z</time>
      </trkpt>
      <trkpt lat="45.2575" lon="6.50437">
        <ele>2395.3999023438</ele>
        <time>2021-01-24T10:19:16.000Z</time>
      </trkpt>
      <trkpt lat="45.2575" lon="6.50435">
        <ele>2394.3999023438</ele>
        <time>2021-01-24T10:19:17.000Z</time>
      </trkpt>
      <trkpt lat="45.25751" lon="6.50435">
        <ele>2393.6000976562</ele>
        <time>2021-01-24T10:19:18.000Z</time>
      </trkpt>
      <trkpt lat="45.25751" lon="6.50434">
        <ele>2393</ele>
        <time>2021-01-24T10:19:19.000Z</time>
      </trkpt>
      <trkpt lat="45.25753" lon="6.50431">
        <ele>2392</ele>
        <time>2021-01-24T10:19:26.000Z</time>
      </trkpt>
      <trkpt lat="45.25754" lon="6.50429">
        <ele>2391.8000488281</ele>
        <time>2021-01-24T10:19:27.000Z</time>
      </trkpt>
      <trkpt lat="45.25756" lon="6.50424">
        <ele>2392</ele>
        <time>2021-01-24T10:19:31.000Z</time>
      </trkpt>
      <trkpt lat="45.25758" lon="6.50416">
        <ele>2391.8000488281</ele>
        <time>2021-01-24T10:19:38.000Z</time>
      </trkpt>
      <trkpt lat="45.2576" lon="6.50408">
        <ele>2393</ele>
        <time>2021-01-24T10:19:45.000Z</time>
      </trkpt>
      <trkpt lat="45.2576" lon="6.50406">
        <ele>2393.1999511719</ele>
        <time>2021-01-24T10:19:46.000Z</time>
      </trkpt>
      <trkpt lat="45.25762" lon="6.504">
        <ele>2394</ele>
        <time>2021-01-24T10:19:53.000Z</time>
      </trkpt>
      <trkpt lat="45.25767" lon="6.50391">
        <ele>2394.1999511719</ele>
        <time>2021-01-24T10:20:00.000Z</time>
      </trkpt>
      <trkpt lat="45.2577" lon="6.50384">
        <ele>2393.3999023438</ele>
        <time>2021-01-24T10:20:07.000Z</time>
      </trkpt>
      <trkpt lat="45.2577" lon="6.50383">
        <ele>2393.6000976562</ele>
        <time>2021-01-24T10:20:19.000Z</time>
      </trkpt>
      <trkpt lat="45.25773" lon="6.50369">
        <ele>2393.3999023438</ele>
        <time>2021-01-24T10:20:25.000Z</time>
      </trkpt>
      <trkpt lat="45.25772" lon="6.50358">
        <ele>2392.6000976562</ele>
        <time>2021-01-24T10:20:28.000Z</time>
      </trkpt>
      <trkpt lat="45.25772" lon="6.50353">
        <ele>2391.1999511719</ele>
        <time>2021-01-24T10:20:30.000Z</time>
      </trkpt>
      <trkpt lat="45.25772" lon="6.50346">
        <ele>2390.1999511719</ele>
        <time>2021-01-24T10:20:35.000Z</time>
      </trkpt>
      <trkpt lat="45.25772" lon="6.50342">
        <ele>2390</ele>
        <time>2021-01-24T10:20:38.000Z</time>
      </trkpt>
      <trkpt lat="45.25773" lon="6.50336">
        <ele>2389.8000488281</ele>
        <time>2021-01-24T10:20:45.000Z</time>
      </trkpt>
      <trkpt lat="45.25775" lon="6.50333">
        <ele>2389.8000488281</ele>
        <time>2021-01-24T10:20:57.000Z</time>
      </trkpt>
      <trkpt lat="45.25781" lon="6.50334">
        <ele>2390.3999023438</ele>
        <time>2021-01-24T10:21:03.000Z</time>
      </trkpt>
      <trkpt lat="45.2578" lon="6.50336">
        <ele>2391.6000976562</ele>
        <time>2021-01-24T10:21:05.000Z</time>
      </trkpt>
      <trkpt lat="45.2578" lon="6.50338">
        <ele>2392.8000488281</ele>
        <time>2021-01-24T10:21:07.000Z</time>
      </trkpt>
      <trkpt lat="45.2578" lon="6.5034">
        <ele>2393.1999511719</ele>
        <time>2021-01-24T10:21:09.000Z</time>
      </trkpt>
      <trkpt lat="45.25779" lon="6.50344">
        <ele>2393.3999023438</ele>
        <time>2021-01-24T10:21:16.000Z</time>
      </trkpt>
      <trkpt lat="45.25779" lon="6.50344">
        <ele>2394</ele>
        <time>2021-01-24T10:21:18.000Z</time>
      </trkpt>
      <trkpt lat="45.25782" lon="6.50345">
        <ele>2394.8000488281</ele>
        <time>2021-01-24T10:21:26.000Z</time>
      </trkpt>
      <trkpt lat="45.25782" lon="6.50345">
        <ele>2395</ele>
        <time>2021-01-24T10:21:29.000Z</time>
      </trkpt>
      <trkpt lat="45.25782" lon="6.50348">
        <ele>2396.3999023438</ele>
        <time>2021-01-24T10:21:33.000Z</time>
      </trkpt>
      <trkpt lat="45.25783" lon="6.5035">
        <ele>2396.8000488281</ele>
        <time>2021-01-24T10:21:35.000Z</time>
      </trkpt>
      <trkpt lat="45.25788" lon="6.50349">
        <ele>2397.3999023438</ele>
        <time>2021-01-24T10:21:40.000Z</time>
      </trkpt>
      <trkpt lat="45.25791" lon="6.5035">
        <ele>2397.8000488281</ele>
        <time>2021-01-24T10:21:43.000Z</time>
      </trkpt>
      <trkpt lat="45.25793" lon="6.5035">
        <ele>2398.6000976562</ele>
        <time>2021-01-24T10:21:47.000Z</time>
      </trkpt>
      <trkpt lat="45.25795" lon="6.50351">
        <ele>2400</ele>
        <time>2021-01-24T10:21:51.000Z</time>
      </trkpt>
      <trkpt lat="45.25796" lon="6.50352">
        <ele>2400.1999511719</ele>
        <time>2021-01-24T10:21:52.000Z</time>
      </trkpt>
      <trkpt lat="45.25797" lon="6.50353">
        <ele>2401.1999511719</ele>
        <time>2021-01-24T10:21:55.000Z</time>
      </trkpt>
      <trkpt lat="45.25798" lon="6.50354">
        <ele>2402.1999511719</ele>
        <time>2021-01-24T10:21:57.000Z</time>
      </trkpt>
      <trkpt lat="45.25799" lon="6.50356">
        <ele>2402.8000488281</ele>
        <time>2021-01-24T10:21:59.000Z</time>
      </trkpt>
      <trkpt lat="45.258" lon="6.50357">
        <ele>2403.3999023438</ele>
        <time>2021-01-24T10:22:01.000Z</time>
      </trkpt>
      <trkpt lat="45.258" lon="6.5036">
        <ele>2404.6000976562</ele>
        <time>2021-01-24T10:22:05.000Z</time>
      </trkpt>
      <trkpt lat="45.25801" lon="6.50363">
        <ele>2405.8000488281</ele>
        <time>2021-01-24T10:22:09.000Z</time>
      </trkpt>
      <trkpt lat="45.25802" lon="6.50362">
        <ele>2406.8000488281</ele>
        <time>2021-01-24T10:22:15.000Z</time>
      </trkpt>
      <trkpt lat="45.25803" lon="6.50362">
        <ele>2406.6000976562</ele>
        <time>2021-01-24T10:22:17.000Z</time>
      </trkpt>
      <trkpt lat="45.25804" lon="6.50363">
        <ele>2408</ele>
        <time>2021-01-24T10:22:23.000Z</time>
      </trkpt>
      <trkpt lat="45.25805" lon="6.50364">
        <ele>2408.1999511719</ele>
        <time>2021-01-24T10:22:24.000Z</time>
      </trkpt>
      <trkpt lat="45.25807" lon="6.50364">
        <ele>2408.6000976562</ele>
        <time>2021-01-24T10:22:31.000Z</time>
      </trkpt>
      <trkpt lat="45.2581" lon="6.50364">
        <ele>2409.3999023438</ele>
        <time>2021-01-24T10:22:37.000Z</time>
      </trkpt>
      <trkpt lat="45.2581" lon="6.50364">
        <ele>2409.8000488281</ele>
        <time>2021-01-24T10:22:38.000Z</time>
      </trkpt>
      <trkpt lat="45.2581" lon="6.50365">
        <ele>2410.3999023438</ele>
        <time>2021-01-24T10:22:40.000Z</time>
      </trkpt>
      <trkpt lat="45.25811" lon="6.5037">
        <ele>2411</ele>
        <time>2021-01-24T10:22:47.000Z</time>
      </trkpt>
      <trkpt lat="45.25811" lon="6.50371">
        <ele>2411.3999023438</ele>
        <time>2021-01-24T10:22:49.000Z</time>
      </trkpt>
      <trkpt lat="45.2581" lon="6.50375">
        <ele>2412.3999023438</ele>
        <time>2021-01-24T10:22:54.000Z</time>
      </trkpt>
      <trkpt lat="45.2581" lon="6.50377">
        <ele>2412.8000488281</ele>
        <time>2021-01-24T10:22:56.000Z</time>
      </trkpt>
      <trkpt lat="45.25812" lon="6.50379">
        <ele>2413.3999023438</ele>
        <time>2021-01-24T10:23:01.000Z</time>
      </trkpt>
      <trkpt lat="45.25816" lon="6.5038">
        <ele>2413.3999023438</ele>
        <time>2021-01-24T10:23:05.000Z</time>
      </trkpt>
      <trkpt lat="45.25818" lon="6.50379">
        <ele>2414.6000976562</ele>
        <time>2021-01-24T10:23:12.000Z</time>
      </trkpt>
      <trkpt lat="45.25818" lon="6.50382">
        <ele>2415.6000976562</ele>
        <time>2021-01-24T10:23:19.000Z</time>
      </trkpt>
      <trkpt lat="45.25818" lon="6.50382">
        <ele>2416</ele>
        <time>2021-01-24T10:23:21.000Z</time>
      </trkpt>
      <trkpt lat="45.2582" lon="6.50382">
        <ele>2416.6000976562</ele>
        <time>2021-01-24T10:23:26.000Z</time>
      </trkpt>
      <trkpt lat="45.2582" lon="6.50381">
        <ele>2417</ele>
        <time>2021-01-24T10:23:28.000Z</time>
      </trkpt>
      <trkpt lat="45.2582" lon="6.50382">
        <ele>2418</ele>
        <time>2021-01-24T10:23:32.000Z</time>
      </trkpt>
      <trkpt lat="45.25821" lon="6.50383">
        <ele>2419.1999511719</ele>
        <time>2021-01-24T10:23:34.000Z</time>
      </trkpt>
      <trkpt lat="45.25823" lon="6.50384">
        <ele>2419.8000488281</ele>
        <time>2021-01-24T10:23:36.000Z</time>
      </trkpt>
      <trkpt lat="45.25824" lon="6.50384">
        <ele>2420.1999511719</ele>
        <time>2021-01-24T10:23:41.000Z</time>
      </trkpt>
      <trkpt lat="45.25824" lon="6.50385">
        <ele>2421.3999023438</ele>
        <time>2021-01-24T10:23:44.000Z</time>
      </trkpt>
      <trkpt lat="45.25825" lon="6.5039">
        <ele>2422.3999023438</ele>
        <time>2021-01-24T10:23:51.000Z</time>
      </trkpt>
      <trkpt lat="45.25826" lon="6.50395">
        <ele>2423.6000976562</ele>
        <time>2021-01-24T10:23:56.000Z</time>
      </trkpt>
      <trkpt lat="45.2583" lon="6.50395">
        <ele>2424</ele>
        <time>2021-01-24T10:24:03.000Z</time>
      </trkpt>
      <trkpt lat="45.25836" lon="6.50392">
        <ele>2424.8000488281</ele>
        <time>2021-01-24T10:24:11.000Z</time>
      </trkpt>
      <trkpt lat="45.25835" lon="6.50393">
        <ele>2426.1999511719</ele>
        <time>2021-01-24T10:24:15.000Z</time>
      </trkpt>
      <trkpt lat="45.25835" lon="6.50393">
        <ele>2427.3999023438</ele>
        <time>2021-01-24T10:24:18.000Z</time>
      </trkpt>
      <trkpt lat="45.25835" lon="6.50395">
        <ele>2428</ele>
        <time>2021-01-24T10:24:22.000Z</time>
      </trkpt>
      <trkpt lat="45.25834" lon="6.50397">
        <ele>2428.3999023438</ele>
        <time>2021-01-24T10:24:24.000Z</time>
      </trkpt>
      <trkpt lat="45.25833" lon="6.50398">
        <ele>2429.3999023438</ele>
        <time>2021-01-24T10:24:29.000Z</time>
      </trkpt>
      <trkpt lat="45.25833" lon="6.50398">
        <ele>2429.6000976562</ele>
        <time>2021-01-24T10:24:30.000Z</time>
      </trkpt>
      <trkpt lat="45.25833" lon="6.50404">
        <ele>2430.6000976562</ele>
        <time>2021-01-24T10:24:37.000Z</time>
      </trkpt>
      <trkpt lat="45.25832" lon="6.50407">
        <ele>2431.1999511719</ele>
        <time>2021-01-24T10:24:40.000Z</time>
      </trkpt>
      <trkpt lat="45.25831" lon="6.50411">
        <ele>2431.6000976562</ele>
        <time>2021-01-24T10:24:43.000Z</time>
      </trkpt>
      <trkpt lat="45.25831" lon="6.50417">
        <ele>2432.1999511719</ele>
        <time>2021-01-24T10:24:50.000Z</time>
      </trkpt>
      <trkpt lat="45.2583" lon="6.50421">
        <ele>2432.6000976562</ele>
        <time>2021-01-24T10:24:53.000Z</time>
      </trkpt>
      <trkpt lat="45.25829" lon="6.50424">
        <ele>2433.3999023438</ele>
        <time>2021-01-24T10:24:58.000Z</time>
      </trkpt>
      <trkpt lat="45.25831" lon="6.50427">
        <ele>2433.8000488281</ele>
        <time>2021-01-24T10:25:02.000Z</time>
      </trkpt>
      <trkpt lat="45.2583" lon="6.50432">
        <ele>2435</ele>
        <time>2021-01-24T10:25:08.000Z</time>
      </trkpt>
      <trkpt lat="45.25833" lon="6.50433">
        <ele>2436.1999511719</ele>
        <time>2021-01-24T10:25:14.000Z</time>
      </trkpt>
      <trkpt lat="45.25834" lon="6.50433">
        <ele>2436.3999023438</ele>
        <time>2021-01-24T10:25:15.000Z</time>
      </trkpt>
      <trkpt lat="45.25837" lon="6.50433">
        <ele>2437.1999511719</ele>
        <time>2021-01-24T10:25:19.000Z</time>
      </trkpt>
      <trkpt lat="45.25838" lon="6.50432">
        <ele>2437.6000976562</ele>
        <time>2021-01-24T10:25:22.000Z</time>
      </trkpt>
      <trkpt lat="45.25838" lon="6.50431">
        <ele>2438.3999023438</ele>
        <time>2021-01-24T10:25:25.000Z</time>
      </trkpt>
      <trkpt lat="45.25838" lon="6.50433">
        <ele>2439.6000976562</ele>
        <time>2021-01-24T10:25:28.000Z</time>
      </trkpt>
      <trkpt lat="45.25838" lon="6.50435">
        <ele>2440</ele>
        <time>2021-01-24T10:25:30.000Z</time>
      </trkpt>
      <trkpt lat="45.2584" lon="6.50438">
        <ele>2440.6000976562</ele>
        <time>2021-01-24T10:25:33.000Z</time>
      </trkpt>
      <trkpt lat="45.2584" lon="6.50443">
        <ele>2441.6000976562</ele>
        <time>2021-01-24T10:25:38.000Z</time>
      </trkpt>
      <trkpt lat="45.25841" lon="6.50445">
        <ele>2442.1999511719</ele>
        <time>2021-01-24T10:25:41.000Z</time>
      </trkpt>
      <trkpt lat="45.25842" lon="6.50447">
        <ele>2442.6000976562</ele>
        <time>2021-01-24T10:25:44.000Z</time>
      </trkpt>
      <trkpt lat="45.25844" lon="6.50446">
        <ele>2443.3999023438</ele>
        <time>2021-01-24T10:25:49.000Z</time>
      </trkpt>
      <trkpt lat="45.25846" lon="6.50444">
        <ele>2443.6000976562</ele>
        <time>2021-01-24T10:25:52.000Z</time>
      </trkpt>
      <trkpt lat="45.25848" lon="6.50443">
        <ele>2444.3999023438</ele>
        <time>2021-01-24T10:25:57.000Z</time>
      </trkpt>
      <trkpt lat="45.25848" lon="6.50442">
        <ele>2445</ele>
        <time>2021-01-24T10:26:04.000Z</time>
      </trkpt>
      <trkpt lat="45.25848" lon="6.50442">
        <ele>2445.6000976562</ele>
        <time>2021-01-24T10:26:05.000Z</time>
      </trkpt>
      <trkpt lat="45.25848" lon="6.50443">
        <ele>2446.3999023438</ele>
        <time>2021-01-24T10:26:07.000Z</time>
      </trkpt>
      <trkpt lat="45.2585" lon="6.50448">
        <ele>2447.1999511719</ele>
        <time>2021-01-24T10:26:15.000Z</time>
      </trkpt>
      <trkpt lat="45.25849" lon="6.50449">
        <ele>2447.3999023438</ele>
        <time>2021-01-24T10:26:16.000Z</time>
      </trkpt>
      <trkpt lat="45.2585" lon="6.50453">
        <ele>2448.6000976562</ele>
        <time>2021-01-24T10:26:20.000Z</time>
      </trkpt>
      <trkpt lat="45.2585" lon="6.50457">
        <ele>2450</ele>
        <time>2021-01-24T10:26:24.000Z</time>
      </trkpt>
      <trkpt lat="45.25851" lon="6.50458">
        <ele>2450.3999023438</ele>
        <time>2021-01-24T10:26:26.000Z</time>
      </trkpt>
      <trkpt lat="45.25852" lon="6.5046">
        <ele>2451</ele>
        <time>2021-01-24T10:26:29.000Z</time>
      </trkpt>
      <trkpt lat="45.25853" lon="6.50461">
        <ele>2451</ele>
        <time>2021-01-24T10:26:34.000Z</time>
      </trkpt>
      <trkpt lat="45.25858" lon="6.50457">
        <ele>2451.3999023438</ele>
        <time>2021-01-24T10:26:43.000Z</time>
      </trkpt>
      <trkpt lat="45.25859" lon="6.50457">
        <ele>2452.3999023438</ele>
        <time>2021-01-24T10:26:45.000Z</time>
      </trkpt>
      <trkpt lat="45.25861" lon="6.50457">
        <ele>2453.3999023438</ele>
        <time>2021-01-24T10:26:50.000Z</time>
      </trkpt>
      <trkpt lat="45.25863" lon="6.50455">
        <ele>2454</ele>
        <time>2021-01-24T10:26:54.000Z</time>
      </trkpt>
      <trkpt lat="45.25864" lon="6.50456">
        <ele>2454.6000976562</ele>
        <time>2021-01-24T10:26:57.000Z</time>
      </trkpt>
      <trkpt lat="45.25866" lon="6.50456">
        <ele>2455.1999511719</ele>
        <time>2021-01-24T10:27:02.000Z</time>
      </trkpt>
      <trkpt lat="45.25866" lon="6.50457">
        <ele>2455.6000976562</ele>
        <time>2021-01-24T10:27:04.000Z</time>
      </trkpt>
      <trkpt lat="45.25867" lon="6.5046">
        <ele>2456.8000488281</ele>
        <time>2021-01-24T10:27:09.000Z</time>
      </trkpt>
      <trkpt lat="45.25867" lon="6.50461">
        <ele>2457</ele>
        <time>2021-01-24T10:27:10.000Z</time>
      </trkpt>
      <trkpt lat="45.25866" lon="6.50463">
        <ele>2458</ele>
        <time>2021-01-24T10:27:15.000Z</time>
      </trkpt>
      <trkpt lat="45.25866" lon="6.50468">
        <ele>2458.8000488281</ele>
        <time>2021-01-24T10:27:21.000Z</time>
      </trkpt>
      <trkpt lat="45.25867" lon="6.50468">
        <ele>2459</ele>
        <time>2021-01-24T10:27:22.000Z</time>
      </trkpt>
      <trkpt lat="45.25868" lon="6.50472">
        <ele>2460.3999023438</ele>
        <time>2021-01-24T10:27:28.000Z</time>
      </trkpt>
      <trkpt lat="45.25869" lon="6.50473">
        <ele>2460.8000488281</ele>
        <time>2021-01-24T10:27:29.000Z</time>
      </trkpt>
      <trkpt lat="45.2587" lon="6.50477">
        <ele>2461.3999023438</ele>
        <time>2021-01-24T10:27:34.000Z</time>
      </trkpt>
      <trkpt lat="45.25871" lon="6.5048">
        <ele>2462.6000976562</ele>
        <time>2021-01-24T10:27:38.000Z</time>
      </trkpt>
      <trkpt lat="45.25873" lon="6.5048">
        <ele>2463.6000976562</ele>
        <time>2021-01-24T10:27:41.000Z</time>
      </trkpt>
      <trkpt lat="45.25877" lon="6.50482">
        <ele>2464.3999023438</ele>
        <time>2021-01-24T10:27:47.000Z</time>
      </trkpt>
      <trkpt lat="45.25878" lon="6.50481">
        <ele>2464.6000976562</ele>
        <time>2021-01-24T10:27:51.000Z</time>
      </trkpt>
      <trkpt lat="45.25878" lon="6.50481">
        <ele>2464.8000488281</ele>
        <time>2021-01-24T10:27:52.000Z</time>
      </trkpt>
      <trkpt lat="45.25878" lon="6.50481">
        <ele>2465.1999511719</ele>
        <time>2021-01-24T10:27:55.000Z</time>
      </trkpt>
      <trkpt lat="45.25879" lon="6.50484">
        <ele>2465.6000976562</ele>
        <time>2021-01-24T10:27:59.000Z</time>
      </trkpt>
      <trkpt lat="45.2588" lon="6.50486">
        <ele>2466.1999511719</ele>
        <time>2021-01-24T10:28:02.000Z</time>
      </trkpt>
      <trkpt lat="45.2588" lon="6.50487">
        <ele>2466.8000488281</ele>
        <time>2021-01-24T10:28:05.000Z</time>
      </trkpt>
      <trkpt lat="45.25881" lon="6.50489">
        <ele>2467.8000488281</ele>
        <time>2021-01-24T10:28:10.000Z</time>
      </trkpt>
      <trkpt lat="45.25882" lon="6.5049">
        <ele>2468</ele>
        <time>2021-01-24T10:28:11.000Z</time>
      </trkpt>
      <trkpt lat="45.25884" lon="6.50492">
        <ele>2468.8000488281</ele>
        <time>2021-01-24T10:28:16.000Z</time>
      </trkpt>
      <trkpt lat="45.25887" lon="6.50494">
        <ele>2469.8000488281</ele>
        <time>2021-01-24T10:28:21.000Z</time>
      </trkpt>
      <trkpt lat="45.25887" lon="6.50494">
        <ele>2470</ele>
        <time>2021-01-24T10:28:22.000Z</time>
      </trkpt>
      <trkpt lat="45.25893" lon="6.50497">
        <ele>2471.1999511719</ele>
        <time>2021-01-24T10:28:29.000Z</time>
      </trkpt>
      <trkpt lat="45.25895" lon="6.50499">
        <ele>2472</ele>
        <time>2021-01-24T10:28:33.000Z</time>
      </trkpt>
      <trkpt lat="45.25896" lon="6.50499">
        <ele>2472.1999511719</ele>
        <time>2021-01-24T10:28:34.000Z</time>
      </trkpt>
      <trkpt lat="45.25899" lon="6.50501">
        <ele>2473</ele>
        <time>2021-01-24T10:28:40.000Z</time>
      </trkpt>
      <trkpt lat="45.259" lon="6.50502">
        <ele>2473.3999023438</ele>
        <time>2021-01-24T10:28:42.000Z</time>
      </trkpt>
      <trkpt lat="45.259" lon="6.50504">
        <ele>2474.3999023438</ele>
        <time>2021-01-24T10:28:46.000Z</time>
      </trkpt>
      <trkpt lat="45.25902" lon="6.50506">
        <ele>2475.3999023438</ele>
        <time>2021-01-24T10:28:50.000Z</time>
      </trkpt>
      <trkpt lat="45.25902" lon="6.50506">
        <ele>2475.6000976562</ele>
        <time>2021-01-24T10:28:52.000Z</time>
      </trkpt>
      <trkpt lat="45.25908" lon="6.50505">
        <ele>2476.8000488281</ele>
        <time>2021-01-24T10:28:59.000Z</time>
      </trkpt>
      <trkpt lat="45.25913" lon="6.50502">
        <ele>2477.6000976562</ele>
        <time>2021-01-24T10:29:07.000Z</time>
      </trkpt>
      <trkpt lat="45.25914" lon="6.50502">
        <ele>2478</ele>
        <time>2021-01-24T10:29:09.000Z</time>
      </trkpt>
      <trkpt lat="45.25918" lon="6.50502">
        <ele>2479.1999511719</ele>
        <time>2021-01-24T10:29:14.000Z</time>
      </trkpt>
      <trkpt lat="45.25919" lon="6.50502">
        <ele>2479.3999023438</ele>
        <time>2021-01-24T10:29:15.000Z</time>
      </trkpt>
      <trkpt lat="45.25921" lon="6.50503">
        <ele>2480.1999511719</ele>
        <time>2021-01-24T10:29:19.000Z</time>
      </trkpt>
      <trkpt lat="45.25923" lon="6.50503">
        <ele>2480.8000488281</ele>
        <time>2021-01-24T10:29:23.000Z</time>
      </trkpt>
      <trkpt lat="45.25922" lon="6.50505">
        <ele>2481.3999023438</ele>
        <time>2021-01-24T10:29:26.000Z</time>
      </trkpt>
      <trkpt lat="45.25921" lon="6.50506">
        <ele>2482.3999023438</ele>
        <time>2021-01-24T10:29:29.000Z</time>
      </trkpt>
      <trkpt lat="45.25921" lon="6.50506">
        <ele>2482.8000488281</ele>
        <time>2021-01-24T10:29:31.000Z</time>
      </trkpt>
      <trkpt lat="45.25921" lon="6.50506">
        <ele>2483.3999023438</ele>
        <time>2021-01-24T10:29:36.000Z</time>
      </trkpt>
      <trkpt lat="45.2592" lon="6.50505">
        <ele>2483.8000488281</ele>
        <time>2021-01-24T10:29:40.000Z</time>
      </trkpt>
      <trkpt lat="45.2592" lon="6.50505">
        <ele>2484</ele>
        <time>2021-01-24T10:29:50.000Z</time>
      </trkpt>
      <trkpt lat="45.2592" lon="6.50505">
        <ele>2483.1999511719</ele>
        <time>2021-01-24T10:30:06.000Z</time>
      </trkpt>
      <trkpt lat="45.2592" lon="6.50506">
        <ele>2483.6000976562</ele>
        <time>2021-01-24T10:30:23.000Z</time>
      </trkpt>
      <trkpt lat="45.2592" lon="6.50506">
        <ele>2482.3999023438</ele>
        <time>2021-01-24T10:30:33.000Z</time>
      </trkpt>
      <trkpt lat="45.2592" lon="6.50506">
        <ele>2482.8000488281</ele>
        <time>2021-01-24T10:30:40.000Z</time>
      </trkpt>
      <trkpt lat="45.2592" lon="6.50506">
        <ele>2483</ele>
        <time>2021-01-24T10:30:57.000Z</time>
      </trkpt>
      <trkpt lat="45.2592" lon="6.50506">
        <ele>2483.3999023438</ele>
        <time>2021-01-24T10:31:12.000Z</time>
      </trkpt>
      <trkpt lat="45.2592" lon="6.50506">
        <ele>2483.6000976562</ele>
        <time>2021-01-24T10:31:27.000Z</time>
      </trkpt>
      <trkpt lat="45.2592" lon="6.50505">
        <ele>2482.6000976562</ele>
        <time>2021-01-24T10:31:40.000Z</time>
      </trkpt>
      <trkpt lat="45.2592" lon="6.50505">
        <ele>2482.3999023438</ele>
        <time>2021-01-24T10:31:41.000Z</time>
      </trkpt>
      <trkpt lat="45.2592" lon="6.50505">
        <ele>2482.1999511719</ele>
        <time>2021-01-24T10:31:55.000Z</time>
      </trkpt>
      <trkpt lat="45.2592" lon="6.50506">
        <ele>2482</ele>
        <time>2021-01-24T10:32:10.000Z</time>
      </trkpt>
      <trkpt lat="45.25919" lon="6.50505">
        <ele>2483.1999511719</ele>
        <time>2021-01-24T10:32:20.000Z</time>
      </trkpt>
      <trkpt lat="45.25919" lon="6.50507">
        <ele>2482.8000488281</ele>
        <time>2021-01-24T10:32:30.000Z</time>
      </trkpt>
      <trkpt lat="45.25919" lon="6.50513">
        <ele>2483.8000488281</ele>
        <time>2021-01-24T10:32:33.000Z</time>
      </trkpt>
      <trkpt lat="45.2592" lon="6.50517">
        <ele>2484.6000976562</ele>
        <time>2021-01-24T10:32:37.000Z</time>
      </trkpt>
      <trkpt lat="45.2592" lon="6.50517">
        <ele>2484.8000488281</ele>
        <time>2021-01-24T10:32:38.000Z</time>
      </trkpt>
      <trkpt lat="45.2592" lon="6.50519">
        <ele>2486</ele>
        <time>2021-01-24T10:32:41.000Z</time>
      </trkpt>
      <trkpt lat="45.25921" lon="6.5052">
        <ele>2486.8000488281</ele>
        <time>2021-01-24T10:32:44.000Z</time>
      </trkpt>
      <trkpt lat="45.25921" lon="6.5052">
        <ele>2487.1999511719</ele>
        <time>2021-01-24T10:32:45.000Z</time>
      </trkpt>
      <trkpt lat="45.25924" lon="6.50521">
        <ele>2488.1999511719</ele>
        <time>2021-01-24T10:32:50.000Z</time>
      </trkpt>
      <trkpt lat="45.25928" lon="6.50523">
        <ele>2489.3999023438</ele>
        <time>2021-01-24T10:32:55.000Z</time>
      </trkpt>
      <trkpt lat="45.25928" lon="6.50523">
        <ele>2489.6000976562</ele>
        <time>2021-01-24T10:32:56.000Z</time>
      </trkpt>
      <trkpt lat="45.25927" lon="6.50526">
        <ele>2490.8000488281</ele>
        <time>2021-01-24T10:32:59.000Z</time>
      </trkpt>
      <trkpt lat="45.25927" lon="6.50527">
        <ele>2491.8000488281</ele>
        <time>2021-01-24T10:33:02.000Z</time>
      </trkpt>
      <trkpt lat="45.25927" lon="6.50527">
        <ele>2492.3999023438</ele>
        <time>2021-01-24T10:33:03.000Z</time>
      </trkpt>
      <trkpt lat="45.25927" lon="6.50527">
        <ele>2493</ele>
        <time>2021-01-24T10:33:04.000Z</time>
      </trkpt>
      <trkpt lat="45.25927" lon="6.50527">
        <ele>2492.6000976562</ele>
        <time>2021-01-24T10:33:12.000Z</time>
      </trkpt>
      <trkpt lat="45.25929" lon="6.50527">
        <ele>2494.1999511719</ele>
        <time>2021-01-24T10:33:21.000Z</time>
      </trkpt>
      <trkpt lat="45.25934" lon="6.50527">
        <ele>2495.3999023438</ele>
        <time>2021-01-24T10:33:26.000Z</time>
      </trkpt>
      <trkpt lat="45.25937" lon="6.50527">
        <ele>2496.1999511719</ele>
        <time>2021-01-24T10:33:29.000Z</time>
      </trkpt>
      <trkpt lat="45.25939" lon="6.50527">
        <ele>2496.6000976562</ele>
        <time>2021-01-24T10:33:32.000Z</time>
      </trkpt>
      <trkpt lat="45.25941" lon="6.50527">
        <ele>2497.6000976562</ele>
        <time>2021-01-24T10:33:36.000Z</time>
      </trkpt>
      <trkpt lat="45.25942" lon="6.50527">
        <ele>2498.3999023438</ele>
        <time>2021-01-24T10:33:39.000Z</time>
      </trkpt>
      <trkpt lat="45.25942" lon="6.50527">
        <ele>2498.6000976562</ele>
        <time>2021-01-24T10:33:40.000Z</time>
      </trkpt>
      <trkpt lat="45.25941" lon="6.50529">
        <ele>2499</ele>
        <time>2021-01-24T10:33:48.000Z</time>
      </trkpt>
      <trkpt lat="45.25941" lon="6.50532">
        <ele>2499.8000488281</ele>
        <time>2021-01-24T10:33:53.000Z</time>
      </trkpt>
      <trkpt lat="45.25941" lon="6.50532">
        <ele>2500.6000976562</ele>
        <time>2021-01-24T10:33:56.000Z</time>
      </trkpt>
      <trkpt lat="45.25941" lon="6.50532">
        <ele>2500.8000488281</ele>
        <time>2021-01-24T10:33:57.000Z</time>
      </trkpt>
      <trkpt lat="45.25944" lon="6.50531">
        <ele>2501.3999023438</ele>
        <time>2021-01-24T10:34:05.000Z</time>
      </trkpt>
      <trkpt lat="45.25945" lon="6.5053">
        <ele>2502</ele>
        <time>2021-01-24T10:34:11.000Z</time>
      </trkpt>
      <trkpt lat="45.25947" lon="6.50529">
        <ele>2502.3999023438</ele>
        <time>2021-01-24T10:34:14.000Z</time>
      </trkpt>
      <trkpt lat="45.2595" lon="6.50529">
        <ele>2503.1999511719</ele>
        <time>2021-01-24T10:34:20.000Z</time>
      </trkpt>
      <trkpt lat="45.25952" lon="6.50529">
        <ele>2503.3999023438</ele>
        <time>2021-01-24T10:34:22.000Z</time>
      </trkpt>
      <trkpt lat="45.25954" lon="6.50529">
        <ele>2504.1999511719</ele>
        <time>2021-01-24T10:34:28.000Z</time>
      </trkpt>
      <trkpt lat="45.25954" lon="6.50529">
        <ele>2504.3999023438</ele>
        <time>2021-01-24T10:34:29.000Z</time>
      </trkpt>
      <trkpt lat="45.25954" lon="6.50528">
        <ele>2505.1999511719</ele>
        <time>2021-01-24T10:34:32.000Z</time>
      </trkpt>
      <trkpt lat="45.25953" lon="6.5053">
        <ele>2506.3999023438</ele>
        <time>2021-01-24T10:34:36.000Z</time>
      </trkpt>
      <trkpt lat="45.25951" lon="6.50536">
        <ele>2506.6000976562</ele>
        <time>2021-01-24T10:34:44.000Z</time>
      </trkpt>
      <trkpt lat="45.25952" lon="6.50541">
        <ele>2506.6000976562</ele>
        <time>2021-01-24T10:34:52.000Z</time>
      </trkpt>
      <trkpt lat="45.25951" lon="6.50545">
        <ele>2507.3999023438</ele>
        <time>2021-01-24T10:34:56.000Z</time>
      </trkpt>
      <trkpt lat="45.25951" lon="6.50546">
        <ele>2508.3999023438</ele>
        <time>2021-01-24T10:34:58.000Z</time>
      </trkpt>
      <trkpt lat="45.25951" lon="6.50547">
        <ele>2508.8000488281</ele>
        <time>2021-01-24T10:34:59.000Z</time>
      </trkpt>
      <trkpt lat="45.25953" lon="6.50547">
        <ele>2510</ele>
        <time>2021-01-24T10:35:04.000Z</time>
      </trkpt>
      <trkpt lat="45.25954" lon="6.50548">
        <ele>2510.6000976562</ele>
        <time>2021-01-24T10:35:06.000Z</time>
      </trkpt>
      <trkpt lat="45.25956" lon="6.50549">
        <ele>2511.1999511719</ele>
        <time>2021-01-24T10:35:08.000Z</time>
      </trkpt>
      <trkpt lat="45.25959" lon="6.5055">
        <ele>2512.1999511719</ele>
        <time>2021-01-24T10:35:13.000Z</time>
      </trkpt>
      <trkpt lat="45.25959" lon="6.50551">
        <ele>2512.1999511719</ele>
        <time>2021-01-24T10:35:14.000Z</time>
      </trkpt>
      <trkpt lat="45.2596" lon="6.50557">
        <ele>2513.3999023438</ele>
        <time>2021-01-24T10:35:20.000Z</time>
      </trkpt>
      <trkpt lat="45.2596" lon="6.50558">
        <ele>2513.6000976562</ele>
        <time>2021-01-24T10:35:21.000Z</time>
      </trkpt>
      <trkpt lat="45.2596" lon="6.50561">
        <ele>2514.3999023438</ele>
        <time>2021-01-24T10:35:25.000Z</time>
      </trkpt>
      <trkpt lat="45.2596" lon="6.50561">
        <ele>2515.1999511719</ele>
        <time>2021-01-24T10:35:28.000Z</time>
      </trkpt>
      <trkpt lat="45.25962" lon="6.50561">
        <ele>2515.8000488281</ele>
        <time>2021-01-24T10:35:30.000Z</time>
      </trkpt>
      <trkpt lat="45.25964" lon="6.50561">
        <ele>2517</ele>
        <time>2021-01-24T10:35:33.000Z</time>
      </trkpt>
      <trkpt lat="45.25965" lon="6.50561">
        <ele>2518.1999511719</ele>
        <time>2021-01-24T10:35:35.000Z</time>
      </trkpt>
      <trkpt lat="45.25965" lon="6.50562">
        <ele>2518.1999511719</ele>
        <time>2021-01-24T10:35:36.000Z</time>
      </trkpt>
      <trkpt lat="45.25966" lon="6.50565">
        <ele>2517.8000488281</ele>
        <time>2021-01-24T10:35:43.000Z</time>
      </trkpt>
      <trkpt lat="45.25967" lon="6.5057">
        <ele>2519.3999023438</ele>
        <time>2021-01-24T10:35:48.000Z</time>
      </trkpt>
      <trkpt lat="45.25967" lon="6.50572">
        <ele>2519.8000488281</ele>
        <time>2021-01-24T10:35:51.000Z</time>
      </trkpt>
      <trkpt lat="45.25967" lon="6.50574">
        <ele>2520.3999023438</ele>
        <time>2021-01-24T10:35:55.000Z</time>
      </trkpt>
      <trkpt lat="45.25967" lon="6.50575">
        <ele>2520.8000488281</ele>
        <time>2021-01-24T10:35:57.000Z</time>
      </trkpt>
      <trkpt lat="45.25967" lon="6.50575">
        <ele>2521.6000976562</ele>
        <time>2021-01-24T10:35:59.000Z</time>
      </trkpt>
      <trkpt lat="45.25967" lon="6.50575">
        <ele>2522.6000976562</ele>
        <time>2021-01-24T10:36:02.000Z</time>
      </trkpt>
      <trkpt lat="45.25967" lon="6.50575">
        <ele>2523.3999023438</ele>
        <time>2021-01-24T10:36:06.000Z</time>
      </trkpt>
      <trkpt lat="45.25965" lon="6.50579">
        <ele>2523.8000488281</ele>
        <time>2021-01-24T10:36:16.000Z</time>
      </trkpt>
      <trkpt lat="45.25963" lon="6.5059">
        <ele>2524.6000976562</ele>
        <time>2021-01-24T10:36:24.000Z</time>
      </trkpt>
      <trkpt lat="45.25963" lon="6.5059">
        <ele>2525</ele>
        <time>2021-01-24T10:36:25.000Z</time>
      </trkpt>
      <trkpt lat="45.25963" lon="6.50594">
        <ele>2525.3999023438</ele>
        <time>2021-01-24T10:36:31.000Z</time>
      </trkpt>
      <trkpt lat="45.25963" lon="6.50596">
        <ele>2525</ele>
        <time>2021-01-24T10:36:40.000Z</time>
      </trkpt>
      <trkpt lat="45.25965" lon="6.50599">
        <ele>2523.8000488281</ele>
        <time>2021-01-24T10:36:45.000Z</time>
      </trkpt>
      <trkpt lat="45.25968" lon="6.506">
        <ele>2524.3999023438</ele>
        <time>2021-01-24T10:36:48.000Z</time>
      </trkpt>
      <trkpt lat="45.25969" lon="6.506">
        <ele>2525</ele>
        <time>2021-01-24T10:36:50.000Z</time>
      </trkpt>
      <trkpt lat="45.25971" lon="6.50603">
        <ele>2526.1999511719</ele>
        <time>2021-01-24T10:36:53.000Z</time>
      </trkpt>
      <trkpt lat="45.25971" lon="6.50604">
        <ele>2526.8000488281</ele>
        <time>2021-01-24T10:36:54.000Z</time>
      </trkpt>
      <trkpt lat="45.25972" lon="6.50605">
        <ele>2527.8000488281</ele>
        <time>2021-01-24T10:36:55.000Z</time>
      </trkpt>
      <trkpt lat="45.25972" lon="6.50607">
        <ele>2529.6000976562</ele>
        <time>2021-01-24T10:36:57.000Z</time>
      </trkpt>
      <trkpt lat="45.25972" lon="6.50607">
        <ele>2530.8000488281</ele>
        <time>2021-01-24T10:37:01.000Z</time>
      </trkpt>
      <trkpt lat="45.25971" lon="6.50611">
        <ele>2531.8000488281</ele>
        <time>2021-01-24T10:37:04.000Z</time>
      </trkpt>
      <trkpt lat="45.25971" lon="6.50614">
        <ele>2532.8000488281</ele>
        <time>2021-01-24T10:37:06.000Z</time>
      </trkpt>
      <trkpt lat="45.2597" lon="6.50617">
        <ele>2533.1999511719</ele>
        <time>2021-01-24T10:37:10.000Z</time>
      </trkpt>
      <trkpt lat="45.25969" lon="6.50621">
        <ele>2534</ele>
        <time>2021-01-24T10:37:14.000Z</time>
      </trkpt>
      <trkpt lat="45.25968" lon="6.50624">
        <ele>2534.8000488281</ele>
        <time>2021-01-24T10:37:17.000Z</time>
      </trkpt>
      <trkpt lat="45.25968" lon="6.50625">
        <ele>2535</ele>
        <time>2021-01-24T10:37:18.000Z</time>
      </trkpt>
      <trkpt lat="45.25967" lon="6.50626">
        <ele>2536.1999511719</ele>
        <time>2021-01-24T10:37:23.000Z</time>
      </trkpt>
      <trkpt lat="45.25967" lon="6.50626">
        <ele>2536.8000488281</ele>
        <time>2021-01-24T10:37:25.000Z</time>
      </trkpt>
      <trkpt lat="45.25968" lon="6.5063">
        <ele>2537.1999511719</ele>
        <time>2021-01-24T10:37:31.000Z</time>
      </trkpt>
      <trkpt lat="45.25968" lon="6.50631">
        <ele>2537.6000976562</ele>
        <time>2021-01-24T10:37:33.000Z</time>
      </trkpt>
      <trkpt lat="45.2597" lon="6.50636">
        <ele>2537.8000488281</ele>
        <time>2021-01-24T10:37:39.000Z</time>
      </trkpt>
      <trkpt lat="45.25971" lon="6.50639">
        <ele>2538.3999023438</ele>
        <time>2021-01-24T10:37:45.000Z</time>
      </trkpt>
      <trkpt lat="45.25971" lon="6.5064">
        <ele>2538.6000976562</ele>
        <time>2021-01-24T10:37:46.000Z</time>
      </trkpt>
      <trkpt lat="45.25971" lon="6.50645">
        <ele>2539.8000488281</ele>
        <time>2021-01-24T10:37:51.000Z</time>
      </trkpt>
      <trkpt lat="45.25972" lon="6.50648">
        <ele>2540</ele>
        <time>2021-01-24T10:37:52.000Z</time>
      </trkpt>
      <trkpt lat="45.25973" lon="6.5065">
        <ele>2541</ele>
        <time>2021-01-24T10:37:57.000Z</time>
      </trkpt>
      <trkpt lat="45.25974" lon="6.50652">
        <ele>2541.3999023438</ele>
        <time>2021-01-24T10:37:59.000Z</time>
      </trkpt>
      <trkpt lat="45.25978" lon="6.50658">
        <ele>2541.6000976562</ele>
        <time>2021-01-24T10:38:06.000Z</time>
      </trkpt>
      <trkpt lat="45.25979" lon="6.50659">
        <ele>2542</ele>
        <time>2021-01-24T10:38:09.000Z</time>
      </trkpt>
      <trkpt lat="45.25981" lon="6.50661">
        <ele>2542.8000488281</ele>
        <time>2021-01-24T10:38:13.000Z</time>
      </trkpt>
      <trkpt lat="45.25981" lon="6.50663">
        <ele>2543.1999511719</ele>
        <time>2021-01-24T10:38:15.000Z</time>
      </trkpt>
      <trkpt lat="45.25981" lon="6.50666">
        <ele>2543.3999023438</ele>
        <time>2021-01-24T10:38:20.000Z</time>
      </trkpt>
      <trkpt lat="45.25982" lon="6.50671">
        <ele>2544.3999023438</ele>
        <time>2021-01-24T10:38:26.000Z</time>
      </trkpt>
      <trkpt lat="45.25982" lon="6.50673">
        <ele>2545.1999511719</ele>
        <time>2021-01-24T10:38:29.000Z</time>
      </trkpt>
      <trkpt lat="45.25982" lon="6.50675">
        <ele>2545.6000976562</ele>
        <time>2021-01-24T10:38:31.000Z</time>
      </trkpt>
      <trkpt lat="45.25982" lon="6.50678">
        <ele>2546.6000976562</ele>
        <time>2021-01-24T10:38:35.000Z</time>
      </trkpt>
      <trkpt lat="45.25982" lon="6.50683">
        <ele>2547.6000976562</ele>
        <time>2021-01-24T10:38:41.000Z</time>
      </trkpt>
      <trkpt lat="45.25983" lon="6.50684">
        <ele>2547.6000976562</ele>
        <time>2021-01-24T10:38:42.000Z</time>
      </trkpt>
      <trkpt lat="45.25985" lon="6.5069">
        <ele>2548.6000976562</ele>
        <time>2021-01-24T10:38:48.000Z</time>
      </trkpt>
      <trkpt lat="45.25988" lon="6.50693">
        <ele>2548.1999511719</ele>
        <time>2021-01-24T10:38:53.000Z</time>
      </trkpt>
      <trkpt lat="45.2599" lon="6.50697">
        <ele>2548.6000976562</ele>
        <time>2021-01-24T10:39:00.000Z</time>
      </trkpt>
      <trkpt lat="45.25991" lon="6.507">
        <ele>2549.8000488281</ele>
        <time>2021-01-24T10:39:07.000Z</time>
      </trkpt>
      <trkpt lat="45.25991" lon="6.50701">
        <ele>2550.1999511719</ele>
        <time>2021-01-24T10:39:08.000Z</time>
      </trkpt>
      <trkpt lat="45.25991" lon="6.50701">
        <ele>2550.8000488281</ele>
        <time>2021-01-24T10:39:12.000Z</time>
      </trkpt>
      <trkpt lat="45.25992" lon="6.50703">
        <ele>2551.3999023438</ele>
        <time>2021-01-24T10:39:16.000Z</time>
      </trkpt>
      <trkpt lat="45.25993" lon="6.50708">
        <ele>2551.8000488281</ele>
        <time>2021-01-24T10:39:20.000Z</time>
      </trkpt>
      <trkpt lat="45.25997" lon="6.50712">
        <ele>2552</ele>
        <time>2021-01-24T10:39:25.000Z</time>
      </trkpt>
      <trkpt lat="45.25999" lon="6.50718">
        <ele>2552.8000488281</ele>
        <time>2021-01-24T10:39:31.000Z</time>
      </trkpt>
      <trkpt lat="45.25999" lon="6.50719">
        <ele>2553</ele>
        <time>2021-01-24T10:39:32.000Z</time>
      </trkpt>
      <trkpt lat="45.26" lon="6.50721">
        <ele>2554</ele>
        <time>2021-01-24T10:39:37.000Z</time>
      </trkpt>
      <trkpt lat="45.26" lon="6.50722">
        <ele>2554.3999023438</ele>
        <time>2021-01-24T10:39:39.000Z</time>
      </trkpt>
      <trkpt lat="45.26001" lon="6.50724">
        <ele>2555.1999511719</ele>
        <time>2021-01-24T10:39:42.000Z</time>
      </trkpt>
      <trkpt lat="45.26003" lon="6.50728">
        <ele>2556</ele>
        <time>2021-01-24T10:39:45.000Z</time>
      </trkpt>
      <trkpt lat="45.26003" lon="6.50728">
        <ele>2556.1999511719</ele>
        <time>2021-01-24T10:39:46.000Z</time>
      </trkpt>
      <trkpt lat="45.26005" lon="6.50732">
        <ele>2557.3999023438</ele>
        <time>2021-01-24T10:39:51.000Z</time>
      </trkpt>
      <trkpt lat="45.26007" lon="6.50735">
        <ele>2558.6000976562</ele>
        <time>2021-01-24T10:39:56.000Z</time>
      </trkpt>
      <trkpt lat="45.26007" lon="6.50737">
        <ele>2559</ele>
        <time>2021-01-24T10:39:59.000Z</time>
      </trkpt>
      <trkpt lat="45.26006" lon="6.50737">
        <ele>2559.6000976562</ele>
        <time>2021-01-24T10:40:04.000Z</time>
      </trkpt>
      <trkpt lat="45.26006" lon="6.50737">
        <ele>2560.3999023438</ele>
        <time>2021-01-24T10:40:09.000Z</time>
      </trkpt>
      <trkpt lat="45.26006" lon="6.50737">
        <ele>2560.6000976562</ele>
        <time>2021-01-24T10:40:21.000Z</time>
      </trkpt>
      <trkpt lat="45.26006" lon="6.50737">
        <ele>2560.8000488281</ele>
        <time>2021-01-24T10:40:36.000Z</time>
      </trkpt>
      <trkpt lat="45.26006" lon="6.50737">
        <ele>2560.1999511719</ele>
        <time>2021-01-24T10:40:48.000Z</time>
      </trkpt>
      <trkpt lat="45.26006" lon="6.50737">
        <ele>2560.8000488281</ele>
        <time>2021-01-24T10:41:03.000Z</time>
      </trkpt>
      <trkpt lat="45.26006" lon="6.50737">
        <ele>2561</ele>
        <time>2021-01-24T10:41:17.000Z</time>
      </trkpt>
      <trkpt lat="45.26006" lon="6.50737">
        <ele>2561.3999023438</ele>
        <time>2021-01-24T10:41:31.000Z</time>
      </trkpt>
      <trkpt lat="45.26006" lon="6.50737">
        <ele>2560.6000976562</ele>
        <time>2021-01-24T10:41:44.000Z</time>
      </trkpt>
      <trkpt lat="45.26007" lon="6.50739">
        <ele>2561</ele>
        <time>2021-01-24T10:41:58.000Z</time>
      </trkpt>
      <trkpt lat="45.26007" lon="6.50739">
        <ele>2561.8000488281</ele>
        <time>2021-01-24T10:42:09.000Z</time>
      </trkpt>
      <trkpt lat="45.26007" lon="6.50739">
        <ele>2562</ele>
        <time>2021-01-24T10:42:14.000Z</time>
      </trkpt>
      <trkpt lat="45.26007" lon="6.50739">
        <ele>2562.3999023438</ele>
        <time>2021-01-24T10:42:27.000Z</time>
      </trkpt>
      <trkpt lat="45.26007" lon="6.50739">
        <ele>2562.6000976562</ele>
        <time>2021-01-24T10:42:43.000Z</time>
      </trkpt>
      <trkpt lat="45.26007" lon="6.50739">
        <ele>2560.8000488281</ele>
        <time>2021-01-24T10:42:54.000Z</time>
      </trkpt>
      <trkpt lat="45.26007" lon="6.50739">
        <ele>2560.6000976562</ele>
        <time>2021-01-24T10:42:56.000Z</time>
      </trkpt>
      <trkpt lat="45.26007" lon="6.50739">
        <ele>2561.8000488281</ele>
        <time>2021-01-24T10:43:08.000Z</time>
      </trkpt>
      <trkpt lat="45.26007" lon="6.50739">
        <ele>2562</ele>
        <time>2021-01-24T10:43:10.000Z</time>
      </trkpt>
      <trkpt lat="45.26007" lon="6.50739">
        <ele>2562</ele>
        <time>2021-01-24T10:43:24.000Z</time>
      </trkpt>
      <trkpt lat="45.26007" lon="6.50739">
        <ele>2562</ele>
        <time>2021-01-24T10:43:35.000Z</time>
      </trkpt>
      <trkpt lat="45.26007" lon="6.50739">
        <ele>2562.8000488281</ele>
        <time>2021-01-24T10:43:47.000Z</time>
      </trkpt>
      <trkpt lat="45.26007" lon="6.50739">
        <ele>2562.8000488281</ele>
        <time>2021-01-24T10:43:48.000Z</time>
      </trkpt>
      <trkpt lat="45.26007" lon="6.50739">
        <ele>2562.3999023438</ele>
        <time>2021-01-24T10:43:58.000Z</time>
      </trkpt>
      <trkpt lat="45.26007" lon="6.50739">
        <ele>2562</ele>
        <time>2021-01-24T10:44:08.000Z</time>
      </trkpt>
      <trkpt lat="45.26001" lon="6.50747">
        <ele>2564</ele>
        <time>2021-01-24T10:44:15.000Z</time>
      </trkpt>
      <trkpt lat="45.25999" lon="6.5075">
        <ele>2565</ele>
        <time>2021-01-24T10:44:17.000Z</time>
      </trkpt>
      <trkpt lat="45.25998" lon="6.50752">
        <ele>2566.1999511719</ele>
        <time>2021-01-24T10:44:19.000Z</time>
      </trkpt>
      <trkpt lat="45.25996" lon="6.50755">
        <ele>2567.6000976562</ele>
        <time>2021-01-24T10:44:21.000Z</time>
      </trkpt>
      <trkpt lat="45.25994" lon="6.50757">
        <ele>2568.6000976562</ele>
        <time>2021-01-24T10:44:23.000Z</time>
      </trkpt>
      <trkpt lat="45.25993" lon="6.50759">
        <ele>2568.8000488281</ele>
        <time>2021-01-24T10:44:25.000Z</time>
      </trkpt>
      <trkpt lat="45.2599" lon="6.50762">
        <ele>2569.6000976562</ele>
        <time>2021-01-24T10:44:30.000Z</time>
      </trkpt>
      <trkpt lat="45.25989" lon="6.50765">
        <ele>2571</ele>
        <time>2021-01-24T10:44:33.000Z</time>
      </trkpt>
      <trkpt lat="45.25987" lon="6.50768">
        <ele>2572.1999511719</ele>
        <time>2021-01-24T10:44:36.000Z</time>
      </trkpt>
      <trkpt lat="45.25985" lon="6.50771">
        <ele>2572.6000976562</ele>
        <time>2021-01-24T10:44:40.000Z</time>
      </trkpt>
      <trkpt lat="45.25984" lon="6.50774">
        <ele>2573.1999511719</ele>
        <time>2021-01-24T10:44:43.000Z</time>
      </trkpt>
      <trkpt lat="45.25982" lon="6.50778">
        <ele>2574</ele>
        <time>2021-01-24T10:44:47.000Z</time>
      </trkpt>
      <trkpt lat="45.25981" lon="6.50779">
        <ele>2574.3999023438</ele>
        <time>2021-01-24T10:44:48.000Z</time>
      </trkpt>
      <trkpt lat="45.2598" lon="6.50783">
        <ele>2574.8000488281</ele>
        <time>2021-01-24T10:44:54.000Z</time>
      </trkpt>
      <trkpt lat="45.25977" lon="6.50787">
        <ele>2575.6000976562</ele>
        <time>2021-01-24T10:45:00.000Z</time>
      </trkpt>
      <trkpt lat="45.25975" lon="6.5079">
        <ele>2576.1999511719</ele>
        <time>2021-01-24T10:45:04.000Z</time>
      </trkpt>
      <trkpt lat="45.25974" lon="6.50792">
        <ele>2576.8000488281</ele>
        <time>2021-01-24T10:45:06.000Z</time>
      </trkpt>
      <trkpt lat="45.25972" lon="6.50795">
        <ele>2578.3999023438</ele>
        <time>2021-01-24T10:45:10.000Z</time>
      </trkpt>
      <trkpt lat="45.25972" lon="6.50796">
        <ele>2579</ele>
        <time>2021-01-24T10:45:12.000Z</time>
      </trkpt>
      <trkpt lat="45.25971" lon="6.50797">
        <ele>2579.3999023438</ele>
        <time>2021-01-24T10:45:14.000Z</time>
      </trkpt>
      <trkpt lat="45.25969" lon="6.50799">
        <ele>2580.8000488281</ele>
        <time>2021-01-24T10:45:19.000Z</time>
      </trkpt>
      <trkpt lat="45.25969" lon="6.508">
        <ele>2581.3999023438</ele>
        <time>2021-01-24T10:45:21.000Z</time>
      </trkpt>
      <trkpt lat="45.25968" lon="6.50804">
        <ele>2582</ele>
        <time>2021-01-24T10:45:24.000Z</time>
      </trkpt>
      <trkpt lat="45.25966" lon="6.50807">
        <ele>2583.1999511719</ele>
        <time>2021-01-24T10:45:28.000Z</time>
      </trkpt>
      <trkpt lat="45.25966" lon="6.5081">
        <ele>2584.3999023438</ele>
        <time>2021-01-24T10:45:32.000Z</time>
      </trkpt>
      <trkpt lat="45.25965" lon="6.50812">
        <ele>2585.3999023438</ele>
        <time>2021-01-24T10:45:35.000Z</time>
      </trkpt>
      <trkpt lat="45.25964" lon="6.50813">
        <ele>2585.6000976562</ele>
        <time>2021-01-24T10:45:36.000Z</time>
      </trkpt>
      <trkpt lat="45.25961" lon="6.50819">
        <ele>2586.6000976562</ele>
        <time>2021-01-24T10:45:44.000Z</time>
      </trkpt>
      <trkpt lat="45.2596" lon="6.50819">
        <ele>2586.8000488281</ele>
        <time>2021-01-24T10:45:45.000Z</time>
      </trkpt>
      <trkpt lat="45.25958" lon="6.50823">
        <ele>2587.8000488281</ele>
        <time>2021-01-24T10:45:50.000Z</time>
      </trkpt>
      <trkpt lat="45.25958" lon="6.50824">
        <ele>2588.1999511719</ele>
        <time>2021-01-24T10:45:51.000Z</time>
      </trkpt>
      <trkpt lat="45.25958" lon="6.50826">
        <ele>2589</ele>
        <time>2021-01-24T10:45:53.000Z</time>
      </trkpt>
      <trkpt lat="45.25958" lon="6.50828">
        <ele>2590</ele>
        <time>2021-01-24T10:45:55.000Z</time>
      </trkpt>
      <trkpt lat="45.25958" lon="6.50829">
        <ele>2591.1999511719</ele>
        <time>2021-01-24T10:45:57.000Z</time>
      </trkpt>
      <trkpt lat="45.25956" lon="6.50833">
        <ele>2591.8000488281</ele>
        <time>2021-01-24T10:46:04.000Z</time>
      </trkpt>
      <trkpt lat="45.25953" lon="6.5084">
        <ele>2591.8000488281</ele>
        <time>2021-01-24T10:46:12.000Z</time>
      </trkpt>
      <trkpt lat="45.25951" lon="6.50844">
        <ele>2592.1999511719</ele>
        <time>2021-01-24T10:46:18.000Z</time>
      </trkpt>
      <trkpt lat="45.25951" lon="6.50845">
        <ele>2592.1999511719</ele>
        <time>2021-01-24T10:46:19.000Z</time>
      </trkpt>
      <trkpt lat="45.25948" lon="6.50852">
        <ele>2593.1999511719</ele>
        <time>2021-01-24T10:46:27.000Z</time>
      </trkpt>
      <trkpt lat="45.25947" lon="6.50853">
        <ele>2593.3999023438</ele>
        <time>2021-01-24T10:46:28.000Z</time>
      </trkpt>
      <trkpt lat="45.25945" lon="6.50857">
        <ele>2594</ele>
        <time>2021-01-24T10:46:36.000Z</time>
      </trkpt>
      <trkpt lat="45.25945" lon="6.50858">
        <ele>2594.3999023438</ele>
        <time>2021-01-24T10:46:38.000Z</time>
      </trkpt>
      <trkpt lat="45.25942" lon="6.50861">
        <ele>2594.8000488281</ele>
        <time>2021-01-24T10:46:44.000Z</time>
      </trkpt>
      <trkpt lat="45.25941" lon="6.50863">
        <ele>2595.6000976562</ele>
        <time>2021-01-24T10:46:47.000Z</time>
      </trkpt>
      <trkpt lat="45.25938" lon="6.50867">
        <ele>2596.8000488281</ele>
        <time>2021-01-24T10:46:53.000Z</time>
      </trkpt>
      <trkpt lat="45.25936" lon="6.5087">
        <ele>2598</ele>
        <time>2021-01-24T10:46:57.000Z</time>
      </trkpt>
      <trkpt lat="45.25937" lon="6.50873">
        <ele>2598.8000488281</ele>
        <time>2021-01-24T10:47:00.000Z</time>
      </trkpt>
      <trkpt lat="45.25937" lon="6.50874">
        <ele>2599.1999511719</ele>
        <time>2021-01-24T10:47:01.000Z</time>
      </trkpt>
      <trkpt lat="45.25938" lon="6.50878">
        <ele>2600.1999511719</ele>
        <time>2021-01-24T10:47:06.000Z</time>
      </trkpt>
      <trkpt lat="45.25939" lon="6.5088">
        <ele>2600.3999023438</ele>
        <time>2021-01-24T10:47:11.000Z</time>
      </trkpt>
      <trkpt lat="45.2594" lon="6.50881">
        <ele>2601</ele>
        <time>2021-01-24T10:47:13.000Z</time>
      </trkpt>
      <trkpt lat="45.2594" lon="6.50882">
        <ele>2601.3999023438</ele>
        <time>2021-01-24T10:47:15.000Z</time>
      </trkpt>
      <trkpt lat="45.2594" lon="6.50884">
        <ele>2601.8000488281</ele>
        <time>2021-01-24T10:47:18.000Z</time>
      </trkpt>
      <trkpt lat="45.25942" lon="6.50889">
        <ele>2601.1999511719</ele>
        <time>2021-01-24T10:47:25.000Z</time>
      </trkpt>
      <trkpt lat="45.25944" lon="6.50891">
        <ele>2602.3999023438</ele>
        <time>2021-01-24T10:47:32.000Z</time>
      </trkpt>
      <trkpt lat="45.25944" lon="6.50891">
        <ele>2603.8000488281</ele>
        <time>2021-01-24T10:47:35.000Z</time>
      </trkpt>
      <trkpt lat="45.25945" lon="6.50893">
        <ele>2604.1999511719</ele>
        <time>2021-01-24T10:47:44.000Z</time>
      </trkpt>
      <trkpt lat="45.25948" lon="6.50897">
        <ele>2605</ele>
        <time>2021-01-24T10:47:51.000Z</time>
      </trkpt>
      <trkpt lat="45.25949" lon="6.50899">
        <ele>2605.6000976562</ele>
        <time>2021-01-24T10:47:53.000Z</time>
      </trkpt>
      <trkpt lat="45.2595" lon="6.509">
        <ele>2606.3999023438</ele>
        <time>2021-01-24T10:47:55.000Z</time>
      </trkpt>
      <trkpt lat="45.25951" lon="6.50902">
        <ele>2607.3999023438</ele>
        <time>2021-01-24T10:47:58.000Z</time>
      </trkpt>
      <trkpt lat="45.25951" lon="6.50904">
        <ele>2608.1999511719</ele>
        <time>2021-01-24T10:48:00.000Z</time>
      </trkpt>
      <trkpt lat="45.25952" lon="6.50905">
        <ele>2608.8000488281</ele>
        <time>2021-01-24T10:48:02.000Z</time>
      </trkpt>
      <trkpt lat="45.25953" lon="6.50907">
        <ele>2610</ele>
        <time>2021-01-24T10:48:04.000Z</time>
      </trkpt>
      <trkpt lat="45.25954" lon="6.50908">
        <ele>2610.6000976562</ele>
        <time>2021-01-24T10:48:06.000Z</time>
      </trkpt>
      <trkpt lat="45.25955" lon="6.50909">
        <ele>2611</ele>
        <time>2021-01-24T10:48:09.000Z</time>
      </trkpt>
      <trkpt lat="45.25956" lon="6.50911">
        <ele>2611</ele>
        <time>2021-01-24T10:48:13.000Z</time>
      </trkpt>
      <trkpt lat="45.25961" lon="6.50916">
        <ele>2611.8000488281</ele>
        <time>2021-01-24T10:48:21.000Z</time>
      </trkpt>
      <trkpt lat="45.25962" lon="6.50918">
        <ele>2612.3999023438</ele>
        <time>2021-01-24T10:48:23.000Z</time>
      </trkpt>
      <trkpt lat="45.25964" lon="6.50921">
        <ele>2613.3999023438</ele>
        <time>2021-01-24T10:48:28.000Z</time>
      </trkpt>
      <trkpt lat="45.25964" lon="6.50922">
        <ele>2613.6000976562</ele>
        <time>2021-01-24T10:48:29.000Z</time>
      </trkpt>
      <trkpt lat="45.25966" lon="6.50926">
        <ele>2614.8000488281</ele>
        <time>2021-01-24T10:48:33.000Z</time>
      </trkpt>
      <trkpt lat="45.25968" lon="6.50929">
        <ele>2615.3999023438</ele>
        <time>2021-01-24T10:48:37.000Z</time>
      </trkpt>
      <trkpt lat="45.2597" lon="6.50932">
        <ele>2615.8000488281</ele>
        <time>2021-01-24T10:48:41.000Z</time>
      </trkpt>
      <trkpt lat="45.25972" lon="6.50934">
        <ele>2616.1999511719</ele>
        <time>2021-01-24T10:48:45.000Z</time>
      </trkpt>
      <trkpt lat="45.25975" lon="6.50937">
        <ele>2616.8000488281</ele>
        <time>2021-01-24T10:48:49.000Z</time>
      </trkpt>
      <trkpt lat="45.25978" lon="6.5094">
        <ele>2617.8000488281</ele>
        <time>2021-01-24T10:48:54.000Z</time>
      </trkpt>
      <trkpt lat="45.2598" lon="6.50943">
        <ele>2619</ele>
        <time>2021-01-24T10:49:00.000Z</time>
      </trkpt>
      <trkpt lat="45.25982" lon="6.50945">
        <ele>2620</ele>
        <time>2021-01-24T10:49:03.000Z</time>
      </trkpt>
      <trkpt lat="45.25982" lon="6.50946">
        <ele>2621.1999511719</ele>
        <time>2021-01-24T10:49:07.000Z</time>
      </trkpt>
      <trkpt lat="45.25982" lon="6.50946">
        <ele>2621.6000976562</ele>
        <time>2021-01-24T10:49:10.000Z</time>
      </trkpt>
      <trkpt lat="45.25976" lon="6.50946">
        <ele>2622.3999023438</ele>
        <time>2021-01-24T10:49:20.000Z</time>
      </trkpt>
      <trkpt lat="45.25974" lon="6.50948">
        <ele>2623.1999511719</ele>
        <time>2021-01-24T10:49:30.000Z</time>
      </trkpt>
      <trkpt lat="45.25973" lon="6.50948">
        <ele>2623.6000976562</ele>
        <time>2021-01-24T10:49:39.000Z</time>
      </trkpt>
      <trkpt lat="45.25974" lon="6.5095">
        <ele>2623.8000488281</ele>
        <time>2021-01-24T10:49:49.000Z</time>
      </trkpt>
      <trkpt lat="45.25975" lon="6.50953">
        <ele>2624.6000976562</ele>
        <time>2021-01-24T10:49:53.000Z</time>
      </trkpt>
      <trkpt lat="45.25976" lon="6.50956">
        <ele>2626.1999511719</ele>
        <time>2021-01-24T10:49:59.000Z</time>
      </trkpt>
      <trkpt lat="45.25979" lon="6.50958">
        <ele>2627.1999511719</ele>
        <time>2021-01-24T10:50:05.000Z</time>
      </trkpt>
      <trkpt lat="45.2598" lon="6.5096">
        <ele>2627.8000488281</ele>
        <time>2021-01-24T10:50:09.000Z</time>
      </trkpt>
      <trkpt lat="45.25982" lon="6.50962">
        <ele>2628.3999023438</ele>
        <time>2021-01-24T10:50:13.000Z</time>
      </trkpt>
      <trkpt lat="45.25983" lon="6.50963">
        <ele>2629.3999023438</ele>
        <time>2021-01-24T10:50:17.000Z</time>
      </trkpt>
      <trkpt lat="45.25983" lon="6.50963">
        <ele>2629.6000976562</ele>
        <time>2021-01-24T10:50:18.000Z</time>
      </trkpt>
      <trkpt lat="45.25983" lon="6.50963">
        <ele>2630.3999023438</ele>
        <time>2021-01-24T10:50:21.000Z</time>
      </trkpt>
      <trkpt lat="45.25983" lon="6.50963">
        <ele>2631.6000976562</ele>
        <time>2021-01-24T10:50:23.000Z</time>
      </trkpt>
      <trkpt lat="45.25982" lon="6.50963">
        <ele>2631.6000976562</ele>
        <time>2021-01-24T10:50:26.000Z</time>
      </trkpt>
      <trkpt lat="45.2598" lon="6.50964">
        <ele>2631.6000976562</ele>
        <time>2021-01-24T10:50:28.000Z</time>
      </trkpt>
      <trkpt lat="45.25973" lon="6.50966">
        <ele>2632.3999023438</ele>
        <time>2021-01-24T10:50:38.000Z</time>
      </trkpt>
      <trkpt lat="45.25971" lon="6.50967">
        <ele>2632.8000488281</ele>
        <time>2021-01-24T10:50:42.000Z</time>
      </trkpt>
      <trkpt lat="45.2597" lon="6.50967">
        <ele>2633.8000488281</ele>
        <time>2021-01-24T10:50:49.000Z</time>
      </trkpt>
      <trkpt lat="45.25972" lon="6.5097">
        <ele>2634.8000488281</ele>
        <time>2021-01-24T10:50:57.000Z</time>
      </trkpt>
      <trkpt lat="45.25972" lon="6.5097">
        <ele>2635</ele>
        <time>2021-01-24T10:50:58.000Z</time>
      </trkpt>
      <trkpt lat="45.25973" lon="6.50972">
        <ele>2636.3999023438</ele>
        <time>2021-01-24T10:51:03.000Z</time>
      </trkpt>
      <trkpt lat="45.25973" lon="6.50972">
        <ele>2637.8000488281</ele>
        <time>2021-01-24T10:51:06.000Z</time>
      </trkpt>
      <trkpt lat="45.25973" lon="6.50972">
        <ele>2637.8000488281</ele>
        <time>2021-01-24T10:51:11.000Z</time>
      </trkpt>
      <trkpt lat="45.25968" lon="6.50976">
        <ele>2639.1999511719</ele>
        <time>2021-01-24T10:51:20.000Z</time>
      </trkpt>
      <trkpt lat="45.25968" lon="6.50978">
        <ele>2640.3999023438</ele>
        <time>2021-01-24T10:51:22.000Z</time>
      </trkpt>
      <trkpt lat="45.25968" lon="6.50979">
        <ele>2641.8000488281</ele>
        <time>2021-01-24T10:51:24.000Z</time>
      </trkpt>
      <trkpt lat="45.25968" lon="6.50981">
        <ele>2642.8000488281</ele>
        <time>2021-01-24T10:51:26.000Z</time>
      </trkpt>
      <trkpt lat="45.25969" lon="6.50982">
        <ele>2643.3999023438</ele>
        <time>2021-01-24T10:51:28.000Z</time>
      </trkpt>
      <trkpt lat="45.25969" lon="6.50983">
        <ele>2644</ele>
        <time>2021-01-24T10:51:30.000Z</time>
      </trkpt>
      <trkpt lat="45.25969" lon="6.50983">
        <ele>2645.3999023438</ele>
        <time>2021-01-24T10:51:33.000Z</time>
      </trkpt>
      <trkpt lat="45.25969" lon="6.50983">
        <ele>2647.1999511719</ele>
        <time>2021-01-24T10:51:35.000Z</time>
      </trkpt>
      <trkpt lat="45.25969" lon="6.50983">
        <ele>2647.6000976562</ele>
        <time>2021-01-24T10:51:36.000Z</time>
      </trkpt>
      <trkpt lat="45.25969" lon="6.50983">
        <ele>2646.1999511719</ele>
        <time>2021-01-24T10:51:41.000Z</time>
      </trkpt>
      <trkpt lat="45.25969" lon="6.50983">
        <ele>2645</ele>
        <time>2021-01-24T10:51:46.000Z</time>
      </trkpt>
      <trkpt lat="45.25969" lon="6.50983">
        <ele>2645.3999023438</ele>
        <time>2021-01-24T10:51:52.000Z</time>
      </trkpt>
      <trkpt lat="45.25969" lon="6.50983">
        <ele>2643.8000488281</ele>
        <time>2021-01-24T10:52:08.000Z</time>
      </trkpt>
      <trkpt lat="45.25969" lon="6.50983">
        <ele>2645</ele>
        <time>2021-01-24T10:52:20.000Z</time>
      </trkpt>
      <trkpt lat="45.25969" lon="6.50983">
        <ele>2645</ele>
        <time>2021-01-24T10:52:24.000Z</time>
      </trkpt>
      <trkpt lat="45.25969" lon="6.50982">
        <ele>2643.6000976562</ele>
        <time>2021-01-24T10:52:29.000Z</time>
      </trkpt>
      <trkpt lat="45.25973" lon="6.50984">
        <ele>2643.1999511719</ele>
        <time>2021-01-24T10:52:34.000Z</time>
      </trkpt>
      <trkpt lat="45.25974" lon="6.50985">
        <ele>2644.8000488281</ele>
        <time>2021-01-24T10:52:41.000Z</time>
      </trkpt>
      <trkpt lat="45.25974" lon="6.50985">
        <ele>2645.8000488281</ele>
        <time>2021-01-24T10:52:51.000Z</time>
      </trkpt>
      <trkpt lat="45.25974" lon="6.50985">
        <ele>2645.8000488281</ele>
        <time>2021-01-24T10:52:55.000Z</time>
      </trkpt>
      <trkpt lat="45.25974" lon="6.50985">
        <ele>2644.6000976562</ele>
        <time>2021-01-24T10:52:59.000Z</time>
      </trkpt>
      <trkpt lat="45.25974" lon="6.50985">
        <ele>2645.6000976562</ele>
        <time>2021-01-24T10:53:11.000Z</time>
      </trkpt>
      <trkpt lat="45.25974" lon="6.50985">
        <ele>2645.6000976562</ele>
        <time>2021-01-24T10:53:12.000Z</time>
      </trkpt>
      <trkpt lat="45.25974" lon="6.50985">
        <ele>2646.1999511719</ele>
        <time>2021-01-24T10:53:25.000Z</time>
      </trkpt>
      <trkpt lat="45.25974" lon="6.50985">
        <ele>2647.1999511719</ele>
        <time>2021-01-24T10:53:35.000Z</time>
      </trkpt>
      <trkpt lat="45.25974" lon="6.50985">
        <ele>2647.1999511719</ele>
        <time>2021-01-24T10:53:37.000Z</time>
      </trkpt>
      <trkpt lat="45.25974" lon="6.50985">
        <ele>2646.3999023438</ele>
        <time>2021-01-24T10:53:51.000Z</time>
      </trkpt>
      <trkpt lat="45.25974" lon="6.50985">
        <ele>2646</ele>
        <time>2021-01-24T10:53:53.000Z</time>
      </trkpt>
      <trkpt lat="45.25974" lon="6.50985">
        <ele>2645.1999511719</ele>
        <time>2021-01-24T10:54:02.000Z</time>
      </trkpt>
      <trkpt lat="45.25974" lon="6.50985">
        <ele>2644.3999023438</ele>
        <time>2021-01-24T10:54:13.000Z</time>
      </trkpt>
      <trkpt lat="45.25974" lon="6.50984">
        <ele>2643.1999511719</ele>
        <time>2021-01-24T10:54:15.000Z</time>
      </trkpt>
      <trkpt lat="45.25971" lon="6.5098">
        <ele>2644.6000976562</ele>
        <time>2021-01-24T10:54:20.000Z</time>
      </trkpt>
      <trkpt lat="45.2597" lon="6.5098">
        <ele>2644.8000488281</ele>
        <time>2021-01-24T10:54:21.000Z</time>
      </trkpt>
      <trkpt lat="45.25967" lon="6.50976">
        <ele>2644.6000976562</ele>
        <time>2021-01-24T10:54:23.000Z</time>
      </trkpt>
      <trkpt lat="45.25966" lon="6.50974">
        <ele>2643.8000488281</ele>
        <time>2021-01-24T10:54:25.000Z</time>
      </trkpt>
      <trkpt lat="45.25966" lon="6.50973">
        <ele>2643.3999023438</ele>
        <time>2021-01-24T10:54:26.000Z</time>
      </trkpt>
      <trkpt lat="45.25966" lon="6.5097">
        <ele>2643.1999511719</ele>
        <time>2021-01-24T10:54:29.000Z</time>
      </trkpt>
      <trkpt lat="45.25965" lon="6.50969">
        <ele>2644.6000976562</ele>
        <time>2021-01-24T10:54:35.000Z</time>
      </trkpt>
      <trkpt lat="45.25965" lon="6.50969">
        <ele>2645.6000976562</ele>
        <time>2021-01-24T10:54:40.000Z</time>
      </trkpt>
      <trkpt lat="45.25965" lon="6.50969">
        <ele>2645.8000488281</ele>
        <time>2021-01-24T10:54:41.000Z</time>
      </trkpt>
      <trkpt lat="45.25965" lon="6.50969">
        <ele>2644.3999023438</ele>
        <time>2021-01-24T10:54:49.000Z</time>
      </trkpt>
      <trkpt lat="45.25964" lon="6.5097">
        <ele>2644.3999023438</ele>
        <time>2021-01-24T10:54:51.000Z</time>
      </trkpt>
      <trkpt lat="45.25962" lon="6.50972">
        <ele>2645.3999023438</ele>
        <time>2021-01-24T10:54:53.000Z</time>
      </trkpt>
      <trkpt lat="45.25961" lon="6.5097">
        <ele>2646</ele>
        <time>2021-01-24T10:54:59.000Z</time>
      </trkpt>
      <trkpt lat="45.25961" lon="6.5097">
        <ele>2644.1999511719</ele>
        <time>2021-01-24T10:55:05.000Z</time>
      </trkpt>
      <trkpt lat="45.25961" lon="6.5097">
        <ele>2644</ele>
        <time>2021-01-24T10:55:09.000Z</time>
      </trkpt>
      <trkpt lat="45.25961" lon="6.5097">
        <ele>2645.3999023438</ele>
        <time>2021-01-24T10:55:14.000Z</time>
      </trkpt>
      <trkpt lat="45.25961" lon="6.5097">
        <ele>2646.6000976562</ele>
        <time>2021-01-24T10:55:17.000Z</time>
      </trkpt>
      <trkpt lat="45.25963" lon="6.50971">
        <ele>2646.6000976562</ele>
        <time>2021-01-24T10:55:23.000Z</time>
      </trkpt>
      <trkpt lat="45.25966" lon="6.50973">
        <ele>2646.1999511719</ele>
        <time>2021-01-24T10:55:34.000Z</time>
      </trkpt>
      <trkpt lat="45.25965" lon="6.50972">
        <ele>2646</ele>
        <time>2021-01-24T10:55:46.000Z</time>
      </trkpt>
      <trkpt lat="45.25967" lon="6.50969">
        <ele>2646.6000976562</ele>
        <time>2021-01-24T10:55:58.000Z</time>
      </trkpt>
      <trkpt lat="45.25967" lon="6.50969">
        <ele>2646.3999023438</ele>
        <time>2021-01-24T10:56:10.000Z</time>
      </trkpt>
      <trkpt lat="45.25967" lon="6.50969">
        <ele>2645.1999511719</ele>
        <time>2021-01-24T10:56:16.000Z</time>
      </trkpt>
      <trkpt lat="45.25966" lon="6.50966">
        <ele>2644.1999511719</ele>
        <time>2021-01-24T10:56:20.000Z</time>
      </trkpt>
      <trkpt lat="45.25966" lon="6.50966">
        <ele>2645</ele>
        <time>2021-01-24T10:56:22.000Z</time>
      </trkpt>
      <trkpt lat="45.25966" lon="6.50966">
        <ele>2645.6000976562</ele>
        <time>2021-01-24T10:56:24.000Z</time>
      </trkpt>
      <trkpt lat="45.25966" lon="6.50966">
        <ele>2645.3999023438</ele>
        <time>2021-01-24T10:56:33.000Z</time>
      </trkpt>
      <trkpt lat="45.25967" lon="6.50967">
        <ele>2644.8000488281</ele>
        <time>2021-01-24T10:56:44.000Z</time>
      </trkpt>
      <trkpt lat="45.25967" lon="6.50966">
        <ele>2646.6000976562</ele>
        <time>2021-01-24T10:56:48.000Z</time>
      </trkpt>
      <trkpt lat="45.25967" lon="6.50966">
        <ele>2645.3999023438</ele>
        <time>2021-01-24T10:56:54.000Z</time>
      </trkpt>
      <trkpt lat="45.25967" lon="6.50966">
        <ele>2644.1999511719</ele>
        <time>2021-01-24T10:56:56.000Z</time>
      </trkpt>
      <trkpt lat="45.25965" lon="6.50971">
        <ele>2645.6000976562</ele>
        <time>2021-01-24T10:57:01.000Z</time>
      </trkpt>
      <trkpt lat="45.25963" lon="6.50974">
        <ele>2645.8000488281</ele>
        <time>2021-01-24T10:57:03.000Z</time>
      </trkpt>
      <trkpt lat="45.25959" lon="6.50975">
        <ele>2646</ele>
        <time>2021-01-24T10:57:11.000Z</time>
      </trkpt>
      <trkpt lat="45.25959" lon="6.50975">
        <ele>2645.3999023438</ele>
        <time>2021-01-24T10:57:25.000Z</time>
      </trkpt>
      <trkpt lat="45.2596" lon="6.50975">
        <ele>2644.3999023438</ele>
        <time>2021-01-24T10:57:30.000Z</time>
      </trkpt>
      <trkpt lat="45.2596" lon="6.50975">
        <ele>2643.1999511719</ele>
        <time>2021-01-24T10:57:34.000Z</time>
      </trkpt>
      <trkpt lat="45.2596" lon="6.50975">
        <ele>2642.8000488281</ele>
        <time>2021-01-24T10:57:37.000Z</time>
      </trkpt>
      <trkpt lat="45.2596" lon="6.50975">
        <ele>2644.1999511719</ele>
        <time>2021-01-24T10:57:49.000Z</time>
      </trkpt>
      <trkpt lat="45.2596" lon="6.50975">
        <ele>2644.3999023438</ele>
        <time>2021-01-24T10:57:50.000Z</time>
      </trkpt>
      <trkpt lat="45.2596" lon="6.50975">
        <ele>2644.6000976562</ele>
        <time>2021-01-24T10:58:04.000Z</time>
      </trkpt>
      <trkpt lat="45.25959" lon="6.50974">
        <ele>2645.6000976562</ele>
        <time>2021-01-24T10:58:08.000Z</time>
      </trkpt>
      <trkpt lat="45.25961" lon="6.50972">
        <ele>2645.6000976562</ele>
        <time>2021-01-24T10:58:13.000Z</time>
      </trkpt>
      <trkpt lat="45.25961" lon="6.50972">
        <ele>2645.6000976562</ele>
        <time>2021-01-24T10:58:22.000Z</time>
      </trkpt>
      <trkpt lat="45.25961" lon="6.50972">
        <ele>2645.3999023438</ele>
        <time>2021-01-24T10:58:23.000Z</time>
      </trkpt>
      <trkpt lat="45.25961" lon="6.50972">
        <ele>2645.3999023438</ele>
        <time>2021-01-24T10:58:35.000Z</time>
      </trkpt>
      <trkpt lat="45.25961" lon="6.50972">
        <ele>2644.6000976562</ele>
        <time>2021-01-24T10:58:43.000Z</time>
      </trkpt>
      <trkpt lat="45.25961" lon="6.50972">
        <ele>2644.6000976562</ele>
        <time>2021-01-24T10:58:50.000Z</time>
      </trkpt>
      <trkpt lat="45.25961" lon="6.50972">
        <ele>2643.8000488281</ele>
        <time>2021-01-24T10:59:04.000Z</time>
      </trkpt>
      <trkpt lat="45.25961" lon="6.50972">
        <ele>2643.6000976562</ele>
        <time>2021-01-24T10:59:07.000Z</time>
      </trkpt>
      <trkpt lat="45.25961" lon="6.50972">
        <ele>2644.8000488281</ele>
        <time>2021-01-24T10:59:13.000Z</time>
      </trkpt>
      <trkpt lat="45.25961" lon="6.50972">
        <ele>2645.8000488281</ele>
        <time>2021-01-24T10:59:19.000Z</time>
      </trkpt>
      <trkpt lat="45.25961" lon="6.50972">
        <ele>2645.3999023438</ele>
        <time>2021-01-24T10:59:36.000Z</time>
      </trkpt>
      <trkpt lat="45.25961" lon="6.50972">
        <ele>2646</ele>
        <time>2021-01-24T10:59:42.000Z</time>
      </trkpt>
      <trkpt lat="45.25961" lon="6.50972">
        <ele>2646.8000488281</ele>
        <time>2021-01-24T10:59:50.000Z</time>
      </trkpt>
      <trkpt lat="45.25961" lon="6.50972">
        <ele>2645.3999023438</ele>
        <time>2021-01-24T11:00:01.000Z</time>
      </trkpt>
      <trkpt lat="45.25961" lon="6.50972">
        <ele>2645.8000488281</ele>
        <time>2021-01-24T11:00:15.000Z</time>
      </trkpt>
      <trkpt lat="45.25961" lon="6.50972">
        <ele>2645.8000488281</ele>
        <time>2021-01-24T11:00:28.000Z</time>
      </trkpt>
      <trkpt lat="45.25961" lon="6.50972">
        <ele>2646.3999023438</ele>
        <time>2021-01-24T11:00:40.000Z</time>
      </trkpt>
      <trkpt lat="45.25965" lon="6.50973">
        <ele>2644.3999023438</ele>
        <time>2021-01-24T11:00:49.000Z</time>
      </trkpt>
      <trkpt lat="45.25966" lon="6.50973">
        <ele>2642.8000488281</ele>
        <time>2021-01-24T11:00:51.000Z</time>
      </trkpt>
      <trkpt lat="45.25968" lon="6.50973">
        <ele>2641.3999023438</ele>
        <time>2021-01-24T11:00:54.000Z</time>
      </trkpt>
      <trkpt lat="45.25968" lon="6.50973">
        <ele>2641</ele>
        <time>2021-01-24T11:00:56.000Z</time>
      </trkpt>
      <trkpt lat="45.25968" lon="6.50973">
        <ele>2640.3999023438</ele>
        <time>2021-01-24T11:01:02.000Z</time>
      </trkpt>
      <trkpt lat="45.25968" lon="6.50973">
        <ele>2640.3999023438</ele>
        <time>2021-01-24T11:01:07.000Z</time>
      </trkpt>
      <trkpt lat="45.25968" lon="6.50973">
        <ele>2640.3999023438</ele>
        <time>2021-01-24T11:01:17.000Z</time>
      </trkpt>
      <trkpt lat="45.25968" lon="6.50973">
        <ele>2640.3999023438</ele>
        <time>2021-01-24T11:01:18.000Z</time>
      </trkpt>
      <trkpt lat="45.25968" lon="6.50973">
        <ele>2641.1999511719</ele>
        <time>2021-01-24T11:01:30.000Z</time>
      </trkpt>
      <trkpt lat="45.25968" lon="6.50973">
        <ele>2640.3999023438</ele>
        <time>2021-01-24T11:01:44.000Z</time>
      </trkpt>
      <trkpt lat="45.25971" lon="6.50972">
        <ele>2639.8000488281</ele>
        <time>2021-01-24T11:01:52.000Z</time>
      </trkpt>
      <trkpt lat="45.25973" lon="6.5097">
        <ele>2639.3999023438</ele>
        <time>2021-01-24T11:01:53.000Z</time>
      </trkpt>
      <trkpt lat="45.25978" lon="6.50969">
        <ele>2638.1999511719</ele>
        <time>2021-01-24T11:01:55.000Z</time>
      </trkpt>
      <trkpt lat="45.25982" lon="6.50964">
        <ele>2637</ele>
        <time>2021-01-24T11:01:57.000Z</time>
      </trkpt>
      <trkpt lat="45.25978" lon="6.50958">
        <ele>2635.8000488281</ele>
        <time>2021-01-24T11:01:59.000Z</time>
      </trkpt>
      <trkpt lat="45.25976" lon="6.50956">
        <ele>2635</ele>
        <time>2021-01-24T11:02:00.000Z</time>
      </trkpt>
      <trkpt lat="45.25975" lon="6.50954">
        <ele>2634.3999023438</ele>
        <time>2021-01-24T11:02:01.000Z</time>
      </trkpt>
      <trkpt lat="45.25974" lon="6.50951">
        <ele>2633.3999023438</ele>
        <time>2021-01-24T11:02:02.000Z</time>
      </trkpt>
      <trkpt lat="45.25973" lon="6.50949">
        <ele>2632</ele>
        <time>2021-01-24T11:02:03.000Z</time>
      </trkpt>
      <trkpt lat="45.25974" lon="6.50947">
        <ele>2630.8000488281</ele>
        <time>2021-01-24T11:02:04.000Z</time>
      </trkpt>
      <trkpt lat="45.25976" lon="6.50945">
        <ele>2629.3999023438</ele>
        <time>2021-01-24T11:02:05.000Z</time>
      </trkpt>
      <trkpt lat="45.25976" lon="6.50942">
        <ele>2628</ele>
        <time>2021-01-24T11:02:06.000Z</time>
      </trkpt>
      <trkpt lat="45.25974" lon="6.50939">
        <ele>2626.3999023438</ele>
        <time>2021-01-24T11:02:07.000Z</time>
      </trkpt>
      <trkpt lat="45.25972" lon="6.50937">
        <ele>2625.6000976562</ele>
        <time>2021-01-24T11:02:08.000Z</time>
      </trkpt>
      <trkpt lat="45.25972" lon="6.50933">
        <ele>2624.8000488281</ele>
        <time>2021-01-24T11:02:09.000Z</time>
      </trkpt>
      <trkpt lat="45.25976" lon="6.50925">
        <ele>2622.6000976562</ele>
        <time>2021-01-24T11:02:11.000Z</time>
      </trkpt>
      <trkpt lat="45.25977" lon="6.50921">
        <ele>2620.6000976562</ele>
        <time>2021-01-24T11:02:12.000Z</time>
      </trkpt>
      <trkpt lat="45.25976" lon="6.50917">
        <ele>2619</ele>
        <time>2021-01-24T11:02:13.000Z</time>
      </trkpt>
      <trkpt lat="45.25974" lon="6.50913">
        <ele>2617.8000488281</ele>
        <time>2021-01-24T11:02:14.000Z</time>
      </trkpt>
      <trkpt lat="45.25971" lon="6.50906">
        <ele>2616.8000488281</ele>
        <time>2021-01-24T11:02:16.000Z</time>
      </trkpt>
      <trkpt lat="45.25968" lon="6.50902">
        <ele>2616.1999511719</ele>
        <time>2021-01-24T11:02:17.000Z</time>
      </trkpt>
      <trkpt lat="45.25965" lon="6.50899">
        <ele>2615.3999023438</ele>
        <time>2021-01-24T11:02:18.000Z</time>
      </trkpt>
      <trkpt lat="45.25958" lon="6.50896">
        <ele>2613.8000488281</ele>
        <time>2021-01-24T11:02:20.000Z</time>
      </trkpt>
      <trkpt lat="45.25952" lon="6.50894">
        <ele>2612.1999511719</ele>
        <time>2021-01-24T11:02:22.000Z</time>
      </trkpt>
      <trkpt lat="45.25952" lon="6.50893">
        <ele>2611</ele>
        <time>2021-01-24T11:02:24.000Z</time>
      </trkpt>
      <trkpt lat="45.25953" lon="6.5089">
        <ele>2610.8000488281</ele>
        <time>2021-01-24T11:02:25.000Z</time>
      </trkpt>
      <trkpt lat="45.25952" lon="6.5088">
        <ele>2609.1999511719</ele>
        <time>2021-01-24T11:02:27.000Z</time>
      </trkpt>
      <trkpt lat="45.25951" lon="6.50875">
        <ele>2607.6000976562</ele>
        <time>2021-01-24T11:02:28.000Z</time>
      </trkpt>
      <trkpt lat="45.25952" lon="6.50868">
        <ele>2606</ele>
        <time>2021-01-24T11:02:29.000Z</time>
      </trkpt>
      <trkpt lat="45.25952" lon="6.50861">
        <ele>2604.6000976562</ele>
        <time>2021-01-24T11:02:30.000Z</time>
      </trkpt>
      <trkpt lat="45.25952" lon="6.50853">
        <ele>2603</ele>
        <time>2021-01-24T11:02:31.000Z</time>
      </trkpt>
      <trkpt lat="45.25953" lon="6.50845">
        <ele>2601.6000976562</ele>
        <time>2021-01-24T11:02:33.000Z</time>
      </trkpt>
      <trkpt lat="45.25953" lon="6.50838">
        <ele>2600</ele>
        <time>2021-01-24T11:02:34.000Z</time>
      </trkpt>
      <trkpt lat="45.25952" lon="6.50832">
        <ele>2598.1999511719</ele>
        <time>2021-01-24T11:02:35.000Z</time>
      </trkpt>
      <trkpt lat="45.25951" lon="6.50827">
        <ele>2596.1999511719</ele>
        <time>2021-01-24T11:02:36.000Z</time>
      </trkpt>
      <trkpt lat="45.2595" lon="6.50821">
        <ele>2594.6000976562</ele>
        <time>2021-01-24T11:02:37.000Z</time>
      </trkpt>
      <trkpt lat="45.25945" lon="6.50815">
        <ele>2593</ele>
        <time>2021-01-24T11:02:38.000Z</time>
      </trkpt>
      <trkpt lat="45.25941" lon="6.50811">
        <ele>2591.1999511719</ele>
        <time>2021-01-24T11:02:39.000Z</time>
      </trkpt>
      <trkpt lat="45.25939" lon="6.5081">
        <ele>2589.6000976562</ele>
        <time>2021-01-24T11:02:40.000Z</time>
      </trkpt>
      <trkpt lat="45.25937" lon="6.50808">
        <ele>2588.3999023438</ele>
        <time>2021-01-24T11:02:41.000Z</time>
      </trkpt>
      <trkpt lat="45.25936" lon="6.50807">
        <ele>2587.1999511719</ele>
        <time>2021-01-24T11:02:42.000Z</time>
      </trkpt>
      <trkpt lat="45.25935" lon="6.5081">
        <ele>2586</ele>
        <time>2021-01-24T11:02:43.000Z</time>
      </trkpt>
      <trkpt lat="45.25935" lon="6.50812">
        <ele>2585</ele>
        <time>2021-01-24T11:02:44.000Z</time>
      </trkpt>
      <trkpt lat="45.25935" lon="6.50814">
        <ele>2584.6000976562</ele>
        <time>2021-01-24T11:02:45.000Z</time>
      </trkpt>
      <trkpt lat="45.25931" lon="6.50822">
        <ele>2584.3999023438</ele>
        <time>2021-01-24T11:02:56.000Z</time>
      </trkpt>
      <trkpt lat="45.25927" lon="6.50822">
        <ele>2584.6000976562</ele>
        <time>2021-01-24T11:02:58.000Z</time>
      </trkpt>
      <trkpt lat="45.25921" lon="6.50823">
        <ele>2584.6000976562</ele>
        <time>2021-01-24T11:03:00.000Z</time>
      </trkpt>
      <trkpt lat="45.25916" lon="6.50819">
        <ele>2583.3999023438</ele>
        <time>2021-01-24T11:03:02.000Z</time>
      </trkpt>
      <trkpt lat="45.25917" lon="6.50813">
        <ele>2582.1999511719</ele>
        <time>2021-01-24T11:03:03.000Z</time>
      </trkpt>
      <trkpt lat="45.25919" lon="6.50808">
        <ele>2580.6000976562</ele>
        <time>2021-01-24T11:03:04.000Z</time>
      </trkpt>
      <trkpt lat="45.25921" lon="6.50801">
        <ele>2578.8000488281</ele>
        <time>2021-01-24T11:03:05.000Z</time>
      </trkpt>
      <trkpt lat="45.25921" lon="6.50796">
        <ele>2577</ele>
        <time>2021-01-24T11:03:06.000Z</time>
      </trkpt>
      <trkpt lat="45.25919" lon="6.50791">
        <ele>2575.8000488281</ele>
        <time>2021-01-24T11:03:07.000Z</time>
      </trkpt>
      <trkpt lat="45.25916" lon="6.50782">
        <ele>2574</ele>
        <time>2021-01-24T11:03:09.000Z</time>
      </trkpt>
      <trkpt lat="45.25918" lon="6.50775">
        <ele>2572.8000488281</ele>
        <time>2021-01-24T11:03:10.000Z</time>
      </trkpt>
      <trkpt lat="45.2592" lon="6.50768">
        <ele>2570.6000976562</ele>
        <time>2021-01-24T11:03:11.000Z</time>
      </trkpt>
      <trkpt lat="45.25921" lon="6.5076">
        <ele>2567.6000976562</ele>
        <time>2021-01-24T11:03:12.000Z</time>
      </trkpt>
      <trkpt lat="45.25922" lon="6.50752">
        <ele>2562</ele>
        <time>2021-01-24T11:03:13.000Z</time>
      </trkpt>
      <trkpt lat="45.25925" lon="6.50746">
        <ele>2559.8000488281</ele>
        <time>2021-01-24T11:03:14.000Z</time>
      </trkpt>
      <trkpt lat="45.25928" lon="6.50741">
        <ele>2557.6000976562</ele>
        <time>2021-01-24T11:03:15.000Z</time>
      </trkpt>
      <trkpt lat="45.2593" lon="6.50738">
        <ele>2555.3999023438</ele>
        <time>2021-01-24T11:03:16.000Z</time>
      </trkpt>
      <trkpt lat="45.25931" lon="6.50736">
        <ele>2553.1999511719</ele>
        <time>2021-01-24T11:03:17.000Z</time>
      </trkpt>
      <trkpt lat="45.25932" lon="6.50734">
        <ele>2551.6000976562</ele>
        <time>2021-01-24T11:03:18.000Z</time>
      </trkpt>
      <trkpt lat="45.25932" lon="6.50726">
        <ele>2550.1999511719</ele>
        <time>2021-01-24T11:03:20.000Z</time>
      </trkpt>
      <trkpt lat="45.25933" lon="6.50713">
        <ele>2548.8000488281</ele>
        <time>2021-01-24T11:03:23.000Z</time>
      </trkpt>
      <trkpt lat="45.25932" lon="6.50711">
        <ele>2547.8000488281</ele>
        <time>2021-01-24T11:03:24.000Z</time>
      </trkpt>
      <trkpt lat="45.25932" lon="6.50711">
        <ele>2546.6000976562</ele>
        <time>2021-01-24T11:03:25.000Z</time>
      </trkpt>
      <trkpt lat="45.25932" lon="6.50711">
        <ele>2545.8000488281</ele>
        <time>2021-01-24T11:03:27.000Z</time>
      </trkpt>
      <trkpt lat="45.25932" lon="6.50711">
        <ele>2545.6000976562</ele>
        <time>2021-01-24T11:03:28.000Z</time>
      </trkpt>
      <trkpt lat="45.25933" lon="6.50709">
        <ele>2546.6000976562</ele>
        <time>2021-01-24T11:03:34.000Z</time>
      </trkpt>
      <trkpt lat="45.25934" lon="6.50706">
        <ele>2546.6000976562</ele>
        <time>2021-01-24T11:03:35.000Z</time>
      </trkpt>
      <trkpt lat="45.25941" lon="6.50693">
        <ele>2546.1999511719</ele>
        <time>2021-01-24T11:03:38.000Z</time>
      </trkpt>
      <trkpt lat="45.25942" lon="6.50684">
        <ele>2545</ele>
        <time>2021-01-24T11:03:40.000Z</time>
      </trkpt>
      <trkpt lat="45.25941" lon="6.50682">
        <ele>2544.3999023438</ele>
        <time>2021-01-24T11:03:41.000Z</time>
      </trkpt>
      <trkpt lat="45.25935" lon="6.50677">
        <ele>2543.6000976562</ele>
        <time>2021-01-24T11:03:43.000Z</time>
      </trkpt>
      <trkpt lat="45.2593" lon="6.50668">
        <ele>2541.6000976562</ele>
        <time>2021-01-24T11:03:45.000Z</time>
      </trkpt>
      <trkpt lat="45.2593" lon="6.5066">
        <ele>2540.1999511719</ele>
        <time>2021-01-24T11:03:46.000Z</time>
      </trkpt>
      <trkpt lat="45.25931" lon="6.50653">
        <ele>2538</ele>
        <time>2021-01-24T11:03:47.000Z</time>
      </trkpt>
      <trkpt lat="45.2593" lon="6.50646">
        <ele>2535.8000488281</ele>
        <time>2021-01-24T11:03:48.000Z</time>
      </trkpt>
      <trkpt lat="45.25929" lon="6.50638">
        <ele>2533.8000488281</ele>
        <time>2021-01-24T11:03:49.000Z</time>
      </trkpt>
      <trkpt lat="45.25929" lon="6.50631">
        <ele>2532.3999023438</ele>
        <time>2021-01-24T11:03:50.000Z</time>
      </trkpt>
      <trkpt lat="45.2593" lon="6.50624">
        <ele>2530.8000488281</ele>
        <time>2021-01-24T11:03:51.000Z</time>
      </trkpt>
      <trkpt lat="45.25931" lon="6.50621">
        <ele>2528.8000488281</ele>
        <time>2021-01-24T11:03:52.000Z</time>
      </trkpt>
      <trkpt lat="45.2593" lon="6.50618">
        <ele>2526.3999023438</ele>
        <time>2021-01-24T11:03:53.000Z</time>
      </trkpt>
      <trkpt lat="45.25929" lon="6.50616">
        <ele>2524.3999023438</ele>
        <time>2021-01-24T11:03:54.000Z</time>
      </trkpt>
      <trkpt lat="45.25928" lon="6.50614">
        <ele>2523.1999511719</ele>
        <time>2021-01-24T11:03:55.000Z</time>
      </trkpt>
      <trkpt lat="45.25928" lon="6.50611">
        <ele>2522.1999511719</ele>
        <time>2021-01-24T11:03:56.000Z</time>
      </trkpt>
      <trkpt lat="45.25928" lon="6.50607">
        <ele>2521.6000976562</ele>
        <time>2021-01-24T11:03:57.000Z</time>
      </trkpt>
      <trkpt lat="45.25928" lon="6.50606">
        <ele>2520</ele>
        <time>2021-01-24T11:03:59.000Z</time>
      </trkpt>
      <trkpt lat="45.25928" lon="6.50605">
        <ele>2518.6000976562</ele>
        <time>2021-01-24T11:04:00.000Z</time>
      </trkpt>
      <trkpt lat="45.25928" lon="6.50605">
        <ele>2517.1999511719</ele>
        <time>2021-01-24T11:04:01.000Z</time>
      </trkpt>
      <trkpt lat="45.25928" lon="6.50605">
        <ele>2516</ele>
        <time>2021-01-24T11:04:06.000Z</time>
      </trkpt>
      <trkpt lat="45.25927" lon="6.50601">
        <ele>2515.8000488281</ele>
        <time>2021-01-24T11:04:07.000Z</time>
      </trkpt>
      <trkpt lat="45.25928" lon="6.50583">
        <ele>2514.8000488281</ele>
        <time>2021-01-24T11:04:10.000Z</time>
      </trkpt>
      <trkpt lat="45.25929" lon="6.50565">
        <ele>2513.1999511719</ele>
        <time>2021-01-24T11:04:12.000Z</time>
      </trkpt>
      <trkpt lat="45.2593" lon="6.50556">
        <ele>2512.6000976562</ele>
        <time>2021-01-24T11:04:13.000Z</time>
      </trkpt>
      <trkpt lat="45.25932" lon="6.50548">
        <ele>2511.8000488281</ele>
        <time>2021-01-24T11:04:14.000Z</time>
      </trkpt>
      <trkpt lat="45.25934" lon="6.5054">
        <ele>2510.6000976562</ele>
        <time>2021-01-24T11:04:15.000Z</time>
      </trkpt>
      <trkpt lat="45.25936" lon="6.50534">
        <ele>2509</ele>
        <time>2021-01-24T11:04:16.000Z</time>
      </trkpt>
      <trkpt lat="45.25938" lon="6.50531">
        <ele>2507.3999023438</ele>
        <time>2021-01-24T11:04:17.000Z</time>
      </trkpt>
      <trkpt lat="45.25939" lon="6.50528">
        <ele>2505.6000976562</ele>
        <time>2021-01-24T11:04:18.000Z</time>
      </trkpt>
      <trkpt lat="45.2594" lon="6.50527">
        <ele>2504</ele>
        <time>2021-01-24T11:04:19.000Z</time>
      </trkpt>
      <trkpt lat="45.2594" lon="6.50527">
        <ele>2502.8000488281</ele>
        <time>2021-01-24T11:04:20.000Z</time>
      </trkpt>
      <trkpt lat="45.25941" lon="6.50527">
        <ele>2501.8000488281</ele>
        <time>2021-01-24T11:04:22.000Z</time>
      </trkpt>
      <trkpt lat="45.25941" lon="6.50527">
        <ele>2500.8000488281</ele>
        <time>2021-01-24T11:04:27.000Z</time>
      </trkpt>
      <trkpt lat="45.25942" lon="6.50525">
        <ele>2500.1999511719</ele>
        <time>2021-01-24T11:04:33.000Z</time>
      </trkpt>
      <trkpt lat="45.25946" lon="6.50512">
        <ele>2499.3999023438</ele>
        <time>2021-01-24T11:04:36.000Z</time>
      </trkpt>
      <trkpt lat="45.25946" lon="6.50507">
        <ele>2498.8000488281</ele>
        <time>2021-01-24T11:04:37.000Z</time>
      </trkpt>
      <trkpt lat="45.25944" lon="6.50502">
        <ele>2498.3999023438</ele>
        <time>2021-01-24T11:04:38.000Z</time>
      </trkpt>
      <trkpt lat="45.25938" lon="6.50493">
        <ele>2497.1999511719</ele>
        <time>2021-01-24T11:04:40.000Z</time>
      </trkpt>
      <trkpt lat="45.25927" lon="6.50485">
        <ele>2495.3999023438</ele>
        <time>2021-01-24T11:04:42.000Z</time>
      </trkpt>
      <trkpt lat="45.25922" lon="6.5048">
        <ele>2494.1999511719</ele>
        <time>2021-01-24T11:04:43.000Z</time>
      </trkpt>
      <trkpt lat="45.25919" lon="6.50476">
        <ele>2492.3999023438</ele>
        <time>2021-01-24T11:04:44.000Z</time>
      </trkpt>
      <trkpt lat="45.25918" lon="6.50472">
        <ele>2490.1999511719</ele>
        <time>2021-01-24T11:04:45.000Z</time>
      </trkpt>
      <trkpt lat="45.25917" lon="6.50469">
        <ele>2487.8000488281</ele>
        <time>2021-01-24T11:04:46.000Z</time>
      </trkpt>
      <trkpt lat="45.25916" lon="6.50467">
        <ele>2485.8000488281</ele>
        <time>2021-01-24T11:04:47.000Z</time>
      </trkpt>
      <trkpt lat="45.25916" lon="6.50466">
        <ele>2484.1999511719</ele>
        <time>2021-01-24T11:04:48.000Z</time>
      </trkpt>
      <trkpt lat="45.25916" lon="6.50466">
        <ele>2482.3999023438</ele>
        <time>2021-01-24T11:04:49.000Z</time>
      </trkpt>
      <trkpt lat="45.25916" lon="6.50465">
        <ele>2481.6000976562</ele>
        <time>2021-01-24T11:04:51.000Z</time>
      </trkpt>
      <trkpt lat="45.25915" lon="6.50465">
        <ele>2481.3999023438</ele>
        <time>2021-01-24T11:04:53.000Z</time>
      </trkpt>
      <trkpt lat="45.25915" lon="6.50468">
        <ele>2481.3999023438</ele>
        <time>2021-01-24T11:05:00.000Z</time>
      </trkpt>
      <trkpt lat="45.25915" lon="6.50471">
        <ele>2482</ele>
        <time>2021-01-24T11:05:10.000Z</time>
      </trkpt>
      <trkpt lat="45.25915" lon="6.50471">
        <ele>2482.3999023438</ele>
        <time>2021-01-24T11:05:22.000Z</time>
      </trkpt>
      <trkpt lat="45.25915" lon="6.50471">
        <ele>2482.3999023438</ele>
        <time>2021-01-24T11:05:23.000Z</time>
      </trkpt>
      <trkpt lat="45.25915" lon="6.50471">
        <ele>2483.3999023438</ele>
        <time>2021-01-24T11:05:33.000Z</time>
      </trkpt>
      <trkpt lat="45.25915" lon="6.50471">
        <ele>2483.6000976562</ele>
        <time>2021-01-24T11:05:38.000Z</time>
      </trkpt>
      <trkpt lat="45.25915" lon="6.50472">
        <ele>2482.8000488281</ele>
        <time>2021-01-24T11:05:51.000Z</time>
      </trkpt>
      <trkpt lat="45.25915" lon="6.50472">
        <ele>2483</ele>
        <time>2021-01-24T11:06:02.000Z</time>
      </trkpt>
      <trkpt lat="45.25915" lon="6.50472">
        <ele>2482.3999023438</ele>
        <time>2021-01-24T11:06:12.000Z</time>
      </trkpt>
      <trkpt lat="45.25915" lon="6.50472">
        <ele>2482.1999511719</ele>
        <time>2021-01-24T11:06:18.000Z</time>
      </trkpt>
      <trkpt lat="45.25915" lon="6.50472">
        <ele>2481.8000488281</ele>
        <time>2021-01-24T11:06:29.000Z</time>
      </trkpt>
      <trkpt lat="45.25915" lon="6.50472">
        <ele>2481.3999023438</ele>
        <time>2021-01-24T11:06:38.000Z</time>
      </trkpt>
      <trkpt lat="45.25915" lon="6.50472">
        <ele>2481.6000976562</ele>
        <time>2021-01-24T11:06:43.000Z</time>
      </trkpt>
      <trkpt lat="45.25915" lon="6.50471">
        <ele>2482</ele>
        <time>2021-01-24T11:06:56.000Z</time>
      </trkpt>
      <trkpt lat="45.25915" lon="6.50471">
        <ele>2481.8000488281</ele>
        <time>2021-01-24T11:07:09.000Z</time>
      </trkpt>
      <trkpt lat="45.25915" lon="6.50471">
        <ele>2481.6000976562</ele>
        <time>2021-01-24T11:07:22.000Z</time>
      </trkpt>
      <trkpt lat="45.25915" lon="6.50477">
        <ele>2481.3999023438</ele>
        <time>2021-01-24T11:07:37.000Z</time>
      </trkpt>
      <trkpt lat="45.25915" lon="6.50477">
        <ele>2481.6000976562</ele>
        <time>2021-01-24T11:07:50.000Z</time>
      </trkpt>
      <trkpt lat="45.25915" lon="6.50477">
        <ele>2481.6000976562</ele>
        <time>2021-01-24T11:08:01.000Z</time>
      </trkpt>
      <trkpt lat="45.25914" lon="6.50478">
        <ele>2480.8000488281</ele>
        <time>2021-01-24T11:08:11.000Z</time>
      </trkpt>
      <trkpt lat="45.25905" lon="6.50483">
        <ele>2480.1999511719</ele>
        <time>2021-01-24T11:08:14.000Z</time>
      </trkpt>
      <trkpt lat="45.25896" lon="6.50484">
        <ele>2478.6000976562</ele>
        <time>2021-01-24T11:08:16.000Z</time>
      </trkpt>
      <trkpt lat="45.25891" lon="6.50486">
        <ele>2477.3999023438</ele>
        <time>2021-01-24T11:08:17.000Z</time>
      </trkpt>
      <trkpt lat="45.25886" lon="6.50486">
        <ele>2476.1999511719</ele>
        <time>2021-01-24T11:08:18.000Z</time>
      </trkpt>
      <trkpt lat="45.25882" lon="6.50484">
        <ele>2474.8000488281</ele>
        <time>2021-01-24T11:08:19.000Z</time>
      </trkpt>
      <trkpt lat="45.25878" lon="6.5048">
        <ele>2473.1999511719</ele>
        <time>2021-01-24T11:08:20.000Z</time>
      </trkpt>
      <trkpt lat="45.25874" lon="6.50477">
        <ele>2471.1999511719</ele>
        <time>2021-01-24T11:08:21.000Z</time>
      </trkpt>
      <trkpt lat="45.25871" lon="6.50475">
        <ele>2469.3999023438</ele>
        <time>2021-01-24T11:08:22.000Z</time>
      </trkpt>
      <trkpt lat="45.25867" lon="6.50472">
        <ele>2467.6000976562</ele>
        <time>2021-01-24T11:08:23.000Z</time>
      </trkpt>
      <trkpt lat="45.25863" lon="6.5047">
        <ele>2466</ele>
        <time>2021-01-24T11:08:24.000Z</time>
      </trkpt>
      <trkpt lat="45.25859" lon="6.50467">
        <ele>2464.3999023438</ele>
        <time>2021-01-24T11:08:25.000Z</time>
      </trkpt>
      <trkpt lat="45.25855" lon="6.50464">
        <ele>2459.8000488281</ele>
        <time>2021-01-24T11:08:26.000Z</time>
      </trkpt>
      <trkpt lat="45.2585" lon="6.50461">
        <ele>2457.8000488281</ele>
        <time>2021-01-24T11:08:27.000Z</time>
      </trkpt>
      <trkpt lat="45.25846" lon="6.50459">
        <ele>2455.8000488281</ele>
        <time>2021-01-24T11:08:28.000Z</time>
      </trkpt>
      <trkpt lat="45.25841" lon="6.50457">
        <ele>2453.6000976562</ele>
        <time>2021-01-24T11:08:29.000Z</time>
      </trkpt>
      <trkpt lat="45.25836" lon="6.50457">
        <ele>2451</ele>
        <time>2021-01-24T11:08:30.000Z</time>
      </trkpt>
      <trkpt lat="45.25832" lon="6.50458">
        <ele>2448.3999023438</ele>
        <time>2021-01-24T11:08:31.000Z</time>
      </trkpt>
      <trkpt lat="45.25828" lon="6.50461">
        <ele>2446</ele>
        <time>2021-01-24T11:08:32.000Z</time>
      </trkpt>
      <trkpt lat="45.25826" lon="6.50468">
        <ele>2443.6000976562</ele>
        <time>2021-01-24T11:08:33.000Z</time>
      </trkpt>
      <trkpt lat="45.25823" lon="6.50472">
        <ele>2441.1999511719</ele>
        <time>2021-01-24T11:08:34.000Z</time>
      </trkpt>
      <trkpt lat="45.2582" lon="6.50475">
        <ele>2439</ele>
        <time>2021-01-24T11:08:35.000Z</time>
      </trkpt>
      <trkpt lat="45.25818" lon="6.50477">
        <ele>2437.3999023438</ele>
        <time>2021-01-24T11:08:36.000Z</time>
      </trkpt>
      <trkpt lat="45.25816" lon="6.5048">
        <ele>2436</ele>
        <time>2021-01-24T11:08:37.000Z</time>
      </trkpt>
      <trkpt lat="45.25813" lon="6.50484">
        <ele>2434.6000976562</ele>
        <time>2021-01-24T11:08:39.000Z</time>
      </trkpt>
      <trkpt lat="45.25811" lon="6.50485">
        <ele>2434</ele>
        <time>2021-01-24T11:08:41.000Z</time>
      </trkpt>
      <trkpt lat="45.25813" lon="6.50484">
        <ele>2433.3999023438</ele>
        <time>2021-01-24T11:08:44.000Z</time>
      </trkpt>
      <trkpt lat="45.25816" lon="6.50484">
        <ele>2433.1999511719</ele>
        <time>2021-01-24T11:08:49.000Z</time>
      </trkpt>
      <trkpt lat="45.25814" lon="6.50491">
        <ele>2432.6000976562</ele>
        <time>2021-01-24T11:08:58.000Z</time>
      </trkpt>
      <trkpt lat="45.25809" lon="6.50491">
        <ele>2432.3999023438</ele>
        <time>2021-01-24T11:08:59.000Z</time>
      </trkpt>
      <trkpt lat="45.25799" lon="6.50491">
        <ele>2431.1999511719</ele>
        <time>2021-01-24T11:09:01.000Z</time>
      </trkpt>
      <trkpt lat="45.25797" lon="6.50486">
        <ele>2430</ele>
        <time>2021-01-24T11:09:02.000Z</time>
      </trkpt>
      <trkpt lat="45.25794" lon="6.50481">
        <ele>2428.8000488281</ele>
        <time>2021-01-24T11:09:03.000Z</time>
      </trkpt>
      <trkpt lat="45.2579" lon="6.50476">
        <ele>2427.6000976562</ele>
        <time>2021-01-24T11:09:04.000Z</time>
      </trkpt>
      <trkpt lat="45.25786" lon="6.50472">
        <ele>2426.6000976562</ele>
        <time>2021-01-24T11:09:05.000Z</time>
      </trkpt>
      <trkpt lat="45.25781" lon="6.50467">
        <ele>2425.1999511719</ele>
        <time>2021-01-24T11:09:06.000Z</time>
      </trkpt>
      <trkpt lat="45.25779" lon="6.5046">
        <ele>2423.8000488281</ele>
        <time>2021-01-24T11:09:07.000Z</time>
      </trkpt>
      <trkpt lat="45.25776" lon="6.50454">
        <ele>2421.8000488281</ele>
        <time>2021-01-24T11:09:08.000Z</time>
      </trkpt>
      <trkpt lat="45.25773" lon="6.50449">
        <ele>2419.8000488281</ele>
        <time>2021-01-24T11:09:09.000Z</time>
      </trkpt>
      <trkpt lat="45.2577" lon="6.50442">
        <ele>2417.3999023438</ele>
        <time>2021-01-24T11:09:10.000Z</time>
      </trkpt>
      <trkpt lat="45.25768" lon="6.50435">
        <ele>2414.8000488281</ele>
        <time>2021-01-24T11:09:11.000Z</time>
      </trkpt>
      <trkpt lat="45.25765" lon="6.50429">
        <ele>2412.3999023438</ele>
        <time>2021-01-24T11:09:12.000Z</time>
      </trkpt>
      <trkpt lat="45.2576" lon="6.50424">
        <ele>2409.6000976562</ele>
        <time>2021-01-24T11:09:13.000Z</time>
      </trkpt>
      <trkpt lat="45.25756" lon="6.50419">
        <ele>2404.1999511719</ele>
        <time>2021-01-24T11:09:14.000Z</time>
      </trkpt>
      <trkpt lat="45.2575" lon="6.50413">
        <ele>2401.6000976562</ele>
        <time>2021-01-24T11:09:15.000Z</time>
      </trkpt>
      <trkpt lat="45.25744" lon="6.50407">
        <ele>2398.6000976562</ele>
        <time>2021-01-24T11:09:16.000Z</time>
      </trkpt>
      <trkpt lat="45.25738" lon="6.50401">
        <ele>2395.1999511719</ele>
        <time>2021-01-24T11:09:17.000Z</time>
      </trkpt>
      <trkpt lat="45.25732" lon="6.50396">
        <ele>2392.1999511719</ele>
        <time>2021-01-24T11:09:18.000Z</time>
      </trkpt>
      <trkpt lat="45.25726" lon="6.50391">
        <ele>2389.3999023438</ele>
        <time>2021-01-24T11:09:19.000Z</time>
      </trkpt>
      <trkpt lat="45.25719" lon="6.50386">
        <ele>2387</ele>
        <time>2021-01-24T11:09:20.000Z</time>
      </trkpt>
      <trkpt lat="45.25712" lon="6.50382">
        <ele>2384.3999023438</ele>
        <time>2021-01-24T11:09:21.000Z</time>
      </trkpt>
      <trkpt lat="45.25703" lon="6.50378">
        <ele>2381.3999023438</ele>
        <time>2021-01-24T11:09:22.000Z</time>
      </trkpt>
      <trkpt lat="45.25696" lon="6.50373">
        <ele>2378.1999511719</ele>
        <time>2021-01-24T11:09:23.000Z</time>
      </trkpt>
      <trkpt lat="45.25691" lon="6.50366">
        <ele>2374.8000488281</ele>
        <time>2021-01-24T11:09:24.000Z</time>
      </trkpt>
      <trkpt lat="45.25689" lon="6.50357">
        <ele>2371.3999023438</ele>
        <time>2021-01-24T11:09:25.000Z</time>
      </trkpt>
      <trkpt lat="45.25685" lon="6.50351">
        <ele>2368</ele>
        <time>2021-01-24T11:09:26.000Z</time>
      </trkpt>
      <trkpt lat="45.25681" lon="6.50344">
        <ele>2365</ele>
        <time>2021-01-24T11:09:27.000Z</time>
      </trkpt>
      <trkpt lat="45.25678" lon="6.50339">
        <ele>2362.1999511719</ele>
        <time>2021-01-24T11:09:28.000Z</time>
      </trkpt>
      <trkpt lat="45.25676" lon="6.50332">
        <ele>2359.6000976562</ele>
        <time>2021-01-24T11:09:29.000Z</time>
      </trkpt>
      <trkpt lat="45.25674" lon="6.50326">
        <ele>2357.1999511719</ele>
        <time>2021-01-24T11:09:30.000Z</time>
      </trkpt>
      <trkpt lat="45.25673" lon="6.50321">
        <ele>2355</ele>
        <time>2021-01-24T11:09:31.000Z</time>
      </trkpt>
      <trkpt lat="45.25672" lon="6.50316">
        <ele>2353.1999511719</ele>
        <time>2021-01-24T11:09:32.000Z</time>
      </trkpt>
      <trkpt lat="45.25672" lon="6.50313">
        <ele>2351.8000488281</ele>
        <time>2021-01-24T11:09:33.000Z</time>
      </trkpt>
      <trkpt lat="45.25672" lon="6.50309">
        <ele>2350.1999511719</ele>
        <time>2021-01-24T11:09:35.000Z</time>
      </trkpt>
      <trkpt lat="45.25672" lon="6.50309">
        <ele>2349.6000976562</ele>
        <time>2021-01-24T11:09:36.000Z</time>
      </trkpt>
      <trkpt lat="45.25672" lon="6.50309">
        <ele>2349.1999511719</ele>
        <time>2021-01-24T11:09:37.000Z</time>
      </trkpt>
      <trkpt lat="45.25672" lon="6.50309">
        <ele>2348</ele>
        <time>2021-01-24T11:09:40.000Z</time>
      </trkpt>
      <trkpt lat="45.25671" lon="6.50309">
        <ele>2347.8000488281</ele>
        <time>2021-01-24T11:09:44.000Z</time>
      </trkpt>
      <trkpt lat="45.25669" lon="6.50293">
        <ele>2347.6000976562</ele>
        <time>2021-01-24T11:09:49.000Z</time>
      </trkpt>
      <trkpt lat="45.25669" lon="6.50277">
        <ele>2346.8000488281</ele>
        <time>2021-01-24T11:09:51.000Z</time>
      </trkpt>
      <trkpt lat="45.25669" lon="6.50269">
        <ele>2345.8000488281</ele>
        <time>2021-01-24T11:09:52.000Z</time>
      </trkpt>
      <trkpt lat="45.25668" lon="6.50261">
        <ele>2344.6000976562</ele>
        <time>2021-01-24T11:09:53.000Z</time>
      </trkpt>
      <trkpt lat="45.25668" lon="6.50254">
        <ele>2343.1999511719</ele>
        <time>2021-01-24T11:09:54.000Z</time>
      </trkpt>
      <trkpt lat="45.25668" lon="6.50248">
        <ele>2341.6000976562</ele>
        <time>2021-01-24T11:09:55.000Z</time>
      </trkpt>
      <trkpt lat="45.25667" lon="6.50243">
        <ele>2340.3999023438</ele>
        <time>2021-01-24T11:09:56.000Z</time>
      </trkpt>
      <trkpt lat="45.25664" lon="6.50234">
        <ele>2339</ele>
        <time>2021-01-24T11:09:58.000Z</time>
      </trkpt>
      <trkpt lat="45.2566" lon="6.50226">
        <ele>2338.1999511719</ele>
        <time>2021-01-24T11:10:00.000Z</time>
      </trkpt>
      <trkpt lat="45.25657" lon="6.50222">
        <ele>2338</ele>
        <time>2021-01-24T11:10:01.000Z</time>
      </trkpt>
      <trkpt lat="45.25653" lon="6.50217">
        <ele>2336.8000488281</ele>
        <time>2021-01-24T11:10:02.000Z</time>
      </trkpt>
      <trkpt lat="45.25645" lon="6.50207">
        <ele>2334.8000488281</ele>
        <time>2021-01-24T11:10:04.000Z</time>
      </trkpt>
      <trkpt lat="45.25643" lon="6.50199">
        <ele>2333.6000976562</ele>
        <time>2021-01-24T11:10:05.000Z</time>
      </trkpt>
      <trkpt lat="45.25639" lon="6.50191">
        <ele>2332.1999511719</ele>
        <time>2021-01-24T11:10:06.000Z</time>
      </trkpt>
      <trkpt lat="45.25635" lon="6.50183">
        <ele>2330.3999023438</ele>
        <time>2021-01-24T11:10:07.000Z</time>
      </trkpt>
      <trkpt lat="45.25632" lon="6.50174">
        <ele>2328.6000976562</ele>
        <time>2021-01-24T11:10:08.000Z</time>
      </trkpt>
      <trkpt lat="45.25629" lon="6.50165">
        <ele>2326.3999023438</ele>
        <time>2021-01-24T11:10:09.000Z</time>
      </trkpt>
      <trkpt lat="45.25624" lon="6.50155">
        <ele>2323.8000488281</ele>
        <time>2021-01-24T11:10:10.000Z</time>
      </trkpt>
      <trkpt lat="45.2562" lon="6.50147">
        <ele>2321.1999511719</ele>
        <time>2021-01-24T11:10:11.000Z</time>
      </trkpt>
      <trkpt lat="45.25615" lon="6.50137">
        <ele>2318.8000488281</ele>
        <time>2021-01-24T11:10:12.000Z</time>
      </trkpt>
      <trkpt lat="45.25611" lon="6.50127">
        <ele>2316.8000488281</ele>
        <time>2021-01-24T11:10:13.000Z</time>
      </trkpt>
      <trkpt lat="45.25605" lon="6.50118">
        <ele>2314.8000488281</ele>
        <time>2021-01-24T11:10:14.000Z</time>
      </trkpt>
      <trkpt lat="45.256" lon="6.50107">
        <ele>2312.8000488281</ele>
        <time>2021-01-24T11:10:15.000Z</time>
      </trkpt>
      <trkpt lat="45.25593" lon="6.50097">
        <ele>2310.3999023438</ele>
        <time>2021-01-24T11:10:16.000Z</time>
      </trkpt>
      <trkpt lat="45.25587" lon="6.50089">
        <ele>2307.8000488281</ele>
        <time>2021-01-24T11:10:17.000Z</time>
      </trkpt>
      <trkpt lat="45.25579" lon="6.50083">
        <ele>2304.8000488281</ele>
        <time>2021-01-24T11:10:18.000Z</time>
      </trkpt>
      <trkpt lat="45.25572" lon="6.50075">
        <ele>2301.8000488281</ele>
        <time>2021-01-24T11:10:19.000Z</time>
      </trkpt>
      <trkpt lat="45.25566" lon="6.50068">
        <ele>2299</ele>
        <time>2021-01-24T11:10:20.000Z</time>
      </trkpt>
      <trkpt lat="45.2556" lon="6.50061">
        <ele>2295.8000488281</ele>
        <time>2021-01-24T11:10:21.000Z</time>
      </trkpt>
      <trkpt lat="45.25554" lon="6.50053">
        <ele>2292.8000488281</ele>
        <time>2021-01-24T11:10:22.000Z</time>
      </trkpt>
      <trkpt lat="45.25549" lon="6.50044">
        <ele>2290</ele>
        <time>2021-01-24T11:10:23.000Z</time>
      </trkpt>
      <trkpt lat="45.25544" lon="6.50034">
        <ele>2287.3999023438</ele>
        <time>2021-01-24T11:10:24.000Z</time>
      </trkpt>
      <trkpt lat="45.25539" lon="6.50024">
        <ele>2284.8000488281</ele>
        <time>2021-01-24T11:10:25.000Z</time>
      </trkpt>
      <trkpt lat="45.25534" lon="6.50014">
        <ele>2279.3999023438</ele>
        <time>2021-01-24T11:10:26.000Z</time>
      </trkpt>
      <trkpt lat="45.25529" lon="6.50004">
        <ele>2276.6000976562</ele>
        <time>2021-01-24T11:10:27.000Z</time>
      </trkpt>
      <trkpt lat="45.25523" lon="6.49995">
        <ele>2274</ele>
        <time>2021-01-24T11:10:28.000Z</time>
      </trkpt>
      <trkpt lat="45.25517" lon="6.49987">
        <ele>2271.6000976562</ele>
        <time>2021-01-24T11:10:29.000Z</time>
      </trkpt>
      <trkpt lat="45.25511" lon="6.49982">
        <ele>2270</ele>
        <time>2021-01-24T11:10:30.000Z</time>
      </trkpt>
      <trkpt lat="45.25504" lon="6.49978">
        <ele>2268.6000976562</ele>
        <time>2021-01-24T11:10:31.000Z</time>
      </trkpt>
      <trkpt lat="45.25496" lon="6.49975">
        <ele>2267</ele>
        <time>2021-01-24T11:10:32.000Z</time>
      </trkpt>
      <trkpt lat="45.25489" lon="6.49971">
        <ele>2265.1999511719</ele>
        <time>2021-01-24T11:10:33.000Z</time>
      </trkpt>
      <trkpt lat="45.25484" lon="6.49968">
        <ele>2263.3999023438</ele>
        <time>2021-01-24T11:10:34.000Z</time>
      </trkpt>
      <trkpt lat="45.25482" lon="6.49964">
        <ele>2261.6000976562</ele>
        <time>2021-01-24T11:10:35.000Z</time>
      </trkpt>
      <trkpt lat="45.2548" lon="6.49961">
        <ele>2259.6000976562</ele>
        <time>2021-01-24T11:10:36.000Z</time>
      </trkpt>
      <trkpt lat="45.2548" lon="6.49962">
        <ele>2258</ele>
        <time>2021-01-24T11:10:37.000Z</time>
      </trkpt>
      <trkpt lat="45.25481" lon="6.49964">
        <ele>2256.3999023438</ele>
        <time>2021-01-24T11:10:39.000Z</time>
      </trkpt>
      <trkpt lat="45.25481" lon="6.49964">
        <ele>2255.3999023438</ele>
        <time>2021-01-24T11:10:47.000Z</time>
      </trkpt>
      <trkpt lat="45.25481" lon="6.49964">
        <ele>2254.6000976562</ele>
        <time>2021-01-24T11:10:50.000Z</time>
      </trkpt>
      <trkpt lat="45.25481" lon="6.49964">
        <ele>2254.3999023438</ele>
        <time>2021-01-24T11:11:06.000Z</time>
      </trkpt>
      <trkpt lat="45.25481" lon="6.49964">
        <ele>2254.6000976562</ele>
        <time>2021-01-24T11:11:17.000Z</time>
      </trkpt>
      <trkpt lat="45.25481" lon="6.49967">
        <ele>2254.6000976562</ele>
        <time>2021-01-24T11:11:29.000Z</time>
      </trkpt>
      <trkpt lat="45.25481" lon="6.49967">
        <ele>2254.6000976562</ele>
        <time>2021-01-24T11:11:43.000Z</time>
      </trkpt>
      <trkpt lat="45.25481" lon="6.49967">
        <ele>2254.1999511719</ele>
        <time>2021-01-24T11:11:55.000Z</time>
      </trkpt>
      <trkpt lat="45.25484" lon="6.49972">
        <ele>2254.3999023438</ele>
        <time>2021-01-24T11:12:09.000Z</time>
      </trkpt>
      <trkpt lat="45.25486" lon="6.49981">
        <ele>2255</ele>
        <time>2021-01-24T11:12:13.000Z</time>
      </trkpt>
      <trkpt lat="45.25489" lon="6.49981">
        <ele>2255.3999023438</ele>
        <time>2021-01-24T11:12:16.000Z</time>
      </trkpt>
      <trkpt lat="45.25489" lon="6.49982">
        <ele>2255.8000488281</ele>
        <time>2021-01-24T11:12:17.000Z</time>
      </trkpt>
      <trkpt lat="45.25493" lon="6.49974">
        <ele>2256.1999511719</ele>
        <time>2021-01-24T11:12:23.000Z</time>
      </trkpt>
      <trkpt lat="45.25499" lon="6.49954">
        <ele>2255</ele>
        <time>2021-01-24T11:12:26.000Z</time>
      </trkpt>
      <trkpt lat="45.255" lon="6.49948">
        <ele>2253.3999023438</ele>
        <time>2021-01-24T11:12:27.000Z</time>
      </trkpt>
      <trkpt lat="45.255" lon="6.49942">
        <ele>2251.8000488281</ele>
        <time>2021-01-24T11:12:28.000Z</time>
      </trkpt>
      <trkpt lat="45.255" lon="6.49936">
        <ele>2250.3999023438</ele>
        <time>2021-01-24T11:12:29.000Z</time>
      </trkpt>
      <trkpt lat="45.255" lon="6.4993">
        <ele>2249.3999023438</ele>
        <time>2021-01-24T11:12:30.000Z</time>
      </trkpt>
      <trkpt lat="45.255" lon="6.49923">
        <ele>2249</ele>
        <time>2021-01-24T11:12:31.000Z</time>
      </trkpt>
      <trkpt lat="45.25499" lon="6.49916">
        <ele>2248.3999023438</ele>
        <time>2021-01-24T11:12:32.000Z</time>
      </trkpt>
      <trkpt lat="45.25497" lon="6.4991">
        <ele>2247.6000976562</ele>
        <time>2021-01-24T11:12:33.000Z</time>
      </trkpt>
      <trkpt lat="45.25495" lon="6.49903">
        <ele>2246.6000976562</ele>
        <time>2021-01-24T11:12:34.000Z</time>
      </trkpt>
      <trkpt lat="45.25491" lon="6.49897">
        <ele>2245.3999023438</ele>
        <time>2021-01-24T11:12:35.000Z</time>
      </trkpt>
      <trkpt lat="45.25487" lon="6.49888">
        <ele>2244</ele>
        <time>2021-01-24T11:12:36.000Z</time>
      </trkpt>
      <trkpt lat="45.25483" lon="6.4988">
        <ele>2242.6000976562</ele>
        <time>2021-01-24T11:12:37.000Z</time>
      </trkpt>
      <trkpt lat="45.25479" lon="6.49872">
        <ele>2240.8000488281</ele>
        <time>2021-01-24T11:12:38.000Z</time>
      </trkpt>
      <trkpt lat="45.25475" lon="6.49863">
        <ele>2238.3999023438</ele>
        <time>2021-01-24T11:12:39.000Z</time>
      </trkpt>
      <trkpt lat="45.2547" lon="6.49853">
        <ele>2235.8000488281</ele>
        <time>2021-01-24T11:12:40.000Z</time>
      </trkpt>
      <trkpt lat="45.25466" lon="6.49844">
        <ele>2233.3999023438</ele>
        <time>2021-01-24T11:12:41.000Z</time>
      </trkpt>
      <trkpt lat="45.25461" lon="6.49836">
        <ele>2231.3999023438</ele>
        <time>2021-01-24T11:12:42.000Z</time>
      </trkpt>
      <trkpt lat="45.25458" lon="6.49827">
        <ele>2229.6000976562</ele>
        <time>2021-01-24T11:12:43.000Z</time>
      </trkpt>
      <trkpt lat="45.25456" lon="6.49819">
        <ele>2228</ele>
        <time>2021-01-24T11:12:44.000Z</time>
      </trkpt>
      <trkpt lat="45.25452" lon="6.4981">
        <ele>2226.1999511719</ele>
        <time>2021-01-24T11:12:45.000Z</time>
      </trkpt>
      <trkpt lat="45.25449" lon="6.49804">
        <ele>2224.6000976562</ele>
        <time>2021-01-24T11:12:46.000Z</time>
      </trkpt>
      <trkpt lat="45.25446" lon="6.498">
        <ele>2223.1999511719</ele>
        <time>2021-01-24T11:12:47.000Z</time>
      </trkpt>
      <trkpt lat="45.25446" lon="6.49797">
        <ele>2221.8000488281</ele>
        <time>2021-01-24T11:12:48.000Z</time>
      </trkpt>
      <trkpt lat="45.25446" lon="6.49791">
        <ele>2219.6000976562</ele>
        <time>2021-01-24T11:12:50.000Z</time>
      </trkpt>
      <trkpt lat="45.25445" lon="6.49784">
        <ele>2218.3999023438</ele>
        <time>2021-01-24T11:12:54.000Z</time>
      </trkpt>
      <trkpt lat="45.25444" lon="6.49782">
        <ele>2218</ele>
        <time>2021-01-24T11:12:58.000Z</time>
      </trkpt>
      <trkpt lat="45.25442" lon="6.49778">
        <ele>2218</ele>
        <time>2021-01-24T11:13:00.000Z</time>
      </trkpt>
      <trkpt lat="45.25439" lon="6.49765">
        <ele>2217.3999023438</ele>
        <time>2021-01-24T11:13:03.000Z</time>
      </trkpt>
      <trkpt lat="45.25438" lon="6.49761">
        <ele>2216.6000976562</ele>
        <time>2021-01-24T11:13:04.000Z</time>
      </trkpt>
      <trkpt lat="45.25437" lon="6.49758">
        <ele>2216</ele>
        <time>2021-01-24T11:13:05.000Z</time>
      </trkpt>
      <trkpt lat="45.25435" lon="6.49752">
        <ele>2214.8000488281</ele>
        <time>2021-01-24T11:13:07.000Z</time>
      </trkpt>
      <trkpt lat="45.25431" lon="6.49745">
        <ele>2214.1999511719</ele>
        <time>2021-01-24T11:13:09.000Z</time>
      </trkpt>
      <trkpt lat="45.25427" lon="6.49742">
        <ele>2213.3999023438</ele>
        <time>2021-01-24T11:13:10.000Z</time>
      </trkpt>
      <trkpt lat="45.25419" lon="6.49737">
        <ele>2211.8000488281</ele>
        <time>2021-01-24T11:13:12.000Z</time>
      </trkpt>
      <trkpt lat="45.25414" lon="6.49734">
        <ele>2210.8000488281</ele>
        <time>2021-01-24T11:13:13.000Z</time>
      </trkpt>
      <trkpt lat="45.25409" lon="6.49734">
        <ele>2207.3999023438</ele>
        <time>2021-01-24T11:13:14.000Z</time>
      </trkpt>
      <trkpt lat="45.25404" lon="6.49735">
        <ele>2205.8000488281</ele>
        <time>2021-01-24T11:13:15.000Z</time>
      </trkpt>
      <trkpt lat="45.25399" lon="6.49736">
        <ele>2204</ele>
        <time>2021-01-24T11:13:16.000Z</time>
      </trkpt>
      <trkpt lat="45.25396" lon="6.49736">
        <ele>2202.1999511719</ele>
        <time>2021-01-24T11:13:17.000Z</time>
      </trkpt>
      <trkpt lat="45.25394" lon="6.49734">
        <ele>2200</ele>
        <time>2021-01-24T11:13:18.000Z</time>
      </trkpt>
      <trkpt lat="45.25391" lon="6.49731">
        <ele>2197.6000976562</ele>
        <time>2021-01-24T11:13:19.000Z</time>
      </trkpt>
      <trkpt lat="45.25387" lon="6.49726">
        <ele>2195.6000976562</ele>
        <time>2021-01-24T11:13:20.000Z</time>
      </trkpt>
      <trkpt lat="45.25384" lon="6.49719">
        <ele>2194</ele>
        <time>2021-01-24T11:13:21.000Z</time>
      </trkpt>
      <trkpt lat="45.25384" lon="6.49711">
        <ele>2192.1999511719</ele>
        <time>2021-01-24T11:13:22.000Z</time>
      </trkpt>
      <trkpt lat="45.25384" lon="6.49706">
        <ele>2190.3999023438</ele>
        <time>2021-01-24T11:13:23.000Z</time>
      </trkpt>
      <trkpt lat="45.25384" lon="6.49701">
        <ele>2188.3999023438</ele>
        <time>2021-01-24T11:13:24.000Z</time>
      </trkpt>
      <trkpt lat="45.25384" lon="6.49698">
        <ele>2186.8000488281</ele>
        <time>2021-01-24T11:13:25.000Z</time>
      </trkpt>
      <trkpt lat="45.25384" lon="6.49695">
        <ele>2185.6000976562</ele>
        <time>2021-01-24T11:13:26.000Z</time>
      </trkpt>
      <trkpt lat="45.25383" lon="6.49692">
        <ele>2185</ele>
        <time>2021-01-24T11:13:27.000Z</time>
      </trkpt>
      <trkpt lat="45.25383" lon="6.49686">
        <ele>2184.6000976562</ele>
        <time>2021-01-24T11:13:29.000Z</time>
      </trkpt>
      <trkpt lat="45.25383" lon="6.49683">
        <ele>2184.1999511719</ele>
        <time>2021-01-24T11:13:32.000Z</time>
      </trkpt>
      <trkpt lat="45.25383" lon="6.49683">
        <ele>2183.8000488281</ele>
        <time>2021-01-24T11:13:42.000Z</time>
      </trkpt>
      <trkpt lat="45.25383" lon="6.49678">
        <ele>2183.1999511719</ele>
        <time>2021-01-24T11:13:46.000Z</time>
      </trkpt>
      <trkpt lat="45.25381" lon="6.49676">
        <ele>2183</ele>
        <time>2021-01-24T11:13:47.000Z</time>
      </trkpt>
      <trkpt lat="45.25378" lon="6.49675">
        <ele>2182.3999023438</ele>
        <time>2021-01-24T11:13:48.000Z</time>
      </trkpt>
      <trkpt lat="45.25376" lon="6.49674">
        <ele>2182</ele>
        <time>2021-01-24T11:13:49.000Z</time>
      </trkpt>
      <trkpt lat="45.25371" lon="6.49657">
        <ele>2180.1999511719</ele>
        <time>2021-01-24T11:13:52.000Z</time>
      </trkpt>
      <trkpt lat="45.25371" lon="6.49649">
        <ele>2178.6000976562</ele>
        <time>2021-01-24T11:13:53.000Z</time>
      </trkpt>
      <trkpt lat="45.25369" lon="6.49642">
        <ele>2176.3999023438</ele>
        <time>2021-01-24T11:13:54.000Z</time>
      </trkpt>
      <trkpt lat="45.25367" lon="6.49635">
        <ele>2174.1999511719</ele>
        <time>2021-01-24T11:13:55.000Z</time>
      </trkpt>
      <trkpt lat="45.25364" lon="6.49629">
        <ele>2172</ele>
        <time>2021-01-24T11:13:56.000Z</time>
      </trkpt>
      <trkpt lat="45.25363" lon="6.49623">
        <ele>2170</ele>
        <time>2021-01-24T11:13:57.000Z</time>
      </trkpt>
      <trkpt lat="45.25359" lon="6.49617">
        <ele>2167.8000488281</ele>
        <time>2021-01-24T11:13:58.000Z</time>
      </trkpt>
      <trkpt lat="45.25355" lon="6.49611">
        <ele>2165.1999511719</ele>
        <time>2021-01-24T11:13:59.000Z</time>
      </trkpt>
      <trkpt lat="45.25351" lon="6.49607">
        <ele>2162.1999511719</ele>
        <time>2021-01-24T11:14:00.000Z</time>
      </trkpt>
      <trkpt lat="45.25349" lon="6.49599">
        <ele>2159.3999023438</ele>
        <time>2021-01-24T11:14:01.000Z</time>
      </trkpt>
      <trkpt lat="45.25348" lon="6.49587">
        <ele>2153.3999023438</ele>
        <time>2021-01-24T11:14:02.000Z</time>
      </trkpt>
      <trkpt lat="45.25348" lon="6.49576">
        <ele>2149.8000488281</ele>
        <time>2021-01-24T11:14:03.000Z</time>
      </trkpt>
      <trkpt lat="45.25348" lon="6.49564">
        <ele>2146.1999511719</ele>
        <time>2021-01-24T11:14:04.000Z</time>
      </trkpt>
      <trkpt lat="45.25348" lon="6.49551">
        <ele>2142.8000488281</ele>
        <time>2021-01-24T11:14:05.000Z</time>
      </trkpt>
      <trkpt lat="45.25348" lon="6.49541">
        <ele>2139.6000976562</ele>
        <time>2021-01-24T11:14:06.000Z</time>
      </trkpt>
      <trkpt lat="45.25346" lon="6.4953">
        <ele>2136.6000976562</ele>
        <time>2021-01-24T11:14:07.000Z</time>
      </trkpt>
      <trkpt lat="45.25341" lon="6.49522">
        <ele>2134</ele>
        <time>2021-01-24T11:14:08.000Z</time>
      </trkpt>
      <trkpt lat="45.2534" lon="6.49513">
        <ele>2132</ele>
        <time>2021-01-24T11:14:09.000Z</time>
      </trkpt>
      <trkpt lat="45.25338" lon="6.49502">
        <ele>2130.3999023438</ele>
        <time>2021-01-24T11:14:10.000Z</time>
      </trkpt>
      <trkpt lat="45.25336" lon="6.49491">
        <ele>2129</ele>
        <time>2021-01-24T11:14:11.000Z</time>
      </trkpt>
      <trkpt lat="45.25335" lon="6.49481">
        <ele>2127</ele>
        <time>2021-01-24T11:14:12.000Z</time>
      </trkpt>
      <trkpt lat="45.25332" lon="6.49471">
        <ele>2124.8000488281</ele>
        <time>2021-01-24T11:14:13.000Z</time>
      </trkpt>
      <trkpt lat="45.25328" lon="6.49462">
        <ele>2122.3999023438</ele>
        <time>2021-01-24T11:14:14.000Z</time>
      </trkpt>
      <trkpt lat="45.25324" lon="6.49454">
        <ele>2120</ele>
        <time>2021-01-24T11:14:15.000Z</time>
      </trkpt>
      <trkpt lat="45.25322" lon="6.49451">
        <ele>2118.3999023438</ele>
        <time>2021-01-24T11:14:16.000Z</time>
      </trkpt>
      <trkpt lat="45.25319" lon="6.49453">
        <ele>2117.1999511719</ele>
        <time>2021-01-24T11:14:17.000Z</time>
      </trkpt>
      <trkpt lat="45.25315" lon="6.49456">
        <ele>2116</ele>
        <time>2021-01-24T11:14:19.000Z</time>
      </trkpt>
      <trkpt lat="45.2531" lon="6.49461">
        <ele>2114.8000488281</ele>
        <time>2021-01-24T11:14:22.000Z</time>
      </trkpt>
      <trkpt lat="45.25309" lon="6.49464">
        <ele>2114.6000976562</ele>
        <time>2021-01-24T11:14:23.000Z</time>
      </trkpt>
      <trkpt lat="45.25306" lon="6.4947">
        <ele>2113.8000488281</ele>
        <time>2021-01-24T11:14:25.000Z</time>
      </trkpt>
      <trkpt lat="45.25307" lon="6.49471">
        <ele>2112.6000976562</ele>
        <time>2021-01-24T11:14:28.000Z</time>
      </trkpt>
      <trkpt lat="45.25308" lon="6.4947">
        <ele>2112.3999023438</ele>
        <time>2021-01-24T11:14:29.000Z</time>
      </trkpt>
      <trkpt lat="45.2531" lon="6.49469">
        <ele>2112.1999511719</ele>
        <time>2021-01-24T11:14:30.000Z</time>
      </trkpt>
      <trkpt lat="45.25318" lon="6.49464">
        <ele>2111.3999023438</ele>
        <time>2021-01-24T11:14:33.000Z</time>
      </trkpt>
      <trkpt lat="45.25329" lon="6.49457">
        <ele>2110</ele>
        <time>2021-01-24T11:14:36.000Z</time>
      </trkpt>
      <trkpt lat="45.25333" lon="6.49453">
        <ele>2109</ele>
        <time>2021-01-24T11:14:38.000Z</time>
      </trkpt>
      <trkpt lat="45.25333" lon="6.49446">
        <ele>2108</ele>
        <time>2021-01-24T11:14:41.000Z</time>
      </trkpt>
      <trkpt lat="45.25329" lon="6.49444">
        <ele>2107.8000488281</ele>
        <time>2021-01-24T11:14:42.000Z</time>
      </trkpt>
      <trkpt lat="45.25312" lon="6.49426">
        <ele>2105.6000976562</ele>
        <time>2021-01-24T11:14:45.000Z</time>
      </trkpt>
      <trkpt lat="45.25307" lon="6.49417">
        <ele>2103.6000976562</ele>
        <time>2021-01-24T11:14:46.000Z</time>
      </trkpt>
      <trkpt lat="45.25301" lon="6.4941">
        <ele>2101.6000976562</ele>
        <time>2021-01-24T11:14:47.000Z</time>
      </trkpt>
      <trkpt lat="45.25297" lon="6.49401">
        <ele>2099.1999511719</ele>
        <time>2021-01-24T11:14:48.000Z</time>
      </trkpt>
      <trkpt lat="45.25294" lon="6.49393">
        <ele>2096.8000488281</ele>
        <time>2021-01-24T11:14:49.000Z</time>
      </trkpt>
      <trkpt lat="45.25291" lon="6.49385">
        <ele>2092.6000976562</ele>
        <time>2021-01-24T11:14:50.000Z</time>
      </trkpt>
      <trkpt lat="45.25287" lon="6.49376">
        <ele>2091</ele>
        <time>2021-01-24T11:14:51.000Z</time>
      </trkpt>
      <trkpt lat="45.25283" lon="6.49368">
        <ele>2089.6000976562</ele>
        <time>2021-01-24T11:14:52.000Z</time>
      </trkpt>
      <trkpt lat="45.25279" lon="6.49361">
        <ele>2088</ele>
        <time>2021-01-24T11:14:53.000Z</time>
      </trkpt>
      <trkpt lat="45.25275" lon="6.49353">
        <ele>2086.1999511719</ele>
        <time>2021-01-24T11:14:54.000Z</time>
      </trkpt>
      <trkpt lat="45.25271" lon="6.49347">
        <ele>2084.1999511719</ele>
        <time>2021-01-24T11:14:55.000Z</time>
      </trkpt>
      <trkpt lat="45.25267" lon="6.4934">
        <ele>2082.3999023438</ele>
        <time>2021-01-24T11:14:56.000Z</time>
      </trkpt>
      <trkpt lat="45.25264" lon="6.49332">
        <ele>2080.8000488281</ele>
        <time>2021-01-24T11:14:57.000Z</time>
      </trkpt>
      <trkpt lat="45.25262" lon="6.49325">
        <ele>2079.6000976562</ele>
        <time>2021-01-24T11:14:58.000Z</time>
      </trkpt>
      <trkpt lat="45.25261" lon="6.4932">
        <ele>2078.1999511719</ele>
        <time>2021-01-24T11:14:59.000Z</time>
      </trkpt>
      <trkpt lat="45.25262" lon="6.49314">
        <ele>2076.8000488281</ele>
        <time>2021-01-24T11:15:00.000Z</time>
      </trkpt>
      <trkpt lat="45.25261" lon="6.49314">
        <ele>2075.6000976562</ele>
        <time>2021-01-24T11:15:01.000Z</time>
      </trkpt>
      <trkpt lat="45.25261" lon="6.49314">
        <ele>2075</ele>
        <time>2021-01-24T11:15:02.000Z</time>
      </trkpt>
      <trkpt lat="45.25261" lon="6.49315">
        <ele>2074.3999023438</ele>
        <time>2021-01-24T11:15:03.000Z</time>
      </trkpt>
      <trkpt lat="45.2526" lon="6.49316">
        <ele>2073.6000976562</ele>
        <time>2021-01-24T11:15:09.000Z</time>
      </trkpt>
      <trkpt lat="45.25259" lon="6.49319">
        <ele>2073.3999023438</ele>
        <time>2021-01-24T11:15:14.000Z</time>
      </trkpt>
      <trkpt lat="45.2526" lon="6.4932">
        <ele>2074</ele>
        <time>2021-01-24T11:15:24.000Z</time>
      </trkpt>
      <trkpt lat="45.2526" lon="6.49321">
        <ele>2073.3999023438</ele>
        <time>2021-01-24T11:15:35.000Z</time>
      </trkpt>
      <trkpt lat="45.2526" lon="6.49321">
        <ele>2073.1999511719</ele>
        <time>2021-01-24T11:15:47.000Z</time>
      </trkpt>
      <trkpt lat="45.2526" lon="6.49321">
        <ele>2073</ele>
        <time>2021-01-24T11:15:59.000Z</time>
      </trkpt>
      <trkpt lat="45.25255" lon="6.49318">
        <ele>2073</ele>
        <time>2021-01-24T11:16:06.000Z</time>
      </trkpt>
      <trkpt lat="45.25255" lon="6.49319">
        <ele>2073</ele>
        <time>2021-01-24T11:16:07.000Z</time>
      </trkpt>
      <trkpt lat="45.25254" lon="6.4932">
        <ele>2072.3999023438</ele>
        <time>2021-01-24T11:16:10.000Z</time>
      </trkpt>
      <trkpt lat="45.2525" lon="6.4933">
        <ele>2071.6000976562</ele>
        <time>2021-01-24T11:16:16.000Z</time>
      </trkpt>
      <trkpt lat="45.25247" lon="6.49337">
        <ele>2071</ele>
        <time>2021-01-24T11:16:18.000Z</time>
      </trkpt>
      <trkpt lat="45.25239" lon="6.49341">
        <ele>2070.1999511719</ele>
        <time>2021-01-24T11:16:21.000Z</time>
      </trkpt>
      <trkpt lat="45.25234" lon="6.49342">
        <ele>2069.8000488281</ele>
        <time>2021-01-24T11:16:22.000Z</time>
      </trkpt>
      <trkpt lat="45.25227" lon="6.4934">
        <ele>2068.1999511719</ele>
        <time>2021-01-24T11:16:24.000Z</time>
      </trkpt>
      <trkpt lat="45.25223" lon="6.49339">
        <ele>2067.1999511719</ele>
        <time>2021-01-24T11:16:25.000Z</time>
      </trkpt>
      <trkpt lat="45.25216" lon="6.49343">
        <ele>2064.8000488281</ele>
        <time>2021-01-24T11:16:27.000Z</time>
      </trkpt>
      <trkpt lat="45.25211" lon="6.49346">
        <ele>2063.6000976562</ele>
        <time>2021-01-24T11:16:28.000Z</time>
      </trkpt>
      <trkpt lat="45.25208" lon="6.49349">
        <ele>2062.1999511719</ele>
        <time>2021-01-24T11:16:29.000Z</time>
      </trkpt>
      <trkpt lat="45.25206" lon="6.4935">
        <ele>2060.1999511719</ele>
        <time>2021-01-24T11:16:30.000Z</time>
      </trkpt>
      <trkpt lat="45.25207" lon="6.49348">
        <ele>2058</ele>
        <time>2021-01-24T11:16:31.000Z</time>
      </trkpt>
      <trkpt lat="45.25207" lon="6.49347">
        <ele>2056.3999023438</ele>
        <time>2021-01-24T11:16:32.000Z</time>
      </trkpt>
      <trkpt lat="45.25208" lon="6.49346">
        <ele>2055.1999511719</ele>
        <time>2021-01-24T11:16:33.000Z</time>
      </trkpt>
      <trkpt lat="45.25208" lon="6.49346">
        <ele>2054.1999511719</ele>
        <time>2021-01-24T11:16:35.000Z</time>
      </trkpt>
      <trkpt lat="45.25204" lon="6.49342">
        <ele>2053.6000976562</ele>
        <time>2021-01-24T11:16:37.000Z</time>
      </trkpt>
      <trkpt lat="45.25197" lon="6.49334">
        <ele>2052.8000488281</ele>
        <time>2021-01-24T11:16:39.000Z</time>
      </trkpt>
      <trkpt lat="45.25193" lon="6.49332">
        <ele>2052</ele>
        <time>2021-01-24T11:16:40.000Z</time>
      </trkpt>
      <trkpt lat="45.2519" lon="6.49326">
        <ele>2050.6000976562</ele>
        <time>2021-01-24T11:16:41.000Z</time>
      </trkpt>
      <trkpt lat="45.25191" lon="6.49319">
        <ele>2048.8000488281</ele>
        <time>2021-01-24T11:16:42.000Z</time>
      </trkpt>
      <trkpt lat="45.25191" lon="6.49313">
        <ele>2046.8000488281</ele>
        <time>2021-01-24T11:16:43.000Z</time>
      </trkpt>
      <trkpt lat="45.25189" lon="6.49307">
        <ele>2044.8000488281</ele>
        <time>2021-01-24T11:16:44.000Z</time>
      </trkpt>
      <trkpt lat="45.25186" lon="6.49302">
        <ele>2043.4000244141</ele>
        <time>2021-01-24T11:16:45.000Z</time>
      </trkpt>
      <trkpt lat="45.25184" lon="6.49299">
        <ele>2042</ele>
        <time>2021-01-24T11:16:46.000Z</time>
      </trkpt>
      <trkpt lat="45.25183" lon="6.49298">
        <ele>2040.8000488281</ele>
        <time>2021-01-24T11:16:47.000Z</time>
      </trkpt>
      <trkpt lat="45.25182" lon="6.49298">
        <ele>2039.4000244141</ele>
        <time>2021-01-24T11:16:48.000Z</time>
      </trkpt>
      <trkpt lat="45.2518" lon="6.49295">
        <ele>2038.1999511719</ele>
        <time>2021-01-24T11:16:49.000Z</time>
      </trkpt>
      <trkpt lat="45.25178" lon="6.49295">
        <ele>2037.1999511719</ele>
        <time>2021-01-24T11:16:50.000Z</time>
      </trkpt>
      <trkpt lat="45.25177" lon="6.49294">
        <ele>2035.8000488281</ele>
        <time>2021-01-24T11:16:51.000Z</time>
      </trkpt>
      <trkpt lat="45.25173" lon="6.49296">
        <ele>2035</ele>
        <time>2021-01-24T11:16:55.000Z</time>
      </trkpt>
      <trkpt lat="45.25173" lon="6.49297">
        <ele>2034.8000488281</ele>
        <time>2021-01-24T11:16:57.000Z</time>
      </trkpt>
      <trkpt lat="45.25173" lon="6.49297">
        <ele>2034.5999755859</ele>
        <time>2021-01-24T11:17:02.000Z</time>
      </trkpt>
      <trkpt lat="45.2517" lon="6.49298">
        <ele>2034.8000488281</ele>
        <time>2021-01-24T11:17:18.000Z</time>
      </trkpt>
      <trkpt lat="45.2517" lon="6.49297">
        <ele>2034.5999755859</ele>
        <time>2021-01-24T11:17:31.000Z</time>
      </trkpt>
      <trkpt lat="45.25165" lon="6.49299">
        <ele>2034.5999755859</ele>
        <time>2021-01-24T11:17:42.000Z</time>
      </trkpt>
      <trkpt lat="45.25165" lon="6.493">
        <ele>2034.8000488281</ele>
        <time>2021-01-24T11:17:51.000Z</time>
      </trkpt>
      <trkpt lat="45.25169" lon="6.49296">
        <ele>2034.5999755859</ele>
        <time>2021-01-24T11:18:04.000Z</time>
      </trkpt>
      <trkpt lat="45.2517" lon="6.49295">
        <ele>2034.4000244141</ele>
        <time>2021-01-24T11:18:13.000Z</time>
      </trkpt>
      <trkpt lat="45.2517" lon="6.49295">
        <ele>2034.4000244141</ele>
        <time>2021-01-24T11:18:17.000Z</time>
      </trkpt>
      <trkpt lat="45.25169" lon="6.49296">
        <ele>2034.1999511719</ele>
        <time>2021-01-24T11:18:24.000Z</time>
      </trkpt>
      <trkpt lat="45.25169" lon="6.49297">
        <ele>2033.8000488281</ele>
        <time>2021-01-24T11:18:34.000Z</time>
      </trkpt>
      <trkpt lat="45.25169" lon="6.49297">
        <ele>2034.1999511719</ele>
        <time>2021-01-24T11:18:47.000Z</time>
      </trkpt>
      <trkpt lat="45.25166" lon="6.493">
        <ele>2033.1999511719</ele>
        <time>2021-01-24T11:18:53.000Z</time>
      </trkpt>
      <trkpt lat="45.25163" lon="6.49302">
        <ele>2034.8000488281</ele>
        <time>2021-01-24T11:19:04.000Z</time>
      </trkpt>
      <trkpt lat="45.25163" lon="6.49302">
        <ele>2034.1999511719</ele>
        <time>2021-01-24T11:19:19.000Z</time>
      </trkpt>
      <trkpt lat="45.25163" lon="6.49303">
        <ele>2034.1999511719</ele>
        <time>2021-01-24T11:19:32.000Z</time>
      </trkpt>
      <trkpt lat="45.25163" lon="6.49303">
        <ele>2034.5999755859</ele>
        <time>2021-01-24T11:19:45.000Z</time>
      </trkpt>
      <trkpt lat="45.25163" lon="6.49303">
        <ele>2034.1999511719</ele>
        <time>2021-01-24T11:20:01.000Z</time>
      </trkpt>
      <trkpt lat="45.25163" lon="6.49303">
        <ele>2034.5999755859</ele>
        <time>2021-01-24T11:20:12.000Z</time>
      </trkpt>
      <trkpt lat="45.25163" lon="6.49303">
        <ele>2034.5999755859</ele>
        <time>2021-01-24T11:20:13.000Z</time>
      </trkpt>
      <trkpt lat="45.25163" lon="6.49303">
        <ele>2035.5999755859</ele>
        <time>2021-01-24T11:20:25.000Z</time>
      </trkpt>
      <trkpt lat="45.25163" lon="6.49303">
        <ele>2035</ele>
        <time>2021-01-24T11:20:42.000Z</time>
      </trkpt>
      <trkpt lat="45.25163" lon="6.49303">
        <ele>2034.8000488281</ele>
        <time>2021-01-24T11:20:53.000Z</time>
      </trkpt>
      <trkpt lat="45.25163" lon="6.49303">
        <ele>2034.1999511719</ele>
        <time>2021-01-24T11:21:05.000Z</time>
      </trkpt>
      <trkpt lat="45.25163" lon="6.49302">
        <ele>2034.5999755859</ele>
        <time>2021-01-24T11:21:20.000Z</time>
      </trkpt>
      <trkpt lat="45.25163" lon="6.49302">
        <ele>2034.4000244141</ele>
        <time>2021-01-24T11:21:35.000Z</time>
      </trkpt>
      <trkpt lat="45.25163" lon="6.49302">
        <ele>2034.8000488281</ele>
        <time>2021-01-24T11:21:49.000Z</time>
      </trkpt>
      <trkpt lat="45.25164" lon="6.493">
        <ele>2035</ele>
        <time>2021-01-24T11:22:03.000Z</time>
      </trkpt>
      <trkpt lat="45.25164" lon="6.49298">
        <ele>2034.5999755859</ele>
        <time>2021-01-24T11:22:17.000Z</time>
      </trkpt>
      <trkpt lat="45.25164" lon="6.49298">
        <ele>2033.8000488281</ele>
        <time>2021-01-24T11:22:29.000Z</time>
      </trkpt>
      <trkpt lat="45.25164" lon="6.49298">
        <ele>2033.8000488281</ele>
        <time>2021-01-24T11:22:30.000Z</time>
      </trkpt>
      <trkpt lat="45.25164" lon="6.49298">
        <ele>2033.5999755859</ele>
        <time>2021-01-24T11:22:42.000Z</time>
      </trkpt>
      <trkpt lat="45.25163" lon="6.49299">
        <ele>2034</ele>
        <time>2021-01-24T11:22:56.000Z</time>
      </trkpt>
      <trkpt lat="45.25163" lon="6.49299">
        <ele>2034.5999755859</ele>
        <time>2021-01-24T11:23:14.000Z</time>
      </trkpt>
      <trkpt lat="45.25162" lon="6.493">
        <ele>2034.4000244141</ele>
        <time>2021-01-24T11:23:29.000Z</time>
      </trkpt>
      <trkpt lat="45.25162" lon="6.493">
        <ele>2034.4000244141</ele>
        <time>2021-01-24T11:23:45.000Z</time>
      </trkpt>
      <trkpt lat="45.25162" lon="6.493">
        <ele>2034.4000244141</ele>
        <time>2021-01-24T11:24:00.000Z</time>
      </trkpt>
      <trkpt lat="45.25163" lon="6.493">
        <ele>2034</ele>
        <time>2021-01-24T11:24:15.000Z</time>
      </trkpt>
      <trkpt lat="45.25163" lon="6.493">
        <ele>2034.1999511719</ele>
        <time>2021-01-24T11:24:28.000Z</time>
      </trkpt>
      <trkpt lat="45.25163" lon="6.493">
        <ele>2034.1999511719</ele>
        <time>2021-01-24T11:24:41.000Z</time>
      </trkpt>
      <trkpt lat="45.25167" lon="6.49302">
        <ele>2033.8000488281</ele>
        <time>2021-01-24T11:24:55.000Z</time>
      </trkpt>
      <trkpt lat="45.25167" lon="6.49302">
        <ele>2033.4000244141</ele>
        <time>2021-01-24T11:25:09.000Z</time>
      </trkpt>
      <trkpt lat="45.25166" lon="6.49303">
        <ele>2033.5999755859</ele>
        <time>2021-01-24T11:25:16.000Z</time>
      </trkpt>
      <trkpt lat="45.25166" lon="6.49303">
        <ele>2033.4000244141</ele>
        <time>2021-01-24T11:25:29.000Z</time>
      </trkpt>
      <trkpt lat="45.25167" lon="6.49302">
        <ele>2033.5999755859</ele>
        <time>2021-01-24T11:25:42.000Z</time>
      </trkpt>
      <trkpt lat="45.25167" lon="6.49302">
        <ele>2033.8000488281</ele>
        <time>2021-01-24T11:25:54.000Z</time>
      </trkpt>
      <trkpt lat="45.25167" lon="6.49302">
        <ele>2034</ele>
        <time>2021-01-24T11:26:02.000Z</time>
      </trkpt>
      <trkpt lat="45.25167" lon="6.49302">
        <ele>2033.8000488281</ele>
        <time>2021-01-24T11:26:06.000Z</time>
      </trkpt>
      <trkpt lat="45.25166" lon="6.49302">
        <ele>2034</ele>
        <time>2021-01-24T11:26:21.000Z</time>
      </trkpt>
      <trkpt lat="45.25166" lon="6.49302">
        <ele>2034.8000488281</ele>
        <time>2021-01-24T11:26:30.000Z</time>
      </trkpt>
      <trkpt lat="45.25166" lon="6.49302">
        <ele>2035</ele>
        <time>2021-01-24T11:26:36.000Z</time>
      </trkpt>
      <trkpt lat="45.25166" lon="6.49302">
        <ele>2034.8000488281</ele>
        <time>2021-01-24T11:26:41.000Z</time>
      </trkpt>
      <trkpt lat="45.25166" lon="6.49302">
        <ele>2035</ele>
        <time>2021-01-24T11:26:55.000Z</time>
      </trkpt>
      <trkpt lat="45.25166" lon="6.49302">
        <ele>2034.8000488281</ele>
        <time>2021-01-24T11:27:07.000Z</time>
      </trkpt>
      <trkpt lat="45.25165" lon="6.49301">
        <ele>2034.5999755859</ele>
        <time>2021-01-24T11:27:24.000Z</time>
      </trkpt>
      <trkpt lat="45.25167" lon="6.49304">
        <ele>2035.4000244141</ele>
        <time>2021-01-24T11:27:32.000Z</time>
      </trkpt>
      <trkpt lat="45.2517" lon="6.49307">
        <ele>2036</ele>
        <time>2021-01-24T11:27:37.000Z</time>
      </trkpt>
      <trkpt lat="45.25171" lon="6.49307">
        <ele>2036.4000244141</ele>
        <time>2021-01-24T11:27:39.000Z</time>
      </trkpt>
      <trkpt lat="45.25172" lon="6.49309">
        <ele>2037.1999511719</ele>
        <time>2021-01-24T11:27:42.000Z</time>
      </trkpt>
      <trkpt lat="45.25173" lon="6.49312">
        <ele>2037.8000488281</ele>
        <time>2021-01-24T11:27:45.000Z</time>
      </trkpt>
      <trkpt lat="45.25175" lon="6.49315">
        <ele>2038.4000244141</ele>
        <time>2021-01-24T11:27:48.000Z</time>
      </trkpt>
      <trkpt lat="45.25177" lon="6.49317">
        <ele>2039.4000244141</ele>
        <time>2021-01-24T11:27:53.000Z</time>
      </trkpt>
      <trkpt lat="45.25177" lon="6.49317">
        <ele>2039.5999755859</ele>
        <time>2021-01-24T11:28:09.000Z</time>
      </trkpt>
      <trkpt lat="45.25178" lon="6.4932">
        <ele>2039.1999511719</ele>
        <time>2021-01-24T11:28:18.000Z</time>
      </trkpt>
      <trkpt lat="45.25181" lon="6.49323">
        <ele>2040.5999755859</ele>
        <time>2021-01-24T11:28:24.000Z</time>
      </trkpt>
      <trkpt lat="45.25184" lon="6.49323">
        <ele>2041.8000488281</ele>
        <time>2021-01-24T11:28:28.000Z</time>
      </trkpt>
      <trkpt lat="45.25187" lon="6.49323">
        <ele>2043</ele>
        <time>2021-01-24T11:28:32.000Z</time>
      </trkpt>
      <trkpt lat="45.25192" lon="6.49323">
        <ele>2044</ele>
        <time>2021-01-24T11:28:38.000Z</time>
      </trkpt>
      <trkpt lat="45.25193" lon="6.49322">
        <ele>2044.4000244141</ele>
        <time>2021-01-24T11:28:40.000Z</time>
      </trkpt>
      <trkpt lat="45.25196" lon="6.49322">
        <ele>2045.1999511719</ele>
        <time>2021-01-24T11:28:44.000Z</time>
      </trkpt>
      <trkpt lat="45.25198" lon="6.49321">
        <ele>2045.8000488281</ele>
        <time>2021-01-24T11:28:47.000Z</time>
      </trkpt>
      <trkpt lat="45.25201" lon="6.49321">
        <ele>2046.1999511719</ele>
        <time>2021-01-24T11:28:50.000Z</time>
      </trkpt>
      <trkpt lat="45.25204" lon="6.4932">
        <ele>2047.1999511719</ele>
        <time>2021-01-24T11:28:55.000Z</time>
      </trkpt>
      <trkpt lat="45.25207" lon="6.49318">
        <ele>2048.1999511719</ele>
        <time>2021-01-24T11:29:00.000Z</time>
      </trkpt>
      <trkpt lat="45.25209" lon="6.49318">
        <ele>2048.8000488281</ele>
        <time>2021-01-24T11:29:03.000Z</time>
      </trkpt>
      <trkpt lat="45.25212" lon="6.49317">
        <ele>2049.3999023438</ele>
        <time>2021-01-24T11:29:06.000Z</time>
      </trkpt>
      <trkpt lat="45.25214" lon="6.49316">
        <ele>2049.8000488281</ele>
        <time>2021-01-24T11:29:10.000Z</time>
      </trkpt>
      <trkpt lat="45.25216" lon="6.49315">
        <ele>2050.6000976562</ele>
        <time>2021-01-24T11:29:13.000Z</time>
      </trkpt>
      <trkpt lat="45.25218" lon="6.49314">
        <ele>2051.6000976562</ele>
        <time>2021-01-24T11:29:17.000Z</time>
      </trkpt>
      <trkpt lat="45.25219" lon="6.49314">
        <ele>2051.8000488281</ele>
        <time>2021-01-24T11:29:18.000Z</time>
      </trkpt>
      <trkpt lat="45.25221" lon="6.49313">
        <ele>2052.6000976562</ele>
        <time>2021-01-24T11:29:22.000Z</time>
      </trkpt>
      <trkpt lat="45.25223" lon="6.49312">
        <ele>2053.1999511719</ele>
        <time>2021-01-24T11:29:26.000Z</time>
      </trkpt>
      <trkpt lat="45.25224" lon="6.49311">
        <ele>2053.8000488281</ele>
        <time>2021-01-24T11:29:29.000Z</time>
      </trkpt>
      <trkpt lat="45.25227" lon="6.49311">
        <ele>2054.8000488281</ele>
        <time>2021-01-24T11:29:33.000Z</time>
      </trkpt>
      <trkpt lat="45.25228" lon="6.4931">
        <ele>2055.1999511719</ele>
        <time>2021-01-24T11:29:35.000Z</time>
      </trkpt>
      <trkpt lat="45.25231" lon="6.49307">
        <ele>2056.1999511719</ele>
        <time>2021-01-24T11:29:40.000Z</time>
      </trkpt>
      <trkpt lat="45.25233" lon="6.49305">
        <ele>2057.1999511719</ele>
        <time>2021-01-24T11:29:44.000Z</time>
      </trkpt>
      <trkpt lat="45.25234" lon="6.49305">
        <ele>2057.3999023438</ele>
        <time>2021-01-24T11:29:45.000Z</time>
      </trkpt>
      <trkpt lat="45.25234" lon="6.49307">
        <ele>2058.8000488281</ele>
        <time>2021-01-24T11:29:49.000Z</time>
      </trkpt>
      <trkpt lat="45.25234" lon="6.49308">
        <ele>2059.3999023438</ele>
        <time>2021-01-24T11:29:51.000Z</time>
      </trkpt>
      <trkpt lat="45.25234" lon="6.4931">
        <ele>2059.8000488281</ele>
        <time>2021-01-24T11:29:53.000Z</time>
      </trkpt>
      <trkpt lat="45.25235" lon="6.49313">
        <ele>2061</ele>
        <time>2021-01-24T11:29:57.000Z</time>
      </trkpt>
      <trkpt lat="45.25234" lon="6.49316">
        <ele>2061.3999023438</ele>
        <time>2021-01-24T11:29:59.000Z</time>
      </trkpt>
      <trkpt lat="45.25233" lon="6.49317">
        <ele>2062</ele>
        <time>2021-01-24T11:30:01.000Z</time>
      </trkpt>
      <trkpt lat="45.25232" lon="6.49321">
        <ele>2062.8000488281</ele>
        <time>2021-01-24T11:30:06.000Z</time>
      </trkpt>
      <trkpt lat="45.25233" lon="6.49324">
        <ele>2063.1999511719</ele>
        <time>2021-01-24T11:30:09.000Z</time>
      </trkpt>
      <trkpt lat="45.25233" lon="6.49327">
        <ele>2064</ele>
        <time>2021-01-24T11:30:13.000Z</time>
      </trkpt>
      <trkpt lat="45.25233" lon="6.49328">
        <ele>2064.1999511719</ele>
        <time>2021-01-24T11:30:14.000Z</time>
      </trkpt>
      <trkpt lat="45.25233" lon="6.49335">
        <ele>2065.3999023438</ele>
        <time>2021-01-24T11:30:20.000Z</time>
      </trkpt>
      <trkpt lat="45.25233" lon="6.49336">
        <ele>2065.3999023438</ele>
        <time>2021-01-24T11:30:21.000Z</time>
      </trkpt>
      <trkpt lat="45.25234" lon="6.49342">
        <ele>2066.3999023438</ele>
        <time>2021-01-24T11:30:27.000Z</time>
      </trkpt>
      <trkpt lat="45.25235" lon="6.49343">
        <ele>2066.8000488281</ele>
        <time>2021-01-24T11:30:28.000Z</time>
      </trkpt>
      <trkpt lat="45.25236" lon="6.49347">
        <ele>2067.6000976562</ele>
        <time>2021-01-24T11:30:33.000Z</time>
      </trkpt>
      <trkpt lat="45.25237" lon="6.4935">
        <ele>2067.8000488281</ele>
        <time>2021-01-24T11:30:35.000Z</time>
      </trkpt>
      <trkpt lat="45.25238" lon="6.49357">
        <ele>2068.8000488281</ele>
        <time>2021-01-24T11:30:43.000Z</time>
      </trkpt>
      <trkpt lat="45.25238" lon="6.49365">
        <ele>2070</ele>
        <time>2021-01-24T11:30:50.000Z</time>
      </trkpt>
      <trkpt lat="45.25238" lon="6.49366">
        <ele>2070.1999511719</ele>
        <time>2021-01-24T11:30:51.000Z</time>
      </trkpt>
      <trkpt lat="45.25238" lon="6.49369">
        <ele>2071</ele>
        <time>2021-01-24T11:30:54.000Z</time>
      </trkpt>
      <trkpt lat="45.25238" lon="6.4937">
        <ele>2071.1999511719</ele>
        <time>2021-01-24T11:30:55.000Z</time>
      </trkpt>
      <trkpt lat="45.25237" lon="6.49375">
        <ele>2072</ele>
        <time>2021-01-24T11:31:00.000Z</time>
      </trkpt>
      <trkpt lat="45.25238" lon="6.49377">
        <ele>2072.3999023438</ele>
        <time>2021-01-24T11:31:02.000Z</time>
      </trkpt>
      <trkpt lat="45.25238" lon="6.49382">
        <ele>2073.1999511719</ele>
        <time>2021-01-24T11:31:06.000Z</time>
      </trkpt>
      <trkpt lat="45.25237" lon="6.49386">
        <ele>2073.8000488281</ele>
        <time>2021-01-24T11:31:09.000Z</time>
      </trkpt>
      <trkpt lat="45.25238" lon="6.49389">
        <ele>2074.3999023438</ele>
        <time>2021-01-24T11:31:12.000Z</time>
      </trkpt>
      <trkpt lat="45.25238" lon="6.49392">
        <ele>2075.3999023438</ele>
        <time>2021-01-24T11:31:16.000Z</time>
      </trkpt>
      <trkpt lat="45.25238" lon="6.49393">
        <ele>2075.6000976562</ele>
        <time>2021-01-24T11:31:17.000Z</time>
      </trkpt>
      <trkpt lat="45.25237" lon="6.49398">
        <ele>2076.6000976562</ele>
        <time>2021-01-24T11:31:22.000Z</time>
      </trkpt>
      <trkpt lat="45.25237" lon="6.49401">
        <ele>2077.1999511719</ele>
        <time>2021-01-24T11:31:25.000Z</time>
      </trkpt>
      <trkpt lat="45.25237" lon="6.49403">
        <ele>2077.8000488281</ele>
        <time>2021-01-24T11:31:28.000Z</time>
      </trkpt>
      <trkpt lat="45.25236" lon="6.49406">
        <ele>2078.6000976562</ele>
        <time>2021-01-24T11:31:32.000Z</time>
      </trkpt>
      <trkpt lat="45.25236" lon="6.49407">
        <ele>2079</ele>
        <time>2021-01-24T11:31:34.000Z</time>
      </trkpt>
      <trkpt lat="45.25235" lon="6.49411">
        <ele>2080</ele>
        <time>2021-01-24T11:31:39.000Z</time>
      </trkpt>
      <trkpt lat="45.25235" lon="6.49412">
        <ele>2080.1999511719</ele>
        <time>2021-01-24T11:31:40.000Z</time>
      </trkpt>
      <trkpt lat="45.25235" lon="6.49416">
        <ele>2081.1999511719</ele>
        <time>2021-01-24T11:31:44.000Z</time>
      </trkpt>
      <trkpt lat="45.25235" lon="6.49419">
        <ele>2081.8000488281</ele>
        <time>2021-01-24T11:31:47.000Z</time>
      </trkpt>
      <trkpt lat="45.25235" lon="6.49421">
        <ele>2082.3999023438</ele>
        <time>2021-01-24T11:31:50.000Z</time>
      </trkpt>
      <trkpt lat="45.25235" lon="6.49424">
        <ele>2083</ele>
        <time>2021-01-24T11:31:54.000Z</time>
      </trkpt>
      <trkpt lat="45.25235" lon="6.49426">
        <ele>2083.3999023438</ele>
        <time>2021-01-24T11:31:56.000Z</time>
      </trkpt>
      <trkpt lat="45.25235" lon="6.49431">
        <ele>2084.6000976562</ele>
        <time>2021-01-24T11:32:00.000Z</time>
      </trkpt>
      <trkpt lat="45.25235" lon="6.49433">
        <ele>2085</ele>
        <time>2021-01-24T11:32:02.000Z</time>
      </trkpt>
      <trkpt lat="45.25235" lon="6.49435">
        <ele>2085.8000488281</ele>
        <time>2021-01-24T11:32:05.000Z</time>
      </trkpt>
      <trkpt lat="45.25235" lon="6.49438">
        <ele>2086.6000976562</ele>
        <time>2021-01-24T11:32:08.000Z</time>
      </trkpt>
      <trkpt lat="45.25235" lon="6.4944">
        <ele>2086.8000488281</ele>
        <time>2021-01-24T11:32:10.000Z</time>
      </trkpt>
      <trkpt lat="45.25235" lon="6.49445">
        <ele>2088</ele>
        <time>2021-01-24T11:32:15.000Z</time>
      </trkpt>
      <trkpt lat="45.25234" lon="6.49448">
        <ele>2089.1999511719</ele>
        <time>2021-01-24T11:32:20.000Z</time>
      </trkpt>
      <trkpt lat="45.25234" lon="6.4945">
        <ele>2089.6000976562</ele>
        <time>2021-01-24T11:32:22.000Z</time>
      </trkpt>
      <trkpt lat="45.25234" lon="6.49452">
        <ele>2090.3999023438</ele>
        <time>2021-01-24T11:32:25.000Z</time>
      </trkpt>
      <trkpt lat="45.25235" lon="6.49455">
        <ele>2091.3999023438</ele>
        <time>2021-01-24T11:32:28.000Z</time>
      </trkpt>
      <trkpt lat="45.25235" lon="6.49457">
        <ele>2091.6000976562</ele>
        <time>2021-01-24T11:32:30.000Z</time>
      </trkpt>
      <trkpt lat="45.25237" lon="6.49465">
        <ele>2092.6000976562</ele>
        <time>2021-01-24T11:32:37.000Z</time>
      </trkpt>
      <trkpt lat="45.25236" lon="6.49466">
        <ele>2092.8000488281</ele>
        <time>2021-01-24T11:32:38.000Z</time>
      </trkpt>
      <trkpt lat="45.25237" lon="6.49471">
        <ele>2093.6000976562</ele>
        <time>2021-01-24T11:32:43.000Z</time>
      </trkpt>
      <trkpt lat="45.25237" lon="6.49473">
        <ele>2094</ele>
        <time>2021-01-24T11:32:45.000Z</time>
      </trkpt>
      <trkpt lat="45.25237" lon="6.49476">
        <ele>2094.6000976562</ele>
        <time>2021-01-24T11:32:48.000Z</time>
      </trkpt>
      <trkpt lat="45.25238" lon="6.49479">
        <ele>2095.3999023438</ele>
        <time>2021-01-24T11:32:52.000Z</time>
      </trkpt>
      <trkpt lat="45.25239" lon="6.49481">
        <ele>2095.8000488281</ele>
        <time>2021-01-24T11:32:54.000Z</time>
      </trkpt>
      <trkpt lat="45.2524" lon="6.49485">
        <ele>2096.6000976562</ele>
        <time>2021-01-24T11:32:59.000Z</time>
      </trkpt>
      <trkpt lat="45.25241" lon="6.49488">
        <ele>2096.8000488281</ele>
        <time>2021-01-24T11:33:02.000Z</time>
      </trkpt>
      <trkpt lat="45.25241" lon="6.49491">
        <ele>2097.3999023438</ele>
        <time>2021-01-24T11:33:05.000Z</time>
      </trkpt>
      <trkpt lat="45.25242" lon="6.49494">
        <ele>2098</ele>
        <time>2021-01-24T11:33:07.000Z</time>
      </trkpt>
      <trkpt lat="45.25243" lon="6.49498">
        <ele>2098.8000488281</ele>
        <time>2021-01-24T11:33:12.000Z</time>
      </trkpt>
      <trkpt lat="45.25243" lon="6.49498">
        <ele>2099</ele>
        <time>2021-01-24T11:33:13.000Z</time>
      </trkpt>
      <trkpt lat="45.25245" lon="6.49504">
        <ele>2100</ele>
        <time>2021-01-24T11:33:18.000Z</time>
      </trkpt>
      <trkpt lat="45.25245" lon="6.49506">
        <ele>2100.1999511719</ele>
        <time>2021-01-24T11:33:20.000Z</time>
      </trkpt>
      <trkpt lat="45.25247" lon="6.49512">
        <ele>2101.1999511719</ele>
        <time>2021-01-24T11:33:26.000Z</time>
      </trkpt>
      <trkpt lat="45.25246" lon="6.49519">
        <ele>2102.3999023438</ele>
        <time>2021-01-24T11:33:33.000Z</time>
      </trkpt>
      <trkpt lat="45.25246" lon="6.49521">
        <ele>2102.6000976562</ele>
        <time>2021-01-24T11:33:35.000Z</time>
      </trkpt>
      <trkpt lat="45.25248" lon="6.49525">
        <ele>2103.6000976562</ele>
        <time>2021-01-24T11:33:40.000Z</time>
      </trkpt>
      <trkpt lat="45.25248" lon="6.49526">
        <ele>2103.8000488281</ele>
        <time>2021-01-24T11:33:42.000Z</time>
      </trkpt>
      <trkpt lat="45.25252" lon="6.49535">
        <ele>2104.6000976562</ele>
        <time>2021-01-24T11:33:49.000Z</time>
      </trkpt>
      <trkpt lat="45.25252" lon="6.49536">
        <ele>2104.6000976562</ele>
        <time>2021-01-24T11:33:50.000Z</time>
      </trkpt>
      <trkpt lat="45.25253" lon="6.49543">
        <ele>2105.1999511719</ele>
        <time>2021-01-24T11:33:57.000Z</time>
      </trkpt>
      <trkpt lat="45.25254" lon="6.49545">
        <ele>2105.6000976562</ele>
        <time>2021-01-24T11:33:59.000Z</time>
      </trkpt>
      <trkpt lat="45.25255" lon="6.49549">
        <ele>2106.8000488281</ele>
        <time>2021-01-24T11:34:04.000Z</time>
      </trkpt>
      <trkpt lat="45.25255" lon="6.49553">
        <ele>2107.8000488281</ele>
        <time>2021-01-24T11:34:08.000Z</time>
      </trkpt>
      <trkpt lat="45.25255" lon="6.49557">
        <ele>2108.6000976562</ele>
        <time>2021-01-24T11:34:12.000Z</time>
      </trkpt>
      <trkpt lat="45.25255" lon="6.4956">
        <ele>2109</ele>
        <time>2021-01-24T11:34:15.000Z</time>
      </trkpt>
      <trkpt lat="45.25256" lon="6.49564">
        <ele>2110</ele>
        <time>2021-01-24T11:34:20.000Z</time>
      </trkpt>
      <trkpt lat="45.25256" lon="6.49565">
        <ele>2110.1999511719</ele>
        <time>2021-01-24T11:34:21.000Z</time>
      </trkpt>
      <trkpt lat="45.25256" lon="6.49569">
        <ele>2111.1999511719</ele>
        <time>2021-01-24T11:34:27.000Z</time>
      </trkpt>
      <trkpt lat="45.25256" lon="6.49571">
        <ele>2111.8000488281</ele>
        <time>2021-01-24T11:34:30.000Z</time>
      </trkpt>
      <trkpt lat="45.25256" lon="6.49572">
        <ele>2112.1999511719</ele>
        <time>2021-01-24T11:34:31.000Z</time>
      </trkpt>
      <trkpt lat="45.25257" lon="6.49577">
        <ele>2113</ele>
        <time>2021-01-24T11:34:37.000Z</time>
      </trkpt>
      <trkpt lat="45.25256" lon="6.49578">
        <ele>2113.1999511719</ele>
        <time>2021-01-24T11:34:38.000Z</time>
      </trkpt>
      <trkpt lat="45.25255" lon="6.49584">
        <ele>2114</ele>
        <time>2021-01-24T11:34:44.000Z</time>
      </trkpt>
      <trkpt lat="45.25255" lon="6.49586">
        <ele>2114.1999511719</ele>
        <time>2021-01-24T11:34:46.000Z</time>
      </trkpt>
      <trkpt lat="45.25254" lon="6.49591">
        <ele>2115.1999511719</ele>
        <time>2021-01-24T11:34:52.000Z</time>
      </trkpt>
      <trkpt lat="45.25254" lon="6.49592">
        <ele>2115.3999023438</ele>
        <time>2021-01-24T11:34:53.000Z</time>
      </trkpt>
      <trkpt lat="45.25254" lon="6.49597">
        <ele>2116.6000976562</ele>
        <time>2021-01-24T11:34:59.000Z</time>
      </trkpt>
      <trkpt lat="45.25254" lon="6.49599">
        <ele>2117.1999511719</ele>
        <time>2021-01-24T11:35:01.000Z</time>
      </trkpt>
      <trkpt lat="45.25254" lon="6.49603">
        <ele>2117.8000488281</ele>
        <time>2021-01-24T11:35:05.000Z</time>
      </trkpt>
      <trkpt lat="45.25255" lon="6.49606">
        <ele>2118.3999023438</ele>
        <time>2021-01-24T11:35:09.000Z</time>
      </trkpt>
      <trkpt lat="45.25255" lon="6.49608">
        <ele>2118.8000488281</ele>
        <time>2021-01-24T11:35:11.000Z</time>
      </trkpt>
      <trkpt lat="45.25258" lon="6.49609">
        <ele>2120</ele>
        <time>2021-01-24T11:35:16.000Z</time>
      </trkpt>
      <trkpt lat="45.25258" lon="6.49609">
        <ele>2120.1999511719</ele>
        <time>2021-01-24T11:35:17.000Z</time>
      </trkpt>
      <trkpt lat="45.25258" lon="6.49609">
        <ele>2121.3999023438</ele>
        <time>2021-01-24T11:35:20.000Z</time>
      </trkpt>
      <trkpt lat="45.25258" lon="6.49609">
        <ele>2122.1999511719</ele>
        <time>2021-01-24T11:35:31.000Z</time>
      </trkpt>
      <trkpt lat="45.25258" lon="6.49609">
        <ele>2122.3999023438</ele>
        <time>2021-01-24T11:35:35.000Z</time>
      </trkpt>
      <trkpt lat="45.25258" lon="6.49609">
        <ele>2122.1999511719</ele>
        <time>2021-01-24T11:35:53.000Z</time>
      </trkpt>
      <trkpt lat="45.25258" lon="6.49609">
        <ele>2123</ele>
        <time>2021-01-24T11:36:08.000Z</time>
      </trkpt>
      <trkpt lat="45.25262" lon="6.49612">
        <ele>2122.3999023438</ele>
        <time>2021-01-24T11:36:16.000Z</time>
      </trkpt>
      <trkpt lat="45.25264" lon="6.49616">
        <ele>2123.6000976562</ele>
        <time>2021-01-24T11:36:21.000Z</time>
      </trkpt>
      <trkpt lat="45.25265" lon="6.49619">
        <ele>2123.8000488281</ele>
        <time>2021-01-24T11:36:25.000Z</time>
      </trkpt>
      <trkpt lat="45.25266" lon="6.49624">
        <ele>2124.8000488281</ele>
        <time>2021-01-24T11:36:30.000Z</time>
      </trkpt>
      <trkpt lat="45.25267" lon="6.49625">
        <ele>2125.3999023438</ele>
        <time>2021-01-24T11:36:32.000Z</time>
      </trkpt>
      <trkpt lat="45.25267" lon="6.49628">
        <ele>2125.8000488281</ele>
        <time>2021-01-24T11:36:35.000Z</time>
      </trkpt>
      <trkpt lat="45.25268" lon="6.49633">
        <ele>2126.6000976562</ele>
        <time>2021-01-24T11:36:40.000Z</time>
      </trkpt>
      <trkpt lat="45.25268" lon="6.49635">
        <ele>2127</ele>
        <time>2021-01-24T11:36:42.000Z</time>
      </trkpt>
      <trkpt lat="45.25268" lon="6.4964">
        <ele>2127.8000488281</ele>
        <time>2021-01-24T11:36:46.000Z</time>
      </trkpt>
      <trkpt lat="45.25268" lon="6.4964">
        <ele>2128.1999511719</ele>
        <time>2021-01-24T11:36:47.000Z</time>
      </trkpt>
      <trkpt lat="45.25269" lon="6.49645">
        <ele>2129.3999023438</ele>
        <time>2021-01-24T11:36:52.000Z</time>
      </trkpt>
      <trkpt lat="45.25269" lon="6.49647">
        <ele>2129.6000976562</ele>
        <time>2021-01-24T11:36:54.000Z</time>
      </trkpt>
      <trkpt lat="45.25269" lon="6.49651">
        <ele>2130.6000976562</ele>
        <time>2021-01-24T11:36:59.000Z</time>
      </trkpt>
      <trkpt lat="45.25269" lon="6.49654">
        <ele>2131.1999511719</ele>
        <time>2021-01-24T11:37:02.000Z</time>
      </trkpt>
      <trkpt lat="45.25269" lon="6.49656">
        <ele>2131.8000488281</ele>
        <time>2021-01-24T11:37:04.000Z</time>
      </trkpt>
      <trkpt lat="45.2527" lon="6.4966">
        <ele>2132.8000488281</ele>
        <time>2021-01-24T11:37:09.000Z</time>
      </trkpt>
      <trkpt lat="45.2527" lon="6.49662">
        <ele>2133</ele>
        <time>2021-01-24T11:37:10.000Z</time>
      </trkpt>
      <trkpt lat="45.25269" lon="6.49666">
        <ele>2133.8000488281</ele>
        <time>2021-01-24T11:37:14.000Z</time>
      </trkpt>
      <trkpt lat="45.25269" lon="6.49668">
        <ele>2134.8000488281</ele>
        <time>2021-01-24T11:37:16.000Z</time>
      </trkpt>
      <trkpt lat="45.2527" lon="6.4967">
        <ele>2135.1999511719</ele>
        <time>2021-01-24T11:37:18.000Z</time>
      </trkpt>
      <trkpt lat="45.2527" lon="6.49675">
        <ele>2136</ele>
        <time>2021-01-24T11:37:23.000Z</time>
      </trkpt>
      <trkpt lat="45.25271" lon="6.49677">
        <ele>2136.3999023438</ele>
        <time>2021-01-24T11:37:26.000Z</time>
      </trkpt>
      <trkpt lat="45.25272" lon="6.4968">
        <ele>2137</ele>
        <time>2021-01-24T11:37:29.000Z</time>
      </trkpt>
      <trkpt lat="45.25272" lon="6.4968">
        <ele>2138.1999511719</ele>
        <time>2021-01-24T11:37:33.000Z</time>
      </trkpt>
      <trkpt lat="45.25272" lon="6.4968">
        <ele>2138.1999511719</ele>
        <time>2021-01-24T11:37:34.000Z</time>
      </trkpt>
      <trkpt lat="45.25272" lon="6.4968">
        <ele>2139.6000976562</ele>
        <time>2021-01-24T11:37:42.000Z</time>
      </trkpt>
      <trkpt lat="45.25272" lon="6.4968">
        <ele>2140.1999511719</ele>
        <time>2021-01-24T11:37:44.000Z</time>
      </trkpt>
      <trkpt lat="45.25273" lon="6.49683">
        <ele>2138.1999511719</ele>
        <time>2021-01-24T11:37:52.000Z</time>
      </trkpt>
      <trkpt lat="45.25273" lon="6.49684">
        <ele>2137</ele>
        <time>2021-01-24T11:37:54.000Z</time>
      </trkpt>
      <trkpt lat="45.25274" lon="6.49687">
        <ele>2138.1999511719</ele>
        <time>2021-01-24T11:37:58.000Z</time>
      </trkpt>
      <trkpt lat="45.25274" lon="6.49688">
        <ele>2139.3999023438</ele>
        <time>2021-01-24T11:38:00.000Z</time>
      </trkpt>
      <trkpt lat="45.25274" lon="6.49692">
        <ele>2139.8000488281</ele>
        <time>2021-01-24T11:38:04.000Z</time>
      </trkpt>
      <trkpt lat="45.25274" lon="6.49694">
        <ele>2141</ele>
        <time>2021-01-24T11:38:07.000Z</time>
      </trkpt>
      <trkpt lat="45.25275" lon="6.49696">
        <ele>2142</ele>
        <time>2021-01-24T11:38:09.000Z</time>
      </trkpt>
      <trkpt lat="45.25275" lon="6.49698">
        <ele>2142.6000976562</ele>
        <time>2021-01-24T11:38:11.000Z</time>
      </trkpt>
      <trkpt lat="45.25275" lon="6.497">
        <ele>2143.1999511719</ele>
        <time>2021-01-24T11:38:13.000Z</time>
      </trkpt>
      <trkpt lat="45.25275" lon="6.49701">
        <ele>2144.3999023438</ele>
        <time>2021-01-24T11:38:18.000Z</time>
      </trkpt>
      <trkpt lat="45.25276" lon="6.49704">
        <ele>2144.6000976562</ele>
        <time>2021-01-24T11:38:25.000Z</time>
      </trkpt>
      <trkpt lat="45.25278" lon="6.49707">
        <ele>2145.6000976562</ele>
        <time>2021-01-24T11:38:31.000Z</time>
      </trkpt>
      <trkpt lat="45.25279" lon="6.49707">
        <ele>2145.8000488281</ele>
        <time>2021-01-24T11:38:32.000Z</time>
      </trkpt>
      <trkpt lat="45.25283" lon="6.49706">
        <ele>2146.6000976562</ele>
        <time>2021-01-24T11:38:37.000Z</time>
      </trkpt>
      <trkpt lat="45.25286" lon="6.49706">
        <ele>2147.1999511719</ele>
        <time>2021-01-24T11:38:40.000Z</time>
      </trkpt>
      <trkpt lat="45.25289" lon="6.49705">
        <ele>2147.8000488281</ele>
        <time>2021-01-24T11:38:44.000Z</time>
      </trkpt>
      <trkpt lat="45.25292" lon="6.49706">
        <ele>2149</ele>
        <time>2021-01-24T11:38:49.000Z</time>
      </trkpt>
      <trkpt lat="45.25294" lon="6.49706">
        <ele>2150.1999511719</ele>
        <time>2021-01-24T11:38:53.000Z</time>
      </trkpt>
      <trkpt lat="45.25298" lon="6.49706">
        <ele>2150.8000488281</ele>
        <time>2021-01-24T11:38:57.000Z</time>
      </trkpt>
      <trkpt lat="45.25299" lon="6.49707">
        <ele>2151.3999023438</ele>
        <time>2021-01-24T11:38:59.000Z</time>
      </trkpt>
      <trkpt lat="45.25303" lon="6.49707">
        <ele>2152.3999023438</ele>
        <time>2021-01-24T11:39:04.000Z</time>
      </trkpt>
      <trkpt lat="45.25305" lon="6.49706">
        <ele>2153.3999023438</ele>
        <time>2021-01-24T11:39:08.000Z</time>
      </trkpt>
      <trkpt lat="45.25308" lon="6.49705">
        <ele>2154.1999511719</ele>
        <time>2021-01-24T11:39:12.000Z</time>
      </trkpt>
      <trkpt lat="45.25308" lon="6.49705">
        <ele>2154.3999023438</ele>
        <time>2021-01-24T11:39:13.000Z</time>
      </trkpt>
      <trkpt lat="45.25311" lon="6.49705">
        <ele>2155.6000976562</ele>
        <time>2021-01-24T11:39:20.000Z</time>
      </trkpt>
      <trkpt lat="45.25311" lon="6.49705">
        <ele>2156.8000488281</ele>
        <time>2021-01-24T11:39:23.000Z</time>
      </trkpt>
      <trkpt lat="45.25314" lon="6.49705">
        <ele>2157</ele>
        <time>2021-01-24T11:39:29.000Z</time>
      </trkpt>
      <trkpt lat="45.25319" lon="6.49708">
        <ele>2157.6000976562</ele>
        <time>2021-01-24T11:39:37.000Z</time>
      </trkpt>
      <trkpt lat="45.25321" lon="6.49709">
        <ele>2158</ele>
        <time>2021-01-24T11:39:39.000Z</time>
      </trkpt>
      <trkpt lat="45.25326" lon="6.49711">
        <ele>2159.1999511719</ele>
        <time>2021-01-24T11:39:45.000Z</time>
      </trkpt>
      <trkpt lat="45.25327" lon="6.49711">
        <ele>2159.3999023438</ele>
        <time>2021-01-24T11:39:46.000Z</time>
      </trkpt>
      <trkpt lat="45.25329" lon="6.49712">
        <ele>2160.1999511719</ele>
        <time>2021-01-24T11:39:50.000Z</time>
      </trkpt>
      <trkpt lat="45.25331" lon="6.49713">
        <ele>2161.3999023438</ele>
        <time>2021-01-24T11:39:55.000Z</time>
      </trkpt>
      <trkpt lat="45.25335" lon="6.49714">
        <ele>2162.6000976562</ele>
        <time>2021-01-24T11:40:01.000Z</time>
      </trkpt>
      <trkpt lat="45.25337" lon="6.49715">
        <ele>2163.6000976562</ele>
        <time>2021-01-24T11:40:05.000Z</time>
      </trkpt>
      <trkpt lat="45.2534" lon="6.49716">
        <ele>2164.6000976562</ele>
        <time>2021-01-24T11:40:09.000Z</time>
      </trkpt>
      <trkpt lat="45.25343" lon="6.49716">
        <ele>2165</ele>
        <time>2021-01-24T11:40:13.000Z</time>
      </trkpt>
      <trkpt lat="45.25344" lon="6.49716">
        <ele>2165.1999511719</ele>
        <time>2021-01-24T11:40:14.000Z</time>
      </trkpt>
      <trkpt lat="45.25345" lon="6.49717">
        <ele>2165.6000976562</ele>
        <time>2021-01-24T11:40:16.000Z</time>
      </trkpt>
      <trkpt lat="45.25347" lon="6.49716">
        <ele>2166.6000976562</ele>
        <time>2021-01-24T11:40:21.000Z</time>
      </trkpt>
      <trkpt lat="45.25347" lon="6.49717">
        <ele>2166.8000488281</ele>
        <time>2021-01-24T11:40:22.000Z</time>
      </trkpt>
      <trkpt lat="45.25348" lon="6.49717">
        <ele>2167.8000488281</ele>
        <time>2021-01-24T11:40:26.000Z</time>
      </trkpt>
      <trkpt lat="45.2535" lon="6.49719">
        <ele>2169</ele>
        <time>2021-01-24T11:40:30.000Z</time>
      </trkpt>
      <trkpt lat="45.25352" lon="6.49722">
        <ele>2170.1999511719</ele>
        <time>2021-01-24T11:40:33.000Z</time>
      </trkpt>
      <trkpt lat="45.25353" lon="6.49724">
        <ele>2171</ele>
        <time>2021-01-24T11:40:36.000Z</time>
      </trkpt>
      <trkpt lat="45.25353" lon="6.49725">
        <ele>2171.1999511719</ele>
        <time>2021-01-24T11:40:37.000Z</time>
      </trkpt>
      <trkpt lat="45.25353" lon="6.49729">
        <ele>2172.3999023438</ele>
        <time>2021-01-24T11:40:41.000Z</time>
      </trkpt>
      <trkpt lat="45.25353" lon="6.49729">
        <ele>2172.8000488281</ele>
        <time>2021-01-24T11:40:42.000Z</time>
      </trkpt>
      <trkpt lat="45.25354" lon="6.49731">
        <ele>2173.6000976562</ele>
        <time>2021-01-24T11:40:45.000Z</time>
      </trkpt>
      <trkpt lat="45.25354" lon="6.49734">
        <ele>2174.3999023438</ele>
        <time>2021-01-24T11:40:50.000Z</time>
      </trkpt>
      <trkpt lat="45.25355" lon="6.49735">
        <ele>2174.8000488281</ele>
        <time>2021-01-24T11:40:52.000Z</time>
      </trkpt>
      <trkpt lat="45.25355" lon="6.49738">
        <ele>2176</ele>
        <time>2021-01-24T11:40:57.000Z</time>
      </trkpt>
      <trkpt lat="45.25355" lon="6.49738">
        <ele>2176</ele>
        <time>2021-01-24T11:40:58.000Z</time>
      </trkpt>
      <trkpt lat="45.25355" lon="6.49742">
        <ele>2177</ele>
        <time>2021-01-24T11:41:03.000Z</time>
      </trkpt>
      <trkpt lat="45.25357" lon="6.49745">
        <ele>2178.1999511719</ele>
        <time>2021-01-24T11:41:08.000Z</time>
      </trkpt>
      <trkpt lat="45.25357" lon="6.49746">
        <ele>2178.3999023438</ele>
        <time>2021-01-24T11:41:09.000Z</time>
      </trkpt>
      <trkpt lat="45.25358" lon="6.49747">
        <ele>2179.1999511719</ele>
        <time>2021-01-24T11:41:12.000Z</time>
      </trkpt>
      <trkpt lat="45.25359" lon="6.49748">
        <ele>2179.8000488281</ele>
        <time>2021-01-24T11:41:16.000Z</time>
      </trkpt>
      <trkpt lat="45.25362" lon="6.49748">
        <ele>2180.3999023438</ele>
        <time>2021-01-24T11:41:23.000Z</time>
      </trkpt>
      <trkpt lat="45.25364" lon="6.49748">
        <ele>2181.3999023438</ele>
        <time>2021-01-24T11:41:27.000Z</time>
      </trkpt>
      <trkpt lat="45.25365" lon="6.49749">
        <ele>2181.6000976562</ele>
        <time>2021-01-24T11:41:28.000Z</time>
      </trkpt>
      <trkpt lat="45.25368" lon="6.4975">
        <ele>2182.8000488281</ele>
        <time>2021-01-24T11:41:34.000Z</time>
      </trkpt>
      <trkpt lat="45.2537" lon="6.4975">
        <ele>2183</ele>
        <time>2021-01-24T11:41:36.000Z</time>
      </trkpt>
      <trkpt lat="45.25372" lon="6.49751">
        <ele>2183.8000488281</ele>
        <time>2021-01-24T11:41:41.000Z</time>
      </trkpt>
      <trkpt lat="45.25375" lon="6.49751">
        <ele>2184.6000976562</ele>
        <time>2021-01-24T11:41:45.000Z</time>
      </trkpt>
      <trkpt lat="45.25376" lon="6.49752">
        <ele>2185</ele>
        <time>2021-01-24T11:41:47.000Z</time>
      </trkpt>
      <trkpt lat="45.2538" lon="6.49752">
        <ele>2186</ele>
        <time>2021-01-24T11:41:53.000Z</time>
      </trkpt>
      <trkpt lat="45.25381" lon="6.49752">
        <ele>2186.3999023438</ele>
        <time>2021-01-24T11:41:55.000Z</time>
      </trkpt>
      <trkpt lat="45.25383" lon="6.49752">
        <ele>2187</ele>
        <time>2021-01-24T11:41:58.000Z</time>
      </trkpt>
      <trkpt lat="45.25385" lon="6.49752">
        <ele>2188</ele>
        <time>2021-01-24T11:42:03.000Z</time>
      </trkpt>
      <trkpt lat="45.25387" lon="6.49753">
        <ele>2189.1999511719</ele>
        <time>2021-01-24T11:42:07.000Z</time>
      </trkpt>
      <trkpt lat="45.25388" lon="6.49752">
        <ele>2189.8000488281</ele>
        <time>2021-01-24T11:42:11.000Z</time>
      </trkpt>
      <trkpt lat="45.25388" lon="6.49752">
        <ele>2190.1999511719</ele>
        <time>2021-01-24T11:42:14.000Z</time>
      </trkpt>
      <trkpt lat="45.25388" lon="6.49752">
        <ele>2191.1999511719</ele>
        <time>2021-01-24T11:42:19.000Z</time>
      </trkpt>
      <trkpt lat="45.25388" lon="6.49752">
        <ele>2191.3999023438</ele>
        <time>2021-01-24T11:42:20.000Z</time>
      </trkpt>
      <trkpt lat="45.25388" lon="6.49752">
        <ele>2192.8000488281</ele>
        <time>2021-01-24T11:42:23.000Z</time>
      </trkpt>
      <trkpt lat="45.25388" lon="6.49752">
        <ele>2193.6000976562</ele>
        <time>2021-01-24T11:42:25.000Z</time>
      </trkpt>
      <trkpt lat="45.25388" lon="6.49752">
        <ele>2194</ele>
        <time>2021-01-24T11:42:26.000Z</time>
      </trkpt>
      <trkpt lat="45.25388" lon="6.49752">
        <ele>2195.1999511719</ele>
        <time>2021-01-24T11:42:29.000Z</time>
      </trkpt>
      <trkpt lat="45.25388" lon="6.49752">
        <ele>2196.3999023438</ele>
        <time>2021-01-24T11:42:34.000Z</time>
      </trkpt>
      <trkpt lat="45.25393" lon="6.49764">
        <ele>2196.8000488281</ele>
        <time>2021-01-24T11:42:40.000Z</time>
      </trkpt>
      <trkpt lat="45.25393" lon="6.49767">
        <ele>2197.3999023438</ele>
        <time>2021-01-24T11:42:43.000Z</time>
      </trkpt>
      <trkpt lat="45.25395" lon="6.49771">
        <ele>2198.3999023438</ele>
        <time>2021-01-24T11:42:47.000Z</time>
      </trkpt>
      <trkpt lat="45.25395" lon="6.49772">
        <ele>2198.6000976562</ele>
        <time>2021-01-24T11:42:48.000Z</time>
      </trkpt>
      <trkpt lat="45.25399" lon="6.49775">
        <ele>2199.3999023438</ele>
        <time>2021-01-24T11:42:55.000Z</time>
      </trkpt>
      <trkpt lat="45.25399" lon="6.49775">
        <ele>2199.6000976562</ele>
        <time>2021-01-24T11:42:56.000Z</time>
      </trkpt>
      <trkpt lat="45.25403" lon="6.49777">
        <ele>2200.8000488281</ele>
        <time>2021-01-24T11:43:03.000Z</time>
      </trkpt>
      <trkpt lat="45.25406" lon="6.4978">
        <ele>2201.8000488281</ele>
        <time>2021-01-24T11:43:08.000Z</time>
      </trkpt>
      <trkpt lat="45.25408" lon="6.49782">
        <ele>2202.6000976562</ele>
        <time>2021-01-24T11:43:11.000Z</time>
      </trkpt>
      <trkpt lat="45.25409" lon="6.49782">
        <ele>2203</ele>
        <time>2021-01-24T11:43:13.000Z</time>
      </trkpt>
      <trkpt lat="45.25412" lon="6.49785">
        <ele>2204</ele>
        <time>2021-01-24T11:43:19.000Z</time>
      </trkpt>
      <trkpt lat="45.25414" lon="6.49787">
        <ele>2205.3999023438</ele>
        <time>2021-01-24T11:43:24.000Z</time>
      </trkpt>
      <trkpt lat="45.25416" lon="6.49789">
        <ele>2206.1999511719</ele>
        <time>2021-01-24T11:43:27.000Z</time>
      </trkpt>
      <trkpt lat="45.25416" lon="6.49789">
        <ele>2206.3999023438</ele>
        <time>2021-01-24T11:43:28.000Z</time>
      </trkpt>
      <trkpt lat="45.25416" lon="6.49789">
        <ele>2207.6000976562</ele>
        <time>2021-01-24T11:43:32.000Z</time>
      </trkpt>
      <trkpt lat="45.25416" lon="6.49789">
        <ele>2207.6000976562</ele>
        <time>2021-01-24T11:43:37.000Z</time>
      </trkpt>
      <trkpt lat="45.25416" lon="6.49789">
        <ele>2208.1999511719</ele>
        <time>2021-01-24T11:43:51.000Z</time>
      </trkpt>
      <trkpt lat="45.25416" lon="6.49789">
        <ele>2208.6000976562</ele>
        <time>2021-01-24T11:44:03.000Z</time>
      </trkpt>
      <trkpt lat="45.25416" lon="6.49789">
        <ele>2208.8000488281</ele>
        <time>2021-01-24T11:44:04.000Z</time>
      </trkpt>
      <trkpt lat="45.25419" lon="6.49793">
        <ele>2208.3999023438</ele>
        <time>2021-01-24T11:44:12.000Z</time>
      </trkpt>
      <trkpt lat="45.25423" lon="6.49798">
        <ele>2209.8000488281</ele>
        <time>2021-01-24T11:44:19.000Z</time>
      </trkpt>
      <trkpt lat="45.25429" lon="6.49802">
        <ele>2210.3999023438</ele>
        <time>2021-01-24T11:44:26.000Z</time>
      </trkpt>
      <trkpt lat="45.2543" lon="6.49804">
        <ele>2211.3999023438</ele>
        <time>2021-01-24T11:44:29.000Z</time>
      </trkpt>
      <trkpt lat="45.25433" lon="6.49807">
        <ele>2212.3999023438</ele>
        <time>2021-01-24T11:44:33.000Z</time>
      </trkpt>
      <trkpt lat="45.25438" lon="6.49813">
        <ele>2213</ele>
        <time>2021-01-24T11:44:40.000Z</time>
      </trkpt>
      <trkpt lat="45.2544" lon="6.49816">
        <ele>2213.3999023438</ele>
        <time>2021-01-24T11:44:43.000Z</time>
      </trkpt>
      <trkpt lat="45.25442" lon="6.49818">
        <ele>2214.3999023438</ele>
        <time>2021-01-24T11:44:47.000Z</time>
      </trkpt>
      <trkpt lat="45.25445" lon="6.49822">
        <ele>2215.6000976562</ele>
        <time>2021-01-24T11:44:53.000Z</time>
      </trkpt>
      <trkpt lat="45.25445" lon="6.49822">
        <ele>2215.8000488281</ele>
        <time>2021-01-24T11:44:54.000Z</time>
      </trkpt>
      <trkpt lat="45.25447" lon="6.49825">
        <ele>2216.6000976562</ele>
        <time>2021-01-24T11:44:58.000Z</time>
      </trkpt>
      <trkpt lat="45.25447" lon="6.49826">
        <ele>2217</ele>
        <time>2021-01-24T11:45:00.000Z</time>
      </trkpt>
      <trkpt lat="45.25448" lon="6.49828">
        <ele>2217.8000488281</ele>
        <time>2021-01-24T11:45:06.000Z</time>
      </trkpt>
      <trkpt lat="45.25449" lon="6.49828">
        <ele>2218</ele>
        <time>2021-01-24T11:45:07.000Z</time>
      </trkpt>
      <trkpt lat="45.25452" lon="6.49832">
        <ele>2219</ele>
        <time>2021-01-24T11:45:12.000Z</time>
      </trkpt>
      <trkpt lat="45.25452" lon="6.49833">
        <ele>2219.1999511719</ele>
        <time>2021-01-24T11:45:14.000Z</time>
      </trkpt>
      <trkpt lat="45.25454" lon="6.49836">
        <ele>2220</ele>
        <time>2021-01-24T11:45:17.000Z</time>
      </trkpt>
      <trkpt lat="45.25457" lon="6.4984">
        <ele>2221</ele>
        <time>2021-01-24T11:45:22.000Z</time>
      </trkpt>
      <trkpt lat="45.25461" lon="6.49843">
        <ele>2222.1999511719</ele>
        <time>2021-01-24T11:45:28.000Z</time>
      </trkpt>
      <trkpt lat="45.25462" lon="6.49845">
        <ele>2222.6000976562</ele>
        <time>2021-01-24T11:45:30.000Z</time>
      </trkpt>
      <trkpt lat="45.25464" lon="6.49846">
        <ele>2223.3999023438</ele>
        <time>2021-01-24T11:45:33.000Z</time>
      </trkpt>
      <trkpt lat="45.25466" lon="6.49847">
        <ele>2224.1999511719</ele>
        <time>2021-01-24T11:45:38.000Z</time>
      </trkpt>
      <trkpt lat="45.25466" lon="6.49847">
        <ele>2224.3999023438</ele>
        <time>2021-01-24T11:45:40.000Z</time>
      </trkpt>
      <trkpt lat="45.25469" lon="6.4985">
        <ele>2225.1999511719</ele>
        <time>2021-01-24T11:45:45.000Z</time>
      </trkpt>
      <trkpt lat="45.2547" lon="6.49851">
        <ele>2225.3999023438</ele>
        <time>2021-01-24T11:45:47.000Z</time>
      </trkpt>
      <trkpt lat="45.25473" lon="6.49852">
        <ele>2226</ele>
        <time>2021-01-24T11:45:52.000Z</time>
      </trkpt>
      <trkpt lat="45.25474" lon="6.4985">
        <ele>2226.6000976562</ele>
        <time>2021-01-24T11:45:55.000Z</time>
      </trkpt>
      <trkpt lat="45.25476" lon="6.49848">
        <ele>2228</ele>
        <time>2021-01-24T11:45:58.000Z</time>
      </trkpt>
      <trkpt lat="45.25476" lon="6.49848">
        <ele>2228.6000976562</ele>
        <time>2021-01-24T11:45:59.000Z</time>
      </trkpt>
      <trkpt lat="45.25477" lon="6.49846">
        <ele>2229.3999023438</ele>
        <time>2021-01-24T11:46:01.000Z</time>
      </trkpt>
      <trkpt lat="45.25478" lon="6.49844">
        <ele>2230.6000976562</ele>
        <time>2021-01-24T11:46:05.000Z</time>
      </trkpt>
      <trkpt lat="45.25478" lon="6.49844">
        <ele>2230.8000488281</ele>
        <time>2021-01-24T11:46:06.000Z</time>
      </trkpt>
      <trkpt lat="45.25483" lon="6.4984">
        <ele>2231.1999511719</ele>
        <time>2021-01-24T11:46:14.000Z</time>
      </trkpt>
      <trkpt lat="45.25484" lon="6.49839">
        <ele>2231.6000976562</ele>
        <time>2021-01-24T11:46:16.000Z</time>
      </trkpt>
      <trkpt lat="45.25486" lon="6.49839">
        <ele>2233</ele>
        <time>2021-01-24T11:46:20.000Z</time>
      </trkpt>
      <trkpt lat="45.25487" lon="6.49839">
        <ele>2233.1999511719</ele>
        <time>2021-01-24T11:46:21.000Z</time>
      </trkpt>
      <trkpt lat="45.25488" lon="6.49838">
        <ele>2234</ele>
        <time>2021-01-24T11:46:24.000Z</time>
      </trkpt>
      <trkpt lat="45.25492" lon="6.49837">
        <ele>2235</ele>
        <time>2021-01-24T11:46:29.000Z</time>
      </trkpt>
      <trkpt lat="45.25493" lon="6.49837">
        <ele>2235.1999511719</ele>
        <time>2021-01-24T11:46:30.000Z</time>
      </trkpt>
      <trkpt lat="45.25496" lon="6.49838">
        <ele>2236.1999511719</ele>
        <time>2021-01-24T11:46:35.000Z</time>
      </trkpt>
      <trkpt lat="45.25498" lon="6.49837">
        <ele>2236.8000488281</ele>
        <time>2021-01-24T11:46:39.000Z</time>
      </trkpt>
      <trkpt lat="45.25499" lon="6.49837">
        <ele>2237.1999511719</ele>
        <time>2021-01-24T11:46:41.000Z</time>
      </trkpt>
      <trkpt lat="45.25501" lon="6.49837">
        <ele>2238.1999511719</ele>
        <time>2021-01-24T11:46:45.000Z</time>
      </trkpt>
      <trkpt lat="45.25503" lon="6.49837">
        <ele>2239</ele>
        <time>2021-01-24T11:46:48.000Z</time>
      </trkpt>
      <trkpt lat="45.25504" lon="6.49837">
        <ele>2239.3999023438</ele>
        <time>2021-01-24T11:46:50.000Z</time>
      </trkpt>
      <trkpt lat="45.25507" lon="6.49838">
        <ele>2240.3999023438</ele>
        <time>2021-01-24T11:46:55.000Z</time>
      </trkpt>
      <trkpt lat="45.25508" lon="6.49838">
        <ele>2240.6000976562</ele>
        <time>2021-01-24T11:46:56.000Z</time>
      </trkpt>
      <trkpt lat="45.25511" lon="6.49839">
        <ele>2241.6000976562</ele>
        <time>2021-01-24T11:47:01.000Z</time>
      </trkpt>
      <trkpt lat="45.25514" lon="6.4984">
        <ele>2242.1999511719</ele>
        <time>2021-01-24T11:47:05.000Z</time>
      </trkpt>
      <trkpt lat="45.25517" lon="6.49841">
        <ele>2242.8000488281</ele>
        <time>2021-01-24T11:47:09.000Z</time>
      </trkpt>
      <trkpt lat="45.25519" lon="6.49843">
        <ele>2243.8000488281</ele>
        <time>2021-01-24T11:47:14.000Z</time>
      </trkpt>
      <trkpt lat="45.2552" lon="6.49843">
        <ele>2244.6000976562</ele>
        <time>2021-01-24T11:47:16.000Z</time>
      </trkpt>
      <trkpt lat="45.25521" lon="6.49844">
        <ele>2245.1999511719</ele>
        <time>2021-01-24T11:47:17.000Z</time>
      </trkpt>
      <trkpt lat="45.25522" lon="6.49846">
        <ele>2246.1999511719</ele>
        <time>2021-01-24T11:47:20.000Z</time>
      </trkpt>
      <trkpt lat="45.25523" lon="6.49847">
        <ele>2247</ele>
        <time>2021-01-24T11:47:22.000Z</time>
      </trkpt>
      <trkpt lat="45.25523" lon="6.49848">
        <ele>2247.3999023438</ele>
        <time>2021-01-24T11:47:24.000Z</time>
      </trkpt>
      <trkpt lat="45.25526" lon="6.49851">
        <ele>2248.6000976562</ele>
        <time>2021-01-24T11:47:30.000Z</time>
      </trkpt>
      <trkpt lat="45.25528" lon="6.49854">
        <ele>2250</ele>
        <time>2021-01-24T11:47:34.000Z</time>
      </trkpt>
      <trkpt lat="45.25529" lon="6.49856">
        <ele>2250.6000976562</ele>
        <time>2021-01-24T11:47:38.000Z</time>
      </trkpt>
      <trkpt lat="45.25532" lon="6.49859">
        <ele>2251</ele>
        <time>2021-01-24T11:47:43.000Z</time>
      </trkpt>
      <trkpt lat="45.25533" lon="6.49861">
        <ele>2251.8000488281</ele>
        <time>2021-01-24T11:47:46.000Z</time>
      </trkpt>
      <trkpt lat="45.25534" lon="6.49861">
        <ele>2252</ele>
        <time>2021-01-24T11:47:47.000Z</time>
      </trkpt>
      <trkpt lat="45.25535" lon="6.49862">
        <ele>2253.3999023438</ele>
        <time>2021-01-24T11:47:50.000Z</time>
      </trkpt>
      <trkpt lat="45.25536" lon="6.49864">
        <ele>2254.8000488281</ele>
        <time>2021-01-24T11:47:53.000Z</time>
      </trkpt>
      <trkpt lat="45.25536" lon="6.49865">
        <ele>2255</ele>
        <time>2021-01-24T11:47:54.000Z</time>
      </trkpt>
      <trkpt lat="45.25538" lon="6.49871">
        <ele>2255</ele>
        <time>2021-01-24T11:48:01.000Z</time>
      </trkpt>
      <trkpt lat="45.25537" lon="6.49874">
        <ele>2255.8000488281</ele>
        <time>2021-01-24T11:48:05.000Z</time>
      </trkpt>
      <trkpt lat="45.25536" lon="6.49877">
        <ele>2256.1999511719</ele>
        <time>2021-01-24T11:48:07.000Z</time>
      </trkpt>
      <trkpt lat="45.25535" lon="6.49881">
        <ele>2257</ele>
        <time>2021-01-24T11:48:13.000Z</time>
      </trkpt>
      <trkpt lat="45.25535" lon="6.49882">
        <ele>2257.1999511719</ele>
        <time>2021-01-24T11:48:14.000Z</time>
      </trkpt>
      <trkpt lat="45.25535" lon="6.49887">
        <ele>2258.1999511719</ele>
        <time>2021-01-24T11:48:21.000Z</time>
      </trkpt>
      <trkpt lat="45.25536" lon="6.49891">
        <ele>2259</ele>
        <time>2021-01-24T11:48:27.000Z</time>
      </trkpt>
      <trkpt lat="45.25536" lon="6.49892">
        <ele>2259.3999023438</ele>
        <time>2021-01-24T11:48:28.000Z</time>
      </trkpt>
      <trkpt lat="45.25537" lon="6.49895">
        <ele>2260.6000976562</ele>
        <time>2021-01-24T11:48:31.000Z</time>
      </trkpt>
      <trkpt lat="45.25537" lon="6.49898">
        <ele>2261.3999023438</ele>
        <time>2021-01-24T11:48:35.000Z</time>
      </trkpt>
      <trkpt lat="45.25536" lon="6.49903">
        <ele>2261.6000976562</ele>
        <time>2021-01-24T11:48:39.000Z</time>
      </trkpt>
      <trkpt lat="45.25536" lon="6.49906">
        <ele>2262.3999023438</ele>
        <time>2021-01-24T11:48:43.000Z</time>
      </trkpt>
      <trkpt lat="45.25536" lon="6.49908">
        <ele>2262.8000488281</ele>
        <time>2021-01-24T11:48:45.000Z</time>
      </trkpt>
      <trkpt lat="45.25536" lon="6.49911">
        <ele>2263.6000976562</ele>
        <time>2021-01-24T11:48:49.000Z</time>
      </trkpt>
      <trkpt lat="45.25536" lon="6.49914">
        <ele>2264</ele>
        <time>2021-01-24T11:48:52.000Z</time>
      </trkpt>
      <trkpt lat="45.25536" lon="6.49916">
        <ele>2264.8000488281</ele>
        <time>2021-01-24T11:48:55.000Z</time>
      </trkpt>
      <trkpt lat="45.25535" lon="6.49918">
        <ele>2265</ele>
        <time>2021-01-24T11:48:57.000Z</time>
      </trkpt>
      <trkpt lat="45.25535" lon="6.49922">
        <ele>2265.3999023438</ele>
        <time>2021-01-24T11:49:02.000Z</time>
      </trkpt>
      <trkpt lat="45.25535" lon="6.49926">
        <ele>2266</ele>
        <time>2021-01-24T11:49:07.000Z</time>
      </trkpt>
      <trkpt lat="45.25535" lon="6.49928">
        <ele>2266.6000976562</ele>
        <time>2021-01-24T11:49:09.000Z</time>
      </trkpt>
      <trkpt lat="45.25535" lon="6.49934">
        <ele>2267.1999511719</ele>
        <time>2021-01-24T11:49:14.000Z</time>
      </trkpt>
      <trkpt lat="45.25535" lon="6.49936">
        <ele>2267.8000488281</ele>
        <time>2021-01-24T11:49:17.000Z</time>
      </trkpt>
      <trkpt lat="45.25535" lon="6.49938">
        <ele>2268.1999511719</ele>
        <time>2021-01-24T11:49:19.000Z</time>
      </trkpt>
      <trkpt lat="45.25535" lon="6.49943">
        <ele>2269.1999511719</ele>
        <time>2021-01-24T11:49:24.000Z</time>
      </trkpt>
      <trkpt lat="45.25535" lon="6.49944">
        <ele>2269.3999023438</ele>
        <time>2021-01-24T11:49:25.000Z</time>
      </trkpt>
      <trkpt lat="45.25535" lon="6.4995">
        <ele>2270.3999023438</ele>
        <time>2021-01-24T11:49:31.000Z</time>
      </trkpt>
      <trkpt lat="45.25535" lon="6.49951">
        <ele>2270.6000976562</ele>
        <time>2021-01-24T11:49:32.000Z</time>
      </trkpt>
      <trkpt lat="45.25535" lon="6.49957">
        <ele>2271.6000976562</ele>
        <time>2021-01-24T11:49:38.000Z</time>
      </trkpt>
      <trkpt lat="45.25536" lon="6.49959">
        <ele>2271.6000976562</ele>
        <time>2021-01-24T11:49:40.000Z</time>
      </trkpt>
      <trkpt lat="45.25538" lon="6.49964">
        <ele>2271.8000488281</ele>
        <time>2021-01-24T11:49:45.000Z</time>
      </trkpt>
      <trkpt lat="45.2554" lon="6.49973">
        <ele>2272</ele>
        <time>2021-01-24T11:49:53.000Z</time>
      </trkpt>
      <trkpt lat="45.25541" lon="6.49979">
        <ele>2271.6000976562</ele>
        <time>2021-01-24T11:50:00.000Z</time>
      </trkpt>
      <trkpt lat="45.25543" lon="6.49987">
        <ele>2271.8000488281</ele>
        <time>2021-01-24T11:50:07.000Z</time>
      </trkpt>
      <trkpt lat="45.25544" lon="6.49992">
        <ele>2272.8000488281</ele>
        <time>2021-01-24T11:50:12.000Z</time>
      </trkpt>
      <trkpt lat="45.25544" lon="6.49993">
        <ele>2272.8000488281</ele>
        <time>2021-01-24T11:50:13.000Z</time>
      </trkpt>
      <trkpt lat="45.25546" lon="6.50001">
        <ele>2273.3999023438</ele>
        <time>2021-01-24T11:50:20.000Z</time>
      </trkpt>
      <trkpt lat="45.25548" lon="6.5001">
        <ele>2273.8000488281</ele>
        <time>2021-01-24T11:50:27.000Z</time>
      </trkpt>
      <trkpt lat="45.25549" lon="6.5001">
        <ele>2274</ele>
        <time>2021-01-24T11:50:28.000Z</time>
      </trkpt>
      <trkpt lat="45.25551" lon="6.50017">
        <ele>2274</ele>
        <time>2021-01-24T11:50:35.000Z</time>
      </trkpt>
      <trkpt lat="45.25554" lon="6.50024">
        <ele>2274.6000976562</ele>
        <time>2021-01-24T11:50:42.000Z</time>
      </trkpt>
      <trkpt lat="45.25555" lon="6.50028">
        <ele>2275</ele>
        <time>2021-01-24T11:50:46.000Z</time>
      </trkpt>
      <trkpt lat="45.25556" lon="6.5003">
        <ele>2275.3999023438</ele>
        <time>2021-01-24T11:50:49.000Z</time>
      </trkpt>
      <trkpt lat="45.25557" lon="6.50034">
        <ele>2276.1999511719</ele>
        <time>2021-01-24T11:50:54.000Z</time>
      </trkpt>
      <trkpt lat="45.25558" lon="6.50036">
        <ele>2276.1999511719</ele>
        <time>2021-01-24T11:50:56.000Z</time>
      </trkpt>
      <trkpt lat="45.2556" lon="6.50041">
        <ele>2277</ele>
        <time>2021-01-24T11:51:02.000Z</time>
      </trkpt>
      <trkpt lat="45.25561" lon="6.50042">
        <ele>2277.1999511719</ele>
        <time>2021-01-24T11:51:03.000Z</time>
      </trkpt>
      <trkpt lat="45.25563" lon="6.50047">
        <ele>2278.1999511719</ele>
        <time>2021-01-24T11:51:09.000Z</time>
      </trkpt>
      <trkpt lat="45.25563" lon="6.50048">
        <ele>2278.3999023438</ele>
        <time>2021-01-24T11:51:10.000Z</time>
      </trkpt>
      <trkpt lat="45.25565" lon="6.50053">
        <ele>2279.6000976562</ele>
        <time>2021-01-24T11:51:15.000Z</time>
      </trkpt>
      <trkpt lat="45.25565" lon="6.50054">
        <ele>2279.8000488281</ele>
        <time>2021-01-24T11:51:16.000Z</time>
      </trkpt>
      <trkpt lat="45.25567" lon="6.5006">
        <ele>2280.3999023438</ele>
        <time>2021-01-24T11:51:22.000Z</time>
      </trkpt>
      <trkpt lat="45.25567" lon="6.50062">
        <ele>2280.8000488281</ele>
        <time>2021-01-24T11:51:25.000Z</time>
      </trkpt>
      <trkpt lat="45.25567" lon="6.50063">
        <ele>2281.8000488281</ele>
        <time>2021-01-24T11:51:28.000Z</time>
      </trkpt>
      <trkpt lat="45.25567" lon="6.50065">
        <ele>2282.3999023438</ele>
        <time>2021-01-24T11:51:30.000Z</time>
      </trkpt>
      <trkpt lat="45.25567" lon="6.50067">
        <ele>2283</ele>
        <time>2021-01-24T11:51:32.000Z</time>
      </trkpt>
      <trkpt lat="45.25568" lon="6.5007">
        <ele>2283.1999511719</ele>
        <time>2021-01-24T11:51:36.000Z</time>
      </trkpt>
      <trkpt lat="45.25568" lon="6.50075">
        <ele>2283.6000976562</ele>
        <time>2021-01-24T11:51:43.000Z</time>
      </trkpt>
      <trkpt lat="45.25568" lon="6.50077">
        <ele>2284</ele>
        <time>2021-01-24T11:51:45.000Z</time>
      </trkpt>
      <trkpt lat="45.2557" lon="6.50083">
        <ele>2284.8000488281</ele>
        <time>2021-01-24T11:51:50.000Z</time>
      </trkpt>
      <trkpt lat="45.2557" lon="6.50085">
        <ele>2285</ele>
        <time>2021-01-24T11:51:53.000Z</time>
      </trkpt>
      <trkpt lat="45.2557" lon="6.50087">
        <ele>2285.3999023438</ele>
        <time>2021-01-24T11:51:55.000Z</time>
      </trkpt>
      <trkpt lat="45.25571" lon="6.50089">
        <ele>2286.1999511719</ele>
        <time>2021-01-24T11:51:58.000Z</time>
      </trkpt>
      <trkpt lat="45.2557" lon="6.50089">
        <ele>2287.1999511719</ele>
        <time>2021-01-24T11:52:01.000Z</time>
      </trkpt>
      <trkpt lat="45.2557" lon="6.50089">
        <ele>2287.3999023438</ele>
        <time>2021-01-24T11:52:03.000Z</time>
      </trkpt>
      <trkpt lat="45.2557" lon="6.50089">
        <ele>2288</ele>
        <time>2021-01-24T11:52:11.000Z</time>
      </trkpt>
      <trkpt lat="45.2557" lon="6.50089">
        <ele>2288</ele>
        <time>2021-01-24T11:52:24.000Z</time>
      </trkpt>
      <trkpt lat="45.2557" lon="6.50089">
        <ele>2288.1999511719</ele>
        <time>2021-01-24T11:52:25.000Z</time>
      </trkpt>
      <trkpt lat="45.2557" lon="6.50089">
        <ele>2288.3999023438</ele>
        <time>2021-01-24T11:52:42.000Z</time>
      </trkpt>
      <trkpt lat="45.2557" lon="6.50089">
        <ele>2287.8000488281</ele>
        <time>2021-01-24T11:52:54.000Z</time>
      </trkpt>
      <trkpt lat="45.2557" lon="6.50089">
        <ele>2288</ele>
        <time>2021-01-24T11:53:07.000Z</time>
      </trkpt>
      <trkpt lat="45.25571" lon="6.50089">
        <ele>2288.6000976562</ele>
        <time>2021-01-24T11:53:24.000Z</time>
      </trkpt>
      <trkpt lat="45.25571" lon="6.50089">
        <ele>2289.1999511719</ele>
        <time>2021-01-24T11:53:28.000Z</time>
      </trkpt>
      <trkpt lat="45.25571" lon="6.50089">
        <ele>2288.1999511719</ele>
        <time>2021-01-24T11:53:38.000Z</time>
      </trkpt>
      <trkpt lat="45.25571" lon="6.50089">
        <ele>2288.1999511719</ele>
        <time>2021-01-24T11:53:40.000Z</time>
      </trkpt>
      <trkpt lat="45.25571" lon="6.50089">
        <ele>2288</ele>
        <time>2021-01-24T11:53:54.000Z</time>
      </trkpt>
      <trkpt lat="45.25571" lon="6.50089">
        <ele>2288</ele>
        <time>2021-01-24T11:54:09.000Z</time>
      </trkpt>
      <trkpt lat="45.25571" lon="6.50089">
        <ele>2287.8000488281</ele>
        <time>2021-01-24T11:54:21.000Z</time>
      </trkpt>
      <trkpt lat="45.25571" lon="6.5009">
        <ele>2288.1999511719</ele>
        <time>2021-01-24T11:54:39.000Z</time>
      </trkpt>
      <trkpt lat="45.25571" lon="6.5009">
        <ele>2288.3999023438</ele>
        <time>2021-01-24T11:54:54.000Z</time>
      </trkpt>
      <trkpt lat="45.25571" lon="6.5009">
        <ele>2288.1999511719</ele>
        <time>2021-01-24T11:55:09.000Z</time>
      </trkpt>
      <trkpt lat="45.2557" lon="6.5009">
        <ele>2288.1999511719</ele>
        <time>2021-01-24T11:55:24.000Z</time>
      </trkpt>
      <trkpt lat="45.2557" lon="6.5009">
        <ele>2288.1999511719</ele>
        <time>2021-01-24T11:55:35.000Z</time>
      </trkpt>
      <trkpt lat="45.2557" lon="6.5009">
        <ele>2288.3999023438</ele>
        <time>2021-01-24T11:55:53.000Z</time>
      </trkpt>
      <trkpt lat="45.2557" lon="6.50091">
        <ele>2288</ele>
        <time>2021-01-24T11:56:05.000Z</time>
      </trkpt>
      <trkpt lat="45.2557" lon="6.50091">
        <ele>2288.3999023438</ele>
        <time>2021-01-24T11:56:22.000Z</time>
      </trkpt>
      <trkpt lat="45.2557" lon="6.50091">
        <ele>2289</ele>
        <time>2021-01-24T11:56:35.000Z</time>
      </trkpt>
      <trkpt lat="45.25571" lon="6.50091">
        <ele>2288.1999511719</ele>
        <time>2021-01-24T11:56:48.000Z</time>
      </trkpt>
      <trkpt lat="45.25571" lon="6.50091">
        <ele>2288.3999023438</ele>
        <time>2021-01-24T11:57:05.000Z</time>
      </trkpt>
      <trkpt lat="45.25571" lon="6.50091">
        <ele>2287.8000488281</ele>
        <time>2021-01-24T11:57:20.000Z</time>
      </trkpt>
      <trkpt lat="45.25571" lon="6.50091">
        <ele>2287.8000488281</ele>
        <time>2021-01-24T11:57:40.000Z</time>
      </trkpt>
      <trkpt lat="45.25571" lon="6.50091">
        <ele>2287.8000488281</ele>
        <time>2021-01-24T11:57:54.000Z</time>
      </trkpt>
      <trkpt lat="45.25571" lon="6.50091">
        <ele>2287.8000488281</ele>
        <time>2021-01-24T11:58:11.000Z</time>
      </trkpt>
      <trkpt lat="45.25571" lon="6.50091">
        <ele>2287.8000488281</ele>
        <time>2021-01-24T11:58:23.000Z</time>
      </trkpt>
      <trkpt lat="45.25571" lon="6.50091">
        <ele>2287.6000976562</ele>
        <time>2021-01-24T11:58:38.000Z</time>
      </trkpt>
      <trkpt lat="45.25571" lon="6.50091">
        <ele>2287.8000488281</ele>
        <time>2021-01-24T11:58:57.000Z</time>
      </trkpt>
      <trkpt lat="45.25571" lon="6.50091">
        <ele>2288</ele>
        <time>2021-01-24T11:59:12.000Z</time>
      </trkpt>
      <trkpt lat="45.25571" lon="6.50091">
        <ele>2287.6000976562</ele>
        <time>2021-01-24T11:59:31.000Z</time>
      </trkpt>
      <trkpt lat="45.25571" lon="6.50091">
        <ele>2287.3999023438</ele>
        <time>2021-01-24T11:59:50.000Z</time>
      </trkpt>
      <trkpt lat="45.25571" lon="6.50091">
        <ele>2287.6000976562</ele>
        <time>2021-01-24T11:59:58.000Z</time>
      </trkpt>
      <trkpt lat="45.25571" lon="6.50091">
        <ele>2287.1999511719</ele>
        <time>2021-01-24T12:00:01.000Z</time>
      </trkpt>
      <trkpt lat="45.25571" lon="6.50091">
        <ele>2288.1999511719</ele>
        <time>2021-01-24T12:00:07.000Z</time>
      </trkpt>
      <trkpt lat="45.25571" lon="6.50091">
        <ele>2288.3999023438</ele>
        <time>2021-01-24T12:00:08.000Z</time>
      </trkpt>
      <trkpt lat="45.25571" lon="6.50091">
        <ele>2288</ele>
        <time>2021-01-24T12:00:21.000Z</time>
      </trkpt>
      <trkpt lat="45.25571" lon="6.50091">
        <ele>2288.1999511719</ele>
        <time>2021-01-24T12:00:34.000Z</time>
      </trkpt>
      <trkpt lat="45.25573" lon="6.50094">
        <ele>2289.1999511719</ele>
        <time>2021-01-24T12:00:42.000Z</time>
      </trkpt>
      <trkpt lat="45.25573" lon="6.50095">
        <ele>2289.3999023438</ele>
        <time>2021-01-24T12:00:43.000Z</time>
      </trkpt>
      <trkpt lat="45.25575" lon="6.50101">
        <ele>2289.6000976562</ele>
        <time>2021-01-24T12:00:50.000Z</time>
      </trkpt>
      <trkpt lat="45.25578" lon="6.50109">
        <ele>2290</ele>
        <time>2021-01-24T12:00:59.000Z</time>
      </trkpt>
      <trkpt lat="45.25579" lon="6.5011">
        <ele>2290.3999023438</ele>
        <time>2021-01-24T12:01:01.000Z</time>
      </trkpt>
      <trkpt lat="45.25582" lon="6.50114">
        <ele>2291.3999023438</ele>
        <time>2021-01-24T12:01:05.000Z</time>
      </trkpt>
      <trkpt lat="45.25582" lon="6.50114">
        <ele>2291.6000976562</ele>
        <time>2021-01-24T12:01:06.000Z</time>
      </trkpt>
      <trkpt lat="45.25587" lon="6.50121">
        <ele>2292.1999511719</ele>
        <time>2021-01-24T12:01:13.000Z</time>
      </trkpt>
      <trkpt lat="45.25588" lon="6.50122">
        <ele>2292.6000976562</ele>
        <time>2021-01-24T12:01:15.000Z</time>
      </trkpt>
      <trkpt lat="45.25589" lon="6.50124">
        <ele>2293.8000488281</ele>
        <time>2021-01-24T12:01:18.000Z</time>
      </trkpt>
      <trkpt lat="45.25589" lon="6.50126">
        <ele>2294</ele>
        <time>2021-01-24T12:01:20.000Z</time>
      </trkpt>
      <trkpt lat="45.25592" lon="6.50131">
        <ele>2294.1999511719</ele>
        <time>2021-01-24T12:01:27.000Z</time>
      </trkpt>
      <trkpt lat="45.25593" lon="6.50134">
        <ele>2294.8000488281</ele>
        <time>2021-01-24T12:01:30.000Z</time>
      </trkpt>
      <trkpt lat="45.25594" lon="6.50136">
        <ele>2295.1999511719</ele>
        <time>2021-01-24T12:01:33.000Z</time>
      </trkpt>
      <trkpt lat="45.25594" lon="6.50138">
        <ele>2295.8000488281</ele>
        <time>2021-01-24T12:01:35.000Z</time>
      </trkpt>
      <trkpt lat="45.25595" lon="6.50141">
        <ele>2296.3999023438</ele>
        <time>2021-01-24T12:01:39.000Z</time>
      </trkpt>
      <trkpt lat="45.25595" lon="6.50143">
        <ele>2296.8000488281</ele>
        <time>2021-01-24T12:01:41.000Z</time>
      </trkpt>
      <trkpt lat="45.25596" lon="6.50147">
        <ele>2298</ele>
        <time>2021-01-24T12:01:46.000Z</time>
      </trkpt>
      <trkpt lat="45.25597" lon="6.50153">
        <ele>2299</ele>
        <time>2021-01-24T12:01:53.000Z</time>
      </trkpt>
      <trkpt lat="45.256" lon="6.50159">
        <ele>2300</ele>
        <time>2021-01-24T12:02:00.000Z</time>
      </trkpt>
      <trkpt lat="45.256" lon="6.5016">
        <ele>2300.1999511719</ele>
        <time>2021-01-24T12:02:01.000Z</time>
      </trkpt>
      <trkpt lat="45.25602" lon="6.50163">
        <ele>2301.1999511719</ele>
        <time>2021-01-24T12:02:06.000Z</time>
      </trkpt>
      <trkpt lat="45.25602" lon="6.50165">
        <ele>2302</ele>
        <time>2021-01-24T12:02:09.000Z</time>
      </trkpt>
      <trkpt lat="45.25602" lon="6.50166">
        <ele>2302.1999511719</ele>
        <time>2021-01-24T12:02:10.000Z</time>
      </trkpt>
      <trkpt lat="45.25605" lon="6.50171">
        <ele>2303.3999023438</ele>
        <time>2021-01-24T12:02:17.000Z</time>
      </trkpt>
      <trkpt lat="45.25607" lon="6.50176">
        <ele>2304.3999023438</ele>
        <time>2021-01-24T12:02:23.000Z</time>
      </trkpt>
      <trkpt lat="45.25607" lon="6.50176">
        <ele>2304.6000976562</ele>
        <time>2021-01-24T12:02:24.000Z</time>
      </trkpt>
      <trkpt lat="45.25609" lon="6.50181">
        <ele>2305.6000976562</ele>
        <time>2021-01-24T12:02:31.000Z</time>
      </trkpt>
      <trkpt lat="45.2561" lon="6.50183">
        <ele>2306</ele>
        <time>2021-01-24T12:02:33.000Z</time>
      </trkpt>
      <trkpt lat="45.25611" lon="6.50186">
        <ele>2306.8000488281</ele>
        <time>2021-01-24T12:02:38.000Z</time>
      </trkpt>
      <trkpt lat="45.25611" lon="6.50189">
        <ele>2307.1999511719</ele>
        <time>2021-01-24T12:02:41.000Z</time>
      </trkpt>
      <trkpt lat="45.25612" lon="6.50192">
        <ele>2307.8000488281</ele>
        <time>2021-01-24T12:02:45.000Z</time>
      </trkpt>
      <trkpt lat="45.25614" lon="6.50197">
        <ele>2308.8000488281</ele>
        <time>2021-01-24T12:02:50.000Z</time>
      </trkpt>
      <trkpt lat="45.25614" lon="6.50198">
        <ele>2309</ele>
        <time>2021-01-24T12:02:51.000Z</time>
      </trkpt>
      <trkpt lat="45.25615" lon="6.50201">
        <ele>2310</ele>
        <time>2021-01-24T12:02:56.000Z</time>
      </trkpt>
      <trkpt lat="45.25616" lon="6.50202">
        <ele>2310.1999511719</ele>
        <time>2021-01-24T12:02:57.000Z</time>
      </trkpt>
      <trkpt lat="45.25617" lon="6.50206">
        <ele>2311</ele>
        <time>2021-01-24T12:03:02.000Z</time>
      </trkpt>
      <trkpt lat="45.25618" lon="6.50208">
        <ele>2312.1999511719</ele>
        <time>2021-01-24T12:03:06.000Z</time>
      </trkpt>
      <trkpt lat="45.25621" lon="6.50214">
        <ele>2313.3999023438</ele>
        <time>2021-01-24T12:03:13.000Z</time>
      </trkpt>
      <trkpt lat="45.25622" lon="6.50215">
        <ele>2313.8000488281</ele>
        <time>2021-01-24T12:03:15.000Z</time>
      </trkpt>
      <trkpt lat="45.25624" lon="6.50218">
        <ele>2314.6000976562</ele>
        <time>2021-01-24T12:03:19.000Z</time>
      </trkpt>
      <trkpt lat="45.25624" lon="6.50219">
        <ele>2315</ele>
        <time>2021-01-24T12:03:21.000Z</time>
      </trkpt>
      <trkpt lat="45.25626" lon="6.50222">
        <ele>2315.6000976562</ele>
        <time>2021-01-24T12:03:26.000Z</time>
      </trkpt>
      <trkpt lat="45.25626" lon="6.50223">
        <ele>2316</ele>
        <time>2021-01-24T12:03:28.000Z</time>
      </trkpt>
      <trkpt lat="45.25627" lon="6.50226">
        <ele>2316.8000488281</ele>
        <time>2021-01-24T12:03:32.000Z</time>
      </trkpt>
      <trkpt lat="45.25629" lon="6.50229">
        <ele>2317.6000976562</ele>
        <time>2021-01-24T12:03:37.000Z</time>
      </trkpt>
      <trkpt lat="45.25629" lon="6.5023">
        <ele>2317.8000488281</ele>
        <time>2021-01-24T12:03:39.000Z</time>
      </trkpt>
      <trkpt lat="45.2563" lon="6.50233">
        <ele>2319</ele>
        <time>2021-01-24T12:03:44.000Z</time>
      </trkpt>
      <trkpt lat="45.25631" lon="6.50235">
        <ele>2320.1999511719</ele>
        <time>2021-01-24T12:03:48.000Z</time>
      </trkpt>
      <trkpt lat="45.25633" lon="6.5024">
        <ele>2321.1999511719</ele>
        <time>2021-01-24T12:03:54.000Z</time>
      </trkpt>
      <trkpt lat="45.25634" lon="6.50242">
        <ele>2321.8000488281</ele>
        <time>2021-01-24T12:03:58.000Z</time>
      </trkpt>
      <trkpt lat="45.25635" lon="6.50245">
        <ele>2322.3999023438</ele>
        <time>2021-01-24T12:04:02.000Z</time>
      </trkpt>
      <trkpt lat="45.25636" lon="6.50248">
        <ele>2323.1999511719</ele>
        <time>2021-01-24T12:04:06.000Z</time>
      </trkpt>
      <trkpt lat="45.25636" lon="6.50249">
        <ele>2323.3999023438</ele>
        <time>2021-01-24T12:04:07.000Z</time>
      </trkpt>
      <trkpt lat="45.25638" lon="6.50253">
        <ele>2324.6000976562</ele>
        <time>2021-01-24T12:04:13.000Z</time>
      </trkpt>
      <trkpt lat="45.25639" lon="6.50254">
        <ele>2325</ele>
        <time>2021-01-24T12:04:14.000Z</time>
      </trkpt>
      <trkpt lat="45.2564" lon="6.50257">
        <ele>2325.8000488281</ele>
        <time>2021-01-24T12:04:19.000Z</time>
      </trkpt>
      <trkpt lat="45.25641" lon="6.50261">
        <ele>2326.3999023438</ele>
        <time>2021-01-24T12:04:23.000Z</time>
      </trkpt>
      <trkpt lat="45.25642" lon="6.50263">
        <ele>2327</ele>
        <time>2021-01-24T12:04:26.000Z</time>
      </trkpt>
      <trkpt lat="45.25643" lon="6.50265">
        <ele>2327.3999023438</ele>
        <time>2021-01-24T12:04:28.000Z</time>
      </trkpt>
      <trkpt lat="45.25644" lon="6.50267">
        <ele>2328</ele>
        <time>2021-01-24T12:04:31.000Z</time>
      </trkpt>
      <trkpt lat="45.25646" lon="6.50273">
        <ele>2329</ele>
        <time>2021-01-24T12:04:36.000Z</time>
      </trkpt>
      <trkpt lat="45.25646" lon="6.50273">
        <ele>2329.1999511719</ele>
        <time>2021-01-24T12:04:37.000Z</time>
      </trkpt>
      <trkpt lat="45.25647" lon="6.50276">
        <ele>2329.8000488281</ele>
        <time>2021-01-24T12:04:42.000Z</time>
      </trkpt>
      <trkpt lat="45.25647" lon="6.50277">
        <ele>2330.1999511719</ele>
        <time>2021-01-24T12:04:44.000Z</time>
      </trkpt>
      <trkpt lat="45.25648" lon="6.50281">
        <ele>2331</ele>
        <time>2021-01-24T12:04:49.000Z</time>
      </trkpt>
      <trkpt lat="45.25649" lon="6.50282">
        <ele>2331.1999511719</ele>
        <time>2021-01-24T12:04:51.000Z</time>
      </trkpt>
      <trkpt lat="45.2565" lon="6.50288">
        <ele>2332.1999511719</ele>
        <time>2021-01-24T12:04:57.000Z</time>
      </trkpt>
      <trkpt lat="45.25652" lon="6.50291">
        <ele>2333</ele>
        <time>2021-01-24T12:05:03.000Z</time>
      </trkpt>
      <trkpt lat="45.25652" lon="6.50292">
        <ele>2333.1999511719</ele>
        <time>2021-01-24T12:05:05.000Z</time>
      </trkpt>
      <trkpt lat="45.25653" lon="6.50294">
        <ele>2334.1999511719</ele>
        <time>2021-01-24T12:05:10.000Z</time>
      </trkpt>
      <trkpt lat="45.25653" lon="6.50295">
        <ele>2334.3999023438</ele>
        <time>2021-01-24T12:05:11.000Z</time>
      </trkpt>
      <trkpt lat="45.25655" lon="6.50299">
        <ele>2335.6000976562</ele>
        <time>2021-01-24T12:05:16.000Z</time>
      </trkpt>
      <trkpt lat="45.25656" lon="6.50301">
        <ele>2336.8000488281</ele>
        <time>2021-01-24T12:05:19.000Z</time>
      </trkpt>
      <trkpt lat="45.25656" lon="6.50303">
        <ele>2337.8000488281</ele>
        <time>2021-01-24T12:05:22.000Z</time>
      </trkpt>
      <trkpt lat="45.25658" lon="6.50307">
        <ele>2338.8000488281</ele>
        <time>2021-01-24T12:05:28.000Z</time>
      </trkpt>
      <trkpt lat="45.25658" lon="6.50308">
        <ele>2339</ele>
        <time>2021-01-24T12:05:29.000Z</time>
      </trkpt>
      <trkpt lat="45.25659" lon="6.50313">
        <ele>2340</ele>
        <time>2021-01-24T12:05:34.000Z</time>
      </trkpt>
      <trkpt lat="45.25661" lon="6.50315">
        <ele>2341</ele>
        <time>2021-01-24T12:05:40.000Z</time>
      </trkpt>
      <trkpt lat="45.25661" lon="6.50318">
        <ele>2341.8000488281</ele>
        <time>2021-01-24T12:05:44.000Z</time>
      </trkpt>
      <trkpt lat="45.25663" lon="6.50322">
        <ele>2342.1999511719</ele>
        <time>2021-01-24T12:05:48.000Z</time>
      </trkpt>
      <trkpt lat="45.25664" lon="6.50323">
        <ele>2343</ele>
        <time>2021-01-24T12:05:51.000Z</time>
      </trkpt>
      <trkpt lat="45.25664" lon="6.50324">
        <ele>2343.1999511719</ele>
        <time>2021-01-24T12:05:52.000Z</time>
      </trkpt>
      <trkpt lat="45.25666" lon="6.50327">
        <ele>2344.3999023438</ele>
        <time>2021-01-24T12:05:58.000Z</time>
      </trkpt>
      <trkpt lat="45.25668" lon="6.5033">
        <ele>2345.3999023438</ele>
        <time>2021-01-24T12:06:03.000Z</time>
      </trkpt>
      <trkpt lat="45.25668" lon="6.5033">
        <ele>2345.6000976562</ele>
        <time>2021-01-24T12:06:04.000Z</time>
      </trkpt>
      <trkpt lat="45.25669" lon="6.50333">
        <ele>2346.6000976562</ele>
        <time>2021-01-24T12:06:09.000Z</time>
      </trkpt>
      <trkpt lat="45.2567" lon="6.50334">
        <ele>2347</ele>
        <time>2021-01-24T12:06:11.000Z</time>
      </trkpt>
      <trkpt lat="45.25671" lon="6.50335">
        <ele>2347.8000488281</ele>
        <time>2021-01-24T12:06:17.000Z</time>
      </trkpt>
      <trkpt lat="45.25671" lon="6.50335">
        <ele>2348.3999023438</ele>
        <time>2021-01-24T12:06:19.000Z</time>
      </trkpt>
      <trkpt lat="45.25671" lon="6.50335">
        <ele>2349</ele>
        <time>2021-01-24T12:06:22.000Z</time>
      </trkpt>
      <trkpt lat="45.25671" lon="6.50335">
        <ele>2350</ele>
        <time>2021-01-24T12:06:28.000Z</time>
      </trkpt>
      <trkpt lat="45.25671" lon="6.50335">
        <ele>2350.1999511719</ele>
        <time>2021-01-24T12:06:30.000Z</time>
      </trkpt>
      <trkpt lat="45.25671" lon="6.50335">
        <ele>2351.1999511719</ele>
        <time>2021-01-24T12:06:34.000Z</time>
      </trkpt>
      <trkpt lat="45.25671" lon="6.50335">
        <ele>2351.3999023438</ele>
        <time>2021-01-24T12:06:36.000Z</time>
      </trkpt>
      <trkpt lat="45.25671" lon="6.50335">
        <ele>2352.3999023438</ele>
        <time>2021-01-24T12:06:41.000Z</time>
      </trkpt>
      <trkpt lat="45.25671" lon="6.50335">
        <ele>2353.1999511719</ele>
        <time>2021-01-24T12:06:45.000Z</time>
      </trkpt>
      <trkpt lat="45.25671" lon="6.50335">
        <ele>2353.3999023438</ele>
        <time>2021-01-24T12:06:46.000Z</time>
      </trkpt>
      <trkpt lat="45.25671" lon="6.50335">
        <ele>2354.3999023438</ele>
        <time>2021-01-24T12:06:51.000Z</time>
      </trkpt>
      <trkpt lat="45.25672" lon="6.50336">
        <ele>2355.3999023438</ele>
        <time>2021-01-24T12:06:55.000Z</time>
      </trkpt>
      <trkpt lat="45.25672" lon="6.50336">
        <ele>2356.8000488281</ele>
        <time>2021-01-24T12:07:02.000Z</time>
      </trkpt>
      <trkpt lat="45.25672" lon="6.50336">
        <ele>2357</ele>
        <time>2021-01-24T12:07:03.000Z</time>
      </trkpt>
      <trkpt lat="45.25672" lon="6.50336">
        <ele>2358.1999511719</ele>
        <time>2021-01-24T12:07:09.000Z</time>
      </trkpt>
      <trkpt lat="45.25672" lon="6.50336">
        <ele>2359.1999511719</ele>
        <time>2021-01-24T12:07:11.000Z</time>
      </trkpt>
      <trkpt lat="45.25672" lon="6.50336">
        <ele>2359.3999023438</ele>
        <time>2021-01-24T12:07:12.000Z</time>
      </trkpt>
      <trkpt lat="45.25672" lon="6.50336">
        <ele>2360.1999511719</ele>
        <time>2021-01-24T12:07:17.000Z</time>
      </trkpt>
      <trkpt lat="45.25672" lon="6.50336">
        <ele>2360.8000488281</ele>
        <time>2021-01-24T12:07:20.000Z</time>
      </trkpt>
      <trkpt lat="45.25672" lon="6.50336">
        <ele>2361.3999023438</ele>
        <time>2021-01-24T12:07:22.000Z</time>
      </trkpt>
      <trkpt lat="45.25672" lon="6.50336">
        <ele>2362</ele>
        <time>2021-01-24T12:07:26.000Z</time>
      </trkpt>
      <trkpt lat="45.25672" lon="6.50336">
        <ele>2362.6000976562</ele>
        <time>2021-01-24T12:07:31.000Z</time>
      </trkpt>
      <trkpt lat="45.25672" lon="6.50336">
        <ele>2362.6000976562</ele>
        <time>2021-01-24T12:07:34.000Z</time>
      </trkpt>
      <trkpt lat="45.25673" lon="6.50334">
        <ele>2363.8000488281</ele>
        <time>2021-01-24T12:07:41.000Z</time>
      </trkpt>
      <trkpt lat="45.25673" lon="6.50334">
        <ele>2364.1999511719</ele>
        <time>2021-01-24T12:07:43.000Z</time>
      </trkpt>
      <trkpt lat="45.25673" lon="6.50334">
        <ele>2364.8000488281</ele>
        <time>2021-01-24T12:07:44.000Z</time>
      </trkpt>
      <trkpt lat="45.25673" lon="6.50334">
        <ele>2365.8000488281</ele>
        <time>2021-01-24T12:07:50.000Z</time>
      </trkpt>
      <trkpt lat="45.25673" lon="6.50334">
        <ele>2366</ele>
        <time>2021-01-24T12:07:51.000Z</time>
      </trkpt>
      <trkpt lat="45.25673" lon="6.50334">
        <ele>2366.8000488281</ele>
        <time>2021-01-24T12:07:58.000Z</time>
      </trkpt>
      <trkpt lat="45.25673" lon="6.50334">
        <ele>2367.1999511719</ele>
        <time>2021-01-24T12:07:59.000Z</time>
      </trkpt>
      <trkpt lat="45.25673" lon="6.50334">
        <ele>2368.3999023438</ele>
        <time>2021-01-24T12:08:05.000Z</time>
      </trkpt>
      <trkpt lat="45.25673" lon="6.50334">
        <ele>2368.6000976562</ele>
        <time>2021-01-24T12:08:06.000Z</time>
      </trkpt>
      <trkpt lat="45.25673" lon="6.50334">
        <ele>2369.3999023438</ele>
        <time>2021-01-24T12:08:10.000Z</time>
      </trkpt>
      <trkpt lat="45.25673" lon="6.50333">
        <ele>2370.6000976562</ele>
        <time>2021-01-24T12:08:16.000Z</time>
      </trkpt>
      <trkpt lat="45.25673" lon="6.50333">
        <ele>2370.8000488281</ele>
        <time>2021-01-24T12:08:17.000Z</time>
      </trkpt>
      <trkpt lat="45.25673" lon="6.50333">
        <ele>2371.8000488281</ele>
        <time>2021-01-24T12:08:22.000Z</time>
      </trkpt>
      <trkpt lat="45.25673" lon="6.50333">
        <ele>2372.6000976562</ele>
        <time>2021-01-24T12:08:28.000Z</time>
      </trkpt>
      <trkpt lat="45.25673" lon="6.50333">
        <ele>2372.8000488281</ele>
        <time>2021-01-24T12:08:31.000Z</time>
      </trkpt>
      <trkpt lat="45.25673" lon="6.50333">
        <ele>2373.8000488281</ele>
        <time>2021-01-24T12:08:35.000Z</time>
      </trkpt>
      <trkpt lat="45.25673" lon="6.50333">
        <ele>2374.8000488281</ele>
        <time>2021-01-24T12:08:39.000Z</time>
      </trkpt>
      <trkpt lat="45.25673" lon="6.50333">
        <ele>2375</ele>
        <time>2021-01-24T12:08:40.000Z</time>
      </trkpt>
      <trkpt lat="45.25673" lon="6.50333">
        <ele>2376</ele>
        <time>2021-01-24T12:08:48.000Z</time>
      </trkpt>
      <trkpt lat="45.25674" lon="6.5033">
        <ele>2377</ele>
        <time>2021-01-24T12:08:55.000Z</time>
      </trkpt>
      <trkpt lat="45.25674" lon="6.5033">
        <ele>2378</ele>
        <time>2021-01-24T12:08:59.000Z</time>
      </trkpt>
      <trkpt lat="45.25674" lon="6.5033">
        <ele>2378.1999511719</ele>
        <time>2021-01-24T12:09:00.000Z</time>
      </trkpt>
      <trkpt lat="45.25674" lon="6.5033">
        <ele>2379.1999511719</ele>
        <time>2021-01-24T12:09:07.000Z</time>
      </trkpt>
      <trkpt lat="45.25678" lon="6.50327">
        <ele>2379.6000976562</ele>
        <time>2021-01-24T12:09:09.000Z</time>
      </trkpt>
      <trkpt lat="45.25681" lon="6.50325">
        <ele>2380.1999511719</ele>
        <time>2021-01-24T12:09:11.000Z</time>
      </trkpt>
      <trkpt lat="45.25702" lon="6.50335">
        <ele>2381.1999511719</ele>
        <time>2021-01-24T12:09:19.000Z</time>
      </trkpt>
      <trkpt lat="45.25704" lon="6.50336">
        <ele>2381.6000976562</ele>
        <time>2021-01-24T12:09:20.000Z</time>
      </trkpt>
      <trkpt lat="45.25714" lon="6.50343">
        <ele>2382.8000488281</ele>
        <time>2021-01-24T12:09:24.000Z</time>
      </trkpt>
      <trkpt lat="45.25728" lon="6.50349">
        <ele>2383.1999511719</ele>
        <time>2021-01-24T12:09:28.000Z</time>
      </trkpt>
      <trkpt lat="45.25735" lon="6.50352">
        <ele>2383.8000488281</ele>
        <time>2021-01-24T12:09:31.000Z</time>
      </trkpt>
      <trkpt lat="45.25745" lon="6.50354">
        <ele>2385</ele>
        <time>2021-01-24T12:09:36.000Z</time>
      </trkpt>
      <trkpt lat="45.2575" lon="6.50354">
        <ele>2385.3999023438</ele>
        <time>2021-01-24T12:09:39.000Z</time>
      </trkpt>
      <trkpt lat="45.25756" lon="6.50353">
        <ele>2386.3999023438</ele>
        <time>2021-01-24T12:09:44.000Z</time>
      </trkpt>
      <trkpt lat="45.25758" lon="6.50352">
        <ele>2386.3999023438</ele>
        <time>2021-01-24T12:09:45.000Z</time>
      </trkpt>
      <trkpt lat="45.25762" lon="6.5035">
        <ele>2386.6000976562</ele>
        <time>2021-01-24T12:09:47.000Z</time>
      </trkpt>
      <trkpt lat="45.25768" lon="6.50346">
        <ele>2386.1999511719</ele>
        <time>2021-01-24T12:09:53.000Z</time>
      </trkpt>
      <trkpt lat="45.25772" lon="6.50336">
        <ele>2387.1999511719</ele>
        <time>2021-01-24T12:10:01.000Z</time>
      </trkpt>
      <trkpt lat="45.25772" lon="6.50334">
        <ele>2387.8000488281</ele>
        <time>2021-01-24T12:10:04.000Z</time>
      </trkpt>
      <trkpt lat="45.25774" lon="6.50332">
        <ele>2388.6000976562</ele>
        <time>2021-01-24T12:10:08.000Z</time>
      </trkpt>
      <trkpt lat="45.25779" lon="6.50333">
        <ele>2388.8000488281</ele>
        <time>2021-01-24T12:10:14.000Z</time>
      </trkpt>
      <trkpt lat="45.25779" lon="6.50333">
        <ele>2389</ele>
        <time>2021-01-24T12:10:15.000Z</time>
      </trkpt>
      <trkpt lat="45.25781" lon="6.50335">
        <ele>2390</ele>
        <time>2021-01-24T12:10:19.000Z</time>
      </trkpt>
      <trkpt lat="45.25783" lon="6.50339">
        <ele>2390.6000976562</ele>
        <time>2021-01-24T12:10:24.000Z</time>
      </trkpt>
      <trkpt lat="45.25783" lon="6.5034">
        <ele>2391</ele>
        <time>2021-01-24T12:10:27.000Z</time>
      </trkpt>
      <trkpt lat="45.25783" lon="6.5034">
        <ele>2391.1999511719</ele>
        <time>2021-01-24T12:10:30.000Z</time>
      </trkpt>
      <trkpt lat="45.25783" lon="6.5034">
        <ele>2391.8000488281</ele>
        <time>2021-01-24T12:10:39.000Z</time>
      </trkpt>
      <trkpt lat="45.25783" lon="6.5034">
        <ele>2392</ele>
        <time>2021-01-24T12:10:42.000Z</time>
      </trkpt>
      <trkpt lat="45.25783" lon="6.5034">
        <ele>2393.6000976562</ele>
        <time>2021-01-24T12:10:45.000Z</time>
      </trkpt>
      <trkpt lat="45.25784" lon="6.50342">
        <ele>2395.3999023438</ele>
        <time>2021-01-24T12:10:47.000Z</time>
      </trkpt>
      <trkpt lat="45.25785" lon="6.50344">
        <ele>2396.6000976562</ele>
        <time>2021-01-24T12:10:49.000Z</time>
      </trkpt>
      <trkpt lat="45.25787" lon="6.50345">
        <ele>2396.8000488281</ele>
        <time>2021-01-24T12:10:52.000Z</time>
      </trkpt>
      <trkpt lat="45.25787" lon="6.50345">
        <ele>2396.6000976562</ele>
        <time>2021-01-24T12:11:02.000Z</time>
      </trkpt>
      <trkpt lat="45.2579" lon="6.50344">
        <ele>2396.1999511719</ele>
        <time>2021-01-24T12:11:13.000Z</time>
      </trkpt>
      <trkpt lat="45.25794" lon="6.50346">
        <ele>2396.3999023438</ele>
        <time>2021-01-24T12:11:19.000Z</time>
      </trkpt>
      <trkpt lat="45.25796" lon="6.50348">
        <ele>2397.8000488281</ele>
        <time>2021-01-24T12:11:22.000Z</time>
      </trkpt>
      <trkpt lat="45.25799" lon="6.5035">
        <ele>2398.8000488281</ele>
        <time>2021-01-24T12:11:26.000Z</time>
      </trkpt>
      <trkpt lat="45.258" lon="6.50352">
        <ele>2399.8000488281</ele>
        <time>2021-01-24T12:11:28.000Z</time>
      </trkpt>
      <trkpt lat="45.258" lon="6.50353">
        <ele>2400.1999511719</ele>
        <time>2021-01-24T12:11:29.000Z</time>
      </trkpt>
      <trkpt lat="45.258" lon="6.50354">
        <ele>2401.1999511719</ele>
        <time>2021-01-24T12:11:32.000Z</time>
      </trkpt>
      <trkpt lat="45.25801" lon="6.50356">
        <ele>2401.8000488281</ele>
        <time>2021-01-24T12:11:35.000Z</time>
      </trkpt>
      <trkpt lat="45.25802" lon="6.50358">
        <ele>2402.3999023438</ele>
        <time>2021-01-24T12:11:37.000Z</time>
      </trkpt>
      <trkpt lat="45.25802" lon="6.5036">
        <ele>2403.3999023438</ele>
        <time>2021-01-24T12:11:40.000Z</time>
      </trkpt>
      <trkpt lat="45.25803" lon="6.50361">
        <ele>2404</ele>
        <time>2021-01-24T12:11:41.000Z</time>
      </trkpt>
      <trkpt lat="45.25803" lon="6.50362">
        <ele>2404.6000976562</ele>
        <time>2021-01-24T12:11:43.000Z</time>
      </trkpt>
      <trkpt lat="45.25805" lon="6.50361">
        <ele>2404.6000976562</ele>
        <time>2021-01-24T12:11:48.000Z</time>
      </trkpt>
      <trkpt lat="45.25806" lon="6.50362">
        <ele>2405.8000488281</ele>
        <time>2021-01-24T12:11:53.000Z</time>
      </trkpt>
      <trkpt lat="45.25806" lon="6.50364">
        <ele>2406.3999023438</ele>
        <time>2021-01-24T12:11:55.000Z</time>
      </trkpt>
      <trkpt lat="45.25807" lon="6.50364">
        <ele>2407</ele>
        <time>2021-01-24T12:12:00.000Z</time>
      </trkpt>
      <trkpt lat="45.25809" lon="6.50363">
        <ele>2407.6000976562</ele>
        <time>2021-01-24T12:12:03.000Z</time>
      </trkpt>
      <trkpt lat="45.2581" lon="6.50364">
        <ele>2408</ele>
        <time>2021-01-24T12:12:06.000Z</time>
      </trkpt>
      <trkpt lat="45.2581" lon="6.50366">
        <ele>2409.1999511719</ele>
        <time>2021-01-24T12:12:09.000Z</time>
      </trkpt>
      <trkpt lat="45.25811" lon="6.50368">
        <ele>2410.1999511719</ele>
        <time>2021-01-24T12:12:14.000Z</time>
      </trkpt>
      <trkpt lat="45.25811" lon="6.50369">
        <ele>2410.6000976562</ele>
        <time>2021-01-24T12:12:15.000Z</time>
      </trkpt>
      <trkpt lat="45.25812" lon="6.50371">
        <ele>2411.6000976562</ele>
        <time>2021-01-24T12:12:18.000Z</time>
      </trkpt>
      <trkpt lat="45.25814" lon="6.50375">
        <ele>2412.6000976562</ele>
        <time>2021-01-24T12:12:23.000Z</time>
      </trkpt>
      <trkpt lat="45.25814" lon="6.50376">
        <ele>2412.6000976562</ele>
        <time>2021-01-24T12:12:24.000Z</time>
      </trkpt>
      <trkpt lat="45.25816" lon="6.50375">
        <ele>2412.8000488281</ele>
        <time>2021-01-24T12:12:29.000Z</time>
      </trkpt>
      <trkpt lat="45.25818" lon="6.50374">
        <ele>2413.1999511719</ele>
        <time>2021-01-24T12:12:37.000Z</time>
      </trkpt>
      <trkpt lat="45.25819" lon="6.50375">
        <ele>2414</ele>
        <time>2021-01-24T12:12:40.000Z</time>
      </trkpt>
      <trkpt lat="45.25819" lon="6.50377">
        <ele>2415.1999511719</ele>
        <time>2021-01-24T12:12:42.000Z</time>
      </trkpt>
      <trkpt lat="45.2582" lon="6.5038">
        <ele>2416</ele>
        <time>2021-01-24T12:12:46.000Z</time>
      </trkpt>
      <trkpt lat="45.25823" lon="6.50378">
        <ele>2415.8000488281</ele>
        <time>2021-01-24T12:12:53.000Z</time>
      </trkpt>
      <trkpt lat="45.25824" lon="6.50379">
        <ele>2416.1999511719</ele>
        <time>2021-01-24T12:12:56.000Z</time>
      </trkpt>
      <trkpt lat="45.25824" lon="6.5038">
        <ele>2417.1999511719</ele>
        <time>2021-01-24T12:12:58.000Z</time>
      </trkpt>
      <trkpt lat="45.25824" lon="6.50381">
        <ele>2419</ele>
        <time>2021-01-24T12:13:00.000Z</time>
      </trkpt>
      <trkpt lat="45.25825" lon="6.50381">
        <ele>2419.3999023438</ele>
        <time>2021-01-24T12:13:07.000Z</time>
      </trkpt>
      <trkpt lat="45.25827" lon="6.50381">
        <ele>2418.8000488281</ele>
        <time>2021-01-24T12:13:14.000Z</time>
      </trkpt>
      <trkpt lat="45.25827" lon="6.50381">
        <ele>2420.1999511719</ele>
        <time>2021-01-24T12:13:16.000Z</time>
      </trkpt>
      <trkpt lat="45.25827" lon="6.50383">
        <ele>2421.3999023438</ele>
        <time>2021-01-24T12:13:19.000Z</time>
      </trkpt>
      <trkpt lat="45.25827" lon="6.50384">
        <ele>2421.6000976562</ele>
        <time>2021-01-24T12:13:21.000Z</time>
      </trkpt>
      <trkpt lat="45.25828" lon="6.50389">
        <ele>2422</ele>
        <time>2021-01-24T12:13:27.000Z</time>
      </trkpt>
      <trkpt lat="45.25828" lon="6.5039">
        <ele>2422.6000976562</ele>
        <time>2021-01-24T12:13:29.000Z</time>
      </trkpt>
      <trkpt lat="45.2583" lon="6.50393">
        <ele>2423.3999023438</ele>
        <time>2021-01-24T12:13:34.000Z</time>
      </trkpt>
      <trkpt lat="45.25835" lon="6.50392">
        <ele>2423.1999511719</ele>
        <time>2021-01-24T12:13:42.000Z</time>
      </trkpt>
      <trkpt lat="45.25835" lon="6.50392">
        <ele>2423.8000488281</ele>
        <time>2021-01-24T12:13:45.000Z</time>
      </trkpt>
      <trkpt lat="45.25835" lon="6.50392">
        <ele>2423.6000976562</ele>
        <time>2021-01-24T12:13:56.000Z</time>
      </trkpt>
      <trkpt lat="45.25835" lon="6.50392">
        <ele>2424.3999023438</ele>
        <time>2021-01-24T12:14:00.000Z</time>
      </trkpt>
      <trkpt lat="45.25835" lon="6.50392">
        <ele>2425.1999511719</ele>
        <time>2021-01-24T12:14:02.000Z</time>
      </trkpt>
      <trkpt lat="45.25835" lon="6.50394">
        <ele>2426.6000976562</ele>
        <time>2021-01-24T12:14:08.000Z</time>
      </trkpt>
      <trkpt lat="45.25835" lon="6.50396">
        <ele>2428</ele>
        <time>2021-01-24T12:14:11.000Z</time>
      </trkpt>
      <trkpt lat="45.25834" lon="6.50398">
        <ele>2429.1999511719</ele>
        <time>2021-01-24T12:14:17.000Z</time>
      </trkpt>
      <trkpt lat="45.25834" lon="6.50398">
        <ele>2429.1999511719</ele>
        <time>2021-01-24T12:14:18.000Z</time>
      </trkpt>
      <trkpt lat="45.25835" lon="6.504">
        <ele>2429.6000976562</ele>
        <time>2021-01-24T12:14:26.000Z</time>
      </trkpt>
      <trkpt lat="45.25834" lon="6.50404">
        <ele>2430.1999511719</ele>
        <time>2021-01-24T12:14:36.000Z</time>
      </trkpt>
      <trkpt lat="45.25834" lon="6.50405">
        <ele>2430.3999023438</ele>
        <time>2021-01-24T12:14:37.000Z</time>
      </trkpt>
      <trkpt lat="45.25834" lon="6.50406">
        <ele>2430.6000976562</ele>
        <time>2021-01-24T12:14:49.000Z</time>
      </trkpt>
      <trkpt lat="45.25831" lon="6.50414">
        <ele>2430.8000488281</ele>
        <time>2021-01-24T12:14:58.000Z</time>
      </trkpt>
      <trkpt lat="45.25831" lon="6.50417">
        <ele>2431.1999511719</ele>
        <time>2021-01-24T12:15:00.000Z</time>
      </trkpt>
      <trkpt lat="45.2583" lon="6.5042">
        <ele>2432.3999023438</ele>
        <time>2021-01-24T12:15:04.000Z</time>
      </trkpt>
      <trkpt lat="45.2583" lon="6.50422">
        <ele>2432.6000976562</ele>
        <time>2021-01-24T12:15:06.000Z</time>
      </trkpt>
      <trkpt lat="45.2583" lon="6.50429">
        <ele>2433.3999023438</ele>
        <time>2021-01-24T12:15:11.000Z</time>
      </trkpt>
      <trkpt lat="45.2583" lon="6.5043">
        <ele>2433.6000976562</ele>
        <time>2021-01-24T12:15:12.000Z</time>
      </trkpt>
      <trkpt lat="45.25831" lon="6.50433">
        <ele>2434.6000976562</ele>
        <time>2021-01-24T12:15:20.000Z</time>
      </trkpt>
      <trkpt lat="45.25834" lon="6.50432">
        <ele>2435.8000488281</ele>
        <time>2021-01-24T12:15:23.000Z</time>
      </trkpt>
      <trkpt lat="45.25837" lon="6.5043">
        <ele>2436.8000488281</ele>
        <time>2021-01-24T12:15:27.000Z</time>
      </trkpt>
      <trkpt lat="45.25837" lon="6.5043">
        <ele>2437</ele>
        <time>2021-01-24T12:15:28.000Z</time>
      </trkpt>
      <trkpt lat="45.25838" lon="6.50433">
        <ele>2438</ele>
        <time>2021-01-24T12:15:32.000Z</time>
      </trkpt>
      <trkpt lat="45.25839" lon="6.50436">
        <ele>2439.3999023438</ele>
        <time>2021-01-24T12:15:35.000Z</time>
      </trkpt>
      <trkpt lat="45.25839" lon="6.50437">
        <ele>2439.6000976562</ele>
        <time>2021-01-24T12:15:36.000Z</time>
      </trkpt>
      <trkpt lat="45.25841" lon="6.50442">
        <ele>2440.3999023438</ele>
        <time>2021-01-24T12:15:40.000Z</time>
      </trkpt>
      <trkpt lat="45.25841" lon="6.50443">
        <ele>2440.8000488281</ele>
        <time>2021-01-24T12:15:42.000Z</time>
      </trkpt>
      <trkpt lat="45.25841" lon="6.50444">
        <ele>2441.6000976562</ele>
        <time>2021-01-24T12:15:50.000Z</time>
      </trkpt>
      <trkpt lat="45.25842" lon="6.50445">
        <ele>2442.6000976562</ele>
        <time>2021-01-24T12:15:56.000Z</time>
      </trkpt>
      <trkpt lat="45.25842" lon="6.50445">
        <ele>2442.8000488281</ele>
        <time>2021-01-24T12:15:57.000Z</time>
      </trkpt>
      <trkpt lat="45.25847" lon="6.50442">
        <ele>2443.6000976562</ele>
        <time>2021-01-24T12:16:06.000Z</time>
      </trkpt>
      <trkpt lat="45.25847" lon="6.50441">
        <ele>2444</ele>
        <time>2021-01-24T12:16:07.000Z</time>
      </trkpt>
      <trkpt lat="45.25848" lon="6.50441">
        <ele>2445</ele>
        <time>2021-01-24T12:16:11.000Z</time>
      </trkpt>
      <trkpt lat="45.25849" lon="6.50441">
        <ele>2445.3999023438</ele>
        <time>2021-01-24T12:16:13.000Z</time>
      </trkpt>
      <trkpt lat="45.25849" lon="6.50445">
        <ele>2446.1999511719</ele>
        <time>2021-01-24T12:16:16.000Z</time>
      </trkpt>
      <trkpt lat="45.25849" lon="6.50449">
        <ele>2447</ele>
        <time>2021-01-24T12:16:20.000Z</time>
      </trkpt>
      <trkpt lat="45.25848" lon="6.50451">
        <ele>2447.1999511719</ele>
        <time>2021-01-24T12:16:22.000Z</time>
      </trkpt>
      <trkpt lat="45.25849" lon="6.50453">
        <ele>2448.3999023438</ele>
        <time>2021-01-24T12:16:26.000Z</time>
      </trkpt>
      <trkpt lat="45.25851" lon="6.50456">
        <ele>2449.6000976562</ele>
        <time>2021-01-24T12:16:30.000Z</time>
      </trkpt>
      <trkpt lat="45.25851" lon="6.50456">
        <ele>2449.8000488281</ele>
        <time>2021-01-24T12:16:31.000Z</time>
      </trkpt>
      <trkpt lat="45.25851" lon="6.50456">
        <ele>2450.6000976562</ele>
        <time>2021-01-24T12:16:38.000Z</time>
      </trkpt>
      <trkpt lat="45.25853" lon="6.50457">
        <ele>2450.6000976562</ele>
        <time>2021-01-24T12:16:43.000Z</time>
      </trkpt>
      <trkpt lat="45.25857" lon="6.50456">
        <ele>2450.3999023438</ele>
        <time>2021-01-24T12:16:51.000Z</time>
      </trkpt>
      <trkpt lat="45.25861" lon="6.50455">
        <ele>2451.6000976562</ele>
        <time>2021-01-24T12:16:57.000Z</time>
      </trkpt>
      <trkpt lat="45.25862" lon="6.50455">
        <ele>2452.1999511719</ele>
        <time>2021-01-24T12:16:59.000Z</time>
      </trkpt>
      <trkpt lat="45.25863" lon="6.50454">
        <ele>2452.8000488281</ele>
        <time>2021-01-24T12:17:01.000Z</time>
      </trkpt>
      <trkpt lat="45.25866" lon="6.50454">
        <ele>2453.1999511719</ele>
        <time>2021-01-24T12:17:06.000Z</time>
      </trkpt>
      <trkpt lat="45.25867" lon="6.50455">
        <ele>2453.8000488281</ele>
        <time>2021-01-24T12:17:09.000Z</time>
      </trkpt>
      <trkpt lat="45.25868" lon="6.50457">
        <ele>2454.6000976562</ele>
        <time>2021-01-24T12:17:12.000Z</time>
      </trkpt>
      <trkpt lat="45.25868" lon="6.50458">
        <ele>2455.1999511719</ele>
        <time>2021-01-24T12:17:13.000Z</time>
      </trkpt>
      <trkpt lat="45.25868" lon="6.50459">
        <ele>2456.6000976562</ele>
        <time>2021-01-24T12:17:15.000Z</time>
      </trkpt>
      <trkpt lat="45.25868" lon="6.50461">
        <ele>2458</ele>
        <time>2021-01-24T12:17:17.000Z</time>
      </trkpt>
      <trkpt lat="45.25869" lon="6.50462">
        <ele>2458.6000976562</ele>
        <time>2021-01-24T12:17:19.000Z</time>
      </trkpt>
      <trkpt lat="45.25869" lon="6.50463">
        <ele>2459</ele>
        <time>2021-01-24T12:17:20.000Z</time>
      </trkpt>
      <trkpt lat="45.25869" lon="6.50466">
        <ele>2460</ele>
        <time>2021-01-24T12:17:25.000Z</time>
      </trkpt>
      <trkpt lat="45.25869" lon="6.50467">
        <ele>2460.1999511719</ele>
        <time>2021-01-24T12:17:26.000Z</time>
      </trkpt>
      <trkpt lat="45.2587" lon="6.50471">
        <ele>2461</ele>
        <time>2021-01-24T12:17:33.000Z</time>
      </trkpt>
      <trkpt lat="45.25871" lon="6.50472">
        <ele>2461.3999023438</ele>
        <time>2021-01-24T12:17:34.000Z</time>
      </trkpt>
      <trkpt lat="45.2587" lon="6.50473">
        <ele>2462.3999023438</ele>
        <time>2021-01-24T12:17:38.000Z</time>
      </trkpt>
      <trkpt lat="45.2587" lon="6.50473">
        <ele>2462.6000976562</ele>
        <time>2021-01-24T12:17:42.000Z</time>
      </trkpt>
      <trkpt lat="45.25873" lon="6.50479">
        <ele>2462.6000976562</ele>
        <time>2021-01-24T12:17:52.000Z</time>
      </trkpt>
      <trkpt lat="45.25874" lon="6.50481">
        <ele>2463.3999023438</ele>
        <time>2021-01-24T12:17:59.000Z</time>
      </trkpt>
      <trkpt lat="45.25874" lon="6.50481">
        <ele>2463.6000976562</ele>
        <time>2021-01-24T12:18:01.000Z</time>
      </trkpt>
      <trkpt lat="45.25874" lon="6.50481">
        <ele>2464.3999023438</ele>
        <time>2021-01-24T12:18:12.000Z</time>
      </trkpt>
      <trkpt lat="45.25874" lon="6.50481">
        <ele>2464.6000976562</ele>
        <time>2021-01-24T12:18:15.000Z</time>
      </trkpt>
      <trkpt lat="45.25876" lon="6.50482">
        <ele>2464.6000976562</ele>
        <time>2021-01-24T12:18:31.000Z</time>
      </trkpt>
      <trkpt lat="45.25881" lon="6.50487">
        <ele>2465</ele>
        <time>2021-01-24T12:18:39.000Z</time>
      </trkpt>
      <trkpt lat="45.25883" lon="6.50489">
        <ele>2465.8000488281</ele>
        <time>2021-01-24T12:18:42.000Z</time>
      </trkpt>
      <trkpt lat="45.25885" lon="6.50491">
        <ele>2466.1999511719</ele>
        <time>2021-01-24T12:18:46.000Z</time>
      </trkpt>
      <trkpt lat="45.25888" lon="6.50493">
        <ele>2467</ele>
        <time>2021-01-24T12:18:50.000Z</time>
      </trkpt>
      <trkpt lat="45.25889" lon="6.50494">
        <ele>2468</ele>
        <time>2021-01-24T12:18:53.000Z</time>
      </trkpt>
      <trkpt lat="45.25891" lon="6.50497">
        <ele>2469.1999511719</ele>
        <time>2021-01-24T12:18:58.000Z</time>
      </trkpt>
      <trkpt lat="45.25893" lon="6.50499">
        <ele>2469.6000976562</ele>
        <time>2021-01-24T12:19:01.000Z</time>
      </trkpt>
      <trkpt lat="45.25893" lon="6.505">
        <ele>2470.1999511719</ele>
        <time>2021-01-24T12:19:03.000Z</time>
      </trkpt>
      <trkpt lat="45.25893" lon="6.505">
        <ele>2471.1999511719</ele>
        <time>2021-01-24T12:19:06.000Z</time>
      </trkpt>
      <trkpt lat="45.25893" lon="6.505">
        <ele>2472</ele>
        <time>2021-01-24T12:19:08.000Z</time>
      </trkpt>
      <trkpt lat="45.25893" lon="6.505">
        <ele>2472.6000976562</ele>
        <time>2021-01-24T12:19:09.000Z</time>
      </trkpt>
      <trkpt lat="45.25893" lon="6.505">
        <ele>2473.8000488281</ele>
        <time>2021-01-24T12:19:12.000Z</time>
      </trkpt>
      <trkpt lat="45.25893" lon="6.505">
        <ele>2474.1999511719</ele>
        <time>2021-01-24T12:19:22.000Z</time>
      </trkpt>
      <trkpt lat="45.25893" lon="6.505">
        <ele>2472.8000488281</ele>
        <time>2021-01-24T12:19:36.000Z</time>
      </trkpt>
      <trkpt lat="45.25893" lon="6.505">
        <ele>2472.8000488281</ele>
        <time>2021-01-24T12:19:43.000Z</time>
      </trkpt>
      <trkpt lat="45.25893" lon="6.505">
        <ele>2472</ele>
        <time>2021-01-24T12:19:52.000Z</time>
      </trkpt>
      <trkpt lat="45.25893" lon="6.505">
        <ele>2472</ele>
        <time>2021-01-24T12:20:12.000Z</time>
      </trkpt>
      <trkpt lat="45.25893" lon="6.505">
        <ele>2472</ele>
        <time>2021-01-24T12:20:32.000Z</time>
      </trkpt>
      <trkpt lat="45.25893" lon="6.505">
        <ele>2472.3999023438</ele>
        <time>2021-01-24T12:20:47.000Z</time>
      </trkpt>
      <trkpt lat="45.25893" lon="6.50501">
        <ele>2472.1999511719</ele>
        <time>2021-01-24T12:21:05.000Z</time>
      </trkpt>
      <trkpt lat="45.25893" lon="6.50501">
        <ele>2472.3999023438</ele>
        <time>2021-01-24T12:21:16.000Z</time>
      </trkpt>
      <trkpt lat="45.25893" lon="6.50501">
        <ele>2473.1999511719</ele>
        <time>2021-01-24T12:21:27.000Z</time>
      </trkpt>
      <trkpt lat="45.25893" lon="6.50501">
        <ele>2473.8000488281</ele>
        <time>2021-01-24T12:21:30.000Z</time>
      </trkpt>
      <trkpt lat="45.25893" lon="6.50501">
        <ele>2472.6000976562</ele>
        <time>2021-01-24T12:21:37.000Z</time>
      </trkpt>
      <trkpt lat="45.25893" lon="6.50501">
        <ele>2472.1999511719</ele>
        <time>2021-01-24T12:21:40.000Z</time>
      </trkpt>
      <trkpt lat="45.25893" lon="6.50501">
        <ele>2473.6000976562</ele>
        <time>2021-01-24T12:21:52.000Z</time>
      </trkpt>
      <trkpt lat="45.25893" lon="6.50501">
        <ele>2473.8000488281</ele>
        <time>2021-01-24T12:21:53.000Z</time>
      </trkpt>
      <trkpt lat="45.25893" lon="6.50501">
        <ele>2473.1999511719</ele>
        <time>2021-01-24T12:22:07.000Z</time>
      </trkpt>
      <trkpt lat="45.25893" lon="6.50501">
        <ele>2473.1999511719</ele>
        <time>2021-01-24T12:22:26.000Z</time>
      </trkpt>
      <trkpt lat="45.25893" lon="6.50501">
        <ele>2473.6000976562</ele>
        <time>2021-01-24T12:22:38.000Z</time>
      </trkpt>
      <trkpt lat="45.25893" lon="6.50501">
        <ele>2474.1999511719</ele>
        <time>2021-01-24T12:22:47.000Z</time>
      </trkpt>
      <trkpt lat="45.25894" lon="6.50503">
        <ele>2474.8000488281</ele>
        <time>2021-01-24T12:22:51.000Z</time>
      </trkpt>
      <trkpt lat="45.25896" lon="6.50504">
        <ele>2474.6000976562</ele>
        <time>2021-01-24T12:22:54.000Z</time>
      </trkpt>
      <trkpt lat="45.25901" lon="6.50504">
        <ele>2474.6000976562</ele>
        <time>2021-01-24T12:23:01.000Z</time>
      </trkpt>
      <trkpt lat="45.25909" lon="6.50502">
        <ele>2476</ele>
        <time>2021-01-24T12:23:10.000Z</time>
      </trkpt>
      <trkpt lat="45.2591" lon="6.50502">
        <ele>2477.1999511719</ele>
        <time>2021-01-24T12:23:13.000Z</time>
      </trkpt>
      <trkpt lat="45.25913" lon="6.50502">
        <ele>2478.1999511719</ele>
        <time>2021-01-24T12:23:17.000Z</time>
      </trkpt>
      <trkpt lat="45.25915" lon="6.50502">
        <ele>2478.3999023438</ele>
        <time>2021-01-24T12:23:19.000Z</time>
      </trkpt>
      <trkpt lat="45.25918" lon="6.50502">
        <ele>2479.1999511719</ele>
        <time>2021-01-24T12:23:23.000Z</time>
      </trkpt>
      <trkpt lat="45.25921" lon="6.50502">
        <ele>2480.3999023438</ele>
        <time>2021-01-24T12:23:27.000Z</time>
      </trkpt>
      <trkpt lat="45.25922" lon="6.50503">
        <ele>2481</ele>
        <time>2021-01-24T12:23:30.000Z</time>
      </trkpt>
      <trkpt lat="45.25923" lon="6.50503">
        <ele>2481.3999023438</ele>
        <time>2021-01-24T12:23:32.000Z</time>
      </trkpt>
      <trkpt lat="45.25925" lon="6.50506">
        <ele>2482.3999023438</ele>
        <time>2021-01-24T12:23:37.000Z</time>
      </trkpt>
      <trkpt lat="45.25925" lon="6.50508">
        <ele>2482.8000488281</ele>
        <time>2021-01-24T12:23:39.000Z</time>
      </trkpt>
      <trkpt lat="45.25924" lon="6.5051">
        <ele>2483.6000976562</ele>
        <time>2021-01-24T12:23:42.000Z</time>
      </trkpt>
      <trkpt lat="45.25924" lon="6.50514">
        <ele>2484</ele>
        <time>2021-01-24T12:23:46.000Z</time>
      </trkpt>
      <trkpt lat="45.25925" lon="6.50516">
        <ele>2484.6000976562</ele>
        <time>2021-01-24T12:23:49.000Z</time>
      </trkpt>
      <trkpt lat="45.25925" lon="6.50517">
        <ele>2485</ele>
        <time>2021-01-24T12:23:51.000Z</time>
      </trkpt>
      <trkpt lat="45.25925" lon="6.50518">
        <ele>2485.6000976562</ele>
        <time>2021-01-24T12:23:55.000Z</time>
      </trkpt>
      <trkpt lat="45.25925" lon="6.5052">
        <ele>2486.3999023438</ele>
        <time>2021-01-24T12:23:59.000Z</time>
      </trkpt>
      <trkpt lat="45.25925" lon="6.5052">
        <ele>2486.6000976562</ele>
        <time>2021-01-24T12:24:00.000Z</time>
      </trkpt>
      <trkpt lat="45.25928" lon="6.50522">
        <ele>2487.8000488281</ele>
        <time>2021-01-24T12:24:06.000Z</time>
      </trkpt>
      <trkpt lat="45.25929" lon="6.50522">
        <ele>2488.6000976562</ele>
        <time>2021-01-24T12:24:08.000Z</time>
      </trkpt>
      <trkpt lat="45.25929" lon="6.50522">
        <ele>2489.1999511719</ele>
        <time>2021-01-24T12:24:09.000Z</time>
      </trkpt>
      <trkpt lat="45.25933" lon="6.50523">
        <ele>2490.3999023438</ele>
        <time>2021-01-24T12:24:14.000Z</time>
      </trkpt>
      <trkpt lat="45.25934" lon="6.50524">
        <ele>2490.8000488281</ele>
        <time>2021-01-24T12:24:17.000Z</time>
      </trkpt>
      <trkpt lat="45.25934" lon="6.50524">
        <ele>2491</ele>
        <time>2021-01-24T12:24:18.000Z</time>
      </trkpt>
      <trkpt lat="45.25934" lon="6.50526">
        <ele>2491.1999511719</ele>
        <time>2021-01-24T12:24:25.000Z</time>
      </trkpt>
      <trkpt lat="45.25934" lon="6.50526">
        <ele>2491.3999023438</ele>
        <time>2021-01-24T12:24:27.000Z</time>
      </trkpt>
      <trkpt lat="45.25934" lon="6.50528">
        <ele>2492.6000976562</ele>
        <time>2021-01-24T12:24:31.000Z</time>
      </trkpt>
      <trkpt lat="45.25934" lon="6.50529">
        <ele>2493.1999511719</ele>
        <time>2021-01-24T12:24:33.000Z</time>
      </trkpt>
      <trkpt lat="45.25938" lon="6.50527">
        <ele>2493.6000976562</ele>
        <time>2021-01-24T12:24:42.000Z</time>
      </trkpt>
      <trkpt lat="45.25938" lon="6.50527">
        <ele>2493.8000488281</ele>
        <time>2021-01-24T12:24:43.000Z</time>
      </trkpt>
      <trkpt lat="45.25941" lon="6.50526">
        <ele>2495</ele>
        <time>2021-01-24T12:24:48.000Z</time>
      </trkpt>
      <trkpt lat="45.25942" lon="6.50526">
        <ele>2495.3999023438</ele>
        <time>2021-01-24T12:24:50.000Z</time>
      </trkpt>
      <trkpt lat="45.25943" lon="6.50526">
        <ele>2496.3999023438</ele>
        <time>2021-01-24T12:24:53.000Z</time>
      </trkpt>
      <trkpt lat="45.25944" lon="6.50526">
        <ele>2497.6000976562</ele>
        <time>2021-01-24T12:24:57.000Z</time>
      </trkpt>
      <trkpt lat="45.25944" lon="6.50525">
        <ele>2498.1999511719</ele>
        <time>2021-01-24T12:25:01.000Z</time>
      </trkpt>
      <trkpt lat="45.25944" lon="6.50527">
        <ele>2497.6000976562</ele>
        <time>2021-01-24T12:25:10.000Z</time>
      </trkpt>
      <trkpt lat="45.25944" lon="6.50528">
        <ele>2497</ele>
        <time>2021-01-24T12:25:20.000Z</time>
      </trkpt>
      <trkpt lat="45.25946" lon="6.50528">
        <ele>2498.3999023438</ele>
        <time>2021-01-24T12:25:28.000Z</time>
      </trkpt>
      <trkpt lat="45.25947" lon="6.50528">
        <ele>2498.8000488281</ele>
        <time>2021-01-24T12:25:31.000Z</time>
      </trkpt>
      <trkpt lat="45.25947" lon="6.50529">
        <ele>2499</ele>
        <time>2021-01-24T12:25:34.000Z</time>
      </trkpt>
      <trkpt lat="45.25948" lon="6.5053">
        <ele>2499.8000488281</ele>
        <time>2021-01-24T12:25:38.000Z</time>
      </trkpt>
      <trkpt lat="45.25947" lon="6.50531">
        <ele>2500.8000488281</ele>
        <time>2021-01-24T12:25:42.000Z</time>
      </trkpt>
      <trkpt lat="45.25947" lon="6.50534">
        <ele>2501.8000488281</ele>
        <time>2021-01-24T12:25:51.000Z</time>
      </trkpt>
      <trkpt lat="45.25947" lon="6.50533">
        <ele>2503</ele>
        <time>2021-01-24T12:25:59.000Z</time>
      </trkpt>
      <trkpt lat="45.25949" lon="6.50535">
        <ele>2502.8000488281</ele>
        <time>2021-01-24T12:26:07.000Z</time>
      </trkpt>
      <trkpt lat="45.25949" lon="6.50537">
        <ele>2504</ele>
        <time>2021-01-24T12:26:11.000Z</time>
      </trkpt>
      <trkpt lat="45.25948" lon="6.50541">
        <ele>2505.3999023438</ele>
        <time>2021-01-24T12:26:15.000Z</time>
      </trkpt>
      <trkpt lat="45.25948" lon="6.50542">
        <ele>2505.8000488281</ele>
        <time>2021-01-24T12:26:16.000Z</time>
      </trkpt>
      <trkpt lat="45.25948" lon="6.50542">
        <ele>2506.8000488281</ele>
        <time>2021-01-24T12:26:18.000Z</time>
      </trkpt>
      <trkpt lat="45.25949" lon="6.50543">
        <ele>2507</ele>
        <time>2021-01-24T12:26:24.000Z</time>
      </trkpt>
      <trkpt lat="45.25951" lon="6.50542">
        <ele>2508</ele>
        <time>2021-01-24T12:26:28.000Z</time>
      </trkpt>
      <trkpt lat="45.25952" lon="6.50542">
        <ele>2509.1999511719</ele>
        <time>2021-01-24T12:26:31.000Z</time>
      </trkpt>
      <trkpt lat="45.25952" lon="6.50542">
        <ele>2510</ele>
        <time>2021-01-24T12:26:34.000Z</time>
      </trkpt>
      <trkpt lat="45.25953" lon="6.50544">
        <ele>2510.3999023438</ele>
        <time>2021-01-24T12:26:40.000Z</time>
      </trkpt>
      <trkpt lat="45.25954" lon="6.50544">
        <ele>2510.3999023438</ele>
        <time>2021-01-24T12:26:41.000Z</time>
      </trkpt>
      <trkpt lat="45.25959" lon="6.50549">
        <ele>2510.1999511719</ele>
        <time>2021-01-24T12:26:49.000Z</time>
      </trkpt>
      <trkpt lat="45.2596" lon="6.5055">
        <ele>2512</ele>
        <time>2021-01-24T12:26:52.000Z</time>
      </trkpt>
      <trkpt lat="45.25962" lon="6.50551">
        <ele>2513.1999511719</ele>
        <time>2021-01-24T12:26:54.000Z</time>
      </trkpt>
      <trkpt lat="45.25963" lon="6.50553">
        <ele>2513.6000976562</ele>
        <time>2021-01-24T12:26:57.000Z</time>
      </trkpt>
      <trkpt lat="45.25966" lon="6.50558">
        <ele>2514.1999511719</ele>
        <time>2021-01-24T12:27:05.000Z</time>
      </trkpt>
      <trkpt lat="45.25969" lon="6.50559">
        <ele>2515.3999023438</ele>
        <time>2021-01-24T12:27:10.000Z</time>
      </trkpt>
      <trkpt lat="45.2597" lon="6.50561">
        <ele>2516.8000488281</ele>
        <time>2021-01-24T12:27:14.000Z</time>
      </trkpt>
      <trkpt lat="45.25971" lon="6.50564">
        <ele>2517.8000488281</ele>
        <time>2021-01-24T12:27:19.000Z</time>
      </trkpt>
      <trkpt lat="45.25971" lon="6.50565">
        <ele>2518</ele>
        <time>2021-01-24T12:27:20.000Z</time>
      </trkpt>
      <trkpt lat="45.2597" lon="6.5057">
        <ele>2519</ele>
        <time>2021-01-24T12:27:26.000Z</time>
      </trkpt>
      <trkpt lat="45.2597" lon="6.50571">
        <ele>2519.1999511719</ele>
        <time>2021-01-24T12:27:27.000Z</time>
      </trkpt>
      <trkpt lat="45.2597" lon="6.50573">
        <ele>2520.1999511719</ele>
        <time>2021-01-24T12:27:30.000Z</time>
      </trkpt>
      <trkpt lat="45.2597" lon="6.50575">
        <ele>2521.3999023438</ele>
        <time>2021-01-24T12:27:33.000Z</time>
      </trkpt>
      <trkpt lat="45.2597" lon="6.50576">
        <ele>2522</ele>
        <time>2021-01-24T12:27:34.000Z</time>
      </trkpt>
      <trkpt lat="45.25969" lon="6.50576">
        <ele>2522.3999023438</ele>
        <time>2021-01-24T12:27:35.000Z</time>
      </trkpt>
      <trkpt lat="45.25967" lon="6.50581">
        <ele>2523.8000488281</ele>
        <time>2021-01-24T12:27:41.000Z</time>
      </trkpt>
      <trkpt lat="45.25967" lon="6.50582">
        <ele>2524.8000488281</ele>
        <time>2021-01-24T12:27:43.000Z</time>
      </trkpt>
      <trkpt lat="45.25966" lon="6.50586">
        <ele>2525.3999023438</ele>
        <time>2021-01-24T12:27:47.000Z</time>
      </trkpt>
      <trkpt lat="45.25966" lon="6.50591">
        <ele>2525.3999023438</ele>
        <time>2021-01-24T12:27:53.000Z</time>
      </trkpt>
      <trkpt lat="45.25967" lon="6.50594">
        <ele>2525.8000488281</ele>
        <time>2021-01-24T12:27:57.000Z</time>
      </trkpt>
      <trkpt lat="45.25968" lon="6.50596">
        <ele>2525.1999511719</ele>
        <time>2021-01-24T12:28:00.000Z</time>
      </trkpt>
      <trkpt lat="45.2597" lon="6.50597">
        <ele>2524.8000488281</ele>
        <time>2021-01-24T12:28:03.000Z</time>
      </trkpt>
      <trkpt lat="45.2597" lon="6.50597">
        <ele>2525.1999511719</ele>
        <time>2021-01-24T12:28:09.000Z</time>
      </trkpt>
      <trkpt lat="45.25972" lon="6.50599">
        <ele>2525.3999023438</ele>
        <time>2021-01-24T12:28:18.000Z</time>
      </trkpt>
      <trkpt lat="45.25972" lon="6.50599">
        <ele>2526</ele>
        <time>2021-01-24T12:28:20.000Z</time>
      </trkpt>
      <trkpt lat="45.25973" lon="6.50601">
        <ele>2527.1999511719</ele>
        <time>2021-01-24T12:28:25.000Z</time>
      </trkpt>
      <trkpt lat="45.25973" lon="6.50602">
        <ele>2527.3999023438</ele>
        <time>2021-01-24T12:28:26.000Z</time>
      </trkpt>
      <trkpt lat="45.25972" lon="6.50604">
        <ele>2528.1999511719</ele>
        <time>2021-01-24T12:28:28.000Z</time>
      </trkpt>
      <trkpt lat="45.25973" lon="6.50606">
        <ele>2530.1999511719</ele>
        <time>2021-01-24T12:28:30.000Z</time>
      </trkpt>
      <trkpt lat="45.25974" lon="6.50612">
        <ele>2530.3999023438</ele>
        <time>2021-01-24T12:28:34.000Z</time>
      </trkpt>
      <trkpt lat="45.25977" lon="6.5062">
        <ele>2530.1999511719</ele>
        <time>2021-01-24T12:28:41.000Z</time>
      </trkpt>
      <trkpt lat="45.25977" lon="6.50623">
        <ele>2531.3999023438</ele>
        <time>2021-01-24T12:28:44.000Z</time>
      </trkpt>
      <trkpt lat="45.25978" lon="6.50624">
        <ele>2532.1999511719</ele>
        <time>2021-01-24T12:28:48.000Z</time>
      </trkpt>
      <trkpt lat="45.25978" lon="6.50624">
        <ele>2532.3999023438</ele>
        <time>2021-01-24T12:28:50.000Z</time>
      </trkpt>
      <trkpt lat="45.25978" lon="6.50624">
        <ele>2532.3999023438</ele>
        <time>2021-01-24T12:29:02.000Z</time>
      </trkpt>
      <trkpt lat="45.25978" lon="6.50624">
        <ele>2532.8000488281</ele>
        <time>2021-01-24T12:29:16.000Z</time>
      </trkpt>
      <trkpt lat="45.25978" lon="6.50624">
        <ele>2533.3999023438</ele>
        <time>2021-01-24T12:29:27.000Z</time>
      </trkpt>
      <trkpt lat="45.25978" lon="6.50624">
        <ele>2533.6000976562</ele>
        <time>2021-01-24T12:29:28.000Z</time>
      </trkpt>
      <trkpt lat="45.25978" lon="6.50624">
        <ele>2532.3999023438</ele>
        <time>2021-01-24T12:29:41.000Z</time>
      </trkpt>
      <trkpt lat="45.25978" lon="6.50624">
        <ele>2532.1999511719</ele>
        <time>2021-01-24T12:29:44.000Z</time>
      </trkpt>
      <trkpt lat="45.25978" lon="6.50624">
        <ele>2532.1999511719</ele>
        <time>2021-01-24T12:30:02.000Z</time>
      </trkpt>
      <trkpt lat="45.25977" lon="6.50623">
        <ele>2532.1999511719</ele>
        <time>2021-01-24T12:30:19.000Z</time>
      </trkpt>
      <trkpt lat="45.25977" lon="6.50623">
        <ele>2532.3999023438</ele>
        <time>2021-01-24T12:30:32.000Z</time>
      </trkpt>
      <trkpt lat="45.25977" lon="6.50623">
        <ele>2533</ele>
        <time>2021-01-24T12:30:49.000Z</time>
      </trkpt>
      <trkpt lat="45.25977" lon="6.50623">
        <ele>2533.3999023438</ele>
        <time>2021-01-24T12:30:57.000Z</time>
      </trkpt>
      <trkpt lat="45.25977" lon="6.50623">
        <ele>2533.8000488281</ele>
        <time>2021-01-24T12:31:01.000Z</time>
      </trkpt>
      <trkpt lat="45.25974" lon="6.50626">
        <ele>2534</ele>
        <time>2021-01-24T12:31:10.000Z</time>
      </trkpt>
      <trkpt lat="45.25972" lon="6.50626">
        <ele>2534.6000976562</ele>
        <time>2021-01-24T12:31:12.000Z</time>
      </trkpt>
      <trkpt lat="45.25971" lon="6.5063">
        <ele>2535.6000976562</ele>
        <time>2021-01-24T12:31:16.000Z</time>
      </trkpt>
      <trkpt lat="45.25971" lon="6.50631">
        <ele>2536</ele>
        <time>2021-01-24T12:31:17.000Z</time>
      </trkpt>
      <trkpt lat="45.25972" lon="6.50634">
        <ele>2536.8000488281</ele>
        <time>2021-01-24T12:31:19.000Z</time>
      </trkpt>
      <trkpt lat="45.25973" lon="6.50636">
        <ele>2537.1999511719</ele>
        <time>2021-01-24T12:31:20.000Z</time>
      </trkpt>
      <trkpt lat="45.25974" lon="6.50638">
        <ele>2537.6000976562</ele>
        <time>2021-01-24T12:31:22.000Z</time>
      </trkpt>
      <trkpt lat="45.25976" lon="6.50644">
        <ele>2538.3999023438</ele>
        <time>2021-01-24T12:31:27.000Z</time>
      </trkpt>
      <trkpt lat="45.25976" lon="6.50646">
        <ele>2538.8000488281</ele>
        <time>2021-01-24T12:31:28.000Z</time>
      </trkpt>
      <trkpt lat="45.25977" lon="6.50649">
        <ele>2539.3999023438</ele>
        <time>2021-01-24T12:31:31.000Z</time>
      </trkpt>
      <trkpt lat="45.25979" lon="6.50653">
        <ele>2539.8000488281</ele>
        <time>2021-01-24T12:31:34.000Z</time>
      </trkpt>
      <trkpt lat="45.25979" lon="6.50656">
        <ele>2540.3999023438</ele>
        <time>2021-01-24T12:31:39.000Z</time>
      </trkpt>
      <trkpt lat="45.25979" lon="6.50656">
        <ele>2541</ele>
        <time>2021-01-24T12:31:41.000Z</time>
      </trkpt>
      <trkpt lat="45.25979" lon="6.50656">
        <ele>2541.6000976562</ele>
        <time>2021-01-24T12:31:46.000Z</time>
      </trkpt>
      <trkpt lat="45.25979" lon="6.50656">
        <ele>2542.6000976562</ele>
        <time>2021-01-24T12:31:51.000Z</time>
      </trkpt>
      <trkpt lat="45.2598" lon="6.50658">
        <ele>2542.3999023438</ele>
        <time>2021-01-24T12:31:54.000Z</time>
      </trkpt>
      <trkpt lat="45.25981" lon="6.50661">
        <ele>2541.6000976562</ele>
        <time>2021-01-24T12:31:58.000Z</time>
      </trkpt>
      <trkpt lat="45.25982" lon="6.50664">
        <ele>2541.6000976562</ele>
        <time>2021-01-24T12:32:00.000Z</time>
      </trkpt>
      <trkpt lat="45.25985" lon="6.50668">
        <ele>2542.6000976562</ele>
        <time>2021-01-24T12:32:05.000Z</time>
      </trkpt>
      <trkpt lat="45.25985" lon="6.5067">
        <ele>2542.8000488281</ele>
        <time>2021-01-24T12:32:08.000Z</time>
      </trkpt>
      <trkpt lat="45.25985" lon="6.50673">
        <ele>2544</ele>
        <time>2021-01-24T12:32:10.000Z</time>
      </trkpt>
      <trkpt lat="45.25986" lon="6.50675">
        <ele>2545.1999511719</ele>
        <time>2021-01-24T12:32:12.000Z</time>
      </trkpt>
      <trkpt lat="45.25986" lon="6.50678">
        <ele>2546.1999511719</ele>
        <time>2021-01-24T12:32:14.000Z</time>
      </trkpt>
      <trkpt lat="45.25986" lon="6.50681">
        <ele>2546.6000976562</ele>
        <time>2021-01-24T12:32:16.000Z</time>
      </trkpt>
      <trkpt lat="45.25987" lon="6.50687">
        <ele>2547.3999023438</ele>
        <time>2021-01-24T12:32:21.000Z</time>
      </trkpt>
      <trkpt lat="45.25988" lon="6.50691">
        <ele>2547.6000976562</ele>
        <time>2021-01-24T12:32:25.000Z</time>
      </trkpt>
      <trkpt lat="45.25991" lon="6.50696">
        <ele>2547</ele>
        <time>2021-01-24T12:32:32.000Z</time>
      </trkpt>
      <trkpt lat="45.25994" lon="6.50701">
        <ele>2548.6000976562</ele>
        <time>2021-01-24T12:32:39.000Z</time>
      </trkpt>
      <trkpt lat="45.25995" lon="6.50706">
        <ele>2549.6000976562</ele>
        <time>2021-01-24T12:32:44.000Z</time>
      </trkpt>
      <trkpt lat="45.25995" lon="6.50706">
        <ele>2549.8000488281</ele>
        <time>2021-01-24T12:32:45.000Z</time>
      </trkpt>
      <trkpt lat="45.25996" lon="6.50708">
        <ele>2550.6000976562</ele>
        <time>2021-01-24T12:32:49.000Z</time>
      </trkpt>
      <trkpt lat="45.25996" lon="6.50708">
        <ele>2551.6000976562</ele>
        <time>2021-01-24T12:32:54.000Z</time>
      </trkpt>
      <trkpt lat="45.25998" lon="6.50713">
        <ele>2552.8000488281</ele>
        <time>2021-01-24T12:33:00.000Z</time>
      </trkpt>
      <trkpt lat="45.25999" lon="6.50714">
        <ele>2553</ele>
        <time>2021-01-24T12:33:01.000Z</time>
      </trkpt>
      <trkpt lat="45.26" lon="6.50716">
        <ele>2553.8000488281</ele>
        <time>2021-01-24T12:33:03.000Z</time>
      </trkpt>
      <trkpt lat="45.26001" lon="6.50718">
        <ele>2554.6000976562</ele>
        <time>2021-01-24T12:33:05.000Z</time>
      </trkpt>
      <trkpt lat="45.26002" lon="6.50721">
        <ele>2554.8000488281</ele>
        <time>2021-01-24T12:33:07.000Z</time>
      </trkpt>
      <trkpt lat="45.26006" lon="6.50725">
        <ele>2554.8000488281</ele>
        <time>2021-01-24T12:33:15.000Z</time>
      </trkpt>
      <trkpt lat="45.26009" lon="6.50731">
        <ele>2555.6000976562</ele>
        <time>2021-01-24T12:33:22.000Z</time>
      </trkpt>
      <trkpt lat="45.26009" lon="6.50731">
        <ele>2555.8000488281</ele>
        <time>2021-01-24T12:33:23.000Z</time>
      </trkpt>
      <trkpt lat="45.2601" lon="6.50733">
        <ele>2556.8000488281</ele>
        <time>2021-01-24T12:33:26.000Z</time>
      </trkpt>
      <trkpt lat="45.26011" lon="6.50736">
        <ele>2557.6000976562</ele>
        <time>2021-01-24T12:33:31.000Z</time>
      </trkpt>
      <trkpt lat="45.26011" lon="6.50738">
        <ele>2558</ele>
        <time>2021-01-24T12:33:33.000Z</time>
      </trkpt>
      <trkpt lat="45.26009" lon="6.50739">
        <ele>2559.1999511719</ele>
        <time>2021-01-24T12:33:35.000Z</time>
      </trkpt>
      <trkpt lat="45.26008" lon="6.5074">
        <ele>2560.6000976562</ele>
        <time>2021-01-24T12:33:37.000Z</time>
      </trkpt>
      <trkpt lat="45.26008" lon="6.50741">
        <ele>2561</ele>
        <time>2021-01-24T12:33:38.000Z</time>
      </trkpt>
      <trkpt lat="45.26007" lon="6.50742">
        <ele>2561.8000488281</ele>
        <time>2021-01-24T12:33:40.000Z</time>
      </trkpt>
      <trkpt lat="45.26005" lon="6.50744">
        <ele>2562.1999511719</ele>
        <time>2021-01-24T12:33:44.000Z</time>
      </trkpt>
      <trkpt lat="45.26005" lon="6.50745">
        <ele>2563</ele>
        <time>2021-01-24T12:33:46.000Z</time>
      </trkpt>
      <trkpt lat="45.26002" lon="6.50749">
        <ele>2564</ele>
        <time>2021-01-24T12:33:51.000Z</time>
      </trkpt>
      <trkpt lat="45.26002" lon="6.5075">
        <ele>2564.1999511719</ele>
        <time>2021-01-24T12:33:52.000Z</time>
      </trkpt>
      <trkpt lat="45.25999" lon="6.50753">
        <ele>2565</ele>
        <time>2021-01-24T12:33:58.000Z</time>
      </trkpt>
      <trkpt lat="45.25999" lon="6.50754">
        <ele>2565.1999511719</ele>
        <time>2021-01-24T12:33:59.000Z</time>
      </trkpt>
      <trkpt lat="45.25998" lon="6.50757">
        <ele>2566.1999511719</ele>
        <time>2021-01-24T12:34:03.000Z</time>
      </trkpt>
      <trkpt lat="45.25997" lon="6.50758">
        <ele>2567</ele>
        <time>2021-01-24T12:34:05.000Z</time>
      </trkpt>
      <trkpt lat="45.25997" lon="6.50759">
        <ele>2567.3999023438</ele>
        <time>2021-01-24T12:34:06.000Z</time>
      </trkpt>
      <trkpt lat="45.25996" lon="6.50761">
        <ele>2568.6000976562</ele>
        <time>2021-01-24T12:34:09.000Z</time>
      </trkpt>
      <trkpt lat="45.25994" lon="6.50762">
        <ele>2569.3999023438</ele>
        <time>2021-01-24T12:34:12.000Z</time>
      </trkpt>
      <trkpt lat="45.25994" lon="6.50763">
        <ele>2569.6000976562</ele>
        <time>2021-01-24T12:34:13.000Z</time>
      </trkpt>
      <trkpt lat="45.25991" lon="6.50768">
        <ele>2570.1999511719</ele>
        <time>2021-01-24T12:34:18.000Z</time>
      </trkpt>
      <trkpt lat="45.2599" lon="6.5077">
        <ele>2570.8000488281</ele>
        <time>2021-01-24T12:34:22.000Z</time>
      </trkpt>
      <trkpt lat="45.25988" lon="6.50772">
        <ele>2571.3999023438</ele>
        <time>2021-01-24T12:34:25.000Z</time>
      </trkpt>
      <trkpt lat="45.25987" lon="6.50776">
        <ele>2572</ele>
        <time>2021-01-24T12:34:28.000Z</time>
      </trkpt>
      <trkpt lat="45.25986" lon="6.50778">
        <ele>2573</ele>
        <time>2021-01-24T12:34:32.000Z</time>
      </trkpt>
      <trkpt lat="45.25986" lon="6.50779">
        <ele>2573</ele>
        <time>2021-01-24T12:34:33.000Z</time>
      </trkpt>
      <trkpt lat="45.25984" lon="6.50781">
        <ele>2574.1999511719</ele>
        <time>2021-01-24T12:34:39.000Z</time>
      </trkpt>
      <trkpt lat="45.25981" lon="6.50784">
        <ele>2575</ele>
        <time>2021-01-24T12:34:46.000Z</time>
      </trkpt>
      <trkpt lat="45.2598" lon="6.50785">
        <ele>2575.1999511719</ele>
        <time>2021-01-24T12:34:47.000Z</time>
      </trkpt>
      <trkpt lat="45.25979" lon="6.50786">
        <ele>2576.6000976562</ele>
        <time>2021-01-24T12:34:50.000Z</time>
      </trkpt>
      <trkpt lat="45.25979" lon="6.50789">
        <ele>2577.3999023438</ele>
        <time>2021-01-24T12:34:52.000Z</time>
      </trkpt>
      <trkpt lat="45.25978" lon="6.5079">
        <ele>2577.6000976562</ele>
        <time>2021-01-24T12:34:54.000Z</time>
      </trkpt>
      <trkpt lat="45.25977" lon="6.50794">
        <ele>2578.8000488281</ele>
        <time>2021-01-24T12:34:58.000Z</time>
      </trkpt>
      <trkpt lat="45.25976" lon="6.50795">
        <ele>2579.3999023438</ele>
        <time>2021-01-24T12:35:00.000Z</time>
      </trkpt>
      <trkpt lat="45.25975" lon="6.50797">
        <ele>2579.8000488281</ele>
        <time>2021-01-24T12:35:02.000Z</time>
      </trkpt>
      <trkpt lat="45.25974" lon="6.50799">
        <ele>2580.1999511719</ele>
        <time>2021-01-24T12:35:06.000Z</time>
      </trkpt>
      <trkpt lat="45.25973" lon="6.50802">
        <ele>2580.8000488281</ele>
        <time>2021-01-24T12:35:10.000Z</time>
      </trkpt>
      <trkpt lat="45.25972" lon="6.50805">
        <ele>2582</ele>
        <time>2021-01-24T12:35:14.000Z</time>
      </trkpt>
      <trkpt lat="45.25971" lon="6.50808">
        <ele>2583.1999511719</ele>
        <time>2021-01-24T12:35:17.000Z</time>
      </trkpt>
      <trkpt lat="45.2597" lon="6.5081">
        <ele>2584.3999023438</ele>
        <time>2021-01-24T12:35:20.000Z</time>
      </trkpt>
      <trkpt lat="45.25969" lon="6.50813">
        <ele>2585.6000976562</ele>
        <time>2021-01-24T12:35:24.000Z</time>
      </trkpt>
      <trkpt lat="45.25969" lon="6.50816">
        <ele>2586.1999511719</ele>
        <time>2021-01-24T12:35:28.000Z</time>
      </trkpt>
      <trkpt lat="45.25968" lon="6.50821">
        <ele>2586.8000488281</ele>
        <time>2021-01-24T12:35:33.000Z</time>
      </trkpt>
      <trkpt lat="45.25968" lon="6.50824">
        <ele>2587.6000976562</ele>
        <time>2021-01-24T12:35:37.000Z</time>
      </trkpt>
      <trkpt lat="45.25968" lon="6.50825">
        <ele>2588</ele>
        <time>2021-01-24T12:35:38.000Z</time>
      </trkpt>
      <trkpt lat="45.25965" lon="6.50831">
        <ele>2588.8000488281</ele>
        <time>2021-01-24T12:35:44.000Z</time>
      </trkpt>
      <trkpt lat="45.25965" lon="6.50831">
        <ele>2589</ele>
        <time>2021-01-24T12:35:45.000Z</time>
      </trkpt>
      <trkpt lat="45.25962" lon="6.50834">
        <ele>2590</ele>
        <time>2021-01-24T12:35:49.000Z</time>
      </trkpt>
      <trkpt lat="45.25962" lon="6.50835">
        <ele>2590.1999511719</ele>
        <time>2021-01-24T12:35:50.000Z</time>
      </trkpt>
      <trkpt lat="45.2596" lon="6.5084">
        <ele>2590.8000488281</ele>
        <time>2021-01-24T12:35:56.000Z</time>
      </trkpt>
      <trkpt lat="45.25958" lon="6.50844">
        <ele>2591.1999511719</ele>
        <time>2021-01-24T12:35:59.000Z</time>
      </trkpt>
      <trkpt lat="45.25956" lon="6.50847">
        <ele>2591.6000976562</ele>
        <time>2021-01-24T12:36:04.000Z</time>
      </trkpt>
      <trkpt lat="45.25955" lon="6.50851">
        <ele>2591.8000488281</ele>
        <time>2021-01-24T12:36:09.000Z</time>
      </trkpt>
      <trkpt lat="45.25953" lon="6.50854">
        <ele>2592.1999511719</ele>
        <time>2021-01-24T12:36:12.000Z</time>
      </trkpt>
      <trkpt lat="45.25951" lon="6.50858">
        <ele>2592.3999023438</ele>
        <time>2021-01-24T12:36:16.000Z</time>
      </trkpt>
      <trkpt lat="45.25948" lon="6.50862">
        <ele>2593.1999511719</ele>
        <time>2021-01-24T12:36:24.000Z</time>
      </trkpt>
      <trkpt lat="45.25946" lon="6.50864">
        <ele>2594.3999023438</ele>
        <time>2021-01-24T12:36:29.000Z</time>
      </trkpt>
      <trkpt lat="45.25945" lon="6.50865">
        <ele>2595</ele>
        <time>2021-01-24T12:36:31.000Z</time>
      </trkpt>
      <trkpt lat="45.25944" lon="6.50867">
        <ele>2595.8000488281</ele>
        <time>2021-01-24T12:36:34.000Z</time>
      </trkpt>
      <trkpt lat="45.25943" lon="6.50869">
        <ele>2596.1999511719</ele>
        <time>2021-01-24T12:36:37.000Z</time>
      </trkpt>
      <trkpt lat="45.25942" lon="6.50872">
        <ele>2597</ele>
        <time>2021-01-24T12:36:41.000Z</time>
      </trkpt>
      <trkpt lat="45.25941" lon="6.50874">
        <ele>2597.6000976562</ele>
        <time>2021-01-24T12:36:43.000Z</time>
      </trkpt>
      <trkpt lat="45.25942" lon="6.50877">
        <ele>2598</ele>
        <time>2021-01-24T12:36:46.000Z</time>
      </trkpt>
      <trkpt lat="45.25942" lon="6.50878">
        <ele>2598.3999023438</ele>
        <time>2021-01-24T12:36:49.000Z</time>
      </trkpt>
      <trkpt lat="45.25943" lon="6.50884">
        <ele>2599</ele>
        <time>2021-01-24T12:36:57.000Z</time>
      </trkpt>
      <trkpt lat="45.25943" lon="6.50888">
        <ele>2600.1999511719</ele>
        <time>2021-01-24T12:37:03.000Z</time>
      </trkpt>
      <trkpt lat="45.25944" lon="6.50889">
        <ele>2600.3999023438</ele>
        <time>2021-01-24T12:37:04.000Z</time>
      </trkpt>
      <trkpt lat="45.25947" lon="6.50891">
        <ele>2600.8000488281</ele>
        <time>2021-01-24T12:37:12.000Z</time>
      </trkpt>
      <trkpt lat="45.25948" lon="6.50893">
        <ele>2601.3999023438</ele>
        <time>2021-01-24T12:37:17.000Z</time>
      </trkpt>
      <trkpt lat="45.25951" lon="6.50896">
        <ele>2602.1999511719</ele>
        <time>2021-01-24T12:37:22.000Z</time>
      </trkpt>
      <trkpt lat="45.25951" lon="6.50896">
        <ele>2602.6000976562</ele>
        <time>2021-01-24T12:37:23.000Z</time>
      </trkpt>
      <trkpt lat="45.25955" lon="6.509">
        <ele>2603.6000976562</ele>
        <time>2021-01-24T12:37:30.000Z</time>
      </trkpt>
      <trkpt lat="45.25955" lon="6.509">
        <ele>2603.8000488281</ele>
        <time>2021-01-24T12:37:32.000Z</time>
      </trkpt>
      <trkpt lat="45.25956" lon="6.50902">
        <ele>2605</ele>
        <time>2021-01-24T12:37:36.000Z</time>
      </trkpt>
      <trkpt lat="45.25957" lon="6.50904">
        <ele>2606</ele>
        <time>2021-01-24T12:37:39.000Z</time>
      </trkpt>
      <trkpt lat="45.25958" lon="6.50905">
        <ele>2606.6000976562</ele>
        <time>2021-01-24T12:37:41.000Z</time>
      </trkpt>
      <trkpt lat="45.25958" lon="6.50906">
        <ele>2607.1999511719</ele>
        <time>2021-01-24T12:37:44.000Z</time>
      </trkpt>
      <trkpt lat="45.25959" lon="6.50908">
        <ele>2608</ele>
        <time>2021-01-24T12:37:48.000Z</time>
      </trkpt>
      <trkpt lat="45.25959" lon="6.50909">
        <ele>2608.3999023438</ele>
        <time>2021-01-24T12:37:50.000Z</time>
      </trkpt>
      <trkpt lat="45.25962" lon="6.50914">
        <ele>2609.1999511719</ele>
        <time>2021-01-24T12:37:58.000Z</time>
      </trkpt>
      <trkpt lat="45.25962" lon="6.50914">
        <ele>2609.3999023438</ele>
        <time>2021-01-24T12:37:59.000Z</time>
      </trkpt>
      <trkpt lat="45.25966" lon="6.50918">
        <ele>2610.3999023438</ele>
        <time>2021-01-24T12:38:05.000Z</time>
      </trkpt>
      <trkpt lat="45.25966" lon="6.50919">
        <ele>2610.8000488281</ele>
        <time>2021-01-24T12:38:06.000Z</time>
      </trkpt>
      <trkpt lat="45.25967" lon="6.5092">
        <ele>2611.6000976562</ele>
        <time>2021-01-24T12:38:09.000Z</time>
      </trkpt>
      <trkpt lat="45.25968" lon="6.50922">
        <ele>2612.1999511719</ele>
        <time>2021-01-24T12:38:13.000Z</time>
      </trkpt>
      <trkpt lat="45.2597" lon="6.50924">
        <ele>2612.6000976562</ele>
        <time>2021-01-24T12:38:18.000Z</time>
      </trkpt>
      <trkpt lat="45.25971" lon="6.50925">
        <ele>2613.3999023438</ele>
        <time>2021-01-24T12:38:21.000Z</time>
      </trkpt>
      <trkpt lat="45.25973" lon="6.50927">
        <ele>2613.6000976562</ele>
        <time>2021-01-24T12:38:24.000Z</time>
      </trkpt>
      <trkpt lat="45.25974" lon="6.5093">
        <ele>2613.8000488281</ele>
        <time>2021-01-24T12:38:28.000Z</time>
      </trkpt>
      <trkpt lat="45.25977" lon="6.50934">
        <ele>2614.6000976562</ele>
        <time>2021-01-24T12:38:34.000Z</time>
      </trkpt>
      <trkpt lat="45.25977" lon="6.50935">
        <ele>2615</ele>
        <time>2021-01-24T12:38:35.000Z</time>
      </trkpt>
      <trkpt lat="45.2598" lon="6.5094">
        <ele>2615.6000976562</ele>
        <time>2021-01-24T12:38:42.000Z</time>
      </trkpt>
      <trkpt lat="45.25981" lon="6.5094">
        <ele>2616</ele>
        <time>2021-01-24T12:38:43.000Z</time>
      </trkpt>
      <trkpt lat="45.25984" lon="6.50943">
        <ele>2616.8000488281</ele>
        <time>2021-01-24T12:38:48.000Z</time>
      </trkpt>
      <trkpt lat="45.25985" lon="6.50944">
        <ele>2617</ele>
        <time>2021-01-24T12:38:51.000Z</time>
      </trkpt>
      <trkpt lat="45.25987" lon="6.50945">
        <ele>2618</ele>
        <time>2021-01-24T12:38:56.000Z</time>
      </trkpt>
      <trkpt lat="45.25987" lon="6.50945">
        <ele>2618.3999023438</ele>
        <time>2021-01-24T12:38:58.000Z</time>
      </trkpt>
      <trkpt lat="45.25987" lon="6.50945">
        <ele>2619.6000976562</ele>
        <time>2021-01-24T12:38:59.000Z</time>
      </trkpt>
      <trkpt lat="45.25984" lon="6.50946">
        <ele>2620.8000488281</ele>
        <time>2021-01-24T12:39:02.000Z</time>
      </trkpt>
      <trkpt lat="45.2598" lon="6.50946">
        <ele>2621.1999511719</ele>
        <time>2021-01-24T12:39:06.000Z</time>
      </trkpt>
      <trkpt lat="45.25975" lon="6.50948">
        <ele>2621.6000976562</ele>
        <time>2021-01-24T12:39:13.000Z</time>
      </trkpt>
      <trkpt lat="45.25973" lon="6.50948">
        <ele>2621.8000488281</ele>
        <time>2021-01-24T12:39:16.000Z</time>
      </trkpt>
      <trkpt lat="45.2597" lon="6.50949">
        <ele>2622.1999511719</ele>
        <time>2021-01-24T12:39:21.000Z</time>
      </trkpt>
      <trkpt lat="45.25968" lon="6.50949">
        <ele>2622.8000488281</ele>
        <time>2021-01-24T12:39:25.000Z</time>
      </trkpt>
      <trkpt lat="45.25968" lon="6.50949">
        <ele>2623.3999023438</ele>
        <time>2021-01-24T12:39:29.000Z</time>
      </trkpt>
      <trkpt lat="45.25972" lon="6.50951">
        <ele>2623</ele>
        <time>2021-01-24T12:39:38.000Z</time>
      </trkpt>
      <trkpt lat="45.25976" lon="6.50955">
        <ele>2623.8000488281</ele>
        <time>2021-01-24T12:39:44.000Z</time>
      </trkpt>
      <trkpt lat="45.25978" lon="6.50958">
        <ele>2624.8000488281</ele>
        <time>2021-01-24T12:39:48.000Z</time>
      </trkpt>
      <trkpt lat="45.25979" lon="6.50958">
        <ele>2625</ele>
        <time>2021-01-24T12:39:49.000Z</time>
      </trkpt>
      <trkpt lat="45.25981" lon="6.50961">
        <ele>2626</ele>
        <time>2021-01-24T12:39:55.000Z</time>
      </trkpt>
      <trkpt lat="45.25981" lon="6.50961">
        <ele>2626.1999511719</ele>
        <time>2021-01-24T12:39:56.000Z</time>
      </trkpt>
      <trkpt lat="45.25984" lon="6.50964">
        <ele>2627</ele>
        <time>2021-01-24T12:40:01.000Z</time>
      </trkpt>
      <trkpt lat="45.25985" lon="6.50965">
        <ele>2628.1999511719</ele>
        <time>2021-01-24T12:40:05.000Z</time>
      </trkpt>
      <trkpt lat="45.25985" lon="6.50965">
        <ele>2628.6000976562</ele>
        <time>2021-01-24T12:40:06.000Z</time>
      </trkpt>
      <trkpt lat="45.25985" lon="6.50965">
        <ele>2629.3999023438</ele>
        <time>2021-01-24T12:40:08.000Z</time>
      </trkpt>
      <trkpt lat="45.25984" lon="6.50965">
        <ele>2630.6000976562</ele>
        <time>2021-01-24T12:40:12.000Z</time>
      </trkpt>
      <trkpt lat="45.25981" lon="6.50966">
        <ele>2630.1999511719</ele>
        <time>2021-01-24T12:40:16.000Z</time>
      </trkpt>
      <trkpt lat="45.25974" lon="6.50968">
        <ele>2631.6000976562</ele>
        <time>2021-01-24T12:40:25.000Z</time>
      </trkpt>
      <trkpt lat="45.25973" lon="6.50967">
        <ele>2631.6000976562</ele>
        <time>2021-01-24T12:40:27.000Z</time>
      </trkpt>
      <trkpt lat="45.2597" lon="6.50966">
        <ele>2632</ele>
        <time>2021-01-24T12:40:32.000Z</time>
      </trkpt>
      <trkpt lat="45.2597" lon="6.50966">
        <ele>2633</ele>
        <time>2021-01-24T12:40:36.000Z</time>
      </trkpt>
      <trkpt lat="45.25972" lon="6.50968">
        <ele>2633.1999511719</ele>
        <time>2021-01-24T12:40:41.000Z</time>
      </trkpt>
      <trkpt lat="45.25974" lon="6.50971">
        <ele>2634.1999511719</ele>
        <time>2021-01-24T12:40:45.000Z</time>
      </trkpt>
      <trkpt lat="45.25975" lon="6.50974">
        <ele>2635.3999023438</ele>
        <time>2021-01-24T12:40:49.000Z</time>
      </trkpt>
      <trkpt lat="45.25975" lon="6.50974">
        <ele>2635.6000976562</ele>
        <time>2021-01-24T12:40:50.000Z</time>
      </trkpt>
      <trkpt lat="45.25975" lon="6.50974">
        <ele>2636.3999023438</ele>
        <time>2021-01-24T12:40:53.000Z</time>
      </trkpt>
      <trkpt lat="45.25973" lon="6.50974">
        <ele>2637</ele>
        <time>2021-01-24T12:40:58.000Z</time>
      </trkpt>
      <trkpt lat="45.25971" lon="6.50975">
        <ele>2637.6000976562</ele>
        <time>2021-01-24T12:41:03.000Z</time>
      </trkpt>
      <trkpt lat="45.2597" lon="6.50977">
        <ele>2638.1999511719</ele>
        <time>2021-01-24T12:41:05.000Z</time>
      </trkpt>
      <trkpt lat="45.25969" lon="6.50979">
        <ele>2638.8000488281</ele>
        <time>2021-01-24T12:41:07.000Z</time>
      </trkpt>
      <trkpt lat="45.2597" lon="6.50982">
        <ele>2640.1999511719</ele>
        <time>2021-01-24T12:41:12.000Z</time>
      </trkpt>
      <trkpt lat="45.25971" lon="6.50984">
        <ele>2641.1999511719</ele>
        <time>2021-01-24T12:41:15.000Z</time>
      </trkpt>
      <trkpt lat="45.25976" lon="6.50986">
        <ele>2642.1999511719</ele>
        <time>2021-01-24T12:41:21.000Z</time>
      </trkpt>
      <trkpt lat="45.25977" lon="6.50986">
        <ele>2642.6000976562</ele>
        <time>2021-01-24T12:41:23.000Z</time>
      </trkpt>
      <trkpt lat="45.25977" lon="6.50987">
        <ele>2643.6000976562</ele>
        <time>2021-01-24T12:41:26.000Z</time>
      </trkpt>
      <trkpt lat="45.25977" lon="6.50987">
        <ele>2644.8000488281</ele>
        <time>2021-01-24T12:41:29.000Z</time>
      </trkpt>
      <trkpt lat="45.25977" lon="6.50987">
        <ele>2645.6000976562</ele>
        <time>2021-01-24T12:41:31.000Z</time>
      </trkpt>
      <trkpt lat="45.25977" lon="6.50987">
        <ele>2645.8000488281</ele>
        <time>2021-01-24T12:41:34.000Z</time>
      </trkpt>
      <trkpt lat="45.25977" lon="6.50987">
        <ele>2646</ele>
        <time>2021-01-24T12:41:44.000Z</time>
      </trkpt>
      <trkpt lat="45.25977" lon="6.50987">
        <ele>2646.3999023438</ele>
        <time>2021-01-24T12:41:57.000Z</time>
      </trkpt>
      <trkpt lat="45.25977" lon="6.50987">
        <ele>2644.8000488281</ele>
        <time>2021-01-24T12:42:05.000Z</time>
      </trkpt>
      <trkpt lat="45.25977" lon="6.50987">
        <ele>2645.1999511719</ele>
        <time>2021-01-24T12:42:12.000Z</time>
      </trkpt>
      <trkpt lat="45.2598" lon="6.5099">
        <ele>2644.6000976562</ele>
        <time>2021-01-24T12:42:19.000Z</time>
      </trkpt>
      <trkpt lat="45.2598" lon="6.50991">
        <ele>2644.6000976562</ele>
        <time>2021-01-24T12:42:32.000Z</time>
      </trkpt>
      <trkpt lat="45.25981" lon="6.50993">
        <ele>2643.8000488281</ele>
        <time>2021-01-24T12:42:41.000Z</time>
      </trkpt>
      <trkpt lat="45.25981" lon="6.50993">
        <ele>2643.8000488281</ele>
        <time>2021-01-24T12:42:56.000Z</time>
      </trkpt>
      <trkpt lat="45.2598" lon="6.50992">
        <ele>2643.8000488281</ele>
        <time>2021-01-24T12:43:04.000Z</time>
      </trkpt>
      <trkpt lat="45.25978" lon="6.50989">
        <ele>2643.3999023438</ele>
        <time>2021-01-24T12:43:12.000Z</time>
      </trkpt>
      <trkpt lat="45.25975" lon="6.50985">
        <ele>2645</ele>
        <time>2021-01-24T12:43:17.000Z</time>
      </trkpt>
      <trkpt lat="45.25972" lon="6.50981">
        <ele>2645</ele>
        <time>2021-01-24T12:43:19.000Z</time>
      </trkpt>
      <trkpt lat="45.2597" lon="6.5098">
        <ele>2643.1999511719</ele>
        <time>2021-01-24T12:43:22.000Z</time>
      </trkpt>
      <trkpt lat="45.2597" lon="6.5098">
        <ele>2642.1999511719</ele>
        <time>2021-01-24T12:43:23.000Z</time>
      </trkpt>
      <trkpt lat="45.2597" lon="6.5098">
        <ele>2641.1999511719</ele>
        <time>2021-01-24T12:43:24.000Z</time>
      </trkpt>
      <trkpt lat="45.2597" lon="6.5098">
        <ele>2641.1999511719</ele>
        <time>2021-01-24T12:43:31.000Z</time>
      </trkpt>
      <trkpt lat="45.25966" lon="6.50978">
        <ele>2642.3999023438</ele>
        <time>2021-01-24T12:43:38.000Z</time>
      </trkpt>
      <trkpt lat="45.25966" lon="6.50978">
        <ele>2643.6000976562</ele>
        <time>2021-01-24T12:43:42.000Z</time>
      </trkpt>
      <trkpt lat="45.25966" lon="6.50978">
        <ele>2643.3999023438</ele>
        <time>2021-01-24T12:43:49.000Z</time>
      </trkpt>
      <trkpt lat="45.25966" lon="6.50978">
        <ele>2642.1999511719</ele>
        <time>2021-01-24T12:43:55.000Z</time>
      </trkpt>
      <trkpt lat="45.25966" lon="6.50978">
        <ele>2641</ele>
        <time>2021-01-24T12:43:58.000Z</time>
      </trkpt>
      <trkpt lat="45.25964" lon="6.50975">
        <ele>2642.3999023438</ele>
        <time>2021-01-24T12:44:02.000Z</time>
      </trkpt>
      <trkpt lat="45.25963" lon="6.50974">
        <ele>2643.1999511719</ele>
        <time>2021-01-24T12:44:06.000Z</time>
      </trkpt>
      <trkpt lat="45.25963" lon="6.50974">
        <ele>2643.3999023438</ele>
        <time>2021-01-24T12:44:07.000Z</time>
      </trkpt>
      <trkpt lat="45.25963" lon="6.50974">
        <ele>2642.8000488281</ele>
        <time>2021-01-24T12:44:16.000Z</time>
      </trkpt>
      <trkpt lat="45.25963" lon="6.50974">
        <ele>2643.6000976562</ele>
        <time>2021-01-24T12:44:30.000Z</time>
      </trkpt>
      <trkpt lat="45.25963" lon="6.50974">
        <ele>2643.1999511719</ele>
        <time>2021-01-24T12:44:47.000Z</time>
      </trkpt>
      <trkpt lat="45.25963" lon="6.50974">
        <ele>2643.3999023438</ele>
        <time>2021-01-24T12:45:00.000Z</time>
      </trkpt>
      <trkpt lat="45.25963" lon="6.50974">
        <ele>2643.6000976562</ele>
        <time>2021-01-24T12:45:10.000Z</time>
      </trkpt>
      <trkpt lat="45.25963" lon="6.50974">
        <ele>2644.3999023438</ele>
        <time>2021-01-24T12:45:21.000Z</time>
      </trkpt>
      <trkpt lat="45.25962" lon="6.50974">
        <ele>2645</ele>
        <time>2021-01-24T12:45:24.000Z</time>
      </trkpt>
      <trkpt lat="45.25962" lon="6.50974">
        <ele>2644.6000976562</ele>
        <time>2021-01-24T12:45:34.000Z</time>
      </trkpt>
      <trkpt lat="45.25962" lon="6.50974">
        <ele>2644.3999023438</ele>
        <time>2021-01-24T12:45:47.000Z</time>
      </trkpt>
      <trkpt lat="45.25962" lon="6.50974">
        <ele>2644.8000488281</ele>
        <time>2021-01-24T12:46:03.000Z</time>
      </trkpt>
      <trkpt lat="45.25962" lon="6.50973">
        <ele>2644.6000976562</ele>
        <time>2021-01-24T12:46:15.000Z</time>
      </trkpt>
      <trkpt lat="45.25962" lon="6.50973">
        <ele>2643.3999023438</ele>
        <time>2021-01-24T12:46:23.000Z</time>
      </trkpt>
      <trkpt lat="45.25962" lon="6.50973">
        <ele>2643.1999511719</ele>
        <time>2021-01-24T12:46:24.000Z</time>
      </trkpt>
      <trkpt lat="45.25962" lon="6.50973">
        <ele>2643</ele>
        <time>2021-01-24T12:46:36.000Z</time>
      </trkpt>
      <trkpt lat="45.25962" lon="6.50971">
        <ele>2643.3999023438</ele>
        <time>2021-01-24T12:46:51.000Z</time>
      </trkpt>
      <trkpt lat="45.25962" lon="6.50971">
        <ele>2642.1999511719</ele>
        <time>2021-01-24T12:47:03.000Z</time>
      </trkpt>
      <trkpt lat="45.25963" lon="6.50969">
        <ele>2641.6000976562</ele>
        <time>2021-01-24T12:47:15.000Z</time>
      </trkpt>
      <trkpt lat="45.25963" lon="6.50969">
        <ele>2641.6000976562</ele>
        <time>2021-01-24T12:47:16.000Z</time>
      </trkpt>
      <trkpt lat="45.25963" lon="6.50969">
        <ele>2643.3999023438</ele>
        <time>2021-01-24T12:47:25.000Z</time>
      </trkpt>
      <trkpt lat="45.25963" lon="6.50969">
        <ele>2643.3999023438</ele>
        <time>2021-01-24T12:47:28.000Z</time>
      </trkpt>
      <trkpt lat="45.25963" lon="6.50969">
        <ele>2642.3999023438</ele>
        <time>2021-01-24T12:47:33.000Z</time>
      </trkpt>
      <trkpt lat="45.25963" lon="6.50969">
        <ele>2643.6000976562</ele>
        <time>2021-01-24T12:47:36.000Z</time>
      </trkpt>
      <trkpt lat="45.25963" lon="6.50969">
        <ele>2644.6000976562</ele>
        <time>2021-01-24T12:47:41.000Z</time>
      </trkpt>
      <trkpt lat="45.25963" lon="6.50969">
        <ele>2644.6000976562</ele>
        <time>2021-01-24T12:47:42.000Z</time>
      </trkpt>
      <trkpt lat="45.25963" lon="6.50969">
        <ele>2643.6000976562</ele>
        <time>2021-01-24T12:47:50.000Z</time>
      </trkpt>
      <trkpt lat="45.25963" lon="6.5097">
        <ele>2642.8000488281</ele>
        <time>2021-01-24T12:47:54.000Z</time>
      </trkpt>
      <trkpt lat="45.25963" lon="6.5097">
        <ele>2642.6000976562</ele>
        <time>2021-01-24T12:47:55.000Z</time>
      </trkpt>
      <trkpt lat="45.25963" lon="6.5097">
        <ele>2642.6000976562</ele>
        <time>2021-01-24T12:48:06.000Z</time>
      </trkpt>
      <trkpt lat="45.25961" lon="6.5097">
        <ele>2643.6000976562</ele>
        <time>2021-01-24T12:48:18.000Z</time>
      </trkpt>
      <trkpt lat="45.25961" lon="6.5097">
        <ele>2644.1999511719</ele>
        <time>2021-01-24T12:48:20.000Z</time>
      </trkpt>
      <trkpt lat="45.25961" lon="6.5097">
        <ele>2644.6000976562</ele>
        <time>2021-01-24T12:48:21.000Z</time>
      </trkpt>
      <trkpt lat="45.25961" lon="6.5097">
        <ele>2644</ele>
        <time>2021-01-24T12:48:29.000Z</time>
      </trkpt>
      <trkpt lat="45.25961" lon="6.5097">
        <ele>2643.6000976562</ele>
        <time>2021-01-24T12:48:31.000Z</time>
      </trkpt>
      <trkpt lat="45.25962" lon="6.50969">
        <ele>2644</ele>
        <time>2021-01-24T12:48:40.000Z</time>
      </trkpt>
      <trkpt lat="45.25962" lon="6.50969">
        <ele>2644.8000488281</ele>
        <time>2021-01-24T12:48:49.000Z</time>
      </trkpt>
      <trkpt lat="45.25962" lon="6.50969">
        <ele>2645.3999023438</ele>
        <time>2021-01-24T12:48:53.000Z</time>
      </trkpt>
      <trkpt lat="45.25962" lon="6.5097">
        <ele>2643.6000976562</ele>
        <time>2021-01-24T12:49:01.000Z</time>
      </trkpt>
      <trkpt lat="45.25962" lon="6.5097">
        <ele>2643.6000976562</ele>
        <time>2021-01-24T12:49:05.000Z</time>
      </trkpt>
      <trkpt lat="45.25962" lon="6.5097">
        <ele>2642.3999023438</ele>
        <time>2021-01-24T12:49:10.000Z</time>
      </trkpt>
      <trkpt lat="45.25962" lon="6.5097">
        <ele>2643</ele>
        <time>2021-01-24T12:49:21.000Z</time>
      </trkpt>
      <trkpt lat="45.25962" lon="6.5097">
        <ele>2643.8000488281</ele>
        <time>2021-01-24T12:49:35.000Z</time>
      </trkpt>
      <trkpt lat="45.25962" lon="6.5097">
        <ele>2644</ele>
        <time>2021-01-24T12:49:36.000Z</time>
      </trkpt>
      <trkpt lat="45.25962" lon="6.5097">
        <ele>2642.8000488281</ele>
        <time>2021-01-24T12:49:50.000Z</time>
      </trkpt>
      <trkpt lat="45.25962" lon="6.5097">
        <ele>2643.3999023438</ele>
        <time>2021-01-24T12:50:06.000Z</time>
      </trkpt>
      <trkpt lat="45.25962" lon="6.5097">
        <ele>2642.6000976562</ele>
        <time>2021-01-24T12:50:09.000Z</time>
      </trkpt>
      <trkpt lat="45.25964" lon="6.50974">
        <ele>2642</ele>
        <time>2021-01-24T12:50:13.000Z</time>
      </trkpt>
      <trkpt lat="45.25968" lon="6.50977">
        <ele>2641.6000976562</ele>
        <time>2021-01-24T12:50:19.000Z</time>
      </trkpt>
      <trkpt lat="45.25968" lon="6.50977">
        <ele>2641.8000488281</ele>
        <time>2021-01-24T12:50:23.000Z</time>
      </trkpt>
      <trkpt lat="45.25968" lon="6.50977">
        <ele>2640.3999023438</ele>
        <time>2021-01-24T12:50:34.000Z</time>
      </trkpt>
      <trkpt lat="45.25968" lon="6.50977">
        <ele>2640.3999023438</ele>
        <time>2021-01-24T12:50:46.000Z</time>
      </trkpt>
      <trkpt lat="45.25968" lon="6.50977">
        <ele>2639.3999023438</ele>
        <time>2021-01-24T12:50:56.000Z</time>
      </trkpt>
      <trkpt lat="45.25968" lon="6.50977">
        <ele>2641.1999511719</ele>
        <time>2021-01-24T12:51:10.000Z</time>
      </trkpt>
      <trkpt lat="45.25969" lon="6.50977">
        <ele>2640.1999511719</ele>
        <time>2021-01-24T12:51:20.000Z</time>
      </trkpt>
      <trkpt lat="45.25971" lon="6.50975">
        <ele>2639.8000488281</ele>
        <time>2021-01-24T12:51:21.000Z</time>
      </trkpt>
      <trkpt lat="45.25976" lon="6.50974">
        <ele>2638.8000488281</ele>
        <time>2021-01-24T12:51:23.000Z</time>
      </trkpt>
      <trkpt lat="45.25978" lon="6.50972">
        <ele>2638</ele>
        <time>2021-01-24T12:51:24.000Z</time>
      </trkpt>
      <trkpt lat="45.25978" lon="6.50968">
        <ele>2636.6000976562</ele>
        <time>2021-01-24T12:51:25.000Z</time>
      </trkpt>
      <trkpt lat="45.25975" lon="6.5096">
        <ele>2635.3999023438</ele>
        <time>2021-01-24T12:51:28.000Z</time>
      </trkpt>
      <trkpt lat="45.25974" lon="6.50959">
        <ele>2634.3999023438</ele>
        <time>2021-01-24T12:51:29.000Z</time>
      </trkpt>
      <trkpt lat="45.25973" lon="6.5096">
        <ele>2632.8000488281</ele>
        <time>2021-01-24T12:51:30.000Z</time>
      </trkpt>
      <trkpt lat="45.25973" lon="6.50959">
        <ele>2631.1999511719</ele>
        <time>2021-01-24T12:51:31.000Z</time>
      </trkpt>
      <trkpt lat="45.25973" lon="6.50958">
        <ele>2629.8000488281</ele>
        <time>2021-01-24T12:51:32.000Z</time>
      </trkpt>
      <trkpt lat="45.25974" lon="6.50956">
        <ele>2628.8000488281</ele>
        <time>2021-01-24T12:51:33.000Z</time>
      </trkpt>
      <trkpt lat="45.25977" lon="6.50956">
        <ele>2627.8000488281</ele>
        <time>2021-01-24T12:51:34.000Z</time>
      </trkpt>
      <trkpt lat="45.2598" lon="6.50955">
        <ele>2626.3999023438</ele>
        <time>2021-01-24T12:51:35.000Z</time>
      </trkpt>
      <trkpt lat="45.25981" lon="6.50954">
        <ele>2625.1999511719</ele>
        <time>2021-01-24T12:51:36.000Z</time>
      </trkpt>
      <trkpt lat="45.25982" lon="6.50949">
        <ele>2623.8000488281</ele>
        <time>2021-01-24T12:51:38.000Z</time>
      </trkpt>
      <trkpt lat="45.25982" lon="6.50941">
        <ele>2622.8000488281</ele>
        <time>2021-01-24T12:51:40.000Z</time>
      </trkpt>
      <trkpt lat="45.25984" lon="6.5094">
        <ele>2621.6000976562</ele>
        <time>2021-01-24T12:51:41.000Z</time>
      </trkpt>
      <trkpt lat="45.25985" lon="6.50939">
        <ele>2619.8000488281</ele>
        <time>2021-01-24T12:51:42.000Z</time>
      </trkpt>
      <trkpt lat="45.25985" lon="6.50939">
        <ele>2618.1999511719</ele>
        <time>2021-01-24T12:51:43.000Z</time>
      </trkpt>
      <trkpt lat="45.25985" lon="6.50938">
        <ele>2617.1999511719</ele>
        <time>2021-01-24T12:51:44.000Z</time>
      </trkpt>
      <trkpt lat="45.25985" lon="6.50938">
        <ele>2616</ele>
        <time>2021-01-24T12:51:46.000Z</time>
      </trkpt>
      <trkpt lat="45.25983" lon="6.50934">
        <ele>2615.3999023438</ele>
        <time>2021-01-24T12:51:49.000Z</time>
      </trkpt>
      <trkpt lat="45.25981" lon="6.5093">
        <ele>2615.3999023438</ele>
        <time>2021-01-24T12:51:50.000Z</time>
      </trkpt>
      <trkpt lat="45.25975" lon="6.50919">
        <ele>2614.8000488281</ele>
        <time>2021-01-24T12:51:52.000Z</time>
      </trkpt>
      <trkpt lat="45.25972" lon="6.50916">
        <ele>2614.3999023438</ele>
        <time>2021-01-24T12:51:53.000Z</time>
      </trkpt>
      <trkpt lat="45.25968" lon="6.50914">
        <ele>2613.8000488281</ele>
        <time>2021-01-24T12:51:54.000Z</time>
      </trkpt>
      <trkpt lat="45.25964" lon="6.50907">
        <ele>2612</ele>
        <time>2021-01-24T12:51:56.000Z</time>
      </trkpt>
      <trkpt lat="45.25961" lon="6.50902">
        <ele>2611</ele>
        <time>2021-01-24T12:51:57.000Z</time>
      </trkpt>
      <trkpt lat="45.25959" lon="6.50896">
        <ele>2610.1999511719</ele>
        <time>2021-01-24T12:51:58.000Z</time>
      </trkpt>
      <trkpt lat="45.25952" lon="6.50886">
        <ele>2608.3999023438</ele>
        <time>2021-01-24T12:52:00.000Z</time>
      </trkpt>
      <trkpt lat="45.25949" lon="6.50881">
        <ele>2607.3999023438</ele>
        <time>2021-01-24T12:52:01.000Z</time>
      </trkpt>
      <trkpt lat="45.25947" lon="6.50875">
        <ele>2606.1999511719</ele>
        <time>2021-01-24T12:52:02.000Z</time>
      </trkpt>
      <trkpt lat="45.25946" lon="6.50872">
        <ele>2604.3999023438</ele>
        <time>2021-01-24T12:52:03.000Z</time>
      </trkpt>
      <trkpt lat="45.25945" lon="6.50871">
        <ele>2602.1999511719</ele>
        <time>2021-01-24T12:52:04.000Z</time>
      </trkpt>
      <trkpt lat="45.25944" lon="6.5087">
        <ele>2600.3999023438</ele>
        <time>2021-01-24T12:52:05.000Z</time>
      </trkpt>
      <trkpt lat="45.25944" lon="6.50871">
        <ele>2599.1999511719</ele>
        <time>2021-01-24T12:52:06.000Z</time>
      </trkpt>
      <trkpt lat="45.25945" lon="6.50874">
        <ele>2598.3999023438</ele>
        <time>2021-01-24T12:52:09.000Z</time>
      </trkpt>
      <trkpt lat="45.25945" lon="6.50874">
        <ele>2598.1999511719</ele>
        <time>2021-01-24T12:52:13.000Z</time>
      </trkpt>
      <trkpt lat="45.25945" lon="6.50874">
        <ele>2598.1999511719</ele>
        <time>2021-01-24T12:52:23.000Z</time>
      </trkpt>
      <trkpt lat="45.25945" lon="6.50874">
        <ele>2598</ele>
        <time>2021-01-24T12:52:39.000Z</time>
      </trkpt>
      <trkpt lat="45.25944" lon="6.50873">
        <ele>2597.6000976562</ele>
        <time>2021-01-24T12:52:52.000Z</time>
      </trkpt>
      <trkpt lat="45.25944" lon="6.50873">
        <ele>2598.3999023438</ele>
        <time>2021-01-24T12:53:03.000Z</time>
      </trkpt>
      <trkpt lat="45.25944" lon="6.50873">
        <ele>2598.8000488281</ele>
        <time>2021-01-24T12:53:20.000Z</time>
      </trkpt>
      <trkpt lat="45.25944" lon="6.50873">
        <ele>2598.1999511719</ele>
        <time>2021-01-24T12:53:35.000Z</time>
      </trkpt>
      <trkpt lat="45.25944" lon="6.50873">
        <ele>2598.1999511719</ele>
        <time>2021-01-24T12:53:51.000Z</time>
      </trkpt>
      <trkpt lat="45.25944" lon="6.50873">
        <ele>2598.1999511719</ele>
        <time>2021-01-24T12:54:05.000Z</time>
      </trkpt>
      <trkpt lat="45.25945" lon="6.5087">
        <ele>2597.6000976562</ele>
        <time>2021-01-24T12:54:17.000Z</time>
      </trkpt>
      <trkpt lat="45.25945" lon="6.5087">
        <ele>2597.1999511719</ele>
        <time>2021-01-24T12:54:34.000Z</time>
      </trkpt>
      <trkpt lat="45.25945" lon="6.5087">
        <ele>2597.1999511719</ele>
        <time>2021-01-24T12:54:38.000Z</time>
      </trkpt>
      <trkpt lat="45.25945" lon="6.50869">
        <ele>2597</ele>
        <time>2021-01-24T12:54:48.000Z</time>
      </trkpt>
      <trkpt lat="45.25944" lon="6.50869">
        <ele>2596.8000488281</ele>
        <time>2021-01-24T12:54:57.000Z</time>
      </trkpt>
      <trkpt lat="45.25936" lon="6.50857">
        <ele>2596.1999511719</ele>
        <time>2021-01-24T12:55:00.000Z</time>
      </trkpt>
      <trkpt lat="45.25936" lon="6.5085">
        <ele>2595.6000976562</ele>
        <time>2021-01-24T12:55:01.000Z</time>
      </trkpt>
      <trkpt lat="45.25938" lon="6.50848">
        <ele>2593.3999023438</ele>
        <time>2021-01-24T12:55:02.000Z</time>
      </trkpt>
      <trkpt lat="45.2594" lon="6.50845">
        <ele>2592</ele>
        <time>2021-01-24T12:55:03.000Z</time>
      </trkpt>
      <trkpt lat="45.25939" lon="6.50842">
        <ele>2590.3999023438</ele>
        <time>2021-01-24T12:55:04.000Z</time>
      </trkpt>
      <trkpt lat="45.25936" lon="6.50839">
        <ele>2589</ele>
        <time>2021-01-24T12:55:05.000Z</time>
      </trkpt>
      <trkpt lat="45.25932" lon="6.50827">
        <ele>2587.1999511719</ele>
        <time>2021-01-24T12:55:07.000Z</time>
      </trkpt>
      <trkpt lat="45.25934" lon="6.50819">
        <ele>2586.1999511719</ele>
        <time>2021-01-24T12:55:08.000Z</time>
      </trkpt>
      <trkpt lat="45.25937" lon="6.50811">
        <ele>2584.8000488281</ele>
        <time>2021-01-24T12:55:09.000Z</time>
      </trkpt>
      <trkpt lat="45.2594" lon="6.50804">
        <ele>2583</ele>
        <time>2021-01-24T12:55:10.000Z</time>
      </trkpt>
      <trkpt lat="45.25943" lon="6.508">
        <ele>2581.6000976562</ele>
        <time>2021-01-24T12:55:11.000Z</time>
      </trkpt>
      <trkpt lat="45.25945" lon="6.50798">
        <ele>2579.8000488281</ele>
        <time>2021-01-24T12:55:12.000Z</time>
      </trkpt>
      <trkpt lat="45.25946" lon="6.50797">
        <ele>2578</ele>
        <time>2021-01-24T12:55:13.000Z</time>
      </trkpt>
      <trkpt lat="45.25946" lon="6.50797">
        <ele>2576.3999023438</ele>
        <time>2021-01-24T12:55:14.000Z</time>
      </trkpt>
      <trkpt lat="45.25946" lon="6.50796">
        <ele>2575.1999511719</ele>
        <time>2021-01-24T12:55:15.000Z</time>
      </trkpt>
      <trkpt lat="45.25945" lon="6.50794">
        <ele>2574.6000976562</ele>
        <time>2021-01-24T12:55:16.000Z</time>
      </trkpt>
      <trkpt lat="45.25936" lon="6.50792">
        <ele>2574.1999511719</ele>
        <time>2021-01-24T12:55:19.000Z</time>
      </trkpt>
      <trkpt lat="45.25934" lon="6.50788">
        <ele>2574.1999511719</ele>
        <time>2021-01-24T12:55:20.000Z</time>
      </trkpt>
      <trkpt lat="45.25938" lon="6.50776">
        <ele>2572.1999511719</ele>
        <time>2021-01-24T12:55:22.000Z</time>
      </trkpt>
      <trkpt lat="45.25941" lon="6.50769">
        <ele>2570.1999511719</ele>
        <time>2021-01-24T12:55:23.000Z</time>
      </trkpt>
      <trkpt lat="45.25945" lon="6.50762">
        <ele>2568</ele>
        <time>2021-01-24T12:55:24.000Z</time>
      </trkpt>
      <trkpt lat="45.25949" lon="6.50755">
        <ele>2566.3999023438</ele>
        <time>2021-01-24T12:55:25.000Z</time>
      </trkpt>
      <trkpt lat="45.2595" lon="6.50748">
        <ele>2563.3999023438</ele>
        <time>2021-01-24T12:55:26.000Z</time>
      </trkpt>
      <trkpt lat="45.25948" lon="6.50741">
        <ele>2561.8000488281</ele>
        <time>2021-01-24T12:55:27.000Z</time>
      </trkpt>
      <trkpt lat="45.25948" lon="6.50734">
        <ele>2560.6000976562</ele>
        <time>2021-01-24T12:55:28.000Z</time>
      </trkpt>
      <trkpt lat="45.25949" lon="6.50728">
        <ele>2559.6000976562</ele>
        <time>2021-01-24T12:55:29.000Z</time>
      </trkpt>
      <trkpt lat="45.2595" lon="6.50726">
        <ele>2558.3999023438</ele>
        <time>2021-01-24T12:55:30.000Z</time>
      </trkpt>
      <trkpt lat="45.2595" lon="6.50726">
        <ele>2557.1999511719</ele>
        <time>2021-01-24T12:55:31.000Z</time>
      </trkpt>
      <trkpt lat="45.2595" lon="6.50726">
        <ele>2555.8000488281</ele>
        <time>2021-01-24T12:55:32.000Z</time>
      </trkpt>
      <trkpt lat="45.2595" lon="6.50726">
        <ele>2554.6000976562</ele>
        <time>2021-01-24T12:55:34.000Z</time>
      </trkpt>
      <trkpt lat="45.2595" lon="6.50726">
        <ele>2554.8000488281</ele>
        <time>2021-01-24T12:55:43.000Z</time>
      </trkpt>
      <trkpt lat="45.2595" lon="6.50718">
        <ele>2554.8000488281</ele>
        <time>2021-01-24T12:55:48.000Z</time>
      </trkpt>
      <trkpt lat="45.25943" lon="6.50715">
        <ele>2554.1999511719</ele>
        <time>2021-01-24T12:55:51.000Z</time>
      </trkpt>
      <trkpt lat="45.25941" lon="6.50714">
        <ele>2553.3999023438</ele>
        <time>2021-01-24T12:55:52.000Z</time>
      </trkpt>
      <trkpt lat="45.25939" lon="6.50713">
        <ele>2552.3999023438</ele>
        <time>2021-01-24T12:55:53.000Z</time>
      </trkpt>
      <trkpt lat="45.25937" lon="6.50709">
        <ele>2551</ele>
        <time>2021-01-24T12:55:54.000Z</time>
      </trkpt>
      <trkpt lat="45.25938" lon="6.50703">
        <ele>2549.6000976562</ele>
        <time>2021-01-24T12:55:55.000Z</time>
      </trkpt>
      <trkpt lat="45.2594" lon="6.50698">
        <ele>2548</ele>
        <time>2021-01-24T12:55:56.000Z</time>
      </trkpt>
      <trkpt lat="45.25942" lon="6.50693">
        <ele>2546.3999023438</ele>
        <time>2021-01-24T12:55:57.000Z</time>
      </trkpt>
      <trkpt lat="45.25944" lon="6.50687">
        <ele>2544.8000488281</ele>
        <time>2021-01-24T12:55:58.000Z</time>
      </trkpt>
      <trkpt lat="45.25945" lon="6.50682">
        <ele>2543.3999023438</ele>
        <time>2021-01-24T12:55:59.000Z</time>
      </trkpt>
      <trkpt lat="45.25945" lon="6.50679">
        <ele>2542.1999511719</ele>
        <time>2021-01-24T12:56:00.000Z</time>
      </trkpt>
      <trkpt lat="45.25944" lon="6.50678">
        <ele>2541.1999511719</ele>
        <time>2021-01-24T12:56:01.000Z</time>
      </trkpt>
      <trkpt lat="45.25944" lon="6.50679">
        <ele>2540.6000976562</ele>
        <time>2021-01-24T12:56:02.000Z</time>
      </trkpt>
      <trkpt lat="45.25944" lon="6.50678">
        <ele>2540</ele>
        <time>2021-01-24T12:56:07.000Z</time>
      </trkpt>
      <trkpt lat="45.25942" lon="6.50675">
        <ele>2540</ele>
        <time>2021-01-24T12:56:08.000Z</time>
      </trkpt>
      <trkpt lat="45.25944" lon="6.50668">
        <ele>2539.8000488281</ele>
        <time>2021-01-24T12:56:10.000Z</time>
      </trkpt>
      <trkpt lat="45.25943" lon="6.50669">
        <ele>2539.6000976562</ele>
        <time>2021-01-24T12:56:11.000Z</time>
      </trkpt>
      <trkpt lat="45.25943" lon="6.50668">
        <ele>2538</ele>
        <time>2021-01-24T12:56:13.000Z</time>
      </trkpt>
      <trkpt lat="45.25943" lon="6.50668">
        <ele>2537</ele>
        <time>2021-01-24T12:56:14.000Z</time>
      </trkpt>
      <trkpt lat="45.25942" lon="6.50663">
        <ele>2536.6000976562</ele>
        <time>2021-01-24T12:56:17.000Z</time>
      </trkpt>
      <trkpt lat="45.25939" lon="6.50659">
        <ele>2536.3999023438</ele>
        <time>2021-01-24T12:56:18.000Z</time>
      </trkpt>
      <trkpt lat="45.25931" lon="6.50661">
        <ele>2535.1999511719</ele>
        <time>2021-01-24T12:56:21.000Z</time>
      </trkpt>
      <trkpt lat="45.2593" lon="6.50661">
        <ele>2533.8000488281</ele>
        <time>2021-01-24T12:56:22.000Z</time>
      </trkpt>
      <trkpt lat="45.25929" lon="6.5066">
        <ele>2532.3999023438</ele>
        <time>2021-01-24T12:56:23.000Z</time>
      </trkpt>
      <trkpt lat="45.25928" lon="6.50657">
        <ele>2531</ele>
        <time>2021-01-24T12:56:24.000Z</time>
      </trkpt>
      <trkpt lat="45.25929" lon="6.50652">
        <ele>2529.8000488281</ele>
        <time>2021-01-24T12:56:25.000Z</time>
      </trkpt>
      <trkpt lat="45.2593" lon="6.50647">
        <ele>2528.8000488281</ele>
        <time>2021-01-24T12:56:26.000Z</time>
      </trkpt>
      <trkpt lat="45.25932" lon="6.50642">
        <ele>2527.8000488281</ele>
        <time>2021-01-24T12:56:27.000Z</time>
      </trkpt>
      <trkpt lat="45.25931" lon="6.50637">
        <ele>2526.8000488281</ele>
        <time>2021-01-24T12:56:28.000Z</time>
      </trkpt>
      <trkpt lat="45.25929" lon="6.50636">
        <ele>2526</ele>
        <time>2021-01-24T12:56:29.000Z</time>
      </trkpt>
      <trkpt lat="45.25925" lon="6.50628">
        <ele>2525</ele>
        <time>2021-01-24T12:56:31.000Z</time>
      </trkpt>
      <trkpt lat="45.25926" lon="6.50623">
        <ele>2524.1999511719</ele>
        <time>2021-01-24T12:56:32.000Z</time>
      </trkpt>
      <trkpt lat="45.25926" lon="6.5062">
        <ele>2523.1999511719</ele>
        <time>2021-01-24T12:56:33.000Z</time>
      </trkpt>
      <trkpt lat="45.25926" lon="6.50621">
        <ele>2521.6000976562</ele>
        <time>2021-01-24T12:56:34.000Z</time>
      </trkpt>
      <trkpt lat="45.25925" lon="6.5062">
        <ele>2520</ele>
        <time>2021-01-24T12:56:35.000Z</time>
      </trkpt>
      <trkpt lat="45.25925" lon="6.5062">
        <ele>2518.3999023438</ele>
        <time>2021-01-24T12:56:36.000Z</time>
      </trkpt>
      <trkpt lat="45.25925" lon="6.5062">
        <ele>2517.1999511719</ele>
        <time>2021-01-24T12:56:37.000Z</time>
      </trkpt>
      <trkpt lat="45.25925" lon="6.50616">
        <ele>2516.1999511719</ele>
        <time>2021-01-24T12:56:38.000Z</time>
      </trkpt>
      <trkpt lat="45.25927" lon="6.50612">
        <ele>2515.8000488281</ele>
        <time>2021-01-24T12:56:39.000Z</time>
      </trkpt>
      <trkpt lat="45.25926" lon="6.50612">
        <ele>2515.3999023438</ele>
        <time>2021-01-24T12:56:40.000Z</time>
      </trkpt>
      <trkpt lat="45.25926" lon="6.50612">
        <ele>2514.8000488281</ele>
        <time>2021-01-24T12:56:41.000Z</time>
      </trkpt>
      <trkpt lat="45.25925" lon="6.50608">
        <ele>2513.1999511719</ele>
        <time>2021-01-24T12:56:43.000Z</time>
      </trkpt>
      <trkpt lat="45.25926" lon="6.50603">
        <ele>2512.8000488281</ele>
        <time>2021-01-24T12:56:44.000Z</time>
      </trkpt>
      <trkpt lat="45.25928" lon="6.50593">
        <ele>2512</ele>
        <time>2021-01-24T12:56:46.000Z</time>
      </trkpt>
      <trkpt lat="45.25928" lon="6.50576">
        <ele>2510.6000976562</ele>
        <time>2021-01-24T12:56:48.000Z</time>
      </trkpt>
      <trkpt lat="45.25932" lon="6.50555">
        <ele>2508.8000488281</ele>
        <time>2021-01-24T12:56:50.000Z</time>
      </trkpt>
      <trkpt lat="45.25935" lon="6.50547">
        <ele>2507</ele>
        <time>2021-01-24T12:56:51.000Z</time>
      </trkpt>
      <trkpt lat="45.25937" lon="6.5054">
        <ele>2504.8000488281</ele>
        <time>2021-01-24T12:56:52.000Z</time>
      </trkpt>
      <trkpt lat="45.25938" lon="6.50536">
        <ele>2502.6000976562</ele>
        <time>2021-01-24T12:56:53.000Z</time>
      </trkpt>
      <trkpt lat="45.25939" lon="6.50533">
        <ele>2501.1999511719</ele>
        <time>2021-01-24T12:56:54.000Z</time>
      </trkpt>
      <trkpt lat="45.2594" lon="6.5053">
        <ele>2500</ele>
        <time>2021-01-24T12:56:55.000Z</time>
      </trkpt>
      <trkpt lat="45.25943" lon="6.50522">
        <ele>2498.8000488281</ele>
        <time>2021-01-24T12:56:57.000Z</time>
      </trkpt>
      <trkpt lat="45.25944" lon="6.5052">
        <ele>2498.1999511719</ele>
        <time>2021-01-24T12:56:59.000Z</time>
      </trkpt>
      <trkpt lat="45.25944" lon="6.50519">
        <ele>2497.6000976562</ele>
        <time>2021-01-24T12:57:00.000Z</time>
      </trkpt>
      <trkpt lat="45.25944" lon="6.50519">
        <ele>2496.6000976562</ele>
        <time>2021-01-24T12:57:03.000Z</time>
      </trkpt>
      <trkpt lat="45.25944" lon="6.50519">
        <ele>2496.6000976562</ele>
        <time>2021-01-24T12:57:05.000Z</time>
      </trkpt>
      <trkpt lat="45.25944" lon="6.50515">
        <ele>2496.3999023438</ele>
        <time>2021-01-24T12:57:11.000Z</time>
      </trkpt>
      <trkpt lat="45.25937" lon="6.50506">
        <ele>2495.1999511719</ele>
        <time>2021-01-24T12:57:14.000Z</time>
      </trkpt>
      <trkpt lat="45.25935" lon="6.50501">
        <ele>2494.3999023438</ele>
        <time>2021-01-24T12:57:15.000Z</time>
      </trkpt>
      <trkpt lat="45.2593" lon="6.50501">
        <ele>2493.1999511719</ele>
        <time>2021-01-24T12:57:16.000Z</time>
      </trkpt>
      <trkpt lat="45.25927" lon="6.50496">
        <ele>2491.3999023438</ele>
        <time>2021-01-24T12:57:17.000Z</time>
      </trkpt>
      <trkpt lat="45.25924" lon="6.50489">
        <ele>2489.3999023438</ele>
        <time>2021-01-24T12:57:18.000Z</time>
      </trkpt>
      <trkpt lat="45.25922" lon="6.50486">
        <ele>2487.1999511719</ele>
        <time>2021-01-24T12:57:19.000Z</time>
      </trkpt>
      <trkpt lat="45.25919" lon="6.50487">
        <ele>2485</ele>
        <time>2021-01-24T12:57:20.000Z</time>
      </trkpt>
      <trkpt lat="45.25915" lon="6.50488">
        <ele>2483.1999511719</ele>
        <time>2021-01-24T12:57:21.000Z</time>
      </trkpt>
      <trkpt lat="45.25912" lon="6.50493">
        <ele>2481.8000488281</ele>
        <time>2021-01-24T12:57:22.000Z</time>
      </trkpt>
      <trkpt lat="45.25909" lon="6.50493">
        <ele>2480.8000488281</ele>
        <time>2021-01-24T12:57:23.000Z</time>
      </trkpt>
      <trkpt lat="45.25904" lon="6.50495">
        <ele>2479.6000976562</ele>
        <time>2021-01-24T12:57:24.000Z</time>
      </trkpt>
      <trkpt lat="45.25901" lon="6.50495">
        <ele>2478</ele>
        <time>2021-01-24T12:57:25.000Z</time>
      </trkpt>
      <trkpt lat="45.25899" lon="6.50492">
        <ele>2474.8000488281</ele>
        <time>2021-01-24T12:57:26.000Z</time>
      </trkpt>
      <trkpt lat="45.25898" lon="6.50488">
        <ele>2473.6000976562</ele>
        <time>2021-01-24T12:57:27.000Z</time>
      </trkpt>
      <trkpt lat="45.25896" lon="6.50486">
        <ele>2472.3999023438</ele>
        <time>2021-01-24T12:57:28.000Z</time>
      </trkpt>
      <trkpt lat="45.25895" lon="6.50484">
        <ele>2471.1999511719</ele>
        <time>2021-01-24T12:57:29.000Z</time>
      </trkpt>
      <trkpt lat="45.25893" lon="6.50482">
        <ele>2470.3999023438</ele>
        <time>2021-01-24T12:57:30.000Z</time>
      </trkpt>
      <trkpt lat="45.25892" lon="6.50481">
        <ele>2469.8000488281</ele>
        <time>2021-01-24T12:57:31.000Z</time>
      </trkpt>
      <trkpt lat="45.25892" lon="6.50482">
        <ele>2468.3999023438</ele>
        <time>2021-01-24T12:57:33.000Z</time>
      </trkpt>
      <trkpt lat="45.25892" lon="6.50482">
        <ele>2467.8000488281</ele>
        <time>2021-01-24T12:57:35.000Z</time>
      </trkpt>
      <trkpt lat="45.25888" lon="6.50485">
        <ele>2468.8000488281</ele>
        <time>2021-01-24T12:57:45.000Z</time>
      </trkpt>
      <trkpt lat="45.25877" lon="6.50487">
        <ele>2467.8000488281</ele>
        <time>2021-01-24T12:57:48.000Z</time>
      </trkpt>
      <trkpt lat="45.2587" lon="6.5049">
        <ele>2465.8000488281</ele>
        <time>2021-01-24T12:57:50.000Z</time>
      </trkpt>
      <trkpt lat="45.25866" lon="6.50488">
        <ele>2464.3999023438</ele>
        <time>2021-01-24T12:57:51.000Z</time>
      </trkpt>
      <trkpt lat="45.25861" lon="6.50492">
        <ele>2462.6000976562</ele>
        <time>2021-01-24T12:57:52.000Z</time>
      </trkpt>
      <trkpt lat="45.25857" lon="6.5049">
        <ele>2460.3999023438</ele>
        <time>2021-01-24T12:57:53.000Z</time>
      </trkpt>
      <trkpt lat="45.25853" lon="6.50485">
        <ele>2458.1999511719</ele>
        <time>2021-01-24T12:57:54.000Z</time>
      </trkpt>
      <trkpt lat="45.25848" lon="6.50483">
        <ele>2456</ele>
        <time>2021-01-24T12:57:55.000Z</time>
      </trkpt>
      <trkpt lat="45.25842" lon="6.50486">
        <ele>2453.3999023438</ele>
        <time>2021-01-24T12:57:56.000Z</time>
      </trkpt>
      <trkpt lat="45.25837" lon="6.50483">
        <ele>2450.8000488281</ele>
        <time>2021-01-24T12:57:57.000Z</time>
      </trkpt>
      <trkpt lat="45.25832" lon="6.50477">
        <ele>2447.8000488281</ele>
        <time>2021-01-24T12:57:58.000Z</time>
      </trkpt>
      <trkpt lat="45.25827" lon="6.50475">
        <ele>2444.6000976562</ele>
        <time>2021-01-24T12:57:59.000Z</time>
      </trkpt>
      <trkpt lat="45.25823" lon="6.5047">
        <ele>2441.3999023438</ele>
        <time>2021-01-24T12:58:00.000Z</time>
      </trkpt>
      <trkpt lat="45.25823" lon="6.50467">
        <ele>2439</ele>
        <time>2021-01-24T12:58:01.000Z</time>
      </trkpt>
      <trkpt lat="45.25822" lon="6.50468">
        <ele>2436.8000488281</ele>
        <time>2021-01-24T12:58:02.000Z</time>
      </trkpt>
      <trkpt lat="45.25821" lon="6.50468">
        <ele>2434.8000488281</ele>
        <time>2021-01-24T12:58:03.000Z</time>
      </trkpt>
      <trkpt lat="45.25821" lon="6.50468">
        <ele>2433.3999023438</ele>
        <time>2021-01-24T12:58:04.000Z</time>
      </trkpt>
      <trkpt lat="45.25821" lon="6.50468">
        <ele>2431.8000488281</ele>
        <time>2021-01-24T12:58:06.000Z</time>
      </trkpt>
      <trkpt lat="45.25821" lon="6.50468">
        <ele>2431.1999511719</ele>
        <time>2021-01-24T12:58:08.000Z</time>
      </trkpt>
      <trkpt lat="45.25821" lon="6.50468">
        <ele>2430.8000488281</ele>
        <time>2021-01-24T12:58:10.000Z</time>
      </trkpt>
      <trkpt lat="45.25821" lon="6.50468">
        <ele>2430.1999511719</ele>
        <time>2021-01-24T12:58:26.000Z</time>
      </trkpt>
      <trkpt lat="45.2582" lon="6.50467">
        <ele>2430</ele>
        <time>2021-01-24T12:58:47.000Z</time>
      </trkpt>
      <trkpt lat="45.2582" lon="6.50467">
        <ele>2430.1999511719</ele>
        <time>2021-01-24T12:59:04.000Z</time>
      </trkpt>
      <trkpt lat="45.25818" lon="6.50466">
        <ele>2430.3999023438</ele>
        <time>2021-01-24T12:59:17.000Z</time>
      </trkpt>
      <trkpt lat="45.25817" lon="6.50466">
        <ele>2430.3999023438</ele>
        <time>2021-01-24T12:59:31.000Z</time>
      </trkpt>
      <trkpt lat="45.25817" lon="6.50466">
        <ele>2430</ele>
        <time>2021-01-24T12:59:48.000Z</time>
      </trkpt>
      <trkpt lat="45.25815" lon="6.50471">
        <ele>2430.1999511719</ele>
        <time>2021-01-24T13:00:00.000Z</time>
      </trkpt>
      <trkpt lat="45.25816" lon="6.50479">
        <ele>2429.8000488281</ele>
        <time>2021-01-24T13:00:05.000Z</time>
      </trkpt>
      <trkpt lat="45.25816" lon="6.5048">
        <ele>2429.6000976562</ele>
        <time>2021-01-24T13:00:08.000Z</time>
      </trkpt>
      <trkpt lat="45.25814" lon="6.50487">
        <ele>2429.3999023438</ele>
        <time>2021-01-24T13:00:12.000Z</time>
      </trkpt>
      <trkpt lat="45.25812" lon="6.50492">
        <ele>2429</ele>
        <time>2021-01-24T13:00:17.000Z</time>
      </trkpt>
      <trkpt lat="45.25812" lon="6.50492">
        <ele>2428.8000488281</ele>
        <time>2021-01-24T13:00:21.000Z</time>
      </trkpt>
      <trkpt lat="45.25812" lon="6.50492">
        <ele>2429</ele>
        <time>2021-01-24T13:00:31.000Z</time>
      </trkpt>
      <trkpt lat="45.25812" lon="6.50492">
        <ele>2428.6000976562</ele>
        <time>2021-01-24T13:00:40.000Z</time>
      </trkpt>
      <trkpt lat="45.25809" lon="6.50494">
        <ele>2428.3999023438</ele>
        <time>2021-01-24T13:00:42.000Z</time>
      </trkpt>
      <trkpt lat="45.258" lon="6.50488">
        <ele>2427.1999511719</ele>
        <time>2021-01-24T13:00:45.000Z</time>
      </trkpt>
      <trkpt lat="45.25797" lon="6.50491">
        <ele>2426</ele>
        <time>2021-01-24T13:00:46.000Z</time>
      </trkpt>
      <trkpt lat="45.25793" lon="6.50496">
        <ele>2425</ele>
        <time>2021-01-24T13:00:47.000Z</time>
      </trkpt>
      <trkpt lat="45.25787" lon="6.50489">
        <ele>2423.1999511719</ele>
        <time>2021-01-24T13:00:49.000Z</time>
      </trkpt>
      <trkpt lat="45.25785" lon="6.50481">
        <ele>2421.3999023438</ele>
        <time>2021-01-24T13:00:50.000Z</time>
      </trkpt>
      <trkpt lat="45.25784" lon="6.50475">
        <ele>2419.1999511719</ele>
        <time>2021-01-24T13:00:51.000Z</time>
      </trkpt>
      <trkpt lat="45.25782" lon="6.5047">
        <ele>2416.8000488281</ele>
        <time>2021-01-24T13:00:52.000Z</time>
      </trkpt>
      <trkpt lat="45.25782" lon="6.50465">
        <ele>2414.3999023438</ele>
        <time>2021-01-24T13:00:53.000Z</time>
      </trkpt>
      <trkpt lat="45.25782" lon="6.50463">
        <ele>2412.3999023438</ele>
        <time>2021-01-24T13:00:54.000Z</time>
      </trkpt>
      <trkpt lat="45.25782" lon="6.50462">
        <ele>2410.6000976562</ele>
        <time>2021-01-24T13:00:55.000Z</time>
      </trkpt>
      <trkpt lat="45.25781" lon="6.50459">
        <ele>2409.1999511719</ele>
        <time>2021-01-24T13:00:56.000Z</time>
      </trkpt>
      <trkpt lat="45.25781" lon="6.50457">
        <ele>2408</ele>
        <time>2021-01-24T13:00:57.000Z</time>
      </trkpt>
      <trkpt lat="45.2578" lon="6.50454">
        <ele>2406.3999023438</ele>
        <time>2021-01-24T13:00:59.000Z</time>
      </trkpt>
      <trkpt lat="45.25779" lon="6.5045">
        <ele>2405</ele>
        <time>2021-01-24T13:01:02.000Z</time>
      </trkpt>
      <trkpt lat="45.25778" lon="6.50448">
        <ele>2404.3999023438</ele>
        <time>2021-01-24T13:01:03.000Z</time>
      </trkpt>
      <trkpt lat="45.25777" lon="6.50446">
        <ele>2403.8000488281</ele>
        <time>2021-01-24T13:01:04.000Z</time>
      </trkpt>
      <trkpt lat="45.25775" lon="6.50438">
        <ele>2402.6000976562</ele>
        <time>2021-01-24T13:01:06.000Z</time>
      </trkpt>
      <trkpt lat="45.25772" lon="6.50437">
        <ele>2401.6000976562</ele>
        <time>2021-01-24T13:01:07.000Z</time>
      </trkpt>
      <trkpt lat="45.2577" lon="6.50437">
        <ele>2400.1999511719</ele>
        <time>2021-01-24T13:01:08.000Z</time>
      </trkpt>
      <trkpt lat="45.25765" lon="6.5044">
        <ele>2398.6000976562</ele>
        <time>2021-01-24T13:01:09.000Z</time>
      </trkpt>
      <trkpt lat="45.25762" lon="6.5044">
        <ele>2396.8000488281</ele>
        <time>2021-01-24T13:01:10.000Z</time>
      </trkpt>
      <trkpt lat="45.2576" lon="6.50438">
        <ele>2394.6000976562</ele>
        <time>2021-01-24T13:01:11.000Z</time>
      </trkpt>
      <trkpt lat="45.25755" lon="6.50437">
        <ele>2392.3999023438</ele>
        <time>2021-01-24T13:01:12.000Z</time>
      </trkpt>
      <trkpt lat="45.25753" lon="6.50436">
        <ele>2390.3999023438</ele>
        <time>2021-01-24T13:01:13.000Z</time>
      </trkpt>
      <trkpt lat="45.2575" lon="6.50431">
        <ele>2388.8000488281</ele>
        <time>2021-01-24T13:01:14.000Z</time>
      </trkpt>
      <trkpt lat="45.25746" lon="6.50428">
        <ele>2387</ele>
        <time>2021-01-24T13:01:15.000Z</time>
      </trkpt>
      <trkpt lat="45.25742" lon="6.50429">
        <ele>2385.3999023438</ele>
        <time>2021-01-24T13:01:16.000Z</time>
      </trkpt>
      <trkpt lat="45.25739" lon="6.5043">
        <ele>2383.8000488281</ele>
        <time>2021-01-24T13:01:17.000Z</time>
      </trkpt>
      <trkpt lat="45.25736" lon="6.50426">
        <ele>2382.3999023438</ele>
        <time>2021-01-24T13:01:18.000Z</time>
      </trkpt>
      <trkpt lat="45.25732" lon="6.50423">
        <ele>2380.8000488281</ele>
        <time>2021-01-24T13:01:19.000Z</time>
      </trkpt>
      <trkpt lat="45.25726" lon="6.50422">
        <ele>2378.8000488281</ele>
        <time>2021-01-24T13:01:20.000Z</time>
      </trkpt>
      <trkpt lat="45.25719" lon="6.50419">
        <ele>2376.6000976562</ele>
        <time>2021-01-24T13:01:21.000Z</time>
      </trkpt>
      <trkpt lat="45.25715" lon="6.50417">
        <ele>2374.3999023438</ele>
        <time>2021-01-24T13:01:22.000Z</time>
      </trkpt>
      <trkpt lat="45.25709" lon="6.50416">
        <ele>2372.3999023438</ele>
        <time>2021-01-24T13:01:23.000Z</time>
      </trkpt>
      <trkpt lat="45.25704" lon="6.50414">
        <ele>2370.1999511719</ele>
        <time>2021-01-24T13:01:24.000Z</time>
      </trkpt>
      <trkpt lat="45.25699" lon="6.50409">
        <ele>2368</ele>
        <time>2021-01-24T13:01:25.000Z</time>
      </trkpt>
      <trkpt lat="45.25695" lon="6.504">
        <ele>2363.6000976562</ele>
        <time>2021-01-24T13:01:26.000Z</time>
      </trkpt>
      <trkpt lat="45.25692" lon="6.50391">
        <ele>2361.1999511719</ele>
        <time>2021-01-24T13:01:27.000Z</time>
      </trkpt>
      <trkpt lat="45.25689" lon="6.50382">
        <ele>2359</ele>
        <time>2021-01-24T13:01:28.000Z</time>
      </trkpt>
      <trkpt lat="45.25686" lon="6.50374">
        <ele>2356.8000488281</ele>
        <time>2021-01-24T13:01:29.000Z</time>
      </trkpt>
      <trkpt lat="45.25683" lon="6.50366">
        <ele>2354.8000488281</ele>
        <time>2021-01-24T13:01:30.000Z</time>
      </trkpt>
      <trkpt lat="45.25681" lon="6.50359">
        <ele>2352.8000488281</ele>
        <time>2021-01-24T13:01:31.000Z</time>
      </trkpt>
      <trkpt lat="45.25679" lon="6.50351">
        <ele>2351</ele>
        <time>2021-01-24T13:01:32.000Z</time>
      </trkpt>
      <trkpt lat="45.25678" lon="6.50344">
        <ele>2349.6000976562</ele>
        <time>2021-01-24T13:01:33.000Z</time>
      </trkpt>
      <trkpt lat="45.25677" lon="6.50338">
        <ele>2348.3999023438</ele>
        <time>2021-01-24T13:01:34.000Z</time>
      </trkpt>
      <trkpt lat="45.25676" lon="6.50332">
        <ele>2347.1999511719</ele>
        <time>2021-01-24T13:01:35.000Z</time>
      </trkpt>
      <trkpt lat="45.25676" lon="6.50328">
        <ele>2346</ele>
        <time>2021-01-24T13:01:36.000Z</time>
      </trkpt>
      <trkpt lat="45.25675" lon="6.50321">
        <ele>2344.3999023438</ele>
        <time>2021-01-24T13:01:38.000Z</time>
      </trkpt>
      <trkpt lat="45.25673" lon="6.50308">
        <ele>2343.1999511719</ele>
        <time>2021-01-24T13:01:41.000Z</time>
      </trkpt>
      <trkpt lat="45.25673" lon="6.50301">
        <ele>2343</ele>
        <time>2021-01-24T13:01:42.000Z</time>
      </trkpt>
      <trkpt lat="45.25672" lon="6.50288">
        <ele>2341.8000488281</ele>
        <time>2021-01-24T13:01:44.000Z</time>
      </trkpt>
      <trkpt lat="45.2567" lon="6.50281">
        <ele>2341</ele>
        <time>2021-01-24T13:01:45.000Z</time>
      </trkpt>
      <trkpt lat="45.25668" lon="6.5027">
        <ele>2339.8000488281</ele>
        <time>2021-01-24T13:01:46.000Z</time>
      </trkpt>
      <trkpt lat="45.25663" lon="6.50264">
        <ele>2338.3999023438</ele>
        <time>2021-01-24T13:01:47.000Z</time>
      </trkpt>
      <trkpt lat="45.25657" lon="6.50261">
        <ele>2337</ele>
        <time>2021-01-24T13:01:48.000Z</time>
      </trkpt>
      <trkpt lat="45.25653" lon="6.50255">
        <ele>2335.3999023438</ele>
        <time>2021-01-24T13:01:49.000Z</time>
      </trkpt>
      <trkpt lat="45.25653" lon="6.50245">
        <ele>2332</ele>
        <time>2021-01-24T13:01:50.000Z</time>
      </trkpt>
      <trkpt lat="45.25652" lon="6.50233">
        <ele>2330</ele>
        <time>2021-01-24T13:01:51.000Z</time>
      </trkpt>
      <trkpt lat="45.25651" lon="6.50224">
        <ele>2328.1999511719</ele>
        <time>2021-01-24T13:01:52.000Z</time>
      </trkpt>
      <trkpt lat="45.2565" lon="6.50215">
        <ele>2326.3999023438</ele>
        <time>2021-01-24T13:01:53.000Z</time>
      </trkpt>
      <trkpt lat="45.2565" lon="6.50208">
        <ele>2324.8000488281</ele>
        <time>2021-01-24T13:01:54.000Z</time>
      </trkpt>
      <trkpt lat="45.25647" lon="6.50203">
        <ele>2323</ele>
        <time>2021-01-24T13:01:55.000Z</time>
      </trkpt>
      <trkpt lat="45.25643" lon="6.50193">
        <ele>2321.3999023438</ele>
        <time>2021-01-24T13:01:56.000Z</time>
      </trkpt>
      <trkpt lat="45.2564" lon="6.50186">
        <ele>2320</ele>
        <time>2021-01-24T13:01:57.000Z</time>
      </trkpt>
      <trkpt lat="45.25635" lon="6.50179">
        <ele>2318.6000976562</ele>
        <time>2021-01-24T13:01:58.000Z</time>
      </trkpt>
      <trkpt lat="45.25631" lon="6.50169">
        <ele>2317.1999511719</ele>
        <time>2021-01-24T13:01:59.000Z</time>
      </trkpt>
      <trkpt lat="45.25627" lon="6.50163">
        <ele>2315.3999023438</ele>
        <time>2021-01-24T13:02:00.000Z</time>
      </trkpt>
      <trkpt lat="45.25623" lon="6.50157">
        <ele>2313.1999511719</ele>
        <time>2021-01-24T13:02:01.000Z</time>
      </trkpt>
      <trkpt lat="45.25618" lon="6.50145">
        <ele>2310.8000488281</ele>
        <time>2021-01-24T13:02:02.000Z</time>
      </trkpt>
      <trkpt lat="45.25613" lon="6.50137">
        <ele>2308.3999023438</ele>
        <time>2021-01-24T13:02:03.000Z</time>
      </trkpt>
      <trkpt lat="45.25607" lon="6.5013">
        <ele>2306</ele>
        <time>2021-01-24T13:02:04.000Z</time>
      </trkpt>
      <trkpt lat="45.256" lon="6.50125">
        <ele>2303.6000976562</ele>
        <time>2021-01-24T13:02:05.000Z</time>
      </trkpt>
      <trkpt lat="45.25593" lon="6.50118">
        <ele>2301.3999023438</ele>
        <time>2021-01-24T13:02:06.000Z</time>
      </trkpt>
      <trkpt lat="45.25586" lon="6.50111">
        <ele>2299</ele>
        <time>2021-01-24T13:02:07.000Z</time>
      </trkpt>
      <trkpt lat="45.25577" lon="6.50103">
        <ele>2296.6000976562</ele>
        <time>2021-01-24T13:02:08.000Z</time>
      </trkpt>
      <trkpt lat="45.25571" lon="6.50093">
        <ele>2293.6000976562</ele>
        <time>2021-01-24T13:02:09.000Z</time>
      </trkpt>
      <trkpt lat="45.25565" lon="6.50082">
        <ele>2290.6000976562</ele>
        <time>2021-01-24T13:02:10.000Z</time>
      </trkpt>
      <trkpt lat="45.25559" lon="6.50075">
        <ele>2287.1999511719</ele>
        <time>2021-01-24T13:02:11.000Z</time>
      </trkpt>
      <trkpt lat="45.25552" lon="6.5007">
        <ele>2283.8000488281</ele>
        <time>2021-01-24T13:02:12.000Z</time>
      </trkpt>
      <trkpt lat="45.25544" lon="6.50068">
        <ele>2280.8000488281</ele>
        <time>2021-01-24T13:02:13.000Z</time>
      </trkpt>
      <trkpt lat="45.25537" lon="6.50065">
        <ele>2276</ele>
        <time>2021-01-24T13:02:14.000Z</time>
      </trkpt>
      <trkpt lat="45.25529" lon="6.50057">
        <ele>2273.8000488281</ele>
        <time>2021-01-24T13:02:15.000Z</time>
      </trkpt>
      <trkpt lat="45.25523" lon="6.50047">
        <ele>2271.6000976562</ele>
        <time>2021-01-24T13:02:16.000Z</time>
      </trkpt>
      <trkpt lat="45.25519" lon="6.50036">
        <ele>2269.6000976562</ele>
        <time>2021-01-24T13:02:17.000Z</time>
      </trkpt>
      <trkpt lat="45.25512" lon="6.50031">
        <ele>2267.3999023438</ele>
        <time>2021-01-24T13:02:18.000Z</time>
      </trkpt>
      <trkpt lat="45.25505" lon="6.50026">
        <ele>2265.3999023438</ele>
        <time>2021-01-24T13:02:19.000Z</time>
      </trkpt>
      <trkpt lat="45.25498" lon="6.50022">
        <ele>2263.6000976562</ele>
        <time>2021-01-24T13:02:20.000Z</time>
      </trkpt>
      <trkpt lat="45.2549" lon="6.50018">
        <ele>2262</ele>
        <time>2021-01-24T13:02:21.000Z</time>
      </trkpt>
      <trkpt lat="45.25483" lon="6.50014">
        <ele>2260</ele>
        <time>2021-01-24T13:02:22.000Z</time>
      </trkpt>
      <trkpt lat="45.25476" lon="6.50008">
        <ele>2258</ele>
        <time>2021-01-24T13:02:23.000Z</time>
      </trkpt>
      <trkpt lat="45.25471" lon="6.50003">
        <ele>2256</ele>
        <time>2021-01-24T13:02:24.000Z</time>
      </trkpt>
      <trkpt lat="45.25464" lon="6.50007">
        <ele>2254.3999023438</ele>
        <time>2021-01-24T13:02:25.000Z</time>
      </trkpt>
      <trkpt lat="45.2546" lon="6.5001">
        <ele>2253.1999511719</ele>
        <time>2021-01-24T13:02:26.000Z</time>
      </trkpt>
      <trkpt lat="45.25457" lon="6.50014">
        <ele>2252.1999511719</ele>
        <time>2021-01-24T13:02:27.000Z</time>
      </trkpt>
      <trkpt lat="45.25455" lon="6.50016">
        <ele>2251.6000976562</ele>
        <time>2021-01-24T13:02:28.000Z</time>
      </trkpt>
      <trkpt lat="45.25454" lon="6.50016">
        <ele>2250.8000488281</ele>
        <time>2021-01-24T13:02:29.000Z</time>
      </trkpt>
      <trkpt lat="45.25453" lon="6.50017">
        <ele>2250.1999511719</ele>
        <time>2021-01-24T13:02:30.000Z</time>
      </trkpt>
      <trkpt lat="45.25454" lon="6.50017">
        <ele>2249.1999511719</ele>
        <time>2021-01-24T13:02:34.000Z</time>
      </trkpt>
      <trkpt lat="45.25454" lon="6.50017">
        <ele>2249.1999511719</ele>
        <time>2021-01-24T13:02:35.000Z</time>
      </trkpt>
      <trkpt lat="45.25452" lon="6.50017">
        <ele>2248.8000488281</ele>
        <time>2021-01-24T13:02:41.000Z</time>
      </trkpt>
      <trkpt lat="45.25451" lon="6.50017">
        <ele>2248.8000488281</ele>
        <time>2021-01-24T13:02:42.000Z</time>
      </trkpt>
      <trkpt lat="45.25448" lon="6.50018">
        <ele>2249</ele>
        <time>2021-01-24T13:02:47.000Z</time>
      </trkpt>
      <trkpt lat="45.25442" lon="6.50021">
        <ele>2248.8000488281</ele>
        <time>2021-01-24T13:02:53.000Z</time>
      </trkpt>
      <trkpt lat="45.25434" lon="6.50031">
        <ele>2248.1999511719</ele>
        <time>2021-01-24T13:02:57.000Z</time>
      </trkpt>
      <trkpt lat="45.25429" lon="6.50036">
        <ele>2247.8000488281</ele>
        <time>2021-01-24T13:02:59.000Z</time>
      </trkpt>
      <trkpt lat="45.25424" lon="6.50041">
        <ele>2246.8000488281</ele>
        <time>2021-01-24T13:03:01.000Z</time>
      </trkpt>
      <trkpt lat="45.25418" lon="6.50047">
        <ele>2245.6000976562</ele>
        <time>2021-01-24T13:03:04.000Z</time>
      </trkpt>
      <trkpt lat="45.25417" lon="6.5005">
        <ele>2245.6000976562</ele>
        <time>2021-01-24T13:03:05.000Z</time>
      </trkpt>
      <trkpt lat="45.25412" lon="6.50061">
        <ele>2244.3999023438</ele>
        <time>2021-01-24T13:03:09.000Z</time>
      </trkpt>
      <trkpt lat="45.25411" lon="6.50067">
        <ele>2243.6000976562</ele>
        <time>2021-01-24T13:03:11.000Z</time>
      </trkpt>
      <trkpt lat="45.2541" lon="6.50068">
        <ele>2243.1999511719</ele>
        <time>2021-01-24T13:03:12.000Z</time>
      </trkpt>
      <trkpt lat="45.25408" lon="6.50071">
        <ele>2242</ele>
        <time>2021-01-24T13:03:16.000Z</time>
      </trkpt>
      <trkpt lat="45.25408" lon="6.50071">
        <ele>2242</ele>
        <time>2021-01-24T13:03:17.000Z</time>
      </trkpt>
      <trkpt lat="45.25408" lon="6.50071">
        <ele>2241.3999023438</ele>
        <time>2021-01-24T13:03:30.000Z</time>
      </trkpt>
      <trkpt lat="45.25408" lon="6.50071">
        <ele>2241.6000976562</ele>
        <time>2021-01-24T13:03:42.000Z</time>
      </trkpt>
      <trkpt lat="45.25412" lon="6.50071">
        <ele>2241.1999511719</ele>
        <time>2021-01-24T13:03:49.000Z</time>
      </trkpt>
      <trkpt lat="45.25413" lon="6.50071">
        <ele>2241</ele>
        <time>2021-01-24T13:03:50.000Z</time>
      </trkpt>
      <trkpt lat="45.25411" lon="6.50068">
        <ele>2240.8000488281</ele>
        <time>2021-01-24T13:03:51.000Z</time>
      </trkpt>
      <trkpt lat="45.25408" lon="6.50062">
        <ele>2240.6000976562</ele>
        <time>2021-01-24T13:03:52.000Z</time>
      </trkpt>
      <trkpt lat="45.25404" lon="6.50059">
        <ele>2239.8000488281</ele>
        <time>2021-01-24T13:03:53.000Z</time>
      </trkpt>
      <trkpt lat="45.25393" lon="6.50058">
        <ele>2237.8000488281</ele>
        <time>2021-01-24T13:03:55.000Z</time>
      </trkpt>
      <trkpt lat="45.25388" lon="6.50056">
        <ele>2237</ele>
        <time>2021-01-24T13:03:56.000Z</time>
      </trkpt>
      <trkpt lat="45.25385" lon="6.50049">
        <ele>2235.3999023438</ele>
        <time>2021-01-24T13:03:57.000Z</time>
      </trkpt>
      <trkpt lat="45.2538" lon="6.50046">
        <ele>2233.3999023438</ele>
        <time>2021-01-24T13:03:58.000Z</time>
      </trkpt>
      <trkpt lat="45.25376" lon="6.50043">
        <ele>2231.1999511719</ele>
        <time>2021-01-24T13:03:59.000Z</time>
      </trkpt>
      <trkpt lat="45.25371" lon="6.5004">
        <ele>2229.6000976562</ele>
        <time>2021-01-24T13:04:00.000Z</time>
      </trkpt>
      <trkpt lat="45.25366" lon="6.50038">
        <ele>2228.3999023438</ele>
        <time>2021-01-24T13:04:01.000Z</time>
      </trkpt>
      <trkpt lat="45.2536" lon="6.50036">
        <ele>2227</ele>
        <time>2021-01-24T13:04:02.000Z</time>
      </trkpt>
      <trkpt lat="45.25354" lon="6.50037">
        <ele>2225.1999511719</ele>
        <time>2021-01-24T13:04:03.000Z</time>
      </trkpt>
      <trkpt lat="45.25349" lon="6.50041">
        <ele>2223</ele>
        <time>2021-01-24T13:04:04.000Z</time>
      </trkpt>
      <trkpt lat="45.25344" lon="6.50045">
        <ele>2221</ele>
        <time>2021-01-24T13:04:05.000Z</time>
      </trkpt>
      <trkpt lat="45.25339" lon="6.50049">
        <ele>2218.8000488281</ele>
        <time>2021-01-24T13:04:06.000Z</time>
      </trkpt>
      <trkpt lat="45.25334" lon="6.50053">
        <ele>2216.3999023438</ele>
        <time>2021-01-24T13:04:07.000Z</time>
      </trkpt>
      <trkpt lat="45.25329" lon="6.50057">
        <ele>2214</ele>
        <time>2021-01-24T13:04:08.000Z</time>
      </trkpt>
      <trkpt lat="45.25324" lon="6.50059">
        <ele>2211.3999023438</ele>
        <time>2021-01-24T13:04:09.000Z</time>
      </trkpt>
      <trkpt lat="45.25319" lon="6.50059">
        <ele>2209.1999511719</ele>
        <time>2021-01-24T13:04:10.000Z</time>
      </trkpt>
      <trkpt lat="45.25316" lon="6.50056">
        <ele>2207</ele>
        <time>2021-01-24T13:04:11.000Z</time>
      </trkpt>
      <trkpt lat="45.25313" lon="6.50054">
        <ele>2204</ele>
        <time>2021-01-24T13:04:12.000Z</time>
      </trkpt>
      <trkpt lat="45.2531" lon="6.50055">
        <ele>2201</ele>
        <time>2021-01-24T13:04:13.000Z</time>
      </trkpt>
      <trkpt lat="45.25308" lon="6.50054">
        <ele>2195.6000976562</ele>
        <time>2021-01-24T13:04:14.000Z</time>
      </trkpt>
      <trkpt lat="45.25307" lon="6.50053">
        <ele>2193.1999511719</ele>
        <time>2021-01-24T13:04:15.000Z</time>
      </trkpt>
      <trkpt lat="45.25306" lon="6.50052">
        <ele>2190.8000488281</ele>
        <time>2021-01-24T13:04:16.000Z</time>
      </trkpt>
      <trkpt lat="45.25305" lon="6.50051">
        <ele>2188.8000488281</ele>
        <time>2021-01-24T13:04:17.000Z</time>
      </trkpt>
      <trkpt lat="45.25304" lon="6.5005">
        <ele>2187.3999023438</ele>
        <time>2021-01-24T13:04:18.000Z</time>
      </trkpt>
      <trkpt lat="45.25303" lon="6.50048">
        <ele>2186.3999023438</ele>
        <time>2021-01-24T13:04:19.000Z</time>
      </trkpt>
      <trkpt lat="45.25302" lon="6.50047">
        <ele>2185.8000488281</ele>
        <time>2021-01-24T13:04:20.000Z</time>
      </trkpt>
      <trkpt lat="45.25299" lon="6.50045">
        <ele>2185</ele>
        <time>2021-01-24T13:04:29.000Z</time>
      </trkpt>
      <trkpt lat="45.25298" lon="6.50044">
        <ele>2185</ele>
        <time>2021-01-24T13:04:39.000Z</time>
      </trkpt>
      <trkpt lat="45.25298" lon="6.50044">
        <ele>2185</ele>
        <time>2021-01-24T13:04:50.000Z</time>
      </trkpt>
      <trkpt lat="45.25298" lon="6.50044">
        <ele>2185.1999511719</ele>
        <time>2021-01-24T13:05:00.000Z</time>
      </trkpt>
      <trkpt lat="45.25298" lon="6.50044">
        <ele>2184.8000488281</ele>
        <time>2021-01-24T13:05:02.000Z</time>
      </trkpt>
      <trkpt lat="45.25298" lon="6.5004">
        <ele>2185</ele>
        <time>2021-01-24T13:05:09.000Z</time>
      </trkpt>
      <trkpt lat="45.25297" lon="6.50031">
        <ele>2185.1999511719</ele>
        <time>2021-01-24T13:05:11.000Z</time>
      </trkpt>
      <trkpt lat="45.25295" lon="6.50028">
        <ele>2185.1999511719</ele>
        <time>2021-01-24T13:05:12.000Z</time>
      </trkpt>
      <trkpt lat="45.25288" lon="6.50021">
        <ele>2183.1999511719</ele>
        <time>2021-01-24T13:05:15.000Z</time>
      </trkpt>
      <trkpt lat="45.25287" lon="6.50018">
        <ele>2181.3999023438</ele>
        <time>2021-01-24T13:05:16.000Z</time>
      </trkpt>
      <trkpt lat="45.25285" lon="6.50015">
        <ele>2179.1999511719</ele>
        <time>2021-01-24T13:05:17.000Z</time>
      </trkpt>
      <trkpt lat="45.25283" lon="6.50012">
        <ele>2176.3999023438</ele>
        <time>2021-01-24T13:05:18.000Z</time>
      </trkpt>
      <trkpt lat="45.25281" lon="6.50007">
        <ele>2174</ele>
        <time>2021-01-24T13:05:19.000Z</time>
      </trkpt>
      <trkpt lat="45.25281" lon="6.50002">
        <ele>2171.8000488281</ele>
        <time>2021-01-24T13:05:20.000Z</time>
      </trkpt>
      <trkpt lat="45.2528" lon="6.49997">
        <ele>2169.8000488281</ele>
        <time>2021-01-24T13:05:21.000Z</time>
      </trkpt>
      <trkpt lat="45.25278" lon="6.49994">
        <ele>2167.1999511719</ele>
        <time>2021-01-24T13:05:22.000Z</time>
      </trkpt>
      <trkpt lat="45.25275" lon="6.4999">
        <ele>2164.6000976562</ele>
        <time>2021-01-24T13:05:23.000Z</time>
      </trkpt>
      <trkpt lat="45.25273" lon="6.49985">
        <ele>2162</ele>
        <time>2021-01-24T13:05:24.000Z</time>
      </trkpt>
      <trkpt lat="45.25269" lon="6.49982">
        <ele>2159.8000488281</ele>
        <time>2021-01-24T13:05:25.000Z</time>
      </trkpt>
      <trkpt lat="45.25265" lon="6.4998">
        <ele>2154.6000976562</ele>
        <time>2021-01-24T13:05:26.000Z</time>
      </trkpt>
      <trkpt lat="45.25261" lon="6.49975">
        <ele>2152</ele>
        <time>2021-01-24T13:05:27.000Z</time>
      </trkpt>
      <trkpt lat="45.25259" lon="6.49969">
        <ele>2149.6000976562</ele>
        <time>2021-01-24T13:05:28.000Z</time>
      </trkpt>
      <trkpt lat="45.25258" lon="6.49961">
        <ele>2146.6000976562</ele>
        <time>2021-01-24T13:05:29.000Z</time>
      </trkpt>
      <trkpt lat="45.25256" lon="6.49953">
        <ele>2143.3999023438</ele>
        <time>2021-01-24T13:05:30.000Z</time>
      </trkpt>
      <trkpt lat="45.25253" lon="6.49947">
        <ele>2140.1999511719</ele>
        <time>2021-01-24T13:05:31.000Z</time>
      </trkpt>
      <trkpt lat="45.25249" lon="6.49942">
        <ele>2137.1999511719</ele>
        <time>2021-01-24T13:05:32.000Z</time>
      </trkpt>
      <trkpt lat="45.25247" lon="6.49935">
        <ele>2134.3999023438</ele>
        <time>2021-01-24T13:05:33.000Z</time>
      </trkpt>
      <trkpt lat="45.25244" lon="6.49927">
        <ele>2131.1999511719</ele>
        <time>2021-01-24T13:05:34.000Z</time>
      </trkpt>
      <trkpt lat="45.2524" lon="6.49917">
        <ele>2127.8000488281</ele>
        <time>2021-01-24T13:05:35.000Z</time>
      </trkpt>
      <trkpt lat="45.25236" lon="6.49908">
        <ele>2124.3999023438</ele>
        <time>2021-01-24T13:05:36.000Z</time>
      </trkpt>
      <trkpt lat="45.25231" lon="6.49899">
        <ele>2121.3999023438</ele>
        <time>2021-01-24T13:05:37.000Z</time>
      </trkpt>
      <trkpt lat="45.25225" lon="6.49889">
        <ele>2118.3999023438</ele>
        <time>2021-01-24T13:05:38.000Z</time>
      </trkpt>
      <trkpt lat="45.2522" lon="6.49879">
        <ele>2115.6000976562</ele>
        <time>2021-01-24T13:05:39.000Z</time>
      </trkpt>
      <trkpt lat="45.25213" lon="6.4987">
        <ele>2112.8000488281</ele>
        <time>2021-01-24T13:05:40.000Z</time>
      </trkpt>
      <trkpt lat="45.25207" lon="6.49861">
        <ele>2110</ele>
        <time>2021-01-24T13:05:41.000Z</time>
      </trkpt>
      <trkpt lat="45.252" lon="6.49854">
        <ele>2107.3999023438</ele>
        <time>2021-01-24T13:05:42.000Z</time>
      </trkpt>
      <trkpt lat="45.25193" lon="6.49847">
        <ele>2104.8000488281</ele>
        <time>2021-01-24T13:05:43.000Z</time>
      </trkpt>
      <trkpt lat="45.25186" lon="6.4984">
        <ele>2102.3999023438</ele>
        <time>2021-01-24T13:05:44.000Z</time>
      </trkpt>
      <trkpt lat="45.25179" lon="6.49832">
        <ele>2100</ele>
        <time>2021-01-24T13:05:45.000Z</time>
      </trkpt>
      <trkpt lat="45.25173" lon="6.49824">
        <ele>2098</ele>
        <time>2021-01-24T13:05:46.000Z</time>
      </trkpt>
      <trkpt lat="45.25167" lon="6.49815">
        <ele>2096</ele>
        <time>2021-01-24T13:05:47.000Z</time>
      </trkpt>
      <trkpt lat="45.25162" lon="6.49807">
        <ele>2094.3999023438</ele>
        <time>2021-01-24T13:05:48.000Z</time>
      </trkpt>
      <trkpt lat="45.25156" lon="6.49802">
        <ele>2092.6000976562</ele>
        <time>2021-01-24T13:05:49.000Z</time>
      </trkpt>
      <trkpt lat="45.25148" lon="6.498">
        <ele>2089.3999023438</ele>
        <time>2021-01-24T13:05:50.000Z</time>
      </trkpt>
      <trkpt lat="45.25142" lon="6.49799">
        <ele>2087.8000488281</ele>
        <time>2021-01-24T13:05:51.000Z</time>
      </trkpt>
      <trkpt lat="45.25136" lon="6.49799">
        <ele>2086.3999023438</ele>
        <time>2021-01-24T13:05:52.000Z</time>
      </trkpt>
      <trkpt lat="45.2513" lon="6.49799">
        <ele>2085</ele>
        <time>2021-01-24T13:05:53.000Z</time>
      </trkpt>
      <trkpt lat="45.25125" lon="6.49798">
        <ele>2083.8000488281</ele>
        <time>2021-01-24T13:05:54.000Z</time>
      </trkpt>
      <trkpt lat="45.2512" lon="6.49796">
        <ele>2082.1999511719</ele>
        <time>2021-01-24T13:05:56.000Z</time>
      </trkpt>
      <trkpt lat="45.25115" lon="6.49795">
        <ele>2081.3999023438</ele>
        <time>2021-01-24T13:05:58.000Z</time>
      </trkpt>
      <trkpt lat="45.25113" lon="6.49794">
        <ele>2081.1999511719</ele>
        <time>2021-01-24T13:05:59.000Z</time>
      </trkpt>
      <trkpt lat="45.25111" lon="6.49791">
        <ele>2081</ele>
        <time>2021-01-24T13:06:00.000Z</time>
      </trkpt>
      <trkpt lat="45.2511" lon="6.49782">
        <ele>2080.1999511719</ele>
        <time>2021-01-24T13:06:02.000Z</time>
      </trkpt>
      <trkpt lat="45.25112" lon="6.49776">
        <ele>2079.8000488281</ele>
        <time>2021-01-24T13:06:03.000Z</time>
      </trkpt>
      <trkpt lat="45.25115" lon="6.49762">
        <ele>2078</ele>
        <time>2021-01-24T13:06:05.000Z</time>
      </trkpt>
      <trkpt lat="45.25114" lon="6.49752">
        <ele>2076.6000976562</ele>
        <time>2021-01-24T13:06:06.000Z</time>
      </trkpt>
      <trkpt lat="45.25113" lon="6.49742">
        <ele>2075.3999023438</ele>
        <time>2021-01-24T13:06:07.000Z</time>
      </trkpt>
      <trkpt lat="45.25111" lon="6.49731">
        <ele>2074</ele>
        <time>2021-01-24T13:06:08.000Z</time>
      </trkpt>
      <trkpt lat="45.25109" lon="6.4972">
        <ele>2072.6000976562</ele>
        <time>2021-01-24T13:06:09.000Z</time>
      </trkpt>
      <trkpt lat="45.25106" lon="6.49712">
        <ele>2070.8000488281</ele>
        <time>2021-01-24T13:06:10.000Z</time>
      </trkpt>
      <trkpt lat="45.25103" lon="6.49707">
        <ele>2069.1999511719</ele>
        <time>2021-01-24T13:06:11.000Z</time>
      </trkpt>
      <trkpt lat="45.251" lon="6.49704">
        <ele>2067.8000488281</ele>
        <time>2021-01-24T13:06:12.000Z</time>
      </trkpt>
      <trkpt lat="45.25098" lon="6.49702">
        <ele>2066.1999511719</ele>
        <time>2021-01-24T13:06:13.000Z</time>
      </trkpt>
      <trkpt lat="45.25097" lon="6.49699">
        <ele>2065.1999511719</ele>
        <time>2021-01-24T13:06:14.000Z</time>
      </trkpt>
      <trkpt lat="45.25095" lon="6.49696">
        <ele>2064.1999511719</ele>
        <time>2021-01-24T13:06:15.000Z</time>
      </trkpt>
      <trkpt lat="45.25093" lon="6.49695">
        <ele>2063.8000488281</ele>
        <time>2021-01-24T13:06:16.000Z</time>
      </trkpt>
      <trkpt lat="45.25087" lon="6.49692">
        <ele>2063.1999511719</ele>
        <time>2021-01-24T13:06:21.000Z</time>
      </trkpt>
      <trkpt lat="45.25087" lon="6.49692">
        <ele>2063</ele>
        <time>2021-01-24T13:06:22.000Z</time>
      </trkpt>
      <trkpt lat="45.25085" lon="6.49694">
        <ele>2062</ele>
        <time>2021-01-24T13:06:25.000Z</time>
      </trkpt>
      <trkpt lat="45.25082" lon="6.49696">
        <ele>2061.8000488281</ele>
        <time>2021-01-24T13:06:26.000Z</time>
      </trkpt>
      <trkpt lat="45.2507" lon="6.49709">
        <ele>2060.8000488281</ele>
        <time>2021-01-24T13:06:30.000Z</time>
      </trkpt>
      <trkpt lat="45.25066" lon="6.49714">
        <ele>2060.3999023438</ele>
        <time>2021-01-24T13:06:31.000Z</time>
      </trkpt>
      <trkpt lat="45.2506" lon="6.49723">
        <ele>2059.1999511719</ele>
        <time>2021-01-24T13:06:33.000Z</time>
      </trkpt>
      <trkpt lat="45.25057" lon="6.49726">
        <ele>2058.6000976562</ele>
        <time>2021-01-24T13:06:34.000Z</time>
      </trkpt>
      <trkpt lat="45.25054" lon="6.49727">
        <ele>2057.6000976562</ele>
        <time>2021-01-24T13:06:35.000Z</time>
      </trkpt>
      <trkpt lat="45.25049" lon="6.49728">
        <ele>2056.3999023438</ele>
        <time>2021-01-24T13:06:36.000Z</time>
      </trkpt>
      <trkpt lat="45.25045" lon="6.49727">
        <ele>2055.1999511719</ele>
        <time>2021-01-24T13:06:37.000Z</time>
      </trkpt>
      <trkpt lat="45.2504" lon="6.49724">
        <ele>2054</ele>
        <time>2021-01-24T13:06:38.000Z</time>
      </trkpt>
      <trkpt lat="45.25035" lon="6.4972">
        <ele>2050.6000976562</ele>
        <time>2021-01-24T13:06:39.000Z</time>
      </trkpt>
      <trkpt lat="45.2503" lon="6.49712">
        <ele>2048.1999511719</ele>
        <time>2021-01-24T13:06:40.000Z</time>
      </trkpt>
      <trkpt lat="45.25025" lon="6.49706">
        <ele>2045.5999755859</ele>
        <time>2021-01-24T13:06:41.000Z</time>
      </trkpt>
      <trkpt lat="45.2502" lon="6.49701">
        <ele>2043</ele>
        <time>2021-01-24T13:06:42.000Z</time>
      </trkpt>
      <trkpt lat="45.25013" lon="6.49699">
        <ele>2040.8000488281</ele>
        <time>2021-01-24T13:06:43.000Z</time>
      </trkpt>
      <trkpt lat="45.25007" lon="6.49697">
        <ele>2038.8000488281</ele>
        <time>2021-01-24T13:06:44.000Z</time>
      </trkpt>
      <trkpt lat="45.25001" lon="6.49694">
        <ele>2037</ele>
        <time>2021-01-24T13:06:45.000Z</time>
      </trkpt>
      <trkpt lat="45.24995" lon="6.49692">
        <ele>2035.4000244141</ele>
        <time>2021-01-24T13:06:46.000Z</time>
      </trkpt>
      <trkpt lat="45.24989" lon="6.49691">
        <ele>2033.5999755859</ele>
        <time>2021-01-24T13:06:47.000Z</time>
      </trkpt>
      <trkpt lat="45.24985" lon="6.4969">
        <ele>2031.8000488281</ele>
        <time>2021-01-24T13:06:48.000Z</time>
      </trkpt>
      <trkpt lat="45.24981" lon="6.4969">
        <ele>2030.1999511719</ele>
        <time>2021-01-24T13:06:49.000Z</time>
      </trkpt>
      <trkpt lat="45.24979" lon="6.4969">
        <ele>2028.5999755859</ele>
        <time>2021-01-24T13:06:50.000Z</time>
      </trkpt>
      <trkpt lat="45.24978" lon="6.4969">
        <ele>2027.4000244141</ele>
        <time>2021-01-24T13:06:51.000Z</time>
      </trkpt>
      <trkpt lat="45.24976" lon="6.4969">
        <ele>2026.4000244141</ele>
        <time>2021-01-24T13:06:52.000Z</time>
      </trkpt>
      <trkpt lat="45.2497" lon="6.49682">
        <ele>2024.8000488281</ele>
        <time>2021-01-24T13:06:54.000Z</time>
      </trkpt>
      <trkpt lat="45.24963" lon="6.49674">
        <ele>2023.1999511719</ele>
        <time>2021-01-24T13:06:56.000Z</time>
      </trkpt>
      <trkpt lat="45.24954" lon="6.4967">
        <ele>2021.5999755859</ele>
        <time>2021-01-24T13:06:58.000Z</time>
      </trkpt>
      <trkpt lat="45.24947" lon="6.4967">
        <ele>2020.4000244141</ele>
        <time>2021-01-24T13:06:59.000Z</time>
      </trkpt>
      <trkpt lat="45.24941" lon="6.49668">
        <ele>2018.5999755859</ele>
        <time>2021-01-24T13:07:00.000Z</time>
      </trkpt>
      <trkpt lat="45.24934" lon="6.49667">
        <ele>2016.1999511719</ele>
        <time>2021-01-24T13:07:01.000Z</time>
      </trkpt>
      <trkpt lat="45.24927" lon="6.49668">
        <ele>2013.8000488281</ele>
        <time>2021-01-24T13:07:02.000Z</time>
      </trkpt>
      <trkpt lat="45.2492" lon="6.49669">
        <ele>2009</ele>
        <time>2021-01-24T13:07:03.000Z</time>
      </trkpt>
      <trkpt lat="45.24914" lon="6.4967">
        <ele>2007.1999511719</ele>
        <time>2021-01-24T13:07:04.000Z</time>
      </trkpt>
      <trkpt lat="45.24909" lon="6.49671">
        <ele>2006</ele>
        <time>2021-01-24T13:07:05.000Z</time>
      </trkpt>
      <trkpt lat="45.24904" lon="6.49671">
        <ele>2005</ele>
        <time>2021-01-24T13:07:06.000Z</time>
      </trkpt>
      <trkpt lat="45.24898" lon="6.49672">
        <ele>2003.5999755859</ele>
        <time>2021-01-24T13:07:08.000Z</time>
      </trkpt>
      <trkpt lat="45.24898" lon="6.49672">
        <ele>2003.4000244141</ele>
        <time>2021-01-24T13:07:09.000Z</time>
      </trkpt>
      <trkpt lat="45.24898" lon="6.49673">
        <ele>2002.8000488281</ele>
        <time>2021-01-24T13:07:18.000Z</time>
      </trkpt>
      <trkpt lat="45.24896" lon="6.49677">
        <ele>2003</ele>
        <time>2021-01-24T13:07:30.000Z</time>
      </trkpt>
      <trkpt lat="45.24895" lon="6.49676">
        <ele>2002.8000488281</ele>
        <time>2021-01-24T13:07:41.000Z</time>
      </trkpt>
      <trkpt lat="45.24893" lon="6.49676">
        <ele>2003.1999511719</ele>
        <time>2021-01-24T13:07:48.000Z</time>
      </trkpt>
      <trkpt lat="45.24893" lon="6.49676">
        <ele>2001.8000488281</ele>
        <time>2021-01-24T13:07:52.000Z</time>
      </trkpt>
      <trkpt lat="45.24893" lon="6.49676">
        <ele>2000.8000488281</ele>
        <time>2021-01-24T13:07:55.000Z</time>
      </trkpt>
      <trkpt lat="45.24893" lon="6.49676">
        <ele>2002.4000244141</ele>
        <time>2021-01-24T13:07:58.000Z</time>
      </trkpt>
      <trkpt lat="45.24893" lon="6.49676">
        <ele>2002</ele>
        <time>2021-01-24T13:08:09.000Z</time>
      </trkpt>
      <trkpt lat="45.24893" lon="6.49676">
        <ele>2002.8000488281</ele>
        <time>2021-01-24T13:08:24.000Z</time>
      </trkpt>
      <trkpt lat="45.24894" lon="6.49676">
        <ele>2002.5999755859</ele>
        <time>2021-01-24T13:08:38.000Z</time>
      </trkpt>
      <trkpt lat="45.24894" lon="6.49676">
        <ele>2002.5999755859</ele>
        <time>2021-01-24T13:08:42.000Z</time>
      </trkpt>
      <trkpt lat="45.24894" lon="6.49676">
        <ele>2002.4000244141</ele>
        <time>2021-01-24T13:08:53.000Z</time>
      </trkpt>
      <trkpt lat="45.24894" lon="6.49676">
        <ele>2002.5999755859</ele>
        <time>2021-01-24T13:09:08.000Z</time>
      </trkpt>
      <trkpt lat="45.24894" lon="6.49676">
        <ele>2002.4000244141</ele>
        <time>2021-01-24T13:09:23.000Z</time>
      </trkpt>
      <trkpt lat="45.24894" lon="6.49676">
        <ele>2002.4000244141</ele>
        <time>2021-01-24T13:09:34.000Z</time>
      </trkpt>
      <trkpt lat="45.24895" lon="6.49676">
        <ele>2002.4000244141</ele>
        <time>2021-01-24T13:09:47.000Z</time>
      </trkpt>
      <trkpt lat="45.24896" lon="6.49677">
        <ele>2002.4000244141</ele>
        <time>2021-01-24T13:09:57.000Z</time>
      </trkpt>
      <trkpt lat="45.24896" lon="6.49677">
        <ele>2002.4000244141</ele>
        <time>2021-01-24T13:09:59.000Z</time>
      </trkpt>
      <trkpt lat="45.24896" lon="6.49676">
        <ele>2002.4000244141</ele>
        <time>2021-01-24T13:10:04.000Z</time>
      </trkpt>
      <trkpt lat="45.24896" lon="6.49676">
        <ele>2002.1999511719</ele>
        <time>2021-01-24T13:10:16.000Z</time>
      </trkpt>
      <trkpt lat="45.24896" lon="6.49676">
        <ele>2002.4000244141</ele>
        <time>2021-01-24T13:10:34.000Z</time>
      </trkpt>
      <trkpt lat="45.24896" lon="6.49676">
        <ele>2002.4000244141</ele>
        <time>2021-01-24T13:10:49.000Z</time>
      </trkpt>
      <trkpt lat="45.24896" lon="6.49676">
        <ele>2002.5999755859</ele>
        <time>2021-01-24T13:11:05.000Z</time>
      </trkpt>
      <trkpt lat="45.24896" lon="6.49676">
        <ele>2002.5999755859</ele>
        <time>2021-01-24T13:11:06.000Z</time>
      </trkpt>
      <trkpt lat="45.24895" lon="6.49674">
        <ele>2002.4000244141</ele>
        <time>2021-01-24T13:11:13.000Z</time>
      </trkpt>
      <trkpt lat="45.24894" lon="6.49672">
        <ele>2002.4000244141</ele>
        <time>2021-01-24T13:11:14.000Z</time>
      </trkpt>
      <trkpt lat="45.24885" lon="6.49656">
        <ele>2002.4000244141</ele>
        <time>2021-01-24T13:11:17.000Z</time>
      </trkpt>
      <trkpt lat="45.24871" lon="6.49647">
        <ele>2000.5999755859</ele>
        <time>2021-01-24T13:11:20.000Z</time>
      </trkpt>
      <trkpt lat="45.24866" lon="6.49643">
        <ele>1999.5999755859</ele>
        <time>2021-01-24T13:11:21.000Z</time>
      </trkpt>
      <trkpt lat="45.24861" lon="6.49641">
        <ele>1998</ele>
        <time>2021-01-24T13:11:22.000Z</time>
      </trkpt>
      <trkpt lat="45.24856" lon="6.49638">
        <ele>1996.1999511719</ele>
        <time>2021-01-24T13:11:23.000Z</time>
      </trkpt>
      <trkpt lat="45.24855" lon="6.49633">
        <ele>1994.1999511719</ele>
        <time>2021-01-24T13:11:24.000Z</time>
      </trkpt>
      <trkpt lat="45.24853" lon="6.49626">
        <ele>1992.5999755859</ele>
        <time>2021-01-24T13:11:25.000Z</time>
      </trkpt>
      <trkpt lat="45.24851" lon="6.4962">
        <ele>1991.1999511719</ele>
        <time>2021-01-24T13:11:26.000Z</time>
      </trkpt>
      <trkpt lat="45.24849" lon="6.49615">
        <ele>1988</ele>
        <time>2021-01-24T13:11:27.000Z</time>
      </trkpt>
      <trkpt lat="45.24847" lon="6.49614">
        <ele>1987</ele>
        <time>2021-01-24T13:11:28.000Z</time>
      </trkpt>
      <trkpt lat="45.24846" lon="6.49614">
        <ele>1986.1999511719</ele>
        <time>2021-01-24T13:11:29.000Z</time>
      </trkpt>
      <trkpt lat="45.24846" lon="6.49613">
        <ele>1985.1999511719</ele>
        <time>2021-01-24T13:11:30.000Z</time>
      </trkpt>
      <trkpt lat="45.24845" lon="6.49612">
        <ele>1983.8000488281</ele>
        <time>2021-01-24T13:11:31.000Z</time>
      </trkpt>
      <trkpt lat="45.24843" lon="6.49611">
        <ele>1982.5999755859</ele>
        <time>2021-01-24T13:11:32.000Z</time>
      </trkpt>
      <trkpt lat="45.24838" lon="6.49603">
        <ele>1981.4000244141</ele>
        <time>2021-01-24T13:11:34.000Z</time>
      </trkpt>
      <trkpt lat="45.24837" lon="6.496">
        <ele>1980.1999511719</ele>
        <time>2021-01-24T13:11:35.000Z</time>
      </trkpt>
      <trkpt lat="45.24836" lon="6.49598">
        <ele>1979</ele>
        <time>2021-01-24T13:11:36.000Z</time>
      </trkpt>
      <trkpt lat="45.24835" lon="6.49599">
        <ele>1977.1999511719</ele>
        <time>2021-01-24T13:11:38.000Z</time>
      </trkpt>
      <trkpt lat="45.24834" lon="6.49599">
        <ele>1975.5999755859</ele>
        <time>2021-01-24T13:11:40.000Z</time>
      </trkpt>
      <trkpt lat="45.24832" lon="6.49599">
        <ele>1975.4000244141</ele>
        <time>2021-01-24T13:11:53.000Z</time>
      </trkpt>
      <trkpt lat="45.24832" lon="6.49594">
        <ele>1975.1999511719</ele>
        <time>2021-01-24T13:12:04.000Z</time>
      </trkpt>
      <trkpt lat="45.24833" lon="6.49592">
        <ele>1975.1999511719</ele>
        <time>2021-01-24T13:12:16.000Z</time>
      </trkpt>
      <trkpt lat="45.24833" lon="6.49592">
        <ele>1975.1999511719</ele>
        <time>2021-01-24T13:12:22.000Z</time>
      </trkpt>
      <trkpt lat="45.24833" lon="6.49592">
        <ele>1975.4000244141</ele>
        <time>2021-01-24T13:12:30.000Z</time>
      </trkpt>
      <trkpt lat="45.24833" lon="6.49592">
        <ele>1975.4000244141</ele>
        <time>2021-01-24T13:12:43.000Z</time>
      </trkpt>
      <trkpt lat="45.24834" lon="6.49592">
        <ele>1975.4000244141</ele>
        <time>2021-01-24T13:12:56.000Z</time>
      </trkpt>
      <trkpt lat="45.24834" lon="6.49592">
        <ele>1975.1999511719</ele>
        <time>2021-01-24T13:13:09.000Z</time>
      </trkpt>
      <trkpt lat="45.24834" lon="6.49592">
        <ele>1975.1999511719</ele>
        <time>2021-01-24T13:13:25.000Z</time>
      </trkpt>
      <trkpt lat="45.24834" lon="6.49593">
        <ele>1975</ele>
        <time>2021-01-24T13:13:41.000Z</time>
      </trkpt>
      <trkpt lat="45.24843" lon="6.49605">
        <ele>1974.8000488281</ele>
        <time>2021-01-24T13:13:48.000Z</time>
      </trkpt>
      <trkpt lat="45.24847" lon="6.49608">
        <ele>1974.8000488281</ele>
        <time>2021-01-24T13:13:51.000Z</time>
      </trkpt>
      <trkpt lat="45.24848" lon="6.49608">
        <ele>1974.5999755859</ele>
        <time>2021-01-24T13:13:53.000Z</time>
      </trkpt>
      <trkpt lat="45.24847" lon="6.49607">
        <ele>1973.4000244141</ele>
        <time>2021-01-24T13:13:57.000Z</time>
      </trkpt>
      <trkpt lat="45.24847" lon="6.49607">
        <ele>1972.5999755859</ele>
        <time>2021-01-24T13:14:02.000Z</time>
      </trkpt>
      <trkpt lat="45.24847" lon="6.49607">
        <ele>1972.4000244141</ele>
        <time>2021-01-24T13:14:05.000Z</time>
      </trkpt>
      <trkpt lat="45.24847" lon="6.49607">
        <ele>1972.1999511719</ele>
        <time>2021-01-24T13:14:07.000Z</time>
      </trkpt>
      <trkpt lat="45.24847" lon="6.49607">
        <ele>1972.1999511719</ele>
        <time>2021-01-24T13:14:15.000Z</time>
      </trkpt>
      <trkpt lat="45.24847" lon="6.49607">
        <ele>1972.1999511719</ele>
        <time>2021-01-24T13:14:30.000Z</time>
      </trkpt>
      <trkpt lat="45.24849" lon="6.49607">
        <ele>1972.4000244141</ele>
        <time>2021-01-24T13:14:41.000Z</time>
      </trkpt>
      <trkpt lat="45.24847" lon="6.49607">
        <ele>1971.1999511719</ele>
        <time>2021-01-24T13:14:45.000Z</time>
      </trkpt>
      <trkpt lat="45.24847" lon="6.49607">
        <ele>1971.1999511719</ele>
        <time>2021-01-24T13:14:46.000Z</time>
      </trkpt>
      <trkpt lat="45.24847" lon="6.49607">
        <ele>1970.8000488281</ele>
        <time>2021-01-24T13:15:00.000Z</time>
      </trkpt>
      <trkpt lat="45.24839" lon="6.49608">
        <ele>1970.8000488281</ele>
        <time>2021-01-24T13:15:06.000Z</time>
      </trkpt>
      <trkpt lat="45.24829" lon="6.49611">
        <ele>1970.1999511719</ele>
        <time>2021-01-24T13:15:09.000Z</time>
      </trkpt>
      <trkpt lat="45.24823" lon="6.49613">
        <ele>1969.8000488281</ele>
        <time>2021-01-24T13:15:10.000Z</time>
      </trkpt>
      <trkpt lat="45.24812" lon="6.49613">
        <ele>1969</ele>
        <time>2021-01-24T13:15:12.000Z</time>
      </trkpt>
      <trkpt lat="45.24809" lon="6.49609">
        <ele>1968.4000244141</ele>
        <time>2021-01-24T13:15:13.000Z</time>
      </trkpt>
      <trkpt lat="45.24806" lon="6.49604">
        <ele>1967</ele>
        <time>2021-01-24T13:15:14.000Z</time>
      </trkpt>
      <trkpt lat="45.24802" lon="6.49602">
        <ele>1965.5999755859</ele>
        <time>2021-01-24T13:15:15.000Z</time>
      </trkpt>
      <trkpt lat="45.24797" lon="6.49601">
        <ele>1964.4000244141</ele>
        <time>2021-01-24T13:15:16.000Z</time>
      </trkpt>
      <trkpt lat="45.24791" lon="6.49594">
        <ele>1963</ele>
        <time>2021-01-24T13:15:18.000Z</time>
      </trkpt>
      <trkpt lat="45.24788" lon="6.4959">
        <ele>1961.8000488281</ele>
        <time>2021-01-24T13:15:19.000Z</time>
      </trkpt>
      <trkpt lat="45.24786" lon="6.49586">
        <ele>1960.4000244141</ele>
        <time>2021-01-24T13:15:20.000Z</time>
      </trkpt>
      <trkpt lat="45.24783" lon="6.49582">
        <ele>1958.8000488281</ele>
        <time>2021-01-24T13:15:21.000Z</time>
      </trkpt>
      <trkpt lat="45.24778" lon="6.49575">
        <ele>1957.8000488281</ele>
        <time>2021-01-24T13:15:22.000Z</time>
      </trkpt>
      <trkpt lat="45.24774" lon="6.49568">
        <ele>1956.8000488281</ele>
        <time>2021-01-24T13:15:23.000Z</time>
      </trkpt>
      <trkpt lat="45.24769" lon="6.49563">
        <ele>1955</ele>
        <time>2021-01-24T13:15:24.000Z</time>
      </trkpt>
      <trkpt lat="45.24763" lon="6.49562">
        <ele>1952.5999755859</ele>
        <time>2021-01-24T13:15:25.000Z</time>
      </trkpt>
      <trkpt lat="45.24756" lon="6.49561">
        <ele>1950.5999755859</ele>
        <time>2021-01-24T13:15:26.000Z</time>
      </trkpt>
      <trkpt lat="45.24748" lon="6.49558">
        <ele>1946</ele>
        <time>2021-01-24T13:15:27.000Z</time>
      </trkpt>
      <trkpt lat="45.24738" lon="6.49552">
        <ele>1943</ele>
        <time>2021-01-24T13:15:28.000Z</time>
      </trkpt>
      <trkpt lat="45.24729" lon="6.49547">
        <ele>1940</ele>
        <time>2021-01-24T13:15:29.000Z</time>
      </trkpt>
      <trkpt lat="45.24721" lon="6.49542">
        <ele>1937</ele>
        <time>2021-01-24T13:15:30.000Z</time>
      </trkpt>
      <trkpt lat="45.24713" lon="6.49538">
        <ele>1933.8000488281</ele>
        <time>2021-01-24T13:15:31.000Z</time>
      </trkpt>
      <trkpt lat="45.24706" lon="6.49534">
        <ele>1930.8000488281</ele>
        <time>2021-01-24T13:15:32.000Z</time>
      </trkpt>
      <trkpt lat="45.24699" lon="6.4953">
        <ele>1928.1999511719</ele>
        <time>2021-01-24T13:15:33.000Z</time>
      </trkpt>
      <trkpt lat="45.24694" lon="6.49527">
        <ele>1926.4000244141</ele>
        <time>2021-01-24T13:15:34.000Z</time>
      </trkpt>
      <trkpt lat="45.24691" lon="6.49525">
        <ele>1925.1999511719</ele>
        <time>2021-01-24T13:15:35.000Z</time>
      </trkpt>
      <trkpt lat="45.24686" lon="6.49522">
        <ele>1923.5999755859</ele>
        <time>2021-01-24T13:15:37.000Z</time>
      </trkpt>
      <trkpt lat="45.24684" lon="6.4952">
        <ele>1922.5999755859</ele>
        <time>2021-01-24T13:15:39.000Z</time>
      </trkpt>
      <trkpt lat="45.24684" lon="6.4952">
        <ele>1922.4000244141</ele>
        <time>2021-01-24T13:15:40.000Z</time>
      </trkpt>
      <trkpt lat="45.24684" lon="6.49522">
        <ele>1921.5999755859</ele>
        <time>2021-01-24T13:15:48.000Z</time>
      </trkpt>
      <trkpt lat="45.24681" lon="6.4952">
        <ele>1921</ele>
        <time>2021-01-24T13:15:54.000Z</time>
      </trkpt>
      <trkpt lat="45.24674" lon="6.49514">
        <ele>1920.4000244141</ele>
        <time>2021-01-24T13:15:56.000Z</time>
      </trkpt>
      <trkpt lat="45.24671" lon="6.49512">
        <ele>1919.8000488281</ele>
        <time>2021-01-24T13:15:58.000Z</time>
      </trkpt>
      <trkpt lat="45.2467" lon="6.49512">
        <ele>1919.1999511719</ele>
        <time>2021-01-24T13:16:01.000Z</time>
      </trkpt>
      <trkpt lat="45.2467" lon="6.49512">
        <ele>1918.1999511719</ele>
        <time>2021-01-24T13:16:05.000Z</time>
      </trkpt>
      <trkpt lat="45.2467" lon="6.49512">
        <ele>1917.8000488281</ele>
        <time>2021-01-24T13:16:09.000Z</time>
      </trkpt>
      <trkpt lat="45.24669" lon="6.49512">
        <ele>1917.5999755859</ele>
        <time>2021-01-24T13:16:15.000Z</time>
      </trkpt>
      <trkpt lat="45.24666" lon="6.49509">
        <ele>1917.4000244141</ele>
        <time>2021-01-24T13:16:22.000Z</time>
      </trkpt>
      <trkpt lat="45.24664" lon="6.49508">
        <ele>1917.1999511719</ele>
        <time>2021-01-24T13:16:23.000Z</time>
      </trkpt>
      <trkpt lat="45.24662" lon="6.49508">
        <ele>1917</ele>
        <time>2021-01-24T13:16:24.000Z</time>
      </trkpt>
      <trkpt lat="45.24648" lon="6.49508">
        <ele>1915.8000488281</ele>
        <time>2021-01-24T13:16:30.000Z</time>
      </trkpt>
      <trkpt lat="45.24636" lon="6.49509">
        <ele>1914.5999755859</ele>
        <time>2021-01-24T13:16:34.000Z</time>
      </trkpt>
      <trkpt lat="45.24635" lon="6.49507">
        <ele>1913.8000488281</ele>
        <time>2021-01-24T13:16:35.000Z</time>
      </trkpt>
      <trkpt lat="45.24635" lon="6.49506">
        <ele>1912.5999755859</ele>
        <time>2021-01-24T13:16:36.000Z</time>
      </trkpt>
      <trkpt lat="45.24634" lon="6.49506">
        <ele>1911.4000244141</ele>
        <time>2021-01-24T13:16:37.000Z</time>
      </trkpt>
      <trkpt lat="45.24633" lon="6.49506">
        <ele>1909.8000488281</ele>
        <time>2021-01-24T13:16:39.000Z</time>
      </trkpt>
      <trkpt lat="45.24633" lon="6.49504">
        <ele>1908.5999755859</ele>
        <time>2021-01-24T13:16:40.000Z</time>
      </trkpt>
      <trkpt lat="45.24636" lon="6.49499">
        <ele>1907.4000244141</ele>
        <time>2021-01-24T13:16:43.000Z</time>
      </trkpt>
      <trkpt lat="45.24638" lon="6.49498">
        <ele>1906.4000244141</ele>
        <time>2021-01-24T13:16:48.000Z</time>
      </trkpt>
      <trkpt lat="45.24638" lon="6.49498">
        <ele>1906.4000244141</ele>
        <time>2021-01-24T13:16:49.000Z</time>
      </trkpt>
      <trkpt lat="45.24639" lon="6.49497">
        <ele>1906.1999511719</ele>
        <time>2021-01-24T13:16:50.000Z</time>
      </trkpt>
      <trkpt lat="45.24641" lon="6.49486">
        <ele>1906</ele>
        <time>2021-01-24T13:16:52.000Z</time>
      </trkpt>
      <trkpt lat="45.24639" lon="6.49464">
        <ele>1905</ele>
        <time>2021-01-24T13:16:55.000Z</time>
      </trkpt>
      <trkpt lat="45.24638" lon="6.49452">
        <ele>1903</ele>
        <time>2021-01-24T13:16:57.000Z</time>
      </trkpt>
      <trkpt lat="45.2464" lon="6.49445">
        <ele>1901.8000488281</ele>
        <time>2021-01-24T13:16:58.000Z</time>
      </trkpt>
      <trkpt lat="45.24642" lon="6.49439">
        <ele>1900</ele>
        <time>2021-01-24T13:16:59.000Z</time>
      </trkpt>
      <trkpt lat="45.24644" lon="6.49432">
        <ele>1898.1999511719</ele>
        <time>2021-01-24T13:17:00.000Z</time>
      </trkpt>
      <trkpt lat="45.24645" lon="6.49426">
        <ele>1897</ele>
        <time>2021-01-24T13:17:01.000Z</time>
      </trkpt>
      <trkpt lat="45.24645" lon="6.49422">
        <ele>1896</ele>
        <time>2021-01-24T13:17:02.000Z</time>
      </trkpt>
      <trkpt lat="45.24644" lon="6.49421">
        <ele>1894.8000488281</ele>
        <time>2021-01-24T13:17:03.000Z</time>
      </trkpt>
      <trkpt lat="45.24642" lon="6.49421">
        <ele>1891.8000488281</ele>
        <time>2021-01-24T13:17:04.000Z</time>
      </trkpt>
      <trkpt lat="45.2464" lon="6.49421">
        <ele>1890.1999511719</ele>
        <time>2021-01-24T13:17:05.000Z</time>
      </trkpt>
      <trkpt lat="45.24637" lon="6.49422">
        <ele>1888.8000488281</ele>
        <time>2021-01-24T13:17:06.000Z</time>
      </trkpt>
      <trkpt lat="45.24635" lon="6.49423">
        <ele>1887.1999511719</ele>
        <time>2021-01-24T13:17:07.000Z</time>
      </trkpt>
      <trkpt lat="45.24634" lon="6.49423">
        <ele>1885.8000488281</ele>
        <time>2021-01-24T13:17:08.000Z</time>
      </trkpt>
      <trkpt lat="45.24633" lon="6.49421">
        <ele>1884.5999755859</ele>
        <time>2021-01-24T13:17:09.000Z</time>
      </trkpt>
      <trkpt lat="45.24633" lon="6.49419">
        <ele>1883.5999755859</ele>
        <time>2021-01-24T13:17:10.000Z</time>
      </trkpt>
      <trkpt lat="45.24634" lon="6.49418">
        <ele>1882.4000244141</ele>
        <time>2021-01-24T13:17:11.000Z</time>
      </trkpt>
      <trkpt lat="45.24634" lon="6.49417">
        <ele>1881.1999511719</ele>
        <time>2021-01-24T13:17:12.000Z</time>
      </trkpt>
      <trkpt lat="45.24634" lon="6.49413">
        <ele>1880</ele>
        <time>2021-01-24T13:17:13.000Z</time>
      </trkpt>
      <trkpt lat="45.24635" lon="6.49405">
        <ele>1878.5999755859</ele>
        <time>2021-01-24T13:17:15.000Z</time>
      </trkpt>
      <trkpt lat="45.24635" lon="6.49398">
        <ele>1877.1999511719</ele>
        <time>2021-01-24T13:17:17.000Z</time>
      </trkpt>
      <trkpt lat="45.24636" lon="6.49395">
        <ele>1876.1999511719</ele>
        <time>2021-01-24T13:17:18.000Z</time>
      </trkpt>
      <trkpt lat="45.24636" lon="6.49392">
        <ele>1875</ele>
        <time>2021-01-24T13:17:19.000Z</time>
      </trkpt>
      <trkpt lat="45.24636" lon="6.4939">
        <ele>1874.1999511719</ele>
        <time>2021-01-24T13:17:20.000Z</time>
      </trkpt>
      <trkpt lat="45.24634" lon="6.49388">
        <ele>1873.5999755859</ele>
        <time>2021-01-24T13:17:21.000Z</time>
      </trkpt>
      <trkpt lat="45.24631" lon="6.49388">
        <ele>1873</ele>
        <time>2021-01-24T13:17:22.000Z</time>
      </trkpt>
      <trkpt lat="45.24629" lon="6.49386">
        <ele>1872</ele>
        <time>2021-01-24T13:17:23.000Z</time>
      </trkpt>
      <trkpt lat="45.24628" lon="6.49382">
        <ele>1870.4000244141</ele>
        <time>2021-01-24T13:17:24.000Z</time>
      </trkpt>
      <trkpt lat="45.24628" lon="6.49377">
        <ele>1868.4000244141</ele>
        <time>2021-01-24T13:17:25.000Z</time>
      </trkpt>
      <trkpt lat="45.24628" lon="6.49371">
        <ele>1866.5999755859</ele>
        <time>2021-01-24T13:17:26.000Z</time>
      </trkpt>
      <trkpt lat="45.24628" lon="6.49365">
        <ele>1864.8000488281</ele>
        <time>2021-01-24T13:17:27.000Z</time>
      </trkpt>
      <trkpt lat="45.24628" lon="6.49358">
        <ele>1862.4000244141</ele>
        <time>2021-01-24T13:17:28.000Z</time>
      </trkpt>
      <trkpt lat="45.24627" lon="6.49353">
        <ele>1860.8000488281</ele>
        <time>2021-01-24T13:17:29.000Z</time>
      </trkpt>
      <trkpt lat="45.24627" lon="6.4935">
        <ele>1858.8000488281</ele>
        <time>2021-01-24T13:17:30.000Z</time>
      </trkpt>
      <trkpt lat="45.24627" lon="6.49349">
        <ele>1857.1999511719</ele>
        <time>2021-01-24T13:17:31.000Z</time>
      </trkpt>
      <trkpt lat="45.24626" lon="6.49348">
        <ele>1856.1999511719</ele>
        <time>2021-01-24T13:17:32.000Z</time>
      </trkpt>
      <trkpt lat="45.24626" lon="6.49347">
        <ele>1854.8000488281</ele>
        <time>2021-01-24T13:17:34.000Z</time>
      </trkpt>
      <trkpt lat="45.24626" lon="6.49347">
        <ele>1853.5999755859</ele>
        <time>2021-01-24T13:17:36.000Z</time>
      </trkpt>
      <trkpt lat="45.24626" lon="6.49346">
        <ele>1852.4000244141</ele>
        <time>2021-01-24T13:17:39.000Z</time>
      </trkpt>
      <trkpt lat="45.24626" lon="6.49345">
        <ele>1852.1999511719</ele>
        <time>2021-01-24T13:17:40.000Z</time>
      </trkpt>
      <trkpt lat="45.24621" lon="6.49347">
        <ele>1852.1999511719</ele>
        <time>2021-01-24T13:17:49.000Z</time>
      </trkpt>
      <trkpt lat="45.24621" lon="6.49347">
        <ele>1851.8000488281</ele>
        <time>2021-01-24T13:17:59.000Z</time>
      </trkpt>
      <trkpt lat="45.24617" lon="6.49349">
        <ele>1852.8000488281</ele>
        <time>2021-01-24T13:18:05.000Z</time>
      </trkpt>
      <trkpt lat="45.24617" lon="6.49349">
        <ele>1851.5999755859</ele>
        <time>2021-01-24T13:18:13.000Z</time>
      </trkpt>
      <trkpt lat="45.24617" lon="6.49349">
        <ele>1851.1999511719</ele>
        <time>2021-01-24T13:18:14.000Z</time>
      </trkpt>
      <trkpt lat="45.24616" lon="6.49347">
        <ele>1852</ele>
        <time>2021-01-24T13:18:24.000Z</time>
      </trkpt>
      <trkpt lat="45.24613" lon="6.49329">
        <ele>1851.5999755859</ele>
        <time>2021-01-24T13:18:28.000Z</time>
      </trkpt>
      <trkpt lat="45.24612" lon="6.49314">
        <ele>1850</ele>
        <time>2021-01-24T13:18:30.000Z</time>
      </trkpt>
      <trkpt lat="45.24612" lon="6.49306">
        <ele>1848.5999755859</ele>
        <time>2021-01-24T13:18:31.000Z</time>
      </trkpt>
      <trkpt lat="45.2461" lon="6.49298">
        <ele>1847.4000244141</ele>
        <time>2021-01-24T13:18:32.000Z</time>
      </trkpt>
      <trkpt lat="45.24609" lon="6.49292">
        <ele>1846.1999511719</ele>
        <time>2021-01-24T13:18:33.000Z</time>
      </trkpt>
      <trkpt lat="45.24607" lon="6.49285">
        <ele>1844.8000488281</ele>
        <time>2021-01-24T13:18:34.000Z</time>
      </trkpt>
      <trkpt lat="45.24604" lon="6.49279">
        <ele>1842.8000488281</ele>
        <time>2021-01-24T13:18:35.000Z</time>
      </trkpt>
      <trkpt lat="45.24602" lon="6.49271">
        <ele>1840.4000244141</ele>
        <time>2021-01-24T13:18:36.000Z</time>
      </trkpt>
      <trkpt lat="45.24601" lon="6.49262">
        <ele>1838</ele>
        <time>2021-01-24T13:18:37.000Z</time>
      </trkpt>
      <trkpt lat="45.24599" lon="6.49253">
        <ele>1835.4000244141</ele>
        <time>2021-01-24T13:18:38.000Z</time>
      </trkpt>
      <trkpt lat="45.24597" lon="6.49246">
        <ele>1833</ele>
        <time>2021-01-24T13:18:39.000Z</time>
      </trkpt>
      <trkpt lat="45.24594" lon="6.4924">
        <ele>1829.5999755859</ele>
        <time>2021-01-24T13:18:40.000Z</time>
      </trkpt>
      <trkpt lat="45.2459" lon="6.49233">
        <ele>1828</ele>
        <time>2021-01-24T13:18:41.000Z</time>
      </trkpt>
      <trkpt lat="45.24587" lon="6.49226">
        <ele>1825.1999511719</ele>
        <time>2021-01-24T13:18:42.000Z</time>
      </trkpt>
      <trkpt lat="45.24586" lon="6.4922">
        <ele>1821.5999755859</ele>
        <time>2021-01-24T13:18:43.000Z</time>
      </trkpt>
      <trkpt lat="45.24586" lon="6.49217">
        <ele>1818.1999511719</ele>
        <time>2021-01-24T13:18:44.000Z</time>
      </trkpt>
      <trkpt lat="45.24587" lon="6.49216">
        <ele>1815.5999755859</ele>
        <time>2021-01-24T13:18:45.000Z</time>
      </trkpt>
      <trkpt lat="45.24587" lon="6.49216">
        <ele>1814.1999511719</ele>
        <time>2021-01-24T13:18:46.000Z</time>
      </trkpt>
      <trkpt lat="45.24587" lon="6.49217">
        <ele>1812.8000488281</ele>
        <time>2021-01-24T13:18:47.000Z</time>
      </trkpt>
      <trkpt lat="45.24587" lon="6.49216">
        <ele>1811.5999755859</ele>
        <time>2021-01-24T13:18:48.000Z</time>
      </trkpt>
      <trkpt lat="45.24587" lon="6.49214">
        <ele>1810.1999511719</ele>
        <time>2021-01-24T13:18:50.000Z</time>
      </trkpt>
      <trkpt lat="45.24587" lon="6.49214">
        <ele>1809.5999755859</ele>
        <time>2021-01-24T13:18:51.000Z</time>
      </trkpt>
      <trkpt lat="45.24586" lon="6.49213">
        <ele>1809</ele>
        <time>2021-01-24T13:18:56.000Z</time>
      </trkpt>
      <trkpt lat="45.24586" lon="6.49213">
        <ele>1808.8000488281</ele>
        <time>2021-01-24T13:18:59.000Z</time>
      </trkpt>
      <trkpt lat="45.24587" lon="6.49212">
        <ele>1808.5999755859</ele>
        <time>2021-01-24T13:19:02.000Z</time>
      </trkpt>
      <trkpt lat="45.24584" lon="6.49204">
        <ele>1807.5999755859</ele>
        <time>2021-01-24T13:19:04.000Z</time>
      </trkpt>
      <trkpt lat="45.2458" lon="6.4919">
        <ele>1806.5999755859</ele>
        <time>2021-01-24T13:19:06.000Z</time>
      </trkpt>
      <trkpt lat="45.24578" lon="6.49182">
        <ele>1805.8000488281</ele>
        <time>2021-01-24T13:19:07.000Z</time>
      </trkpt>
      <trkpt lat="45.24578" lon="6.49174">
        <ele>1804.8000488281</ele>
        <time>2021-01-24T13:19:08.000Z</time>
      </trkpt>
      <trkpt lat="45.24578" lon="6.49167">
        <ele>1803.4000244141</ele>
        <time>2021-01-24T13:19:09.000Z</time>
      </trkpt>
      <trkpt lat="45.24577" lon="6.49161">
        <ele>1802</ele>
        <time>2021-01-24T13:19:10.000Z</time>
      </trkpt>
      <trkpt lat="45.24573" lon="6.49155">
        <ele>1800.8000488281</ele>
        <time>2021-01-24T13:19:11.000Z</time>
      </trkpt>
      <trkpt lat="45.24567" lon="6.49151">
        <ele>1799.8000488281</ele>
        <time>2021-01-24T13:19:12.000Z</time>
      </trkpt>
      <trkpt lat="45.24562" lon="6.49147">
        <ele>1797.8000488281</ele>
        <time>2021-01-24T13:19:13.000Z</time>
      </trkpt>
      <trkpt lat="45.24558" lon="6.49143">
        <ele>1795.4000244141</ele>
        <time>2021-01-24T13:19:14.000Z</time>
      </trkpt>
      <trkpt lat="45.24554" lon="6.49138">
        <ele>1793</ele>
        <time>2021-01-24T13:19:15.000Z</time>
      </trkpt>
      <trkpt lat="45.24549" lon="6.49134">
        <ele>1791.4000244141</ele>
        <time>2021-01-24T13:19:16.000Z</time>
      </trkpt>
      <trkpt lat="45.24544" lon="6.4913">
        <ele>1790.4000244141</ele>
        <time>2021-01-24T13:19:17.000Z</time>
      </trkpt>
      <trkpt lat="45.24538" lon="6.49128">
        <ele>1789.1999511719</ele>
        <time>2021-01-24T13:19:18.000Z</time>
      </trkpt>
      <trkpt lat="45.24531" lon="6.49127">
        <ele>1787.8000488281</ele>
        <time>2021-01-24T13:19:19.000Z</time>
      </trkpt>
      <trkpt lat="45.24525" lon="6.49126">
        <ele>1786.1999511719</ele>
        <time>2021-01-24T13:19:20.000Z</time>
      </trkpt>
      <trkpt lat="45.24519" lon="6.49124">
        <ele>1784.5999755859</ele>
        <time>2021-01-24T13:19:21.000Z</time>
      </trkpt>
      <trkpt lat="45.24514" lon="6.49123">
        <ele>1783.4000244141</ele>
        <time>2021-01-24T13:19:22.000Z</time>
      </trkpt>
      <trkpt lat="45.24511" lon="6.49121">
        <ele>1782.1999511719</ele>
        <time>2021-01-24T13:19:23.000Z</time>
      </trkpt>
      <trkpt lat="45.24507" lon="6.49119">
        <ele>1781.4000244141</ele>
        <time>2021-01-24T13:19:24.000Z</time>
      </trkpt>
      <trkpt lat="45.24503" lon="6.49117">
        <ele>1780.5999755859</ele>
        <time>2021-01-24T13:19:25.000Z</time>
      </trkpt>
      <trkpt lat="45.24497" lon="6.49115">
        <ele>1780</ele>
        <time>2021-01-24T13:19:28.000Z</time>
      </trkpt>
      <trkpt lat="45.24492" lon="6.49113">
        <ele>1779.8000488281</ele>
        <time>2021-01-24T13:19:35.000Z</time>
      </trkpt>
      <trkpt lat="45.24485" lon="6.49111">
        <ele>1779.5999755859</ele>
        <time>2021-01-24T13:19:45.000Z</time>
      </trkpt>
      <trkpt lat="45.24484" lon="6.49112">
        <ele>1779.5999755859</ele>
        <time>2021-01-24T13:19:49.000Z</time>
      </trkpt>
      <trkpt lat="45.24485" lon="6.49116">
        <ele>1780.4000244141</ele>
        <time>2021-01-24T13:19:55.000Z</time>
      </trkpt>
      <trkpt lat="45.24485" lon="6.49116">
        <ele>1780.5999755859</ele>
        <time>2021-01-24T13:19:58.000Z</time>
      </trkpt>
      <trkpt lat="45.24485" lon="6.49116">
        <ele>1780.8000488281</ele>
        <time>2021-01-24T13:20:06.000Z</time>
      </trkpt>
      <trkpt lat="45.24485" lon="6.49116">
        <ele>1779</ele>
        <time>2021-01-24T13:20:09.000Z</time>
      </trkpt>
      <trkpt lat="45.24485" lon="6.49116">
        <ele>1780.1999511719</ele>
        <time>2021-01-24T13:20:16.000Z</time>
      </trkpt>
      <trkpt lat="45.24485" lon="6.49116">
        <ele>1780.4000244141</ele>
        <time>2021-01-24T13:20:22.000Z</time>
      </trkpt>
      <trkpt lat="45.24485" lon="6.49116">
        <ele>1780.5999755859</ele>
        <time>2021-01-24T13:20:23.000Z</time>
      </trkpt>
      <trkpt lat="45.24486" lon="6.49119">
        <ele>1781</ele>
        <time>2021-01-24T13:20:29.000Z</time>
      </trkpt>
      <trkpt lat="45.24486" lon="6.49119">
        <ele>1780.4000244141</ele>
        <time>2021-01-24T13:20:47.000Z</time>
      </trkpt>
      <trkpt lat="45.24486" lon="6.49119">
        <ele>1778.8000488281</ele>
        <time>2021-01-24T13:20:55.000Z</time>
      </trkpt>
      <trkpt lat="45.24486" lon="6.49119">
        <ele>1778.5999755859</ele>
        <time>2021-01-24T13:20:57.000Z</time>
      </trkpt>
      <trkpt lat="45.24486" lon="6.49119">
        <ele>1780.1999511719</ele>
        <time>2021-01-24T13:21:02.000Z</time>
      </trkpt>
      <trkpt lat="45.24487" lon="6.49117">
        <ele>1780.4000244141</ele>
        <time>2021-01-24T13:21:06.000Z</time>
      </trkpt>
      <trkpt lat="45.2449" lon="6.49115">
        <ele>1780</ele>
        <time>2021-01-24T13:21:07.000Z</time>
      </trkpt>
      <trkpt lat="45.24499" lon="6.49102">
        <ele>1778.8000488281</ele>
        <time>2021-01-24T13:21:09.000Z</time>
      </trkpt>
      <trkpt lat="45.24503" lon="6.49096">
        <ele>1778.1999511719</ele>
        <time>2021-01-24T13:21:10.000Z</time>
      </trkpt>
      <trkpt lat="45.24509" lon="6.49085">
        <ele>1777.4000244141</ele>
        <time>2021-01-24T13:21:12.000Z</time>
      </trkpt>
      <trkpt lat="45.24516" lon="6.49076">
        <ele>1776.4000244141</ele>
        <time>2021-01-24T13:21:14.000Z</time>
      </trkpt>
      <trkpt lat="45.24523" lon="6.49071">
        <ele>1774.5999755859</ele>
        <time>2021-01-24T13:21:16.000Z</time>
      </trkpt>
      <trkpt lat="45.24525" lon="6.49069">
        <ele>1773.5999755859</ele>
        <time>2021-01-24T13:21:17.000Z</time>
      </trkpt>
      <trkpt lat="45.24527" lon="6.49066">
        <ele>1772.5999755859</ele>
        <time>2021-01-24T13:21:18.000Z</time>
      </trkpt>
      <trkpt lat="45.24531" lon="6.49057">
        <ele>1771.1999511719</ele>
        <time>2021-01-24T13:21:20.000Z</time>
      </trkpt>
      <trkpt lat="45.24537" lon="6.49049">
        <ele>1770.1999511719</ele>
        <time>2021-01-24T13:21:22.000Z</time>
      </trkpt>
      <trkpt lat="45.24541" lon="6.49047">
        <ele>1769</ele>
        <time>2021-01-24T13:21:23.000Z</time>
      </trkpt>
      <trkpt lat="45.24545" lon="6.49044">
        <ele>1767.8000488281</ele>
        <time>2021-01-24T13:21:24.000Z</time>
      </trkpt>
      <trkpt lat="45.24549" lon="6.4904">
        <ele>1766.5999755859</ele>
        <time>2021-01-24T13:21:25.000Z</time>
      </trkpt>
      <trkpt lat="45.24555" lon="6.49028">
        <ele>1765.4000244141</ele>
        <time>2021-01-24T13:21:27.000Z</time>
      </trkpt>
      <trkpt lat="45.24558" lon="6.49021">
        <ele>1764</ele>
        <time>2021-01-24T13:21:28.000Z</time>
      </trkpt>
      <trkpt lat="45.24562" lon="6.49012">
        <ele>1762.1999511719</ele>
        <time>2021-01-24T13:21:29.000Z</time>
      </trkpt>
      <trkpt lat="45.24563" lon="6.49003">
        <ele>1760.1999511719</ele>
        <time>2021-01-24T13:21:30.000Z</time>
      </trkpt>
      <trkpt lat="45.24563" lon="6.48993">
        <ele>1758.4000244141</ele>
        <time>2021-01-24T13:21:31.000Z</time>
      </trkpt>
      <trkpt lat="45.24562" lon="6.48983">
        <ele>1756.5999755859</ele>
        <time>2021-01-24T13:21:32.000Z</time>
      </trkpt>
      <trkpt lat="45.2456" lon="6.48974">
        <ele>1754.1999511719</ele>
        <time>2021-01-24T13:21:33.000Z</time>
      </trkpt>
      <trkpt lat="45.24559" lon="6.48968">
        <ele>1751.5999755859</ele>
        <time>2021-01-24T13:21:34.000Z</time>
      </trkpt>
      <trkpt lat="45.24558" lon="6.48961">
        <ele>1748.8000488281</ele>
        <time>2021-01-24T13:21:35.000Z</time>
      </trkpt>
      <trkpt lat="45.24556" lon="6.48955">
        <ele>1746</ele>
        <time>2021-01-24T13:21:36.000Z</time>
      </trkpt>
      <trkpt lat="45.24553" lon="6.4895">
        <ele>1743.8000488281</ele>
        <time>2021-01-24T13:21:37.000Z</time>
      </trkpt>
      <trkpt lat="45.24549" lon="6.48947">
        <ele>1742.4000244141</ele>
        <time>2021-01-24T13:21:38.000Z</time>
      </trkpt>
      <trkpt lat="45.24546" lon="6.48945">
        <ele>1741.1999511719</ele>
        <time>2021-01-24T13:21:39.000Z</time>
      </trkpt>
      <trkpt lat="45.24543" lon="6.48943">
        <ele>1739.5999755859</ele>
        <time>2021-01-24T13:21:40.000Z</time>
      </trkpt>
      <trkpt lat="45.24541" lon="6.48943">
        <ele>1737.8000488281</ele>
        <time>2021-01-24T13:21:41.000Z</time>
      </trkpt>
      <trkpt lat="45.2454" lon="6.48943">
        <ele>1736.8000488281</ele>
        <time>2021-01-24T13:21:42.000Z</time>
      </trkpt>
      <trkpt lat="45.24534" lon="6.48943">
        <ele>1735.5999755859</ele>
        <time>2021-01-24T13:21:45.000Z</time>
      </trkpt>
      <trkpt lat="45.24529" lon="6.48937">
        <ele>1735.5999755859</ele>
        <time>2021-01-24T13:21:48.000Z</time>
      </trkpt>
      <trkpt lat="45.24527" lon="6.48933">
        <ele>1735.4000244141</ele>
        <time>2021-01-24T13:21:49.000Z</time>
      </trkpt>
      <trkpt lat="45.24525" lon="6.48919">
        <ele>1734.1999511719</ele>
        <time>2021-01-24T13:21:52.000Z</time>
      </trkpt>
      <trkpt lat="45.24528" lon="6.48912">
        <ele>1733.1999511719</ele>
        <time>2021-01-24T13:21:54.000Z</time>
      </trkpt>
      <trkpt lat="45.2453" lon="6.4891">
        <ele>1731.8000488281</ele>
        <time>2021-01-24T13:21:55.000Z</time>
      </trkpt>
      <trkpt lat="45.24531" lon="6.48907">
        <ele>1730.8000488281</ele>
        <time>2021-01-24T13:21:56.000Z</time>
      </trkpt>
      <trkpt lat="45.24533" lon="6.489">
        <ele>1729.4000244141</ele>
        <time>2021-01-24T13:21:58.000Z</time>
      </trkpt>
      <trkpt lat="45.24536" lon="6.48893">
        <ele>1727.8000488281</ele>
        <time>2021-01-24T13:22:00.000Z</time>
      </trkpt>
      <trkpt lat="45.24537" lon="6.4889">
        <ele>1726.5999755859</ele>
        <time>2021-01-24T13:22:01.000Z</time>
      </trkpt>
      <trkpt lat="45.24541" lon="6.48882">
        <ele>1725.4000244141</ele>
        <time>2021-01-24T13:22:03.000Z</time>
      </trkpt>
      <trkpt lat="45.24544" lon="6.48878">
        <ele>1725</ele>
        <time>2021-01-24T13:22:04.000Z</time>
      </trkpt>
      <trkpt lat="45.24551" lon="6.48865">
        <ele>1724.1999511719</ele>
        <time>2021-01-24T13:22:06.000Z</time>
      </trkpt>
      <trkpt lat="45.24552" lon="6.48857">
        <ele>1723.8000488281</ele>
        <time>2021-01-24T13:22:07.000Z</time>
      </trkpt>
      <trkpt lat="45.24554" lon="6.48847">
        <ele>1723</ele>
        <time>2021-01-24T13:22:08.000Z</time>
      </trkpt>
      <trkpt lat="45.24557" lon="6.48837">
        <ele>1721.8000488281</ele>
        <time>2021-01-24T13:22:09.000Z</time>
      </trkpt>
      <trkpt lat="45.24558" lon="6.48827">
        <ele>1720.1999511719</ele>
        <time>2021-01-24T13:22:10.000Z</time>
      </trkpt>
      <trkpt lat="45.24558" lon="6.48816">
        <ele>1718.4000244141</ele>
        <time>2021-01-24T13:22:11.000Z</time>
      </trkpt>
      <trkpt lat="45.24558" lon="6.48805">
        <ele>1716.1999511719</ele>
        <time>2021-01-24T13:22:12.000Z</time>
      </trkpt>
      <trkpt lat="45.24559" lon="6.48794">
        <ele>1713.5999755859</ele>
        <time>2021-01-24T13:22:13.000Z</time>
      </trkpt>
      <trkpt lat="45.24561" lon="6.48783">
        <ele>1710.5999755859</ele>
        <time>2021-01-24T13:22:14.000Z</time>
      </trkpt>
      <trkpt lat="45.24564" lon="6.48775">
        <ele>1707.8000488281</ele>
        <time>2021-01-24T13:22:15.000Z</time>
      </trkpt>
      <trkpt lat="45.24567" lon="6.48768">
        <ele>1702.8000488281</ele>
        <time>2021-01-24T13:22:16.000Z</time>
      </trkpt>
      <trkpt lat="45.24569" lon="6.4876">
        <ele>1700.5999755859</ele>
        <time>2021-01-24T13:22:17.000Z</time>
      </trkpt>
      <trkpt lat="45.24572" lon="6.48752">
        <ele>1698.8000488281</ele>
        <time>2021-01-24T13:22:18.000Z</time>
      </trkpt>
      <trkpt lat="45.24574" lon="6.48743">
        <ele>1697.5999755859</ele>
        <time>2021-01-24T13:22:19.000Z</time>
      </trkpt>
      <trkpt lat="45.24578" lon="6.48734">
        <ele>1696.4000244141</ele>
        <time>2021-01-24T13:22:20.000Z</time>
      </trkpt>
      <trkpt lat="45.24581" lon="6.48724">
        <ele>1694.5999755859</ele>
        <time>2021-01-24T13:22:21.000Z</time>
      </trkpt>
      <trkpt lat="45.24585" lon="6.48715">
        <ele>1692.4000244141</ele>
        <time>2021-01-24T13:22:22.000Z</time>
      </trkpt>
      <trkpt lat="45.24589" lon="6.48706">
        <ele>1690.4000244141</ele>
        <time>2021-01-24T13:22:23.000Z</time>
      </trkpt>
      <trkpt lat="45.24593" lon="6.48698">
        <ele>1688.5999755859</ele>
        <time>2021-01-24T13:22:24.000Z</time>
      </trkpt>
      <trkpt lat="45.24598" lon="6.48691">
        <ele>1686.4000244141</ele>
        <time>2021-01-24T13:22:25.000Z</time>
      </trkpt>
      <trkpt lat="45.24603" lon="6.48685">
        <ele>1684.1999511719</ele>
        <time>2021-01-24T13:22:26.000Z</time>
      </trkpt>
      <trkpt lat="45.24608" lon="6.4868">
        <ele>1682</ele>
        <time>2021-01-24T13:22:27.000Z</time>
      </trkpt>
      <trkpt lat="45.24613" lon="6.48677">
        <ele>1679.5999755859</ele>
        <time>2021-01-24T13:22:28.000Z</time>
      </trkpt>
      <trkpt lat="45.24618" lon="6.48673">
        <ele>1677.8000488281</ele>
        <time>2021-01-24T13:22:29.000Z</time>
      </trkpt>
      <trkpt lat="45.24622" lon="6.4867">
        <ele>1676.5999755859</ele>
        <time>2021-01-24T13:22:30.000Z</time>
      </trkpt>
      <trkpt lat="45.24628" lon="6.48661">
        <ele>1674.8000488281</ele>
        <time>2021-01-24T13:22:32.000Z</time>
      </trkpt>
      <trkpt lat="45.24628" lon="6.48658">
        <ele>1674.1999511719</ele>
        <time>2021-01-24T13:22:33.000Z</time>
      </trkpt>
      <trkpt lat="45.24628" lon="6.48656">
        <ele>1673.5999755859</ele>
        <time>2021-01-24T13:22:34.000Z</time>
      </trkpt>
      <trkpt lat="45.24627" lon="6.48654">
        <ele>1672.8000488281</ele>
        <time>2021-01-24T13:22:35.000Z</time>
      </trkpt>
      <trkpt lat="45.24627" lon="6.48654">
        <ele>1671.8000488281</ele>
        <time>2021-01-24T13:22:36.000Z</time>
      </trkpt>
      <trkpt lat="45.24627" lon="6.48654">
        <ele>1671</ele>
        <time>2021-01-24T13:22:37.000Z</time>
      </trkpt>
      <trkpt lat="45.24627" lon="6.48654">
        <ele>1670.4000244141</ele>
        <time>2021-01-24T13:22:38.000Z</time>
      </trkpt>
      <trkpt lat="45.24627" lon="6.48654">
        <ele>1669.5999755859</ele>
        <time>2021-01-24T13:22:45.000Z</time>
      </trkpt>
      <trkpt lat="45.24627" lon="6.48654">
        <ele>1669.5999755859</ele>
        <time>2021-01-24T13:22:54.000Z</time>
      </trkpt>
      <trkpt lat="45.24627" lon="6.48654">
        <ele>1669.4000244141</ele>
        <time>2021-01-24T13:22:57.000Z</time>
      </trkpt>
      <trkpt lat="45.24627" lon="6.48653">
        <ele>1668.1999511719</ele>
        <time>2021-01-24T13:23:03.000Z</time>
      </trkpt>
      <trkpt lat="45.24627" lon="6.48653">
        <ele>1669</ele>
        <time>2021-01-24T13:23:06.000Z</time>
      </trkpt>
      <trkpt lat="45.24627" lon="6.48653">
        <ele>1669.4000244141</ele>
        <time>2021-01-24T13:23:07.000Z</time>
      </trkpt>
      <trkpt lat="45.24627" lon="6.48654">
        <ele>1669.8000488281</ele>
        <time>2021-01-24T13:23:10.000Z</time>
      </trkpt>
      <trkpt lat="45.24625" lon="6.48657">
        <ele>1669.8000488281</ele>
        <time>2021-01-24T13:23:16.000Z</time>
      </trkpt>
      <trkpt lat="45.24625" lon="6.48657">
        <ele>1668.1999511719</ele>
        <time>2021-01-24T13:23:21.000Z</time>
      </trkpt>
      <trkpt lat="45.24625" lon="6.48657">
        <ele>1668.1999511719</ele>
        <time>2021-01-24T13:23:23.000Z</time>
      </trkpt>
      <trkpt lat="45.24627" lon="6.48654">
        <ele>1668.4000244141</ele>
        <time>2021-01-24T13:23:28.000Z</time>
      </trkpt>
      <trkpt lat="45.24629" lon="6.48652">
        <ele>1668.4000244141</ele>
        <time>2021-01-24T13:23:29.000Z</time>
      </trkpt>
      <trkpt lat="45.24636" lon="6.48647">
        <ele>1668.4000244141</ele>
        <time>2021-01-24T13:23:31.000Z</time>
      </trkpt>
      <trkpt lat="45.24645" lon="6.48645">
        <ele>1667.8000488281</ele>
        <time>2021-01-24T13:23:33.000Z</time>
      </trkpt>
      <trkpt lat="45.24653" lon="6.48639">
        <ele>1666.8000488281</ele>
        <time>2021-01-24T13:23:35.000Z</time>
      </trkpt>
      <trkpt lat="45.24656" lon="6.48637">
        <ele>1666</ele>
        <time>2021-01-24T13:23:36.000Z</time>
      </trkpt>
      <trkpt lat="45.24659" lon="6.48636">
        <ele>1665.4000244141</ele>
        <time>2021-01-24T13:23:37.000Z</time>
      </trkpt>
      <trkpt lat="45.24663" lon="6.48638">
        <ele>1664</ele>
        <time>2021-01-24T13:23:39.000Z</time>
      </trkpt>
      <trkpt lat="45.24664" lon="6.48638">
        <ele>1663.4000244141</ele>
        <time>2021-01-24T13:23:40.000Z</time>
      </trkpt>
      <trkpt lat="45.24664" lon="6.48639">
        <ele>1663</ele>
        <time>2021-01-24T13:23:41.000Z</time>
      </trkpt>
      <trkpt lat="45.24664" lon="6.48639">
        <ele>1661.8000488281</ele>
        <time>2021-01-24T13:23:45.000Z</time>
      </trkpt>
      <trkpt lat="45.24664" lon="6.48639">
        <ele>1661.5999755859</ele>
        <time>2021-01-24T13:23:46.000Z</time>
      </trkpt>
      <trkpt lat="45.24664" lon="6.48639">
        <ele>1661.1999511719</ele>
        <time>2021-01-24T13:23:56.000Z</time>
      </trkpt>
      <trkpt lat="45.24664" lon="6.48639">
        <ele>1661.1999511719</ele>
        <time>2021-01-24T13:24:09.000Z</time>
      </trkpt>
      <trkpt lat="45.24664" lon="6.48639">
        <ele>1661</ele>
        <time>2021-01-24T13:24:17.000Z</time>
      </trkpt>
      <trkpt lat="45.24671" lon="6.48641">
        <ele>1660.8000488281</ele>
        <time>2021-01-24T13:24:22.000Z</time>
      </trkpt>
      <trkpt lat="45.24676" lon="6.48641">
        <ele>1660.5999755859</ele>
        <time>2021-01-24T13:24:24.000Z</time>
      </trkpt>
      <trkpt lat="45.24683" lon="6.48642">
        <ele>1659.4000244141</ele>
        <time>2021-01-24T13:24:28.000Z</time>
      </trkpt>
      <trkpt lat="45.24683" lon="6.48642">
        <ele>1659.8000488281</ele>
        <time>2021-01-24T13:24:36.000Z</time>
      </trkpt>
      <trkpt lat="45.24685" lon="6.48643">
        <ele>1658.8000488281</ele>
        <time>2021-01-24T13:24:46.000Z</time>
      </trkpt>
      <trkpt lat="45.2469" lon="6.48644">
        <ele>1659.5999755859</ele>
        <time>2021-01-24T13:24:56.000Z</time>
      </trkpt>
      <trkpt lat="45.2469" lon="6.48644">
        <ele>1659</ele>
        <time>2021-01-24T13:25:05.000Z</time>
      </trkpt>
      <trkpt lat="45.2469" lon="6.48644">
        <ele>1659.1999511719</ele>
        <time>2021-01-24T13:25:15.000Z</time>
      </trkpt>
      <trkpt lat="45.2469" lon="6.48644">
        <ele>1658</ele>
        <time>2021-01-24T13:25:18.000Z</time>
      </trkpt>
      <trkpt lat="45.24691" lon="6.48645">
        <ele>1656.1999511719</ele>
        <time>2021-01-24T13:25:20.000Z</time>
      </trkpt>
      <trkpt lat="45.24695" lon="6.48645">
        <ele>1654.8000488281</ele>
        <time>2021-01-24T13:25:22.000Z</time>
      </trkpt>
      <trkpt lat="45.24697" lon="6.48645">
        <ele>1653.5999755859</ele>
        <time>2021-01-24T13:25:25.000Z</time>
      </trkpt>
      <trkpt lat="45.24697" lon="6.48645">
        <ele>1653</ele>
        <time>2021-01-24T13:25:26.000Z</time>
      </trkpt>
      <trkpt lat="45.24698" lon="6.48645">
        <ele>1652.4000244141</ele>
        <time>2021-01-24T13:25:27.000Z</time>
      </trkpt>
      <trkpt lat="45.247" lon="6.48644">
        <ele>1650.8000488281</ele>
        <time>2021-01-24T13:25:29.000Z</time>
      </trkpt>
      <trkpt lat="45.247" lon="6.48643">
        <ele>1649.4000244141</ele>
        <time>2021-01-24T13:25:31.000Z</time>
      </trkpt>
      <trkpt lat="45.247" lon="6.48643">
        <ele>1649.1999511719</ele>
        <time>2021-01-24T13:25:32.000Z</time>
      </trkpt>
      <trkpt lat="45.247" lon="6.48643">
        <ele>1648</ele>
        <time>2021-01-24T13:25:37.000Z</time>
      </trkpt>
      <trkpt lat="45.247" lon="6.48643">
        <ele>1647.4000244141</ele>
        <time>2021-01-24T13:25:39.000Z</time>
      </trkpt>
      <trkpt lat="45.247" lon="6.48643">
        <ele>1647</ele>
        <time>2021-01-24T13:25:40.000Z</time>
      </trkpt>
      <trkpt lat="45.247" lon="6.48643">
        <ele>1644.8000488281</ele>
        <time>2021-01-24T13:25:43.000Z</time>
      </trkpt>
      <trkpt lat="45.247" lon="6.48643">
        <ele>1643.4000244141</ele>
        <time>2021-01-24T13:25:44.000Z</time>
      </trkpt>
      <trkpt lat="45.247" lon="6.48643">
        <ele>1642.1999511719</ele>
        <time>2021-01-24T13:25:45.000Z</time>
      </trkpt>
      <trkpt lat="45.247" lon="6.48643">
        <ele>1641.4000244141</ele>
        <time>2021-01-24T13:25:46.000Z</time>
      </trkpt>
      <trkpt lat="45.247" lon="6.48643">
        <ele>1641</ele>
        <time>2021-01-24T13:25:47.000Z</time>
      </trkpt>
      <trkpt lat="45.247" lon="6.48643">
        <ele>1639.1999511719</ele>
        <time>2021-01-24T13:25:52.000Z</time>
      </trkpt>
      <trkpt lat="45.247" lon="6.48643">
        <ele>1636.8000488281</ele>
        <time>2021-01-24T13:25:53.000Z</time>
      </trkpt>
      <trkpt lat="45.247" lon="6.48643">
        <ele>1635.4000244141</ele>
        <time>2021-01-24T13:25:55.000Z</time>
      </trkpt>
      <trkpt lat="45.247" lon="6.48643">
        <ele>1634.1999511719</ele>
        <time>2021-01-24T13:25:57.000Z</time>
      </trkpt>
      <trkpt lat="45.247" lon="6.48643">
        <ele>1633</ele>
        <time>2021-01-24T13:25:59.000Z</time>
      </trkpt>
      <trkpt lat="45.24701" lon="6.48644">
        <ele>1631.8000488281</ele>
        <time>2021-01-24T13:26:06.000Z</time>
      </trkpt>
      <trkpt lat="45.24701" lon="6.48644">
        <ele>1630.5999755859</ele>
        <time>2021-01-24T13:26:11.000Z</time>
      </trkpt>
      <trkpt lat="45.247" lon="6.48642">
        <ele>1630.4000244141</ele>
        <time>2021-01-24T13:26:12.000Z</time>
      </trkpt>
      <trkpt lat="45.24702" lon="6.4864">
        <ele>1630.1999511719</ele>
        <time>2021-01-24T13:26:13.000Z</time>
      </trkpt>
      <trkpt lat="45.24706" lon="6.48634">
        <ele>1629.1999511719</ele>
        <time>2021-01-24T13:26:15.000Z</time>
      </trkpt>
      <trkpt lat="45.24708" lon="6.4863">
        <ele>1627</ele>
        <time>2021-01-24T13:26:17.000Z</time>
      </trkpt>
      <trkpt lat="45.24708" lon="6.48628">
        <ele>1626.5999755859</ele>
        <time>2021-01-24T13:26:18.000Z</time>
      </trkpt>
      <trkpt lat="45.24708" lon="6.48627">
        <ele>1626.1999511719</ele>
        <time>2021-01-24T13:26:19.000Z</time>
      </trkpt>
      <trkpt lat="45.24707" lon="6.48627">
        <ele>1625.4000244141</ele>
        <time>2021-01-24T13:26:20.000Z</time>
      </trkpt>
      <trkpt lat="45.24706" lon="6.48626">
        <ele>1624.1999511719</ele>
        <time>2021-01-24T13:26:23.000Z</time>
      </trkpt>
      <trkpt lat="45.24706" lon="6.48626">
        <ele>1624</ele>
        <time>2021-01-24T13:26:24.000Z</time>
      </trkpt>
      <trkpt lat="45.24706" lon="6.48626">
        <ele>1623.1999511719</ele>
        <time>2021-01-24T13:26:27.000Z</time>
      </trkpt>
      <trkpt lat="45.24704" lon="6.48622">
        <ele>1623.1999511719</ele>
        <time>2021-01-24T13:26:35.000Z</time>
      </trkpt>
      <trkpt lat="45.24703" lon="6.48616">
        <ele>1623.1999511719</ele>
        <time>2021-01-24T13:26:47.000Z</time>
      </trkpt>
      <trkpt lat="45.24702" lon="6.48596">
        <ele>1622.8000488281</ele>
        <time>2021-01-24T13:26:51.000Z</time>
      </trkpt>
      <trkpt lat="45.24702" lon="6.4857">
        <ele>1621.8000488281</ele>
        <time>2021-01-24T13:26:53.000Z</time>
      </trkpt>
      <trkpt lat="45.247" lon="6.48551">
        <ele>1620</ele>
        <time>2021-01-24T13:26:55.000Z</time>
      </trkpt>
      <trkpt lat="45.24698" lon="6.48535">
        <ele>1618.5999755859</ele>
        <time>2021-01-24T13:26:57.000Z</time>
      </trkpt>
      <trkpt lat="45.24699" lon="6.48513">
        <ele>1617.1999511719</ele>
        <time>2021-01-24T13:27:00.000Z</time>
      </trkpt>
      <trkpt lat="45.247" lon="6.48507">
        <ele>1615.8000488281</ele>
        <time>2021-01-24T13:27:01.000Z</time>
      </trkpt>
      <trkpt lat="45.24701" lon="6.48502">
        <ele>1614.4000244141</ele>
        <time>2021-01-24T13:27:02.000Z</time>
      </trkpt>
      <trkpt lat="45.24703" lon="6.48498">
        <ele>1613.4000244141</ele>
        <time>2021-01-24T13:27:03.000Z</time>
      </trkpt>
      <trkpt lat="45.24707" lon="6.48491">
        <ele>1611.4000244141</ele>
        <time>2021-01-24T13:27:05.000Z</time>
      </trkpt>
      <trkpt lat="45.24708" lon="6.48487">
        <ele>1610.5999755859</ele>
        <time>2021-01-24T13:27:06.000Z</time>
      </trkpt>
      <trkpt lat="45.2471" lon="6.48483">
        <ele>1610.1999511719</ele>
        <time>2021-01-24T13:27:07.000Z</time>
      </trkpt>
      <trkpt lat="45.24715" lon="6.48469">
        <ele>1608.8000488281</ele>
        <time>2021-01-24T13:27:10.000Z</time>
      </trkpt>
      <trkpt lat="45.24723" lon="6.48457">
        <ele>1607.5999755859</ele>
        <time>2021-01-24T13:27:13.000Z</time>
      </trkpt>
      <trkpt lat="45.24731" lon="6.4844">
        <ele>1606.5999755859</ele>
        <time>2021-01-24T13:27:18.000Z</time>
      </trkpt>
      <trkpt lat="45.24736" lon="6.48436">
        <ele>1606.1999511719</ele>
        <time>2021-01-24T13:27:20.000Z</time>
      </trkpt>
      <trkpt lat="45.24748" lon="6.48426">
        <ele>1605.5999755859</ele>
        <time>2021-01-24T13:27:25.000Z</time>
      </trkpt>
      <trkpt lat="45.24749" lon="6.48423">
        <ele>1605.1999511719</ele>
        <time>2021-01-24T13:27:26.000Z</time>
      </trkpt>
      <trkpt lat="45.24755" lon="6.48417">
        <ele>1605</ele>
        <time>2021-01-24T13:27:31.000Z</time>
      </trkpt>
      <trkpt lat="45.24757" lon="6.48414">
        <ele>1605</ele>
        <time>2021-01-24T13:27:37.000Z</time>
      </trkpt>
      <trkpt lat="45.24759" lon="6.4841">
        <ele>1605</ele>
        <time>2021-01-24T13:27:44.000Z</time>
      </trkpt>
      <trkpt lat="45.24763" lon="6.48403">
        <ele>1605</ele>
        <time>2021-01-24T13:27:50.000Z</time>
      </trkpt>
      <trkpt lat="45.24769" lon="6.48396">
        <ele>1605.5999755859</ele>
        <time>2021-01-24T13:27:55.000Z</time>
      </trkpt>
      <trkpt lat="45.24775" lon="6.48392">
        <ele>1605.1999511719</ele>
        <time>2021-01-24T13:28:01.000Z</time>
      </trkpt>
      <trkpt lat="45.24778" lon="6.48386">
        <ele>1605.8000488281</ele>
        <time>2021-01-24T13:28:08.000Z</time>
      </trkpt>
      <trkpt lat="45.24781" lon="6.48378">
        <ele>1605.8000488281</ele>
        <time>2021-01-24T13:28:14.000Z</time>
      </trkpt>
      <trkpt lat="45.24785" lon="6.4837">
        <ele>1605.8000488281</ele>
        <time>2021-01-24T13:28:21.000Z</time>
      </trkpt>
      <trkpt lat="45.24787" lon="6.48364">
        <ele>1606</ele>
        <time>2021-01-24T13:28:27.000Z</time>
      </trkpt>
      <trkpt lat="45.24788" lon="6.4836">
        <ele>1605.8000488281</ele>
        <time>2021-01-24T13:28:29.000Z</time>
      </trkpt>
      <trkpt lat="45.2479" lon="6.48353">
        <ele>1606.1999511719</ele>
        <time>2021-01-24T13:28:33.000Z</time>
      </trkpt>
      <trkpt lat="45.24795" lon="6.48338">
        <ele>1605</ele>
        <time>2021-01-24T13:28:41.000Z</time>
      </trkpt>
      <trkpt lat="45.24799" lon="6.48329">
        <ele>1606</ele>
        <time>2021-01-24T13:28:47.000Z</time>
      </trkpt>
      <trkpt lat="45.24812" lon="6.48306">
        <ele>1605</ele>
        <time>2021-01-24T13:28:57.000Z</time>
      </trkpt>
      <trkpt lat="45.24822" lon="6.48287">
        <ele>1604.4000244141</ele>
        <time>2021-01-24T13:29:04.000Z</time>
      </trkpt>
      <trkpt lat="45.24827" lon="6.48279">
        <ele>1603.4000244141</ele>
        <time>2021-01-24T13:29:07.000Z</time>
      </trkpt>
      <trkpt lat="45.24828" lon="6.48275">
        <ele>1603</ele>
        <time>2021-01-24T13:29:09.000Z</time>
      </trkpt>
      <trkpt lat="45.2483" lon="6.48266">
        <ele>1602.8000488281</ele>
        <time>2021-01-24T13:29:16.000Z</time>
      </trkpt>
      <trkpt lat="45.2483" lon="6.48265">
        <ele>1602.8000488281</ele>
        <time>2021-01-24T13:29:24.000Z</time>
      </trkpt>
      <trkpt lat="45.2483" lon="6.48265">
        <ele>1602.8000488281</ele>
        <time>2021-01-24T13:29:37.000Z</time>
      </trkpt>
      <trkpt lat="45.2483" lon="6.48265">
        <ele>1602.5999755859</ele>
        <time>2021-01-24T13:29:53.000Z</time>
      </trkpt>
      <trkpt lat="45.2483" lon="6.48265">
        <ele>1602.8000488281</ele>
        <time>2021-01-24T13:30:08.000Z</time>
      </trkpt>
      <trkpt lat="45.2483" lon="6.48265">
        <ele>1602.5999755859</ele>
        <time>2021-01-24T13:30:22.000Z</time>
      </trkpt>
      <trkpt lat="45.2483" lon="6.48265">
        <ele>1602.1999511719</ele>
        <time>2021-01-24T13:30:28.000Z</time>
      </trkpt>
      <trkpt lat="45.2483" lon="6.48265">
        <ele>1601.8000488281</ele>
        <time>2021-01-24T13:30:35.000Z</time>
      </trkpt>
      <trkpt lat="45.2483" lon="6.48265">
        <ele>1603.5999755859</ele>
        <time>2021-01-24T13:30:38.000Z</time>
      </trkpt>
      <trkpt lat="45.2483" lon="6.48265">
        <ele>1602.5999755859</ele>
        <time>2021-01-24T13:30:44.000Z</time>
      </trkpt>
      <trkpt lat="45.2483" lon="6.48265">
        <ele>1602.4000244141</ele>
        <time>2021-01-24T13:30:46.000Z</time>
      </trkpt>
      <trkpt lat="45.2483" lon="6.48265">
        <ele>1603</ele>
        <time>2021-01-24T13:31:00.000Z</time>
      </trkpt>
      <trkpt lat="45.2483" lon="6.48265">
        <ele>1602.5999755859</ele>
        <time>2021-01-24T13:31:15.000Z</time>
      </trkpt>
      <trkpt lat="45.2483" lon="6.48265">
        <ele>1602.4000244141</ele>
        <time>2021-01-24T13:31:26.000Z</time>
      </trkpt>
      <trkpt lat="45.2483" lon="6.48265">
        <ele>1602.4000244141</ele>
        <time>2021-01-24T13:31:48.000Z</time>
      </trkpt>
      <trkpt lat="45.2483" lon="6.48265">
        <ele>1603</ele>
        <time>2021-01-24T13:32:06.000Z</time>
      </trkpt>
      <trkpt lat="45.24832" lon="6.48266">
        <ele>1602.4000244141</ele>
        <time>2021-01-24T13:32:21.000Z</time>
      </trkpt>
      <trkpt lat="45.24832" lon="6.48266">
        <ele>1602.5999755859</ele>
        <time>2021-01-24T13:32:37.000Z</time>
      </trkpt>
      <trkpt lat="45.24832" lon="6.48266">
        <ele>1602.4000244141</ele>
        <time>2021-01-24T13:32:50.000Z</time>
      </trkpt>
      <trkpt lat="45.24832" lon="6.48266">
        <ele>1602.4000244141</ele>
        <time>2021-01-24T13:33:07.000Z</time>
      </trkpt>
      <trkpt lat="45.24832" lon="6.48266">
        <ele>1602.4000244141</ele>
        <time>2021-01-24T13:33:24.000Z</time>
      </trkpt>
      <trkpt lat="45.24832" lon="6.48266">
        <ele>1602.8000488281</ele>
        <time>2021-01-24T13:33:36.000Z</time>
      </trkpt>
      <trkpt lat="45.24833" lon="6.48263">
        <ele>1602.1999511719</ele>
        <time>2021-01-24T13:33:49.000Z</time>
      </trkpt>
      <trkpt lat="45.24836" lon="6.4824">
        <ele>1601.5999755859</ele>
        <time>2021-01-24T13:33:55.000Z</time>
      </trkpt>
      <trkpt lat="45.24838" lon="6.48236">
        <ele>1601.1999511719</ele>
        <time>2021-01-24T13:33:56.000Z</time>
      </trkpt>
      <trkpt lat="45.24845" lon="6.48227">
        <ele>1600.1999511719</ele>
        <time>2021-01-24T13:33:59.000Z</time>
      </trkpt>
      <trkpt lat="45.24847" lon="6.48224">
        <ele>1600</ele>
        <time>2021-01-24T13:34:00.000Z</time>
      </trkpt>
      <trkpt lat="45.2485" lon="6.48221">
        <ele>1599</ele>
        <time>2021-01-24T13:34:02.000Z</time>
      </trkpt>
      <trkpt lat="45.24853" lon="6.48218">
        <ele>1598.4000244141</ele>
        <time>2021-01-24T13:34:05.000Z</time>
      </trkpt>
      <trkpt lat="45.24856" lon="6.48216">
        <ele>1598</ele>
        <time>2021-01-24T13:34:07.000Z</time>
      </trkpt>
      <trkpt lat="45.24864" lon="6.48213">
        <ele>1597.1999511719</ele>
        <time>2021-01-24T13:34:12.000Z</time>
      </trkpt>
      <trkpt lat="45.24868" lon="6.48211">
        <ele>1597</ele>
        <time>2021-01-24T13:34:14.000Z</time>
      </trkpt>
      <trkpt lat="45.2488" lon="6.48203">
        <ele>1596.8000488281</ele>
        <time>2021-01-24T13:34:20.000Z</time>
      </trkpt>
      <trkpt lat="45.24886" lon="6.482">
        <ele>1596.5999755859</ele>
        <time>2021-01-24T13:34:26.000Z</time>
      </trkpt>
      <trkpt lat="45.24887" lon="6.48199">
        <ele>1596.5999755859</ele>
        <time>2021-01-24T13:34:28.000Z</time>
      </trkpt>
      <trkpt lat="45.24893" lon="6.48194">
        <ele>1596.1999511719</ele>
        <time>2021-01-24T13:34:34.000Z</time>
      </trkpt>
      <trkpt lat="45.24896" lon="6.48191">
        <ele>1596</ele>
        <time>2021-01-24T13:34:36.000Z</time>
      </trkpt>
      <trkpt lat="45.249" lon="6.48186">
        <ele>1596.1999511719</ele>
        <time>2021-01-24T13:34:40.000Z</time>
      </trkpt>
      <trkpt lat="45.24907" lon="6.48179">
        <ele>1596</ele>
        <time>2021-01-24T13:34:47.000Z</time>
      </trkpt>
      <trkpt lat="45.2492" lon="6.48166">
        <ele>1595.4000244141</ele>
        <time>2021-01-24T13:34:55.000Z</time>
      </trkpt>
      <trkpt lat="45.24923" lon="6.48164">
        <ele>1595</ele>
        <time>2021-01-24T13:34:57.000Z</time>
      </trkpt>
      <trkpt lat="45.24927" lon="6.48162">
        <ele>1595</ele>
        <time>2021-01-24T13:35:02.000Z</time>
      </trkpt>
      <trkpt lat="45.24937" lon="6.4816">
        <ele>1594.4000244141</ele>
        <time>2021-01-24T13:35:10.000Z</time>
      </trkpt>
      <trkpt lat="45.24939" lon="6.4816">
        <ele>1594</ele>
        <time>2021-01-24T13:35:12.000Z</time>
      </trkpt>
      <trkpt lat="45.24939" lon="6.4816">
        <ele>1594</ele>
        <time>2021-01-24T13:35:19.000Z</time>
      </trkpt>
      <trkpt lat="45.24939" lon="6.4816">
        <ele>1592.8000488281</ele>
        <time>2021-01-24T13:35:30.000Z</time>
      </trkpt>
      <trkpt lat="45.24939" lon="6.4816">
        <ele>1591.5999755859</ele>
        <time>2021-01-24T13:35:32.000Z</time>
      </trkpt>
      <trkpt lat="45.24939" lon="6.4816">
        <ele>1592.8000488281</ele>
        <time>2021-01-24T13:35:37.000Z</time>
      </trkpt>
      <trkpt lat="45.24939" lon="6.4816">
        <ele>1593.8000488281</ele>
        <time>2021-01-24T13:35:42.000Z</time>
      </trkpt>
      <trkpt lat="45.24939" lon="6.4816">
        <ele>1594</ele>
        <time>2021-01-24T13:35:44.000Z</time>
      </trkpt>
      <trkpt lat="45.24939" lon="6.4816">
        <ele>1594.5999755859</ele>
        <time>2021-01-24T13:35:51.000Z</time>
      </trkpt>
      <trkpt lat="45.2494" lon="6.4816">
        <ele>1592.1999511719</ele>
        <time>2021-01-24T13:35:54.000Z</time>
      </trkpt>
      <trkpt lat="45.2494" lon="6.48159">
        <ele>1592.1999511719</ele>
        <time>2021-01-24T13:35:58.000Z</time>
      </trkpt>
      <trkpt lat="45.2494" lon="6.48159">
        <ele>1593.4000244141</ele>
        <time>2021-01-24T13:36:02.000Z</time>
      </trkpt>
      <trkpt lat="45.24944" lon="6.48159">
        <ele>1593.4000244141</ele>
        <time>2021-01-24T13:36:08.000Z</time>
      </trkpt>
      <trkpt lat="45.24944" lon="6.48159">
        <ele>1593.1999511719</ele>
        <time>2021-01-24T13:36:16.000Z</time>
      </trkpt>
      <trkpt lat="45.24944" lon="6.48159">
        <ele>1593.1999511719</ele>
        <time>2021-01-24T13:36:28.000Z</time>
      </trkpt>
      <trkpt lat="45.24944" lon="6.48159">
        <ele>1594</ele>
        <time>2021-01-24T13:36:38.000Z</time>
      </trkpt>
      <trkpt lat="45.24944" lon="6.48159">
        <ele>1593.1999511719</ele>
        <time>2021-01-24T13:36:49.000Z</time>
      </trkpt>
      <trkpt lat="45.24944" lon="6.48159">
        <ele>1593.4000244141</ele>
        <time>2021-01-24T13:37:00.000Z</time>
      </trkpt>
      <trkpt lat="45.24944" lon="6.4816">
        <ele>1593.5999755859</ele>
        <time>2021-01-24T13:37:07.000Z</time>
      </trkpt>
      <trkpt lat="45.24943" lon="6.4816">
        <ele>1593.5999755859</ele>
        <time>2021-01-24T13:37:16.000Z</time>
      </trkpt>
      <trkpt lat="45.24943" lon="6.4816">
        <ele>1593.5999755859</ele>
        <time>2021-01-24T13:37:29.000Z</time>
      </trkpt>
      <trkpt lat="45.24943" lon="6.4816">
        <ele>1593.5999755859</ele>
        <time>2021-01-24T13:37:41.000Z</time>
      </trkpt>
      <trkpt lat="45.24943" lon="6.4816">
        <ele>1593.4000244141</ele>
        <time>2021-01-24T13:37:55.000Z</time>
      </trkpt>
      <trkpt lat="45.24943" lon="6.4816">
        <ele>1593.4000244141</ele>
        <time>2021-01-24T13:38:11.000Z</time>
      </trkpt>
      <trkpt lat="45.24943" lon="6.4816">
        <ele>1593.5999755859</ele>
        <time>2021-01-24T13:38:22.000Z</time>
      </trkpt>
      <trkpt lat="45.24943" lon="6.4816">
        <ele>1593.5999755859</ele>
        <time>2021-01-24T13:38:35.000Z</time>
      </trkpt>
      <trkpt lat="45.24943" lon="6.4816">
        <ele>1593.5999755859</ele>
        <time>2021-01-24T13:38:50.000Z</time>
      </trkpt>
      <trkpt lat="45.24943" lon="6.4816">
        <ele>1592.4000244141</ele>
        <time>2021-01-24T13:39:03.000Z</time>
      </trkpt>
      <trkpt lat="45.24945" lon="6.48165">
        <ele>1593</ele>
        <time>2021-01-24T13:39:13.000Z</time>
      </trkpt>
      <trkpt lat="45.24959" lon="6.48179">
        <ele>1592.5999755859</ele>
        <time>2021-01-24T13:39:20.000Z</time>
      </trkpt>
      <trkpt lat="45.24961" lon="6.48182">
        <ele>1592.4000244141</ele>
        <time>2021-01-24T13:39:21.000Z</time>
      </trkpt>
      <trkpt lat="45.24971" lon="6.48199">
        <ele>1591.1999511719</ele>
        <time>2021-01-24T13:39:26.000Z</time>
      </trkpt>
      <trkpt lat="45.24976" lon="6.48205">
        <ele>1590.5999755859</ele>
        <time>2021-01-24T13:39:28.000Z</time>
      </trkpt>
      <trkpt lat="45.24978" lon="6.48207">
        <ele>1590.1999511719</ele>
        <time>2021-01-24T13:39:29.000Z</time>
      </trkpt>
      <trkpt lat="45.24983" lon="6.4821">
        <ele>1589.1999511719</ele>
        <time>2021-01-24T13:39:31.000Z</time>
      </trkpt>
      <trkpt lat="45.24989" lon="6.48211">
        <ele>1588.8000488281</ele>
        <time>2021-01-24T13:39:33.000Z</time>
      </trkpt>
      <trkpt lat="45.24995" lon="6.4821">
        <ele>1588</ele>
        <time>2021-01-24T13:39:35.000Z</time>
      </trkpt>
      <trkpt lat="45.24998" lon="6.48208">
        <ele>1587.4000244141</ele>
        <time>2021-01-24T13:39:37.000Z</time>
      </trkpt>
      <trkpt lat="45.24999" lon="6.48208">
        <ele>1587</ele>
        <time>2021-01-24T13:39:39.000Z</time>
      </trkpt>
      <trkpt lat="45.24999" lon="6.48207">
        <ele>1587</ele>
        <time>2021-01-24T13:39:42.000Z</time>
      </trkpt>
      <trkpt lat="45.24999" lon="6.48207">
        <ele>1586.4000244141</ele>
        <time>2021-01-24T13:39:51.000Z</time>
      </trkpt>
      <trkpt lat="45.25" lon="6.48206">
        <ele>1586.8000488281</ele>
        <time>2021-01-24T13:40:00.000Z</time>
      </trkpt>
      <trkpt lat="45.25006" lon="6.48208">
        <ele>1586.4000244141</ele>
        <time>2021-01-24T13:40:10.000Z</time>
      </trkpt>
      <trkpt lat="45.25015" lon="6.48206">
        <ele>1586</ele>
        <time>2021-01-24T13:40:14.000Z</time>
      </trkpt>
      <trkpt lat="45.25026" lon="6.48201">
        <ele>1585</ele>
        <time>2021-01-24T13:40:18.000Z</time>
      </trkpt>
      <trkpt lat="45.25028" lon="6.482">
        <ele>1585</ele>
        <time>2021-01-24T13:40:19.000Z</time>
      </trkpt>
      <trkpt lat="45.25043" lon="6.48194">
        <ele>1583.8000488281</ele>
        <time>2021-01-24T13:40:26.000Z</time>
      </trkpt>
      <trkpt lat="45.25045" lon="6.48194">
        <ele>1583.5999755859</ele>
        <time>2021-01-24T13:40:27.000Z</time>
      </trkpt>
      <trkpt lat="45.25054" lon="6.4819">
        <ele>1582.8000488281</ele>
        <time>2021-01-24T13:40:33.000Z</time>
      </trkpt>
      <trkpt lat="45.2506" lon="6.48184">
        <ele>1582.1999511719</ele>
        <time>2021-01-24T13:40:37.000Z</time>
      </trkpt>
      <trkpt lat="45.25064" lon="6.4818">
        <ele>1581.5999755859</ele>
        <time>2021-01-24T13:40:39.000Z</time>
      </trkpt>
      <trkpt lat="45.2507" lon="6.48173">
        <ele>1580.4000244141</ele>
        <time>2021-01-24T13:40:44.000Z</time>
      </trkpt>
      <trkpt lat="45.25072" lon="6.48172">
        <ele>1580.1999511719</ele>
        <time>2021-01-24T13:40:45.000Z</time>
      </trkpt>
      <trkpt lat="45.25072" lon="6.48172">
        <ele>1579.5999755859</ele>
        <time>2021-01-24T13:40:52.000Z</time>
      </trkpt>
      <trkpt lat="45.25072" lon="6.48172">
        <ele>1579.4000244141</ele>
        <time>2021-01-24T13:40:53.000Z</time>
      </trkpt>
      <trkpt lat="45.25066" lon="6.48169">
        <ele>1579.1999511719</ele>
        <time>2021-01-24T13:41:00.000Z</time>
      </trkpt>
      <trkpt lat="45.2506" lon="6.4817">
        <ele>1578.4000244141</ele>
        <time>2021-01-24T13:41:06.000Z</time>
      </trkpt>
      <trkpt lat="45.2506" lon="6.4817">
        <ele>1578.1999511719</ele>
        <time>2021-01-24T13:41:07.000Z</time>
      </trkpt>
      <trkpt lat="45.25059" lon="6.4817">
        <ele>1577.4000244141</ele>
        <time>2021-01-24T13:41:09.000Z</time>
      </trkpt>
      <trkpt lat="45.2506" lon="6.48169">
        <ele>1576</ele>
        <time>2021-01-24T13:41:13.000Z</time>
      </trkpt>
      <trkpt lat="45.2506" lon="6.48168">
        <ele>1575.1999511719</ele>
        <time>2021-01-24T13:41:14.000Z</time>
      </trkpt>
      <trkpt lat="45.25061" lon="6.48167">
        <ele>1574</ele>
        <time>2021-01-24T13:41:15.000Z</time>
      </trkpt>
      <trkpt lat="45.25061" lon="6.48165">
        <ele>1572.5999755859</ele>
        <time>2021-01-24T13:41:17.000Z</time>
      </trkpt>
      <trkpt lat="45.25058" lon="6.4816">
        <ele>1572</ele>
        <time>2021-01-24T13:41:20.000Z</time>
      </trkpt>
      <trkpt lat="45.25056" lon="6.48157">
        <ele>1571.5999755859</ele>
        <time>2021-01-24T13:41:22.000Z</time>
      </trkpt>
      <trkpt lat="45.25056" lon="6.48153">
        <ele>1569</ele>
        <time>2021-01-24T13:41:24.000Z</time>
      </trkpt>
      <trkpt lat="45.25056" lon="6.48149">
        <ele>1567.8000488281</ele>
        <time>2021-01-24T13:41:25.000Z</time>
      </trkpt>
      <trkpt lat="45.25055" lon="6.48146">
        <ele>1567</ele>
        <time>2021-01-24T13:41:26.000Z</time>
      </trkpt>
      <trkpt lat="45.25055" lon="6.48144">
        <ele>1566</ele>
        <time>2021-01-24T13:41:27.000Z</time>
      </trkpt>
      <trkpt lat="45.25056" lon="6.48141">
        <ele>1564.5999755859</ele>
        <time>2021-01-24T13:41:29.000Z</time>
      </trkpt>
      <trkpt lat="45.25056" lon="6.48141">
        <ele>1562.8000488281</ele>
        <time>2021-01-24T13:41:30.000Z</time>
      </trkpt>
      <trkpt lat="45.25059" lon="6.48133">
        <ele>1561.4000244141</ele>
        <time>2021-01-24T13:41:32.000Z</time>
      </trkpt>
      <trkpt lat="45.25063" lon="6.48123">
        <ele>1560.1999511719</ele>
        <time>2021-01-24T13:41:34.000Z</time>
      </trkpt>
      <trkpt lat="45.2507" lon="6.48117">
        <ele>1559.1999511719</ele>
        <time>2021-01-24T13:41:36.000Z</time>
      </trkpt>
      <trkpt lat="45.25075" lon="6.48115">
        <ele>1557.4000244141</ele>
        <time>2021-01-24T13:41:38.000Z</time>
      </trkpt>
      <trkpt lat="45.2508" lon="6.48113">
        <ele>1555.5999755859</ele>
        <time>2021-01-24T13:41:40.000Z</time>
      </trkpt>
      <trkpt lat="45.2508" lon="6.48113">
        <ele>1554.4000244141</ele>
        <time>2021-01-24T13:41:43.000Z</time>
      </trkpt>
      <trkpt lat="45.25078" lon="6.48116">
        <ele>1553.4000244141</ele>
        <time>2021-01-24T13:41:50.000Z</time>
      </trkpt>
      <trkpt lat="45.25076" lon="6.48114">
        <ele>1553.1999511719</ele>
        <time>2021-01-24T13:41:51.000Z</time>
      </trkpt>
      <trkpt lat="45.25073" lon="6.48114">
        <ele>1553</ele>
        <time>2021-01-24T13:41:52.000Z</time>
      </trkpt>
      <trkpt lat="45.25068" lon="6.48115">
        <ele>1552.5999755859</ele>
        <time>2021-01-24T13:41:54.000Z</time>
      </trkpt>
      <trkpt lat="45.25067" lon="6.48115">
        <ele>1551.5999755859</ele>
        <time>2021-01-24T13:41:55.000Z</time>
      </trkpt>
      <trkpt lat="45.25065" lon="6.48116">
        <ele>1550.5999755859</ele>
        <time>2021-01-24T13:41:57.000Z</time>
      </trkpt>
      <trkpt lat="45.25065" lon="6.48116">
        <ele>1549.5999755859</ele>
        <time>2021-01-24T13:41:59.000Z</time>
      </trkpt>
      <trkpt lat="45.25065" lon="6.48116">
        <ele>1549.1999511719</ele>
        <time>2021-01-24T13:42:00.000Z</time>
      </trkpt>
      <trkpt lat="45.25064" lon="6.48118">
        <ele>1548.1999511719</ele>
        <time>2021-01-24T13:42:03.000Z</time>
      </trkpt>
      <trkpt lat="45.25064" lon="6.48118">
        <ele>1548</ele>
        <time>2021-01-24T13:42:04.000Z</time>
      </trkpt>
      <trkpt lat="45.25063" lon="6.48118">
        <ele>1547.1999511719</ele>
        <time>2021-01-24T13:42:07.000Z</time>
      </trkpt>
      <trkpt lat="45.25062" lon="6.48118">
        <ele>1546.8000488281</ele>
        <time>2021-01-24T13:42:08.000Z</time>
      </trkpt>
      <trkpt lat="45.25063" lon="6.48119">
        <ele>1545.8000488281</ele>
        <time>2021-01-24T13:42:10.000Z</time>
      </trkpt>
      <trkpt lat="45.25065" lon="6.48117">
        <ele>1545.4000244141</ele>
        <time>2021-01-24T13:42:11.000Z</time>
      </trkpt>
      <trkpt lat="45.2507" lon="6.48113">
        <ele>1545.1999511719</ele>
        <time>2021-01-24T13:42:12.000Z</time>
      </trkpt>
      <trkpt lat="45.25077" lon="6.48103">
        <ele>1544.4000244141</ele>
        <time>2021-01-24T13:42:15.000Z</time>
      </trkpt>
      <trkpt lat="45.25079" lon="6.48101">
        <ele>1542.5999755859</ele>
        <time>2021-01-24T13:42:17.000Z</time>
      </trkpt>
      <trkpt lat="45.25078" lon="6.481">
        <ele>1541</ele>
        <time>2021-01-24T13:42:19.000Z</time>
      </trkpt>
      <trkpt lat="45.25078" lon="6.48099">
        <ele>1540.8000488281</ele>
        <time>2021-01-24T13:42:20.000Z</time>
      </trkpt>
      <trkpt lat="45.25079" lon="6.48104">
        <ele>1540.1999511719</ele>
        <time>2021-01-24T13:42:28.000Z</time>
      </trkpt>
      <trkpt lat="45.25078" lon="6.48106">
        <ele>1540</ele>
        <time>2021-01-24T13:42:30.000Z</time>
      </trkpt>
      <trkpt lat="45.25081" lon="6.48115">
        <ele>1540.4000244141</ele>
        <time>2021-01-24T13:42:40.000Z</time>
      </trkpt>
      <trkpt lat="45.25079" lon="6.4812">
        <ele>1541</ele>
        <time>2021-01-24T13:42:52.000Z</time>
      </trkpt>
      <trkpt lat="45.25079" lon="6.4812">
        <ele>1541</ele>
        <time>2021-01-24T13:42:53.000Z</time>
      </trkpt>
      <trkpt lat="45.25079" lon="6.48117">
        <ele>1540.4000244141</ele>
        <time>2021-01-24T13:43:04.000Z</time>
      </trkpt>
      <trkpt lat="45.25076" lon="6.48117">
        <ele>1540.8000488281</ele>
        <time>2021-01-24T13:43:17.000Z</time>
      </trkpt>
      <trkpt lat="45.25074" lon="6.48113">
        <ele>1540.5999755859</ele>
        <time>2021-01-24T13:43:18.000Z</time>
      </trkpt>
      <trkpt lat="45.25077" lon="6.48101">
        <ele>1540.4000244141</ele>
        <time>2021-01-24T13:43:20.000Z</time>
      </trkpt>
      <trkpt lat="45.25088" lon="6.48086">
        <ele>1539.1999511719</ele>
        <time>2021-01-24T13:43:23.000Z</time>
      </trkpt>
      <trkpt lat="45.25092" lon="6.48081">
        <ele>1538.1999511719</ele>
        <time>2021-01-24T13:43:24.000Z</time>
      </trkpt>
      <trkpt lat="45.25095" lon="6.48078">
        <ele>1537.1999511719</ele>
        <time>2021-01-24T13:43:25.000Z</time>
      </trkpt>
      <trkpt lat="45.25097" lon="6.48076">
        <ele>1536</ele>
        <time>2021-01-24T13:43:26.000Z</time>
      </trkpt>
      <trkpt lat="45.25101" lon="6.48074">
        <ele>1534.4000244141</ele>
        <time>2021-01-24T13:43:28.000Z</time>
      </trkpt>
      <trkpt lat="45.2511" lon="6.48071">
        <ele>1533.8000488281</ele>
        <time>2021-01-24T13:43:34.000Z</time>
      </trkpt>
      <trkpt lat="45.25115" lon="6.48066">
        <ele>1533.1999511719</ele>
        <time>2021-01-24T13:43:37.000Z</time>
      </trkpt>
      <trkpt lat="45.25121" lon="6.48059">
        <ele>1532.8000488281</ele>
        <time>2021-01-24T13:43:41.000Z</time>
      </trkpt>
      <trkpt lat="45.25132" lon="6.48048">
        <ele>1532.1999511719</ele>
        <time>2021-01-24T13:43:46.000Z</time>
      </trkpt>
      <trkpt lat="45.25135" lon="6.48045">
        <ele>1532.1999511719</ele>
        <time>2021-01-24T13:43:50.000Z</time>
      </trkpt>
      <trkpt lat="45.25137" lon="6.48042">
        <ele>1532.4000244141</ele>
        <time>2021-01-24T13:43:57.000Z</time>
      </trkpt>
      <trkpt lat="45.25137" lon="6.48042">
        <ele>1531</ele>
        <time>2021-01-24T13:44:04.000Z</time>
      </trkpt>
      <trkpt lat="45.25137" lon="6.48042">
        <ele>1530</ele>
        <time>2021-01-24T13:44:07.000Z</time>
      </trkpt>
      <trkpt lat="45.25137" lon="6.48042">
        <ele>1531.1999511719</ele>
        <time>2021-01-24T13:44:10.000Z</time>
      </trkpt>
      <trkpt lat="45.25137" lon="6.48042">
        <ele>1531.5999755859</ele>
        <time>2021-01-24T13:44:11.000Z</time>
      </trkpt>
      <trkpt lat="45.25137" lon="6.48042">
        <ele>1530.4000244141</ele>
        <time>2021-01-24T13:44:25.000Z</time>
      </trkpt>
      <trkpt lat="45.25135" lon="6.48039">
        <ele>1532</ele>
        <time>2021-01-24T13:44:37.000Z</time>
      </trkpt>
      <trkpt lat="45.25135" lon="6.48039">
        <ele>1531.8000488281</ele>
        <time>2021-01-24T13:44:46.000Z</time>
      </trkpt>
      <trkpt lat="45.25136" lon="6.48038">
        <ele>1530.1999511719</ele>
        <time>2021-01-24T13:44:50.000Z</time>
      </trkpt>
      <trkpt lat="45.25137" lon="6.48037">
        <ele>1529.8000488281</ele>
        <time>2021-01-24T13:44:53.000Z</time>
      </trkpt>
      <trkpt lat="45.25139" lon="6.48035">
        <ele>1531.1999511719</ele>
        <time>2021-01-24T13:44:58.000Z</time>
      </trkpt>
      <trkpt lat="45.25151" lon="6.48027">
        <ele>1530.5999755859</ele>
        <time>2021-01-24T13:45:06.000Z</time>
      </trkpt>
      <trkpt lat="45.25154" lon="6.48024">
        <ele>1529.8000488281</ele>
        <time>2021-01-24T13:45:07.000Z</time>
      </trkpt>
      <trkpt lat="45.25158" lon="6.48012">
        <ele>1528.8000488281</ele>
        <time>2021-01-24T13:45:10.000Z</time>
      </trkpt>
      <trkpt lat="45.25158" lon="6.48008">
        <ele>1527.5999755859</ele>
        <time>2021-01-24T13:45:11.000Z</time>
      </trkpt>
      <trkpt lat="45.25158" lon="6.48005">
        <ele>1526.1999511719</ele>
        <time>2021-01-24T13:45:12.000Z</time>
      </trkpt>
      <trkpt lat="45.25159" lon="6.48003">
        <ele>1525.1999511719</ele>
        <time>2021-01-24T13:45:13.000Z</time>
      </trkpt>
      <trkpt lat="45.25158" lon="6.48003">
        <ele>1523.5999755859</ele>
        <time>2021-01-24T13:45:15.000Z</time>
      </trkpt>
      <trkpt lat="45.25158" lon="6.47998">
        <ele>1521.5999755859</ele>
        <time>2021-01-24T13:45:17.000Z</time>
      </trkpt>
      <trkpt lat="45.25158" lon="6.47997">
        <ele>1520.1999511719</ele>
        <time>2021-01-24T13:45:18.000Z</time>
      </trkpt>
      <trkpt lat="45.25158" lon="6.47995">
        <ele>1519.1999511719</ele>
        <time>2021-01-24T13:45:19.000Z</time>
      </trkpt>
      <trkpt lat="45.25158" lon="6.47994">
        <ele>1518.5999755859</ele>
        <time>2021-01-24T13:45:20.000Z</time>
      </trkpt>
      <trkpt lat="45.25158" lon="6.47993">
        <ele>1518.1999511719</ele>
        <time>2021-01-24T13:45:21.000Z</time>
      </trkpt>
      <trkpt lat="45.25156" lon="6.47992">
        <ele>1516.8000488281</ele>
        <time>2021-01-24T13:45:24.000Z</time>
      </trkpt>
      <trkpt lat="45.25155" lon="6.47991">
        <ele>1516</ele>
        <time>2021-01-24T13:45:26.000Z</time>
      </trkpt>
      <trkpt lat="45.25155" lon="6.47991">
        <ele>1515.8000488281</ele>
        <time>2021-01-24T13:45:27.000Z</time>
      </trkpt>
      <trkpt lat="45.25151" lon="6.47989">
        <ele>1514.8000488281</ele>
        <time>2021-01-24T13:45:32.000Z</time>
      </trkpt>
      <trkpt lat="45.25148" lon="6.47991">
        <ele>1514</ele>
        <time>2021-01-24T13:45:36.000Z</time>
      </trkpt>
      <trkpt lat="45.25145" lon="6.47992">
        <ele>1513.5999755859</ele>
        <time>2021-01-24T13:45:43.000Z</time>
      </trkpt>
      <trkpt lat="45.25145" lon="6.47991">
        <ele>1513.4000244141</ele>
        <time>2021-01-24T13:45:44.000Z</time>
      </trkpt>
      <trkpt lat="45.25143" lon="6.47989">
        <ele>1513.1999511719</ele>
        <time>2021-01-24T13:45:45.000Z</time>
      </trkpt>
      <trkpt lat="45.25138" lon="6.47984">
        <ele>1512.5999755859</ele>
        <time>2021-01-24T13:45:47.000Z</time>
      </trkpt>
      <trkpt lat="45.25137" lon="6.47983">
        <ele>1512</ele>
        <time>2021-01-24T13:45:48.000Z</time>
      </trkpt>
      <trkpt lat="45.25137" lon="6.47983">
        <ele>1510.8000488281</ele>
        <time>2021-01-24T13:45:50.000Z</time>
      </trkpt>
      <trkpt lat="45.25137" lon="6.47982">
        <ele>1509.1999511719</ele>
        <time>2021-01-24T13:45:52.000Z</time>
      </trkpt>
      <trkpt lat="45.25139" lon="6.4798">
        <ele>1509</ele>
        <time>2021-01-24T13:45:53.000Z</time>
      </trkpt>
      <trkpt lat="45.25143" lon="6.47975">
        <ele>1508.5999755859</ele>
        <time>2021-01-24T13:45:56.000Z</time>
      </trkpt>
      <trkpt lat="45.25151" lon="6.47967">
        <ele>1508</ele>
        <time>2021-01-24T13:45:59.000Z</time>
      </trkpt>
      <trkpt lat="45.25153" lon="6.47965">
        <ele>1507.5999755859</ele>
        <time>2021-01-24T13:46:00.000Z</time>
      </trkpt>
      <trkpt lat="45.25154" lon="6.47964">
        <ele>1507.1999511719</ele>
        <time>2021-01-24T13:46:01.000Z</time>
      </trkpt>
      <trkpt lat="45.25155" lon="6.47962">
        <ele>1506.8000488281</ele>
        <time>2021-01-24T13:46:03.000Z</time>
      </trkpt>
      <trkpt lat="45.25154" lon="6.47958">
        <ele>1506.5999755859</ele>
        <time>2021-01-24T13:46:04.000Z</time>
      </trkpt>
      <trkpt lat="45.25153" lon="6.47928">
        <ele>1505</ele>
        <time>2021-01-24T13:46:07.000Z</time>
      </trkpt>
      <trkpt lat="45.25154" lon="6.4792">
        <ele>1504</ele>
        <time>2021-01-24T13:46:08.000Z</time>
      </trkpt>
      <trkpt lat="45.25154" lon="6.47914">
        <ele>1502.8000488281</ele>
        <time>2021-01-24T13:46:09.000Z</time>
      </trkpt>
      <trkpt lat="45.25155" lon="6.47913">
        <ele>1501.8000488281</ele>
        <time>2021-01-24T13:46:10.000Z</time>
      </trkpt>
      <trkpt lat="45.25156" lon="6.47911">
        <ele>1500.8000488281</ele>
        <time>2021-01-24T13:46:11.000Z</time>
      </trkpt>
      <trkpt lat="45.25158" lon="6.47908">
        <ele>1499.5999755859</ele>
        <time>2021-01-24T13:46:13.000Z</time>
      </trkpt>
      <trkpt lat="45.25159" lon="6.47904">
        <ele>1498.5999755859</ele>
        <time>2021-01-24T13:46:17.000Z</time>
      </trkpt>
      <trkpt lat="45.25159" lon="6.47904">
        <ele>1498.4000244141</ele>
        <time>2021-01-24T13:46:18.000Z</time>
      </trkpt>
      <trkpt lat="45.25158" lon="6.479">
        <ele>1498.1999511719</ele>
        <time>2021-01-24T13:46:20.000Z</time>
      </trkpt>
      <trkpt lat="45.25157" lon="6.47898">
        <ele>1497.1999511719</ele>
        <time>2021-01-24T13:46:22.000Z</time>
      </trkpt>
      <trkpt lat="45.25156" lon="6.47897">
        <ele>1496.1999511719</ele>
        <time>2021-01-24T13:46:24.000Z</time>
      </trkpt>
      <trkpt lat="45.25155" lon="6.47897">
        <ele>1495</ele>
        <time>2021-01-24T13:46:26.000Z</time>
      </trkpt>
      <trkpt lat="45.25155" lon="6.47895">
        <ele>1493.5999755859</ele>
        <time>2021-01-24T13:46:28.000Z</time>
      </trkpt>
      <trkpt lat="45.2516" lon="6.47891">
        <ele>1492.8000488281</ele>
        <time>2021-01-24T13:46:29.000Z</time>
      </trkpt>
      <trkpt lat="45.25164" lon="6.47885">
        <ele>1492.1999511719</ele>
        <time>2021-01-24T13:46:30.000Z</time>
      </trkpt>
      <trkpt lat="45.25171" lon="6.47869">
        <ele>1491.1999511719</ele>
        <time>2021-01-24T13:46:32.000Z</time>
      </trkpt>
      <trkpt lat="45.25172" lon="6.47861">
        <ele>1490</ele>
        <time>2021-01-24T13:46:33.000Z</time>
      </trkpt>
      <trkpt lat="45.25173" lon="6.47855">
        <ele>1488.1999511719</ele>
        <time>2021-01-24T13:46:34.000Z</time>
      </trkpt>
      <trkpt lat="45.25171" lon="6.47851">
        <ele>1486.4000244141</ele>
        <time>2021-01-24T13:46:35.000Z</time>
      </trkpt>
      <trkpt lat="45.25169" lon="6.47849">
        <ele>1484.5999755859</ele>
        <time>2021-01-24T13:46:36.000Z</time>
      </trkpt>
      <trkpt lat="45.25168" lon="6.47846">
        <ele>1483.1999511719</ele>
        <time>2021-01-24T13:46:37.000Z</time>
      </trkpt>
      <trkpt lat="45.25167" lon="6.47843">
        <ele>1481.8000488281</ele>
        <time>2021-01-24T13:46:38.000Z</time>
      </trkpt>
      <trkpt lat="45.25166" lon="6.47841">
        <ele>1480.5999755859</ele>
        <time>2021-01-24T13:46:39.000Z</time>
      </trkpt>
      <trkpt lat="45.25164" lon="6.47831">
        <ele>1479.4000244141</ele>
        <time>2021-01-24T13:46:41.000Z</time>
      </trkpt>
      <trkpt lat="45.25154" lon="6.47824">
        <ele>1477.8000488281</ele>
        <time>2021-01-24T13:46:43.000Z</time>
      </trkpt>
      <trkpt lat="45.25151" lon="6.47819">
        <ele>1476.8000488281</ele>
        <time>2021-01-24T13:46:44.000Z</time>
      </trkpt>
      <trkpt lat="45.25148" lon="6.47813">
        <ele>1475.5999755859</ele>
        <time>2021-01-24T13:46:45.000Z</time>
      </trkpt>
      <trkpt lat="45.25142" lon="6.47807">
        <ele>1474.1999511719</ele>
        <time>2021-01-24T13:46:46.000Z</time>
      </trkpt>
      <trkpt lat="45.25138" lon="6.47802">
        <ele>1472.5999755859</ele>
        <time>2021-01-24T13:46:47.000Z</time>
      </trkpt>
      <trkpt lat="45.25134" lon="6.47797">
        <ele>1470.8000488281</ele>
        <time>2021-01-24T13:46:48.000Z</time>
      </trkpt>
      <trkpt lat="45.2513" lon="6.4779">
        <ele>1469</ele>
        <time>2021-01-24T13:46:49.000Z</time>
      </trkpt>
      <trkpt lat="45.25126" lon="6.47787">
        <ele>1467</ele>
        <time>2021-01-24T13:46:50.000Z</time>
      </trkpt>
      <trkpt lat="45.25123" lon="6.47786">
        <ele>1465</ele>
        <time>2021-01-24T13:46:51.000Z</time>
      </trkpt>
      <trkpt lat="45.25122" lon="6.47783">
        <ele>1463.1999511719</ele>
        <time>2021-01-24T13:46:52.000Z</time>
      </trkpt>
      <trkpt lat="45.25121" lon="6.4778">
        <ele>1461.8000488281</ele>
        <time>2021-01-24T13:46:53.000Z</time>
      </trkpt>
      <trkpt lat="45.2512" lon="6.47778">
        <ele>1460.4000244141</ele>
        <time>2021-01-24T13:46:54.000Z</time>
      </trkpt>
      <trkpt lat="45.25118" lon="6.47772">
        <ele>1459.4000244141</ele>
        <time>2021-01-24T13:46:55.000Z</time>
      </trkpt>
      <trkpt lat="45.25115" lon="6.47765">
        <ele>1458.5999755859</ele>
        <time>2021-01-24T13:46:56.000Z</time>
      </trkpt>
      <trkpt lat="45.25112" lon="6.47757">
        <ele>1457.8000488281</ele>
        <time>2021-01-24T13:46:57.000Z</time>
      </trkpt>
      <trkpt lat="45.25109" lon="6.4775">
        <ele>1456.8000488281</ele>
        <time>2021-01-24T13:46:58.000Z</time>
      </trkpt>
      <trkpt lat="45.25106" lon="6.47743">
        <ele>1455.4000244141</ele>
        <time>2021-01-24T13:46:59.000Z</time>
      </trkpt>
      <trkpt lat="45.25103" lon="6.47737">
        <ele>1453.8000488281</ele>
        <time>2021-01-24T13:47:00.000Z</time>
      </trkpt>
      <trkpt lat="45.25101" lon="6.47731">
        <ele>1452</ele>
        <time>2021-01-24T13:47:01.000Z</time>
      </trkpt>
      <trkpt lat="45.251" lon="6.47724">
        <ele>1449.8000488281</ele>
        <time>2021-01-24T13:47:02.000Z</time>
      </trkpt>
      <trkpt lat="45.251" lon="6.47719">
        <ele>1447.5999755859</ele>
        <time>2021-01-24T13:47:03.000Z</time>
      </trkpt>
      <trkpt lat="45.25099" lon="6.47715">
        <ele>1446</ele>
        <time>2021-01-24T13:47:04.000Z</time>
      </trkpt>
      <trkpt lat="45.251" lon="6.47717">
        <ele>1445</ele>
        <time>2021-01-24T13:47:05.000Z</time>
      </trkpt>
      <trkpt lat="45.251" lon="6.47717">
        <ele>1444.1999511719</ele>
        <time>2021-01-24T13:47:06.000Z</time>
      </trkpt>
      <trkpt lat="45.25101" lon="6.47719">
        <ele>1442</ele>
        <time>2021-01-24T13:47:07.000Z</time>
      </trkpt>
      <trkpt lat="45.25102" lon="6.47726">
        <ele>1440.5999755859</ele>
        <time>2021-01-24T13:47:09.000Z</time>
      </trkpt>
      <trkpt lat="45.25104" lon="6.47734">
        <ele>1440</ele>
        <time>2021-01-24T13:47:12.000Z</time>
      </trkpt>
      <trkpt lat="45.25106" lon="6.47731">
        <ele>1439.5999755859</ele>
        <time>2021-01-24T13:47:17.000Z</time>
      </trkpt>
      <trkpt lat="45.25106" lon="6.47726">
        <ele>1439.5999755859</ele>
        <time>2021-01-24T13:47:18.000Z</time>
      </trkpt>
      <trkpt lat="45.25102" lon="6.47714">
        <ele>1438</ele>
        <time>2021-01-24T13:47:21.000Z</time>
      </trkpt>
      <trkpt lat="45.25098" lon="6.47706">
        <ele>1436.1999511719</ele>
        <time>2021-01-24T13:47:23.000Z</time>
      </trkpt>
      <trkpt lat="45.25093" lon="6.47701">
        <ele>1433.8000488281</ele>
        <time>2021-01-24T13:47:25.000Z</time>
      </trkpt>
      <trkpt lat="45.25096" lon="6.47689">
        <ele>1432.1999511719</ele>
        <time>2021-01-24T13:47:27.000Z</time>
      </trkpt>
      <trkpt lat="45.25099" lon="6.47683">
        <ele>1431</ele>
        <time>2021-01-24T13:47:28.000Z</time>
      </trkpt>
      <trkpt lat="45.25103" lon="6.47673">
        <ele>1429.8000488281</ele>
        <time>2021-01-24T13:47:29.000Z</time>
      </trkpt>
      <trkpt lat="45.25107" lon="6.47652">
        <ele>1427.8000488281</ele>
        <time>2021-01-24T13:47:31.000Z</time>
      </trkpt>
      <trkpt lat="45.25108" lon="6.47644">
        <ele>1426</ele>
        <time>2021-01-24T13:47:32.000Z</time>
      </trkpt>
      <trkpt lat="45.2511" lon="6.47635">
        <ele>1424</ele>
        <time>2021-01-24T13:47:33.000Z</time>
      </trkpt>
      <trkpt lat="45.2511" lon="6.47624">
        <ele>1421.5999755859</ele>
        <time>2021-01-24T13:47:34.000Z</time>
      </trkpt>
      <trkpt lat="45.25111" lon="6.47614">
        <ele>1419.1999511719</ele>
        <time>2021-01-24T13:47:35.000Z</time>
      </trkpt>
      <trkpt lat="45.2511" lon="6.47605">
        <ele>1417.1999511719</ele>
        <time>2021-01-24T13:47:36.000Z</time>
      </trkpt>
      <trkpt lat="45.25108" lon="6.476">
        <ele>1415.5999755859</ele>
        <time>2021-01-24T13:47:37.000Z</time>
      </trkpt>
      <trkpt lat="45.25104" lon="6.47595">
        <ele>1414</ele>
        <time>2021-01-24T13:47:38.000Z</time>
      </trkpt>
      <trkpt lat="45.251" lon="6.47589">
        <ele>1412.1999511719</ele>
        <time>2021-01-24T13:47:39.000Z</time>
      </trkpt>
      <trkpt lat="45.25097" lon="6.47584">
        <ele>1410.1999511719</ele>
        <time>2021-01-24T13:47:40.000Z</time>
      </trkpt>
      <trkpt lat="45.25094" lon="6.47581">
        <ele>1408.1999511719</ele>
        <time>2021-01-24T13:47:41.000Z</time>
      </trkpt>
      <trkpt lat="45.25091" lon="6.47578">
        <ele>1406.5999755859</ele>
        <time>2021-01-24T13:47:42.000Z</time>
      </trkpt>
      <trkpt lat="45.25087" lon="6.47576">
        <ele>1405.4000244141</ele>
        <time>2021-01-24T13:47:43.000Z</time>
      </trkpt>
      <trkpt lat="45.25082" lon="6.47571">
        <ele>1404</ele>
        <time>2021-01-24T13:47:45.000Z</time>
      </trkpt>
      <trkpt lat="45.25082" lon="6.4757">
        <ele>1403.5999755859</ele>
        <time>2021-01-24T13:47:46.000Z</time>
      </trkpt>
      <trkpt lat="45.25082" lon="6.47568">
        <ele>1403.4000244141</ele>
        <time>2021-01-24T13:47:47.000Z</time>
      </trkpt>
      <trkpt lat="45.25082" lon="6.47567">
        <ele>1403</ele>
        <time>2021-01-24T13:47:48.000Z</time>
      </trkpt>
      <trkpt lat="45.25086" lon="6.4756">
        <ele>1401.8000488281</ele>
        <time>2021-01-24T13:47:51.000Z</time>
      </trkpt>
      <trkpt lat="45.25086" lon="6.47556">
        <ele>1401.1999511719</ele>
        <time>2021-01-24T13:47:52.000Z</time>
      </trkpt>
      <trkpt lat="45.25086" lon="6.47552">
        <ele>1400.1999511719</ele>
        <time>2021-01-24T13:47:53.000Z</time>
      </trkpt>
      <trkpt lat="45.25086" lon="6.47548">
        <ele>1398.8000488281</ele>
        <time>2021-01-24T13:47:54.000Z</time>
      </trkpt>
      <trkpt lat="45.25087" lon="6.47543">
        <ele>1395.5999755859</ele>
        <time>2021-01-24T13:47:55.000Z</time>
      </trkpt>
      <trkpt lat="45.25088" lon="6.47538">
        <ele>1394.4000244141</ele>
        <time>2021-01-24T13:47:56.000Z</time>
      </trkpt>
      <trkpt lat="45.25087" lon="6.47532">
        <ele>1393.5999755859</ele>
        <time>2021-01-24T13:47:57.000Z</time>
      </trkpt>
      <trkpt lat="45.25087" lon="6.47526">
        <ele>1392.4000244141</ele>
        <time>2021-01-24T13:47:58.000Z</time>
      </trkpt>
      <trkpt lat="45.25086" lon="6.47521">
        <ele>1390.4000244141</ele>
        <time>2021-01-24T13:47:59.000Z</time>
      </trkpt>
      <trkpt lat="45.25086" lon="6.47514">
        <ele>1388.4000244141</ele>
        <time>2021-01-24T13:48:00.000Z</time>
      </trkpt>
      <trkpt lat="45.25086" lon="6.4751">
        <ele>1386.4000244141</ele>
        <time>2021-01-24T13:48:01.000Z</time>
      </trkpt>
      <trkpt lat="45.25086" lon="6.47508">
        <ele>1384.5999755859</ele>
        <time>2021-01-24T13:48:02.000Z</time>
      </trkpt>
      <trkpt lat="45.25087" lon="6.47507">
        <ele>1383</ele>
        <time>2021-01-24T13:48:03.000Z</time>
      </trkpt>
      <trkpt lat="45.25089" lon="6.47506">
        <ele>1381.8000488281</ele>
        <time>2021-01-24T13:48:04.000Z</time>
      </trkpt>
      <trkpt lat="45.25091" lon="6.47504">
        <ele>1380.8000488281</ele>
        <time>2021-01-24T13:48:05.000Z</time>
      </trkpt>
      <trkpt lat="45.2509" lon="6.47497">
        <ele>1379.1999511719</ele>
        <time>2021-01-24T13:48:07.000Z</time>
      </trkpt>
      <trkpt lat="45.2509" lon="6.47492">
        <ele>1378.4000244141</ele>
        <time>2021-01-24T13:48:08.000Z</time>
      </trkpt>
      <trkpt lat="45.25088" lon="6.47488">
        <ele>1377.4000244141</ele>
        <time>2021-01-24T13:48:09.000Z</time>
      </trkpt>
      <trkpt lat="45.25088" lon="6.47484">
        <ele>1376.1999511719</ele>
        <time>2021-01-24T13:48:10.000Z</time>
      </trkpt>
      <trkpt lat="45.25089" lon="6.47482">
        <ele>1374.8000488281</ele>
        <time>2021-01-24T13:48:11.000Z</time>
      </trkpt>
      <trkpt lat="45.25088" lon="6.47479">
        <ele>1373.5999755859</ele>
        <time>2021-01-24T13:48:12.000Z</time>
      </trkpt>
      <trkpt lat="45.25087" lon="6.47477">
        <ele>1372.8000488281</ele>
        <time>2021-01-24T13:48:13.000Z</time>
      </trkpt>
      <trkpt lat="45.25087" lon="6.47477">
        <ele>1372.1999511719</ele>
        <time>2021-01-24T13:48:14.000Z</time>
      </trkpt>
      <trkpt lat="45.25088" lon="6.47473">
        <ele>1371.1999511719</ele>
        <time>2021-01-24T13:48:16.000Z</time>
      </trkpt>
      <trkpt lat="45.25087" lon="6.47471">
        <ele>1369.5999755859</ele>
        <time>2021-01-24T13:48:18.000Z</time>
      </trkpt>
      <trkpt lat="45.25087" lon="6.47471">
        <ele>1368.4000244141</ele>
        <time>2021-01-24T13:48:19.000Z</time>
      </trkpt>
      <trkpt lat="45.25087" lon="6.47471">
        <ele>1367.8000488281</ele>
        <time>2021-01-24T13:48:21.000Z</time>
      </trkpt>
      <trkpt lat="45.25088" lon="6.47466">
        <ele>1367.4000244141</ele>
        <time>2021-01-24T13:48:25.000Z</time>
      </trkpt>
      <trkpt lat="45.25092" lon="6.4746">
        <ele>1367</ele>
        <time>2021-01-24T13:48:27.000Z</time>
      </trkpt>
      <trkpt lat="45.25095" lon="6.47457">
        <ele>1365.8000488281</ele>
        <time>2021-01-24T13:48:30.000Z</time>
      </trkpt>
      <trkpt lat="45.25095" lon="6.47454">
        <ele>1365.1999511719</ele>
        <time>2021-01-24T13:48:31.000Z</time>
      </trkpt>
      <trkpt lat="45.25097" lon="6.47451">
        <ele>1364.5999755859</ele>
        <time>2021-01-24T13:48:32.000Z</time>
      </trkpt>
      <trkpt lat="45.25095" lon="6.47445">
        <ele>1363.5999755859</ele>
        <time>2021-01-24T13:48:34.000Z</time>
      </trkpt>
      <trkpt lat="45.25099" lon="6.47425">
        <ele>1362</ele>
        <time>2021-01-24T13:48:37.000Z</time>
      </trkpt>
      <trkpt lat="45.25099" lon="6.47414">
        <ele>1360.8000488281</ele>
        <time>2021-01-24T13:48:38.000Z</time>
      </trkpt>
      <trkpt lat="45.25097" lon="6.47405">
        <ele>1359.5999755859</ele>
        <time>2021-01-24T13:48:39.000Z</time>
      </trkpt>
      <trkpt lat="45.25094" lon="6.47394">
        <ele>1358.4000244141</ele>
        <time>2021-01-24T13:48:40.000Z</time>
      </trkpt>
      <trkpt lat="45.25091" lon="6.47382">
        <ele>1357.1999511719</ele>
        <time>2021-01-24T13:48:41.000Z</time>
      </trkpt>
      <trkpt lat="45.25089" lon="6.47373">
        <ele>1355.8000488281</ele>
        <time>2021-01-24T13:48:42.000Z</time>
      </trkpt>
      <trkpt lat="45.25086" lon="6.47366">
        <ele>1352.4000244141</ele>
        <time>2021-01-24T13:48:43.000Z</time>
      </trkpt>
      <trkpt lat="45.25078" lon="6.47363">
        <ele>1350.5999755859</ele>
        <time>2021-01-24T13:48:44.000Z</time>
      </trkpt>
      <trkpt lat="45.25071" lon="6.47359">
        <ele>1348.8000488281</ele>
        <time>2021-01-24T13:48:45.000Z</time>
      </trkpt>
      <trkpt lat="45.25066" lon="6.47355">
        <ele>1347</ele>
        <time>2021-01-24T13:48:46.000Z</time>
      </trkpt>
      <trkpt lat="45.25061" lon="6.47352">
        <ele>1345.5999755859</ele>
        <time>2021-01-24T13:48:47.000Z</time>
      </trkpt>
      <trkpt lat="45.25057" lon="6.4735">
        <ele>1344.1999511719</ele>
        <time>2021-01-24T13:48:48.000Z</time>
      </trkpt>
      <trkpt lat="45.25055" lon="6.47348">
        <ele>1343.1999511719</ele>
        <time>2021-01-24T13:48:49.000Z</time>
      </trkpt>
      <trkpt lat="45.25047" lon="6.47346">
        <ele>1342.1999511719</ele>
        <time>2021-01-24T13:48:51.000Z</time>
      </trkpt>
      <trkpt lat="45.25044" lon="6.47345">
        <ele>1341.8000488281</ele>
        <time>2021-01-24T13:48:52.000Z</time>
      </trkpt>
      <trkpt lat="45.25036" lon="6.47346">
        <ele>1341</ele>
        <time>2021-01-24T13:48:56.000Z</time>
      </trkpt>
      <trkpt lat="45.25036" lon="6.47346">
        <ele>1340.8000488281</ele>
        <time>2021-01-24T13:48:57.000Z</time>
      </trkpt>
      <trkpt lat="45.25036" lon="6.47346">
        <ele>1340.1999511719</ele>
        <time>2021-01-24T13:49:06.000Z</time>
      </trkpt>
      <trkpt lat="45.25036" lon="6.47346">
        <ele>1339.8000488281</ele>
        <time>2021-01-24T13:49:07.000Z</time>
      </trkpt>
      <trkpt lat="45.25036" lon="6.47346">
        <ele>1339.8000488281</ele>
        <time>2021-01-24T13:49:21.000Z</time>
      </trkpt>
      <trkpt lat="45.25036" lon="6.47346">
        <ele>1338.8000488281</ele>
        <time>2021-01-24T13:49:27.000Z</time>
      </trkpt>
      <trkpt lat="45.25036" lon="6.47346">
        <ele>1339</ele>
        <time>2021-01-24T13:49:29.000Z</time>
      </trkpt>
      <trkpt lat="45.25036" lon="6.47346">
        <ele>1339.8000488281</ele>
        <time>2021-01-24T13:49:31.000Z</time>
      </trkpt>
      <trkpt lat="45.25035" lon="6.47345">
        <ele>1339.5999755859</ele>
        <time>2021-01-24T13:49:39.000Z</time>
      </trkpt>
      <trkpt lat="45.25035" lon="6.47345">
        <ele>1339.4000244141</ele>
        <time>2021-01-24T13:49:50.000Z</time>
      </trkpt>
      <trkpt lat="45.25035" lon="6.47345">
        <ele>1339.8000488281</ele>
        <time>2021-01-24T13:50:02.000Z</time>
      </trkpt>
      <trkpt lat="45.25035" lon="6.47345">
        <ele>1339.8000488281</ele>
        <time>2021-01-24T13:50:10.000Z</time>
      </trkpt>
      <trkpt lat="45.25034" lon="6.47349">
        <ele>1339.5999755859</ele>
        <time>2021-01-24T13:50:14.000Z</time>
      </trkpt>
      <trkpt lat="45.25031" lon="6.47357">
        <ele>1339.4000244141</ele>
        <time>2021-01-24T13:50:20.000Z</time>
      </trkpt>
      <trkpt lat="45.25025" lon="6.47361">
        <ele>1339</ele>
        <time>2021-01-24T13:50:26.000Z</time>
      </trkpt>
      <trkpt lat="45.25022" lon="6.47359">
        <ele>1339.1999511719</ele>
        <time>2021-01-24T13:50:33.000Z</time>
      </trkpt>
      <trkpt lat="45.25022" lon="6.47359">
        <ele>1339.8000488281</ele>
        <time>2021-01-24T13:50:43.000Z</time>
      </trkpt>
      <trkpt lat="45.25022" lon="6.47359">
        <ele>1339.5999755859</ele>
        <time>2021-01-24T13:50:52.000Z</time>
      </trkpt>
      <trkpt lat="45.25022" lon="6.47359">
        <ele>1339.4000244141</ele>
        <time>2021-01-24T13:51:01.000Z</time>
      </trkpt>
      <trkpt lat="45.2502" lon="6.47361">
        <ele>1340</ele>
        <time>2021-01-24T13:51:09.000Z</time>
      </trkpt>
      <trkpt lat="45.2502" lon="6.47361">
        <ele>1340</ele>
        <time>2021-01-24T13:51:18.000Z</time>
      </trkpt>
      <trkpt lat="45.2502" lon="6.47361">
        <ele>1338.8000488281</ele>
        <time>2021-01-24T13:51:27.000Z</time>
      </trkpt>
    </trkseg>
  </trk>
</gpx>